<?xml version='1.0' encoding='UTF-8'?><gpx version="1.1" creator="JPX - https://github.com/jenetics/jpx" xmlns="http://www.topografix.com/GPX/1/1"><trk><trkseg><trkpt lat="44.9540617" lon="8.0182"><ele>175.0</ele><time>2026-04-12T10:34:31.875Z</time></trkpt><trkpt lat="44.9541917" lon="8.01812"><ele>175.0</ele><time>2026-04-12T10:34:32.875Z</time></trkpt><trkpt lat="44.9543133" lon="8.0180583"><ele>175.0</ele><time>2026-04-12T10:34:33.875Z</time></trkpt><trkpt lat="44.9544433" lon="8.0179833"><ele>175.0</ele><time>2026-04-12T10:34:34.876Z</time></trkpt><trkpt lat="44.9545767" lon="8.017895"><ele>175.66666666666669</ele><time>2026-04-12T10:34:35.875Z</time></trkpt><trkpt lat="44.954715" lon="8.0178033"><ele>176.33333333333334</ele><time>2026-04-12T10:34:36.876Z</time></trkpt><trkpt lat="44.9548533" lon="8.01771"><ele>177.0</ele><time>2026-04-12T10:34:37.875Z</time></trkpt><trkpt lat="44.954995" lon="8.0176167"><ele>177.0</ele><time>2026-04-12T10:34:38.876Z</time></trkpt><trkpt lat="44.95515" lon="8.01753"><ele>177.0</ele><time>2026-04-12T10:34:39.876Z</time></trkpt><trkpt lat="44.9553067" lon="8.017445"><ele>177.0</ele><time>2026-04-12T10:34:40.876Z</time></trkpt><trkpt lat="44.95546" lon="8.0173817"><ele>177.0</ele><time>2026-04-12T10:34:41.875Z</time></trkpt><trkpt lat="44.95562" lon="8.017345"><ele>177.0</ele><time>2026-04-12T10:34:42.876Z</time></trkpt><trkpt lat="44.95578" lon="8.017325"><ele>177.0</ele><time>2026-04-12T10:34:43.876Z</time></trkpt><trkpt lat="44.9559333" lon="8.0173433"><ele>177.0</ele><time>2026-04-12T10:34:44.876Z</time></trkpt><trkpt lat="44.956085" lon="8.0173883"><ele>177.0</ele><time>2026-04-12T10:34:45.875Z</time></trkpt><trkpt lat="44.9562367" lon="8.01744"><ele>177.0</ele><time>2026-04-12T10:34:46.875Z</time></trkpt><trkpt lat="44.9563983" lon="8.0174967"><ele>177.33333333333334</ele><time>2026-04-12T10:34:47.876Z</time></trkpt><trkpt lat="44.95656" lon="8.01756"><ele>177.66666666666669</ele><time>2026-04-12T10:34:48.876Z</time></trkpt><trkpt lat="44.956725" lon="8.0176217"><ele>178.0</ele><time>2026-04-12T10:34:49.875Z</time></trkpt><trkpt lat="44.956885" lon="8.0176867"><ele>178.0</ele><time>2026-04-12T10:34:50.875Z</time></trkpt><trkpt lat="44.9570417" lon="8.01774"><ele>178.0</ele><time>2026-04-12T10:34:51.875Z</time></trkpt><trkpt lat="44.9571983" lon="8.0177967"><ele>178.0</ele><time>2026-04-12T10:34:52.876Z</time></trkpt><trkpt lat="44.957355" lon="8.017865"><ele>178.0</ele><time>2026-04-12T10:34:53.876Z</time></trkpt><trkpt lat="44.9575117" lon="8.0179333"><ele>178.0</ele><time>2026-04-12T10:34:54.875Z</time></trkpt><trkpt lat="44.9576667" lon="8.0179983"><ele>178.0</ele><time>2026-04-12T10:34:55.875Z</time></trkpt><trkpt lat="44.9578083" lon="8.018065"><ele>178.33333333333334</ele><time>2026-04-12T10:34:56.875Z</time></trkpt><trkpt lat="44.9579633" lon="8.01811"><ele>178.66666666666666</ele><time>2026-04-12T10:34:57.876Z</time></trkpt><trkpt lat="44.95813" lon="8.0181317"><ele>179.0</ele><time>2026-04-12T10:34:58.875Z</time></trkpt><trkpt lat="44.958285" lon="8.0181283"><ele>179.33333333333331</ele><time>2026-04-12T10:34:59.875Z</time></trkpt><trkpt lat="44.9584383" lon="8.01809"><ele>179.66666666666666</ele><time>2026-04-12T10:35:00.876Z</time></trkpt><trkpt lat="44.9585867" lon="8.0180183"><ele>180.0</ele><time>2026-04-12T10:35:01.875Z</time></trkpt><trkpt lat="44.9587317" lon="8.0179017"><ele>180.0</ele><time>2026-04-12T10:35:02.876Z</time></trkpt><trkpt lat="44.958865" lon="8.017795"><ele>180.0</ele><time>2026-04-12T10:35:03.876Z</time></trkpt><trkpt lat="44.95901" lon="8.0177"><ele>180.0</ele><time>2026-04-12T10:35:04.875Z</time></trkpt><trkpt lat="44.959155" lon="8.0176"><ele>180.66666666666666</ele><time>2026-04-12T10:35:05.876Z</time></trkpt><trkpt lat="44.959295" lon="8.0175033"><ele>181.33333333333331</ele><time>2026-04-12T10:35:06.876Z</time></trkpt><trkpt lat="44.9594383" lon="8.017395"><ele>182.0</ele><time>2026-04-12T10:35:07.876Z</time></trkpt><trkpt lat="44.959585" lon="8.0173017"><ele>182.0</ele><time>2026-04-12T10:35:08.875Z</time></trkpt><trkpt lat="44.9597333" lon="8.017205"><ele>182.0</ele><time>2026-04-12T10:35:09.875Z</time></trkpt><trkpt lat="44.9598767" lon="8.017105"><ele>182.0</ele><time>2026-04-12T10:35:10.875Z</time></trkpt><trkpt lat="44.96003" lon="8.0170083"><ele>181.66666666666666</ele><time>2026-04-12T10:35:11.876Z</time></trkpt><trkpt lat="44.9601783" lon="8.0169117"><ele>181.33333333333334</ele><time>2026-04-12T10:35:12.875Z</time></trkpt><trkpt lat="44.96032" lon="8.01681"><ele>181.0</ele><time>2026-04-12T10:35:13.875Z</time></trkpt><trkpt lat="44.9604617" lon="8.0167183"><ele>180.0</ele><time>2026-04-12T10:35:14.876Z</time></trkpt><trkpt lat="44.960615" lon="8.0166283"><ele>179.0</ele><time>2026-04-12T10:35:15.875Z</time></trkpt><trkpt lat="44.96077" lon="8.01655"><ele>178.0</ele><time>2026-04-12T10:35:16.876Z</time></trkpt><trkpt lat="44.9609133" lon="8.0164767"><ele>178.0</ele><time>2026-04-12T10:35:17.875Z</time></trkpt><trkpt lat="44.9610483" lon="8.0164083"><ele>178.0</ele><time>2026-04-12T10:35:18.876Z</time></trkpt><trkpt lat="44.9611833" lon="8.0163367"><ele>178.0</ele><time>2026-04-12T10:35:19.876Z</time></trkpt><trkpt lat="44.9613167" lon="8.0162667"><ele>178.0</ele><time>2026-04-12T10:35:20.875Z</time></trkpt><trkpt lat="44.9614483" lon="8.0162017"><ele>178.0</ele><time>2026-04-12T10:35:21.876Z</time></trkpt><trkpt lat="44.9615833" lon="8.0161317"><ele>178.0</ele><time>2026-04-12T10:35:22.875Z</time></trkpt><trkpt lat="44.9617217" lon="8.0160583"><ele>178.0</ele><time>2026-04-12T10:35:23.876Z</time></trkpt><trkpt lat="44.9618667" lon="8.0159883"><ele>178.0</ele><time>2026-04-12T10:35:24.875Z</time></trkpt><trkpt lat="44.96202" lon="8.0159083"><ele>179.0</ele><time>2026-04-12T10:35:25.875Z</time></trkpt><trkpt lat="44.96216" lon="8.0158267"><ele>180.0</ele><time>2026-04-12T10:35:26.875Z</time></trkpt><trkpt lat="44.9623017" lon="8.0157467"><ele>181.0</ele><time>2026-04-12T10:35:27.876Z</time></trkpt><trkpt lat="44.9624417" lon="8.015675"><ele>182.0</ele><time>2026-04-12T10:35:28.875Z</time></trkpt><trkpt lat="44.9625783" lon="8.0156067"><ele>183.0</ele><time>2026-04-12T10:35:29.875Z</time></trkpt><trkpt lat="44.9627133" lon="8.0155417"><ele>184.0</ele><time>2026-04-12T10:35:30.876Z</time></trkpt><trkpt lat="44.9628433" lon="8.0154833"><ele>185.0</ele><time>2026-04-12T10:35:31.876Z</time></trkpt><trkpt lat="44.96296" lon="8.0154283"><ele>185.0</ele><time>2026-04-12T10:35:32.876Z</time></trkpt><trkpt lat="44.9630683" lon="8.015375"><ele>185.0</ele><time>2026-04-12T10:35:33.876Z</time></trkpt><trkpt lat="44.9631583" lon="8.01533"><ele>185.0</ele><time>2026-04-12T10:35:34.876Z</time></trkpt><trkpt lat="44.96324" lon="8.0153"><ele>185.0</ele><time>2026-04-12T10:35:35.876Z</time></trkpt><trkpt lat="44.963345" lon="8.0152567"><ele>185.0</ele><time>2026-04-12T10:35:37.875Z</time></trkpt><trkpt lat="44.9634217" lon="8.0152417"><ele>184.6</ele><time>2026-04-12T10:35:41.875Z</time></trkpt><trkpt lat="44.9635067" lon="8.015165"><ele>184.2</ele><time>2026-04-12T10:36:41.875Z</time></trkpt><trkpt lat="44.9635667" lon="8.0151117"><ele>183.8</ele><time>2026-04-12T10:36:42.875Z</time></trkpt><trkpt lat="44.963645" lon="8.015055"><ele>183.4</ele><time>2026-04-12T10:36:43.876Z</time></trkpt><trkpt lat="44.9637283" lon="8.01499"><ele>183.0</ele><time>2026-04-12T10:36:44.875Z</time></trkpt><trkpt lat="44.963815" lon="8.0149233"><ele>182.8</ele><time>2026-04-12T10:36:45.875Z</time></trkpt><trkpt lat="44.963905" lon="8.0148567"><ele>182.60000000000002</ele><time>2026-04-12T10:36:46.875Z</time></trkpt><trkpt lat="44.96399" lon="8.01479"><ele>182.39999999999998</ele><time>2026-04-12T10:36:47.876Z</time></trkpt><trkpt lat="44.9640633" lon="8.01473"><ele>182.2</ele><time>2026-04-12T10:36:48.875Z</time></trkpt><trkpt lat="44.964135" lon="8.014665"><ele>182.0</ele><time>2026-04-12T10:36:49.876Z</time></trkpt><trkpt lat="44.9642033" lon="8.0145933"><ele>182.39999999999998</ele><time>2026-04-12T10:36:50.876Z</time></trkpt><trkpt lat="44.9642833" lon="8.014525"><ele>182.79999999999998</ele><time>2026-04-12T10:36:51.875Z</time></trkpt><trkpt lat="44.9643767" lon="8.014445"><ele>183.2</ele><time>2026-04-12T10:36:52.876Z</time></trkpt><trkpt lat="44.96448" lon="8.0143633"><ele>183.6</ele><time>2026-04-12T10:36:53.876Z</time></trkpt><trkpt lat="44.9645833" lon="8.0142717"><ele>184.0</ele><time>2026-04-12T10:36:54.875Z</time></trkpt><trkpt lat="44.9646867" lon="8.0141783"><ele>183.5</ele><time>2026-04-12T10:36:55.875Z</time></trkpt><trkpt lat="44.9647933" lon="8.0140733"><ele>183.0</ele><time>2026-04-12T10:36:56.876Z</time></trkpt><trkpt lat="44.9649033" lon="8.0139733"><ele>182.5</ele><time>2026-04-12T10:36:57.875Z</time></trkpt><trkpt lat="44.9650167" lon="8.0138667"><ele>182.0</ele><time>2026-04-12T10:36:58.875Z</time></trkpt><trkpt lat="44.9651383" lon="8.0137583"><ele>182.0</ele><time>2026-04-12T10:36:59.875Z</time></trkpt><trkpt lat="44.9652583" lon="8.0136567"><ele>182.0</ele><time>2026-04-12T10:37:00.876Z</time></trkpt><trkpt lat="44.9653817" lon="8.01354"><ele>182.0</ele><time>2026-04-12T10:37:01.875Z</time></trkpt><trkpt lat="44.96551" lon="8.0134267"><ele>182.0</ele><time>2026-04-12T10:37:02.876Z</time></trkpt><trkpt lat="44.9656433" lon="8.0133083"><ele>181.33333333333331</ele><time>2026-04-12T10:37:03.876Z</time></trkpt><trkpt lat="44.9657767" lon="8.013195"><ele>180.66666666666666</ele><time>2026-04-12T10:37:04.875Z</time></trkpt><trkpt lat="44.965905" lon="8.01308"><ele>180.0</ele><time>2026-04-12T10:37:05.875Z</time></trkpt><trkpt lat="44.9660333" lon="8.012965"><ele>183.0</ele><time>2026-04-12T10:37:06.875Z</time></trkpt><trkpt lat="44.9661633" lon="8.012855"><ele>186.0</ele><time>2026-04-12T10:37:07.876Z</time></trkpt><trkpt lat="44.9663033" lon="8.012735"><ele>189.0</ele><time>2026-04-12T10:37:08.876Z</time></trkpt><trkpt lat="44.9664383" lon="8.0126383"><ele>189.0</ele><time>2026-04-12T10:37:09.875Z</time></trkpt><trkpt lat="44.96658" lon="8.01255"><ele>189.0</ele><time>2026-04-12T10:37:10.876Z</time></trkpt><trkpt lat="44.966725" lon="8.0124683"><ele>189.0</ele><time>2026-04-12T10:37:11.876Z</time></trkpt><trkpt lat="44.9668733" lon="8.0123917"><ele>186.66666666666666</ele><time>2026-04-12T10:37:12.876Z</time></trkpt><trkpt lat="44.9670133" lon="8.01231"><ele>184.33333333333331</ele><time>2026-04-12T10:37:13.875Z</time></trkpt><trkpt lat="44.9671683" lon="8.0122383"><ele>182.0</ele><time>2026-04-12T10:37:14.876Z</time></trkpt><trkpt lat="44.96732" lon="8.0121483"><ele>182.0</ele><time>2026-04-12T10:37:15.875Z</time></trkpt><trkpt lat="44.967475" lon="8.0120867"><ele>182.0</ele><time>2026-04-12T10:37:16.876Z</time></trkpt><trkpt lat="44.967635" lon="8.0120383"><ele>182.0</ele><time>2026-04-12T10:37:17.876Z</time></trkpt><trkpt lat="44.9678117" lon="8.0120183"><ele>182.0</ele><time>2026-04-12T10:37:18.875Z</time></trkpt><trkpt lat="44.96797" lon="8.0120317"><ele>182.0</ele><time>2026-04-12T10:37:19.876Z</time></trkpt><trkpt lat="44.9681267" lon="8.0120517"><ele>182.0</ele><time>2026-04-12T10:37:20.876Z</time></trkpt><trkpt lat="44.9682817" lon="8.012095"><ele>181.33333333333331</ele><time>2026-04-12T10:37:21.875Z</time></trkpt><trkpt lat="44.9684383" lon="8.0121483"><ele>180.66666666666666</ele><time>2026-04-12T10:37:22.875Z</time></trkpt><trkpt lat="44.9685883" lon="8.0122117"><ele>180.0</ele><time>2026-04-12T10:37:23.875Z</time></trkpt><trkpt lat="44.968715" lon="8.0123"><ele>180.0</ele><time>2026-04-12T10:37:24.876Z</time></trkpt><trkpt lat="44.968855" lon="8.0123917"><ele>180.0</ele><time>2026-04-12T10:37:25.875Z</time></trkpt><trkpt lat="44.9689883" lon="8.0124733"><ele>180.0</ele><time>2026-04-12T10:37:26.875Z</time></trkpt><trkpt lat="44.9691183" lon="8.0125417"><ele>180.0</ele><time>2026-04-12T10:37:27.876Z</time></trkpt><trkpt lat="44.9692383" lon="8.0126033"><ele>180.4</ele><time>2026-04-12T10:37:28.876Z</time></trkpt><trkpt lat="44.96935" lon="8.0126583"><ele>180.8</ele><time>2026-04-12T10:37:29.875Z</time></trkpt><trkpt lat="44.96945" lon="8.0127167"><ele>181.2</ele><time>2026-04-12T10:37:30.875Z</time></trkpt><trkpt lat="44.9695517" lon="8.01277"><ele>181.6</ele><time>2026-04-12T10:37:31.876Z</time></trkpt><trkpt lat="44.969645" lon="8.0128233"><ele>182.0</ele><time>2026-04-12T10:37:32.875Z</time></trkpt><trkpt lat="44.9697267" lon="8.012865"><ele>182.0</ele><time>2026-04-12T10:37:33.876Z</time></trkpt><trkpt lat="44.9697983" lon="8.0129083"><ele>182.0</ele><time>2026-04-12T10:37:34.875Z</time></trkpt><trkpt lat="44.9698983" lon="8.0128817"><ele>182.0</ele><time>2026-04-12T10:37:36.875Z</time></trkpt><trkpt lat="44.969935" lon="8.01269"><ele>182.0</ele><time>2026-04-12T10:37:38.875Z</time></trkpt><trkpt lat="44.9699167" lon="8.01255"><ele>182.0</ele><time>2026-04-12T10:37:39.876Z</time></trkpt><trkpt lat="44.9698917" lon="8.01239"><ele>181.5</ele><time>2026-04-12T10:37:40.876Z</time></trkpt><trkpt lat="44.9698733" lon="8.0122333"><ele>181.0</ele><time>2026-04-12T10:37:41.875Z</time></trkpt><trkpt lat="44.9698667" lon="8.0120733"><ele>180.5</ele><time>2026-04-12T10:37:42.876Z</time></trkpt><trkpt lat="44.9698667" lon="8.0119017"><ele>180.0</ele><time>2026-04-12T10:37:43.875Z</time></trkpt><trkpt lat="44.9698633" lon="8.0117267"><ele>179.75</ele><time>2026-04-12T10:37:44.876Z</time></trkpt><trkpt lat="44.9698783" lon="8.0115517"><ele>179.5</ele><time>2026-04-12T10:37:45.876Z</time></trkpt><trkpt lat="44.9699" lon="8.0113733"><ele>179.25</ele><time>2026-04-12T10:37:46.876Z</time></trkpt><trkpt lat="44.96992" lon="8.0111983"><ele>179.0</ele><time>2026-04-12T10:37:47.875Z</time></trkpt><trkpt lat="44.969925" lon="8.0110433"><ele>179.0</ele><time>2026-04-12T10:37:48.875Z</time></trkpt><trkpt lat="44.9699283" lon="8.0108783"><ele>179.0</ele><time>2026-04-12T10:37:49.876Z</time></trkpt><trkpt lat="44.9699383" lon="8.0107217"><ele>179.0</ele><time>2026-04-12T10:37:50.875Z</time></trkpt><trkpt lat="44.96995" lon="8.0105733"><ele>179.0</ele><time>2026-04-12T10:37:51.875Z</time></trkpt><trkpt lat="44.96996" lon="8.010435"><ele>179.0</ele><time>2026-04-12T10:37:52.876Z</time></trkpt><trkpt lat="44.969965" lon="8.0103"><ele>179.5</ele><time>2026-04-12T10:37:53.875Z</time></trkpt><trkpt lat="44.96997" lon="8.010175"><ele>180.0</ele><time>2026-04-12T10:37:54.875Z</time></trkpt><trkpt lat="44.96997" lon="8.01006"><ele>180.5</ele><time>2026-04-12T10:37:55.875Z</time></trkpt><trkpt lat="44.9699667" lon="8.009965"><ele>181.0</ele><time>2026-04-12T10:37:56.875Z</time></trkpt><trkpt lat="44.9699467" lon="8.0098317"><ele>181.5</ele><time>2026-04-12T10:37:58.876Z</time></trkpt><trkpt lat="44.9700133" lon="8.0097433"><ele>182.0</ele><time>2026-04-12T10:38:00.875Z</time></trkpt><trkpt lat="44.97015" lon="8.009745"><ele>182.0</ele><time>2026-04-12T10:38:02.875Z</time></trkpt><trkpt lat="44.9702233" lon="8.0097483"><ele>182.0</ele><time>2026-04-12T10:38:03.875Z</time></trkpt><trkpt lat="44.97034" lon="8.00973"><ele>182.0</ele><time>2026-04-12T10:38:05.875Z</time></trkpt><trkpt lat="44.9704317" lon="8.0097483"><ele>182.0</ele><time>2026-04-12T10:38:07.875Z</time></trkpt><trkpt lat="44.9705317" lon="8.0097667"><ele>182.0</ele><time>2026-04-12T10:38:09.875Z</time></trkpt><trkpt lat="44.9706283" lon="8.0097767"><ele>182.0</ele><time>2026-04-12T10:38:11.875Z</time></trkpt><trkpt lat="44.9706917" lon="8.0097867"><ele>182.0</ele><time>2026-04-12T10:38:13.875Z</time></trkpt><trkpt lat="44.9707783" lon="8.00981"><ele>182.0</ele><time>2026-04-12T10:38:15.876Z</time></trkpt><trkpt lat="44.9708783" lon="8.00983"><ele>182.0</ele><time>2026-04-12T10:38:17.875Z</time></trkpt><trkpt lat="44.9709783" lon="8.009845"><ele>182.0</ele><time>2026-04-12T10:38:19.875Z</time></trkpt><trkpt lat="44.9710917" lon="8.0098667"><ele>182.0</ele><time>2026-04-12T10:38:21.876Z</time></trkpt><trkpt lat="44.971155" lon="8.009885"><ele>182.0</ele><time>2026-04-12T10:38:22.876Z</time></trkpt><trkpt lat="44.9712217" lon="8.00991"><ele>182.0</ele><time>2026-04-12T10:38:23.876Z</time></trkpt><trkpt lat="44.971295" lon="8.00994"><ele>182.0</ele><time>2026-04-12T10:38:24.875Z</time></trkpt><trkpt lat="44.9713717" lon="8.0099617"><ele>182.0</ele><time>2026-04-12T10:38:25.875Z</time></trkpt><trkpt lat="44.971445" lon="8.0099783"><ele>182.0</ele><time>2026-04-12T10:38:26.876Z</time></trkpt><trkpt lat="44.97152" lon="8.0099983"><ele>182.0</ele><time>2026-04-12T10:38:27.876Z</time></trkpt><trkpt lat="44.9715967" lon="8.0100233"><ele>182.0</ele><time>2026-04-12T10:38:28.875Z</time></trkpt><trkpt lat="44.9716717" lon="8.0100367"><ele>182.0</ele><time>2026-04-12T10:38:29.875Z</time></trkpt><trkpt lat="44.9717433" lon="8.0100567"><ele>182.0</ele><time>2026-04-12T10:38:30.875Z</time></trkpt><trkpt lat="44.9718183" lon="8.0100733"><ele>182.0</ele><time>2026-04-12T10:38:31.875Z</time></trkpt><trkpt lat="44.9719033" lon="8.0100867"><ele>182.0</ele><time>2026-04-12T10:38:32.876Z</time></trkpt><trkpt lat="44.97199" lon="8.0101133"><ele>182.0</ele><time>2026-04-12T10:38:33.875Z</time></trkpt><trkpt lat="44.9720767" lon="8.0101367"><ele>182.6</ele><time>2026-04-12T10:38:34.876Z</time></trkpt><trkpt lat="44.9721617" lon="8.0101617"><ele>183.2</ele><time>2026-04-12T10:38:35.876Z</time></trkpt><trkpt lat="44.972255" lon="8.0101867"><ele>183.8</ele><time>2026-04-12T10:38:36.875Z</time></trkpt><trkpt lat="44.972345" lon="8.0101983"><ele>184.4</ele><time>2026-04-12T10:38:37.875Z</time></trkpt><trkpt lat="44.97244" lon="8.01021"><ele>185.0</ele><time>2026-04-12T10:38:38.875Z</time></trkpt><trkpt lat="44.9725333" lon="8.0102217"><ele>185.0</ele><time>2026-04-12T10:38:39.876Z</time></trkpt><trkpt lat="44.9726267" lon="8.0102483"><ele>185.0</ele><time>2026-04-12T10:38:40.875Z</time></trkpt><trkpt lat="44.9727267" lon="8.0102617"><ele>185.0</ele><time>2026-04-12T10:38:41.876Z</time></trkpt><trkpt lat="44.97282" lon="8.0102733"><ele>185.0</ele><time>2026-04-12T10:38:42.876Z</time></trkpt><trkpt lat="44.972915" lon="8.010285"><ele>185.0</ele><time>2026-04-12T10:38:43.875Z</time></trkpt><trkpt lat="44.973005" lon="8.0103117"><ele>185.0</ele><time>2026-04-12T10:38:44.875Z</time></trkpt><trkpt lat="44.97309" lon="8.0103267"><ele>185.0</ele><time>2026-04-12T10:38:45.875Z</time></trkpt><trkpt lat="44.9731767" lon="8.0103483"><ele>185.0</ele><time>2026-04-12T10:38:46.875Z</time></trkpt><trkpt lat="44.9732583" lon="8.01038"><ele>185.0</ele><time>2026-04-12T10:38:47.876Z</time></trkpt><trkpt lat="44.973345" lon="8.01044"><ele>185.0</ele><time>2026-04-12T10:38:48.876Z</time></trkpt><trkpt lat="44.9734233" lon="8.010495"><ele>185.0</ele><time>2026-04-12T10:38:49.875Z</time></trkpt><trkpt lat="44.9735033" lon="8.0105517"><ele>185.6</ele><time>2026-04-12T10:38:50.876Z</time></trkpt><trkpt lat="44.9735833" lon="8.0106083"><ele>186.2</ele><time>2026-04-12T10:38:51.875Z</time></trkpt><trkpt lat="44.973675" lon="8.010645"><ele>186.8</ele><time>2026-04-12T10:38:52.876Z</time></trkpt><trkpt lat="44.97377" lon="8.0106667"><ele>187.4</ele><time>2026-04-12T10:38:53.875Z</time></trkpt><trkpt lat="44.9738667" lon="8.010665"><ele>188.0</ele><time>2026-04-12T10:38:54.876Z</time></trkpt><trkpt lat="44.9739583" lon="8.010655"><ele>188.0</ele><time>2026-04-12T10:38:55.875Z</time></trkpt><trkpt lat="44.9740483" lon="8.0106617"><ele>188.0</ele><time>2026-04-12T10:38:56.875Z</time></trkpt><trkpt lat="44.97414" lon="8.010665"><ele>188.0</ele><time>2026-04-12T10:38:57.876Z</time></trkpt><trkpt lat="44.9742317" lon="8.010675"><ele>188.0</ele><time>2026-04-12T10:38:58.876Z</time></trkpt><trkpt lat="44.9743217" lon="8.0106933"><ele>188.0</ele><time>2026-04-12T10:38:59.875Z</time></trkpt><trkpt lat="44.9744117" lon="8.010715"><ele>187.5</ele><time>2026-04-12T10:39:00.876Z</time></trkpt><trkpt lat="44.9745033" lon="8.0107483"><ele>187.0</ele><time>2026-04-12T10:39:01.876Z</time></trkpt><trkpt lat="44.97459" lon="8.0107783"><ele>186.5</ele><time>2026-04-12T10:39:02.876Z</time></trkpt><trkpt lat="44.97468" lon="8.0108033"><ele>186.0</ele><time>2026-04-12T10:39:03.875Z</time></trkpt><trkpt lat="44.9747617" lon="8.0108317"><ele>185.5</ele><time>2026-04-12T10:39:04.875Z</time></trkpt><trkpt lat="44.9748467" lon="8.010855"><ele>185.0</ele><time>2026-04-12T10:39:05.876Z</time></trkpt><trkpt lat="44.9749317" lon="8.0108767"><ele>185.0</ele><time>2026-04-12T10:39:06.876Z</time></trkpt><trkpt lat="44.9750183" lon="8.0109083"><ele>185.0</ele><time>2026-04-12T10:39:07.875Z</time></trkpt><trkpt lat="44.9751117" lon="8.01096"><ele>185.0</ele><time>2026-04-12T10:39:08.875Z</time></trkpt><trkpt lat="44.9752" lon="8.010995"><ele>185.0</ele><time>2026-04-12T10:39:09.876Z</time></trkpt><trkpt lat="44.9752833" lon="8.011035"><ele>185.0</ele><time>2026-04-12T10:39:10.876Z</time></trkpt><trkpt lat="44.97538" lon="8.0110717"><ele>184.8</ele><time>2026-04-12T10:39:11.875Z</time></trkpt><trkpt lat="44.9754767" lon="8.0110833"><ele>184.6</ele><time>2026-04-12T10:39:12.876Z</time></trkpt><trkpt lat="44.97558" lon="8.0110917"><ele>184.39999999999998</ele><time>2026-04-12T10:39:13.876Z</time></trkpt><trkpt lat="44.9756833" lon="8.0110767"><ele>184.2</ele><time>2026-04-12T10:39:14.876Z</time></trkpt><trkpt lat="44.97578" lon="8.01105"><ele>184.0</ele><time>2026-04-12T10:39:15.875Z</time></trkpt><trkpt lat="44.9758833" lon="8.0110333"><ele>184.0</ele><time>2026-04-12T10:39:16.876Z</time></trkpt><trkpt lat="44.97597" lon="8.0110217"><ele>184.0</ele><time>2026-04-12T10:39:17.876Z</time></trkpt><trkpt lat="44.9760617" lon="8.011005"><ele>184.0</ele><time>2026-04-12T10:39:18.875Z</time></trkpt><trkpt lat="44.976155" lon="8.0109833"><ele>184.0</ele><time>2026-04-12T10:39:19.875Z</time></trkpt><trkpt lat="44.9762567" lon="8.01097"><ele>184.0</ele><time>2026-04-12T10:39:20.875Z</time></trkpt><trkpt lat="44.976355" lon="8.0109617"><ele>184.0</ele><time>2026-04-12T10:39:21.875Z</time></trkpt><trkpt lat="44.976455" lon="8.0109517"><ele>184.0</ele><time>2026-04-12T10:39:22.876Z</time></trkpt><trkpt lat="44.9765567" lon="8.0109383"><ele>184.0</ele><time>2026-04-12T10:39:23.875Z</time></trkpt><trkpt lat="44.97665" lon="8.01093"><ele>184.0</ele><time>2026-04-12T10:39:24.875Z</time></trkpt><trkpt lat="44.9767467" lon="8.0109167"><ele>184.0</ele><time>2026-04-12T10:39:25.875Z</time></trkpt><trkpt lat="44.9768367" lon="8.0109017"><ele>183.2</ele><time>2026-04-12T10:39:26.875Z</time></trkpt><trkpt lat="44.9769283" lon="8.0108917"><ele>182.39999999999998</ele><time>2026-04-12T10:39:27.875Z</time></trkpt><trkpt lat="44.9770217" lon="8.0108833"><ele>181.6</ele><time>2026-04-12T10:39:28.875Z</time></trkpt><trkpt lat="44.9771233" lon="8.0108767"><ele>180.8</ele><time>2026-04-12T10:39:29.875Z</time></trkpt><trkpt lat="44.9772183" lon="8.0108783"><ele>180.0</ele><time>2026-04-12T10:39:30.876Z</time></trkpt><trkpt lat="44.97731" lon="8.0108917"><ele>180.0</ele><time>2026-04-12T10:39:31.876Z</time></trkpt><trkpt lat="44.977405" lon="8.0109017"><ele>180.0</ele><time>2026-04-12T10:39:32.875Z</time></trkpt><trkpt lat="44.9775033" lon="8.010905"><ele>180.0</ele><time>2026-04-12T10:39:33.876Z</time></trkpt><trkpt lat="44.9775983" lon="8.0109067"><ele>180.0</ele><time>2026-04-12T10:39:34.875Z</time></trkpt><trkpt lat="44.9777" lon="8.0109033"><ele>180.0</ele><time>2026-04-12T10:39:35.875Z</time></trkpt><trkpt lat="44.9777967" lon="8.0108917"><ele>180.6</ele><time>2026-04-12T10:39:36.875Z</time></trkpt><trkpt lat="44.977895" lon="8.0108683"><ele>181.2</ele><time>2026-04-12T10:39:37.875Z</time></trkpt><trkpt lat="44.9779983" lon="8.0108433"><ele>181.8</ele><time>2026-04-12T10:39:38.875Z</time></trkpt><trkpt lat="44.9781" lon="8.0108167"><ele>182.4</ele><time>2026-04-12T10:39:39.876Z</time></trkpt><trkpt lat="44.97819" lon="8.010795"><ele>183.0</ele><time>2026-04-12T10:39:40.876Z</time></trkpt><trkpt lat="44.97828" lon="8.0107683"><ele>183.8</ele><time>2026-04-12T10:39:41.875Z</time></trkpt><trkpt lat="44.978375" lon="8.01074"><ele>184.60000000000002</ele><time>2026-04-12T10:39:42.876Z</time></trkpt><trkpt lat="44.9784617" lon="8.010725"><ele>185.39999999999998</ele><time>2026-04-12T10:39:43.876Z</time></trkpt><trkpt lat="44.9785483" lon="8.010705"><ele>186.2</ele><time>2026-04-12T10:39:44.875Z</time></trkpt><trkpt lat="44.97864" lon="8.0106967"><ele>187.0</ele><time>2026-04-12T10:39:45.875Z</time></trkpt><trkpt lat="44.97873" lon="8.0107"><ele>187.0</ele><time>2026-04-12T10:39:46.876Z</time></trkpt><trkpt lat="44.9788183" lon="8.0107033"><ele>187.0</ele><time>2026-04-12T10:39:47.876Z</time></trkpt><trkpt lat="44.9789133" lon="8.0107183"><ele>187.0</ele><time>2026-04-12T10:39:48.875Z</time></trkpt><trkpt lat="44.9790083" lon="8.0107383"><ele>187.0</ele><time>2026-04-12T10:39:49.875Z</time></trkpt><trkpt lat="44.9791033" lon="8.010755"><ele>187.0</ele><time>2026-04-12T10:39:50.875Z</time></trkpt><trkpt lat="44.979195" lon="8.0107717"><ele>186.6</ele><time>2026-04-12T10:39:51.876Z</time></trkpt><trkpt lat="44.9792983" lon="8.01078"><ele>186.2</ele><time>2026-04-12T10:39:52.875Z</time></trkpt><trkpt lat="44.9793917" lon="8.0107917"><ele>185.8</ele><time>2026-04-12T10:39:53.875Z</time></trkpt><trkpt lat="44.97949" lon="8.0108017"><ele>185.4</ele><time>2026-04-12T10:39:54.875Z</time></trkpt><trkpt lat="44.9795933" lon="8.0108117"><ele>185.0</ele><time>2026-04-12T10:39:55.876Z</time></trkpt><trkpt lat="44.9796883" lon="8.0108317"><ele>184.16666666666666</ele><time>2026-04-12T10:39:56.876Z</time></trkpt><trkpt lat="44.9797867" lon="8.010855"><ele>183.33333333333331</ele><time>2026-04-12T10:39:57.876Z</time></trkpt><trkpt lat="44.9798717" lon="8.0108817"><ele>182.5</ele><time>2026-04-12T10:39:58.875Z</time></trkpt><trkpt lat="44.9799533" lon="8.0109083"><ele>181.66666666666666</ele><time>2026-04-12T10:39:59.875Z</time></trkpt><trkpt lat="44.980035" lon="8.0109333"><ele>180.83333333333334</ele><time>2026-04-12T10:40:00.875Z</time></trkpt><trkpt lat="44.98012" lon="8.0109467"><ele>180.0</ele><time>2026-04-12T10:40:01.876Z</time></trkpt><trkpt lat="44.9802033" lon="8.0109683"><ele>180.0</ele><time>2026-04-12T10:40:02.876Z</time></trkpt><trkpt lat="44.9802933" lon="8.0109983"><ele>180.0</ele><time>2026-04-12T10:40:03.876Z</time></trkpt><trkpt lat="44.98039" lon="8.011035"><ele>180.0</ele><time>2026-04-12T10:40:04.875Z</time></trkpt><trkpt lat="44.980485" lon="8.0110767"><ele>180.0</ele><time>2026-04-12T10:40:05.875Z</time></trkpt><trkpt lat="44.9805817" lon="8.011115"><ele>180.0</ele><time>2026-04-12T10:40:06.875Z</time></trkpt><trkpt lat="44.9806733" lon="8.0111517"><ele>180.0</ele><time>2026-04-12T10:40:07.875Z</time></trkpt><trkpt lat="44.9807717" lon="8.0111783"><ele>180.0</ele><time>2026-04-12T10:40:08.875Z</time></trkpt><trkpt lat="44.98087" lon="8.011215"><ele>180.0</ele><time>2026-04-12T10:40:09.875Z</time></trkpt><trkpt lat="44.9809633" lon="8.0112517"><ele>180.0</ele><time>2026-04-12T10:40:10.876Z</time></trkpt><trkpt lat="44.98106" lon="8.0112917"><ele>180.0</ele><time>2026-04-12T10:40:11.875Z</time></trkpt><trkpt lat="44.9811583" lon="8.0113317"><ele>180.0</ele><time>2026-04-12T10:40:12.875Z</time></trkpt><trkpt lat="44.9812533" lon="8.01137"><ele>180.0</ele><time>2026-04-12T10:40:13.875Z</time></trkpt><trkpt lat="44.98134" lon="8.0114167"><ele>180.0</ele><time>2026-04-12T10:40:14.875Z</time></trkpt><trkpt lat="44.9814283" lon="8.0114567"><ele>180.0</ele><time>2026-04-12T10:40:15.876Z</time></trkpt><trkpt lat="44.9815267" lon="8.0115"><ele>180.0</ele><time>2026-04-12T10:40:16.875Z</time></trkpt><trkpt lat="44.9816233" lon="8.01154"><ele>180.0</ele><time>2026-04-12T10:40:17.876Z</time></trkpt><trkpt lat="44.9817183" lon="8.0115967"><ele>180.0</ele><time>2026-04-12T10:40:18.875Z</time></trkpt><trkpt lat="44.98181" lon="8.0116433"><ele>180.0</ele><time>2026-04-12T10:40:19.875Z</time></trkpt><trkpt lat="44.9819017" lon="8.011695"><ele>180.0</ele><time>2026-04-12T10:40:20.875Z</time></trkpt><trkpt lat="44.98199" lon="8.0117567"><ele>180.0</ele><time>2026-04-12T10:40:21.876Z</time></trkpt><trkpt lat="44.98208" lon="8.0118167"><ele>180.0</ele><time>2026-04-12T10:40:22.875Z</time></trkpt><trkpt lat="44.98217" lon="8.0118783"><ele>180.0</ele><time>2026-04-12T10:40:23.876Z</time></trkpt><trkpt lat="44.9822617" lon="8.0119433"><ele>180.0</ele><time>2026-04-12T10:40:24.876Z</time></trkpt><trkpt lat="44.982355" lon="8.01201"><ele>180.0</ele><time>2026-04-12T10:40:25.876Z</time></trkpt><trkpt lat="44.9824633" lon="8.0120517"><ele>180.0</ele><time>2026-04-12T10:40:26.875Z</time></trkpt><trkpt lat="44.982565" lon="8.0120767"><ele>181.6</ele><time>2026-04-12T10:40:27.876Z</time></trkpt><trkpt lat="44.982675" lon="8.0121033"><ele>183.2</ele><time>2026-04-12T10:40:28.875Z</time></trkpt><trkpt lat="44.982775" lon="8.0121283"><ele>184.8</ele><time>2026-04-12T10:40:29.876Z</time></trkpt><trkpt lat="44.9828733" lon="8.0121567"><ele>186.4</ele><time>2026-04-12T10:40:30.876Z</time></trkpt><trkpt lat="44.9829783" lon="8.012175"><ele>188.0</ele><time>2026-04-12T10:40:31.875Z</time></trkpt><trkpt lat="44.9830783" lon="8.0121917"><ele>188.0</ele><time>2026-04-12T10:40:32.876Z</time></trkpt><trkpt lat="44.9831833" lon="8.0122017"><ele>188.0</ele><time>2026-04-12T10:40:33.875Z</time></trkpt><trkpt lat="44.9832833" lon="8.0121983"><ele>188.0</ele><time>2026-04-12T10:40:34.876Z</time></trkpt><trkpt lat="44.9833867" lon="8.0121683"><ele>188.0</ele><time>2026-04-12T10:40:35.876Z</time></trkpt><trkpt lat="44.9834833" lon="8.0121317"><ele>188.0</ele><time>2026-04-12T10:40:36.875Z</time></trkpt><trkpt lat="44.9835733" lon="8.0120983"><ele>187.60000000000002</ele><time>2026-04-12T10:40:37.875Z</time></trkpt><trkpt lat="44.9836633" lon="8.0120633"><ele>187.20000000000002</ele><time>2026-04-12T10:40:38.875Z</time></trkpt><trkpt lat="44.98376" lon="8.0120183"><ele>186.8</ele><time>2026-04-12T10:40:39.876Z</time></trkpt><trkpt lat="44.98385" lon="8.0119617"><ele>186.4</ele><time>2026-04-12T10:40:40.876Z</time></trkpt><trkpt lat="44.9839333" lon="8.011915"><ele>186.0</ele><time>2026-04-12T10:40:41.875Z</time></trkpt><trkpt lat="44.9840233" lon="8.0118583"><ele>186.0</ele><time>2026-04-12T10:40:42.875Z</time></trkpt><trkpt lat="44.984115" lon="8.0118017"><ele>186.0</ele><time>2026-04-12T10:40:43.875Z</time></trkpt><trkpt lat="44.9842083" lon="8.0117417"><ele>186.0</ele><time>2026-04-12T10:40:44.876Z</time></trkpt><trkpt lat="44.9843017" lon="8.0116717"><ele>186.0</ele><time>2026-04-12T10:40:45.876Z</time></trkpt><trkpt lat="44.9843967" lon="8.011605"><ele>186.0</ele><time>2026-04-12T10:40:46.875Z</time></trkpt><trkpt lat="44.9844917" lon="8.0115333"><ele>186.0</ele><time>2026-04-12T10:40:47.875Z</time></trkpt><trkpt lat="44.98458" lon="8.0114717"><ele>186.0</ele><time>2026-04-12T10:40:48.875Z</time></trkpt><trkpt lat="44.9846667" lon="8.0114033"><ele>186.0</ele><time>2026-04-12T10:40:49.875Z</time></trkpt><trkpt lat="44.9847517" lon="8.0113383"><ele>186.0</ele><time>2026-04-12T10:40:50.875Z</time></trkpt><trkpt lat="44.984845" lon="8.0112717"><ele>186.0</ele><time>2026-04-12T10:40:51.876Z</time></trkpt><trkpt lat="44.984935" lon="8.0112117"><ele>185.8</ele><time>2026-04-12T10:40:52.875Z</time></trkpt><trkpt lat="44.9850233" lon="8.01115"><ele>185.60000000000002</ele><time>2026-04-12T10:40:53.876Z</time></trkpt><trkpt lat="44.985105" lon="8.011085"><ele>185.4</ele><time>2026-04-12T10:40:54.875Z</time></trkpt><trkpt lat="44.98518" lon="8.0110017"><ele>185.2</ele><time>2026-04-12T10:40:55.875Z</time></trkpt><trkpt lat="44.9852483" lon="8.01091"><ele>185.0</ele><time>2026-04-12T10:40:56.875Z</time></trkpt><trkpt lat="44.9853033" lon="8.01079"><ele>185.83333333333331</ele><time>2026-04-12T10:40:57.876Z</time></trkpt><trkpt lat="44.9853517" lon="8.01066"><ele>186.66666666666666</ele><time>2026-04-12T10:40:58.875Z</time></trkpt><trkpt lat="44.98538" lon="8.010535"><ele>187.5</ele><time>2026-04-12T10:40:59.875Z</time></trkpt><trkpt lat="44.9854033" lon="8.0104233"><ele>188.33333333333334</ele><time>2026-04-12T10:41:00.876Z</time></trkpt><trkpt lat="44.9854383" lon="8.010335"><ele>189.16666666666669</ele><time>2026-04-12T10:41:01.876Z</time></trkpt><trkpt lat="44.9854917" lon="8.0102617"><ele>190.0</ele><time>2026-04-12T10:41:02.876Z</time></trkpt><trkpt lat="44.9855583" lon="8.0102067"><ele>190.0</ele><time>2026-04-12T10:41:03.875Z</time></trkpt><trkpt lat="44.9856417" lon="8.01018"><ele>190.0</ele><time>2026-04-12T10:41:04.876Z</time></trkpt><trkpt lat="44.9857283" lon="8.0101733"><ele>190.0</ele><time>2026-04-12T10:41:05.876Z</time></trkpt><trkpt lat="44.9858083" lon="8.0101717"><ele>190.0</ele><time>2026-04-12T10:41:06.876Z</time></trkpt><trkpt lat="44.98589" lon="8.0101733"><ele>190.0</ele><time>2026-04-12T10:41:07.875Z</time></trkpt><trkpt lat="44.9859733" lon="8.01017"><ele>190.0</ele><time>2026-04-12T10:41:08.876Z</time></trkpt><trkpt lat="44.9860667" lon="8.0101683"><ele>190.16666666666669</ele><time>2026-04-12T10:41:09.875Z</time></trkpt><trkpt lat="44.9861533" lon="8.0101733"><ele>190.33333333333334</ele><time>2026-04-12T10:41:10.875Z</time></trkpt><trkpt lat="44.986235" lon="8.0101817"><ele>190.5</ele><time>2026-04-12T10:41:11.875Z</time></trkpt><trkpt lat="44.98631" lon="8.0102033"><ele>190.66666666666666</ele><time>2026-04-12T10:41:12.876Z</time></trkpt><trkpt lat="44.9863783" lon="8.0102317"><ele>190.83333333333331</ele><time>2026-04-12T10:41:13.875Z</time></trkpt><trkpt lat="44.986455" lon="8.0102767"><ele>191.0</ele><time>2026-04-12T10:41:14.876Z</time></trkpt><trkpt lat="44.986545" lon="8.0103317"><ele>191.0</ele><time>2026-04-12T10:41:15.876Z</time></trkpt><trkpt lat="44.986635" lon="8.0103833"><ele>191.0</ele><time>2026-04-12T10:41:16.875Z</time></trkpt><trkpt lat="44.986715" lon="8.0104317"><ele>191.0</ele><time>2026-04-12T10:41:17.875Z</time></trkpt><trkpt lat="44.9867933" lon="8.0104767"><ele>191.0</ele><time>2026-04-12T10:41:18.876Z</time></trkpt><trkpt lat="44.9868767" lon="8.0105183"><ele>191.0</ele><time>2026-04-12T10:41:19.875Z</time></trkpt><trkpt lat="44.986965" lon="8.01056"><ele>191.16666666666666</ele><time>2026-04-12T10:41:20.875Z</time></trkpt><trkpt lat="44.987045" lon="8.0105917"><ele>191.33333333333331</ele><time>2026-04-12T10:41:21.875Z</time></trkpt><trkpt lat="44.987125" lon="8.0106267"><ele>191.5</ele><time>2026-04-12T10:41:22.876Z</time></trkpt><trkpt lat="44.9872017" lon="8.010655"><ele>191.66666666666666</ele><time>2026-04-12T10:41:23.875Z</time></trkpt><trkpt lat="44.9872717" lon="8.0106817"><ele>191.83333333333334</ele><time>2026-04-12T10:41:24.875Z</time></trkpt><trkpt lat="44.987335" lon="8.010695"><ele>192.0</ele><time>2026-04-12T10:41:25.876Z</time></trkpt><trkpt lat="44.98743" lon="8.0107533"><ele>191.39999999999998</ele><time>2026-04-12T10:41:27.876Z</time></trkpt><trkpt lat="44.987495" lon="8.0108783"><ele>190.79999999999998</ele><time>2026-04-12T10:41:29.876Z</time></trkpt><trkpt lat="44.987515" lon="8.0109667"><ele>190.2</ele><time>2026-04-12T10:41:30.875Z</time></trkpt><trkpt lat="44.9875183" lon="8.0110733"><ele>189.6</ele><time>2026-04-12T10:41:31.875Z</time></trkpt><trkpt lat="44.98752" lon="8.0112083"><ele>189.0</ele><time>2026-04-12T10:41:32.876Z</time></trkpt><trkpt lat="44.9875167" lon="8.0113633"><ele>189.0</ele><time>2026-04-12T10:41:33.876Z</time></trkpt><trkpt lat="44.9875233" lon="8.0115267"><ele>189.0</ele><time>2026-04-12T10:41:34.875Z</time></trkpt><trkpt lat="44.9875283" lon="8.0117017"><ele>189.0</ele><time>2026-04-12T10:41:35.876Z</time></trkpt><trkpt lat="44.98754" lon="8.011875"><ele>189.0</ele><time>2026-04-12T10:41:36.875Z</time></trkpt><trkpt lat="44.9875483" lon="8.012065"><ele>188.25</ele><time>2026-04-12T10:41:37.875Z</time></trkpt><trkpt lat="44.9875667" lon="8.012255"><ele>187.5</ele><time>2026-04-12T10:41:38.875Z</time></trkpt><trkpt lat="44.9875833" lon="8.0124517"><ele>186.75</ele><time>2026-04-12T10:41:39.876Z</time></trkpt><trkpt lat="44.9875933" lon="8.01266"><ele>186.0</ele><time>2026-04-12T10:41:40.875Z</time></trkpt><trkpt lat="44.9875967" lon="8.0128617"><ele>185.66666666666666</ele><time>2026-04-12T10:41:41.876Z</time></trkpt><trkpt lat="44.9875967" lon="8.013075"><ele>185.33333333333331</ele><time>2026-04-12T10:41:42.875Z</time></trkpt><trkpt lat="44.98758" lon="8.0132833"><ele>185.0</ele><time>2026-04-12T10:41:43.875Z</time></trkpt><trkpt lat="44.9875433" lon="8.0134917"><ele>185.5</ele><time>2026-04-12T10:41:44.875Z</time></trkpt><trkpt lat="44.9874933" lon="8.0136883"><ele>186.0</ele><time>2026-04-12T10:41:45.875Z</time></trkpt><trkpt lat="44.987435" lon="8.0138683"><ele>186.5</ele><time>2026-04-12T10:41:46.875Z</time></trkpt><trkpt lat="44.9873767" lon="8.014055"><ele>187.0</ele><time>2026-04-12T10:41:47.876Z</time></trkpt><trkpt lat="44.9873233" lon="8.014235"><ele>187.25</ele><time>2026-04-12T10:41:48.875Z</time></trkpt><trkpt lat="44.9872833" lon="8.0144233"><ele>187.5</ele><time>2026-04-12T10:41:49.876Z</time></trkpt><trkpt lat="44.9872633" lon="8.0146367"><ele>187.75</ele><time>2026-04-12T10:41:50.876Z</time></trkpt><trkpt lat="44.987255" lon="8.0148333"><ele>188.0</ele><time>2026-04-12T10:41:51.875Z</time></trkpt><trkpt lat="44.9872483" lon="8.0150433"><ele>187.5</ele><time>2026-04-12T10:41:52.875Z</time></trkpt><trkpt lat="44.9872383" lon="8.0152533"><ele>187.0</ele><time>2026-04-12T10:41:53.875Z</time></trkpt><trkpt lat="44.9872317" lon="8.0154633"><ele>186.5</ele><time>2026-04-12T10:41:54.875Z</time></trkpt><trkpt lat="44.987225" lon="8.01566"><ele>186.0</ele><time>2026-04-12T10:41:55.875Z</time></trkpt><trkpt lat="44.987215" lon="8.0158617"><ele>186.0</ele><time>2026-04-12T10:41:56.875Z</time></trkpt><trkpt lat="44.9872067" lon="8.01606"><ele>186.0</ele><time>2026-04-12T10:41:57.876Z</time></trkpt><trkpt lat="44.9872033" lon="8.0162433"><ele>186.0</ele><time>2026-04-12T10:41:58.876Z</time></trkpt><trkpt lat="44.9871867" lon="8.0164117"><ele>186.0</ele><time>2026-04-12T10:41:59.876Z</time></trkpt><trkpt lat="44.98718" lon="8.01656"><ele>186.0</ele><time>2026-04-12T10:42:00.875Z</time></trkpt><trkpt lat="44.987175" lon="8.0166967"><ele>186.0</ele><time>2026-04-12T10:42:01.875Z</time></trkpt><trkpt lat="44.9871717" lon="8.0168067"><ele>186.0</ele><time>2026-04-12T10:42:02.876Z</time></trkpt><trkpt lat="44.987155" lon="8.0169083"><ele>186.0</ele><time>2026-04-12T10:42:03.876Z</time></trkpt><trkpt lat="44.98715" lon="8.0170667"><ele>186.0</ele><time>2026-04-12T10:42:05.875Z</time></trkpt><trkpt lat="44.9872267" lon="8.01719"><ele>186.0</ele><time>2026-04-12T10:42:07.875Z</time></trkpt><trkpt lat="44.9872967" lon="8.01725"><ele>186.0</ele><time>2026-04-12T10:42:08.875Z</time></trkpt><trkpt lat="44.9873867" lon="8.0173033"><ele>186.0</ele><time>2026-04-12T10:42:09.876Z</time></trkpt><trkpt lat="44.987485" lon="8.0173567"><ele>186.0</ele><time>2026-04-12T10:42:10.875Z</time></trkpt><trkpt lat="44.9875983" lon="8.0174133"><ele>186.0</ele><time>2026-04-12T10:42:11.876Z</time></trkpt><trkpt lat="44.9877183" lon="8.0174683"><ele>186.5</ele><time>2026-04-12T10:42:12.875Z</time></trkpt><trkpt lat="44.9878417" lon="8.0175333"><ele>187.0</ele><time>2026-04-12T10:42:13.875Z</time></trkpt><trkpt lat="44.9879767" lon="8.0176017"><ele>187.5</ele><time>2026-04-12T10:42:14.875Z</time></trkpt><trkpt lat="44.9881167" lon="8.0176683"><ele>188.0</ele><time>2026-04-12T10:42:15.875Z</time></trkpt><trkpt lat="44.9882633" lon="8.01773"><ele>188.66666666666666</ele><time>2026-04-12T10:42:16.875Z</time></trkpt><trkpt lat="44.9884117" lon="8.0177967"><ele>189.33333333333334</ele><time>2026-04-12T10:42:17.875Z</time></trkpt><trkpt lat="44.9885667" lon="8.01788"><ele>190.0</ele><time>2026-04-12T10:42:18.876Z</time></trkpt><trkpt lat="44.9887167" lon="8.0179617"><ele>190.0</ele><time>2026-04-12T10:42:19.875Z</time></trkpt><trkpt lat="44.9888683" lon="8.018035"><ele>190.0</ele><time>2026-04-12T10:42:20.875Z</time></trkpt><trkpt lat="44.989015" lon="8.0181183"><ele>190.0</ele><time>2026-04-12T10:42:21.875Z</time></trkpt><trkpt lat="44.9891767" lon="8.018195"><ele>188.66666666666669</ele><time>2026-04-12T10:42:22.875Z</time></trkpt><trkpt lat="44.989335" lon="8.01827"><ele>187.33333333333334</ele><time>2026-04-12T10:42:23.875Z</time></trkpt><trkpt lat="44.9894917" lon="8.0183417"><ele>186.0</ele><time>2026-04-12T10:42:24.875Z</time></trkpt><trkpt lat="44.9896467" lon="8.0184317"><ele>186.0</ele><time>2026-04-12T10:42:25.875Z</time></trkpt><trkpt lat="44.9897967" lon="8.01854"><ele>186.0</ele><time>2026-04-12T10:42:26.875Z</time></trkpt><trkpt lat="44.98995" lon="8.018625"><ele>186.0</ele><time>2026-04-12T10:42:27.876Z</time></trkpt><trkpt lat="44.99011" lon="8.018705"><ele>185.33333333333334</ele><time>2026-04-12T10:42:28.876Z</time></trkpt><trkpt lat="44.9902717" lon="8.0187917"><ele>184.66666666666669</ele><time>2026-04-12T10:42:29.875Z</time></trkpt><trkpt lat="44.99042" lon="8.018865"><ele>184.0</ele><time>2026-04-12T10:42:30.876Z</time></trkpt><trkpt lat="44.99057" lon="8.0189367"><ele>184.0</ele><time>2026-04-12T10:42:31.875Z</time></trkpt><trkpt lat="44.9907117" lon="8.0190117"><ele>184.0</ele><time>2026-04-12T10:42:32.875Z</time></trkpt><trkpt lat="44.9908483" lon="8.0190833"><ele>184.0</ele><time>2026-04-12T10:42:33.875Z</time></trkpt><trkpt lat="44.9909933" lon="8.019155"><ele>184.0</ele><time>2026-04-12T10:42:34.876Z</time></trkpt><trkpt lat="44.99113" lon="8.0192383"><ele>184.0</ele><time>2026-04-12T10:42:35.875Z</time></trkpt><trkpt lat="44.991265" lon="8.0193067"><ele>184.0</ele><time>2026-04-12T10:42:36.875Z</time></trkpt><trkpt lat="44.9914" lon="8.01938"><ele>184.0</ele><time>2026-04-12T10:42:37.876Z</time></trkpt><trkpt lat="44.9915283" lon="8.0194467"><ele>184.0</ele><time>2026-04-12T10:42:38.875Z</time></trkpt><trkpt lat="44.9916567" lon="8.01951"><ele>184.0</ele><time>2026-04-12T10:42:39.875Z</time></trkpt><trkpt lat="44.99178" lon="8.01958"><ele>184.0</ele><time>2026-04-12T10:42:40.876Z</time></trkpt><trkpt lat="44.9918983" lon="8.0196333"><ele>184.0</ele><time>2026-04-12T10:42:41.875Z</time></trkpt><trkpt lat="44.9920033" lon="8.0196933"><ele>184.25</ele><time>2026-04-12T10:42:42.875Z</time></trkpt><trkpt lat="44.992105" lon="8.0197517"><ele>184.5</ele><time>2026-04-12T10:42:43.875Z</time></trkpt><trkpt lat="44.9922067" lon="8.0198033"><ele>184.75</ele><time>2026-04-12T10:42:44.876Z</time></trkpt><trkpt lat="44.9923167" lon="8.019855"><ele>185.0</ele><time>2026-04-12T10:42:45.876Z</time></trkpt><trkpt lat="44.9924267" lon="8.0199083"><ele>185.0</ele><time>2026-04-12T10:42:46.875Z</time></trkpt><trkpt lat="44.9925333" lon="8.0199667"><ele>185.0</ele><time>2026-04-12T10:42:47.875Z</time></trkpt><trkpt lat="44.9926417" lon="8.020025"><ele>185.0</ele><time>2026-04-12T10:42:48.876Z</time></trkpt><trkpt lat="44.9927467" lon="8.020075"><ele>185.0</ele><time>2026-04-12T10:42:49.875Z</time></trkpt><trkpt lat="44.9928533" lon="8.020125"><ele>185.0</ele><time>2026-04-12T10:42:50.876Z</time></trkpt><trkpt lat="44.9929617" lon="8.0201667"><ele>185.0</ele><time>2026-04-12T10:42:51.875Z</time></trkpt><trkpt lat="44.9930667" lon="8.0201683"><ele>185.0</ele><time>2026-04-12T10:42:52.875Z</time></trkpt><trkpt lat="44.9931633" lon="8.0201217"><ele>185.0</ele><time>2026-04-12T10:42:53.875Z</time></trkpt><trkpt lat="44.99325" lon="8.02003"><ele>185.0</ele><time>2026-04-12T10:42:54.875Z</time></trkpt><trkpt lat="44.9933233" lon="8.0198933"><ele>185.0</ele><time>2026-04-12T10:42:55.875Z</time></trkpt><trkpt lat="44.9933933" lon="8.0197467"><ele>185.0</ele><time>2026-04-12T10:42:56.876Z</time></trkpt><trkpt lat="44.9934667" lon="8.019595"><ele>185.0</ele><time>2026-04-12T10:42:57.875Z</time></trkpt><trkpt lat="44.9935417" lon="8.019435"><ele>185.0</ele><time>2026-04-12T10:42:58.876Z</time></trkpt><trkpt lat="44.9936217" lon="8.0192667"><ele>185.0</ele><time>2026-04-12T10:42:59.876Z</time></trkpt><trkpt lat="44.993705" lon="8.019095"><ele>185.0</ele><time>2026-04-12T10:43:00.876Z</time></trkpt><trkpt lat="44.9937933" lon="8.01892"><ele>185.0</ele><time>2026-04-12T10:43:01.875Z</time></trkpt><trkpt lat="44.9938833" lon="8.0187483"><ele>185.0</ele><time>2026-04-12T10:43:02.876Z</time></trkpt><trkpt lat="44.9939733" lon="8.01857"><ele>185.0</ele><time>2026-04-12T10:43:03.876Z</time></trkpt><trkpt lat="44.9940633" lon="8.0183867"><ele>185.0</ele><time>2026-04-12T10:43:04.875Z</time></trkpt><trkpt lat="44.9941417" lon="8.0181883"><ele>185.0</ele><time>2026-04-12T10:43:05.875Z</time></trkpt><trkpt lat="44.9942" lon="8.017985"><ele>185.0</ele><time>2026-04-12T10:43:06.875Z</time></trkpt><trkpt lat="44.9942383" lon="8.0177517"><ele>185.0</ele><time>2026-04-12T10:43:07.875Z</time></trkpt><trkpt lat="44.994275" lon="8.0175267"><ele>185.0</ele><time>2026-04-12T10:43:08.875Z</time></trkpt><trkpt lat="44.9943033" lon="8.0173033"><ele>185.0</ele><time>2026-04-12T10:43:09.876Z</time></trkpt><trkpt lat="44.994335" lon="8.0170767"><ele>185.0</ele><time>2026-04-12T10:43:10.875Z</time></trkpt><trkpt lat="44.99437" lon="8.0168517"><ele>185.66666666666666</ele><time>2026-04-12T10:43:11.876Z</time></trkpt><trkpt lat="44.9944067" lon="8.016625"><ele>186.33333333333334</ele><time>2026-04-12T10:43:12.876Z</time></trkpt><trkpt lat="44.9944417" lon="8.0164017"><ele>187.0</ele><time>2026-04-12T10:43:13.875Z</time></trkpt><trkpt lat="44.9944767" lon="8.0161767"><ele>187.0</ele><time>2026-04-12T10:43:14.875Z</time></trkpt><trkpt lat="44.994515" lon="8.0159467"><ele>187.0</ele><time>2026-04-12T10:43:15.875Z</time></trkpt><trkpt lat="44.9945517" lon="8.0157167"><ele>187.0</ele><time>2026-04-12T10:43:16.875Z</time></trkpt><trkpt lat="44.9945883" lon="8.01549"><ele>187.33333333333334</ele><time>2026-04-12T10:43:17.875Z</time></trkpt><trkpt lat="44.994625" lon="8.01526"><ele>187.66666666666666</ele><time>2026-04-12T10:43:18.875Z</time></trkpt><trkpt lat="44.9946667" lon="8.0150317"><ele>188.0</ele><time>2026-04-12T10:43:19.876Z</time></trkpt><trkpt lat="44.9947" lon="8.01481"><ele>188.0</ele><time>2026-04-12T10:43:20.876Z</time></trkpt><trkpt lat="44.9947267" lon="8.01458"><ele>188.0</ele><time>2026-04-12T10:43:21.876Z</time></trkpt><trkpt lat="44.9947567" lon="8.0143567"><ele>188.0</ele><time>2026-04-12T10:43:22.875Z</time></trkpt><trkpt lat="44.994795" lon="8.014135"><ele>187.66666666666666</ele><time>2026-04-12T10:43:23.876Z</time></trkpt><trkpt lat="44.994855" lon="8.0139233"><ele>187.33333333333334</ele><time>2026-04-12T10:43:24.876Z</time></trkpt><trkpt lat="44.9949233" lon="8.01371"><ele>187.0</ele><time>2026-04-12T10:43:25.876Z</time></trkpt><trkpt lat="44.9950067" lon="8.013515"><ele>188.66666666666669</ele><time>2026-04-12T10:43:26.875Z</time></trkpt><trkpt lat="44.9951" lon="8.0133267"><ele>190.33333333333334</ele><time>2026-04-12T10:43:27.876Z</time></trkpt><trkpt lat="44.9952033" lon="8.0131533"><ele>192.0</ele><time>2026-04-12T10:43:28.875Z</time></trkpt><trkpt lat="44.9953233" lon="8.0130017"><ele>192.0</ele><time>2026-04-12T10:43:29.876Z</time></trkpt><trkpt lat="44.99544" lon="8.0128617"><ele>192.0</ele><time>2026-04-12T10:43:30.876Z</time></trkpt><trkpt lat="44.9955617" lon="8.01273"><ele>192.0</ele><time>2026-04-12T10:43:31.875Z</time></trkpt><trkpt lat="44.9956867" lon="8.0126067"><ele>191.0</ele><time>2026-04-12T10:43:32.875Z</time></trkpt><trkpt lat="44.9958167" lon="8.01248"><ele>190.0</ele><time>2026-04-12T10:43:33.875Z</time></trkpt><trkpt lat="44.9959483" lon="8.0123283"><ele>189.0</ele><time>2026-04-12T10:43:34.875Z</time></trkpt><trkpt lat="44.996075" lon="8.012185"><ele>189.0</ele><time>2026-04-12T10:43:35.875Z</time></trkpt><trkpt lat="44.996195" lon="8.0120333"><ele>189.0</ele><time>2026-04-12T10:43:36.875Z</time></trkpt><trkpt lat="44.9963183" lon="8.0118933"><ele>189.0</ele><time>2026-04-12T10:43:37.876Z</time></trkpt><trkpt lat="44.9964367" lon="8.0117567"><ele>189.0</ele><time>2026-04-12T10:43:38.876Z</time></trkpt><trkpt lat="44.9965583" lon="8.011625"><ele>189.0</ele><time>2026-04-12T10:43:39.875Z</time></trkpt><trkpt lat="44.9966833" lon="8.0114867"><ele>189.0</ele><time>2026-04-12T10:43:40.875Z</time></trkpt><trkpt lat="44.996805" lon="8.01136"><ele>189.0</ele><time>2026-04-12T10:43:41.875Z</time></trkpt><trkpt lat="44.9969283" lon="8.011225"><ele>189.0</ele><time>2026-04-12T10:43:42.875Z</time></trkpt><trkpt lat="44.997055" lon="8.0110917"><ele>189.0</ele><time>2026-04-12T10:43:43.875Z</time></trkpt><trkpt lat="44.9971933" lon="8.0109617"><ele>189.0</ele><time>2026-04-12T10:43:44.876Z</time></trkpt><trkpt lat="44.99732" lon="8.0108283"><ele>189.0</ele><time>2026-04-12T10:43:45.876Z</time></trkpt><trkpt lat="44.9974483" lon="8.0106883"><ele>189.0</ele><time>2026-04-12T10:43:46.875Z</time></trkpt><trkpt lat="44.9975767" lon="8.010535"><ele>189.33333333333334</ele><time>2026-04-12T10:43:47.876Z</time></trkpt><trkpt lat="44.9977067" lon="8.0104"><ele>189.66666666666669</ele><time>2026-04-12T10:43:48.876Z</time></trkpt><trkpt lat="44.997835" lon="8.0102583"><ele>190.0</ele><time>2026-04-12T10:43:49.876Z</time></trkpt><trkpt lat="44.9979683" lon="8.0101283"><ele>190.33333333333334</ele><time>2026-04-12T10:43:50.875Z</time></trkpt><trkpt lat="44.9981017" lon="8.0099867"><ele>190.66666666666666</ele><time>2026-04-12T10:43:51.875Z</time></trkpt><trkpt lat="44.9982417" lon="8.0098517"><ele>191.0</ele><time>2026-04-12T10:43:52.875Z</time></trkpt><trkpt lat="44.998375" lon="8.0097133"><ele>191.0</ele><time>2026-04-12T10:43:53.876Z</time></trkpt><trkpt lat="44.998505" lon="8.0095783"><ele>191.0</ele><time>2026-04-12T10:43:54.875Z</time></trkpt><trkpt lat="44.99864" lon="8.0094283"><ele>191.0</ele><time>2026-04-12T10:43:55.876Z</time></trkpt><trkpt lat="44.9987733" lon="8.0092733"><ele>191.33333333333331</ele><time>2026-04-12T10:43:56.875Z</time></trkpt><trkpt lat="44.9989033" lon="8.009135"><ele>191.66666666666666</ele><time>2026-04-12T10:43:57.875Z</time></trkpt><trkpt lat="44.9990367" lon="8.0089917"><ele>192.0</ele><time>2026-04-12T10:43:58.875Z</time></trkpt><trkpt lat="44.9991617" lon="8.0088633"><ele>193.33333333333331</ele><time>2026-04-12T10:43:59.876Z</time></trkpt><trkpt lat="44.9992967" lon="8.00873"><ele>194.66666666666666</ele><time>2026-04-12T10:44:00.876Z</time></trkpt><trkpt lat="44.9994267" lon="8.00859"><ele>196.0</ele><time>2026-04-12T10:44:01.875Z</time></trkpt><trkpt lat="44.999555" lon="8.00845"><ele>196.0</ele><time>2026-04-12T10:44:02.875Z</time></trkpt><trkpt lat="44.9996933" lon="8.0083417"><ele>196.0</ele><time>2026-04-12T10:44:03.875Z</time></trkpt><trkpt lat="44.9998383" lon="8.0082633"><ele>196.0</ele><time>2026-04-12T10:44:04.875Z</time></trkpt><trkpt lat="44.999995" lon="8.0081967"><ele>195.33333333333331</ele><time>2026-04-12T10:44:05.876Z</time></trkpt><trkpt lat="45.000155" lon="8.0081683"><ele>194.66666666666669</ele><time>2026-04-12T10:44:06.875Z</time></trkpt><trkpt lat="45.0003083" lon="8.0081833"><ele>194.0</ele><time>2026-04-12T10:44:07.875Z</time></trkpt><trkpt lat="45.000455" lon="8.0082033"><ele>194.0</ele><time>2026-04-12T10:44:08.876Z</time></trkpt><trkpt lat="45.000615" lon="8.0082"><ele>194.0</ele><time>2026-04-12T10:44:09.876Z</time></trkpt><trkpt lat="45.000765" lon="8.0081617"><ele>194.0</ele><time>2026-04-12T10:44:10.875Z</time></trkpt><trkpt lat="45.0009067" lon="8.0080833"><ele>195.66666666666669</ele><time>2026-04-12T10:44:11.875Z</time></trkpt><trkpt lat="45.0010333" lon="8.007975"><ele>197.33333333333331</ele><time>2026-04-12T10:44:12.876Z</time></trkpt><trkpt lat="45.0011633" lon="8.0078533"><ele>199.0</ele><time>2026-04-12T10:44:13.875Z</time></trkpt><trkpt lat="45.0012883" lon="8.0077283"><ele>199.0</ele><time>2026-04-12T10:44:14.875Z</time></trkpt><trkpt lat="45.0014067" lon="8.0075983"><ele>199.0</ele><time>2026-04-12T10:44:15.876Z</time></trkpt><trkpt lat="45.001535" lon="8.0074833"><ele>199.0</ele><time>2026-04-12T10:44:16.875Z</time></trkpt><trkpt lat="45.0016633" lon="8.007365"><ele>197.0</ele><time>2026-04-12T10:44:17.876Z</time></trkpt><trkpt lat="45.0018017" lon="8.0072483"><ele>195.0</ele><time>2026-04-12T10:44:18.875Z</time></trkpt><trkpt lat="45.001935" lon="8.0071467"><ele>193.0</ele><time>2026-04-12T10:44:19.875Z</time></trkpt><trkpt lat="45.0020717" lon="8.007045"><ele>193.0</ele><time>2026-04-12T10:44:20.876Z</time></trkpt><trkpt lat="45.0022133" lon="8.0069333"><ele>193.0</ele><time>2026-04-12T10:44:21.875Z</time></trkpt><trkpt lat="45.0023583" lon="8.0068283"><ele>193.0</ele><time>2026-04-12T10:44:22.876Z</time></trkpt><trkpt lat="45.0024983" lon="8.0067267"><ele>193.0</ele><time>2026-04-12T10:44:23.876Z</time></trkpt><trkpt lat="45.0026367" lon="8.0066183"><ele>193.0</ele><time>2026-04-12T10:44:24.875Z</time></trkpt><trkpt lat="45.0027683" lon="8.0065183"><ele>193.0</ele><time>2026-04-12T10:44:25.875Z</time></trkpt><trkpt lat="45.0028817" lon="8.0064417"><ele>193.0</ele><time>2026-04-12T10:44:26.876Z</time></trkpt><trkpt lat="45.0029783" lon="8.00637"><ele>193.0</ele><time>2026-04-12T10:44:27.875Z</time></trkpt><trkpt lat="45.00306" lon="8.0062683"><ele>193.0</ele><time>2026-04-12T10:44:28.876Z</time></trkpt><trkpt lat="45.0031083" lon="8.0061167"><ele>193.0</ele><time>2026-04-12T10:44:29.875Z</time></trkpt><trkpt lat="45.0031183" lon="8.0059317"><ele>193.0</ele><time>2026-04-12T10:44:30.875Z</time></trkpt><trkpt lat="45.003075" lon="8.0057467"><ele>193.25</ele><time>2026-04-12T10:44:31.876Z</time></trkpt><trkpt lat="45.0030217" lon="8.0055533"><ele>193.5</ele><time>2026-04-12T10:44:32.875Z</time></trkpt><trkpt lat="45.00296" lon="8.0053567"><ele>193.75</ele><time>2026-04-12T10:44:33.875Z</time></trkpt><trkpt lat="45.0029117" lon="8.005155"><ele>194.0</ele><time>2026-04-12T10:44:34.876Z</time></trkpt><trkpt lat="45.0028567" lon="8.00494"><ele>196.0</ele><time>2026-04-12T10:44:35.875Z</time></trkpt><trkpt lat="45.0027983" lon="8.004715"><ele>198.0</ele><time>2026-04-12T10:44:36.875Z</time></trkpt><trkpt lat="45.002735" lon="8.004495"><ele>200.0</ele><time>2026-04-12T10:44:37.875Z</time></trkpt><trkpt lat="45.00268" lon="8.0042817"><ele>202.0</ele><time>2026-04-12T10:44:38.876Z</time></trkpt><trkpt lat="45.0026317" lon="8.004065"><ele>204.0</ele><time>2026-04-12T10:44:39.875Z</time></trkpt><trkpt lat="45.00258" lon="8.0038533"><ele>206.0</ele><time>2026-04-12T10:44:40.875Z</time></trkpt><trkpt lat="45.0025267" lon="8.0036317"><ele>208.66666666666669</ele><time>2026-04-12T10:44:41.876Z</time></trkpt><trkpt lat="45.0024733" lon="8.003405"><ele>211.33333333333331</ele><time>2026-04-12T10:44:42.876Z</time></trkpt><trkpt lat="45.0024217" lon="8.003185"><ele>214.0</ele><time>2026-04-12T10:44:43.875Z</time></trkpt><trkpt lat="45.0023733" lon="8.002975"><ele>214.0</ele><time>2026-04-12T10:44:44.876Z</time></trkpt><trkpt lat="45.0023283" lon="8.0027783"><ele>214.0</ele><time>2026-04-12T10:44:45.875Z</time></trkpt><trkpt lat="45.00227" lon="8.002575"><ele>214.0</ele><time>2026-04-12T10:44:46.874Z</time></trkpt><trkpt lat="45.0022267" lon="8.0023817"><ele>214.0</ele><time>2026-04-12T10:44:47.875Z</time></trkpt><trkpt lat="45.002185" lon="8.0021983"><ele>214.0</ele><time>2026-04-12T10:44:48.874Z</time></trkpt><trkpt lat="45.0021333" lon="8.0020133"><ele>214.0</ele><time>2026-04-12T10:44:49.874Z</time></trkpt><trkpt lat="45.0020917" lon="8.0018317"><ele>214.0</ele><time>2026-04-12T10:44:50.874Z</time></trkpt><trkpt lat="45.0020567" lon="8.0016633"><ele>214.0</ele><time>2026-04-12T10:44:51.874Z</time></trkpt><trkpt lat="45.0020267" lon="8.0014917"><ele>214.0</ele><time>2026-04-12T10:44:52.875Z</time></trkpt><trkpt lat="45.0020117" lon="8.001315"><ele>214.0</ele><time>2026-04-12T10:44:53.875Z</time></trkpt><trkpt lat="45.00204" lon="8.0011467"><ele>214.0</ele><time>2026-04-12T10:44:54.874Z</time></trkpt><trkpt lat="45.0020933" lon="8.000995"><ele>214.0</ele><time>2026-04-12T10:44:55.874Z</time></trkpt><trkpt lat="45.0021667" lon="8.0008483"><ele>217.25</ele><time>2026-04-12T10:44:56.874Z</time></trkpt><trkpt lat="45.0022383" lon="8.0007067"><ele>220.5</ele><time>2026-04-12T10:44:57.874Z</time></trkpt><trkpt lat="45.0023167" lon="8.0005567"><ele>223.75</ele><time>2026-04-12T10:44:58.874Z</time></trkpt><trkpt lat="45.0023817" lon="8.00041"><ele>227.0</ele><time>2026-04-12T10:44:59.874Z</time></trkpt><trkpt lat="45.0024383" lon="8.0002633"><ele>225.6</ele><time>2026-04-12T10:45:00.874Z</time></trkpt><trkpt lat="45.00251" lon="8.00013"><ele>224.2</ele><time>2026-04-12T10:45:01.875Z</time></trkpt><trkpt lat="45.0026" lon="8.0000333"><ele>222.8</ele><time>2026-04-12T10:45:02.875Z</time></trkpt><trkpt lat="45.0027033" lon="7.999975"><ele>221.4</ele><time>2026-04-12T10:45:03.874Z</time></trkpt><trkpt lat="45.002795" lon="7.9999633"><ele>220.0</ele><time>2026-04-12T10:45:04.875Z</time></trkpt><trkpt lat="45.00289" lon="7.9999767"><ele>220.0</ele><time>2026-04-12T10:45:05.874Z</time></trkpt><trkpt lat="45.0029783" lon="8.000035"><ele>220.0</ele><time>2026-04-12T10:45:06.875Z</time></trkpt><trkpt lat="45.0030633" lon="8.0001233"><ele>220.0</ele><time>2026-04-12T10:45:07.874Z</time></trkpt><trkpt lat="45.00311" lon="8.0002467"><ele>220.0</ele><time>2026-04-12T10:45:08.875Z</time></trkpt><trkpt lat="45.0031267" lon="8.0003833"><ele>220.0</ele><time>2026-04-12T10:45:09.874Z</time></trkpt><trkpt lat="45.003115" lon="8.0005133"><ele>219.99999999999997</ele><time>2026-04-12T10:45:10.875Z</time></trkpt><trkpt lat="45.00308" lon="8.00062"><ele>220.0</ele><time>2026-04-12T10:45:11.875Z</time></trkpt><trkpt lat="45.00303" lon="8.0007"><ele>220.0</ele><time>2026-04-12T10:45:12.875Z</time></trkpt><trkpt lat="45.0029667" lon="8.000835"><ele>220.0</ele><time>2026-04-12T10:45:14.875Z</time></trkpt><trkpt lat="45.0029883" lon="8.0009833"><ele>219.99999999999997</ele><time>2026-04-12T10:45:16.874Z</time></trkpt><trkpt lat="45.003035" lon="8.0010517"><ele>220.0</ele><time>2026-04-12T10:45:17.875Z</time></trkpt><trkpt lat="45.0030983" lon="8.0010917"><ele>220.6</ele><time>2026-04-12T10:45:18.874Z</time></trkpt><trkpt lat="45.0031767" lon="8.0010917"><ele>221.2</ele><time>2026-04-12T10:45:19.874Z</time></trkpt><trkpt lat="45.003255" lon="8.00105"><ele>221.8</ele><time>2026-04-12T10:45:20.874Z</time></trkpt><trkpt lat="45.003335" lon="8.0009683"><ele>222.4</ele><time>2026-04-12T10:45:21.875Z</time></trkpt><trkpt lat="45.0034317" lon="8.0008517"><ele>223.0</ele><time>2026-04-12T10:45:22.874Z</time></trkpt><trkpt lat="45.0035233" lon="8.0007133"><ele>227.25</ele><time>2026-04-12T10:45:23.874Z</time></trkpt><trkpt lat="45.0035983" lon="8.0005667"><ele>231.5</ele><time>2026-04-12T10:45:24.875Z</time></trkpt><trkpt lat="45.003665" lon="8.00041"><ele>235.75</ele><time>2026-04-12T10:45:25.875Z</time></trkpt><trkpt lat="45.0037233" lon="8.0002317"><ele>240.0</ele><time>2026-04-12T10:45:26.874Z</time></trkpt><trkpt lat="45.003775" lon="8.000045"><ele>240.0</ele><time>2026-04-12T10:45:27.874Z</time></trkpt><trkpt lat="45.00383" lon="7.999865"><ele>240.0</ele><time>2026-04-12T10:45:28.874Z</time></trkpt><trkpt lat="45.00388" lon="7.9996817"><ele>240.0</ele><time>2026-04-12T10:45:29.874Z</time></trkpt><trkpt lat="45.003925" lon="7.999505"><ele>240.0</ele><time>2026-04-12T10:45:30.875Z</time></trkpt><trkpt lat="45.003965" lon="7.9993333"><ele>239.75</ele><time>2026-04-12T10:45:31.874Z</time></trkpt><trkpt lat="45.0040083" lon="7.999165"><ele>239.5</ele><time>2026-04-12T10:45:32.875Z</time></trkpt><trkpt lat="45.0040517" lon="7.99899"><ele>239.25</ele><time>2026-04-12T10:45:33.874Z</time></trkpt><trkpt lat="45.0040817" lon="7.9988117"><ele>239.0</ele><time>2026-04-12T10:45:34.875Z</time></trkpt><trkpt lat="45.0041183" lon="7.9986367"><ele>239.0</ele><time>2026-04-12T10:45:35.875Z</time></trkpt><trkpt lat="45.0041583" lon="7.9984667"><ele>239.0</ele><time>2026-04-12T10:45:36.874Z</time></trkpt><trkpt lat="45.00419" lon="7.9982867"><ele>239.0</ele><time>2026-04-12T10:45:37.874Z</time></trkpt><trkpt lat="45.0041917" lon="7.9981117"><ele>239.0</ele><time>2026-04-12T10:45:38.875Z</time></trkpt><trkpt lat="45.0041717" lon="7.9979433"><ele>239.0</ele><time>2026-04-12T10:45:39.874Z</time></trkpt><trkpt lat="45.004125" lon="7.9977883"><ele>239.0</ele><time>2026-04-12T10:45:40.874Z</time></trkpt><trkpt lat="45.0040433" lon="7.99765"><ele>239.0</ele><time>2026-04-12T10:45:41.875Z</time></trkpt><trkpt lat="45.003955" lon="7.99752"><ele>239.0</ele><time>2026-04-12T10:45:42.875Z</time></trkpt><trkpt lat="45.0038683" lon="7.997385"><ele>241.75</ele><time>2026-04-12T10:45:43.874Z</time></trkpt><trkpt lat="45.00378" lon="7.9972617"><ele>244.5</ele><time>2026-04-12T10:45:44.874Z</time></trkpt><trkpt lat="45.0036833" lon="7.9971383"><ele>247.25</ele><time>2026-04-12T10:45:45.875Z</time></trkpt><trkpt lat="45.0035967" lon="7.99702"><ele>250.0</ele><time>2026-04-12T10:45:46.875Z</time></trkpt><trkpt lat="45.0035017" lon="7.9969317"><ele>249.99999999999997</ele><time>2026-04-12T10:45:47.874Z</time></trkpt><trkpt lat="45.0034067" lon="7.996865"><ele>250.0</ele><time>2026-04-12T10:45:48.875Z</time></trkpt><trkpt lat="45.00332" lon="7.996815"><ele>250.0</ele><time>2026-04-12T10:45:49.874Z</time></trkpt><trkpt lat="45.00325" lon="7.996755"><ele>250.0</ele><time>2026-04-12T10:45:50.875Z</time></trkpt><trkpt lat="45.003195" lon="7.996675"><ele>249.99999999999997</ele><time>2026-04-12T10:45:51.874Z</time></trkpt><trkpt lat="45.0031817" lon="7.9965767"><ele>250.0</ele><time>2026-04-12T10:45:52.875Z</time></trkpt><trkpt lat="45.0032033" lon="7.9964633"><ele>252.0</ele><time>2026-04-12T10:45:53.875Z</time></trkpt><trkpt lat="45.0032583" lon="7.9963383"><ele>254.0</ele><time>2026-04-12T10:45:54.874Z</time></trkpt><trkpt lat="45.0033483" lon="7.9962"><ele>256.0</ele><time>2026-04-12T10:45:55.874Z</time></trkpt><trkpt lat="45.0034383" lon="7.9960683"><ele>258.0</ele><time>2026-04-12T10:45:56.874Z</time></trkpt><trkpt lat="45.0035083" lon="7.9959333"><ele>255.75</ele><time>2026-04-12T10:45:57.875Z</time></trkpt><trkpt lat="45.0035783" lon="7.9957883"><ele>253.5</ele><time>2026-04-12T10:45:58.874Z</time></trkpt><trkpt lat="45.003665" lon="7.9956583"><ele>251.25</ele><time>2026-04-12T10:45:59.874Z</time></trkpt><trkpt lat="45.0037617" lon="7.995565"><ele>249.0</ele><time>2026-04-12T10:46:00.875Z</time></trkpt><trkpt lat="45.0038767" lon="7.9955133"><ele>249.0</ele><time>2026-04-12T10:46:01.874Z</time></trkpt><trkpt lat="45.0039933" lon="7.9955"><ele>248.99999999999997</ele><time>2026-04-12T10:46:02.875Z</time></trkpt><trkpt lat="45.0041117" lon="7.995495"><ele>248.99999999999997</ele><time>2026-04-12T10:46:03.874Z</time></trkpt><trkpt lat="45.00422" lon="7.9954883"><ele>249.0</ele><time>2026-04-12T10:46:04.875Z</time></trkpt><trkpt lat="45.0043133" lon="7.99546"><ele>249.0</ele><time>2026-04-12T10:46:05.874Z</time></trkpt><trkpt lat="45.0043983" lon="7.9954017"><ele>248.5</ele><time>2026-04-12T10:46:06.874Z</time></trkpt><trkpt lat="45.004475" lon="7.9952883"><ele>248.0</ele><time>2026-04-12T10:46:07.874Z</time></trkpt><trkpt lat="45.0045167" lon="7.995135"><ele>247.5</ele><time>2026-04-12T10:46:08.874Z</time></trkpt><trkpt lat="45.004535" lon="7.9949617"><ele>247.0</ele><time>2026-04-12T10:46:09.874Z</time></trkpt><trkpt lat="45.0045433" lon="7.9947667"><ele>247.0</ele><time>2026-04-12T10:46:10.874Z</time></trkpt><trkpt lat="45.004535" lon="7.9945517"><ele>247.0</ele><time>2026-04-12T10:46:11.874Z</time></trkpt><trkpt lat="45.0045383" lon="7.9943517"><ele>247.0</ele><time>2026-04-12T10:46:12.875Z</time></trkpt><trkpt lat="45.004545" lon="7.994165"><ele>247.0</ele><time>2026-04-12T10:46:13.875Z</time></trkpt><trkpt lat="45.0045567" lon="7.9939817"><ele>245.25</ele><time>2026-04-12T10:46:14.875Z</time></trkpt><trkpt lat="45.0045717" lon="7.9938067"><ele>243.5</ele><time>2026-04-12T10:46:15.874Z</time></trkpt><trkpt lat="45.00457" lon="7.9936367"><ele>241.75</ele><time>2026-04-12T10:46:16.874Z</time></trkpt><trkpt lat="45.0045333" lon="7.993475"><ele>240.0</ele><time>2026-04-12T10:46:17.875Z</time></trkpt><trkpt lat="45.0044617" lon="7.9933167"><ele>238.75</ele><time>2026-04-12T10:46:18.874Z</time></trkpt><trkpt lat="45.0043817" lon="7.9931783"><ele>237.5</ele><time>2026-04-12T10:46:19.874Z</time></trkpt><trkpt lat="45.0043033" lon="7.9930467"><ele>236.25</ele><time>2026-04-12T10:46:20.875Z</time></trkpt><trkpt lat="45.0042417" lon="7.9929033"><ele>235.0</ele><time>2026-04-12T10:46:21.875Z</time></trkpt><trkpt lat="45.0042217" lon="7.9927517"><ele>235.0</ele><time>2026-04-12T10:46:22.875Z</time></trkpt><trkpt lat="45.0042367" lon="7.992615"><ele>235.0</ele><time>2026-04-12T10:46:23.874Z</time></trkpt><trkpt lat="45.0042583" lon="7.9924717"><ele>235.0</ele><time>2026-04-12T10:46:24.874Z</time></trkpt><trkpt lat="45.0042483" lon="7.9923467"><ele>235.0</ele><time>2026-04-12T10:46:25.875Z</time></trkpt><trkpt lat="45.004215" lon="7.9922383"><ele>235.0</ele><time>2026-04-12T10:46:26.874Z</time></trkpt><trkpt lat="45.0041433" lon="7.9921333"><ele>232.0</ele><time>2026-04-12T10:46:27.874Z</time></trkpt><trkpt lat="45.0040483" lon="7.9920683"><ele>229.0</ele><time>2026-04-12T10:46:28.875Z</time></trkpt><trkpt lat="45.00394" lon="7.9920083"><ele>226.0</ele><time>2026-04-12T10:46:29.874Z</time></trkpt><trkpt lat="45.0038283" lon="7.9919467"><ele>223.0</ele><time>2026-04-12T10:46:30.874Z</time></trkpt><trkpt lat="45.0037383" lon="7.9918467"><ele>223.0</ele><time>2026-04-12T10:46:31.875Z</time></trkpt><trkpt lat="45.0036867" lon="7.9917067"><ele>223.0</ele><time>2026-04-12T10:46:32.874Z</time></trkpt><trkpt lat="45.0036733" lon="7.9915167"><ele>223.0</ele><time>2026-04-12T10:46:33.875Z</time></trkpt><trkpt lat="45.003675" lon="7.9913033"><ele>223.0</ele><time>2026-04-12T10:46:34.874Z</time></trkpt><trkpt lat="45.0036817" lon="7.9910883"><ele>223.0</ele><time>2026-04-12T10:46:35.875Z</time></trkpt><trkpt lat="45.0036867" lon="7.9908767"><ele>223.0</ele><time>2026-04-12T10:46:36.874Z</time></trkpt><trkpt lat="45.0036933" lon="7.990665"><ele>223.0</ele><time>2026-04-12T10:46:37.874Z</time></trkpt><trkpt lat="45.0037117" lon="7.990465"><ele>223.0</ele><time>2026-04-12T10:46:38.874Z</time></trkpt><trkpt lat="45.0037417" lon="7.99026"><ele>222.33333333333331</ele><time>2026-04-12T10:46:39.875Z</time></trkpt><trkpt lat="45.0037983" lon="7.9900617"><ele>221.66666666666669</ele><time>2026-04-12T10:46:40.874Z</time></trkpt><trkpt lat="45.00388" lon="7.989865"><ele>221.0</ele><time>2026-04-12T10:46:41.874Z</time></trkpt><trkpt lat="45.0039667" lon="7.98968"><ele>219.0</ele><time>2026-04-12T10:46:42.874Z</time></trkpt><trkpt lat="45.0040467" lon="7.9894983"><ele>217.0</ele><time>2026-04-12T10:46:43.874Z</time></trkpt><trkpt lat="45.004125" lon="7.9892967"><ele>215.0</ele><time>2026-04-12T10:46:44.874Z</time></trkpt><trkpt lat="45.00419" lon="7.98909"><ele>215.0</ele><time>2026-04-12T10:46:45.874Z</time></trkpt><trkpt lat="45.0042617" lon="7.9888917"><ele>215.0</ele><time>2026-04-12T10:46:46.875Z</time></trkpt><trkpt lat="45.0043383" lon="7.9886967"><ele>215.0</ele><time>2026-04-12T10:46:47.875Z</time></trkpt><trkpt lat="45.00442" lon="7.98851"><ele>213.5</ele><time>2026-04-12T10:46:48.875Z</time></trkpt><trkpt lat="45.0045033" lon="7.9883383"><ele>212.0</ele><time>2026-04-12T10:46:49.875Z</time></trkpt><trkpt lat="45.0045883" lon="7.988165"><ele>210.5</ele><time>2026-04-12T10:46:50.875Z</time></trkpt><trkpt lat="45.0046667" lon="7.987995"><ele>209.0</ele><time>2026-04-12T10:46:51.875Z</time></trkpt><trkpt lat="45.0047433" lon="7.9878333"><ele>209.0</ele><time>2026-04-12T10:46:52.874Z</time></trkpt><trkpt lat="45.00483" lon="7.98768"><ele>209.0</ele><time>2026-04-12T10:46:53.875Z</time></trkpt><trkpt lat="45.0049333" lon="7.98754"><ele>209.0</ele><time>2026-04-12T10:46:54.874Z</time></trkpt><trkpt lat="45.0050583" lon="7.987425"><ele>209.0</ele><time>2026-04-12T10:46:55.874Z</time></trkpt><trkpt lat="45.005195" lon="7.9873217"><ele>212.0</ele><time>2026-04-12T10:46:56.875Z</time></trkpt><trkpt lat="45.0053333" lon="7.98722"><ele>215.0</ele><time>2026-04-12T10:46:57.874Z</time></trkpt><trkpt lat="45.0054767" lon="7.9871083"><ele>218.0</ele><time>2026-04-12T10:46:58.875Z</time></trkpt><trkpt lat="45.0056117" lon="7.9869967"><ele>218.0</ele><time>2026-04-12T10:46:59.874Z</time></trkpt><trkpt lat="45.0057433" lon="7.9868833"><ele>218.0</ele><time>2026-04-12T10:47:00.874Z</time></trkpt><trkpt lat="45.0058767" lon="7.9867633"><ele>218.0</ele><time>2026-04-12T10:47:01.875Z</time></trkpt><trkpt lat="45.0060167" lon="7.9866567"><ele>218.66666666666669</ele><time>2026-04-12T10:47:02.874Z</time></trkpt><trkpt lat="45.0061633" lon="7.9865567"><ele>219.33333333333331</ele><time>2026-04-12T10:47:03.874Z</time></trkpt><trkpt lat="45.006315" lon="7.9864783"><ele>220.0</ele><time>2026-04-12T10:47:04.874Z</time></trkpt><trkpt lat="45.00647" lon="7.98642"><ele>220.0</ele><time>2026-04-12T10:47:05.875Z</time></trkpt><trkpt lat="45.0066183" lon="7.986375"><ele>220.0</ele><time>2026-04-12T10:47:06.875Z</time></trkpt><trkpt lat="45.0067717" lon="7.9863483"><ele>220.0</ele><time>2026-04-12T10:47:07.874Z</time></trkpt><trkpt lat="45.0069317" lon="7.98634"><ele>221.0</ele><time>2026-04-12T10:47:08.875Z</time></trkpt><trkpt lat="45.00709" lon="7.9863383"><ele>222.0</ele><time>2026-04-12T10:47:09.874Z</time></trkpt><trkpt lat="45.0072467" lon="7.9863333"><ele>223.0</ele><time>2026-04-12T10:47:10.874Z</time></trkpt><trkpt lat="45.0074017" lon="7.9863167"><ele>223.33333333333331</ele><time>2026-04-12T10:47:11.874Z</time></trkpt><trkpt lat="45.0075583" lon="7.9862933"><ele>223.66666666666669</ele><time>2026-04-12T10:47:12.875Z</time></trkpt><trkpt lat="45.00772" lon="7.9862617"><ele>224.0</ele><time>2026-04-12T10:47:13.875Z</time></trkpt><trkpt lat="45.0078817" lon="7.98623"><ele>224.0</ele><time>2026-04-12T10:47:14.874Z</time></trkpt><trkpt lat="45.0080417" lon="7.9861967"><ele>224.0</ele><time>2026-04-12T10:47:15.874Z</time></trkpt><trkpt lat="45.0081933" lon="7.9861583"><ele>224.0</ele><time>2026-04-12T10:47:16.875Z</time></trkpt><trkpt lat="45.0083583" lon="7.9861367"><ele>225.0</ele><time>2026-04-12T10:47:17.874Z</time></trkpt><trkpt lat="45.0085117" lon="7.9860883"><ele>226.0</ele><time>2026-04-12T10:47:18.874Z</time></trkpt><trkpt lat="45.00867" lon="7.98604"><ele>227.0</ele><time>2026-04-12T10:47:19.874Z</time></trkpt><trkpt lat="45.008825" lon="7.9859967"><ele>227.0</ele><time>2026-04-12T10:47:20.874Z</time></trkpt><trkpt lat="45.0089817" lon="7.985975"><ele>227.0</ele><time>2026-04-12T10:47:21.874Z</time></trkpt><trkpt lat="45.0091333" lon="7.9859783"><ele>227.0</ele><time>2026-04-12T10:47:22.875Z</time></trkpt><trkpt lat="45.0092867" lon="7.9859933"><ele>226.5</ele><time>2026-04-12T10:47:23.874Z</time></trkpt><trkpt lat="45.00944" lon="7.9860333"><ele>226.0</ele><time>2026-04-12T10:47:24.874Z</time></trkpt><trkpt lat="45.0095783" lon="7.9860933"><ele>225.5</ele><time>2026-04-12T10:47:25.874Z</time></trkpt><trkpt lat="45.009715" lon="7.9861617"><ele>225.0</ele><time>2026-04-12T10:47:26.874Z</time></trkpt><trkpt lat="45.0098483" lon="7.986215"><ele>225.0</ele><time>2026-04-12T10:47:27.874Z</time></trkpt><trkpt lat="45.0099683" lon="7.98627"><ele>225.0</ele><time>2026-04-12T10:47:28.874Z</time></trkpt><trkpt lat="45.0100733" lon="7.9863183"><ele>225.0</ele><time>2026-04-12T10:47:29.874Z</time></trkpt><trkpt lat="45.0101783" lon="7.9863433"><ele>225.0</ele><time>2026-04-12T10:47:30.875Z</time></trkpt><trkpt lat="45.010275" lon="7.98637"><ele>225.0</ele><time>2026-04-12T10:47:31.874Z</time></trkpt><trkpt lat="45.0103533" lon="7.9864333"><ele>223.6</ele><time>2026-04-12T10:47:32.874Z</time></trkpt><trkpt lat="45.0104233" lon="7.98652"><ele>222.2</ele><time>2026-04-12T10:47:33.875Z</time></trkpt><trkpt lat="45.0104817" lon="7.98663"><ele>220.8</ele><time>2026-04-12T10:47:34.874Z</time></trkpt><trkpt lat="45.0105283" lon="7.9867583"><ele>219.4</ele><time>2026-04-12T10:47:35.874Z</time></trkpt><trkpt lat="45.0105467" lon="7.9869"><ele>218.0</ele><time>2026-04-12T10:47:36.874Z</time></trkpt><trkpt lat="45.0105433" lon="7.9870517"><ele>218.0</ele><time>2026-04-12T10:47:37.875Z</time></trkpt><trkpt lat="45.0105217" lon="7.9872083"><ele>218.0</ele><time>2026-04-12T10:47:38.874Z</time></trkpt><trkpt lat="45.0105067" lon="7.9873867"><ele>218.0</ele><time>2026-04-12T10:47:39.874Z</time></trkpt><trkpt lat="45.0104783" lon="7.98755"><ele>218.0</ele><time>2026-04-12T10:47:40.875Z</time></trkpt><trkpt lat="45.010455" lon="7.9877383"><ele>219.25</ele><time>2026-04-12T10:47:41.874Z</time></trkpt><trkpt lat="45.01043" lon="7.9879183"><ele>220.5</ele><time>2026-04-12T10:47:42.875Z</time></trkpt><trkpt lat="45.0104083" lon="7.988085"><ele>221.75</ele><time>2026-04-12T10:47:43.874Z</time></trkpt><trkpt lat="45.01039" lon="7.98826"><ele>223.0</ele><time>2026-04-12T10:47:44.874Z</time></trkpt><trkpt lat="45.010375" lon="7.988435"><ele>224.75</ele><time>2026-04-12T10:47:45.875Z</time></trkpt><trkpt lat="45.0103583" lon="7.988605"><ele>226.5</ele><time>2026-04-12T10:47:46.875Z</time></trkpt><trkpt lat="45.010335" lon="7.9887733"><ele>228.25</ele><time>2026-04-12T10:47:47.875Z</time></trkpt><trkpt lat="45.010315" lon="7.9889333"><ele>230.0</ele><time>2026-04-12T10:47:48.874Z</time></trkpt><trkpt lat="45.0102817" lon="7.9890767"><ele>233.0</ele><time>2026-04-12T10:47:49.874Z</time></trkpt><trkpt lat="45.01022" lon="7.989195"><ele>236.0</ele><time>2026-04-12T10:47:50.875Z</time></trkpt><trkpt lat="45.010135" lon="7.9892967"><ele>239.0</ele><time>2026-04-12T10:47:51.874Z</time></trkpt><trkpt lat="45.0100433" lon="7.9893533"><ele>242.0</ele><time>2026-04-12T10:47:52.875Z</time></trkpt><trkpt lat="45.0099567" lon="7.9894"><ele>245.0</ele><time>2026-04-12T10:47:53.875Z</time></trkpt><trkpt lat="45.00988" lon="7.9894467"><ele>246.16666666666669</ele><time>2026-04-12T10:47:54.874Z</time></trkpt><trkpt lat="45.009815" lon="7.989515"><ele>247.33333333333334</ele><time>2026-04-12T10:47:55.875Z</time></trkpt><trkpt lat="45.0097667" lon="7.9895917"><ele>248.5</ele><time>2026-04-12T10:47:56.874Z</time></trkpt><trkpt lat="45.0097517" lon="7.98968"><ele>249.66666666666669</ele><time>2026-04-12T10:47:57.874Z</time></trkpt><trkpt lat="45.0097783" lon="7.989765"><ele>250.83333333333334</ele><time>2026-04-12T10:47:58.874Z</time></trkpt><trkpt lat="45.0098483" lon="7.989825"><ele>252.0</ele><time>2026-04-12T10:47:59.875Z</time></trkpt><trkpt lat="45.0099417" lon="7.9898567"><ele>250.6</ele><time>2026-04-12T10:48:00.875Z</time></trkpt><trkpt lat="45.0100567" lon="7.98987"><ele>249.2</ele><time>2026-04-12T10:48:01.874Z</time></trkpt><trkpt lat="45.0101733" lon="7.9898867"><ele>247.8</ele><time>2026-04-12T10:48:02.874Z</time></trkpt><trkpt lat="45.0102783" lon="7.989905"><ele>246.4</ele><time>2026-04-12T10:48:03.875Z</time></trkpt><trkpt lat="45.0103883" lon="7.9899267"><ele>245.0</ele><time>2026-04-12T10:48:04.874Z</time></trkpt><trkpt lat="45.0105017" lon="7.989945"><ele>245.0</ele><time>2026-04-12T10:48:05.874Z</time></trkpt><trkpt lat="45.0106183" lon="7.9899633"><ele>245.0</ele><time>2026-04-12T10:48:06.875Z</time></trkpt><trkpt lat="45.0107333" lon="7.9899817"><ele>245.0</ele><time>2026-04-12T10:48:07.875Z</time></trkpt><trkpt lat="45.0108517" lon="7.98999"><ele>245.0</ele><time>2026-04-12T10:48:08.874Z</time></trkpt><trkpt lat="45.010965" lon="7.9899933"><ele>245.75</ele><time>2026-04-12T10:48:09.874Z</time></trkpt><trkpt lat="45.0110867" lon="7.989995"><ele>246.5</ele><time>2026-04-12T10:48:10.874Z</time></trkpt><trkpt lat="45.0112133" lon="7.9900083"><ele>247.25</ele><time>2026-04-12T10:48:11.874Z</time></trkpt><trkpt lat="45.0113433" lon="7.99002"><ele>248.0</ele><time>2026-04-12T10:48:12.874Z</time></trkpt><trkpt lat="45.01147" lon="7.99003"><ele>249.0</ele><time>2026-04-12T10:48:13.874Z</time></trkpt><trkpt lat="45.011605" lon="7.9900567"><ele>250.0</ele><time>2026-04-12T10:48:14.874Z</time></trkpt><trkpt lat="45.0117417" lon="7.9900967"><ele>251.0</ele><time>2026-04-12T10:48:15.875Z</time></trkpt><trkpt lat="45.0118733" lon="7.990155"><ele>252.0</ele><time>2026-04-12T10:48:16.874Z</time></trkpt><trkpt lat="45.012" lon="7.9902133"><ele>253.0</ele><time>2026-04-12T10:48:17.875Z</time></trkpt><trkpt lat="45.0121367" lon="7.9902683"><ele>254.0</ele><time>2026-04-12T10:48:18.875Z</time></trkpt><trkpt lat="45.0122817" lon="7.9903367"><ele>255.0</ele><time>2026-04-12T10:48:19.874Z</time></trkpt><trkpt lat="45.0124167" lon="7.9904383"><ele>256.0</ele><time>2026-04-12T10:48:20.874Z</time></trkpt><trkpt lat="45.01254" lon="7.9905817"><ele>256.66666666666663</ele><time>2026-04-12T10:48:21.874Z</time></trkpt><trkpt lat="45.0126467" lon="7.9907517"><ele>257.3333333333333</ele><time>2026-04-12T10:48:22.875Z</time></trkpt><trkpt lat="45.0127383" lon="7.9909367"><ele>258.0</ele><time>2026-04-12T10:48:23.875Z</time></trkpt><trkpt lat="45.01283" lon="7.991115"><ele>260.0</ele><time>2026-04-12T10:48:24.874Z</time></trkpt><trkpt lat="45.0129117" lon="7.9913033"><ele>262.0</ele><time>2026-04-12T10:48:25.874Z</time></trkpt><trkpt lat="45.0129967" lon="7.9914917"><ele>264.0</ele><time>2026-04-12T10:48:26.875Z</time></trkpt><trkpt lat="45.0130867" lon="7.9916683"><ele>263.3333333333333</ele><time>2026-04-12T10:48:27.874Z</time></trkpt><trkpt lat="45.0131983" lon="7.9918233"><ele>262.66666666666663</ele><time>2026-04-12T10:48:28.874Z</time></trkpt><trkpt lat="45.0133183" lon="7.99196"><ele>262.0</ele><time>2026-04-12T10:48:29.875Z</time></trkpt><trkpt lat="45.0134533" lon="7.9920783"><ele>262.0</ele><time>2026-04-12T10:48:30.874Z</time></trkpt><trkpt lat="45.0135933" lon="7.9921783"><ele>262.0</ele><time>2026-04-12T10:48:31.875Z</time></trkpt><trkpt lat="45.0137417" lon="7.9922483"><ele>262.0</ele><time>2026-04-12T10:48:32.874Z</time></trkpt><trkpt lat="45.0138967" lon="7.9922983"><ele>262.0</ele><time>2026-04-12T10:48:33.874Z</time></trkpt><trkpt lat="45.0140567" lon="7.9923433"><ele>262.0</ele><time>2026-04-12T10:48:34.874Z</time></trkpt><trkpt lat="45.0142133" lon="7.9923833"><ele>262.0</ele><time>2026-04-12T10:48:35.875Z</time></trkpt><trkpt lat="45.0143633" lon="7.9924367"><ele>261.66666666666663</ele><time>2026-04-12T10:48:36.874Z</time></trkpt><trkpt lat="45.014515" lon="7.9924933"><ele>261.3333333333333</ele><time>2026-04-12T10:48:37.875Z</time></trkpt><trkpt lat="45.0146617" lon="7.9925383"><ele>261.0</ele><time>2026-04-12T10:48:38.874Z</time></trkpt><trkpt lat="45.0148067" lon="7.9925933"><ele>261.0</ele><time>2026-04-12T10:48:39.874Z</time></trkpt><trkpt lat="45.0149583" lon="7.99264"><ele>261.0</ele><time>2026-04-12T10:48:40.875Z</time></trkpt><trkpt lat="45.01511" lon="7.9926833"><ele>261.0</ele><time>2026-04-12T10:48:41.875Z</time></trkpt><trkpt lat="45.01526" lon="7.9927117"><ele>262.6666666666667</ele><time>2026-04-12T10:48:42.874Z</time></trkpt><trkpt lat="45.0154033" lon="7.9927367"><ele>264.33333333333337</ele><time>2026-04-12T10:48:43.874Z</time></trkpt><trkpt lat="45.01556" lon="7.9927517"><ele>266.0</ele><time>2026-04-12T10:48:44.875Z</time></trkpt><trkpt lat="45.0157183" lon="7.99276"><ele>267.33333333333337</ele><time>2026-04-12T10:48:45.874Z</time></trkpt><trkpt lat="45.0158733" lon="7.99274"><ele>268.6666666666667</ele><time>2026-04-12T10:48:46.874Z</time></trkpt><trkpt lat="45.0160267" lon="7.9927067"><ele>270.0</ele><time>2026-04-12T10:48:47.875Z</time></trkpt><trkpt lat="45.01618" lon="7.9926583"><ele>270.0</ele><time>2026-04-12T10:48:48.875Z</time></trkpt><trkpt lat="45.0163383" lon="7.9926"><ele>270.0</ele><time>2026-04-12T10:48:49.875Z</time></trkpt><trkpt lat="45.0164917" lon="7.9925133"><ele>270.0</ele><time>2026-04-12T10:48:50.874Z</time></trkpt><trkpt lat="45.0166467" lon="7.9923983"><ele>270.0</ele><time>2026-04-12T10:48:51.874Z</time></trkpt><trkpt lat="45.0167967" lon="7.992275"><ele>270.0</ele><time>2026-04-12T10:48:52.875Z</time></trkpt><trkpt lat="45.0169483" lon="7.9921683"><ele>270.0</ele><time>2026-04-12T10:48:53.874Z</time></trkpt><trkpt lat="45.017095" lon="7.9920483"><ele>270.0</ele><time>2026-04-12T10:48:54.874Z</time></trkpt><trkpt lat="45.0172267" lon="7.991925"><ele>270.0</ele><time>2026-04-12T10:48:55.874Z</time></trkpt><trkpt lat="45.0173517" lon="7.9918083"><ele>270.0</ele><time>2026-04-12T10:48:56.874Z</time></trkpt><trkpt lat="45.0174717" lon="7.99168"><ele>268.6666666666667</ele><time>2026-04-12T10:48:57.875Z</time></trkpt><trkpt lat="45.0175867" lon="7.9915567"><ele>267.33333333333337</ele><time>2026-04-12T10:48:58.874Z</time></trkpt><trkpt lat="45.0176917" lon="7.9914033"><ele>266.0</ele><time>2026-04-12T10:48:59.874Z</time></trkpt><trkpt lat="45.0177817" lon="7.991225"><ele>266.0</ele><time>2026-04-12T10:49:00.875Z</time></trkpt><trkpt lat="45.01786" lon="7.99105"><ele>266.0</ele><time>2026-04-12T10:49:01.875Z</time></trkpt><trkpt lat="45.0179467" lon="7.9908667"><ele>266.0</ele><time>2026-04-12T10:49:02.875Z</time></trkpt><trkpt lat="45.0180233" lon="7.9906867"><ele>265.5</ele><time>2026-04-12T10:49:03.875Z</time></trkpt><trkpt lat="45.0180933" lon="7.990505"><ele>265.0</ele><time>2026-04-12T10:49:04.874Z</time></trkpt><trkpt lat="45.0181683" lon="7.9903233"><ele>264.5</ele><time>2026-04-12T10:49:05.874Z</time></trkpt><trkpt lat="45.018235" lon="7.9901317"><ele>264.0</ele><time>2026-04-12T10:49:06.875Z</time></trkpt><trkpt lat="45.0182967" lon="7.98994"><ele>265.5</ele><time>2026-04-12T10:49:07.874Z</time></trkpt><trkpt lat="45.0183567" lon="7.989755"><ele>267.0</ele><time>2026-04-12T10:49:08.874Z</time></trkpt><trkpt lat="45.01842" lon="7.98957"><ele>268.5</ele><time>2026-04-12T10:49:09.874Z</time></trkpt><trkpt lat="45.0184933" lon="7.98938"><ele>270.0</ele><time>2026-04-12T10:49:10.874Z</time></trkpt><trkpt lat="45.0185683" lon="7.9891817"><ele>271.6666666666667</ele><time>2026-04-12T10:49:11.874Z</time></trkpt><trkpt lat="45.018635" lon="7.9889817"><ele>273.33333333333337</ele><time>2026-04-12T10:49:12.875Z</time></trkpt><trkpt lat="45.0187117" lon="7.9887783"><ele>275.0</ele><time>2026-04-12T10:49:13.875Z</time></trkpt><trkpt lat="45.0187833" lon="7.98857"><ele>275.0</ele><time>2026-04-12T10:49:14.875Z</time></trkpt><trkpt lat="45.018865" lon="7.9883717"><ele>275.0</ele><time>2026-04-12T10:49:15.874Z</time></trkpt><trkpt lat="45.0189633" lon="7.9881867"><ele>275.0</ele><time>2026-04-12T10:49:16.875Z</time></trkpt><trkpt lat="45.01908" lon="7.9880283"><ele>274.6666666666667</ele><time>2026-04-12T10:49:17.874Z</time></trkpt><trkpt lat="45.019215" lon="7.987895"><ele>274.3333333333333</ele><time>2026-04-12T10:49:18.874Z</time></trkpt><trkpt lat="45.0193633" lon="7.98778"><ele>274.0</ele><time>2026-04-12T10:49:19.874Z</time></trkpt><trkpt lat="45.0195183" lon="7.987705"><ele>274.0</ele><time>2026-04-12T10:49:20.875Z</time></trkpt><trkpt lat="45.0196667" lon="7.9876617"><ele>274.0</ele><time>2026-04-12T10:49:21.874Z</time></trkpt><trkpt lat="45.0198083" lon="7.9876617"><ele>274.0</ele><time>2026-04-12T10:49:22.874Z</time></trkpt><trkpt lat="45.0199483" lon="7.9876967"><ele>274.0</ele><time>2026-04-12T10:49:23.875Z</time></trkpt><trkpt lat="45.0200817" lon="7.98775"><ele>274.25</ele><time>2026-04-12T10:49:24.875Z</time></trkpt><trkpt lat="45.0202083" lon="7.98782"><ele>274.5</ele><time>2026-04-12T10:49:25.875Z</time></trkpt><trkpt lat="45.02034" lon="7.9878767"><ele>274.75</ele><time>2026-04-12T10:49:26.875Z</time></trkpt><trkpt lat="45.0204567" lon="7.9879267"><ele>275.0</ele><time>2026-04-12T10:49:27.875Z</time></trkpt><trkpt lat="45.0205767" lon="7.9879817"><ele>275.0</ele><time>2026-04-12T10:49:28.875Z</time></trkpt><trkpt lat="45.0206917" lon="7.9880467"><ele>275.0</ele><time>2026-04-12T10:49:29.874Z</time></trkpt><trkpt lat="45.02081" lon="7.9881"><ele>275.0</ele><time>2026-04-12T10:49:30.874Z</time></trkpt><trkpt lat="45.0209283" lon="7.9881817"><ele>275.0</ele><time>2026-04-12T10:49:31.874Z</time></trkpt><trkpt lat="45.0210567" lon="7.98818"><ele>274.75</ele><time>2026-04-12T10:49:32.874Z</time></trkpt><trkpt lat="45.02119" lon="7.9881467"><ele>274.5</ele><time>2026-04-12T10:49:33.875Z</time></trkpt><trkpt lat="45.0213217" lon="7.9880883"><ele>274.25</ele><time>2026-04-12T10:49:34.874Z</time></trkpt><trkpt lat="45.021445" lon="7.9880333"><ele>274.0</ele><time>2026-04-12T10:49:35.875Z</time></trkpt><trkpt lat="45.0215783" lon="7.9879717"><ele>272.0</ele><time>2026-04-12T10:49:36.874Z</time></trkpt><trkpt lat="45.021695" lon="7.9879117"><ele>270.0</ele><time>2026-04-12T10:49:37.874Z</time></trkpt><trkpt lat="45.0218067" lon="7.9878617"><ele>268.0</ele><time>2026-04-12T10:49:38.874Z</time></trkpt><trkpt lat="45.02192" lon="7.9878067"><ele>266.0</ele><time>2026-04-12T10:49:39.875Z</time></trkpt><trkpt lat="45.0220133" lon="7.9877783"><ele>266.0</ele><time>2026-04-12T10:49:40.875Z</time></trkpt><trkpt lat="45.0220983" lon="7.9877583"><ele>266.0</ele><time>2026-04-12T10:49:41.874Z</time></trkpt><trkpt lat="45.0222" lon="7.9877717"><ele>266.0</ele><time>2026-04-12T10:49:42.874Z</time></trkpt><trkpt lat="45.022295" lon="7.98781"><ele>266.0</ele><time>2026-04-12T10:49:43.874Z</time></trkpt><trkpt lat="45.02241" lon="7.9878833"><ele>266.0</ele><time>2026-04-12T10:49:44.875Z</time></trkpt><trkpt lat="45.0225133" lon="7.987965"><ele>264.25</ele><time>2026-04-12T10:49:45.874Z</time></trkpt><trkpt lat="45.0226167" lon="7.9880583"><ele>262.5</ele><time>2026-04-12T10:49:46.875Z</time></trkpt><trkpt lat="45.022745" lon="7.9881433"><ele>260.75</ele><time>2026-04-12T10:49:47.874Z</time></trkpt><trkpt lat="45.022895" lon="7.988225"><ele>259.0</ele><time>2026-04-12T10:49:48.874Z</time></trkpt><trkpt lat="45.0230333" lon="7.9883067"><ele>256.0</ele><time>2026-04-12T10:49:49.874Z</time></trkpt><trkpt lat="45.02318" lon="7.9883817"><ele>253.0</ele><time>2026-04-12T10:49:50.875Z</time></trkpt><trkpt lat="45.0233267" lon="7.9884633"><ele>250.0</ele><time>2026-04-12T10:49:51.874Z</time></trkpt><trkpt lat="45.02347" lon="7.98854"><ele>250.0</ele><time>2026-04-12T10:49:52.875Z</time></trkpt><trkpt lat="45.0236083" lon="7.988615"><ele>250.0</ele><time>2026-04-12T10:49:53.875Z</time></trkpt><trkpt lat="45.0237467" lon="7.9886867"><ele>250.0</ele><time>2026-04-12T10:49:54.875Z</time></trkpt><trkpt lat="45.0238783" lon="7.9887667"><ele>250.0</ele><time>2026-04-12T10:49:55.875Z</time></trkpt><trkpt lat="45.0239983" lon="7.988875"><ele>250.0</ele><time>2026-04-12T10:49:56.874Z</time></trkpt><trkpt lat="45.0241033" lon="7.9889883"><ele>250.0</ele><time>2026-04-12T10:49:57.875Z</time></trkpt><trkpt lat="45.02419" lon="7.989095"><ele>250.0</ele><time>2026-04-12T10:49:58.875Z</time></trkpt><trkpt lat="45.0242917" lon="7.9891783"><ele>250.0</ele><time>2026-04-12T10:49:59.875Z</time></trkpt><trkpt lat="45.024395" lon="7.9892183"><ele>251.25</ele><time>2026-04-12T10:50:00.875Z</time></trkpt><trkpt lat="45.0244983" lon="7.98922"><ele>252.5</ele><time>2026-04-12T10:50:01.874Z</time></trkpt><trkpt lat="45.0246083" lon="7.98919"><ele>253.75</ele><time>2026-04-12T10:50:02.874Z</time></trkpt><trkpt lat="45.024715" lon="7.989125"><ele>255.0</ele><time>2026-04-12T10:50:03.875Z</time></trkpt><trkpt lat="45.02482" lon="7.989045"><ele>257.75</ele><time>2026-04-12T10:50:04.874Z</time></trkpt><trkpt lat="45.0249317" lon="7.9889633"><ele>260.5</ele><time>2026-04-12T10:50:05.875Z</time></trkpt><trkpt lat="45.0250483" lon="7.9888633"><ele>263.25</ele><time>2026-04-12T10:50:06.874Z</time></trkpt><trkpt lat="45.0251617" lon="7.988755"><ele>266.0</ele><time>2026-04-12T10:50:07.874Z</time></trkpt><trkpt lat="45.0252733" lon="7.9886217"><ele>267.33333333333337</ele><time>2026-04-12T10:50:08.875Z</time></trkpt><trkpt lat="45.0253817" lon="7.988475"><ele>268.6666666666667</ele><time>2026-04-12T10:50:09.875Z</time></trkpt><trkpt lat="45.0254683" lon="7.9883067"><ele>270.0</ele><time>2026-04-12T10:50:10.874Z</time></trkpt><trkpt lat="45.02556" lon="7.98812"><ele>268.3333333333333</ele><time>2026-04-12T10:50:11.874Z</time></trkpt><trkpt lat="45.0256567" lon="7.98793"><ele>266.66666666666663</ele><time>2026-04-12T10:50:12.875Z</time></trkpt><trkpt lat="45.0257667" lon="7.9877467"><ele>265.0</ele><time>2026-04-12T10:50:13.874Z</time></trkpt><trkpt lat="45.025875" lon="7.987575"><ele>267.3333333333333</ele><time>2026-04-12T10:50:14.874Z</time></trkpt><trkpt lat="45.0259983" lon="7.9874283"><ele>269.6666666666667</ele><time>2026-04-12T10:50:15.875Z</time></trkpt><trkpt lat="45.0261283" lon="7.98732"><ele>272.0</ele><time>2026-04-12T10:50:16.874Z</time></trkpt><trkpt lat="45.02627" lon="7.9872333"><ele>272.0</ele><time>2026-04-12T10:50:17.875Z</time></trkpt><trkpt lat="45.0264267" lon="7.9871533"><ele>272.0</ele><time>2026-04-12T10:50:18.875Z</time></trkpt><trkpt lat="45.02657" lon="7.9870817"><ele>272.0</ele><time>2026-04-12T10:50:19.875Z</time></trkpt><trkpt lat="45.0267183" lon="7.9870017"><ele>270.25</ele><time>2026-04-12T10:50:20.874Z</time></trkpt><trkpt lat="45.026865" lon="7.986925"><ele>268.5</ele><time>2026-04-12T10:50:21.875Z</time></trkpt><trkpt lat="45.0270017" lon="7.9868617"><ele>266.75</ele><time>2026-04-12T10:50:22.875Z</time></trkpt><trkpt lat="45.027145" lon="7.9868367"><ele>265.0</ele><time>2026-04-12T10:50:23.874Z</time></trkpt><trkpt lat="45.0272933" lon="7.9868533"><ele>265.0</ele><time>2026-04-12T10:50:24.874Z</time></trkpt><trkpt lat="45.027435" lon="7.9869067"><ele>265.0</ele><time>2026-04-12T10:50:25.875Z</time></trkpt><trkpt lat="45.0275817" lon="7.9869733"><ele>265.0</ele><time>2026-04-12T10:50:26.874Z</time></trkpt><trkpt lat="45.0277333" lon="7.9870433"><ele>265.0</ele><time>2026-04-12T10:50:27.875Z</time></trkpt><trkpt lat="45.0278867" lon="7.9871167"><ele>265.0</ele><time>2026-04-12T10:50:28.874Z</time></trkpt><trkpt lat="45.0280383" lon="7.9871833"><ele>265.0</ele><time>2026-04-12T10:50:29.874Z</time></trkpt><trkpt lat="45.0281867" lon="7.9872583"><ele>267.0</ele><time>2026-04-12T10:50:30.874Z</time></trkpt><trkpt lat="45.0283367" lon="7.9872967"><ele>269.0</ele><time>2026-04-12T10:50:31.875Z</time></trkpt><trkpt lat="45.0285117" lon="7.987285"><ele>271.0</ele><time>2026-04-12T10:50:32.874Z</time></trkpt><trkpt lat="45.0286733" lon="7.98728"><ele>271.0</ele><time>2026-04-12T10:50:33.874Z</time></trkpt><trkpt lat="45.0288283" lon="7.9872633"><ele>271.0</ele><time>2026-04-12T10:50:34.874Z</time></trkpt><trkpt lat="45.02898" lon="7.9872367"><ele>271.0</ele><time>2026-04-12T10:50:35.875Z</time></trkpt><trkpt lat="45.0291367" lon="7.9872"><ele>270.66666666666663</ele><time>2026-04-12T10:50:36.874Z</time></trkpt><trkpt lat="45.0292867" lon="7.987145"><ele>270.3333333333333</ele><time>2026-04-12T10:50:37.874Z</time></trkpt><trkpt lat="45.029435" lon="7.9870783"><ele>270.0</ele><time>2026-04-12T10:50:38.875Z</time></trkpt><trkpt lat="45.0295817" lon="7.9869983"><ele>270.0</ele><time>2026-04-12T10:50:39.874Z</time></trkpt><trkpt lat="45.0297283" lon="7.9869083"><ele>270.0</ele><time>2026-04-12T10:50:40.874Z</time></trkpt><trkpt lat="45.02986" lon="7.9868167"><ele>270.0</ele><time>2026-04-12T10:50:41.875Z</time></trkpt><trkpt lat="45.029995" lon="7.9867167"><ele>271.0</ele><time>2026-04-12T10:50:42.875Z</time></trkpt><trkpt lat="45.03013" lon="7.9866233"><ele>272.0</ele><time>2026-04-12T10:50:43.875Z</time></trkpt><trkpt lat="45.030255" lon="7.9865533"><ele>273.0</ele><time>2026-04-12T10:50:44.874Z</time></trkpt><trkpt lat="45.0303767" lon="7.9864967"><ele>274.0</ele><time>2026-04-12T10:50:45.875Z</time></trkpt><trkpt lat="45.0304917" lon="7.9863983"><ele>274.0</ele><time>2026-04-12T10:50:46.874Z</time></trkpt><trkpt lat="45.03059" lon="7.9862567"><ele>274.0</ele><time>2026-04-12T10:50:47.874Z</time></trkpt><trkpt lat="45.0306717" lon="7.9860833"><ele>274.0</ele><time>2026-04-12T10:50:48.874Z</time></trkpt><trkpt lat="45.0307617" lon="7.98592"><ele>274.0</ele><time>2026-04-12T10:50:49.874Z</time></trkpt><trkpt lat="45.0308717" lon="7.9857517"><ele>273.0</ele><time>2026-04-12T10:50:50.875Z</time></trkpt><trkpt lat="45.0310017" lon="7.985615"><ele>272.0</ele><time>2026-04-12T10:50:51.875Z</time></trkpt><trkpt lat="45.0311417" lon="7.9854817"><ele>271.0</ele><time>2026-04-12T10:50:52.875Z</time></trkpt><trkpt lat="45.03128" lon="7.9853633"><ele>271.0</ele><time>2026-04-12T10:50:53.875Z</time></trkpt><trkpt lat="45.0314183" lon="7.9852483"><ele>271.0</ele><time>2026-04-12T10:50:54.875Z</time></trkpt><trkpt lat="45.0315517" lon="7.9851283"><ele>271.0</ele><time>2026-04-12T10:50:55.874Z</time></trkpt><trkpt lat="45.0316867" lon="7.985005"><ele>271.25</ele><time>2026-04-12T10:50:56.874Z</time></trkpt><trkpt lat="45.031805" lon="7.9848817"><ele>271.5</ele><time>2026-04-12T10:50:57.874Z</time></trkpt><trkpt lat="45.0319217" lon="7.9847617"><ele>271.75</ele><time>2026-04-12T10:50:58.875Z</time></trkpt><trkpt lat="45.0320483" lon="7.9846633"><ele>272.0</ele><time>2026-04-12T10:50:59.875Z</time></trkpt><trkpt lat="45.032195" lon="7.98459"><ele>272.0</ele><time>2026-04-12T10:51:00.874Z</time></trkpt><trkpt lat="45.0323367" lon="7.98455"><ele>272.0</ele><time>2026-04-12T10:51:01.875Z</time></trkpt><trkpt lat="45.0324917" lon="7.9845233"><ele>272.0</ele><time>2026-04-12T10:51:02.874Z</time></trkpt><trkpt lat="45.0326367" lon="7.984515"><ele>272.0</ele><time>2026-04-12T10:51:03.875Z</time></trkpt><trkpt lat="45.0327833" lon="7.9845183"><ele>272.0</ele><time>2026-04-12T10:51:04.874Z</time></trkpt><trkpt lat="45.0329233" lon="7.98456"><ele>272.0</ele><time>2026-04-12T10:51:05.874Z</time></trkpt><trkpt lat="45.0330417" lon="7.9846433"><ele>272.0</ele><time>2026-04-12T10:51:06.874Z</time></trkpt><trkpt lat="45.033155" lon="7.9847533"><ele>272.0</ele><time>2026-04-12T10:51:07.875Z</time></trkpt><trkpt lat="45.033275" lon="7.9848633"><ele>272.5</ele><time>2026-04-12T10:51:08.875Z</time></trkpt><trkpt lat="45.033395" lon="7.9849633"><ele>273.0</ele><time>2026-04-12T10:51:09.874Z</time></trkpt><trkpt lat="45.03352" lon="7.985055"><ele>273.5</ele><time>2026-04-12T10:51:10.874Z</time></trkpt><trkpt lat="45.0336567" lon="7.9851217"><ele>274.0</ele><time>2026-04-12T10:51:11.875Z</time></trkpt><trkpt lat="45.033795" lon="7.9851567"><ele>274.0</ele><time>2026-04-12T10:51:12.874Z</time></trkpt><trkpt lat="45.0339467" lon="7.9851717"><ele>274.0</ele><time>2026-04-12T10:51:13.875Z</time></trkpt><trkpt lat="45.0340917" lon="7.985155"><ele>274.0</ele><time>2026-04-12T10:51:14.875Z</time></trkpt><trkpt lat="45.0342367" lon="7.9851033"><ele>274.0</ele><time>2026-04-12T10:51:15.875Z</time></trkpt><trkpt lat="45.0343733" lon="7.9850133"><ele>277.3333333333333</ele><time>2026-04-12T10:51:16.875Z</time></trkpt><trkpt lat="45.0345067" lon="7.984915"><ele>280.6666666666667</ele><time>2026-04-12T10:51:17.875Z</time></trkpt><trkpt lat="45.0346517" lon="7.9848417"><ele>284.0</ele><time>2026-04-12T10:51:18.875Z</time></trkpt><trkpt lat="45.0347983" lon="7.98481"><ele>284.0</ele><time>2026-04-12T10:51:19.875Z</time></trkpt><trkpt lat="45.0349533" lon="7.9848367"><ele>284.0</ele><time>2026-04-12T10:51:20.874Z</time></trkpt><trkpt lat="45.0350967" lon="7.9848917"><ele>284.0</ele><time>2026-04-12T10:51:21.874Z</time></trkpt><trkpt lat="45.0352367" lon="7.98495"><ele>283.25</ele><time>2026-04-12T10:51:22.875Z</time></trkpt><trkpt lat="45.035365" lon="7.98501"><ele>282.5</ele><time>2026-04-12T10:51:23.874Z</time></trkpt><trkpt lat="45.0354833" lon="7.9850967"><ele>281.75</ele><time>2026-04-12T10:51:24.875Z</time></trkpt><trkpt lat="45.0355817" lon="7.9852267"><ele>281.0</ele><time>2026-04-12T10:51:25.875Z</time></trkpt><trkpt lat="45.03566" lon="7.98537"><ele>280.25</ele><time>2026-04-12T10:51:26.874Z</time></trkpt><trkpt lat="45.03575" lon="7.985515"><ele>279.5</ele><time>2026-04-12T10:51:27.875Z</time></trkpt><trkpt lat="45.0358617" lon="7.98562"><ele>278.75</ele><time>2026-04-12T10:51:28.874Z</time></trkpt><trkpt lat="45.035985" lon="7.985695"><ele>278.0</ele><time>2026-04-12T10:51:29.875Z</time></trkpt><trkpt lat="45.0361333" lon="7.9857383"><ele>280.0</ele><time>2026-04-12T10:51:30.875Z</time></trkpt><trkpt lat="45.036285" lon="7.9857417"><ele>282.0</ele><time>2026-04-12T10:51:31.874Z</time></trkpt><trkpt lat="45.036425" lon="7.9857267"><ele>284.0</ele><time>2026-04-12T10:51:32.875Z</time></trkpt><trkpt lat="45.036565" lon="7.9857167"><ele>286.0</ele><time>2026-04-12T10:51:33.875Z</time></trkpt><trkpt lat="45.036705" lon="7.985715"><ele>287.5</ele><time>2026-04-12T10:51:34.875Z</time></trkpt><trkpt lat="45.0368383" lon="7.98571"><ele>289.0</ele><time>2026-04-12T10:51:35.874Z</time></trkpt><trkpt lat="45.03697" lon="7.9856917"><ele>290.5</ele><time>2026-04-12T10:51:36.875Z</time></trkpt><trkpt lat="45.0370967" lon="7.9856283"><ele>292.0</ele><time>2026-04-12T10:51:37.875Z</time></trkpt><trkpt lat="45.03721" lon="7.9855017"><ele>292.0</ele><time>2026-04-12T10:51:38.875Z</time></trkpt><trkpt lat="45.0373167" lon="7.985365"><ele>292.0</ele><time>2026-04-12T10:51:39.875Z</time></trkpt><trkpt lat="45.0374283" lon="7.9852517"><ele>292.0</ele><time>2026-04-12T10:51:40.874Z</time></trkpt><trkpt lat="45.037565" lon="7.9851783"><ele>292.0</ele><time>2026-04-12T10:51:41.874Z</time></trkpt><trkpt lat="45.037695" lon="7.9851267"><ele>293.66666666666663</ele><time>2026-04-12T10:51:42.875Z</time></trkpt><trkpt lat="45.0378383" lon="7.9851117"><ele>295.3333333333333</ele><time>2026-04-12T10:51:43.874Z</time></trkpt><trkpt lat="45.0379967" lon="7.9851"><ele>297.0</ele><time>2026-04-12T10:51:44.874Z</time></trkpt><trkpt lat="45.0381617" lon="7.985085"><ele>294.3333333333333</ele><time>2026-04-12T10:51:45.875Z</time></trkpt><trkpt lat="45.038305" lon="7.9850117"><ele>291.66666666666663</ele><time>2026-04-12T10:51:46.874Z</time></trkpt><trkpt lat="45.038435" lon="7.98489"><ele>289.0</ele><time>2026-04-12T10:51:47.874Z</time></trkpt><trkpt lat="45.0385483" lon="7.98477"><ele>289.0</ele><time>2026-04-12T10:51:48.874Z</time></trkpt><trkpt lat="45.03867" lon="7.9846483"><ele>289.0</ele><time>2026-04-12T10:51:49.874Z</time></trkpt><trkpt lat="45.0387983" lon="7.9845517"><ele>289.0</ele><time>2026-04-12T10:51:50.875Z</time></trkpt><trkpt lat="45.03894" lon="7.9844517"><ele>289.0</ele><time>2026-04-12T10:51:51.875Z</time></trkpt><trkpt lat="45.0390867" lon="7.9843483"><ele>289.0</ele><time>2026-04-12T10:51:52.874Z</time></trkpt><trkpt lat="45.03924" lon="7.9842433"><ele>289.0</ele><time>2026-04-12T10:51:53.875Z</time></trkpt><trkpt lat="45.0393933" lon="7.98412"><ele>291.0</ele><time>2026-04-12T10:51:54.875Z</time></trkpt><trkpt lat="45.0395333" lon="7.9840017"><ele>293.0</ele><time>2026-04-12T10:51:55.874Z</time></trkpt><trkpt lat="45.03967" lon="7.9838817"><ele>295.0</ele><time>2026-04-12T10:51:56.875Z</time></trkpt><trkpt lat="45.03981" lon="7.9837667"><ele>295.0</ele><time>2026-04-12T10:51:57.874Z</time></trkpt><trkpt lat="45.0399483" lon="7.9836583"><ele>295.0</ele><time>2026-04-12T10:51:58.875Z</time></trkpt><trkpt lat="45.0400783" lon="7.9835483"><ele>295.0</ele><time>2026-04-12T10:51:59.874Z</time></trkpt><trkpt lat="45.0402117" lon="7.9834517"><ele>295.0</ele><time>2026-04-12T10:52:00.874Z</time></trkpt><trkpt lat="45.0403483" lon="7.98336"><ele>295.0</ele><time>2026-04-12T10:52:01.874Z</time></trkpt><trkpt lat="45.04048" lon="7.98327"><ele>295.0</ele><time>2026-04-12T10:52:02.875Z</time></trkpt><trkpt lat="45.0406083" lon="7.9831967"><ele>295.0</ele><time>2026-04-12T10:52:03.874Z</time></trkpt><trkpt lat="45.040745" lon="7.9831417"><ele>294.5</ele><time>2026-04-12T10:52:04.874Z</time></trkpt><trkpt lat="45.0408717" lon="7.983095"><ele>294.0</ele><time>2026-04-12T10:52:05.875Z</time></trkpt><trkpt lat="45.040995" lon="7.9830317"><ele>293.5</ele><time>2026-04-12T10:52:06.875Z</time></trkpt><trkpt lat="45.0411017" lon="7.9829283"><ele>293.0</ele><time>2026-04-12T10:52:07.875Z</time></trkpt><trkpt lat="45.0412067" lon="7.9827967"><ele>293.0</ele><time>2026-04-12T10:52:08.874Z</time></trkpt><trkpt lat="45.0413067" lon="7.98264"><ele>293.0</ele><time>2026-04-12T10:52:09.874Z</time></trkpt><trkpt lat="45.0414017" lon="7.9824817"><ele>293.0</ele><time>2026-04-12T10:52:10.874Z</time></trkpt><trkpt lat="45.0414733" lon="7.982325"><ele>293.0</ele><time>2026-04-12T10:52:11.875Z</time></trkpt><trkpt lat="45.041525" lon="7.9821583"><ele>293.5</ele><time>2026-04-12T10:52:12.874Z</time></trkpt><trkpt lat="45.0415633" lon="7.9819867"><ele>294.0</ele><time>2026-04-12T10:52:13.874Z</time></trkpt><trkpt lat="45.0415817" lon="7.9818183"><ele>294.5</ele><time>2026-04-12T10:52:14.874Z</time></trkpt><trkpt lat="45.0415817" lon="7.98163"><ele>295.0</ele><time>2026-04-12T10:52:15.875Z</time></trkpt><trkpt lat="45.0415517" lon="7.9814517"><ele>295.0</ele><time>2026-04-12T10:52:16.875Z</time></trkpt><trkpt lat="45.0415067" lon="7.9812883"><ele>295.0</ele><time>2026-04-12T10:52:17.875Z</time></trkpt><trkpt lat="45.041455" lon="7.9811133"><ele>295.0</ele><time>2026-04-12T10:52:18.875Z</time></trkpt><trkpt lat="45.041405" lon="7.980925"><ele>295.0</ele><time>2026-04-12T10:52:19.875Z</time></trkpt><trkpt lat="45.041365" lon="7.9807367"><ele>292.5</ele><time>2026-04-12T10:52:20.875Z</time></trkpt><trkpt lat="45.041325" lon="7.9805533"><ele>290.0</ele><time>2026-04-12T10:52:21.875Z</time></trkpt><trkpt lat="45.0412867" lon="7.98036"><ele>287.5</ele><time>2026-04-12T10:52:22.874Z</time></trkpt><trkpt lat="45.0412417" lon="7.980205"><ele>285.0</ele><time>2026-04-12T10:52:23.874Z</time></trkpt><trkpt lat="45.04121" lon="7.9800667"><ele>282.8333333333333</ele><time>2026-04-12T10:52:24.874Z</time></trkpt><trkpt lat="45.0411783" lon="7.979935"><ele>280.6666666666667</ele><time>2026-04-12T10:52:25.875Z</time></trkpt><trkpt lat="45.0411683" lon="7.9798183"><ele>278.5</ele><time>2026-04-12T10:52:26.874Z</time></trkpt><trkpt lat="45.0411717" lon="7.979725"><ele>276.33333333333337</ele><time>2026-04-12T10:52:27.875Z</time></trkpt><trkpt lat="45.0412217" lon="7.97961"><ele>274.1666666666667</ele><time>2026-04-12T10:52:29.875Z</time></trkpt><trkpt lat="45.0412917" lon="7.9796267"><ele>272.0</ele><time>2026-04-12T10:52:31.874Z</time></trkpt><trkpt lat="45.0413317" lon="7.9797017"><ele>272.0</ele><time>2026-04-12T10:52:32.875Z</time></trkpt><trkpt lat="45.0413633" lon="7.9798167"><ele>272.0</ele><time>2026-04-12T10:52:33.875Z</time></trkpt><trkpt lat="45.041385" lon="7.9799533"><ele>272.0</ele><time>2026-04-12T10:52:34.874Z</time></trkpt><trkpt lat="45.041395" lon="7.9800917"><ele>272.0</ele><time>2026-04-12T10:52:35.875Z</time></trkpt><trkpt lat="45.0414067" lon="7.98025"><ele>272.0</ele><time>2026-04-12T10:52:36.874Z</time></trkpt><trkpt lat="45.0414317" lon="7.9804117"><ele>275.25</ele><time>2026-04-12T10:52:37.875Z</time></trkpt><trkpt lat="45.0414567" lon="7.9805717"><ele>278.5</ele><time>2026-04-12T10:52:38.874Z</time></trkpt><trkpt lat="45.0414833" lon="7.98074"><ele>281.75</ele><time>2026-04-12T10:52:39.874Z</time></trkpt><trkpt lat="45.0415233" lon="7.9809033"><ele>285.0</ele><time>2026-04-12T10:52:40.875Z</time></trkpt><trkpt lat="45.04158" lon="7.9810667"><ele>285.0</ele><time>2026-04-12T10:52:41.874Z</time></trkpt><trkpt lat="45.04165" lon="7.9812233"><ele>285.0</ele><time>2026-04-12T10:52:42.874Z</time></trkpt><trkpt lat="45.0417183" lon="7.9813933"><ele>285.0</ele><time>2026-04-12T10:52:43.874Z</time></trkpt><trkpt lat="45.0417867" lon="7.98156"><ele>285.0</ele><time>2026-04-12T10:52:44.874Z</time></trkpt><trkpt lat="45.0418667" lon="7.9817267"><ele>285.0</ele><time>2026-04-12T10:52:45.874Z</time></trkpt><trkpt lat="45.0419417" lon="7.9819"><ele>285.0</ele><time>2026-04-12T10:52:46.874Z</time></trkpt><trkpt lat="45.041985" lon="7.9821117"><ele>285.0</ele><time>2026-04-12T10:52:47.875Z</time></trkpt><trkpt lat="45.0420583" lon="7.9823133"><ele>280.3333333333333</ele><time>2026-04-12T10:52:48.875Z</time></trkpt><trkpt lat="45.042095" lon="7.9825167"><ele>275.66666666666663</ele><time>2026-04-12T10:52:49.874Z</time></trkpt><trkpt lat="45.0420933" lon="7.9827433"><ele>271.0</ele><time>2026-04-12T10:52:50.875Z</time></trkpt><trkpt lat="45.0420767" lon="7.9829767"><ele>271.0</ele><time>2026-04-12T10:52:51.874Z</time></trkpt><trkpt lat="45.0420333" lon="7.983185"><ele>271.0</ele><time>2026-04-12T10:52:52.875Z</time></trkpt><trkpt lat="45.0419817" lon="7.9833933"><ele>271.0</ele><time>2026-04-12T10:52:53.875Z</time></trkpt><trkpt lat="45.0419083" lon="7.9836017"><ele>270.3333333333333</ele><time>2026-04-12T10:52:54.875Z</time></trkpt><trkpt lat="45.041815" lon="7.9838067"><ele>269.6666666666667</ele><time>2026-04-12T10:52:55.875Z</time></trkpt><trkpt lat="45.0417133" lon="7.984"><ele>269.0</ele><time>2026-04-12T10:52:56.874Z</time></trkpt><trkpt lat="45.0416033" lon="7.9841767"><ele>269.0</ele><time>2026-04-12T10:52:57.875Z</time></trkpt><trkpt lat="45.0414983" lon="7.98434"><ele>269.0</ele><time>2026-04-12T10:52:58.874Z</time></trkpt><trkpt lat="45.0413867" lon="7.9845317"><ele>269.0</ele><time>2026-04-12T10:52:59.875Z</time></trkpt><trkpt lat="45.04128" lon="7.98473"><ele>269.0</ele><time>2026-04-12T10:53:00.875Z</time></trkpt><trkpt lat="45.04119" lon="7.984925"><ele>269.0</ele><time>2026-04-12T10:53:01.875Z</time></trkpt><trkpt lat="45.04111" lon="7.9851217"><ele>269.0</ele><time>2026-04-12T10:53:02.875Z</time></trkpt><trkpt lat="45.0410117" lon="7.985325"><ele>267.6666666666667</ele><time>2026-04-12T10:53:03.874Z</time></trkpt><trkpt lat="45.040915" lon="7.98553"><ele>266.3333333333333</ele><time>2026-04-12T10:53:04.874Z</time></trkpt><trkpt lat="45.0408133" lon="7.98573"><ele>265.0</ele><time>2026-04-12T10:53:05.874Z</time></trkpt><trkpt lat="45.0407233" lon="7.98593"><ele>263.66666666666663</ele><time>2026-04-12T10:53:06.875Z</time></trkpt><trkpt lat="45.04063" lon="7.9861217"><ele>262.3333333333333</ele><time>2026-04-12T10:53:07.875Z</time></trkpt><trkpt lat="45.0405417" lon="7.9863133"><ele>261.0</ele><time>2026-04-12T10:53:08.874Z</time></trkpt><trkpt lat="45.04046" lon="7.986505"><ele>262.6666666666667</ele><time>2026-04-12T10:53:09.874Z</time></trkpt><trkpt lat="45.0403717" lon="7.98669"><ele>264.33333333333337</ele><time>2026-04-12T10:53:10.874Z</time></trkpt><trkpt lat="45.0402833" lon="7.9868817"><ele>266.0</ele><time>2026-04-12T10:53:11.875Z</time></trkpt><trkpt lat="45.0401867" lon="7.98706"><ele>266.0</ele><time>2026-04-12T10:53:12.874Z</time></trkpt><trkpt lat="45.0400717" lon="7.9872233"><ele>266.0</ele><time>2026-04-12T10:53:13.874Z</time></trkpt><trkpt lat="45.03995" lon="7.9873883"><ele>266.0</ele><time>2026-04-12T10:53:14.874Z</time></trkpt><trkpt lat="45.0398217" lon="7.9875233"><ele>264.6666666666667</ele><time>2026-04-12T10:53:15.874Z</time></trkpt><trkpt lat="45.0396833" lon="7.9876517"><ele>263.3333333333333</ele><time>2026-04-12T10:53:16.874Z</time></trkpt><trkpt lat="45.0395417" lon="7.9877667"><ele>262.0</ele><time>2026-04-12T10:53:17.875Z</time></trkpt><trkpt lat="45.039395" lon="7.98787"><ele>262.0</ele><time>2026-04-12T10:53:18.874Z</time></trkpt><trkpt lat="45.039255" lon="7.9879767"><ele>262.0</ele><time>2026-04-12T10:53:19.875Z</time></trkpt><trkpt lat="45.0391017" lon="7.9880583"><ele>262.0</ele><time>2026-04-12T10:53:20.874Z</time></trkpt><trkpt lat="45.0389467" lon="7.9881317"><ele>262.3333333333333</ele><time>2026-04-12T10:53:21.875Z</time></trkpt><trkpt lat="45.038795" lon="7.9882033"><ele>262.6666666666667</ele><time>2026-04-12T10:53:22.874Z</time></trkpt><trkpt lat="45.0386433" lon="7.9882683"><ele>263.0</ele><time>2026-04-12T10:53:23.874Z</time></trkpt><trkpt lat="45.0384933" lon="7.98835"><ele>263.0</ele><time>2026-04-12T10:53:24.874Z</time></trkpt><trkpt lat="45.0383533" lon="7.9884467"><ele>263.0</ele><time>2026-04-12T10:53:25.875Z</time></trkpt><trkpt lat="45.0382133" lon="7.9885717"><ele>263.0</ele><time>2026-04-12T10:53:26.875Z</time></trkpt><trkpt lat="45.0380917" lon="7.9887083"><ele>260.6666666666667</ele><time>2026-04-12T10:53:27.875Z</time></trkpt><trkpt lat="45.03797" lon="7.9888617"><ele>258.3333333333333</ele><time>2026-04-12T10:53:28.875Z</time></trkpt><trkpt lat="45.0378733" lon="7.9890367"><ele>256.0</ele><time>2026-04-12T10:53:29.875Z</time></trkpt><trkpt lat="45.0377917" lon="7.9892133"><ele>256.0</ele><time>2026-04-12T10:53:30.874Z</time></trkpt><trkpt lat="45.0377067" lon="7.9893983"><ele>256.0</ele><time>2026-04-12T10:53:31.875Z</time></trkpt><trkpt lat="45.0376417" lon="7.9895883"><ele>256.0</ele><time>2026-04-12T10:53:32.874Z</time></trkpt><trkpt lat="45.0375533" lon="7.9897767"><ele>256.0</ele><time>2026-04-12T10:53:33.875Z</time></trkpt><trkpt lat="45.0374717" lon="7.9899683"><ele>256.0</ele><time>2026-04-12T10:53:34.874Z</time></trkpt><trkpt lat="45.0373933" lon="7.9901483"><ele>256.0</ele><time>2026-04-12T10:53:35.874Z</time></trkpt><trkpt lat="45.0373067" lon="7.9903467"><ele>256.0</ele><time>2026-04-12T10:53:36.874Z</time></trkpt><trkpt lat="45.03722" lon="7.9905283"><ele>256.0</ele><time>2026-04-12T10:53:37.874Z</time></trkpt><trkpt lat="45.0371733" lon="7.9907367"><ele>256.0</ele><time>2026-04-12T10:53:38.874Z</time></trkpt><trkpt lat="45.0371617" lon="7.9909567"><ele>256.0</ele><time>2026-04-12T10:53:39.874Z</time></trkpt><trkpt lat="45.03716" lon="7.991205"><ele>256.0</ele><time>2026-04-12T10:53:40.875Z</time></trkpt><trkpt lat="45.0371983" lon="7.9914483"><ele>256.0</ele><time>2026-04-12T10:53:41.874Z</time></trkpt><trkpt lat="45.0372567" lon="7.9916633"><ele>253.66666666666666</ele><time>2026-04-12T10:53:42.874Z</time></trkpt><trkpt lat="45.0373083" lon="7.99189"><ele>251.33333333333331</ele><time>2026-04-12T10:53:43.874Z</time></trkpt><trkpt lat="45.0373567" lon="7.99212"><ele>249.0</ele><time>2026-04-12T10:53:44.874Z</time></trkpt><trkpt lat="45.0374033" lon="7.99236"><ele>248.66666666666669</ele><time>2026-04-12T10:53:45.874Z</time></trkpt><trkpt lat="45.03746" lon="7.9925933"><ele>248.33333333333334</ele><time>2026-04-12T10:53:46.875Z</time></trkpt><trkpt lat="45.0375033" lon="7.9928283"><ele>248.0</ele><time>2026-04-12T10:53:47.875Z</time></trkpt><trkpt lat="45.0375517" lon="7.99306"><ele>247.33333333333334</ele><time>2026-04-12T10:53:48.874Z</time></trkpt><trkpt lat="45.0376117" lon="7.99328"><ele>246.66666666666669</ele><time>2026-04-12T10:53:49.874Z</time></trkpt><trkpt lat="45.0376583" lon="7.9934883"><ele>246.0</ele><time>2026-04-12T10:53:50.875Z</time></trkpt><trkpt lat="45.0377067" lon="7.99369"><ele>245.75</ele><time>2026-04-12T10:53:51.874Z</time></trkpt><trkpt lat="45.0377483" lon="7.9938733"><ele>245.5</ele><time>2026-04-12T10:53:52.874Z</time></trkpt><trkpt lat="45.03778" lon="7.9940383"><ele>245.25</ele><time>2026-04-12T10:53:53.874Z</time></trkpt><trkpt lat="45.0378083" lon="7.9941833"><ele>245.0</ele><time>2026-04-12T10:53:54.875Z</time></trkpt><trkpt lat="45.0378417" lon="7.994315"><ele>244.6</ele><time>2026-04-12T10:53:55.874Z</time></trkpt><trkpt lat="45.0378833" lon="7.994425"><ele>244.2</ele><time>2026-04-12T10:53:56.874Z</time></trkpt><trkpt lat="45.0379717" lon="7.9945233"><ele>243.8</ele><time>2026-04-12T10:53:58.874Z</time></trkpt><trkpt lat="45.0380833" lon="7.994445"><ele>243.4</ele><time>2026-04-12T10:54:00.875Z</time></trkpt><trkpt lat="45.0381267" lon="7.9943583"><ele>243.0</ele><time>2026-04-12T10:54:01.875Z</time></trkpt><trkpt lat="45.0381917" lon="7.9942283"><ele>243.5</ele><time>2026-04-12T10:54:02.874Z</time></trkpt><trkpt lat="45.0382517" lon="7.9940867"><ele>244.0</ele><time>2026-04-12T10:54:03.875Z</time></trkpt><trkpt lat="45.0383183" lon="7.9939683"><ele>244.5</ele><time>2026-04-12T10:54:04.875Z</time></trkpt><trkpt lat="45.0383983" lon="7.9938383"><ele>245.0</ele><time>2026-04-12T10:54:05.874Z</time></trkpt><trkpt lat="45.0384867" lon="7.9936933"><ele>246.0</ele><time>2026-04-12T10:54:06.874Z</time></trkpt><trkpt lat="45.0385783" lon="7.99357"><ele>247.0</ele><time>2026-04-12T10:54:07.875Z</time></trkpt><trkpt lat="45.0386767" lon="7.9934233"><ele>248.0</ele><time>2026-04-12T10:54:08.874Z</time></trkpt><trkpt lat="45.038775" lon="7.9932767"><ele>249.0</ele><time>2026-04-12T10:54:09.874Z</time></trkpt><trkpt lat="45.0388883" lon="7.993135"><ele>249.0</ele><time>2026-04-12T10:54:10.874Z</time></trkpt><trkpt lat="45.0390067" lon="7.9930067"><ele>249.0</ele><time>2026-04-12T10:54:11.874Z</time></trkpt><trkpt lat="45.0391317" lon="7.99289"><ele>249.0</ele><time>2026-04-12T10:54:12.874Z</time></trkpt><trkpt lat="45.0392583" lon="7.9927667"><ele>250.33333333333331</ele><time>2026-04-12T10:54:13.875Z</time></trkpt><trkpt lat="45.0393867" lon="7.9926383"><ele>251.66666666666666</ele><time>2026-04-12T10:54:14.875Z</time></trkpt><trkpt lat="45.0394983" lon="7.9924967"><ele>253.0</ele><time>2026-04-12T10:54:15.875Z</time></trkpt><trkpt lat="45.0396217" lon="7.992365"><ele>253.0</ele><time>2026-04-12T10:54:16.874Z</time></trkpt><trkpt lat="45.0397367" lon="7.99223"><ele>253.0</ele><time>2026-04-12T10:54:17.875Z</time></trkpt><trkpt lat="45.0398533" lon="7.992085"><ele>253.0</ele><time>2026-04-12T10:54:18.875Z</time></trkpt><trkpt lat="45.0399583" lon="7.9919383"><ele>254.0</ele><time>2026-04-12T10:54:19.875Z</time></trkpt><trkpt lat="45.040075" lon="7.9918033"><ele>255.0</ele><time>2026-04-12T10:54:20.874Z</time></trkpt><trkpt lat="45.0401867" lon="7.991675"><ele>256.0</ele><time>2026-04-12T10:54:21.874Z</time></trkpt><trkpt lat="45.0403117" lon="7.9915833"><ele>257.0</ele><time>2026-04-12T10:54:22.874Z</time></trkpt><trkpt lat="45.0404467" lon="7.9915033"><ele>257.0</ele><time>2026-04-12T10:54:23.875Z</time></trkpt><trkpt lat="45.04058" lon="7.99142"><ele>257.0</ele><time>2026-04-12T10:54:24.874Z</time></trkpt><trkpt lat="45.0407067" lon="7.9913483"><ele>257.0</ele><time>2026-04-12T10:54:25.874Z</time></trkpt><trkpt lat="45.0408383" lon="7.991275"><ele>257.0</ele><time>2026-04-12T10:54:26.875Z</time></trkpt><trkpt lat="45.0409767" lon="7.9912167"><ele>260.0</ele><time>2026-04-12T10:54:27.874Z</time></trkpt><trkpt lat="45.041115" lon="7.9911667"><ele>263.0</ele><time>2026-04-12T10:54:28.874Z</time></trkpt><trkpt lat="45.0412517" lon="7.99112"><ele>266.0</ele><time>2026-04-12T10:54:29.875Z</time></trkpt><trkpt lat="45.04139" lon="7.9910733"><ele>269.0</ele><time>2026-04-12T10:54:30.875Z</time></trkpt><trkpt lat="45.0415317" lon="7.991045"><ele>270.75</ele><time>2026-04-12T10:54:31.875Z</time></trkpt><trkpt lat="45.041665" lon="7.9910167"><ele>272.5</ele><time>2026-04-12T10:54:32.874Z</time></trkpt><trkpt lat="45.0418" lon="7.99101"><ele>274.25</ele><time>2026-04-12T10:54:33.875Z</time></trkpt><trkpt lat="45.0419333" lon="7.9910283"><ele>276.0</ele><time>2026-04-12T10:54:34.875Z</time></trkpt><trkpt lat="45.042075" lon="7.9910417"><ele>276.0</ele><time>2026-04-12T10:54:35.875Z</time></trkpt><trkpt lat="45.04222" lon="7.99105"><ele>276.0</ele><time>2026-04-12T10:54:36.875Z</time></trkpt><trkpt lat="45.0423567" lon="7.99105"><ele>276.0</ele><time>2026-04-12T10:54:37.875Z</time></trkpt><trkpt lat="45.0424667" lon="7.9909867"><ele>276.0</ele><time>2026-04-12T10:54:38.875Z</time></trkpt><trkpt lat="45.0425917" lon="7.99088"><ele>272.0</ele><time>2026-04-12T10:54:39.874Z</time></trkpt><trkpt lat="45.0427083" lon="7.9907617"><ele>268.0</ele><time>2026-04-12T10:54:40.874Z</time></trkpt><trkpt lat="45.0428367" lon="7.990635"><ele>264.0</ele><time>2026-04-12T10:54:41.874Z</time></trkpt><trkpt lat="45.0429667" lon="7.9905"><ele>264.0</ele><time>2026-04-12T10:54:42.875Z</time></trkpt><trkpt lat="45.0431" lon="7.990365"><ele>264.0</ele><time>2026-04-12T10:54:43.874Z</time></trkpt><trkpt lat="45.0432267" lon="7.9902433"><ele>264.0</ele><time>2026-04-12T10:54:44.875Z</time></trkpt><trkpt lat="45.0433583" lon="7.9901233"><ele>264.3333333333333</ele><time>2026-04-12T10:54:45.875Z</time></trkpt><trkpt lat="45.0434933" lon="7.9900083"><ele>264.66666666666663</ele><time>2026-04-12T10:54:46.875Z</time></trkpt><trkpt lat="45.0436283" lon="7.9898917"><ele>265.0</ele><time>2026-04-12T10:54:47.875Z</time></trkpt><trkpt lat="45.0437633" lon="7.98978"><ele>265.0</ele><time>2026-04-12T10:54:48.874Z</time></trkpt><trkpt lat="45.0439067" lon="7.9896817"><ele>265.0</ele><time>2026-04-12T10:54:49.875Z</time></trkpt><trkpt lat="45.0440483" lon="7.9896083"><ele>265.0</ele><time>2026-04-12T10:54:50.875Z</time></trkpt><trkpt lat="45.0441917" lon="7.9895567"><ele>266.75</ele><time>2026-04-12T10:54:51.875Z</time></trkpt><trkpt lat="45.0443317" lon="7.9895167"><ele>268.5</ele><time>2026-04-12T10:54:52.875Z</time></trkpt><trkpt lat="45.0444717" lon="7.989505"><ele>270.25</ele><time>2026-04-12T10:54:53.874Z</time></trkpt><trkpt lat="45.04461" lon="7.9894917"><ele>272.0</ele><time>2026-04-12T10:54:54.875Z</time></trkpt><trkpt lat="45.0447533" lon="7.9894567"><ele>272.0</ele><time>2026-04-12T10:54:55.874Z</time></trkpt><trkpt lat="45.04489" lon="7.9893683"><ele>272.0</ele><time>2026-04-12T10:54:56.874Z</time></trkpt><trkpt lat="45.0450133" lon="7.9892567"><ele>272.0</ele><time>2026-04-12T10:54:57.874Z</time></trkpt><trkpt lat="45.0451333" lon="7.9891233"><ele>272.0</ele><time>2026-04-12T10:54:58.874Z</time></trkpt><trkpt lat="45.0452433" lon="7.98899"><ele>273.25</ele><time>2026-04-12T10:54:59.874Z</time></trkpt><trkpt lat="45.0453533" lon="7.9888533"><ele>274.5</ele><time>2026-04-12T10:55:00.874Z</time></trkpt><trkpt lat="45.0454683" lon="7.988735"><ele>275.75</ele><time>2026-04-12T10:55:01.875Z</time></trkpt><trkpt lat="45.0456033" lon="7.9886217"><ele>277.0</ele><time>2026-04-12T10:55:02.874Z</time></trkpt><trkpt lat="45.0457333" lon="7.988515"><ele>279.3333333333333</ele><time>2026-04-12T10:55:03.875Z</time></trkpt><trkpt lat="45.0458683" lon="7.9884233"><ele>281.6666666666667</ele><time>2026-04-12T10:55:04.874Z</time></trkpt><trkpt lat="45.0460067" lon="7.9883533"><ele>284.0</ele><time>2026-04-12T10:55:05.874Z</time></trkpt><trkpt lat="45.046155" lon="7.988285"><ele>284.0</ele><time>2026-04-12T10:55:06.875Z</time></trkpt><trkpt lat="45.046305" lon="7.9882483"><ele>284.0</ele><time>2026-04-12T10:55:07.875Z</time></trkpt><trkpt lat="45.0464533" lon="7.9882283"><ele>284.0</ele><time>2026-04-12T10:55:08.875Z</time></trkpt><trkpt lat="45.0466" lon="7.988205"><ele>284.0</ele><time>2026-04-12T10:55:09.875Z</time></trkpt><trkpt lat="45.0467567" lon="7.9881917"><ele>288.0</ele><time>2026-04-12T10:55:10.874Z</time></trkpt><trkpt lat="45.046905" lon="7.9881783"><ele>292.0</ele><time>2026-04-12T10:55:11.874Z</time></trkpt><trkpt lat="45.0470617" lon="7.9881733"><ele>296.0</ele><time>2026-04-12T10:55:12.875Z</time></trkpt><trkpt lat="45.0472183" lon="7.98817"><ele>296.0</ele><time>2026-04-12T10:55:13.875Z</time></trkpt><trkpt lat="45.0473683" lon="7.9881717"><ele>296.0</ele><time>2026-04-12T10:55:14.875Z</time></trkpt><trkpt lat="45.047535" lon="7.988175"><ele>296.0</ele><time>2026-04-12T10:55:15.874Z</time></trkpt><trkpt lat="45.0476933" lon="7.9881533"><ele>297.0</ele><time>2026-04-12T10:55:16.874Z</time></trkpt><trkpt lat="45.04788" lon="7.9881817"><ele>298.0</ele><time>2026-04-12T10:55:17.874Z</time></trkpt><trkpt lat="45.0480417" lon="7.98816"><ele>299.0</ele><time>2026-04-12T10:55:18.874Z</time></trkpt><trkpt lat="45.0481767" lon="7.9880983"><ele>299.6666666666667</ele><time>2026-04-12T10:55:19.875Z</time></trkpt><trkpt lat="45.0483183" lon="7.9880033"><ele>300.3333333333333</ele><time>2026-04-12T10:55:20.874Z</time></trkpt><trkpt lat="45.0484667" lon="7.9878817"><ele>301.0</ele><time>2026-04-12T10:55:21.874Z</time></trkpt><trkpt lat="45.0486133" lon="7.9877533"><ele>301.0</ele><time>2026-04-12T10:55:22.874Z</time></trkpt><trkpt lat="45.04875" lon="7.987625"><ele>301.0</ele><time>2026-04-12T10:55:23.874Z</time></trkpt><trkpt lat="45.0488767" lon="7.9875"><ele>301.0</ele><time>2026-04-12T10:55:24.875Z</time></trkpt><trkpt lat="45.0490133" lon="7.9873817"><ele>304.3333333333333</ele><time>2026-04-12T10:55:25.874Z</time></trkpt><trkpt lat="45.0491567" lon="7.98727"><ele>307.6666666666667</ele><time>2026-04-12T10:55:26.874Z</time></trkpt><trkpt lat="45.0493033" lon="7.98718"><ele>311.0</ele><time>2026-04-12T10:55:27.875Z</time></trkpt><trkpt lat="45.0494467" lon="7.9871067"><ele>311.0</ele><time>2026-04-12T10:55:28.875Z</time></trkpt><trkpt lat="45.0495917" lon="7.9870467"><ele>311.0</ele><time>2026-04-12T10:55:29.874Z</time></trkpt><trkpt lat="45.0497483" lon="7.9870183"><ele>311.0</ele><time>2026-04-12T10:55:30.875Z</time></trkpt><trkpt lat="45.0499017" lon="7.9869967"><ele>313.0</ele><time>2026-04-12T10:55:31.874Z</time></trkpt><trkpt lat="45.0500633" lon="7.9869817"><ele>315.0</ele><time>2026-04-12T10:55:32.875Z</time></trkpt><trkpt lat="45.0502217" lon="7.986965"><ele>317.0</ele><time>2026-04-12T10:55:33.874Z</time></trkpt><trkpt lat="45.0503817" lon="7.98695"><ele>317.0</ele><time>2026-04-12T10:55:34.875Z</time></trkpt><trkpt lat="45.05054" lon="7.9869333"><ele>317.0</ele><time>2026-04-12T10:55:35.874Z</time></trkpt><trkpt lat="45.0507033" lon="7.9869167"><ele>317.0</ele><time>2026-04-12T10:55:36.874Z</time></trkpt><trkpt lat="45.050865" lon="7.9868917"><ele>318.0</ele><time>2026-04-12T10:55:37.874Z</time></trkpt><trkpt lat="45.0510267" lon="7.9868817"><ele>319.0</ele><time>2026-04-12T10:55:38.875Z</time></trkpt><trkpt lat="45.0511733" lon="7.986865"><ele>320.0</ele><time>2026-04-12T10:55:39.875Z</time></trkpt><trkpt lat="45.051325" lon="7.9868517"><ele>320.0</ele><time>2026-04-12T10:55:40.875Z</time></trkpt><trkpt lat="45.0514683" lon="7.9868367"><ele>320.0</ele><time>2026-04-12T10:55:41.874Z</time></trkpt><trkpt lat="45.0516083" lon="7.9868233"><ele>320.0</ele><time>2026-04-12T10:55:42.874Z</time></trkpt><trkpt lat="45.0517583" lon="7.9868033"><ele>320.0</ele><time>2026-04-12T10:55:43.875Z</time></trkpt><trkpt lat="45.0519017" lon="7.98678"><ele>321.25</ele><time>2026-04-12T10:55:44.874Z</time></trkpt><trkpt lat="45.0520467" lon="7.9867633"><ele>322.5</ele><time>2026-04-12T10:55:45.875Z</time></trkpt><trkpt lat="45.05219" lon="7.9867483"><ele>323.75</ele><time>2026-04-12T10:55:46.874Z</time></trkpt><trkpt lat="45.05233" lon="7.9867317"><ele>325.0</ele><time>2026-04-12T10:55:47.875Z</time></trkpt><trkpt lat="45.05248" lon="7.9867133"><ele>328.5</ele><time>2026-04-12T10:55:48.874Z</time></trkpt><trkpt lat="45.0526217" lon="7.9866983"><ele>332.0</ele><time>2026-04-12T10:55:49.874Z</time></trkpt><trkpt lat="45.052775" lon="7.9866783"><ele>335.5</ele><time>2026-04-12T10:55:50.875Z</time></trkpt><trkpt lat="45.0529133" lon="7.9866617"><ele>339.0</ele><time>2026-04-12T10:55:51.874Z</time></trkpt><trkpt lat="45.053055" lon="7.9866467"><ele>339.0</ele><time>2026-04-12T10:55:52.874Z</time></trkpt><trkpt lat="45.0532017" lon="7.9866383"><ele>339.0</ele><time>2026-04-12T10:55:53.875Z</time></trkpt><trkpt lat="45.0533567" lon="7.9866283"><ele>339.0</ele><time>2026-04-12T10:55:54.874Z</time></trkpt><trkpt lat="45.0535133" lon="7.98661"><ele>341.75</ele><time>2026-04-12T10:55:55.874Z</time></trkpt><trkpt lat="45.053655" lon="7.986605"><ele>344.5</ele><time>2026-04-12T10:55:56.874Z</time></trkpt><trkpt lat="45.053805" lon="7.9865933"><ele>347.25</ele><time>2026-04-12T10:55:57.874Z</time></trkpt><trkpt lat="45.0539583" lon="7.9865733"><ele>350.0</ele><time>2026-04-12T10:55:58.874Z</time></trkpt><trkpt lat="45.0541133" lon="7.9865533"><ele>350.75</ele><time>2026-04-12T10:55:59.875Z</time></trkpt><trkpt lat="45.0542367" lon="7.98655"><ele>351.5</ele><time>2026-04-12T10:56:00.874Z</time></trkpt><trkpt lat="45.05436" lon="7.986535"><ele>352.25</ele><time>2026-04-12T10:56:01.874Z</time></trkpt><trkpt lat="45.0544717" lon="7.9865"><ele>353.0</ele><time>2026-04-12T10:56:02.874Z</time></trkpt><trkpt lat="45.054585" lon="7.9864567"><ele>353.0</ele><time>2026-04-12T10:56:03.874Z</time></trkpt><trkpt lat="45.0546983" lon="7.9864"><ele>353.0</ele><time>2026-04-12T10:56:04.874Z</time></trkpt><trkpt lat="45.054825" lon="7.986335"><ele>353.0</ele><time>2026-04-12T10:56:05.875Z</time></trkpt><trkpt lat="45.0549283" lon="7.98625"><ele>353.0</ele><time>2026-04-12T10:56:06.874Z</time></trkpt><trkpt lat="45.0550283" lon="7.9861583"><ele>354.4</ele><time>2026-04-12T10:56:07.874Z</time></trkpt><trkpt lat="45.0551183" lon="7.986085"><ele>355.79999999999995</ele><time>2026-04-12T10:56:08.875Z</time></trkpt><trkpt lat="45.05521" lon="7.98603"><ele>357.2</ele><time>2026-04-12T10:56:09.874Z</time></trkpt><trkpt lat="45.0553033" lon="7.9859883"><ele>358.6</ele><time>2026-04-12T10:56:10.874Z</time></trkpt><trkpt lat="45.0554033" lon="7.98594"><ele>360.0</ele><time>2026-04-12T10:56:11.875Z</time></trkpt><trkpt lat="45.0555017" lon="7.9858783"><ele>360.5</ele><time>2026-04-12T10:56:12.874Z</time></trkpt><trkpt lat="45.05561" lon="7.9858217"><ele>361.0</ele><time>2026-04-12T10:56:13.875Z</time></trkpt><trkpt lat="45.05571" lon="7.9857317"><ele>361.5</ele><time>2026-04-12T10:56:14.874Z</time></trkpt><trkpt lat="45.0558067" lon="7.985645"><ele>362.0</ele><time>2026-04-12T10:56:15.875Z</time></trkpt><trkpt lat="45.0558967" lon="7.98553"><ele>362.0</ele><time>2026-04-12T10:56:16.874Z</time></trkpt><trkpt lat="45.05599" lon="7.9854317"><ele>362.0</ele><time>2026-04-12T10:56:17.874Z</time></trkpt><trkpt lat="45.0560767" lon="7.9853483"><ele>362.0</ele><time>2026-04-12T10:56:18.874Z</time></trkpt><trkpt lat="45.05617" lon="7.9852967"><ele>362.0</ele><time>2026-04-12T10:56:19.874Z</time></trkpt><trkpt lat="45.056285" lon="7.985285"><ele>362.0</ele><time>2026-04-12T10:56:20.874Z</time></trkpt><trkpt lat="45.0563933" lon="7.9852683"><ele>362.0</ele><time>2026-04-12T10:56:21.875Z</time></trkpt><trkpt lat="45.0565" lon="7.9852483"><ele>362.0</ele><time>2026-04-12T10:56:22.874Z</time></trkpt><trkpt lat="45.0566017" lon="7.9852283"><ele>362.0</ele><time>2026-04-12T10:56:23.875Z</time></trkpt><trkpt lat="45.056705" lon="7.9852167"><ele>362.0</ele><time>2026-04-12T10:56:24.875Z</time></trkpt><trkpt lat="45.0568217" lon="7.9851967"><ele>362.0</ele><time>2026-04-12T10:56:25.875Z</time></trkpt><trkpt lat="45.056925" lon="7.9851833"><ele>365.20000000000005</ele><time>2026-04-12T10:56:26.874Z</time></trkpt><trkpt lat="45.057025" lon="7.9851783"><ele>368.4</ele><time>2026-04-12T10:56:27.875Z</time></trkpt><trkpt lat="45.0571233" lon="7.9851967"><ele>371.6</ele><time>2026-04-12T10:56:28.874Z</time></trkpt><trkpt lat="45.0572067" lon="7.985245"><ele>374.79999999999995</ele><time>2026-04-12T10:56:29.875Z</time></trkpt><trkpt lat="45.0572967" lon="7.9852883"><ele>378.0</ele><time>2026-04-12T10:56:30.874Z</time></trkpt><trkpt lat="45.057395" lon="7.985335"><ele>380.0</ele><time>2026-04-12T10:56:31.875Z</time></trkpt><trkpt lat="45.0574967" lon="7.9853683"><ele>382.0</ele><time>2026-04-12T10:56:32.874Z</time></trkpt><trkpt lat="45.057595" lon="7.985405"><ele>384.0</ele><time>2026-04-12T10:56:33.874Z</time></trkpt><trkpt lat="45.0576917" lon="7.9854267"><ele>386.0</ele><time>2026-04-12T10:56:34.875Z</time></trkpt><trkpt lat="45.0577817" lon="7.985445"><ele>388.0</ele><time>2026-04-12T10:56:35.874Z</time></trkpt><trkpt lat="45.0578667" lon="7.985425"><ele>388.0</ele><time>2026-04-12T10:56:36.875Z</time></trkpt><trkpt lat="45.0579417" lon="7.9853867"><ele>388.0</ele><time>2026-04-12T10:56:37.874Z</time></trkpt><trkpt lat="45.0579983" lon="7.98532"><ele>388.0</ele><time>2026-04-12T10:56:38.875Z</time></trkpt><trkpt lat="45.0580383" lon="7.9851933"><ele>388.0</ele><time>2026-04-12T10:56:39.875Z</time></trkpt><trkpt lat="45.058035" lon="7.9850083"><ele>388.0</ele><time>2026-04-12T10:56:40.874Z</time></trkpt><trkpt lat="45.0580067" lon="7.9848367"><ele>385.6666666666667</ele><time>2026-04-12T10:56:41.874Z</time></trkpt><trkpt lat="45.0579883" lon="7.984705"><ele>383.33333333333337</ele><time>2026-04-12T10:56:42.875Z</time></trkpt><trkpt lat="45.0579767" lon="7.9845917"><ele>381.0</ele><time>2026-04-12T10:56:43.875Z</time></trkpt><trkpt lat="45.05796" lon="7.9844833"><ele>378.6666666666667</ele><time>2026-04-12T10:56:44.875Z</time></trkpt><trkpt lat="45.0579467" lon="7.9843817"><ele>376.33333333333337</ele><time>2026-04-12T10:56:45.874Z</time></trkpt><trkpt lat="45.0579617" lon="7.9842817"><ele>374.0</ele><time>2026-04-12T10:56:46.875Z</time></trkpt><trkpt lat="45.05798" lon="7.984185"><ele>374.33333333333337</ele><time>2026-04-12T10:56:47.875Z</time></trkpt><trkpt lat="45.0580167" lon="7.98411"><ele>374.6666666666667</ele><time>2026-04-12T10:56:48.874Z</time></trkpt><trkpt lat="45.0580783" lon="7.9840467"><ele>375.0</ele><time>2026-04-12T10:56:49.874Z</time></trkpt><trkpt lat="45.0581583" lon="7.98401"><ele>375.3333333333333</ele><time>2026-04-12T10:56:50.874Z</time></trkpt><trkpt lat="45.0582617" lon="7.9840033"><ele>375.66666666666663</ele><time>2026-04-12T10:56:51.874Z</time></trkpt><trkpt lat="45.0583667" lon="7.984025"><ele>376.0</ele><time>2026-04-12T10:56:52.875Z</time></trkpt><trkpt lat="45.0584733" lon="7.9840633"><ele>378.25</ele><time>2026-04-12T10:56:53.874Z</time></trkpt><trkpt lat="45.0585833" lon="7.9841133"><ele>380.5</ele><time>2026-04-12T10:56:54.875Z</time></trkpt><trkpt lat="45.0587033" lon="7.984165"><ele>382.75</ele><time>2026-04-12T10:56:55.874Z</time></trkpt><trkpt lat="45.058825" lon="7.984215"><ele>385.0</ele><time>2026-04-12T10:56:56.874Z</time></trkpt><trkpt lat="45.0589383" lon="7.9842683"><ele>387.2</ele><time>2026-04-12T10:56:57.874Z</time></trkpt><trkpt lat="45.059035" lon="7.9843167"><ele>389.4</ele><time>2026-04-12T10:56:58.875Z</time></trkpt><trkpt lat="45.0591517" lon="7.9843433"><ele>391.6</ele><time>2026-04-12T10:56:59.875Z</time></trkpt><trkpt lat="45.0592567" lon="7.9843567"><ele>393.8</ele><time>2026-04-12T10:57:00.874Z</time></trkpt><trkpt lat="45.0593683" lon="7.9843433"><ele>396.0</ele><time>2026-04-12T10:57:01.874Z</time></trkpt><trkpt lat="45.0594817" lon="7.9843183"><ele>397.0</ele><time>2026-04-12T10:57:02.874Z</time></trkpt><trkpt lat="45.0596083" lon="7.9842617"><ele>398.0</ele><time>2026-04-12T10:57:03.874Z</time></trkpt><trkpt lat="45.0597317" lon="7.984195"><ele>399.0</ele><time>2026-04-12T10:57:04.874Z</time></trkpt><trkpt lat="45.0598567" lon="7.9841283"><ele>400.0</ele><time>2026-04-12T10:57:05.875Z</time></trkpt><trkpt lat="45.0599717" lon="7.984055"><ele>394.0</ele><time>2026-04-12T10:57:06.874Z</time></trkpt><trkpt lat="45.0600867" lon="7.983975"><ele>388.0</ele><time>2026-04-12T10:57:07.874Z</time></trkpt><trkpt lat="45.060195" lon="7.98391"><ele>382.0</ele><time>2026-04-12T10:57:08.874Z</time></trkpt><trkpt lat="45.0603183" lon="7.9838733"><ele>376.0</ele><time>2026-04-12T10:57:09.874Z</time></trkpt><trkpt lat="45.0604433" lon="7.98388"><ele>376.0</ele><time>2026-04-12T10:57:10.874Z</time></trkpt><trkpt lat="45.0605633" lon="7.983895"><ele>376.0</ele><time>2026-04-12T10:57:11.874Z</time></trkpt><trkpt lat="45.060685" lon="7.9839133"><ele>376.0</ele><time>2026-04-12T10:57:12.875Z</time></trkpt><trkpt lat="45.0608167" lon="7.983935"><ele>376.0</ele><time>2026-04-12T10:57:13.874Z</time></trkpt><trkpt lat="45.06095" lon="7.983965"><ele>375.0</ele><time>2026-04-12T10:57:14.874Z</time></trkpt><trkpt lat="45.06107" lon="7.9839933"><ele>374.0</ele><time>2026-04-12T10:57:15.875Z</time></trkpt><trkpt lat="45.0611733" lon="7.9840283"><ele>373.0</ele><time>2026-04-12T10:57:16.875Z</time></trkpt><trkpt lat="45.0612817" lon="7.9840683"><ele>372.0</ele><time>2026-04-12T10:57:17.874Z</time></trkpt><trkpt lat="45.0613867" lon="7.9841183"><ele>372.25</ele><time>2026-04-12T10:57:18.874Z</time></trkpt><trkpt lat="45.0614883" lon="7.98418"><ele>372.5</ele><time>2026-04-12T10:57:19.875Z</time></trkpt><trkpt lat="45.061595" lon="7.9842067"><ele>372.75</ele><time>2026-04-12T10:57:20.874Z</time></trkpt><trkpt lat="45.0617017" lon="7.9841683"><ele>373.0</ele><time>2026-04-12T10:57:21.875Z</time></trkpt><trkpt lat="45.0618067" lon="7.98408"><ele>371.0</ele><time>2026-04-12T10:57:22.874Z</time></trkpt><trkpt lat="45.0619133" lon="7.9839683"><ele>369.0</ele><time>2026-04-12T10:57:23.875Z</time></trkpt><trkpt lat="45.062025" lon="7.9838667"><ele>367.0</ele><time>2026-04-12T10:57:24.875Z</time></trkpt><trkpt lat="45.06214" lon="7.98377"><ele>365.0</ele><time>2026-04-12T10:57:25.874Z</time></trkpt><trkpt lat="45.0622433" lon="7.9836617"><ele>365.0</ele><time>2026-04-12T10:57:26.875Z</time></trkpt><trkpt lat="45.06234" lon="7.9835433"><ele>365.0</ele><time>2026-04-12T10:57:27.874Z</time></trkpt><trkpt lat="45.0624383" lon="7.9834083"><ele>365.0</ele><time>2026-04-12T10:57:28.875Z</time></trkpt><trkpt lat="45.06254" lon="7.983265"><ele>365.0</ele><time>2026-04-12T10:57:29.874Z</time></trkpt><trkpt lat="45.0626433" lon="7.9831333"><ele>365.0</ele><time>2026-04-12T10:57:30.875Z</time></trkpt><trkpt lat="45.0627517" lon="7.982995"><ele>365.0</ele><time>2026-04-12T10:57:31.874Z</time></trkpt><trkpt lat="45.0628633" lon="7.982855"><ele>365.0</ele><time>2026-04-12T10:57:32.874Z</time></trkpt><trkpt lat="45.0629767" lon="7.9827183"><ele>365.0</ele><time>2026-04-12T10:57:33.874Z</time></trkpt><trkpt lat="45.0630917" lon="7.9825783"><ele>365.33333333333337</ele><time>2026-04-12T10:57:34.874Z</time></trkpt><trkpt lat="45.0632083" lon="7.9824433"><ele>365.6666666666667</ele><time>2026-04-12T10:57:35.875Z</time></trkpt><trkpt lat="45.0633217" lon="7.9823033"><ele>366.0</ele><time>2026-04-12T10:57:36.874Z</time></trkpt><trkpt lat="45.0634367" lon="7.9821567"><ele>367.5</ele><time>2026-04-12T10:57:37.874Z</time></trkpt><trkpt lat="45.0635367" lon="7.982005"><ele>369.0</ele><time>2026-04-12T10:57:38.875Z</time></trkpt><trkpt lat="45.063625" lon="7.98185"><ele>370.5</ele><time>2026-04-12T10:57:39.875Z</time></trkpt><trkpt lat="45.0637" lon="7.98168"><ele>372.0</ele><time>2026-04-12T10:57:40.874Z</time></trkpt><trkpt lat="45.0637567" lon="7.9814967"><ele>372.25</ele><time>2026-04-12T10:57:41.874Z</time></trkpt><trkpt lat="45.0638183" lon="7.981325"><ele>372.5</ele><time>2026-04-12T10:57:42.874Z</time></trkpt><trkpt lat="45.0639017" lon="7.981175"><ele>372.75</ele><time>2026-04-12T10:57:43.874Z</time></trkpt><trkpt lat="45.0640167" lon="7.9810733"><ele>373.0</ele><time>2026-04-12T10:57:44.875Z</time></trkpt><trkpt lat="45.06415" lon="7.981005"><ele>374.0</ele><time>2026-04-12T10:57:45.874Z</time></trkpt><trkpt lat="45.0642983" lon="7.98095"><ele>375.0</ele><time>2026-04-12T10:57:46.874Z</time></trkpt><trkpt lat="45.06444" lon="7.98088"><ele>376.0</ele><time>2026-04-12T10:57:47.874Z</time></trkpt><trkpt lat="45.06459" lon="7.98078"><ele>376.0</ele><time>2026-04-12T10:57:48.874Z</time></trkpt><trkpt lat="45.0647217" lon="7.98067"><ele>376.0</ele><time>2026-04-12T10:57:49.874Z</time></trkpt><trkpt lat="45.06486" lon="7.9805467"><ele>376.0</ele><time>2026-04-12T10:57:50.874Z</time></trkpt><trkpt lat="45.0649783" lon="7.98042"><ele>376.25</ele><time>2026-04-12T10:57:51.875Z</time></trkpt><trkpt lat="45.0650917" lon="7.9802717"><ele>376.5</ele><time>2026-04-12T10:57:52.874Z</time></trkpt><trkpt lat="45.065205" lon="7.9801317"><ele>376.75</ele><time>2026-04-12T10:57:53.875Z</time></trkpt><trkpt lat="45.0653083" lon="7.9799933"><ele>377.0</ele><time>2026-04-12T10:57:54.874Z</time></trkpt><trkpt lat="45.0654" lon="7.9798517"><ele>377.0</ele><time>2026-04-12T10:57:55.875Z</time></trkpt><trkpt lat="45.0654917" lon="7.9797117"><ele>377.0</ele><time>2026-04-12T10:57:56.875Z</time></trkpt><trkpt lat="45.06559" lon="7.9795633"><ele>377.0</ele><time>2026-04-12T10:57:57.874Z</time></trkpt><trkpt lat="45.06568" lon="7.9794133"><ele>377.0</ele><time>2026-04-12T10:57:58.874Z</time></trkpt><trkpt lat="45.065785" lon="7.9792617"><ele>380.0</ele><time>2026-04-12T10:57:59.874Z</time></trkpt><trkpt lat="45.0658867" lon="7.979105"><ele>383.0</ele><time>2026-04-12T10:58:00.875Z</time></trkpt><trkpt lat="45.0659833" lon="7.97894"><ele>386.0</ele><time>2026-04-12T10:58:01.874Z</time></trkpt><trkpt lat="45.066085" lon="7.9787583"><ele>386.0</ele><time>2026-04-12T10:58:02.875Z</time></trkpt><trkpt lat="45.066185" lon="7.978595"><ele>386.0</ele><time>2026-04-12T10:58:03.874Z</time></trkpt><trkpt lat="45.0662933" lon="7.978435"><ele>386.0</ele><time>2026-04-12T10:58:04.875Z</time></trkpt><trkpt lat="45.0664033" lon="7.978285"><ele>385.66666666666663</ele><time>2026-04-12T10:58:05.874Z</time></trkpt><trkpt lat="45.0665183" lon="7.978135"><ele>385.33333333333337</ele><time>2026-04-12T10:58:06.874Z</time></trkpt><trkpt lat="45.0666367" lon="7.9779883"><ele>385.0</ele><time>2026-04-12T10:58:07.875Z</time></trkpt><trkpt lat="45.06675" lon="7.9778217"><ele>384.0</ele><time>2026-04-12T10:58:08.874Z</time></trkpt><trkpt lat="45.06686" lon="7.9776567"><ele>383.0</ele><time>2026-04-12T10:58:09.875Z</time></trkpt><trkpt lat="45.0669767" lon="7.9774867"><ele>382.0</ele><time>2026-04-12T10:58:10.874Z</time></trkpt><trkpt lat="45.0670933" lon="7.9773233"><ele>384.3333333333333</ele><time>2026-04-12T10:58:11.874Z</time></trkpt><trkpt lat="45.06721" lon="7.9771567"><ele>386.66666666666663</ele><time>2026-04-12T10:58:12.875Z</time></trkpt><trkpt lat="45.067315" lon="7.9769917"><ele>389.0</ele><time>2026-04-12T10:58:13.875Z</time></trkpt><trkpt lat="45.06742" lon="7.976835"><ele>391.0</ele><time>2026-04-12T10:58:14.875Z</time></trkpt><trkpt lat="45.0675067" lon="7.9766583"><ele>393.0</ele><time>2026-04-12T10:58:15.875Z</time></trkpt><trkpt lat="45.06758" lon="7.9764683"><ele>395.0</ele><time>2026-04-12T10:58:16.874Z</time></trkpt><trkpt lat="45.06765" lon="7.9762733"><ele>395.0</ele><time>2026-04-12T10:58:17.874Z</time></trkpt><trkpt lat="45.0677133" lon="7.9760817"><ele>395.0</ele><time>2026-04-12T10:58:18.874Z</time></trkpt><trkpt lat="45.0677867" lon="7.9758967"><ele>395.0</ele><time>2026-04-12T10:58:19.875Z</time></trkpt><trkpt lat="45.06786" lon="7.9757233"><ele>395.0</ele><time>2026-04-12T10:58:20.874Z</time></trkpt><trkpt lat="45.0679267" lon="7.9755233"><ele>395.25</ele><time>2026-04-12T10:58:21.875Z</time></trkpt><trkpt lat="45.067985" lon="7.9753333"><ele>395.5</ele><time>2026-04-12T10:58:22.874Z</time></trkpt><trkpt lat="45.0680517" lon="7.9751517"><ele>395.75</ele><time>2026-04-12T10:58:23.875Z</time></trkpt><trkpt lat="45.0681133" lon="7.97497"><ele>396.0</ele><time>2026-04-12T10:58:24.875Z</time></trkpt><trkpt lat="45.068175" lon="7.9748067"><ele>395.0</ele><time>2026-04-12T10:58:25.874Z</time></trkpt><trkpt lat="45.0682483" lon="7.9746533"><ele>394.0</ele><time>2026-04-12T10:58:26.874Z</time></trkpt><trkpt lat="45.068335" lon="7.97452"><ele>393.0</ele><time>2026-04-12T10:58:27.874Z</time></trkpt><trkpt lat="45.0684283" lon="7.9743883"><ele>392.0</ele><time>2026-04-12T10:58:28.875Z</time></trkpt><trkpt lat="45.0685283" lon="7.9742817"><ele>395.75</ele><time>2026-04-12T10:58:29.874Z</time></trkpt><trkpt lat="45.0686533" lon="7.97419"><ele>399.5</ele><time>2026-04-12T10:58:30.874Z</time></trkpt><trkpt lat="45.06878" lon="7.97412"><ele>403.25</ele><time>2026-04-12T10:58:31.874Z</time></trkpt><trkpt lat="45.06892" lon="7.97405"><ele>407.0</ele><time>2026-04-12T10:58:32.874Z</time></trkpt><trkpt lat="45.0690467" lon="7.973975"><ele>408.5</ele><time>2026-04-12T10:58:33.875Z</time></trkpt><trkpt lat="45.0691717" lon="7.9738933"><ele>410.0</ele><time>2026-04-12T10:58:34.874Z</time></trkpt><trkpt lat="45.0693083" lon="7.9738183"><ele>411.5</ele><time>2026-04-12T10:58:35.875Z</time></trkpt><trkpt lat="45.0694283" lon="7.9737617"><ele>413.0</ele><time>2026-04-12T10:58:36.874Z</time></trkpt><trkpt lat="45.069545" lon="7.9737"><ele>413.0</ele><time>2026-04-12T10:58:37.874Z</time></trkpt><trkpt lat="45.069635" lon="7.9736217"><ele>413.0</ele><time>2026-04-12T10:58:38.874Z</time></trkpt><trkpt lat="45.0697033" lon="7.97351"><ele>413.0</ele><time>2026-04-12T10:58:39.875Z</time></trkpt><trkpt lat="45.0697367" lon="7.973375"><ele>413.0</ele><time>2026-04-12T10:58:40.875Z</time></trkpt><trkpt lat="45.0697567" lon="7.97322"><ele>413.0</ele><time>2026-04-12T10:58:41.874Z</time></trkpt><trkpt lat="45.0697783" lon="7.97306"><ele>414.25</ele><time>2026-04-12T10:58:42.874Z</time></trkpt><trkpt lat="45.0698067" lon="7.97289"><ele>415.5</ele><time>2026-04-12T10:58:43.874Z</time></trkpt><trkpt lat="45.06985" lon="7.9727383"><ele>416.75</ele><time>2026-04-12T10:58:44.874Z</time></trkpt><trkpt lat="45.06994" lon="7.9726383"><ele>418.0</ele><time>2026-04-12T10:58:45.875Z</time></trkpt><trkpt lat="45.07004" lon="7.972575"><ele>420.25</ele><time>2026-04-12T10:58:46.875Z</time></trkpt><trkpt lat="45.0701467" lon="7.972495"><ele>422.5</ele><time>2026-04-12T10:58:47.874Z</time></trkpt><trkpt lat="45.0702467" lon="7.972385"><ele>424.75</ele><time>2026-04-12T10:58:48.875Z</time></trkpt><trkpt lat="45.0703383" lon="7.9722683"><ele>427.0</ele><time>2026-04-12T10:58:49.875Z</time></trkpt><trkpt lat="45.0704333" lon="7.9721817"><ele>427.0</ele><time>2026-04-12T10:58:50.874Z</time></trkpt><trkpt lat="45.07054" lon="7.9721283"><ele>427.00000000000006</ele><time>2026-04-12T10:58:51.875Z</time></trkpt><trkpt lat="45.07063" lon="7.972105"><ele>427.00000000000006</ele><time>2026-04-12T10:58:52.874Z</time></trkpt><trkpt lat="45.0707067" lon="7.9720867"><ele>427.0</ele><time>2026-04-12T10:58:53.875Z</time></trkpt><trkpt lat="45.070785" lon="7.9720417"><ele>427.0</ele><time>2026-04-12T10:58:54.874Z</time></trkpt><trkpt lat="45.070865" lon="7.9719817"><ele>427.25</ele><time>2026-04-12T10:58:55.874Z</time></trkpt><trkpt lat="45.0709517" lon="7.9719083"><ele>427.5</ele><time>2026-04-12T10:58:56.874Z</time></trkpt><trkpt lat="45.07105" lon="7.9718333"><ele>427.75</ele><time>2026-04-12T10:58:57.874Z</time></trkpt><trkpt lat="45.0711583" lon="7.9717633"><ele>428.0</ele><time>2026-04-12T10:58:58.874Z</time></trkpt><trkpt lat="45.0712667" lon="7.9716783"><ele>428.0</ele><time>2026-04-12T10:58:59.874Z</time></trkpt><trkpt lat="45.0713817" lon="7.97159"><ele>428.0</ele><time>2026-04-12T10:59:00.874Z</time></trkpt><trkpt lat="45.0715017" lon="7.9715083"><ele>428.0</ele><time>2026-04-12T10:59:01.874Z</time></trkpt><trkpt lat="45.0716267" lon="7.9714217"><ele>428.0</ele><time>2026-04-12T10:59:02.875Z</time></trkpt><trkpt lat="45.0717433" lon="7.9713383"><ele>428.25</ele><time>2026-04-12T10:59:03.874Z</time></trkpt><trkpt lat="45.0718717" lon="7.97125"><ele>428.5</ele><time>2026-04-12T10:59:04.874Z</time></trkpt><trkpt lat="45.071995" lon="7.9711617"><ele>428.75</ele><time>2026-04-12T10:59:05.874Z</time></trkpt><trkpt lat="45.0721267" lon="7.97107"><ele>429.0</ele><time>2026-04-12T10:59:06.874Z</time></trkpt><trkpt lat="45.07227" lon="7.9709817"><ele>429.0</ele><time>2026-04-12T10:59:07.874Z</time></trkpt><trkpt lat="45.0724167" lon="7.9708833"><ele>429.0</ele><time>2026-04-12T10:59:08.875Z</time></trkpt><trkpt lat="45.07256" lon="7.970785"><ele>429.0</ele><time>2026-04-12T10:59:09.875Z</time></trkpt><trkpt lat="45.0727083" lon="7.9706983"><ele>433.33333333333337</ele><time>2026-04-12T10:59:10.875Z</time></trkpt><trkpt lat="45.07285" lon="7.97061"><ele>437.6666666666667</ele><time>2026-04-12T10:59:11.874Z</time></trkpt><trkpt lat="45.0729883" lon="7.9705083"><ele>442.0</ele><time>2026-04-12T10:59:12.875Z</time></trkpt><trkpt lat="45.0731333" lon="7.970415"><ele>442.0</ele><time>2026-04-12T10:59:13.874Z</time></trkpt><trkpt lat="45.073265" lon="7.9703333"><ele>442.0</ele><time>2026-04-12T10:59:14.874Z</time></trkpt><trkpt lat="45.0733917" lon="7.9702317"><ele>442.0</ele><time>2026-04-12T10:59:15.874Z</time></trkpt><trkpt lat="45.073515" lon="7.9701067"><ele>442.0</ele><time>2026-04-12T10:59:16.874Z</time></trkpt><trkpt lat="45.07363" lon="7.9699717"><ele>446.5</ele><time>2026-04-12T10:59:17.874Z</time></trkpt><trkpt lat="45.07374" lon="7.9698383"><ele>451.0</ele><time>2026-04-12T10:59:18.875Z</time></trkpt><trkpt lat="45.07384" lon="7.9697067"><ele>455.5</ele><time>2026-04-12T10:59:19.874Z</time></trkpt><trkpt lat="45.0739417" lon="7.9695817"><ele>460.0</ele><time>2026-04-12T10:59:20.874Z</time></trkpt><trkpt lat="45.07406" lon="7.96948"><ele>458.75</ele><time>2026-04-12T10:59:21.875Z</time></trkpt><trkpt lat="45.0741883" lon="7.9694"><ele>457.5</ele><time>2026-04-12T10:59:22.874Z</time></trkpt><trkpt lat="45.0743133" lon="7.9693867"><ele>456.25</ele><time>2026-04-12T10:59:23.874Z</time></trkpt><trkpt lat="45.0744533" lon="7.9694217"><ele>455.0</ele><time>2026-04-12T10:59:24.875Z</time></trkpt><trkpt lat="45.0745917" lon="7.9695"><ele>455.0</ele><time>2026-04-12T10:59:25.875Z</time></trkpt><trkpt lat="45.074725" lon="7.969575"><ele>455.0</ele><time>2026-04-12T10:59:26.875Z</time></trkpt><trkpt lat="45.0748633" lon="7.9696383"><ele>455.0</ele><time>2026-04-12T10:59:27.874Z</time></trkpt><trkpt lat="45.0750017" lon="7.9696867"><ele>455.0</ele><time>2026-04-12T10:59:28.874Z</time></trkpt><trkpt lat="45.0751367" lon="7.9697567"><ele>455.5</ele><time>2026-04-12T10:59:29.874Z</time></trkpt><trkpt lat="45.0752333" lon="7.96988"><ele>456.0</ele><time>2026-04-12T10:59:30.874Z</time></trkpt><trkpt lat="45.0752917" lon="7.970045"><ele>456.5</ele><time>2026-04-12T10:59:31.874Z</time></trkpt><trkpt lat="45.0753017" lon="7.9702517"><ele>457.0</ele><time>2026-04-12T10:59:32.875Z</time></trkpt><trkpt lat="45.0753183" lon="7.97045"><ele>457.0</ele><time>2026-04-12T10:59:33.874Z</time></trkpt><trkpt lat="45.0753583" lon="7.9706283"><ele>457.0</ele><time>2026-04-12T10:59:34.875Z</time></trkpt><trkpt lat="45.07546" lon="7.97075"><ele>457.0</ele><time>2026-04-12T10:59:35.874Z</time></trkpt><trkpt lat="45.075555" lon="7.9709017"><ele>457.0</ele><time>2026-04-12T10:59:36.874Z</time></trkpt><trkpt lat="45.0756517" lon="7.9710483"><ele>456.0</ele><time>2026-04-12T10:59:37.874Z</time></trkpt><trkpt lat="45.07572" lon="7.9712133"><ele>455.0</ele><time>2026-04-12T10:59:38.874Z</time></trkpt><trkpt lat="45.07575" lon="7.9714033"><ele>454.0</ele><time>2026-04-12T10:59:39.874Z</time></trkpt><trkpt lat="45.0757633" lon="7.9716133"><ele>453.0</ele><time>2026-04-12T10:59:40.875Z</time></trkpt><trkpt lat="45.07575" lon="7.9718117"><ele>455.75</ele><time>2026-04-12T10:59:41.875Z</time></trkpt><trkpt lat="45.07572" lon="7.9720083"><ele>458.5</ele><time>2026-04-12T10:59:42.874Z</time></trkpt><trkpt lat="45.0756667" lon="7.9722033"><ele>461.25</ele><time>2026-04-12T10:59:43.875Z</time></trkpt><trkpt lat="45.0755767" lon="7.972355"><ele>464.0</ele><time>2026-04-12T10:59:44.874Z</time></trkpt><trkpt lat="45.0754833" lon="7.9724867"><ele>465.0</ele><time>2026-04-12T10:59:45.874Z</time></trkpt><trkpt lat="45.07539" lon="7.9725717"><ele>466.0</ele><time>2026-04-12T10:59:46.874Z</time></trkpt><trkpt lat="45.0753067" lon="7.9726583"><ele>467.0</ele><time>2026-04-12T10:59:47.874Z</time></trkpt><trkpt lat="45.075265" lon="7.9727583"><ele>468.0</ele><time>2026-04-12T10:59:48.874Z</time></trkpt><trkpt lat="45.075245" lon="7.9728717"><ele>469.0</ele><time>2026-04-12T10:59:49.875Z</time></trkpt><trkpt lat="45.075295" lon="7.97301"><ele>469.0</ele><time>2026-04-12T10:59:51.875Z</time></trkpt><trkpt lat="45.0753633" lon="7.97302"><ele>469.0</ele><time>2026-04-12T10:59:52.874Z</time></trkpt><trkpt lat="45.0754383" lon="7.9729717"><ele>469.0</ele><time>2026-04-12T10:59:53.875Z</time></trkpt><trkpt lat="45.0755167" lon="7.9728617"><ele>469.0</ele><time>2026-04-12T10:59:54.875Z</time></trkpt><trkpt lat="45.0755933" lon="7.9727183"><ele>469.0</ele><time>2026-04-12T10:59:55.874Z</time></trkpt><trkpt lat="45.07568" lon="7.9725617"><ele>473.5</ele><time>2026-04-12T10:59:56.874Z</time></trkpt><trkpt lat="45.0757717" lon="7.9724167"><ele>478.0</ele><time>2026-04-12T10:59:57.875Z</time></trkpt><trkpt lat="45.0758567" lon="7.9722633"><ele>482.5</ele><time>2026-04-12T10:59:58.874Z</time></trkpt><trkpt lat="45.0759267" lon="7.9720917"><ele>487.0</ele><time>2026-04-12T10:59:59.874Z</time></trkpt><trkpt lat="45.07599" lon="7.9719017"><ele>487.0</ele><time>2026-04-12T11:00:00.874Z</time></trkpt><trkpt lat="45.0760633" lon="7.9717167"><ele>487.0</ele><time>2026-04-12T11:00:01.875Z</time></trkpt><trkpt lat="45.0761383" lon="7.9715533"><ele>487.0</ele><time>2026-04-12T11:00:02.874Z</time></trkpt><trkpt lat="45.0762133" lon="7.9714083"><ele>487.0</ele><time>2026-04-12T11:00:03.874Z</time></trkpt><trkpt lat="45.0762817" lon="7.9712517"><ele>485.5</ele><time>2026-04-12T11:00:04.874Z</time></trkpt><trkpt lat="45.0763033" lon="7.9710867"><ele>484.0</ele><time>2026-04-12T11:00:05.874Z</time></trkpt><trkpt lat="45.0762767" lon="7.9709367"><ele>482.5</ele><time>2026-04-12T11:00:06.875Z</time></trkpt><trkpt lat="45.0762133" lon="7.9707817"><ele>481.0</ele><time>2026-04-12T11:00:07.874Z</time></trkpt><trkpt lat="45.0761467" lon="7.97062"><ele>481.0</ele><time>2026-04-12T11:00:08.874Z</time></trkpt><trkpt lat="45.0760983" lon="7.9704517"><ele>481.0</ele><time>2026-04-12T11:00:09.874Z</time></trkpt><trkpt lat="45.07608" lon="7.9702683"><ele>481.0</ele><time>2026-04-12T11:00:10.874Z</time></trkpt><trkpt lat="45.07609" lon="7.9700867"><ele>481.0</ele><time>2026-04-12T11:00:11.874Z</time></trkpt><trkpt lat="45.0761167" lon="7.9699"><ele>482.5</ele><time>2026-04-12T11:00:12.874Z</time></trkpt><trkpt lat="45.076145" lon="7.96971"><ele>484.0</ele><time>2026-04-12T11:00:13.874Z</time></trkpt><trkpt lat="45.0761683" lon="7.9695333"><ele>485.5</ele><time>2026-04-12T11:00:14.875Z</time></trkpt><trkpt lat="45.0761983" lon="7.9693483"><ele>487.0</ele><time>2026-04-12T11:00:15.874Z</time></trkpt><trkpt lat="45.076245" lon="7.9691733"><ele>488.0</ele><time>2026-04-12T11:00:16.874Z</time></trkpt><trkpt lat="45.0763033" lon="7.9690183"><ele>489.0</ele><time>2026-04-12T11:00:17.874Z</time></trkpt><trkpt lat="45.076365" lon="7.968865"><ele>490.0</ele><time>2026-04-12T11:00:18.874Z</time></trkpt><trkpt lat="45.07644" lon="7.968705"><ele>491.0</ele><time>2026-04-12T11:00:19.875Z</time></trkpt><trkpt lat="45.0765283" lon="7.968565"><ele>493.0</ele><time>2026-04-12T11:00:20.875Z</time></trkpt><trkpt lat="45.0766267" lon="7.9684583"><ele>495.0</ele><time>2026-04-12T11:00:21.875Z</time></trkpt><trkpt lat="45.07674" lon="7.9683567"><ele>497.0</ele><time>2026-04-12T11:00:22.874Z</time></trkpt><trkpt lat="45.0768633" lon="7.96827"><ele>499.0</ele><time>2026-04-12T11:00:23.875Z</time></trkpt><trkpt lat="45.0769933" lon="7.9681817"><ele>499.0</ele><time>2026-04-12T11:00:24.874Z</time></trkpt><trkpt lat="45.0771267" lon="7.9680917"><ele>499.0</ele><time>2026-04-12T11:00:25.874Z</time></trkpt><trkpt lat="45.077265" lon="7.968"><ele>499.0</ele><time>2026-04-12T11:00:26.875Z</time></trkpt><trkpt lat="45.0774017" lon="7.9679117"><ele>501.0</ele><time>2026-04-12T11:00:27.875Z</time></trkpt><trkpt lat="45.077535" lon="7.9678233"><ele>503.0</ele><time>2026-04-12T11:00:28.875Z</time></trkpt><trkpt lat="45.0776617" lon="7.9677283"><ele>505.0</ele><time>2026-04-12T11:00:29.875Z</time></trkpt><trkpt lat="45.07779" lon="7.9676483"><ele>507.0</ele><time>2026-04-12T11:00:30.874Z</time></trkpt><trkpt lat="45.0779167" lon="7.967575"><ele>507.0</ele><time>2026-04-12T11:00:31.874Z</time></trkpt><trkpt lat="45.0780383" lon="7.9675367"><ele>507.0</ele><time>2026-04-12T11:00:32.874Z</time></trkpt><trkpt lat="45.07817" lon="7.9675217"><ele>507.0</ele><time>2026-04-12T11:00:33.874Z</time></trkpt><trkpt lat="45.0783117" lon="7.9675517"><ele>507.0</ele><time>2026-04-12T11:00:34.874Z</time></trkpt><trkpt lat="45.0784483" lon="7.9676117"><ele>507.75</ele><time>2026-04-12T11:00:35.874Z</time></trkpt><trkpt lat="45.0785767" lon="7.9677083"><ele>508.5</ele><time>2026-04-12T11:00:36.874Z</time></trkpt><trkpt lat="45.07869" lon="7.9678333"><ele>509.25</ele><time>2026-04-12T11:00:37.874Z</time></trkpt><trkpt lat="45.0787917" lon="7.9679817"><ele>510.0</ele><time>2026-04-12T11:00:38.874Z</time></trkpt><trkpt lat="45.0788983" lon="7.9681317"><ele>510.0</ele><time>2026-04-12T11:00:39.875Z</time></trkpt><trkpt lat="45.0790067" lon="7.9682617"><ele>510.0</ele><time>2026-04-12T11:00:40.874Z</time></trkpt><trkpt lat="45.079105" lon="7.9683867"><ele>510.0</ele><time>2026-04-12T11:00:41.874Z</time></trkpt><trkpt lat="45.0792033" lon="7.9685017"><ele>510.0</ele><time>2026-04-12T11:00:42.875Z</time></trkpt><trkpt lat="45.079305" lon="7.9685883"><ele>512.0</ele><time>2026-04-12T11:00:43.875Z</time></trkpt><trkpt lat="45.0793967" lon="7.968655"><ele>514.0</ele><time>2026-04-12T11:00:44.874Z</time></trkpt><trkpt lat="45.0794733" lon="7.9687167"><ele>516.0</ele><time>2026-04-12T11:00:45.875Z</time></trkpt><trkpt lat="45.0795417" lon="7.96877"><ele>518.0</ele><time>2026-04-12T11:00:46.875Z</time></trkpt><trkpt lat="45.0796117" lon="7.9687867"><ele>520.0</ele><time>2026-04-12T11:00:47.875Z</time></trkpt><trkpt lat="45.07969" lon="7.968755"><ele>522.0</ele><time>2026-04-12T11:00:48.875Z</time></trkpt><trkpt lat="45.0797583" lon="7.9686667"><ele>522.0</ele><time>2026-04-12T11:00:49.875Z</time></trkpt><trkpt lat="45.0798383" lon="7.9685267"><ele>522.0</ele><time>2026-04-12T11:00:50.875Z</time></trkpt><trkpt lat="45.0799233" lon="7.9683717"><ele>522.0</ele><time>2026-04-12T11:00:51.874Z</time></trkpt><trkpt lat="45.0800133" lon="7.96822"><ele>522.0</ele><time>2026-04-12T11:00:52.875Z</time></trkpt><trkpt lat="45.080105" lon="7.9680533"><ele>516.6666666666666</ele><time>2026-04-12T11:00:53.874Z</time></trkpt><trkpt lat="45.0801983" lon="7.9678767"><ele>511.3333333333333</ele><time>2026-04-12T11:00:54.875Z</time></trkpt><trkpt lat="45.08029" lon="7.9677083"><ele>506.0</ele><time>2026-04-12T11:00:55.874Z</time></trkpt><trkpt lat="45.0803983" lon="7.967535"><ele>503.0</ele><time>2026-04-12T11:00:56.874Z</time></trkpt><trkpt lat="45.0804917" lon="7.9673433"><ele>500.0</ele><time>2026-04-12T11:00:57.874Z</time></trkpt><trkpt lat="45.0805833" lon="7.9671683"><ele>497.0</ele><time>2026-04-12T11:00:58.874Z</time></trkpt><trkpt lat="45.0806633" lon="7.9669883"><ele>497.0</ele><time>2026-04-12T11:00:59.875Z</time></trkpt><trkpt lat="45.0807467" lon="7.9668133"><ele>497.0</ele><time>2026-04-12T11:01:00.874Z</time></trkpt><trkpt lat="45.080835" lon="7.9666483"><ele>497.0</ele><time>2026-04-12T11:01:01.874Z</time></trkpt><trkpt lat="45.0809233" lon="7.9664733"><ele>497.0</ele><time>2026-04-12T11:01:02.875Z</time></trkpt><trkpt lat="45.0810067" lon="7.9662933"><ele>498.66666666666663</ele><time>2026-04-12T11:01:03.875Z</time></trkpt><trkpt lat="45.081095" lon="7.9661217"><ele>500.33333333333337</ele><time>2026-04-12T11:01:04.875Z</time></trkpt><trkpt lat="45.0811817" lon="7.9659367"><ele>502.0</ele><time>2026-04-12T11:01:05.875Z</time></trkpt><trkpt lat="45.0812633" lon="7.9657483"><ele>502.0</ele><time>2026-04-12T11:01:06.874Z</time></trkpt><trkpt lat="45.08133" lon="7.9655583"><ele>502.0</ele><time>2026-04-12T11:01:07.874Z</time></trkpt><trkpt lat="45.0813833" lon="7.9653583"><ele>502.0</ele><time>2026-04-12T11:01:08.874Z</time></trkpt><trkpt lat="45.0814217" lon="7.96513"><ele>502.25</ele><time>2026-04-12T11:01:09.874Z</time></trkpt><trkpt lat="45.08144" lon="7.9649167"><ele>502.5</ele><time>2026-04-12T11:01:10.875Z</time></trkpt><trkpt lat="45.08147" lon="7.964715"><ele>502.75</ele><time>2026-04-12T11:01:11.874Z</time></trkpt><trkpt lat="45.081525" lon="7.964515"><ele>503.0</ele><time>2026-04-12T11:01:12.875Z</time></trkpt><trkpt lat="45.0815983" lon="7.9643633"><ele>506.75</ele><time>2026-04-12T11:01:13.874Z</time></trkpt><trkpt lat="45.08169" lon="7.964235"><ele>510.5</ele><time>2026-04-12T11:01:14.874Z</time></trkpt><trkpt lat="45.0818067" lon="7.96413"><ele>514.25</ele><time>2026-04-12T11:01:15.874Z</time></trkpt><trkpt lat="45.08196" lon="7.96405"><ele>518.0</ele><time>2026-04-12T11:01:16.874Z</time></trkpt><trkpt lat="45.0821117" lon="7.9639667"><ele>518.0</ele><time>2026-04-12T11:01:17.875Z</time></trkpt><trkpt lat="45.0822633" lon="7.9638633"><ele>518.0</ele><time>2026-04-12T11:01:18.875Z</time></trkpt><trkpt lat="45.082425" lon="7.9637767"><ele>518.0</ele><time>2026-04-12T11:01:19.874Z</time></trkpt><trkpt lat="45.08257" lon="7.9636917"><ele>513.0</ele><time>2026-04-12T11:01:20.874Z</time></trkpt><trkpt lat="45.082705" lon="7.9635683"><ele>508.0</ele><time>2026-04-12T11:01:21.874Z</time></trkpt><trkpt lat="45.0828317" lon="7.963415"><ele>503.0</ele><time>2026-04-12T11:01:22.874Z</time></trkpt><trkpt lat="45.082965" lon="7.9632983"><ele>499.3333333333333</ele><time>2026-04-12T11:01:23.874Z</time></trkpt><trkpt lat="45.0831" lon="7.9632033"><ele>495.66666666666663</ele><time>2026-04-12T11:01:24.875Z</time></trkpt><trkpt lat="45.08325" lon="7.96312"><ele>492.0</ele><time>2026-04-12T11:01:25.874Z</time></trkpt><trkpt lat="45.0834" lon="7.9630733"><ele>491.75</ele><time>2026-04-12T11:01:26.874Z</time></trkpt><trkpt lat="45.0835467" lon="7.9630517"><ele>491.5</ele><time>2026-04-12T11:01:27.875Z</time></trkpt><trkpt lat="45.0836967" lon="7.9630067"><ele>491.25</ele><time>2026-04-12T11:01:28.874Z</time></trkpt><trkpt lat="45.08384" lon="7.9629617"><ele>491.0</ele><time>2026-04-12T11:01:29.875Z</time></trkpt><trkpt lat="45.0839933" lon="7.9629333"><ele>489.66666666666663</ele><time>2026-04-12T11:01:30.875Z</time></trkpt><trkpt lat="45.08415" lon="7.96293"><ele>488.33333333333337</ele><time>2026-04-12T11:01:31.875Z</time></trkpt><trkpt lat="45.084305" lon="7.9629717"><ele>487.0</ele><time>2026-04-12T11:01:32.874Z</time></trkpt><trkpt lat="45.0844533" lon="7.963045"><ele>487.0</ele><time>2026-04-12T11:01:33.874Z</time></trkpt><trkpt lat="45.08458" lon="7.9631483"><ele>487.0</ele><time>2026-04-12T11:01:34.874Z</time></trkpt><trkpt lat="45.0846867" lon="7.9632783"><ele>487.0</ele><time>2026-04-12T11:01:35.874Z</time></trkpt><trkpt lat="45.0847767" lon="7.9634033"><ele>487.0</ele><time>2026-04-12T11:01:36.874Z</time></trkpt><trkpt lat="45.0848767" lon="7.963495"><ele>487.0</ele><time>2026-04-12T11:01:37.874Z</time></trkpt><trkpt lat="45.08497" lon="7.9635417"><ele>487.00000000000006</ele><time>2026-04-12T11:01:38.875Z</time></trkpt><trkpt lat="45.0850667" lon="7.9634967"><ele>487.00000000000006</ele><time>2026-04-12T11:01:39.875Z</time></trkpt><trkpt lat="45.0851483" lon="7.9633883"><ele>487.0</ele><time>2026-04-12T11:01:40.874Z</time></trkpt><trkpt lat="45.0852" lon="7.9632317"><ele>487.0</ele><time>2026-04-12T11:01:41.874Z</time></trkpt><trkpt lat="45.0852317" lon="7.96306"><ele>487.0</ele><time>2026-04-12T11:01:42.875Z</time></trkpt><trkpt lat="45.085295" lon="7.9629133"><ele>487.0</ele><time>2026-04-12T11:01:43.874Z</time></trkpt><trkpt lat="45.0854033" lon="7.96281"><ele>487.0</ele><time>2026-04-12T11:01:44.874Z</time></trkpt><trkpt lat="45.08554" lon="7.9627533"><ele>487.0</ele><time>2026-04-12T11:01:45.874Z</time></trkpt><trkpt lat="45.0856833" lon="7.9627283"><ele>481.25</ele><time>2026-04-12T11:01:46.874Z</time></trkpt><trkpt lat="45.085825" lon="7.962745"><ele>475.5</ele><time>2026-04-12T11:01:47.874Z</time></trkpt><trkpt lat="45.0859733" lon="7.9627683"><ele>469.75</ele><time>2026-04-12T11:01:48.874Z</time></trkpt><trkpt lat="45.0861167" lon="7.962795"><ele>464.0</ele><time>2026-04-12T11:01:49.874Z</time></trkpt><trkpt lat="45.08626" lon="7.96279"><ele>464.0</ele><time>2026-04-12T11:01:50.874Z</time></trkpt><trkpt lat="45.0864167" lon="7.9627917"><ele>464.0</ele><time>2026-04-12T11:01:51.874Z</time></trkpt><trkpt lat="45.08658" lon="7.9627433"><ele>464.0</ele><time>2026-04-12T11:01:52.874Z</time></trkpt><trkpt lat="45.0867433" lon="7.9626817"><ele>461.0</ele><time>2026-04-12T11:01:53.875Z</time></trkpt><trkpt lat="45.08689" lon="7.9626117"><ele>458.0</ele><time>2026-04-12T11:01:54.875Z</time></trkpt><trkpt lat="45.0870367" lon="7.9625283"><ele>455.0</ele><time>2026-04-12T11:01:55.875Z</time></trkpt><trkpt lat="45.0871767" lon="7.96244"><ele>454.75</ele><time>2026-04-12T11:01:56.875Z</time></trkpt><trkpt lat="45.0873033" lon="7.962365"><ele>454.5</ele><time>2026-04-12T11:01:57.875Z</time></trkpt><trkpt lat="45.0874233" lon="7.962295"><ele>454.25</ele><time>2026-04-12T11:01:58.874Z</time></trkpt><trkpt lat="45.0875433" lon="7.9622217"><ele>454.0</ele><time>2026-04-12T11:01:59.874Z</time></trkpt><trkpt lat="45.0876517" lon="7.962155"><ele>454.00000000000006</ele><time>2026-04-12T11:02:00.874Z</time></trkpt><trkpt lat="45.08774" lon="7.9620983"><ele>454.0</ele><time>2026-04-12T11:02:01.874Z</time></trkpt><trkpt lat="45.0878167" lon="7.9620867"><ele>454.0</ele><time>2026-04-12T11:02:02.874Z</time></trkpt><trkpt lat="45.08789" lon="7.9621233"><ele>454.0</ele><time>2026-04-12T11:02:03.874Z</time></trkpt><trkpt lat="45.0879517" lon="7.9621767"><ele>454.00000000000006</ele><time>2026-04-12T11:02:04.875Z</time></trkpt><trkpt lat="45.0880067" lon="7.9622567"><ele>454.0</ele><time>2026-04-12T11:02:05.874Z</time></trkpt><trkpt lat="45.0880383" lon="7.9623783"><ele>454.0</ele><time>2026-04-12T11:02:06.875Z</time></trkpt><trkpt lat="45.08801" lon="7.9625017"><ele>454.0</ele><time>2026-04-12T11:02:07.874Z</time></trkpt><trkpt lat="45.0879383" lon="7.9626133"><ele>454.0</ele><time>2026-04-12T11:02:08.874Z</time></trkpt><trkpt lat="45.0878333" lon="7.96272"><ele>454.0</ele><time>2026-04-12T11:02:09.875Z</time></trkpt><trkpt lat="45.0877133" lon="7.9628083"><ele>453.2</ele><time>2026-04-12T11:02:10.874Z</time></trkpt><trkpt lat="45.0876183" lon="7.9629217"><ele>452.4</ele><time>2026-04-12T11:02:11.874Z</time></trkpt><trkpt lat="45.0875533" lon="7.9630517"><ele>451.6</ele><time>2026-04-12T11:02:12.874Z</time></trkpt><trkpt lat="45.0875183" lon="7.9631767"><ele>450.8</ele><time>2026-04-12T11:02:13.875Z</time></trkpt><trkpt lat="45.0875083" lon="7.963295"><ele>450.0</ele><time>2026-04-12T11:02:14.875Z</time></trkpt><trkpt lat="45.08753" lon="7.9634033"><ele>450.0</ele><time>2026-04-12T11:02:15.874Z</time></trkpt><trkpt lat="45.0875867" lon="7.9634833"><ele>450.0</ele><time>2026-04-12T11:02:16.875Z</time></trkpt><trkpt lat="45.087675" lon="7.9635267"><ele>450.0</ele><time>2026-04-12T11:02:17.874Z</time></trkpt><trkpt lat="45.0877883" lon="7.963565"><ele>450.0</ele><time>2026-04-12T11:02:18.874Z</time></trkpt><trkpt lat="45.0879167" lon="7.9636217"><ele>450.0</ele><time>2026-04-12T11:02:19.874Z</time></trkpt><trkpt lat="45.08805" lon="7.9637117"><ele>450.0</ele><time>2026-04-12T11:02:20.874Z</time></trkpt><trkpt lat="45.0881767" lon="7.9638217"><ele>450.0</ele><time>2026-04-12T11:02:21.874Z</time></trkpt><trkpt lat="45.088305" lon="7.9639333"><ele>450.0</ele><time>2026-04-12T11:02:22.875Z</time></trkpt><trkpt lat="45.088435" lon="7.964045"><ele>445.66666666666663</ele><time>2026-04-12T11:02:23.874Z</time></trkpt><trkpt lat="45.08856" lon="7.96417"><ele>441.3333333333333</ele><time>2026-04-12T11:02:24.875Z</time></trkpt><trkpt lat="45.0886833" lon="7.9643017"><ele>437.0</ele><time>2026-04-12T11:02:25.875Z</time></trkpt><trkpt lat="45.0887933" lon="7.9644533"><ele>436.25</ele><time>2026-04-12T11:02:26.875Z</time></trkpt><trkpt lat="45.0888817" lon="7.9646167"><ele>435.5</ele><time>2026-04-12T11:02:27.874Z</time></trkpt><trkpt lat="45.0889783" lon="7.964785"><ele>434.75</ele><time>2026-04-12T11:02:28.875Z</time></trkpt><trkpt lat="45.0890617" lon="7.9649367"><ele>434.0</ele><time>2026-04-12T11:02:29.874Z</time></trkpt><trkpt lat="45.08915" lon="7.965075"><ele>429.6</ele><time>2026-04-12T11:02:30.874Z</time></trkpt><trkpt lat="45.0892283" lon="7.965185"><ele>425.2</ele><time>2026-04-12T11:02:31.874Z</time></trkpt><trkpt lat="45.089315" lon="7.9652583"><ele>420.8</ele><time>2026-04-12T11:02:32.874Z</time></trkpt><trkpt lat="45.0894033" lon="7.965275"><ele>416.40000000000003</ele><time>2026-04-12T11:02:33.874Z</time></trkpt><trkpt lat="45.0894817" lon="7.9652433"><ele>412.0</ele><time>2026-04-12T11:02:34.875Z</time></trkpt><trkpt lat="45.0895517" lon="7.96517"><ele>412.0</ele><time>2026-04-12T11:02:35.874Z</time></trkpt><trkpt lat="45.0895967" lon="7.9650483"><ele>412.0</ele><time>2026-04-12T11:02:36.875Z</time></trkpt><trkpt lat="45.0895917" lon="7.964895"><ele>412.0</ele><time>2026-04-12T11:02:37.875Z</time></trkpt><trkpt lat="45.0895467" lon="7.9647467"><ele>412.0</ele><time>2026-04-12T11:02:38.875Z</time></trkpt><trkpt lat="45.0894833" lon="7.964615"><ele>412.0</ele><time>2026-04-12T11:02:39.874Z</time></trkpt><trkpt lat="45.0894267" lon="7.9644967"><ele>413.6</ele><time>2026-04-12T11:02:40.874Z</time></trkpt><trkpt lat="45.08938" lon="7.9643733"><ele>415.20000000000005</ele><time>2026-04-12T11:02:41.874Z</time></trkpt><trkpt lat="45.0893517" lon="7.9642617"><ele>416.8</ele><time>2026-04-12T11:02:42.874Z</time></trkpt><trkpt lat="45.0893433" lon="7.9641533"><ele>418.4</ele><time>2026-04-12T11:02:43.874Z</time></trkpt><trkpt lat="45.089365" lon="7.9640467"><ele>420.0</ele><time>2026-04-12T11:02:44.875Z</time></trkpt><trkpt lat="45.0894833" lon="7.9640033"><ele>420.0</ele><time>2026-04-12T11:02:46.874Z</time></trkpt><trkpt lat="45.0895617" lon="7.9640583"><ele>420.0</ele><time>2026-04-12T11:02:47.874Z</time></trkpt><trkpt lat="45.0896483" lon="7.964155"><ele>420.0</ele><time>2026-04-12T11:02:48.874Z</time></trkpt><trkpt lat="45.089745" lon="7.964305"><ele>420.0</ele><time>2026-04-12T11:02:49.874Z</time></trkpt><trkpt lat="45.0898533" lon="7.9644317"><ele>420.25</ele><time>2026-04-12T11:02:50.875Z</time></trkpt><trkpt lat="45.0899933" lon="7.964495"><ele>420.5</ele><time>2026-04-12T11:02:51.874Z</time></trkpt><trkpt lat="45.0901317" lon="7.96449"><ele>420.75</ele><time>2026-04-12T11:02:52.875Z</time></trkpt><trkpt lat="45.0902833" lon="7.9644517"><ele>421.0</ele><time>2026-04-12T11:02:53.874Z</time></trkpt><trkpt lat="45.0904283" lon="7.964415"><ele>421.0</ele><time>2026-04-12T11:02:54.874Z</time></trkpt><trkpt lat="45.0905783" lon="7.96438"><ele>421.0</ele><time>2026-04-12T11:02:55.875Z</time></trkpt><trkpt lat="45.09074" lon="7.96434"><ele>421.0</ele><time>2026-04-12T11:02:56.875Z</time></trkpt><trkpt lat="45.0908933" lon="7.96431"><ele>421.0</ele><time>2026-04-12T11:02:57.874Z</time></trkpt><trkpt lat="45.0910417" lon="7.9642767"><ele>421.0</ele><time>2026-04-12T11:02:58.874Z</time></trkpt><trkpt lat="45.0911733" lon="7.9642467"><ele>421.0</ele><time>2026-04-12T11:02:59.874Z</time></trkpt><trkpt lat="45.0912967" lon="7.964195"><ele>421.0</ele><time>2026-04-12T11:03:00.875Z</time></trkpt><trkpt lat="45.0914017" lon="7.96412"><ele>417.25</ele><time>2026-04-12T11:03:01.874Z</time></trkpt><trkpt lat="45.091485" lon="7.964015"><ele>413.5</ele><time>2026-04-12T11:03:02.875Z</time></trkpt><trkpt lat="45.0915217" lon="7.96386"><ele>409.75</ele><time>2026-04-12T11:03:03.875Z</time></trkpt><trkpt lat="45.0915183" lon="7.9636883"><ele>406.0</ele><time>2026-04-12T11:03:04.874Z</time></trkpt><trkpt lat="45.0914833" lon="7.9635133"><ele>403.75</ele><time>2026-04-12T11:03:05.874Z</time></trkpt><trkpt lat="45.0914467" lon="7.96336"><ele>401.5</ele><time>2026-04-12T11:03:06.874Z</time></trkpt><trkpt lat="45.0914067" lon="7.9631833"><ele>399.25</ele><time>2026-04-12T11:03:07.875Z</time></trkpt><trkpt lat="45.09137" lon="7.9629983"><ele>397.0</ele><time>2026-04-12T11:03:08.875Z</time></trkpt><trkpt lat="45.0913233" lon="7.962825"><ele>397.0</ele><time>2026-04-12T11:03:09.874Z</time></trkpt><trkpt lat="45.0912933" lon="7.9626467"><ele>397.0</ele><time>2026-04-12T11:03:10.874Z</time></trkpt><trkpt lat="45.0912867" lon="7.9624433"><ele>397.0</ele><time>2026-04-12T11:03:11.875Z</time></trkpt><trkpt lat="45.09132" lon="7.9622483"><ele>397.0</ele><time>2026-04-12T11:03:12.875Z</time></trkpt><trkpt lat="45.0913883" lon="7.9620633"><ele>398.0</ele><time>2026-04-12T11:03:13.874Z</time></trkpt><trkpt lat="45.09147" lon="7.961875"><ele>399.0</ele><time>2026-04-12T11:03:14.874Z</time></trkpt><trkpt lat="45.09156" lon="7.9617"><ele>400.0</ele><time>2026-04-12T11:03:15.874Z</time></trkpt><trkpt lat="45.0916517" lon="7.961525"><ele>394.33333333333337</ele><time>2026-04-12T11:03:16.875Z</time></trkpt><trkpt lat="45.0917467" lon="7.9613417"><ele>388.6666666666667</ele><time>2026-04-12T11:03:17.874Z</time></trkpt><trkpt lat="45.09184" lon="7.9611567"><ele>383.0</ele><time>2026-04-12T11:03:18.874Z</time></trkpt><trkpt lat="45.091935" lon="7.9609767"><ele>383.33333333333337</ele><time>2026-04-12T11:03:19.875Z</time></trkpt><trkpt lat="45.0920417" lon="7.960795"><ele>383.6666666666667</ele><time>2026-04-12T11:03:20.875Z</time></trkpt><trkpt lat="45.09213" lon="7.96061"><ele>384.0</ele><time>2026-04-12T11:03:21.874Z</time></trkpt><trkpt lat="45.0922233" lon="7.960415"><ele>384.0</ele><time>2026-04-12T11:03:22.874Z</time></trkpt><trkpt lat="45.09232" lon="7.960235"><ele>384.0</ele><time>2026-04-12T11:03:23.874Z</time></trkpt><trkpt lat="45.0924117" lon="7.960045"><ele>384.0</ele><time>2026-04-12T11:03:24.874Z</time></trkpt><trkpt lat="45.0925117" lon="7.959855"><ele>382.3333333333333</ele><time>2026-04-12T11:03:25.874Z</time></trkpt><trkpt lat="45.0926033" lon="7.95967"><ele>380.66666666666663</ele><time>2026-04-12T11:03:26.874Z</time></trkpt><trkpt lat="45.0926883" lon="7.959485"><ele>379.0</ele><time>2026-04-12T11:03:27.874Z</time></trkpt><trkpt lat="45.0927483" lon="7.9592917"><ele>378.5</ele><time>2026-04-12T11:03:28.874Z</time></trkpt><trkpt lat="45.0927783" lon="7.959095"><ele>378.0</ele><time>2026-04-12T11:03:29.874Z</time></trkpt><trkpt lat="45.09279" lon="7.958885"><ele>377.5</ele><time>2026-04-12T11:03:30.874Z</time></trkpt><trkpt lat="45.0927933" lon="7.9586867"><ele>377.0</ele><time>2026-04-12T11:03:31.874Z</time></trkpt><trkpt lat="45.0928" lon="7.9584767"><ele>377.0</ele><time>2026-04-12T11:03:32.874Z</time></trkpt><trkpt lat="45.0928067" lon="7.95826"><ele>377.0</ele><time>2026-04-12T11:03:33.874Z</time></trkpt><trkpt lat="45.0928117" lon="7.95804"><ele>377.0</ele><time>2026-04-12T11:03:34.875Z</time></trkpt><trkpt lat="45.0928167" lon="7.95782"><ele>377.0</ele><time>2026-04-12T11:03:35.875Z</time></trkpt><trkpt lat="45.0928283" lon="7.9575883"><ele>377.0</ele><time>2026-04-12T11:03:36.875Z</time></trkpt><trkpt lat="45.0928533" lon="7.95737"><ele>377.0</ele><time>2026-04-12T11:03:37.874Z</time></trkpt><trkpt lat="45.0929067" lon="7.9571883"><ele>377.5</ele><time>2026-04-12T11:03:38.874Z</time></trkpt><trkpt lat="45.0929933" lon="7.9570533"><ele>378.0</ele><time>2026-04-12T11:03:39.875Z</time></trkpt><trkpt lat="45.0931317" lon="7.956955"><ele>378.5</ele><time>2026-04-12T11:03:40.874Z</time></trkpt><trkpt lat="45.0932667" lon="7.956855"><ele>379.0</ele><time>2026-04-12T11:03:41.875Z</time></trkpt><trkpt lat="45.0934067" lon="7.956745"><ele>382.3333333333333</ele><time>2026-04-12T11:03:42.874Z</time></trkpt><trkpt lat="45.0935383" lon="7.9566217"><ele>385.66666666666663</ele><time>2026-04-12T11:03:43.875Z</time></trkpt><trkpt lat="45.0936767" lon="7.956505"><ele>389.0</ele><time>2026-04-12T11:03:44.875Z</time></trkpt><trkpt lat="45.0938" lon="7.9563783"><ele>389.0</ele><time>2026-04-12T11:03:45.874Z</time></trkpt><trkpt lat="45.093925" lon="7.95623"><ele>389.0</ele><time>2026-04-12T11:03:46.874Z</time></trkpt><trkpt lat="45.0940367" lon="7.9560867"><ele>389.0</ele><time>2026-04-12T11:03:47.875Z</time></trkpt><trkpt lat="45.0941583" lon="7.95594"><ele>390.3333333333333</ele><time>2026-04-12T11:03:48.875Z</time></trkpt><trkpt lat="45.094275" lon="7.95579"><ele>391.66666666666663</ele><time>2026-04-12T11:03:49.875Z</time></trkpt><trkpt lat="45.0943883" lon="7.9556517"><ele>393.0</ele><time>2026-04-12T11:03:50.874Z</time></trkpt><trkpt lat="45.0944983" lon="7.9555167"><ele>393.0</ele><time>2026-04-12T11:03:51.875Z</time></trkpt><trkpt lat="45.0946133" lon="7.9553917"><ele>393.0</ele><time>2026-04-12T11:03:52.874Z</time></trkpt><trkpt lat="45.0947183" lon="7.9552667"><ele>393.0</ele><time>2026-04-12T11:03:53.875Z</time></trkpt><trkpt lat="45.0948317" lon="7.9551533"><ele>393.0</ele><time>2026-04-12T11:03:54.874Z</time></trkpt><trkpt lat="45.0949317" lon="7.955035"><ele>393.4</ele><time>2026-04-12T11:03:55.874Z</time></trkpt><trkpt lat="45.0950117" lon="7.954905"><ele>393.79999999999995</ele><time>2026-04-12T11:03:56.874Z</time></trkpt><trkpt lat="45.09508" lon="7.954785"><ele>394.2</ele><time>2026-04-12T11:03:57.875Z</time></trkpt><trkpt lat="45.0951483" lon="7.9546667"><ele>394.6</ele><time>2026-04-12T11:03:58.874Z</time></trkpt><trkpt lat="45.095215" lon="7.95455"><ele>395.0</ele><time>2026-04-12T11:03:59.874Z</time></trkpt><trkpt lat="45.0952833" lon="7.9544317"><ele>395.0</ele><time>2026-04-12T11:04:00.875Z</time></trkpt><trkpt lat="45.09534" lon="7.9543"><ele>395.0</ele><time>2026-04-12T11:04:01.875Z</time></trkpt><trkpt lat="45.09539" lon="7.95416"><ele>395.0</ele><time>2026-04-12T11:04:02.874Z</time></trkpt><trkpt lat="45.0954283" lon="7.95401"><ele>395.0</ele><time>2026-04-12T11:04:03.874Z</time></trkpt><trkpt lat="45.095465" lon="7.9538667"><ele>395.0</ele><time>2026-04-12T11:04:04.875Z</time></trkpt><trkpt lat="45.0954817" lon="7.9537217"><ele>394.8333333333333</ele><time>2026-04-12T11:04:05.875Z</time></trkpt><trkpt lat="45.0954817" lon="7.9535917"><ele>394.66666666666663</ele><time>2026-04-12T11:04:06.874Z</time></trkpt><trkpt lat="45.0954617" lon="7.9534717"><ele>394.5</ele><time>2026-04-12T11:04:07.874Z</time></trkpt><trkpt lat="45.0954367" lon="7.9533733"><ele>394.33333333333337</ele><time>2026-04-12T11:04:08.874Z</time></trkpt><trkpt lat="45.0954033" lon="7.9532717"><ele>394.1666666666667</ele><time>2026-04-12T11:04:09.874Z</time></trkpt><trkpt lat="45.09537" lon="7.9531883"><ele>394.0</ele><time>2026-04-12T11:04:10.875Z</time></trkpt><trkpt lat="45.0953083" lon="7.9530983"><ele>394.0</ele><time>2026-04-12T11:04:12.875Z</time></trkpt><trkpt lat="45.0953283" lon="7.9530017"><ele>394.0</ele><time>2026-04-12T11:04:15.874Z</time></trkpt><trkpt lat="45.095445" lon="7.9529467"><ele>394.0</ele><time>2026-04-12T11:04:17.874Z</time></trkpt><trkpt lat="45.0955217" lon="7.9528917"><ele>394.0</ele><time>2026-04-12T11:04:18.874Z</time></trkpt><trkpt lat="45.0955917" lon="7.952815"><ele>394.0</ele><time>2026-04-12T11:04:19.874Z</time></trkpt><trkpt lat="45.0956617" lon="7.9527217"><ele>394.0</ele><time>2026-04-12T11:04:20.874Z</time></trkpt><trkpt lat="45.0957283" lon="7.9526067"><ele>394.0</ele><time>2026-04-12T11:04:21.875Z</time></trkpt><trkpt lat="45.0957967" lon="7.9524983"><ele>394.0</ele><time>2026-04-12T11:04:22.875Z</time></trkpt><trkpt lat="45.095875" lon="7.95239"><ele>394.0</ele><time>2026-04-12T11:04:23.875Z</time></trkpt><trkpt lat="45.09596" lon="7.952295"><ele>394.0</ele><time>2026-04-12T11:04:24.874Z</time></trkpt><trkpt lat="45.0960533" lon="7.9522183"><ele>393.5</ele><time>2026-04-12T11:04:25.875Z</time></trkpt><trkpt lat="45.0961583" lon="7.95214"><ele>393.0</ele><time>2026-04-12T11:04:26.874Z</time></trkpt><trkpt lat="45.0962833" lon="7.95208"><ele>392.5</ele><time>2026-04-12T11:04:27.875Z</time></trkpt><trkpt lat="45.0964133" lon="7.9520133"><ele>392.0</ele><time>2026-04-12T11:04:28.875Z</time></trkpt><trkpt lat="45.09656" lon="7.9519583"><ele>393.3333333333333</ele><time>2026-04-12T11:04:29.874Z</time></trkpt><trkpt lat="45.0967083" lon="7.9519"><ele>394.66666666666663</ele><time>2026-04-12T11:04:30.874Z</time></trkpt><trkpt lat="45.0968483" lon="7.9518267"><ele>396.0</ele><time>2026-04-12T11:04:31.875Z</time></trkpt><trkpt lat="45.0969817" lon="7.9517217"><ele>391.5</ele><time>2026-04-12T11:04:32.874Z</time></trkpt><trkpt lat="45.0971" lon="7.9516183"><ele>387.0</ele><time>2026-04-12T11:04:33.875Z</time></trkpt><trkpt lat="45.0972133" lon="7.9515083"><ele>382.5</ele><time>2026-04-12T11:04:34.874Z</time></trkpt><trkpt lat="45.097315" lon="7.9514167"><ele>378.0</ele><time>2026-04-12T11:04:35.874Z</time></trkpt><trkpt lat="45.097405" lon="7.9513417"><ele>379.2</ele><time>2026-04-12T11:04:36.875Z</time></trkpt><trkpt lat="45.09749" lon="7.9512667"><ele>380.4</ele><time>2026-04-12T11:04:37.874Z</time></trkpt><trkpt lat="45.0975567" lon="7.951195"><ele>381.59999999999997</ele><time>2026-04-12T11:04:38.874Z</time></trkpt><trkpt lat="45.0976117" lon="7.9511167"><ele>382.79999999999995</ele><time>2026-04-12T11:04:39.875Z</time></trkpt><trkpt lat="45.0976383" lon="7.9510233"><ele>384.0</ele><time>2026-04-12T11:04:40.874Z</time></trkpt><trkpt lat="45.0975633" lon="7.9508833"><ele>382.5</ele><time>2026-04-12T11:04:42.874Z</time></trkpt><trkpt lat="45.0974733" lon="7.9508717"><ele>381.0</ele><time>2026-04-12T11:04:43.874Z</time></trkpt><trkpt lat="45.0973617" lon="7.95093"><ele>379.5</ele><time>2026-04-12T11:04:44.874Z</time></trkpt><trkpt lat="45.09724" lon="7.9510433"><ele>378.0</ele><time>2026-04-12T11:04:45.874Z</time></trkpt><trkpt lat="45.09712" lon="7.9511683"><ele>378.0</ele><time>2026-04-12T11:04:46.874Z</time></trkpt><trkpt lat="45.0970017" lon="7.9512767"><ele>378.0</ele><time>2026-04-12T11:04:47.874Z</time></trkpt><trkpt lat="45.0968683" lon="7.951355"><ele>378.0</ele><time>2026-04-12T11:04:48.875Z</time></trkpt><trkpt lat="45.0967383" lon="7.9514117"><ele>378.0</ele><time>2026-04-12T11:04:49.874Z</time></trkpt><trkpt lat="45.09663" lon="7.9514483"><ele>377.1666666666667</ele><time>2026-04-12T11:04:50.875Z</time></trkpt><trkpt lat="45.0965333" lon="7.95146"><ele>376.3333333333333</ele><time>2026-04-12T11:04:51.874Z</time></trkpt><trkpt lat="45.0964533" lon="7.9514283"><ele>375.5</ele><time>2026-04-12T11:04:52.874Z</time></trkpt><trkpt lat="45.0963917" lon="7.9513567"><ele>374.66666666666663</ele><time>2026-04-12T11:04:53.874Z</time></trkpt><trkpt lat="45.0963567" lon="7.951265"><ele>373.8333333333333</ele><time>2026-04-12T11:04:54.874Z</time></trkpt><trkpt lat="45.0963583" lon="7.9511633"><ele>373.0</ele><time>2026-04-12T11:04:55.875Z</time></trkpt><trkpt lat="45.0963983" lon="7.9510667"><ele>373.0</ele><time>2026-04-12T11:04:56.875Z</time></trkpt><trkpt lat="45.0964767" lon="7.9509867"><ele>373.0</ele><time>2026-04-12T11:04:57.875Z</time></trkpt><trkpt lat="45.0966" lon="7.9509267"><ele>373.0</ele><time>2026-04-12T11:04:58.874Z</time></trkpt><trkpt lat="45.0967533" lon="7.9508917"><ele>373.0</ele><time>2026-04-12T11:04:59.874Z</time></trkpt><trkpt lat="45.0969017" lon="7.9508417"><ele>369.66666666666663</ele><time>2026-04-12T11:05:00.874Z</time></trkpt><trkpt lat="45.09704" lon="7.9507433"><ele>366.3333333333333</ele><time>2026-04-12T11:05:01.874Z</time></trkpt><trkpt lat="45.0971667" lon="7.950615"><ele>363.0</ele><time>2026-04-12T11:05:02.874Z</time></trkpt><trkpt lat="45.09728" lon="7.9504417"><ele>363.0</ele><time>2026-04-12T11:05:03.875Z</time></trkpt><trkpt lat="45.0973767" lon="7.950265"><ele>363.0</ele><time>2026-04-12T11:05:04.875Z</time></trkpt><trkpt lat="45.0974717" lon="7.9500683"><ele>363.0</ele><time>2026-04-12T11:05:05.875Z</time></trkpt><trkpt lat="45.0975633" lon="7.9498733"><ele>360.3333333333333</ele><time>2026-04-12T11:05:06.874Z</time></trkpt><trkpt lat="45.097655" lon="7.9496883"><ele>357.66666666666663</ele><time>2026-04-12T11:05:07.875Z</time></trkpt><trkpt lat="45.0977417" lon="7.9495083"><ele>355.0</ele><time>2026-04-12T11:05:08.874Z</time></trkpt><trkpt lat="45.097865" lon="7.949365"><ele>355.0</ele><time>2026-04-12T11:05:09.874Z</time></trkpt><trkpt lat="45.0979583" lon="7.9492533"><ele>355.0</ele><time>2026-04-12T11:05:10.874Z</time></trkpt><trkpt lat="45.09808" lon="7.9491533"><ele>355.0</ele><time>2026-04-12T11:05:11.874Z</time></trkpt><trkpt lat="45.09822" lon="7.9490583"><ele>355.0</ele><time>2026-04-12T11:05:12.875Z</time></trkpt><trkpt lat="45.09835" lon="7.94894"><ele>354.0</ele><time>2026-04-12T11:05:13.875Z</time></trkpt><trkpt lat="45.098465" lon="7.9488017"><ele>353.0</ele><time>2026-04-12T11:05:14.874Z</time></trkpt><trkpt lat="45.0985633" lon="7.948655"><ele>352.0</ele><time>2026-04-12T11:05:15.875Z</time></trkpt><trkpt lat="45.0986667" lon="7.9485183"><ele>351.0</ele><time>2026-04-12T11:05:16.875Z</time></trkpt><trkpt lat="45.09877" lon="7.9483717"><ele>349.0</ele><time>2026-04-12T11:05:17.875Z</time></trkpt><trkpt lat="45.0988717" lon="7.9482283"><ele>347.0</ele><time>2026-04-12T11:05:18.874Z</time></trkpt><trkpt lat="45.0989817" lon="7.9480783"><ele>345.0</ele><time>2026-04-12T11:05:19.874Z</time></trkpt><trkpt lat="45.0990883" lon="7.9479367"><ele>343.0</ele><time>2026-04-12T11:05:20.875Z</time></trkpt><trkpt lat="45.0991983" lon="7.9477967"><ele>343.0</ele><time>2026-04-12T11:05:21.875Z</time></trkpt><trkpt lat="45.09932" lon="7.9476933"><ele>343.0</ele><time>2026-04-12T11:05:22.875Z</time></trkpt><trkpt lat="45.0994517" lon="7.9476283"><ele>343.0</ele><time>2026-04-12T11:05:23.875Z</time></trkpt><trkpt lat="45.0995917" lon="7.9475817"><ele>343.0</ele><time>2026-04-12T11:05:24.874Z</time></trkpt><trkpt lat="45.0997433" lon="7.947525"><ele>340.3333333333333</ele><time>2026-04-12T11:05:25.874Z</time></trkpt><trkpt lat="45.0998933" lon="7.9474583"><ele>337.6666666666667</ele><time>2026-04-12T11:05:26.875Z</time></trkpt><trkpt lat="45.1000417" lon="7.947405"><ele>335.0</ele><time>2026-04-12T11:05:27.875Z</time></trkpt><trkpt lat="45.10018" lon="7.9473467"><ele>334.5</ele><time>2026-04-12T11:05:28.874Z</time></trkpt><trkpt lat="45.1003083" lon="7.9472867"><ele>334.0</ele><time>2026-04-12T11:05:29.875Z</time></trkpt><trkpt lat="45.100435" lon="7.947225"><ele>333.5</ele><time>2026-04-12T11:05:30.875Z</time></trkpt><trkpt lat="45.1005467" lon="7.9471467"><ele>333.0</ele><time>2026-04-12T11:05:31.874Z</time></trkpt><trkpt lat="45.1006417" lon="7.9470417"><ele>333.0</ele><time>2026-04-12T11:05:32.874Z</time></trkpt><trkpt lat="45.1007117" lon="7.9468783"><ele>333.0</ele><time>2026-04-12T11:05:33.875Z</time></trkpt><trkpt lat="45.100735" lon="7.946675"><ele>333.0</ele><time>2026-04-12T11:05:34.874Z</time></trkpt><trkpt lat="45.10071" lon="7.9464617"><ele>333.0</ele><time>2026-04-12T11:05:35.874Z</time></trkpt><trkpt lat="45.1006533" lon="7.9462583"><ele>328.0</ele><time>2026-04-12T11:05:36.874Z</time></trkpt><trkpt lat="45.100585" lon="7.9460567"><ele>323.0</ele><time>2026-04-12T11:05:37.875Z</time></trkpt><trkpt lat="45.100535" lon="7.9458583"><ele>318.0</ele><time>2026-04-12T11:05:38.874Z</time></trkpt><trkpt lat="45.100495" lon="7.945655"><ele>315.25</ele><time>2026-04-12T11:05:39.875Z</time></trkpt><trkpt lat="45.1005" lon="7.9454717"><ele>312.5</ele><time>2026-04-12T11:05:40.874Z</time></trkpt><trkpt lat="45.1005217" lon="7.9452667"><ele>309.75</ele><time>2026-04-12T11:05:41.874Z</time></trkpt><trkpt lat="45.1005733" lon="7.9450617"><ele>307.0</ele><time>2026-04-12T11:05:42.874Z</time></trkpt><trkpt lat="45.1006417" lon="7.9448717"><ele>305.66666666666663</ele><time>2026-04-12T11:05:43.875Z</time></trkpt><trkpt lat="45.1007117" lon="7.94468"><ele>304.3333333333333</ele><time>2026-04-12T11:05:44.875Z</time></trkpt><trkpt lat="45.1007933" lon="7.9444867"><ele>303.0</ele><time>2026-04-12T11:05:45.875Z</time></trkpt><trkpt lat="45.1008817" lon="7.944325"><ele>304.5</ele><time>2026-04-12T11:05:46.875Z</time></trkpt><trkpt lat="45.1009817" lon="7.9442133"><ele>306.0</ele><time>2026-04-12T11:05:47.874Z</time></trkpt><trkpt lat="45.1011033" lon="7.9441667"><ele>307.5</ele><time>2026-04-12T11:05:48.874Z</time></trkpt><trkpt lat="45.1012217" lon="7.9441633"><ele>309.0</ele><time>2026-04-12T11:05:49.874Z</time></trkpt><trkpt lat="45.10131" lon="7.9441433"><ele>309.0</ele><time>2026-04-12T11:05:50.874Z</time></trkpt><trkpt lat="45.1013733" lon="7.94407"><ele>309.0</ele><time>2026-04-12T11:05:51.874Z</time></trkpt><trkpt lat="45.10141" lon="7.9439683"><ele>309.0</ele><time>2026-04-12T11:05:52.874Z</time></trkpt><trkpt lat="45.101405" lon="7.9438533"><ele>309.0</ele><time>2026-04-12T11:05:53.874Z</time></trkpt><trkpt lat="45.1013633" lon="7.9437567"><ele>309.0</ele><time>2026-04-12T11:05:54.874Z</time></trkpt><trkpt lat="45.1012783" lon="7.94369"><ele>309.0</ele><time>2026-04-12T11:05:55.874Z</time></trkpt><trkpt lat="45.10117" lon="7.943685"><ele>309.0</ele><time>2026-04-12T11:05:56.874Z</time></trkpt><trkpt lat="45.101045" lon="7.9437333"><ele>309.0</ele><time>2026-04-12T11:05:57.875Z</time></trkpt><trkpt lat="45.1009183" lon="7.9438217"><ele>309.0</ele><time>2026-04-12T11:05:58.874Z</time></trkpt><trkpt lat="45.1007917" lon="7.9439733"><ele>309.0</ele><time>2026-04-12T11:05:59.874Z</time></trkpt><trkpt lat="45.10067" lon="7.9441233"><ele>307.5</ele><time>2026-04-12T11:06:00.874Z</time></trkpt><trkpt lat="45.1005583" lon="7.9442583"><ele>306.0</ele><time>2026-04-12T11:06:01.875Z</time></trkpt><trkpt lat="45.10046" lon="7.94439"><ele>304.5</ele><time>2026-04-12T11:06:02.875Z</time></trkpt><trkpt lat="45.100355" lon="7.9445233"><ele>303.0</ele><time>2026-04-12T11:06:03.875Z</time></trkpt><trkpt lat="45.1002533" lon="7.94465"><ele>303.0</ele><time>2026-04-12T11:06:04.874Z</time></trkpt><trkpt lat="45.100155" lon="7.944775"><ele>303.0</ele><time>2026-04-12T11:06:05.875Z</time></trkpt><trkpt lat="45.1000783" lon="7.9449167"><ele>303.0</ele><time>2026-04-12T11:06:06.875Z</time></trkpt><trkpt lat="45.1000283" lon="7.9450717"><ele>303.0</ele><time>2026-04-12T11:06:07.874Z</time></trkpt><trkpt lat="45.1000117" lon="7.94525"><ele>303.8</ele><time>2026-04-12T11:06:08.874Z</time></trkpt><trkpt lat="45.1000117" lon="7.9454383"><ele>304.6</ele><time>2026-04-12T11:06:09.875Z</time></trkpt><trkpt lat="45.1000033" lon="7.9456117"><ele>305.4</ele><time>2026-04-12T11:06:10.874Z</time></trkpt><trkpt lat="45.0999933" lon="7.9457467"><ele>306.2</ele><time>2026-04-12T11:06:11.875Z</time></trkpt><trkpt lat="45.09995" lon="7.945865"><ele>307.0</ele><time>2026-04-12T11:06:12.875Z</time></trkpt><trkpt lat="45.0998817" lon="7.945915"><ele>306.8333333333333</ele><time>2026-04-12T11:06:13.874Z</time></trkpt><trkpt lat="45.099805" lon="7.945915"><ele>306.66666666666663</ele><time>2026-04-12T11:06:14.874Z</time></trkpt><trkpt lat="45.099725" lon="7.9458617"><ele>306.5</ele><time>2026-04-12T11:06:15.874Z</time></trkpt><trkpt lat="45.0996767" lon="7.9457617"><ele>306.3333333333333</ele><time>2026-04-12T11:06:16.875Z</time></trkpt><trkpt lat="45.0996917" lon="7.9456483"><ele>306.1666666666667</ele><time>2026-04-12T11:06:17.874Z</time></trkpt><trkpt lat="45.0997467" lon="7.9455067"><ele>306.0</ele><time>2026-04-12T11:06:18.874Z</time></trkpt><trkpt lat="45.0998117" lon="7.9453433"><ele>306.0</ele><time>2026-04-12T11:06:19.875Z</time></trkpt><trkpt lat="45.0998317" lon="7.9451667"><ele>306.0</ele><time>2026-04-12T11:06:20.875Z</time></trkpt><trkpt lat="45.0998217" lon="7.9449833"><ele>306.0</ele><time>2026-04-12T11:06:21.875Z</time></trkpt><trkpt lat="45.0998133" lon="7.9448133"><ele>306.0</ele><time>2026-04-12T11:06:22.874Z</time></trkpt><trkpt lat="45.099815" lon="7.9446367"><ele>304.0</ele><time>2026-04-12T11:06:23.875Z</time></trkpt><trkpt lat="45.0998467" lon="7.944465"><ele>302.0</ele><time>2026-04-12T11:06:24.874Z</time></trkpt><trkpt lat="45.099905" lon="7.9442917"><ele>300.0</ele><time>2026-04-12T11:06:25.874Z</time></trkpt><trkpt lat="45.0999633" lon="7.944095"><ele>298.0</ele><time>2026-04-12T11:06:26.874Z</time></trkpt><trkpt lat="45.1000317" lon="7.9438983"><ele>298.0</ele><time>2026-04-12T11:06:27.875Z</time></trkpt><trkpt lat="45.1000933" lon="7.943695"><ele>298.0</ele><time>2026-04-12T11:06:28.874Z</time></trkpt><trkpt lat="45.1001517" lon="7.9435"><ele>298.0</ele><time>2026-04-12T11:06:29.874Z</time></trkpt><trkpt lat="45.1002133" lon="7.9433117"><ele>296.25</ele><time>2026-04-12T11:06:30.875Z</time></trkpt><trkpt lat="45.1002783" lon="7.9431217"><ele>294.5</ele><time>2026-04-12T11:06:31.874Z</time></trkpt><trkpt lat="45.100345" lon="7.9429383"><ele>292.75</ele><time>2026-04-12T11:06:32.874Z</time></trkpt><trkpt lat="45.1004083" lon="7.9427533"><ele>291.0</ele><time>2026-04-12T11:06:33.875Z</time></trkpt><trkpt lat="45.1004733" lon="7.9425583"><ele>288.5</ele><time>2026-04-12T11:06:34.875Z</time></trkpt><trkpt lat="45.1005383" lon="7.9423717"><ele>286.0</ele><time>2026-04-12T11:06:35.874Z</time></trkpt><trkpt lat="45.100605" lon="7.9422"><ele>283.5</ele><time>2026-04-12T11:06:36.874Z</time></trkpt><trkpt lat="45.1006767" lon="7.94202"><ele>281.0</ele><time>2026-04-12T11:06:37.874Z</time></trkpt><trkpt lat="45.1007417" lon="7.9418533"><ele>282.0</ele><time>2026-04-12T11:06:38.874Z</time></trkpt><trkpt lat="45.1008167" lon="7.9416933"><ele>283.0</ele><time>2026-04-12T11:06:39.875Z</time></trkpt><trkpt lat="45.1009067" lon="7.9415533"><ele>284.0</ele><time>2026-04-12T11:06:40.874Z</time></trkpt><trkpt lat="45.10101" lon="7.941445"><ele>285.0</ele><time>2026-04-12T11:06:41.874Z</time></trkpt><trkpt lat="45.1011167" lon="7.941385"><ele>285.0</ele><time>2026-04-12T11:06:42.874Z</time></trkpt><trkpt lat="45.10122" lon="7.94139"><ele>285.0</ele><time>2026-04-12T11:06:43.874Z</time></trkpt><trkpt lat="45.1013183" lon="7.9414317"><ele>285.0</ele><time>2026-04-12T11:06:44.875Z</time></trkpt><trkpt lat="45.101425" lon="7.9414517"><ele>285.0</ele><time>2026-04-12T11:06:45.875Z</time></trkpt><trkpt lat="45.101525" lon="7.9414067"><ele>285.0</ele><time>2026-04-12T11:06:46.875Z</time></trkpt><trkpt lat="45.10159" lon="7.9412917"><ele>285.75</ele><time>2026-04-12T11:06:47.875Z</time></trkpt><trkpt lat="45.1016383" lon="7.9411433"><ele>286.5</ele><time>2026-04-12T11:06:48.874Z</time></trkpt><trkpt lat="45.10168" lon="7.94098"><ele>287.25</ele><time>2026-04-12T11:06:49.874Z</time></trkpt><trkpt lat="45.10171" lon="7.9407983"><ele>288.0</ele><time>2026-04-12T11:06:50.874Z</time></trkpt><trkpt lat="45.10175" lon="7.940635"><ele>284.75</ele><time>2026-04-12T11:06:51.875Z</time></trkpt><trkpt lat="45.1018017" lon="7.9404767"><ele>281.5</ele><time>2026-04-12T11:06:52.875Z</time></trkpt><trkpt lat="45.1018733" lon="7.9403567"><ele>278.25</ele><time>2026-04-12T11:06:53.874Z</time></trkpt><trkpt lat="45.10198" lon="7.9402833"><ele>275.0</ele><time>2026-04-12T11:06:54.875Z</time></trkpt><trkpt lat="45.1021117" lon="7.94023"><ele>275.0</ele><time>2026-04-12T11:06:55.875Z</time></trkpt><trkpt lat="45.1022467" lon="7.9402"><ele>275.0</ele><time>2026-04-12T11:06:56.874Z</time></trkpt><trkpt lat="45.1023783" lon="7.940165"><ele>275.0</ele><time>2026-04-12T11:06:57.875Z</time></trkpt><trkpt lat="45.1025167" lon="7.9401183"><ele>275.0</ele><time>2026-04-12T11:06:58.874Z</time></trkpt><trkpt lat="45.1026517" lon="7.9400533"><ele>275.75</ele><time>2026-04-12T11:06:59.874Z</time></trkpt><trkpt lat="45.1027833" lon="7.9400217"><ele>276.5</ele><time>2026-04-12T11:07:00.874Z</time></trkpt><trkpt lat="45.102915" lon="7.9400483"><ele>277.25</ele><time>2026-04-12T11:07:01.874Z</time></trkpt><trkpt lat="45.10303" lon="7.940145"><ele>278.0</ele><time>2026-04-12T11:07:02.874Z</time></trkpt><trkpt lat="45.103125" lon="7.9402717"><ele>278.0</ele><time>2026-04-12T11:07:03.875Z</time></trkpt><trkpt lat="45.103215" lon="7.94038"><ele>278.0</ele><time>2026-04-12T11:07:04.874Z</time></trkpt><trkpt lat="45.1033267" lon="7.9404367"><ele>278.0</ele><time>2026-04-12T11:07:05.874Z</time></trkpt><trkpt lat="45.1034517" lon="7.9404183"><ele>278.0</ele><time>2026-04-12T11:07:06.874Z</time></trkpt><trkpt lat="45.10359" lon="7.9403483"><ele>276.75</ele><time>2026-04-12T11:07:07.874Z</time></trkpt><trkpt lat="45.1037183" lon="7.940285"><ele>275.5</ele><time>2026-04-12T11:07:08.875Z</time></trkpt><trkpt lat="45.103845" lon="7.9402417"><ele>274.25</ele><time>2026-04-12T11:07:09.874Z</time></trkpt><trkpt lat="45.1039833" lon="7.94023"><ele>273.0</ele><time>2026-04-12T11:07:10.874Z</time></trkpt><trkpt lat="45.1041267" lon="7.9402617"><ele>270.25</ele><time>2026-04-12T11:07:11.874Z</time></trkpt><trkpt lat="45.1042633" lon="7.9403367"><ele>267.5</ele><time>2026-04-12T11:07:12.875Z</time></trkpt><trkpt lat="45.1043967" lon="7.9404317"><ele>264.75</ele><time>2026-04-12T11:07:13.875Z</time></trkpt><trkpt lat="45.104525" lon="7.94053"><ele>262.0</ele><time>2026-04-12T11:07:14.874Z</time></trkpt><trkpt lat="45.1046617" lon="7.94063"><ele>262.0</ele><time>2026-04-12T11:07:15.875Z</time></trkpt><trkpt lat="45.1048083" lon="7.94073"><ele>262.0</ele><time>2026-04-12T11:07:16.874Z</time></trkpt><trkpt lat="45.104965" lon="7.9408083"><ele>262.0</ele><time>2026-04-12T11:07:17.875Z</time></trkpt><trkpt lat="45.1051083" lon="7.9408817"><ele>259.66666666666663</ele><time>2026-04-12T11:07:18.875Z</time></trkpt><trkpt lat="45.105265" lon="7.94092"><ele>257.3333333333333</ele><time>2026-04-12T11:07:19.874Z</time></trkpt><trkpt lat="45.10541" lon="7.9409617"><ele>255.0</ele><time>2026-04-12T11:07:20.875Z</time></trkpt><trkpt lat="45.105565" lon="7.941015"><ele>255.0</ele><time>2026-04-12T11:07:21.874Z</time></trkpt><trkpt lat="45.1057217" lon="7.941065"><ele>255.0</ele><time>2026-04-12T11:07:22.874Z</time></trkpt><trkpt lat="45.1058667" lon="7.9411133"><ele>255.0</ele><time>2026-04-12T11:07:23.874Z</time></trkpt><trkpt lat="45.10602" lon="7.94117"><ele>251.66666666666669</ele><time>2026-04-12T11:07:24.874Z</time></trkpt><trkpt lat="45.1061733" lon="7.9412267"><ele>248.33333333333334</ele><time>2026-04-12T11:07:25.875Z</time></trkpt><trkpt lat="45.1063383" lon="7.941285"><ele>245.0</ele><time>2026-04-12T11:07:26.874Z</time></trkpt><trkpt lat="45.106495" lon="7.9413533"><ele>244.0</ele><time>2026-04-12T11:07:27.874Z</time></trkpt><trkpt lat="45.1066483" lon="7.94143"><ele>243.0</ele><time>2026-04-12T11:07:28.875Z</time></trkpt><trkpt lat="45.1067917" lon="7.9415133"><ele>242.0</ele><time>2026-04-12T11:07:29.875Z</time></trkpt><trkpt lat="45.106935" lon="7.9415983"><ele>242.0</ele><time>2026-04-12T11:07:30.875Z</time></trkpt><trkpt lat="45.10708" lon="7.9416783"><ele>242.0</ele><time>2026-04-12T11:07:31.875Z</time></trkpt><trkpt lat="45.1072233" lon="7.9417583"><ele>242.0</ele><time>2026-04-12T11:07:32.875Z</time></trkpt><trkpt lat="45.1073767" lon="7.94182"><ele>240.75</ele><time>2026-04-12T11:07:33.875Z</time></trkpt><trkpt lat="45.1075267" lon="7.941875"><ele>239.5</ele><time>2026-04-12T11:07:34.874Z</time></trkpt><trkpt lat="45.1076717" lon="7.94188"><ele>238.25</ele><time>2026-04-12T11:07:35.875Z</time></trkpt><trkpt lat="45.1078133" lon="7.941825"><ele>237.0</ele><time>2026-04-12T11:07:36.874Z</time></trkpt><trkpt lat="45.107965" lon="7.941735"><ele>238.0</ele><time>2026-04-12T11:07:37.875Z</time></trkpt><trkpt lat="45.1080967" lon="7.94166"><ele>239.0</ele><time>2026-04-12T11:07:38.874Z</time></trkpt><trkpt lat="45.108235" lon="7.94159"><ele>240.0</ele><time>2026-04-12T11:07:39.875Z</time></trkpt><trkpt lat="45.1083817" lon="7.9415117"><ele>241.0</ele><time>2026-04-12T11:07:40.874Z</time></trkpt><trkpt lat="45.1085283" lon="7.94142"><ele>241.0</ele><time>2026-04-12T11:07:41.875Z</time></trkpt><trkpt lat="45.10868" lon="7.941335"><ele>241.0</ele><time>2026-04-12T11:07:42.874Z</time></trkpt><trkpt lat="45.1088367" lon="7.9413083"><ele>241.0</ele><time>2026-04-12T11:07:43.875Z</time></trkpt><trkpt lat="45.10899" lon="7.9413183"><ele>240.33333333333331</ele><time>2026-04-12T11:07:44.874Z</time></trkpt><trkpt lat="45.1091517" lon="7.9413367"><ele>239.66666666666669</ele><time>2026-04-12T11:07:45.874Z</time></trkpt><trkpt lat="45.109315" lon="7.9413783"><ele>239.0</ele><time>2026-04-12T11:07:46.874Z</time></trkpt><trkpt lat="45.1094867" lon="7.9414067"><ele>239.0</ele><time>2026-04-12T11:07:47.874Z</time></trkpt><trkpt lat="45.1096583" lon="7.9414333"><ele>239.0</ele><time>2026-04-12T11:07:48.875Z</time></trkpt><trkpt lat="45.1098267" lon="7.941465"><ele>239.0</ele><time>2026-04-12T11:07:49.875Z</time></trkpt><trkpt lat="45.110005" lon="7.9415017"><ele>238.66666666666669</ele><time>2026-04-12T11:07:50.874Z</time></trkpt><trkpt lat="45.1101717" lon="7.9415333"><ele>238.33333333333331</ele><time>2026-04-12T11:07:51.875Z</time></trkpt><trkpt lat="45.1103433" lon="7.9415533"><ele>238.0</ele><time>2026-04-12T11:07:52.875Z</time></trkpt><trkpt lat="45.1105017" lon="7.9415833"><ele>238.0</ele><time>2026-04-12T11:07:53.875Z</time></trkpt><trkpt lat="45.1106633" lon="7.941635"><ele>238.0</ele><time>2026-04-12T11:07:54.874Z</time></trkpt><trkpt lat="45.110815" lon="7.9416883"><ele>238.0</ele><time>2026-04-12T11:07:55.875Z</time></trkpt><trkpt lat="45.1109617" lon="7.941755"><ele>236.5</ele><time>2026-04-12T11:07:56.874Z</time></trkpt><trkpt lat="45.1111" lon="7.9418133"><ele>235.0</ele><time>2026-04-12T11:07:57.874Z</time></trkpt><trkpt lat="45.111245" lon="7.94186"><ele>233.5</ele><time>2026-04-12T11:07:58.875Z</time></trkpt><trkpt lat="45.1113867" lon="7.9418667"><ele>232.0</ele><time>2026-04-12T11:07:59.874Z</time></trkpt><trkpt lat="45.1115317" lon="7.9418517"><ele>232.25</ele><time>2026-04-12T11:08:00.875Z</time></trkpt><trkpt lat="45.1116783" lon="7.9418167"><ele>232.5</ele><time>2026-04-12T11:08:01.875Z</time></trkpt><trkpt lat="45.11183" lon="7.941785"><ele>232.75</ele><time>2026-04-12T11:08:02.875Z</time></trkpt><trkpt lat="45.1119667" lon="7.9417583"><ele>233.0</ele><time>2026-04-12T11:08:03.874Z</time></trkpt><trkpt lat="45.1121067" lon="7.94174"><ele>233.0</ele><time>2026-04-12T11:08:04.875Z</time></trkpt><trkpt lat="45.1122317" lon="7.9417617"><ele>233.0</ele><time>2026-04-12T11:08:05.875Z</time></trkpt><trkpt lat="45.1123317" lon="7.9418533"><ele>233.0</ele><time>2026-04-12T11:08:06.875Z</time></trkpt><trkpt lat="45.1124333" lon="7.9419683"><ele>233.0</ele><time>2026-04-12T11:08:07.874Z</time></trkpt><trkpt lat="45.1125417" lon="7.9420567"><ele>233.5</ele><time>2026-04-12T11:08:08.875Z</time></trkpt><trkpt lat="45.1126733" lon="7.9420983"><ele>234.0</ele><time>2026-04-12T11:08:09.874Z</time></trkpt><trkpt lat="45.1128067" lon="7.9420983"><ele>234.5</ele><time>2026-04-12T11:08:10.875Z</time></trkpt><trkpt lat="45.1129633" lon="7.942065"><ele>235.0</ele><time>2026-04-12T11:08:11.874Z</time></trkpt><trkpt lat="45.1131317" lon="7.9420083"><ele>233.66666666666666</ele><time>2026-04-12T11:08:12.874Z</time></trkpt><trkpt lat="45.113295" lon="7.9419667"><ele>232.33333333333331</ele><time>2026-04-12T11:08:13.874Z</time></trkpt><trkpt lat="45.1134583" lon="7.9419467"><ele>231.0</ele><time>2026-04-12T11:08:14.874Z</time></trkpt><trkpt lat="45.1136167" lon="7.9419383"><ele>231.0</ele><time>2026-04-12T11:08:15.874Z</time></trkpt><trkpt lat="45.1137617" lon="7.9419217"><ele>231.0</ele><time>2026-04-12T11:08:16.874Z</time></trkpt><trkpt lat="45.1139" lon="7.9419067"><ele>231.0</ele><time>2026-04-12T11:08:17.875Z</time></trkpt><trkpt lat="45.1140517" lon="7.9418833"><ele>231.0</ele><time>2026-04-12T11:08:18.874Z</time></trkpt><trkpt lat="45.1142017" lon="7.9418467"><ele>231.33333333333331</ele><time>2026-04-12T11:08:19.875Z</time></trkpt><trkpt lat="45.1143517" lon="7.9417983"><ele>231.66666666666666</ele><time>2026-04-12T11:08:20.875Z</time></trkpt><trkpt lat="45.1144967" lon="7.9417333"><ele>232.0</ele><time>2026-04-12T11:08:21.875Z</time></trkpt><trkpt lat="45.1146517" lon="7.941655"><ele>233.33333333333331</ele><time>2026-04-12T11:08:22.874Z</time></trkpt><trkpt lat="45.1148" lon="7.9416017"><ele>234.66666666666669</ele><time>2026-04-12T11:08:23.875Z</time></trkpt><trkpt lat="45.11494" lon="7.941555"><ele>236.0</ele><time>2026-04-12T11:08:24.875Z</time></trkpt><trkpt lat="45.11509" lon="7.9415033"><ele>236.0</ele><time>2026-04-12T11:08:25.874Z</time></trkpt><trkpt lat="45.1152483" lon="7.9414617"><ele>236.0</ele><time>2026-04-12T11:08:26.874Z</time></trkpt><trkpt lat="45.1154033" lon="7.941415"><ele>236.0</ele><time>2026-04-12T11:08:27.875Z</time></trkpt><trkpt lat="45.1155583" lon="7.941365"><ele>236.0</ele><time>2026-04-12T11:08:28.875Z</time></trkpt><trkpt lat="45.1157117" lon="7.9413133"><ele>236.0</ele><time>2026-04-12T11:08:29.874Z</time></trkpt><trkpt lat="45.1158667" lon="7.9412683"><ele>236.0</ele><time>2026-04-12T11:08:30.874Z</time></trkpt><trkpt lat="45.1160083" lon="7.9412333"><ele>234.5</ele><time>2026-04-12T11:08:31.875Z</time></trkpt><trkpt lat="45.1161367" lon="7.941245"><ele>233.0</ele><time>2026-04-12T11:08:32.874Z</time></trkpt><trkpt lat="45.1162767" lon="7.9413117"><ele>231.5</ele><time>2026-04-12T11:08:33.874Z</time></trkpt><trkpt lat="45.1164217" lon="7.9414283"><ele>230.0</ele><time>2026-04-12T11:08:34.874Z</time></trkpt><trkpt lat="45.116555" lon="7.9415367"><ele>229.66666666666669</ele><time>2026-04-12T11:08:35.874Z</time></trkpt><trkpt lat="45.1166983" lon="7.9416333"><ele>229.33333333333331</ele><time>2026-04-12T11:08:36.875Z</time></trkpt><trkpt lat="45.11684" lon="7.9416967"><ele>229.0</ele><time>2026-04-12T11:08:37.875Z</time></trkpt><trkpt lat="45.1169933" lon="7.9417183"><ele>229.0</ele><time>2026-04-12T11:08:38.874Z</time></trkpt><trkpt lat="45.1171517" lon="7.9417133"><ele>229.0</ele><time>2026-04-12T11:08:39.874Z</time></trkpt><trkpt lat="45.11731" lon="7.94167"><ele>229.0</ele><time>2026-04-12T11:08:40.875Z</time></trkpt><trkpt lat="45.1174633" lon="7.9416183"><ele>228.25</ele><time>2026-04-12T11:08:41.875Z</time></trkpt><trkpt lat="45.11761" lon="7.94157"><ele>227.5</ele><time>2026-04-12T11:08:42.874Z</time></trkpt><trkpt lat="45.1177567" lon="7.94154"><ele>226.75</ele><time>2026-04-12T11:08:43.875Z</time></trkpt><trkpt lat="45.1179017" lon="7.9415133"><ele>226.0</ele><time>2026-04-12T11:08:44.875Z</time></trkpt><trkpt lat="45.11806" lon="7.941495"><ele>226.0</ele><time>2026-04-12T11:08:45.874Z</time></trkpt><trkpt lat="45.1182133" lon="7.9414733"><ele>226.0</ele><time>2026-04-12T11:08:46.874Z</time></trkpt><trkpt lat="45.11838" lon="7.9414217"><ele>226.0</ele><time>2026-04-12T11:08:47.874Z</time></trkpt><trkpt lat="45.11854" lon="7.9413767"><ele>225.0</ele><time>2026-04-12T11:08:48.875Z</time></trkpt><trkpt lat="45.1186883" lon="7.9413333"><ele>224.0</ele><time>2026-04-12T11:08:49.875Z</time></trkpt><trkpt lat="45.1188367" lon="7.9412717"><ele>223.0</ele><time>2026-04-12T11:08:50.874Z</time></trkpt><trkpt lat="45.1189867" lon="7.94119"><ele>221.33333333333331</ele><time>2026-04-12T11:08:51.874Z</time></trkpt><trkpt lat="45.119135" lon="7.9411"><ele>219.66666666666669</ele><time>2026-04-12T11:08:52.875Z</time></trkpt><trkpt lat="45.1192717" lon="7.94101"><ele>218.0</ele><time>2026-04-12T11:08:53.874Z</time></trkpt><trkpt lat="45.1194083" lon="7.9409167"><ele>220.0</ele><time>2026-04-12T11:08:54.875Z</time></trkpt><trkpt lat="45.119545" lon="7.9408083"><ele>222.0</ele><time>2026-04-12T11:08:55.875Z</time></trkpt><trkpt lat="45.1196783" lon="7.9406733"><ele>224.0</ele><time>2026-04-12T11:08:56.875Z</time></trkpt><trkpt lat="45.1197983" lon="7.9405233"><ele>221.66666666666669</ele><time>2026-04-12T11:08:57.875Z</time></trkpt><trkpt lat="45.1199233" lon="7.9403767"><ele>219.33333333333331</ele><time>2026-04-12T11:08:58.874Z</time></trkpt><trkpt lat="45.1200517" lon="7.940245"><ele>217.0</ele><time>2026-04-12T11:08:59.875Z</time></trkpt><trkpt lat="45.1201833" lon="7.9401433"><ele>217.0</ele><time>2026-04-12T11:09:00.874Z</time></trkpt><trkpt lat="45.1203283" lon="7.940075"><ele>217.0</ele><time>2026-04-12T11:09:01.874Z</time></trkpt><trkpt lat="45.120475" lon="7.9400283"><ele>217.0</ele><time>2026-04-12T11:09:02.874Z</time></trkpt><trkpt lat="45.120625" lon="7.9399983"><ele>216.0</ele><time>2026-04-12T11:09:03.874Z</time></trkpt><trkpt lat="45.1207817" lon="7.9399817"><ele>215.0</ele><time>2026-04-12T11:09:04.874Z</time></trkpt><trkpt lat="45.12095" lon="7.9399933"><ele>214.0</ele><time>2026-04-12T11:09:05.875Z</time></trkpt><trkpt lat="45.1211033" lon="7.9400483"><ele>214.33333333333331</ele><time>2026-04-12T11:09:06.874Z</time></trkpt><trkpt lat="45.12126" lon="7.9401233"><ele>214.66666666666669</ele><time>2026-04-12T11:09:07.874Z</time></trkpt><trkpt lat="45.1214083" lon="7.9402033"><ele>215.0</ele><time>2026-04-12T11:09:08.874Z</time></trkpt><trkpt lat="45.121555" lon="7.940295"><ele>214.66666666666669</ele><time>2026-04-12T11:09:09.875Z</time></trkpt><trkpt lat="45.1217067" lon="7.940385"><ele>214.33333333333331</ele><time>2026-04-12T11:09:10.875Z</time></trkpt><trkpt lat="45.1218483" lon="7.9404833"><ele>214.0</ele><time>2026-04-12T11:09:11.874Z</time></trkpt><trkpt lat="45.1219867" lon="7.94059"><ele>214.0</ele><time>2026-04-12T11:09:12.875Z</time></trkpt><trkpt lat="45.1221233" lon="7.9407067"><ele>214.0</ele><time>2026-04-12T11:09:13.874Z</time></trkpt><trkpt lat="45.1222583" lon="7.9408383"><ele>214.0</ele><time>2026-04-12T11:09:14.874Z</time></trkpt><trkpt lat="45.122395" lon="7.9409767"><ele>213.0</ele><time>2026-04-12T11:09:15.874Z</time></trkpt><trkpt lat="45.1225317" lon="7.9411"><ele>212.0</ele><time>2026-04-12T11:09:16.875Z</time></trkpt><trkpt lat="45.1226767" lon="7.9412183"><ele>211.0</ele><time>2026-04-12T11:09:17.874Z</time></trkpt><trkpt lat="45.122825" lon="7.941315"><ele>211.0</ele><time>2026-04-12T11:09:18.874Z</time></trkpt><trkpt lat="45.12297" lon="7.9414067"><ele>211.0</ele><time>2026-04-12T11:09:19.875Z</time></trkpt><trkpt lat="45.12312" lon="7.9415"><ele>211.0</ele><time>2026-04-12T11:09:20.875Z</time></trkpt><trkpt lat="45.1232733" lon="7.9416"><ele>210.66666666666666</ele><time>2026-04-12T11:09:21.875Z</time></trkpt><trkpt lat="45.12342" lon="7.9417033"><ele>210.33333333333331</ele><time>2026-04-12T11:09:22.875Z</time></trkpt><trkpt lat="45.1235483" lon="7.9418283"><ele>210.0</ele><time>2026-04-12T11:09:23.874Z</time></trkpt><trkpt lat="45.1236767" lon="7.9419467"><ele>210.0</ele><time>2026-04-12T11:09:24.875Z</time></trkpt><trkpt lat="45.123805" lon="7.9420883"><ele>210.0</ele><time>2026-04-12T11:09:25.874Z</time></trkpt><trkpt lat="45.1239383" lon="7.9422383"><ele>210.0</ele><time>2026-04-12T11:09:26.875Z</time></trkpt><trkpt lat="45.1240633" lon="7.9423917"><ele>209.33333333333331</ele><time>2026-04-12T11:09:27.874Z</time></trkpt><trkpt lat="45.1241967" lon="7.9425217"><ele>208.66666666666666</ele><time>2026-04-12T11:09:28.874Z</time></trkpt><trkpt lat="45.12433" lon="7.9426533"><ele>208.0</ele><time>2026-04-12T11:09:29.874Z</time></trkpt><trkpt lat="45.12446" lon="7.9427917"><ele>208.0</ele><time>2026-04-12T11:09:30.874Z</time></trkpt><trkpt lat="45.124595" lon="7.94293"><ele>208.0</ele><time>2026-04-12T11:09:31.875Z</time></trkpt><trkpt lat="45.124735" lon="7.9430617"><ele>208.0</ele><time>2026-04-12T11:09:32.874Z</time></trkpt><trkpt lat="45.1248817" lon="7.9431733"><ele>208.0</ele><time>2026-04-12T11:09:33.875Z</time></trkpt><trkpt lat="45.125025" lon="7.94327"><ele>208.0</ele><time>2026-04-12T11:09:34.875Z</time></trkpt><trkpt lat="45.1251817" lon="7.9433533"><ele>208.0</ele><time>2026-04-12T11:09:35.874Z</time></trkpt><trkpt lat="45.12534" lon="7.9434117"><ele>208.0</ele><time>2026-04-12T11:09:36.875Z</time></trkpt><trkpt lat="45.1254967" lon="7.94345"><ele>208.0</ele><time>2026-04-12T11:09:37.874Z</time></trkpt><trkpt lat="45.12565" lon="7.9434833"><ele>208.0</ele><time>2026-04-12T11:09:38.874Z</time></trkpt><trkpt lat="45.12581" lon="7.9435067"><ele>207.66666666666666</ele><time>2026-04-12T11:09:39.875Z</time></trkpt><trkpt lat="45.125965" lon="7.9435233"><ele>207.33333333333331</ele><time>2026-04-12T11:09:40.874Z</time></trkpt><trkpt lat="45.1261283" lon="7.9435417"><ele>207.0</ele><time>2026-04-12T11:09:41.875Z</time></trkpt><trkpt lat="45.1262983" lon="7.943555"><ele>207.0</ele><time>2026-04-12T11:09:42.874Z</time></trkpt><trkpt lat="45.1264617" lon="7.9435617"><ele>207.0</ele><time>2026-04-12T11:09:43.874Z</time></trkpt><trkpt lat="45.126615" lon="7.943575"><ele>207.0</ele><time>2026-04-12T11:09:44.875Z</time></trkpt><trkpt lat="45.12677" lon="7.9435933"><ele>207.0</ele><time>2026-04-12T11:09:45.874Z</time></trkpt><trkpt lat="45.1269233" lon="7.9436067"><ele>207.0</ele><time>2026-04-12T11:09:46.874Z</time></trkpt><trkpt lat="45.1270833" lon="7.9436183"><ele>207.0</ele><time>2026-04-12T11:09:47.874Z</time></trkpt><trkpt lat="45.127245" lon="7.94363"><ele>207.0</ele><time>2026-04-12T11:09:48.874Z</time></trkpt><trkpt lat="45.1273917" lon="7.9436417"><ele>207.0</ele><time>2026-04-12T11:09:49.874Z</time></trkpt><trkpt lat="45.1275267" lon="7.9436633"><ele>207.0</ele><time>2026-04-12T11:09:50.875Z</time></trkpt><trkpt lat="45.127665" lon="7.9436667"><ele>207.0</ele><time>2026-04-12T11:09:51.875Z</time></trkpt><trkpt lat="45.1278167" lon="7.943655"><ele>207.25</ele><time>2026-04-12T11:09:52.875Z</time></trkpt><trkpt lat="45.1279633" lon="7.9435983"><ele>207.5</ele><time>2026-04-12T11:09:53.875Z</time></trkpt><trkpt lat="45.1281" lon="7.9435133"><ele>207.75</ele><time>2026-04-12T11:09:54.874Z</time></trkpt><trkpt lat="45.128235" lon="7.9434317"><ele>208.0</ele><time>2026-04-12T11:09:55.874Z</time></trkpt><trkpt lat="45.1283733" lon="7.9433517"><ele>208.25</ele><time>2026-04-12T11:09:56.874Z</time></trkpt><trkpt lat="45.12851" lon="7.9432833"><ele>208.5</ele><time>2026-04-12T11:09:57.874Z</time></trkpt><trkpt lat="45.128635" lon="7.9432283"><ele>208.75</ele><time>2026-04-12T11:09:58.875Z</time></trkpt><trkpt lat="45.1287567" lon="7.943175"><ele>209.0</ele><time>2026-04-12T11:09:59.874Z</time></trkpt><trkpt lat="45.1288617" lon="7.9431183"><ele>209.0</ele><time>2026-04-12T11:10:00.874Z</time></trkpt><trkpt lat="45.1289483" lon="7.9430567"><ele>209.0</ele><time>2026-04-12T11:10:01.874Z</time></trkpt><trkpt lat="45.1290283" lon="7.9430133"><ele>209.0</ele><time>2026-04-12T11:10:02.874Z</time></trkpt><trkpt lat="45.1290983" lon="7.942975"><ele>209.0</ele><time>2026-04-12T11:10:03.875Z</time></trkpt><trkpt lat="45.129205" lon="7.9429233"><ele>209.0</ele><time>2026-04-12T11:10:05.874Z</time></trkpt><trkpt lat="45.1292917" lon="7.9429717"><ele>208.79999999999998</ele><time>2026-04-12T11:10:07.874Z</time></trkpt><trkpt lat="45.1293133" lon="7.9431333"><ele>208.6</ele><time>2026-04-12T11:10:09.874Z</time></trkpt><trkpt lat="45.1292833" lon="7.943225"><ele>208.4</ele><time>2026-04-12T11:10:10.874Z</time></trkpt><trkpt lat="45.1292317" lon="7.9433283"><ele>208.2</ele><time>2026-04-12T11:10:11.875Z</time></trkpt><trkpt lat="45.1291717" lon="7.9434433"><ele>208.0</ele><time>2026-04-12T11:10:12.875Z</time></trkpt><trkpt lat="45.1291183" lon="7.9435667"><ele>208.0</ele><time>2026-04-12T11:10:13.874Z</time></trkpt><trkpt lat="45.1290617" lon="7.943705"><ele>208.0</ele><time>2026-04-12T11:10:14.874Z</time></trkpt><trkpt lat="45.129005" lon="7.943875"><ele>208.0</ele><time>2026-04-12T11:10:15.875Z</time></trkpt><trkpt lat="45.1289517" lon="7.9440483"><ele>208.0</ele><time>2026-04-12T11:10:16.874Z</time></trkpt><trkpt lat="45.1288983" lon="7.9442217"><ele>207.75</ele><time>2026-04-12T11:10:17.874Z</time></trkpt><trkpt lat="45.1288467" lon="7.9443883"><ele>207.5</ele><time>2026-04-12T11:10:18.875Z</time></trkpt><trkpt lat="45.1287983" lon="7.9445517"><ele>207.25</ele><time>2026-04-12T11:10:19.874Z</time></trkpt><trkpt lat="45.1287517" lon="7.94473"><ele>207.0</ele><time>2026-04-12T11:10:20.874Z</time></trkpt><trkpt lat="45.1287067" lon="7.9448883"><ele>207.0</ele><time>2026-04-12T11:10:21.875Z</time></trkpt><trkpt lat="45.1286683" lon="7.9450383"><ele>207.0</ele><time>2026-04-12T11:10:22.874Z</time></trkpt><trkpt lat="45.1286217" lon="7.9451817"><ele>207.0</ele><time>2026-04-12T11:10:23.875Z</time></trkpt><trkpt lat="45.128595" lon="7.9453367"><ele>207.0</ele><time>2026-04-12T11:10:24.874Z</time></trkpt><trkpt lat="45.1285933" lon="7.9455"><ele>206.75</ele><time>2026-04-12T11:10:25.874Z</time></trkpt><trkpt lat="45.1286167" lon="7.9456683"><ele>206.5</ele><time>2026-04-12T11:10:26.875Z</time></trkpt><trkpt lat="45.1286583" lon="7.9458433"><ele>206.25</ele><time>2026-04-12T11:10:27.874Z</time></trkpt><trkpt lat="45.128695" lon="7.9460167"><ele>206.0</ele><time>2026-04-12T11:10:28.875Z</time></trkpt><trkpt lat="45.12873" lon="7.9462"><ele>205.75</ele><time>2026-04-12T11:10:29.874Z</time></trkpt><trkpt lat="45.1287617" lon="7.94638"><ele>205.5</ele><time>2026-04-12T11:10:30.875Z</time></trkpt><trkpt lat="45.1287933" lon="7.9465667"><ele>205.25</ele><time>2026-04-12T11:10:31.874Z</time></trkpt><trkpt lat="45.1288283" lon="7.9467567"><ele>205.0</ele><time>2026-04-12T11:10:32.874Z</time></trkpt><trkpt lat="45.1288717" lon="7.94694"><ele>205.0</ele><time>2026-04-12T11:10:33.875Z</time></trkpt><trkpt lat="45.1289133" lon="7.9471233"><ele>205.0</ele><time>2026-04-12T11:10:34.875Z</time></trkpt><trkpt lat="45.12895" lon="7.9473217"><ele>205.0</ele><time>2026-04-12T11:10:35.875Z</time></trkpt><trkpt lat="45.1289867" lon="7.9475117"><ele>205.0</ele><time>2026-04-12T11:10:36.874Z</time></trkpt><trkpt lat="45.129035" lon="7.9476983"><ele>205.33333333333331</ele><time>2026-04-12T11:10:37.875Z</time></trkpt><trkpt lat="45.1290883" lon="7.9478883"><ele>205.66666666666669</ele><time>2026-04-12T11:10:38.874Z</time></trkpt><trkpt lat="45.1291633" lon="7.9480767"><ele>206.0</ele><time>2026-04-12T11:10:39.874Z</time></trkpt><trkpt lat="45.1292517" lon="7.9482583"><ele>205.33333333333334</ele><time>2026-04-12T11:10:40.875Z</time></trkpt><trkpt lat="45.129345" lon="7.9484267"><ele>204.66666666666669</ele><time>2026-04-12T11:10:41.875Z</time></trkpt><trkpt lat="45.129445" lon="7.9486017"><ele>204.0</ele><time>2026-04-12T11:10:42.874Z</time></trkpt><trkpt lat="45.1295417" lon="7.9487733"><ele>204.0</ele><time>2026-04-12T11:10:43.874Z</time></trkpt><trkpt lat="45.1296283" lon="7.948935"><ele>204.0</ele><time>2026-04-12T11:10:44.874Z</time></trkpt><trkpt lat="45.12972" lon="7.949095"><ele>204.0</ele><time>2026-04-12T11:10:45.874Z</time></trkpt><trkpt lat="45.1298133" lon="7.9492633"><ele>204.0</ele><time>2026-04-12T11:10:46.874Z</time></trkpt><trkpt lat="45.129895" lon="7.9494367"><ele>205.25</ele><time>2026-04-12T11:10:47.875Z</time></trkpt><trkpt lat="45.12996" lon="7.94962"><ele>206.5</ele><time>2026-04-12T11:10:48.874Z</time></trkpt><trkpt lat="45.1300233" lon="7.9498083"><ele>207.75</ele><time>2026-04-12T11:10:49.875Z</time></trkpt><trkpt lat="45.1300567" lon="7.9500217"><ele>209.0</ele><time>2026-04-12T11:10:50.875Z</time></trkpt><trkpt lat="45.130055" lon="7.9502367"><ele>210.75</ele><time>2026-04-12T11:10:51.875Z</time></trkpt><trkpt lat="45.130035" lon="7.9504417"><ele>212.5</ele><time>2026-04-12T11:10:52.874Z</time></trkpt><trkpt lat="45.1299967" lon="7.9506467"><ele>214.25</ele><time>2026-04-12T11:10:53.874Z</time></trkpt><trkpt lat="45.1299617" lon="7.95084"><ele>216.0</ele><time>2026-04-12T11:10:54.874Z</time></trkpt><trkpt lat="45.12993" lon="7.9510517"><ele>217.25</ele><time>2026-04-12T11:10:55.874Z</time></trkpt><trkpt lat="45.1299183" lon="7.9512667"><ele>218.5</ele><time>2026-04-12T11:10:56.875Z</time></trkpt><trkpt lat="45.1299283" lon="7.9514683"><ele>219.75</ele><time>2026-04-12T11:10:57.875Z</time></trkpt><trkpt lat="45.12995" lon="7.951675"><ele>221.0</ele><time>2026-04-12T11:10:58.875Z</time></trkpt><trkpt lat="45.129985" lon="7.9518867"><ele>221.0</ele><time>2026-04-12T11:10:59.874Z</time></trkpt><trkpt lat="45.1300267" lon="7.952095"><ele>221.0</ele><time>2026-04-12T11:11:00.875Z</time></trkpt><trkpt lat="45.1300833" lon="7.95229"><ele>221.0</ele><time>2026-04-12T11:11:01.875Z</time></trkpt><trkpt lat="45.1301467" lon="7.9524933"><ele>220.0</ele><time>2026-04-12T11:11:02.874Z</time></trkpt><trkpt lat="45.1302117" lon="7.9526933"><ele>219.0</ele><time>2026-04-12T11:11:03.874Z</time></trkpt><trkpt lat="45.1302717" lon="7.9528967"><ele>218.0</ele><time>2026-04-12T11:11:04.874Z</time></trkpt><trkpt lat="45.130325" lon="7.953115"><ele>218.0</ele><time>2026-04-12T11:11:05.875Z</time></trkpt><trkpt lat="45.1303583" lon="7.9533367"><ele>218.0</ele><time>2026-04-12T11:11:06.875Z</time></trkpt><trkpt lat="45.1303883" lon="7.9535533"><ele>218.0</ele><time>2026-04-12T11:11:07.875Z</time></trkpt><trkpt lat="45.1304283" lon="7.9537667"><ele>217.0</ele><time>2026-04-12T11:11:08.875Z</time></trkpt><trkpt lat="45.13049" lon="7.9539633"><ele>216.0</ele><time>2026-04-12T11:11:09.874Z</time></trkpt><trkpt lat="45.1305633" lon="7.9541533"><ele>215.0</ele><time>2026-04-12T11:11:10.875Z</time></trkpt><trkpt lat="45.1306317" lon="7.95433"><ele>214.0</ele><time>2026-04-12T11:11:11.875Z</time></trkpt><trkpt lat="45.130665" lon="7.9545067"><ele>213.75</ele><time>2026-04-12T11:11:12.874Z</time></trkpt><trkpt lat="45.1306633" lon="7.9546917"><ele>213.5</ele><time>2026-04-12T11:11:13.874Z</time></trkpt><trkpt lat="45.130665" lon="7.9548717"><ele>213.25</ele><time>2026-04-12T11:11:14.874Z</time></trkpt><trkpt lat="45.1306667" lon="7.9550517"><ele>213.0</ele><time>2026-04-12T11:11:15.875Z</time></trkpt><trkpt lat="45.13064" lon="7.95523"><ele>213.5</ele><time>2026-04-12T11:11:16.875Z</time></trkpt><trkpt lat="45.1305633" lon="7.9553783"><ele>214.0</ele><time>2026-04-12T11:11:17.875Z</time></trkpt><trkpt lat="45.1304633" lon="7.95548"><ele>214.5</ele><time>2026-04-12T11:11:18.875Z</time></trkpt><trkpt lat="45.13036" lon="7.9555633"><ele>215.0</ele><time>2026-04-12T11:11:19.875Z</time></trkpt><trkpt lat="45.13028" lon="7.95567"><ele>215.0</ele><time>2026-04-12T11:11:20.874Z</time></trkpt><trkpt lat="45.1302383" lon="7.9558167"><ele>215.0</ele><time>2026-04-12T11:11:21.875Z</time></trkpt><trkpt lat="45.13023" lon="7.9559767"><ele>215.0</ele><time>2026-04-12T11:11:22.875Z</time></trkpt><trkpt lat="45.1302517" lon="7.9561533"><ele>215.0</ele><time>2026-04-12T11:11:23.875Z</time></trkpt><trkpt lat="45.1302867" lon="7.9563383"><ele>215.25</ele><time>2026-04-12T11:11:24.874Z</time></trkpt><trkpt lat="45.13031" lon="7.95653"><ele>215.5</ele><time>2026-04-12T11:11:25.874Z</time></trkpt><trkpt lat="45.130335" lon="7.9567433"><ele>215.75</ele><time>2026-04-12T11:11:26.874Z</time></trkpt><trkpt lat="45.1303667" lon="7.9569567"><ele>216.0</ele><time>2026-04-12T11:11:27.875Z</time></trkpt><trkpt lat="45.1304017" lon="7.9571683"><ele>216.0</ele><time>2026-04-12T11:11:28.874Z</time></trkpt><trkpt lat="45.1304383" lon="7.95739"><ele>216.0</ele><time>2026-04-12T11:11:29.874Z</time></trkpt><trkpt lat="45.1304767" lon="7.9576083"><ele>216.0</ele><time>2026-04-12T11:11:30.874Z</time></trkpt><trkpt lat="45.1305117" lon="7.9578217"><ele>216.75</ele><time>2026-04-12T11:11:31.875Z</time></trkpt><trkpt lat="45.1305233" lon="7.9580333"><ele>217.5</ele><time>2026-04-12T11:11:32.875Z</time></trkpt><trkpt lat="45.1305117" lon="7.95824"><ele>218.25</ele><time>2026-04-12T11:11:33.875Z</time></trkpt><trkpt lat="45.1304833" lon="7.9584467"><ele>219.0</ele><time>2026-04-12T11:11:34.874Z</time></trkpt><trkpt lat="45.1304533" lon="7.9586567"><ele>220.5</ele><time>2026-04-12T11:11:35.875Z</time></trkpt><trkpt lat="45.1304267" lon="7.9588633"><ele>222.0</ele><time>2026-04-12T11:11:36.874Z</time></trkpt><trkpt lat="45.13042" lon="7.9590717"><ele>223.5</ele><time>2026-04-12T11:11:37.875Z</time></trkpt><trkpt lat="45.1304117" lon="7.959285"><ele>225.0</ele><time>2026-04-12T11:11:38.875Z</time></trkpt><trkpt lat="45.1304317" lon="7.9594917"><ele>227.0</ele><time>2026-04-12T11:11:39.874Z</time></trkpt><trkpt lat="45.1304367" lon="7.95971"><ele>229.0</ele><time>2026-04-12T11:11:40.875Z</time></trkpt><trkpt lat="45.13043" lon="7.95993"><ele>231.0</ele><time>2026-04-12T11:11:41.874Z</time></trkpt><trkpt lat="45.1304183" lon="7.9601483"><ele>232.0</ele><time>2026-04-12T11:11:42.875Z</time></trkpt><trkpt lat="45.1304017" lon="7.9603583"><ele>233.0</ele><time>2026-04-12T11:11:43.875Z</time></trkpt><trkpt lat="45.1303883" lon="7.9605633"><ele>234.0</ele><time>2026-04-12T11:11:44.875Z</time></trkpt><trkpt lat="45.13038" lon="7.9607667"><ele>235.0</ele><time>2026-04-12T11:11:45.874Z</time></trkpt><trkpt lat="45.1303867" lon="7.9609633"><ele>235.75</ele><time>2026-04-12T11:11:46.874Z</time></trkpt><trkpt lat="45.1304067" lon="7.9611583"><ele>236.5</ele><time>2026-04-12T11:11:47.875Z</time></trkpt><trkpt lat="45.1304533" lon="7.9613283"><ele>237.25</ele><time>2026-04-12T11:11:48.875Z</time></trkpt><trkpt lat="45.130515" lon="7.961535"><ele>238.0</ele><time>2026-04-12T11:11:49.874Z</time></trkpt><trkpt lat="45.13058" lon="7.9617233"><ele>239.33333333333331</ele><time>2026-04-12T11:11:50.874Z</time></trkpt><trkpt lat="45.1306383" lon="7.9619167"><ele>240.66666666666669</ele><time>2026-04-12T11:11:51.874Z</time></trkpt><trkpt lat="45.130695" lon="7.9621183"><ele>242.0</ele><time>2026-04-12T11:11:52.874Z</time></trkpt><trkpt lat="45.1307483" lon="7.962315"><ele>245.25</ele><time>2026-04-12T11:11:53.875Z</time></trkpt><trkpt lat="45.130805" lon="7.9625017"><ele>248.5</ele><time>2026-04-12T11:11:54.875Z</time></trkpt><trkpt lat="45.1308617" lon="7.9626817"><ele>251.75</ele><time>2026-04-12T11:11:55.874Z</time></trkpt><trkpt lat="45.1309133" lon="7.9628633"><ele>255.0</ele><time>2026-04-12T11:11:56.874Z</time></trkpt><trkpt lat="45.130955" lon="7.9630417"><ele>256.5</ele><time>2026-04-12T11:11:57.874Z</time></trkpt><trkpt lat="45.1309717" lon="7.9632317"><ele>258.0</ele><time>2026-04-12T11:11:58.874Z</time></trkpt><trkpt lat="45.13097" lon="7.9634117"><ele>259.5</ele><time>2026-04-12T11:11:59.874Z</time></trkpt><trkpt lat="45.13093" lon="7.96361"><ele>261.0</ele><time>2026-04-12T11:12:00.874Z</time></trkpt><trkpt lat="45.1308817" lon="7.96381"><ele>263.0</ele><time>2026-04-12T11:12:01.874Z</time></trkpt><trkpt lat="45.1308233" lon="7.963995"><ele>265.0</ele><time>2026-04-12T11:12:02.874Z</time></trkpt><trkpt lat="45.1307567" lon="7.9642133"><ele>267.0</ele><time>2026-04-12T11:12:03.875Z</time></trkpt><trkpt lat="45.130705" lon="7.96442"><ele>267.0</ele><time>2026-04-12T11:12:04.875Z</time></trkpt><trkpt lat="45.1306467" lon="7.9646217"><ele>267.0</ele><time>2026-04-12T11:12:05.874Z</time></trkpt><trkpt lat="45.1305933" lon="7.9648233"><ele>267.0</ele><time>2026-04-12T11:12:06.874Z</time></trkpt><trkpt lat="45.1305483" lon="7.96502"><ele>270.0</ele><time>2026-04-12T11:12:07.874Z</time></trkpt><trkpt lat="45.1305033" lon="7.965225"><ele>273.0</ele><time>2026-04-12T11:12:08.874Z</time></trkpt><trkpt lat="45.13046" lon="7.9654367"><ele>276.0</ele><time>2026-04-12T11:12:09.874Z</time></trkpt><trkpt lat="45.1304083" lon="7.965655"><ele>280.0</ele><time>2026-04-12T11:12:10.875Z</time></trkpt><trkpt lat="45.13037" lon="7.9658633"><ele>284.0</ele><time>2026-04-12T11:12:11.875Z</time></trkpt><trkpt lat="45.130335" lon="7.9660683"><ele>288.0</ele><time>2026-04-12T11:12:12.875Z</time></trkpt><trkpt lat="45.13031" lon="7.9662783"><ele>288.0</ele><time>2026-04-12T11:12:13.875Z</time></trkpt><trkpt lat="45.1302833" lon="7.9664917"><ele>288.0</ele><time>2026-04-12T11:12:14.874Z</time></trkpt><trkpt lat="45.1302617" lon="7.9667033"><ele>288.0</ele><time>2026-04-12T11:12:15.874Z</time></trkpt><trkpt lat="45.1302617" lon="7.9669267"><ele>291.6666666666667</ele><time>2026-04-12T11:12:16.874Z</time></trkpt><trkpt lat="45.13027" lon="7.967145"><ele>295.33333333333337</ele><time>2026-04-12T11:12:17.875Z</time></trkpt><trkpt lat="45.1302667" lon="7.9673633"><ele>299.0</ele><time>2026-04-12T11:12:18.874Z</time></trkpt><trkpt lat="45.130235" lon="7.9675783"><ele>302.0</ele><time>2026-04-12T11:12:19.874Z</time></trkpt><trkpt lat="45.1301833" lon="7.9677833"><ele>305.0</ele><time>2026-04-12T11:12:20.874Z</time></trkpt><trkpt lat="45.1301383" lon="7.967985"><ele>308.0</ele><time>2026-04-12T11:12:21.874Z</time></trkpt><trkpt lat="45.1300817" lon="7.968185"><ele>308.33333333333337</ele><time>2026-04-12T11:12:22.875Z</time></trkpt><trkpt lat="45.1300133" lon="7.9683983"><ele>308.6666666666667</ele><time>2026-04-12T11:12:23.875Z</time></trkpt><trkpt lat="45.1299517" lon="7.9686067"><ele>309.0</ele><time>2026-04-12T11:12:24.874Z</time></trkpt><trkpt lat="45.1298917" lon="7.9688017"><ele>310.3333333333333</ele><time>2026-04-12T11:12:25.875Z</time></trkpt><trkpt lat="45.1298367" lon="7.969"><ele>311.66666666666663</ele><time>2026-04-12T11:12:26.874Z</time></trkpt><trkpt lat="45.1297933" lon="7.9692067"><ele>313.0</ele><time>2026-04-12T11:12:27.875Z</time></trkpt><trkpt lat="45.1297883" lon="7.9694317"><ele>313.0</ele><time>2026-04-12T11:12:28.874Z</time></trkpt><trkpt lat="45.12982" lon="7.969645"><ele>313.0</ele><time>2026-04-12T11:12:29.875Z</time></trkpt><trkpt lat="45.129865" lon="7.96985"><ele>313.0</ele><time>2026-04-12T11:12:30.875Z</time></trkpt><trkpt lat="45.1299033" lon="7.9700533"><ele>313.5</ele><time>2026-04-12T11:12:31.874Z</time></trkpt><trkpt lat="45.12992" lon="7.970245"><ele>314.0</ele><time>2026-04-12T11:12:32.874Z</time></trkpt><trkpt lat="45.129925" lon="7.97042"><ele>314.5</ele><time>2026-04-12T11:12:33.875Z</time></trkpt><trkpt lat="45.12988" lon="7.9705767"><ele>315.0</ele><time>2026-04-12T11:12:34.875Z</time></trkpt><trkpt lat="45.129825" lon="7.9707117"><ele>317.5</ele><time>2026-04-12T11:12:35.874Z</time></trkpt><trkpt lat="45.1297667" lon="7.9708717"><ele>320.0</ele><time>2026-04-12T11:12:36.875Z</time></trkpt><trkpt lat="45.12972" lon="7.9710533"><ele>322.5</ele><time>2026-04-12T11:12:37.874Z</time></trkpt><trkpt lat="45.129695" lon="7.97124"><ele>325.0</ele><time>2026-04-12T11:12:38.875Z</time></trkpt><trkpt lat="45.1296867" lon="7.9714217"><ele>325.0</ele><time>2026-04-12T11:12:39.875Z</time></trkpt><trkpt lat="45.1297033" lon="7.9715883"><ele>325.0</ele><time>2026-04-12T11:12:40.874Z</time></trkpt><trkpt lat="45.1297117" lon="7.97175"><ele>325.0</ele><time>2026-04-12T11:12:41.875Z</time></trkpt><trkpt lat="45.129705" lon="7.9719117"><ele>325.0</ele><time>2026-04-12T11:12:42.874Z</time></trkpt><trkpt lat="45.1296667" lon="7.9720733"><ele>329.0</ele><time>2026-04-12T11:12:43.874Z</time></trkpt><trkpt lat="45.1295983" lon="7.972215"><ele>333.0</ele><time>2026-04-12T11:12:44.874Z</time></trkpt><trkpt lat="45.1295167" lon="7.97236"><ele>337.0</ele><time>2026-04-12T11:12:45.874Z</time></trkpt><trkpt lat="45.1294417" lon="7.9725183"><ele>341.0</ele><time>2026-04-12T11:12:46.875Z</time></trkpt><trkpt lat="45.1293617" lon="7.9726833"><ele>341.0</ele><time>2026-04-12T11:12:47.874Z</time></trkpt><trkpt lat="45.129295" lon="7.972825"><ele>341.0</ele><time>2026-04-12T11:12:48.875Z</time></trkpt><trkpt lat="45.12922" lon="7.97295"><ele>341.0</ele><time>2026-04-12T11:12:49.875Z</time></trkpt><trkpt lat="45.129145" lon="7.9730317"><ele>341.0</ele><time>2026-04-12T11:12:50.874Z</time></trkpt><trkpt lat="45.129055" lon="7.9730867"><ele>341.0</ele><time>2026-04-12T11:12:51.874Z</time></trkpt><trkpt lat="45.1289583" lon="7.9731083"><ele>341.0</ele><time>2026-04-12T11:12:52.874Z</time></trkpt><trkpt lat="45.1288633" lon="7.973115"><ele>341.0</ele><time>2026-04-12T11:12:53.875Z</time></trkpt><trkpt lat="45.12878" lon="7.9731383"><ele>341.0</ele><time>2026-04-12T11:12:54.874Z</time></trkpt><trkpt lat="45.1287" lon="7.9732017"><ele>341.0</ele><time>2026-04-12T11:12:55.874Z</time></trkpt><trkpt lat="45.128635" lon="7.9732817"><ele>341.0</ele><time>2026-04-12T11:12:56.874Z</time></trkpt><trkpt lat="45.1285867" lon="7.9733867"><ele>341.0</ele><time>2026-04-12T11:12:57.874Z</time></trkpt><trkpt lat="45.128565" lon="7.9735133"><ele>342.25</ele><time>2026-04-12T11:12:58.875Z</time></trkpt><trkpt lat="45.128555" lon="7.973655"><ele>343.5</ele><time>2026-04-12T11:12:59.875Z</time></trkpt><trkpt lat="45.1285683" lon="7.9738417"><ele>344.75</ele><time>2026-04-12T11:13:00.874Z</time></trkpt><trkpt lat="45.12857" lon="7.9740183"><ele>346.0</ele><time>2026-04-12T11:13:01.874Z</time></trkpt><trkpt lat="45.128555" lon="7.97419"><ele>348.25</ele><time>2026-04-12T11:13:02.875Z</time></trkpt><trkpt lat="45.1285133" lon="7.974345"><ele>350.5</ele><time>2026-04-12T11:13:03.874Z</time></trkpt><trkpt lat="45.1284467" lon="7.9744933"><ele>352.75</ele><time>2026-04-12T11:13:04.874Z</time></trkpt><trkpt lat="45.1284017" lon="7.9746383"><ele>355.0</ele><time>2026-04-12T11:13:05.875Z</time></trkpt><trkpt lat="45.1284" lon="7.974785"><ele>355.0</ele><time>2026-04-12T11:13:06.874Z</time></trkpt><trkpt lat="45.1284133" lon="7.9749317"><ele>355.0</ele><time>2026-04-12T11:13:07.874Z</time></trkpt><trkpt lat="45.12846" lon="7.975065"><ele>355.0</ele><time>2026-04-12T11:13:08.875Z</time></trkpt><trkpt lat="45.1285367" lon="7.9751883"><ele>355.0</ele><time>2026-04-12T11:13:09.875Z</time></trkpt><trkpt lat="45.1286117" lon="7.9752883"><ele>355.0</ele><time>2026-04-12T11:13:10.875Z</time></trkpt><trkpt lat="45.12869" lon="7.9753867"><ele>356.3333333333333</ele><time>2026-04-12T11:13:11.875Z</time></trkpt><trkpt lat="45.1287467" lon="7.975475"><ele>357.66666666666663</ele><time>2026-04-12T11:13:12.875Z</time></trkpt><trkpt lat="45.128785" lon="7.9755917"><ele>359.0</ele><time>2026-04-12T11:13:13.875Z</time></trkpt><trkpt lat="45.1287883" lon="7.9757"><ele>360.3333333333333</ele><time>2026-04-12T11:13:14.874Z</time></trkpt><trkpt lat="45.1287683" lon="7.9758133"><ele>361.6666666666667</ele><time>2026-04-12T11:13:15.874Z</time></trkpt><trkpt lat="45.1287183" lon="7.9759333"><ele>363.0</ele><time>2026-04-12T11:13:16.875Z</time></trkpt><trkpt lat="45.1286383" lon="7.9760583"><ele>367.25</ele><time>2026-04-12T11:13:17.874Z</time></trkpt><trkpt lat="45.1285233" lon="7.97618"><ele>371.5</ele><time>2026-04-12T11:13:18.874Z</time></trkpt><trkpt lat="45.1284117" lon="7.9762667"><ele>375.75</ele><time>2026-04-12T11:13:19.875Z</time></trkpt><trkpt lat="45.1282767" lon="7.976315"><ele>380.0</ele><time>2026-04-12T11:13:20.875Z</time></trkpt><trkpt lat="45.1281333" lon="7.976305"><ele>380.0</ele><time>2026-04-12T11:13:21.875Z</time></trkpt><trkpt lat="45.1280083" lon="7.9762717"><ele>380.0</ele><time>2026-04-12T11:13:22.874Z</time></trkpt><trkpt lat="45.1278933" lon="7.9762683"><ele>380.0</ele><time>2026-04-12T11:13:23.875Z</time></trkpt><trkpt lat="45.1277917" lon="7.97633"><ele>380.0</ele><time>2026-04-12T11:13:24.875Z</time></trkpt><trkpt lat="45.1277017" lon="7.9764167"><ele>380.0</ele><time>2026-04-12T11:13:25.874Z</time></trkpt><trkpt lat="45.1275967" lon="7.9764833"><ele>380.0</ele><time>2026-04-12T11:13:26.875Z</time></trkpt><trkpt lat="45.12749" lon="7.9764983"><ele>380.0</ele><time>2026-04-12T11:13:27.874Z</time></trkpt><trkpt lat="45.1273833" lon="7.9764833"><ele>380.0</ele><time>2026-04-12T11:13:28.875Z</time></trkpt><trkpt lat="45.1272833" lon="7.9764817"><ele>380.0</ele><time>2026-04-12T11:13:29.875Z</time></trkpt><trkpt lat="45.1272" lon="7.9765317"><ele>374.8</ele><time>2026-04-12T11:13:30.874Z</time></trkpt><trkpt lat="45.12715" lon="7.9766267"><ele>369.6</ele><time>2026-04-12T11:13:31.875Z</time></trkpt><trkpt lat="45.127125" lon="7.9767483"><ele>364.4</ele><time>2026-04-12T11:13:32.875Z</time></trkpt><trkpt lat="45.1271333" lon="7.9769033"><ele>359.2</ele><time>2026-04-12T11:13:33.874Z</time></trkpt><trkpt lat="45.1271683" lon="7.9770783"><ele>354.0</ele><time>2026-04-12T11:13:34.874Z</time></trkpt><trkpt lat="45.1272217" lon="7.977265"><ele>353.0</ele><time>2026-04-12T11:13:35.874Z</time></trkpt><trkpt lat="45.1272583" lon="7.977455"><ele>352.0</ele><time>2026-04-12T11:13:36.875Z</time></trkpt><trkpt lat="45.1272483" lon="7.9776533"><ele>351.0</ele><time>2026-04-12T11:13:37.874Z</time></trkpt><trkpt lat="45.1272183" lon="7.9778467"><ele>350.0</ele><time>2026-04-12T11:13:38.875Z</time></trkpt><trkpt lat="45.12721" lon="7.97803"><ele>352.5</ele><time>2026-04-12T11:13:39.874Z</time></trkpt><trkpt lat="45.1272133" lon="7.9782233"><ele>355.0</ele><time>2026-04-12T11:13:40.874Z</time></trkpt><trkpt lat="45.127225" lon="7.97842"><ele>357.5</ele><time>2026-04-12T11:13:41.874Z</time></trkpt><trkpt lat="45.127235" lon="7.9786117"><ele>360.0</ele><time>2026-04-12T11:13:42.874Z</time></trkpt><trkpt lat="45.127225" lon="7.9788"><ele>361.5</ele><time>2026-04-12T11:13:43.875Z</time></trkpt><trkpt lat="45.1272017" lon="7.9789667"><ele>363.0</ele><time>2026-04-12T11:13:44.874Z</time></trkpt><trkpt lat="45.1271517" lon="7.9791283"><ele>364.5</ele><time>2026-04-12T11:13:45.874Z</time></trkpt><trkpt lat="45.12707" lon="7.9792667"><ele>366.0</ele><time>2026-04-12T11:13:46.874Z</time></trkpt><trkpt lat="45.1269567" lon="7.97934"><ele>366.0</ele><time>2026-04-12T11:13:47.875Z</time></trkpt><trkpt lat="45.12683" lon="7.9793633"><ele>366.0</ele><time>2026-04-12T11:13:48.875Z</time></trkpt><trkpt lat="45.12671" lon="7.9793383"><ele>366.0</ele><time>2026-04-12T11:13:49.874Z</time></trkpt><trkpt lat="45.1265683" lon="7.979285"><ele>366.0</ele><time>2026-04-12T11:13:50.875Z</time></trkpt><trkpt lat="45.1264267" lon="7.9792183"><ele>370.3333333333333</ele><time>2026-04-12T11:13:51.875Z</time></trkpt><trkpt lat="45.1262817" lon="7.97915"><ele>374.66666666666663</ele><time>2026-04-12T11:13:52.874Z</time></trkpt><trkpt lat="45.1261383" lon="7.9790817"><ele>379.0</ele><time>2026-04-12T11:13:53.874Z</time></trkpt><trkpt lat="45.12599" lon="7.979055"><ele>379.0</ele><time>2026-04-12T11:13:54.875Z</time></trkpt><trkpt lat="45.125845" lon="7.97907"><ele>379.0</ele><time>2026-04-12T11:13:55.874Z</time></trkpt><trkpt lat="45.1256967" lon="7.9791233"><ele>379.0</ele><time>2026-04-12T11:13:56.875Z</time></trkpt><trkpt lat="45.1255467" lon="7.9791617"><ele>384.0</ele><time>2026-04-12T11:13:57.875Z</time></trkpt><trkpt lat="45.1254067" lon="7.97921"><ele>389.0</ele><time>2026-04-12T11:13:58.875Z</time></trkpt><trkpt lat="45.1252767" lon="7.9792617"><ele>394.0</ele><time>2026-04-12T11:13:59.875Z</time></trkpt><trkpt lat="45.125145" lon="7.979315"><ele>399.0</ele><time>2026-04-12T11:14:00.874Z</time></trkpt><trkpt lat="45.1250083" lon="7.9793717"><ele>399.25</ele><time>2026-04-12T11:14:01.874Z</time></trkpt><trkpt lat="45.1248883" lon="7.979435"><ele>399.5</ele><time>2026-04-12T11:14:02.875Z</time></trkpt><trkpt lat="45.1247633" lon="7.9795017"><ele>399.75</ele><time>2026-04-12T11:14:03.874Z</time></trkpt><trkpt lat="45.1246533" lon="7.9795683"><ele>400.0</ele><time>2026-04-12T11:14:04.874Z</time></trkpt><trkpt lat="45.124525" lon="7.9796533"><ele>400.0</ele><time>2026-04-12T11:14:05.874Z</time></trkpt><trkpt lat="45.1243883" lon="7.97973"><ele>400.0</ele><time>2026-04-12T11:14:06.874Z</time></trkpt><trkpt lat="45.1242717" lon="7.9798483"><ele>400.0</ele><time>2026-04-12T11:14:07.874Z</time></trkpt><trkpt lat="45.1241483" lon="7.9799817"><ele>400.0</ele><time>2026-04-12T11:14:08.874Z</time></trkpt><trkpt lat="45.12401" lon="7.9801033"><ele>399.6666666666667</ele><time>2026-04-12T11:14:09.875Z</time></trkpt><trkpt lat="45.123865" lon="7.9802117"><ele>399.33333333333337</ele><time>2026-04-12T11:14:10.874Z</time></trkpt><trkpt lat="45.1237183" lon="7.9803133"><ele>399.0</ele><time>2026-04-12T11:14:11.874Z</time></trkpt><trkpt lat="45.1235717" lon="7.9804"><ele>399.0</ele><time>2026-04-12T11:14:12.874Z</time></trkpt><trkpt lat="45.123425" lon="7.9804767"><ele>399.0</ele><time>2026-04-12T11:14:13.874Z</time></trkpt><trkpt lat="45.1232733" lon="7.9805367"><ele>399.0</ele><time>2026-04-12T11:14:14.875Z</time></trkpt><trkpt lat="45.123145" lon="7.98059"><ele>399.0</ele><time>2026-04-12T11:14:15.875Z</time></trkpt><trkpt lat="45.1230133" lon="7.9806533"><ele>397.5</ele><time>2026-04-12T11:14:16.875Z</time></trkpt><trkpt lat="45.1228817" lon="7.980755"><ele>396.0</ele><time>2026-04-12T11:14:17.875Z</time></trkpt><trkpt lat="45.122755" lon="7.980865"><ele>394.5</ele><time>2026-04-12T11:14:18.874Z</time></trkpt><trkpt lat="45.1226433" lon="7.980975"><ele>393.0</ele><time>2026-04-12T11:14:19.874Z</time></trkpt><trkpt lat="45.1225467" lon="7.9810883"><ele>393.0</ele><time>2026-04-12T11:14:20.875Z</time></trkpt><trkpt lat="45.1224533" lon="7.9811867"><ele>393.0</ele><time>2026-04-12T11:14:21.875Z</time></trkpt><trkpt lat="45.1223517" lon="7.9812783"><ele>393.0</ele><time>2026-04-12T11:14:22.874Z</time></trkpt><trkpt lat="45.1222733" lon="7.9813867"><ele>393.0</ele><time>2026-04-12T11:14:23.874Z</time></trkpt><trkpt lat="45.12222" lon="7.9815083"><ele>393.0</ele><time>2026-04-12T11:14:24.874Z</time></trkpt><trkpt lat="45.1221733" lon="7.9816483"><ele>390.5</ele><time>2026-04-12T11:14:25.875Z</time></trkpt><trkpt lat="45.1221333" lon="7.9818067"><ele>388.0</ele><time>2026-04-12T11:14:26.875Z</time></trkpt><trkpt lat="45.1220917" lon="7.9820067"><ele>385.5</ele><time>2026-04-12T11:14:27.874Z</time></trkpt><trkpt lat="45.1220383" lon="7.98219"><ele>383.0</ele><time>2026-04-12T11:14:28.875Z</time></trkpt><trkpt lat="45.1219733" lon="7.9823533"><ele>383.0</ele><time>2026-04-12T11:14:29.874Z</time></trkpt><trkpt lat="45.1218833" lon="7.982485"><ele>383.0</ele><time>2026-04-12T11:14:30.875Z</time></trkpt><trkpt lat="45.1217667" lon="7.9826117"><ele>383.0</ele><time>2026-04-12T11:14:31.875Z</time></trkpt><trkpt lat="45.1216383" lon="7.9827267"><ele>383.0</ele><time>2026-04-12T11:14:32.876Z</time></trkpt><trkpt lat="45.1215117" lon="7.982795"><ele>386.0</ele><time>2026-04-12T11:14:33.876Z</time></trkpt><trkpt lat="45.121385" lon="7.9828333"><ele>389.0</ele><time>2026-04-12T11:14:34.876Z</time></trkpt><trkpt lat="45.1212483" lon="7.9828433"><ele>392.0</ele><time>2026-04-12T11:14:35.875Z</time></trkpt><trkpt lat="45.1211217" lon="7.9828367"><ele>395.0</ele><time>2026-04-12T11:14:36.875Z</time></trkpt><trkpt lat="45.121" lon="7.9828167"><ele>395.0</ele><time>2026-04-12T11:14:37.876Z</time></trkpt><trkpt lat="45.1208867" lon="7.9827933"><ele>395.0</ele><time>2026-04-12T11:14:38.875Z</time></trkpt><trkpt lat="45.1207767" lon="7.9827883"><ele>395.0</ele><time>2026-04-12T11:14:39.876Z</time></trkpt><trkpt lat="45.1206633" lon="7.9827883"><ele>395.0</ele><time>2026-04-12T11:14:40.876Z</time></trkpt><trkpt lat="45.1205467" lon="7.9827933"><ele>397.5</ele><time>2026-04-12T11:14:41.876Z</time></trkpt><trkpt lat="45.1204317" lon="7.9828317"><ele>400.0</ele><time>2026-04-12T11:14:42.875Z</time></trkpt><trkpt lat="45.120315" lon="7.9828933"><ele>402.5</ele><time>2026-04-12T11:14:43.875Z</time></trkpt><trkpt lat="45.1202" lon="7.9829733"><ele>405.0</ele><time>2026-04-12T11:14:44.875Z</time></trkpt><trkpt lat="45.120095" lon="7.9830783"><ele>405.0</ele><time>2026-04-12T11:14:45.875Z</time></trkpt><trkpt lat="45.1200033" lon="7.98321"><ele>405.0</ele><time>2026-04-12T11:14:46.876Z</time></trkpt><trkpt lat="45.1199217" lon="7.9833667"><ele>405.0</ele><time>2026-04-12T11:14:47.875Z</time></trkpt><trkpt lat="45.1198517" lon="7.9835267"><ele>405.0</ele><time>2026-04-12T11:14:48.876Z</time></trkpt><trkpt lat="45.119785" lon="7.9836983"><ele>407.0</ele><time>2026-04-12T11:14:49.875Z</time></trkpt><trkpt lat="45.119725" lon="7.9838767"><ele>409.0</ele><time>2026-04-12T11:14:50.876Z</time></trkpt><trkpt lat="45.11967" lon="7.9840433"><ele>411.0</ele><time>2026-04-12T11:14:51.876Z</time></trkpt><trkpt lat="45.1196167" lon="7.98418"><ele>413.0</ele><time>2026-04-12T11:14:52.875Z</time></trkpt><trkpt lat="45.11957" lon="7.9842917"><ele>415.49999999999994</ele><time>2026-04-12T11:14:53.876Z</time></trkpt><trkpt lat="45.1195233" lon="7.98438"><ele>418.0</ele><time>2026-04-12T11:14:54.876Z</time></trkpt><trkpt lat="45.11948" lon="7.98445"><ele>420.5</ele><time>2026-04-12T11:14:55.875Z</time></trkpt><trkpt lat="45.1194017" lon="7.9845733"><ele>423.0</ele><time>2026-04-12T11:14:57.875Z</time></trkpt><trkpt lat="45.1193583" lon="7.9846567"><ele>425.49999999999994</ele><time>2026-04-12T11:14:58.876Z</time></trkpt><trkpt lat="45.11932" lon="7.9847533"><ele>428.0</ele><time>2026-04-12T11:14:59.875Z</time></trkpt><trkpt lat="45.11928" lon="7.984855"><ele>428.0</ele><time>2026-04-12T11:15:00.875Z</time></trkpt><trkpt lat="45.11924" lon="7.9849767"><ele>428.0</ele><time>2026-04-12T11:15:01.875Z</time></trkpt><trkpt lat="45.1192017" lon="7.9851283"><ele>428.0</ele><time>2026-04-12T11:15:02.875Z</time></trkpt><trkpt lat="45.119165" lon="7.9853033"><ele>428.0</ele><time>2026-04-12T11:15:03.876Z</time></trkpt><trkpt lat="45.1191433" lon="7.98548"><ele>428.5</ele><time>2026-04-12T11:15:04.876Z</time></trkpt><trkpt lat="45.1191517" lon="7.9856683"><ele>429.0</ele><time>2026-04-12T11:15:05.875Z</time></trkpt><trkpt lat="45.1191967" lon="7.98585"><ele>429.5</ele><time>2026-04-12T11:15:06.876Z</time></trkpt><trkpt lat="45.1192467" lon="7.9860283"><ele>430.0</ele><time>2026-04-12T11:15:07.876Z</time></trkpt><trkpt lat="45.1193017" lon="7.98619"><ele>433.0</ele><time>2026-04-12T11:15:08.875Z</time></trkpt><trkpt lat="45.1193633" lon="7.9863467"><ele>436.0</ele><time>2026-04-12T11:15:09.875Z</time></trkpt><trkpt lat="45.119425" lon="7.9865"><ele>439.0</ele><time>2026-04-12T11:15:10.875Z</time></trkpt><trkpt lat="45.1194683" lon="7.9866583"><ele>442.0</ele><time>2026-04-12T11:15:11.875Z</time></trkpt><trkpt lat="45.1195017" lon="7.986805"><ele>442.8</ele><time>2026-04-12T11:15:12.875Z</time></trkpt><trkpt lat="45.1194933" lon="7.9869533"><ele>443.6</ele><time>2026-04-12T11:15:13.875Z</time></trkpt><trkpt lat="45.119475" lon="7.9871"><ele>444.40000000000003</ele><time>2026-04-12T11:15:14.875Z</time></trkpt><trkpt lat="45.11944" lon="7.9872267"><ele>445.20000000000005</ele><time>2026-04-12T11:15:15.875Z</time></trkpt><trkpt lat="45.1193917" lon="7.98732"><ele>446.0</ele><time>2026-04-12T11:15:16.876Z</time></trkpt><trkpt lat="45.1193267" lon="7.987405"><ele>446.0</ele><time>2026-04-12T11:15:17.875Z</time></trkpt><trkpt lat="45.1192667" lon="7.9874933"><ele>446.0</ele><time>2026-04-12T11:15:18.875Z</time></trkpt><trkpt lat="45.1192233" lon="7.987585"><ele>446.0</ele><time>2026-04-12T11:15:19.875Z</time></trkpt><trkpt lat="45.1192167" lon="7.987785"><ele>446.0</ele><time>2026-04-12T11:15:21.875Z</time></trkpt><trkpt lat="45.1192367" lon="7.9879317"><ele>446.0</ele><time>2026-04-12T11:15:22.875Z</time></trkpt><trkpt lat="45.119265" lon="7.988095"><ele>447.5</ele><time>2026-04-12T11:15:23.876Z</time></trkpt><trkpt lat="45.11929" lon="7.98826"><ele>449.0</ele><time>2026-04-12T11:15:24.875Z</time></trkpt><trkpt lat="45.119325" lon="7.988425"><ele>450.5</ele><time>2026-04-12T11:15:25.875Z</time></trkpt><trkpt lat="45.1193683" lon="7.9885767"><ele>452.0</ele><time>2026-04-12T11:15:26.875Z</time></trkpt><trkpt lat="45.11944" lon="7.988725"><ele>456.75</ele><time>2026-04-12T11:15:27.876Z</time></trkpt><trkpt lat="45.1195233" lon="7.9888633"><ele>461.5</ele><time>2026-04-12T11:15:28.875Z</time></trkpt><trkpt lat="45.1196183" lon="7.988975"><ele>466.25</ele><time>2026-04-12T11:15:29.876Z</time></trkpt><trkpt lat="45.11971" lon="7.9890833"><ele>471.0</ele><time>2026-04-12T11:15:30.875Z</time></trkpt><trkpt lat="45.1197917" lon="7.9892083"><ele>469.25</ele><time>2026-04-12T11:15:31.875Z</time></trkpt><trkpt lat="45.11987" lon="7.9893533"><ele>467.5</ele><time>2026-04-12T11:15:32.875Z</time></trkpt><trkpt lat="45.11996" lon="7.9895"><ele>465.75</ele><time>2026-04-12T11:15:33.875Z</time></trkpt><trkpt lat="45.1200433" lon="7.9896317"><ele>464.0</ele><time>2026-04-12T11:15:34.876Z</time></trkpt><trkpt lat="45.1201217" lon="7.9897633"><ele>464.0</ele><time>2026-04-12T11:15:35.875Z</time></trkpt><trkpt lat="45.1202017" lon="7.9898917"><ele>464.0</ele><time>2026-04-12T11:15:36.875Z</time></trkpt><trkpt lat="45.1202567" lon="7.9900117"><ele>464.0</ele><time>2026-04-12T11:15:37.876Z</time></trkpt><trkpt lat="45.1203267" lon="7.9901033"><ele>464.0</ele><time>2026-04-12T11:15:38.875Z</time></trkpt><trkpt lat="45.1204083" lon="7.99017"><ele>464.0</ele><time>2026-04-12T11:15:39.875Z</time></trkpt><trkpt lat="45.1204967" lon="7.990195"><ele>465.8333333333333</ele><time>2026-04-12T11:15:40.876Z</time></trkpt><trkpt lat="45.1205883" lon="7.9902083"><ele>467.66666666666663</ele><time>2026-04-12T11:15:41.875Z</time></trkpt><trkpt lat="45.1206667" lon="7.9902133"><ele>469.5</ele><time>2026-04-12T11:15:42.875Z</time></trkpt><trkpt lat="45.1207483" lon="7.9902317"><ele>471.33333333333337</ele><time>2026-04-12T11:15:43.876Z</time></trkpt><trkpt lat="45.12081" lon="7.9902567"><ele>473.1666666666667</ele><time>2026-04-12T11:15:44.875Z</time></trkpt><trkpt lat="45.120845" lon="7.990415"><ele>475.0</ele><time>2026-04-12T11:15:46.875Z</time></trkpt><trkpt lat="45.1208183" lon="7.9905017"><ele>472.5</ele><time>2026-04-12T11:15:47.875Z</time></trkpt><trkpt lat="45.1207783" lon="7.99062"><ele>470.0</ele><time>2026-04-12T11:15:48.876Z</time></trkpt><trkpt lat="45.1207367" lon="7.9907583"><ele>467.5</ele><time>2026-04-12T11:15:49.876Z</time></trkpt><trkpt lat="45.12069" lon="7.990915"><ele>465.0</ele><time>2026-04-12T11:15:50.875Z</time></trkpt><trkpt lat="45.1206267" lon="7.991085"><ele>465.0</ele><time>2026-04-12T11:15:51.875Z</time></trkpt><trkpt lat="45.1205883" lon="7.9912517"><ele>465.0</ele><time>2026-04-12T11:15:52.875Z</time></trkpt><trkpt lat="45.120555" lon="7.9914183"><ele>465.0</ele><time>2026-04-12T11:15:53.875Z</time></trkpt><trkpt lat="45.1205383" lon="7.9915867"><ele>465.0</ele><time>2026-04-12T11:15:54.876Z</time></trkpt><trkpt lat="45.120545" lon="7.99176"><ele>461.5</ele><time>2026-04-12T11:15:55.876Z</time></trkpt><trkpt lat="45.1205383" lon="7.9919533"><ele>458.0</ele><time>2026-04-12T11:15:56.876Z</time></trkpt><trkpt lat="45.12054" lon="7.9921517"><ele>454.5</ele><time>2026-04-12T11:15:57.875Z</time></trkpt><trkpt lat="45.1205533" lon="7.9923133"><ele>451.0</ele><time>2026-04-12T11:15:58.875Z</time></trkpt><trkpt lat="45.1205817" lon="7.99245"><ele>450.00000000000006</ele><time>2026-04-12T11:15:59.876Z</time></trkpt><trkpt lat="45.1206183" lon="7.9925467"><ele>449.0</ele><time>2026-04-12T11:16:00.876Z</time></trkpt><trkpt lat="45.12065" lon="7.99264"><ele>448.0</ele><time>2026-04-12T11:16:01.876Z</time></trkpt><trkpt lat="45.1206833" lon="7.9927267"><ele>447.0</ele><time>2026-04-12T11:16:02.876Z</time></trkpt><trkpt lat="45.120715" lon="7.9928233"><ele>446.00000000000006</ele><time>2026-04-12T11:16:03.876Z</time></trkpt><trkpt lat="45.120745" lon="7.9929317"><ele>445.0</ele><time>2026-04-12T11:16:04.875Z</time></trkpt><trkpt lat="45.1207767" lon="7.9930583"><ele>449.6</ele><time>2026-04-12T11:16:05.876Z</time></trkpt><trkpt lat="45.1207983" lon="7.9932017"><ele>454.2</ele><time>2026-04-12T11:16:06.875Z</time></trkpt><trkpt lat="45.1208133" lon="7.993365"><ele>458.79999999999995</ele><time>2026-04-12T11:16:07.875Z</time></trkpt><trkpt lat="45.1208533" lon="7.9935117"><ele>463.4</ele><time>2026-04-12T11:16:08.875Z</time></trkpt><trkpt lat="45.1209167" lon="7.9936533"><ele>468.0</ele><time>2026-04-12T11:16:09.875Z</time></trkpt><trkpt lat="45.1210083" lon="7.9937783"><ele>468.25</ele><time>2026-04-12T11:16:10.875Z</time></trkpt><trkpt lat="45.121125" lon="7.9938783"><ele>468.5</ele><time>2026-04-12T11:16:11.875Z</time></trkpt><trkpt lat="45.121235" lon="7.9939883"><ele>468.75</ele><time>2026-04-12T11:16:12.875Z</time></trkpt><trkpt lat="45.1213533" lon="7.9940933"><ele>469.0</ele><time>2026-04-12T11:16:13.875Z</time></trkpt><trkpt lat="45.1214517" lon="7.9942183"><ele>469.0</ele><time>2026-04-12T11:16:14.876Z</time></trkpt><trkpt lat="45.121545" lon="7.9943433"><ele>469.0</ele><time>2026-04-12T11:16:15.876Z</time></trkpt><trkpt lat="45.1216317" lon="7.9944533"><ele>469.0</ele><time>2026-04-12T11:16:16.876Z</time></trkpt><trkpt lat="45.1217117" lon="7.9945517"><ele>469.0</ele><time>2026-04-12T11:16:17.875Z</time></trkpt><trkpt lat="45.121785" lon="7.9946383"><ele>469.0</ele><time>2026-04-12T11:16:18.876Z</time></trkpt><trkpt lat="45.1218483" lon="7.9947233"><ele>467.2</ele><time>2026-04-12T11:16:19.876Z</time></trkpt><trkpt lat="45.1219267" lon="7.994795"><ele>465.4</ele><time>2026-04-12T11:16:20.875Z</time></trkpt><trkpt lat="45.122015" lon="7.994865"><ele>463.6</ele><time>2026-04-12T11:16:21.876Z</time></trkpt><trkpt lat="45.1221117" lon="7.994935"><ele>461.8</ele><time>2026-04-12T11:16:22.875Z</time></trkpt><trkpt lat="45.1222117" lon="7.99502"><ele>460.0</ele><time>2026-04-12T11:16:23.875Z</time></trkpt><trkpt lat="45.12231" lon="7.9950933"><ele>456.75</ele><time>2026-04-12T11:16:24.875Z</time></trkpt><trkpt lat="45.1224117" lon="7.99513"><ele>453.5</ele><time>2026-04-12T11:16:25.876Z</time></trkpt><trkpt lat="45.1225317" lon="7.9951667"><ele>450.25</ele><time>2026-04-12T11:16:26.876Z</time></trkpt><trkpt lat="45.1226583" lon="7.995195"><ele>447.0</ele><time>2026-04-12T11:16:27.875Z</time></trkpt><trkpt lat="45.12279" lon="7.9952167"><ele>447.0</ele><time>2026-04-12T11:16:28.875Z</time></trkpt><trkpt lat="45.1229217" lon="7.99523"><ele>447.0</ele><time>2026-04-12T11:16:29.876Z</time></trkpt><trkpt lat="45.1230433" lon="7.9952667"><ele>447.0</ele><time>2026-04-12T11:16:30.875Z</time></trkpt><trkpt lat="45.1231583" lon="7.99531"><ele>447.0</ele><time>2026-04-12T11:16:31.875Z</time></trkpt><trkpt lat="45.1232567" lon="7.9953967"><ele>450.75</ele><time>2026-04-12T11:16:32.876Z</time></trkpt><trkpt lat="45.1233317" lon="7.9955333"><ele>454.5</ele><time>2026-04-12T11:16:33.875Z</time></trkpt><trkpt lat="45.1233717" lon="7.9957"><ele>458.25</ele><time>2026-04-12T11:16:34.876Z</time></trkpt><trkpt lat="45.1233783" lon="7.9958733"><ele>462.0</ele><time>2026-04-12T11:16:35.875Z</time></trkpt><trkpt lat="45.1233483" lon="7.9960683"><ele>462.5</ele><time>2026-04-12T11:16:36.876Z</time></trkpt><trkpt lat="45.1232883" lon="7.9962633"><ele>463.0</ele><time>2026-04-12T11:16:37.875Z</time></trkpt><trkpt lat="45.123235" lon="7.9964483"><ele>463.5</ele><time>2026-04-12T11:16:38.875Z</time></trkpt><trkpt lat="45.1231817" lon="7.99662"><ele>464.0</ele><time>2026-04-12T11:16:39.875Z</time></trkpt><trkpt lat="45.1231467" lon="7.9967817"><ele>459.0</ele><time>2026-04-12T11:16:40.875Z</time></trkpt><trkpt lat="45.1231217" lon="7.996945"><ele>454.0</ele><time>2026-04-12T11:16:41.875Z</time></trkpt><trkpt lat="45.1231117" lon="7.99711"><ele>449.0</ele><time>2026-04-12T11:16:42.875Z</time></trkpt><trkpt lat="45.123105" lon="7.9972567"><ele>444.0</ele><time>2026-04-12T11:16:43.876Z</time></trkpt><trkpt lat="45.1230933" lon="7.9974117"><ele>439.0</ele><time>2026-04-12T11:16:44.876Z</time></trkpt><trkpt lat="45.123065" lon="7.9975517"><ele>439.0</ele><time>2026-04-12T11:16:45.875Z</time></trkpt><trkpt lat="45.1230217" lon="7.9976717"><ele>439.0</ele><time>2026-04-12T11:16:46.875Z</time></trkpt><trkpt lat="45.122965" lon="7.9977667"><ele>439.0</ele><time>2026-04-12T11:16:47.875Z</time></trkpt><trkpt lat="45.1228783" lon="7.997835"><ele>439.0</ele><time>2026-04-12T11:16:48.875Z</time></trkpt><trkpt lat="45.1227733" lon="7.997905"><ele>439.0</ele><time>2026-04-12T11:16:49.876Z</time></trkpt><trkpt lat="45.1226633" lon="7.99798"><ele>439.0</ele><time>2026-04-12T11:16:50.876Z</time></trkpt><trkpt lat="45.12255" lon="7.9980633"><ele>439.0</ele><time>2026-04-12T11:16:51.875Z</time></trkpt><trkpt lat="45.1224317" lon="7.99817"><ele>439.0</ele><time>2026-04-12T11:16:52.875Z</time></trkpt><trkpt lat="45.1223017" lon="7.9982817"><ele>439.0</ele><time>2026-04-12T11:16:53.875Z</time></trkpt><trkpt lat="45.1221667" lon="7.998415"><ele>435.6666666666667</ele><time>2026-04-12T11:16:54.876Z</time></trkpt><trkpt lat="45.12205" lon="7.9985583"><ele>432.33333333333337</ele><time>2026-04-12T11:16:55.875Z</time></trkpt><trkpt lat="45.1219467" lon="7.998715"><ele>429.0</ele><time>2026-04-12T11:16:56.875Z</time></trkpt><trkpt lat="45.1218467" lon="7.9988683"><ele>429.0</ele><time>2026-04-12T11:16:57.875Z</time></trkpt><trkpt lat="45.1217367" lon="7.9990083"><ele>429.0</ele><time>2026-04-12T11:16:58.875Z</time></trkpt><trkpt lat="45.12164" lon="7.9991383"><ele>429.0</ele><time>2026-04-12T11:16:59.875Z</time></trkpt><trkpt lat="45.1215567" lon="7.999275"><ele>429.0</ele><time>2026-04-12T11:17:00.876Z</time></trkpt><trkpt lat="45.1215233" lon="7.9994367"><ele>426.0</ele><time>2026-04-12T11:17:01.876Z</time></trkpt><trkpt lat="45.1215283" lon="7.9996367"><ele>423.0</ele><time>2026-04-12T11:17:02.876Z</time></trkpt><trkpt lat="45.1215367" lon="7.9998417"><ele>420.0</ele><time>2026-04-12T11:17:03.875Z</time></trkpt><trkpt lat="45.1215183" lon="8.00004"><ele>417.0</ele><time>2026-04-12T11:17:04.875Z</time></trkpt><trkpt lat="45.1214733" lon="8.000225"><ele>417.0</ele><time>2026-04-12T11:17:05.876Z</time></trkpt><trkpt lat="45.1213883" lon="8.0003683"><ele>417.0</ele><time>2026-04-12T11:17:06.875Z</time></trkpt><trkpt lat="45.1212983" lon="8.0005183"><ele>417.0</ele><time>2026-04-12T11:17:07.875Z</time></trkpt><trkpt lat="45.1211917" lon="8.000635"><ele>417.0</ele><time>2026-04-12T11:17:08.875Z</time></trkpt><trkpt lat="45.1210833" lon="8.0007533"><ele>417.0</ele><time>2026-04-12T11:17:09.875Z</time></trkpt><trkpt lat="45.1209483" lon="8.00083"><ele>417.0</ele><time>2026-04-12T11:17:10.875Z</time></trkpt><trkpt lat="45.120815" lon="8.000875"><ele>417.0</ele><time>2026-04-12T11:17:11.875Z</time></trkpt><trkpt lat="45.1206867" lon="8.000935"><ele>417.0</ele><time>2026-04-12T11:17:12.876Z</time></trkpt><trkpt lat="45.12055" lon="8.00103"><ele>418.25</ele><time>2026-04-12T11:17:13.875Z</time></trkpt><trkpt lat="45.1204383" lon="8.0011317"><ele>419.5</ele><time>2026-04-12T11:17:14.876Z</time></trkpt><trkpt lat="45.1203183" lon="8.0012317"><ele>420.75</ele><time>2026-04-12T11:17:15.875Z</time></trkpt><trkpt lat="45.1201933" lon="8.001335"><ele>422.0</ele><time>2026-04-12T11:17:16.876Z</time></trkpt><trkpt lat="45.12007" lon="8.0014317"><ele>422.0</ele><time>2026-04-12T11:17:17.876Z</time></trkpt><trkpt lat="45.11995" lon="8.0015217"><ele>422.0</ele><time>2026-04-12T11:17:18.875Z</time></trkpt><trkpt lat="45.11984" lon="8.0016117"><ele>422.0</ele><time>2026-04-12T11:17:19.875Z</time></trkpt><trkpt lat="45.1197167" lon="8.0017133"><ele>422.0</ele><time>2026-04-12T11:17:20.876Z</time></trkpt><trkpt lat="45.1196033" lon="8.0018117"><ele>423.5</ele><time>2026-04-12T11:17:21.875Z</time></trkpt><trkpt lat="45.1194767" lon="8.0018967"><ele>425.0</ele><time>2026-04-12T11:17:22.875Z</time></trkpt><trkpt lat="45.1193567" lon="8.0019933"><ele>426.5</ele><time>2026-04-12T11:17:23.875Z</time></trkpt><trkpt lat="45.1192317" lon="8.0020417"><ele>428.0</ele><time>2026-04-12T11:17:24.875Z</time></trkpt><trkpt lat="45.1191083" lon="8.00206"><ele>429.75</ele><time>2026-04-12T11:17:25.875Z</time></trkpt><trkpt lat="45.1189917" lon="8.0020783"><ele>431.5</ele><time>2026-04-12T11:17:26.875Z</time></trkpt><trkpt lat="45.1188733" lon="8.0021083"><ele>433.25</ele><time>2026-04-12T11:17:27.875Z</time></trkpt><trkpt lat="45.1187533" lon="8.0021483"><ele>435.0</ele><time>2026-04-12T11:17:28.875Z</time></trkpt><trkpt lat="45.1186367" lon="8.0021933"><ele>435.0</ele><time>2026-04-12T11:17:29.875Z</time></trkpt><trkpt lat="45.1185217" lon="8.00225"><ele>435.0</ele><time>2026-04-12T11:17:30.875Z</time></trkpt><trkpt lat="45.11842" lon="8.00229"><ele>435.0</ele><time>2026-04-12T11:17:31.875Z</time></trkpt><trkpt lat="45.1183217" lon="8.0023217"><ele>435.0</ele><time>2026-04-12T11:17:32.875Z</time></trkpt><trkpt lat="45.1182283" lon="8.0023283"><ele>435.0</ele><time>2026-04-12T11:17:33.876Z</time></trkpt><trkpt lat="45.11812" lon="8.002335"><ele>438.5</ele><time>2026-04-12T11:17:34.875Z</time></trkpt><trkpt lat="45.118" lon="8.00231"><ele>442.0</ele><time>2026-04-12T11:17:35.876Z</time></trkpt><trkpt lat="45.1178783" lon="8.0022967"><ele>445.5</ele><time>2026-04-12T11:17:36.875Z</time></trkpt><trkpt lat="45.1177633" lon="8.002285"><ele>449.0</ele><time>2026-04-12T11:17:37.876Z</time></trkpt><trkpt lat="45.1176483" lon="8.0023017"><ele>449.0</ele><time>2026-04-12T11:17:38.875Z</time></trkpt><trkpt lat="45.1175383" lon="8.0023533"><ele>449.0</ele><time>2026-04-12T11:17:39.876Z</time></trkpt><trkpt lat="45.11743" lon="8.0024233"><ele>449.0</ele><time>2026-04-12T11:17:40.875Z</time></trkpt><trkpt lat="45.1173333" lon="8.00247"><ele>449.0</ele><time>2026-04-12T11:17:41.876Z</time></trkpt><trkpt lat="45.11725" lon="8.0025217"><ele>449.0</ele><time>2026-04-12T11:17:42.875Z</time></trkpt><trkpt lat="45.1171717" lon="8.0025583"><ele>446.66666666666663</ele><time>2026-04-12T11:17:43.875Z</time></trkpt><trkpt lat="45.11711" lon="8.0026033"><ele>444.3333333333333</ele><time>2026-04-12T11:17:44.876Z</time></trkpt><trkpt lat="45.117055" lon="8.0026633"><ele>442.0</ele><time>2026-04-12T11:17:45.875Z</time></trkpt><trkpt lat="45.1169967" lon="8.0027383"><ele>439.66666666666663</ele><time>2026-04-12T11:17:46.875Z</time></trkpt><trkpt lat="45.11694" lon="8.00283"><ele>437.3333333333333</ele><time>2026-04-12T11:17:47.876Z</time></trkpt><trkpt lat="45.11689" lon="8.0029417"><ele>435.0</ele><time>2026-04-12T11:17:48.875Z</time></trkpt><trkpt lat="45.116835" lon="8.0030683"><ele>435.0</ele><time>2026-04-12T11:17:49.876Z</time></trkpt><trkpt lat="45.11678" lon="8.003175"><ele>435.0</ele><time>2026-04-12T11:17:50.875Z</time></trkpt><trkpt lat="45.11672" lon="8.0032717"><ele>435.0</ele><time>2026-04-12T11:17:51.875Z</time></trkpt><trkpt lat="45.1166717" lon="8.00338"><ele>435.0</ele><time>2026-04-12T11:17:52.875Z</time></trkpt><trkpt lat="45.116615" lon="8.0034867"><ele>435.0</ele><time>2026-04-12T11:17:53.875Z</time></trkpt><trkpt lat="45.1165433" lon="8.00359"><ele>433.0</ele><time>2026-04-12T11:17:54.875Z</time></trkpt><trkpt lat="45.1164717" lon="8.0036733"><ele>431.0</ele><time>2026-04-12T11:17:55.875Z</time></trkpt><trkpt lat="45.1164" lon="8.0037467"><ele>429.0</ele><time>2026-04-12T11:17:56.876Z</time></trkpt><trkpt lat="45.116335" lon="8.0038133"><ele>427.0</ele><time>2026-04-12T11:17:57.876Z</time></trkpt><trkpt lat="45.1162617" lon="8.0038817"><ele>425.0</ele><time>2026-04-12T11:17:58.875Z</time></trkpt><trkpt lat="45.1161883" lon="8.0039283"><ele>423.0</ele><time>2026-04-12T11:17:59.875Z</time></trkpt><trkpt lat="45.1161217" lon="8.0039867"><ele>423.0</ele><time>2026-04-12T11:18:00.876Z</time></trkpt><trkpt lat="45.1160717" lon="8.004045"><ele>423.0</ele><time>2026-04-12T11:18:01.875Z</time></trkpt><trkpt lat="45.1160383" lon="8.00413"><ele>423.0</ele><time>2026-04-12T11:18:02.875Z</time></trkpt><trkpt lat="45.1160217" lon="8.004245"><ele>423.0</ele><time>2026-04-12T11:18:03.876Z</time></trkpt><trkpt lat="45.1160267" lon="8.0043683"><ele>423.0</ele><time>2026-04-12T11:18:04.876Z</time></trkpt><trkpt lat="45.1160383" lon="8.0044917"><ele>423.0</ele><time>2026-04-12T11:18:05.875Z</time></trkpt><trkpt lat="45.11606" lon="8.0046083"><ele>426.59999999999997</ele><time>2026-04-12T11:18:06.875Z</time></trkpt><trkpt lat="45.1161017" lon="8.0047283"><ele>430.2</ele><time>2026-04-12T11:18:07.876Z</time></trkpt><trkpt lat="45.1161683" lon="8.0048167"><ele>433.8</ele><time>2026-04-12T11:18:08.876Z</time></trkpt><trkpt lat="45.1162333" lon="8.0049167"><ele>437.4</ele><time>2026-04-12T11:18:09.875Z</time></trkpt><trkpt lat="45.1163167" lon="8.0050183"><ele>441.0</ele><time>2026-04-12T11:18:10.876Z</time></trkpt><trkpt lat="45.1163917" lon="8.0051083"><ele>444.4</ele><time>2026-04-12T11:18:11.875Z</time></trkpt><trkpt lat="45.1164617" lon="8.0052"><ele>447.8</ele><time>2026-04-12T11:18:12.876Z</time></trkpt><trkpt lat="45.1165433" lon="8.0052933"><ele>451.19999999999993</ele><time>2026-04-12T11:18:13.875Z</time></trkpt><trkpt lat="45.1166417" lon="8.0053467"><ele>454.59999999999997</ele><time>2026-04-12T11:18:14.876Z</time></trkpt><trkpt lat="45.116745" lon="8.0053767"><ele>458.0</ele><time>2026-04-12T11:18:15.876Z</time></trkpt><trkpt lat="45.1168267" lon="8.0054017"><ele>452.16666666666663</ele><time>2026-04-12T11:18:16.876Z</time></trkpt><trkpt lat="45.1169067" lon="8.0054417"><ele>446.3333333333333</ele><time>2026-04-12T11:18:17.876Z</time></trkpt><trkpt lat="45.1169717" lon="8.0054883"><ele>440.5</ele><time>2026-04-12T11:18:18.875Z</time></trkpt><trkpt lat="45.1170317" lon="8.00555"><ele>434.66666666666663</ele><time>2026-04-12T11:18:19.875Z</time></trkpt><trkpt lat="45.1170933" lon="8.005625"><ele>428.8333333333333</ele><time>2026-04-12T11:18:20.875Z</time></trkpt><trkpt lat="45.11715" lon="8.0057033"><ele>423.0</ele><time>2026-04-12T11:18:21.875Z</time></trkpt><trkpt lat="45.1171833" lon="8.005785"><ele>425.1666666666667</ele><time>2026-04-12T11:18:22.875Z</time></trkpt><trkpt lat="45.117205" lon="8.0058767"><ele>427.33333333333337</ele><time>2026-04-12T11:18:23.875Z</time></trkpt><trkpt lat="45.117195" lon="8.0059783"><ele>429.5</ele><time>2026-04-12T11:18:24.875Z</time></trkpt><trkpt lat="45.1171767" lon="8.0060867"><ele>431.6666666666667</ele><time>2026-04-12T11:18:25.875Z</time></trkpt><trkpt lat="45.1171167" lon="8.006155"><ele>433.83333333333337</ele><time>2026-04-12T11:18:26.875Z</time></trkpt><trkpt lat="45.1170383" lon="8.00621"><ele>436.0</ele><time>2026-04-12T11:18:27.875Z</time></trkpt><trkpt lat="45.1169583" lon="8.0062733"><ele>436.0</ele><time>2026-04-12T11:18:28.876Z</time></trkpt><trkpt lat="45.11686" lon="8.00634"><ele>436.0</ele><time>2026-04-12T11:18:29.875Z</time></trkpt><trkpt lat="45.1167733" lon="8.006425"><ele>436.0</ele><time>2026-04-12T11:18:30.875Z</time></trkpt><trkpt lat="45.116705" lon="8.006515"><ele>436.0</ele><time>2026-04-12T11:18:31.876Z</time></trkpt><trkpt lat="45.11664" lon="8.006645"><ele>436.0</ele><time>2026-04-12T11:18:32.876Z</time></trkpt><trkpt lat="45.1165933" lon="8.006785"><ele>435.0</ele><time>2026-04-12T11:18:33.875Z</time></trkpt><trkpt lat="45.1165617" lon="8.0069483"><ele>434.0</ele><time>2026-04-12T11:18:34.875Z</time></trkpt><trkpt lat="45.1165567" lon="8.007125"><ele>433.0</ele><time>2026-04-12T11:18:35.875Z</time></trkpt><trkpt lat="45.116585" lon="8.007285"><ele>432.0</ele><time>2026-04-12T11:18:36.875Z</time></trkpt><trkpt lat="45.116615" lon="8.0074367"><ele>431.0</ele><time>2026-04-12T11:18:37.876Z</time></trkpt><trkpt lat="45.11665" lon="8.0076"><ele>430.0</ele><time>2026-04-12T11:18:38.875Z</time></trkpt><trkpt lat="45.116665" lon="8.0077667"><ele>429.0</ele><time>2026-04-12T11:18:39.876Z</time></trkpt><trkpt lat="45.1166617" lon="8.007935"><ele>428.0</ele><time>2026-04-12T11:18:40.875Z</time></trkpt><trkpt lat="45.11663" lon="8.0080983"><ele>428.0</ele><time>2026-04-12T11:18:41.876Z</time></trkpt><trkpt lat="45.11657" lon="8.008255"><ele>428.0</ele><time>2026-04-12T11:18:42.875Z</time></trkpt><trkpt lat="45.1165017" lon="8.008415"><ele>428.0</ele><time>2026-04-12T11:18:43.876Z</time></trkpt><trkpt lat="45.11644" lon="8.00856"><ele>428.0</ele><time>2026-04-12T11:18:44.875Z</time></trkpt><trkpt lat="45.1163933" lon="8.0087117"><ele>431.75</ele><time>2026-04-12T11:18:45.875Z</time></trkpt><trkpt lat="45.11633" lon="8.008875"><ele>435.5</ele><time>2026-04-12T11:18:46.875Z</time></trkpt><trkpt lat="45.11626" lon="8.0090417"><ele>439.25</ele><time>2026-04-12T11:18:47.876Z</time></trkpt><trkpt lat="45.1162067" lon="8.0092083"><ele>443.0</ele><time>2026-04-12T11:18:48.875Z</time></trkpt><trkpt lat="45.1161467" lon="8.0093783"><ele>443.0</ele><time>2026-04-12T11:18:49.875Z</time></trkpt><trkpt lat="45.1161117" lon="8.0095517"><ele>443.0</ele><time>2026-04-12T11:18:50.875Z</time></trkpt><trkpt lat="45.1160783" lon="8.0097217"><ele>443.0</ele><time>2026-04-12T11:18:51.875Z</time></trkpt><trkpt lat="45.1160617" lon="8.0098917"><ele>443.0</ele><time>2026-04-12T11:18:52.875Z</time></trkpt><trkpt lat="45.1160717" lon="8.0100617"><ele>440.5</ele><time>2026-04-12T11:18:53.875Z</time></trkpt><trkpt lat="45.11612" lon="8.0102283"><ele>438.0</ele><time>2026-04-12T11:18:54.876Z</time></trkpt><trkpt lat="45.1161883" lon="8.0103683"><ele>435.5</ele><time>2026-04-12T11:18:55.875Z</time></trkpt><trkpt lat="45.1162717" lon="8.0105"><ele>433.0</ele><time>2026-04-12T11:18:56.876Z</time></trkpt><trkpt lat="45.1163483" lon="8.0106333"><ele>433.0</ele><time>2026-04-12T11:18:57.875Z</time></trkpt><trkpt lat="45.1164067" lon="8.0107783"><ele>432.99999999999994</ele><time>2026-04-12T11:18:58.875Z</time></trkpt><trkpt lat="45.11645" lon="8.0109267"><ele>432.99999999999994</ele><time>2026-04-12T11:18:59.875Z</time></trkpt><trkpt lat="45.116465" lon="8.01108"><ele>433.0</ele><time>2026-04-12T11:19:00.876Z</time></trkpt><trkpt lat="45.11647" lon="8.0112333"><ele>433.0</ele><time>2026-04-12T11:19:01.876Z</time></trkpt><trkpt lat="45.1164683" lon="8.0113917"><ele>434.0</ele><time>2026-04-12T11:19:02.875Z</time></trkpt><trkpt lat="45.116465" lon="8.0115517"><ele>434.99999999999994</ele><time>2026-04-12T11:19:03.876Z</time></trkpt><trkpt lat="45.116465" lon="8.01171"><ele>435.99999999999994</ele><time>2026-04-12T11:19:04.875Z</time></trkpt><trkpt lat="45.1164933" lon="8.0118583"><ele>437.0</ele><time>2026-04-12T11:19:05.876Z</time></trkpt><trkpt lat="45.1165233" lon="8.0119833"><ele>438.0</ele><time>2026-04-12T11:19:06.876Z</time></trkpt><trkpt lat="45.11656" lon="8.01211"><ele>432.0</ele><time>2026-04-12T11:19:07.875Z</time></trkpt><trkpt lat="45.1166033" lon="8.0122183"><ele>426.0</ele><time>2026-04-12T11:19:08.875Z</time></trkpt><trkpt lat="45.1166483" lon="8.012305"><ele>420.0</ele><time>2026-04-12T11:19:09.875Z</time></trkpt><trkpt lat="45.116705" lon="8.0123683"><ele>414.0</ele><time>2026-04-12T11:19:10.876Z</time></trkpt><trkpt lat="45.1167817" lon="8.0124117"><ele>408.0</ele><time>2026-04-12T11:19:11.876Z</time></trkpt><trkpt lat="45.116875" lon="8.012455"><ele>402.0</ele><time>2026-04-12T11:19:12.875Z</time></trkpt><trkpt lat="45.1169933" lon="8.0124867"><ele>401.0</ele><time>2026-04-12T11:19:13.875Z</time></trkpt><trkpt lat="45.1171217" lon="8.01253"><ele>400.0</ele><time>2026-04-12T11:19:14.876Z</time></trkpt><trkpt lat="45.1172383" lon="8.012575"><ele>399.0</ele><time>2026-04-12T11:19:15.876Z</time></trkpt><trkpt lat="45.1173567" lon="8.0126233"><ele>398.0</ele><time>2026-04-12T11:19:16.876Z</time></trkpt><trkpt lat="45.1174833" lon="8.0126833"><ele>398.0</ele><time>2026-04-12T11:19:17.875Z</time></trkpt><trkpt lat="45.1176" lon="8.0127283"><ele>398.0</ele><time>2026-04-12T11:19:18.875Z</time></trkpt><trkpt lat="45.11772" lon="8.0127583"><ele>398.0</ele><time>2026-04-12T11:19:19.875Z</time></trkpt><trkpt lat="45.1178517" lon="8.0128017"><ele>398.0</ele><time>2026-04-12T11:19:20.876Z</time></trkpt><trkpt lat="45.1179533" lon="8.0128517"><ele>398.0</ele><time>2026-04-12T11:19:21.875Z</time></trkpt><trkpt lat="45.118055" lon="8.012915"><ele>398.0</ele><time>2026-04-12T11:19:22.875Z</time></trkpt><trkpt lat="45.1181383" lon="8.012995"><ele>398.0</ele><time>2026-04-12T11:19:23.875Z</time></trkpt><trkpt lat="45.11821" lon="8.0130767"><ele>398.0</ele><time>2026-04-12T11:19:24.876Z</time></trkpt><trkpt lat="45.1182917" lon="8.0131467"><ele>398.0</ele><time>2026-04-12T11:19:25.876Z</time></trkpt><trkpt lat="45.118385" lon="8.0132167"><ele>398.5</ele><time>2026-04-12T11:19:26.875Z</time></trkpt><trkpt lat="45.1184917" lon="8.0132917"><ele>399.0</ele><time>2026-04-12T11:19:27.876Z</time></trkpt><trkpt lat="45.118595" lon="8.0133633"><ele>399.5</ele><time>2026-04-12T11:19:28.875Z</time></trkpt><trkpt lat="45.11869" lon="8.0134533"><ele>400.0</ele><time>2026-04-12T11:19:29.875Z</time></trkpt><trkpt lat="45.1187767" lon="8.0135617"><ele>400.0</ele><time>2026-04-12T11:19:30.876Z</time></trkpt><trkpt lat="45.11884" lon="8.0136933"><ele>400.0</ele><time>2026-04-12T11:19:31.876Z</time></trkpt><trkpt lat="45.1189367" lon="8.0137983"><ele>400.0</ele><time>2026-04-12T11:19:32.876Z</time></trkpt><trkpt lat="45.1190367" lon="8.0138867"><ele>400.0</ele><time>2026-04-12T11:19:33.876Z</time></trkpt><trkpt lat="45.119145" lon="8.01396"><ele>399.25</ele><time>2026-04-12T11:19:34.875Z</time></trkpt><trkpt lat="45.11925" lon="8.01404"><ele>398.5</ele><time>2026-04-12T11:19:35.875Z</time></trkpt><trkpt lat="45.1193517" lon="8.0141233"><ele>397.75</ele><time>2026-04-12T11:19:36.875Z</time></trkpt><trkpt lat="45.1194533" lon="8.0142167"><ele>397.0</ele><time>2026-04-12T11:19:37.876Z</time></trkpt><trkpt lat="45.1195517" lon="8.01432"><ele>397.0</ele><time>2026-04-12T11:19:38.875Z</time></trkpt><trkpt lat="45.1196483" lon="8.014415"><ele>397.0</ele><time>2026-04-12T11:19:39.875Z</time></trkpt><trkpt lat="45.1197517" lon="8.0145017"><ele>397.0</ele><time>2026-04-12T11:19:40.876Z</time></trkpt><trkpt lat="45.11986" lon="8.0145883"><ele>397.0</ele><time>2026-04-12T11:19:41.875Z</time></trkpt><trkpt lat="45.1199633" lon="8.01467"><ele>399.0</ele><time>2026-04-12T11:19:42.875Z</time></trkpt><trkpt lat="45.1200817" lon="8.0147533"><ele>401.0</ele><time>2026-04-12T11:19:43.876Z</time></trkpt><trkpt lat="45.1201967" lon="8.0148083"><ele>403.0</ele><time>2026-04-12T11:19:44.876Z</time></trkpt><trkpt lat="45.12031" lon="8.0148533"><ele>405.0</ele><time>2026-04-12T11:19:45.875Z</time></trkpt><trkpt lat="45.1204133" lon="8.0148983"><ele>405.0</ele><time>2026-04-12T11:19:46.875Z</time></trkpt><trkpt lat="45.1205167" lon="8.0149483"><ele>405.0</ele><time>2026-04-12T11:19:47.876Z</time></trkpt><trkpt lat="45.120595" lon="8.01503"><ele>405.0</ele><time>2026-04-12T11:19:48.875Z</time></trkpt><trkpt lat="45.12067" lon="8.0151333"><ele>405.0</ele><time>2026-04-12T11:19:49.875Z</time></trkpt><trkpt lat="45.12075" lon="8.01523"><ele>405.0</ele><time>2026-04-12T11:19:50.875Z</time></trkpt><trkpt lat="45.120835" lon="8.0153233"><ele>406.25</ele><time>2026-04-12T11:19:51.875Z</time></trkpt><trkpt lat="45.120925" lon="8.0154233"><ele>407.5</ele><time>2026-04-12T11:19:52.876Z</time></trkpt><trkpt lat="45.12102" lon="8.0154883"><ele>408.75</ele><time>2026-04-12T11:19:53.875Z</time></trkpt><trkpt lat="45.1211283" lon="8.0155267"><ele>410.0</ele><time>2026-04-12T11:19:54.875Z</time></trkpt><trkpt lat="45.1212433" lon="8.0155717"><ele>410.0</ele><time>2026-04-12T11:19:55.875Z</time></trkpt><trkpt lat="45.12136" lon="8.015605"><ele>410.0</ele><time>2026-04-12T11:19:56.875Z</time></trkpt><trkpt lat="45.121475" lon="8.0156333"><ele>410.0</ele><time>2026-04-12T11:19:57.875Z</time></trkpt><trkpt lat="45.1215917" lon="8.0156517"><ele>410.0</ele><time>2026-04-12T11:19:58.876Z</time></trkpt><trkpt lat="45.1217233" lon="8.0156617"><ele>405.75</ele><time>2026-04-12T11:19:59.875Z</time></trkpt><trkpt lat="45.1218467" lon="8.01564"><ele>401.5</ele><time>2026-04-12T11:20:00.875Z</time></trkpt><trkpt lat="45.1219733" lon="8.015605"><ele>397.25</ele><time>2026-04-12T11:20:01.875Z</time></trkpt><trkpt lat="45.1221067" lon="8.01559"><ele>393.0</ele><time>2026-04-12T11:20:02.876Z</time></trkpt><trkpt lat="45.122225" lon="8.0155717"><ele>393.0</ele><time>2026-04-12T11:20:03.875Z</time></trkpt><trkpt lat="45.12233" lon="8.0155467"><ele>393.0</ele><time>2026-04-12T11:20:04.875Z</time></trkpt><trkpt lat="45.1224233" lon="8.01551"><ele>393.0</ele><time>2026-04-12T11:20:05.876Z</time></trkpt><trkpt lat="45.12252" lon="8.0154433"><ele>393.0</ele><time>2026-04-12T11:20:06.875Z</time></trkpt><trkpt lat="45.1226233" lon="8.015355"><ele>393.0</ele><time>2026-04-12T11:20:07.875Z</time></trkpt><trkpt lat="45.122725" lon="8.015275"><ele>395.0</ele><time>2026-04-12T11:20:08.875Z</time></trkpt><trkpt lat="45.12284" lon="8.0151917"><ele>397.0</ele><time>2026-04-12T11:20:09.875Z</time></trkpt><trkpt lat="45.1229567" lon="8.0151267"><ele>399.0</ele><time>2026-04-12T11:20:10.875Z</time></trkpt><trkpt lat="45.1230767" lon="8.0150767"><ele>401.0</ele><time>2026-04-12T11:20:11.875Z</time></trkpt><trkpt lat="45.1231883" lon="8.01504"><ele>401.25</ele><time>2026-04-12T11:20:12.875Z</time></trkpt><trkpt lat="45.1233117" lon="8.014975"><ele>401.5</ele><time>2026-04-12T11:20:13.876Z</time></trkpt><trkpt lat="45.1234267" lon="8.0148817"><ele>401.75</ele><time>2026-04-12T11:20:14.876Z</time></trkpt><trkpt lat="45.12354" lon="8.01479"><ele>402.0</ele><time>2026-04-12T11:20:15.876Z</time></trkpt><trkpt lat="45.123655" lon="8.0147"><ele>402.0</ele><time>2026-04-12T11:20:16.875Z</time></trkpt><trkpt lat="45.123765" lon="8.0146283"><ele>402.0</ele><time>2026-04-12T11:20:17.876Z</time></trkpt><trkpt lat="45.1238867" lon="8.0145783"><ele>402.0</ele><time>2026-04-12T11:20:18.876Z</time></trkpt><trkpt lat="45.1240217" lon="8.0145667"><ele>402.0</ele><time>2026-04-12T11:20:19.875Z</time></trkpt><trkpt lat="45.124155" lon="8.0145733"><ele>402.0</ele><time>2026-04-12T11:20:20.875Z</time></trkpt><trkpt lat="45.12428" lon="8.0145983"><ele>402.0</ele><time>2026-04-12T11:20:21.876Z</time></trkpt><trkpt lat="45.1244083" lon="8.0146133"><ele>402.0</ele><time>2026-04-12T11:20:22.875Z</time></trkpt><trkpt lat="45.1245317" lon="8.0145983"><ele>402.0</ele><time>2026-04-12T11:20:23.875Z</time></trkpt><trkpt lat="45.12466" lon="8.0145483"><ele>402.0</ele><time>2026-04-12T11:20:24.875Z</time></trkpt><trkpt lat="45.1247817" lon="8.0144867"><ele>402.0</ele><time>2026-04-12T11:20:25.876Z</time></trkpt><trkpt lat="45.124905" lon="8.0144133"><ele>402.0</ele><time>2026-04-12T11:20:26.876Z</time></trkpt><trkpt lat="45.1250267" lon="8.01434"><ele>402.0</ele><time>2026-04-12T11:20:27.875Z</time></trkpt><trkpt lat="45.1251333" lon="8.0142867"><ele>400.25</ele><time>2026-04-12T11:20:28.876Z</time></trkpt><trkpt lat="45.1252417" lon="8.0142267"><ele>398.5</ele><time>2026-04-12T11:20:29.875Z</time></trkpt><trkpt lat="45.12535" lon="8.014175"><ele>396.75</ele><time>2026-04-12T11:20:30.876Z</time></trkpt><trkpt lat="45.1254567" lon="8.0141"><ele>395.0</ele><time>2026-04-12T11:20:31.876Z</time></trkpt><trkpt lat="45.1255583" lon="8.014005"><ele>395.0</ele><time>2026-04-12T11:20:32.875Z</time></trkpt><trkpt lat="45.1256533" lon="8.0138883"><ele>395.0</ele><time>2026-04-12T11:20:33.876Z</time></trkpt><trkpt lat="45.12573" lon="8.0137733"><ele>395.0</ele><time>2026-04-12T11:20:34.875Z</time></trkpt><trkpt lat="45.1258" lon="8.0136567"><ele>395.0</ele><time>2026-04-12T11:20:35.875Z</time></trkpt><trkpt lat="45.1258733" lon="8.013555"><ele>395.0</ele><time>2026-04-12T11:20:36.875Z</time></trkpt><trkpt lat="45.1259533" lon="8.0134733"><ele>397.4</ele><time>2026-04-12T11:20:37.876Z</time></trkpt><trkpt lat="45.1260417" lon="8.01344"><ele>399.8</ele><time>2026-04-12T11:20:38.875Z</time></trkpt><trkpt lat="45.1261283" lon="8.0134317"><ele>402.20000000000005</ele><time>2026-04-12T11:20:39.876Z</time></trkpt><trkpt lat="45.1262167" lon="8.0134283"><ele>404.6</ele><time>2026-04-12T11:20:40.876Z</time></trkpt><trkpt lat="45.12631" lon="8.01342"><ele>407.0</ele><time>2026-04-12T11:20:41.875Z</time></trkpt><trkpt lat="45.1264083" lon="8.0134"><ele>407.0</ele><time>2026-04-12T11:20:42.875Z</time></trkpt><trkpt lat="45.1265133" lon="8.0133617"><ele>407.0</ele><time>2026-04-12T11:20:43.875Z</time></trkpt><trkpt lat="45.12662" lon="8.013305"><ele>407.0</ele><time>2026-04-12T11:20:44.876Z</time></trkpt><trkpt lat="45.126715" lon="8.013215"><ele>407.0</ele><time>2026-04-12T11:20:45.876Z</time></trkpt><trkpt lat="45.12681" lon="8.0131183"><ele>402.8</ele><time>2026-04-12T11:20:46.876Z</time></trkpt><trkpt lat="45.126895" lon="8.0130283"><ele>398.6</ele><time>2026-04-12T11:20:47.876Z</time></trkpt><trkpt lat="45.12699" lon="8.01297"><ele>394.40000000000003</ele><time>2026-04-12T11:20:48.876Z</time></trkpt><trkpt lat="45.12709" lon="8.0129183"><ele>390.20000000000005</ele><time>2026-04-12T11:20:49.875Z</time></trkpt><trkpt lat="45.1271867" lon="8.0128733"><ele>386.0</ele><time>2026-04-12T11:20:50.875Z</time></trkpt><trkpt lat="45.1272967" lon="8.012825"><ele>385.99999999999994</ele><time>2026-04-12T11:20:51.875Z</time></trkpt><trkpt lat="45.1273833" lon="8.01278"><ele>386.0</ele><time>2026-04-12T11:20:52.875Z</time></trkpt><trkpt lat="45.1274533" lon="8.0127233"><ele>386.0</ele><time>2026-04-12T11:20:53.876Z</time></trkpt><trkpt lat="45.1275083" lon="8.0126483"><ele>386.0</ele><time>2026-04-12T11:20:54.875Z</time></trkpt><trkpt lat="45.1275517" lon="8.0125483"><ele>385.99999999999994</ele><time>2026-04-12T11:20:55.875Z</time></trkpt><trkpt lat="45.127575" lon="8.0124517"><ele>386.0</ele><time>2026-04-12T11:20:56.875Z</time></trkpt><trkpt lat="45.1275917" lon="8.0123267"><ele>385.99999999999994</ele><time>2026-04-12T11:20:57.875Z</time></trkpt><trkpt lat="45.127595" lon="8.0122033"><ele>386.0</ele><time>2026-04-12T11:20:58.875Z</time></trkpt><trkpt lat="45.1275917" lon="8.0120817"><ele>386.0</ele><time>2026-04-12T11:20:59.875Z</time></trkpt><trkpt lat="45.127585" lon="8.0119517"><ele>386.0</ele><time>2026-04-12T11:21:00.875Z</time></trkpt><trkpt lat="45.1275617" lon="8.0118467"><ele>385.99999999999994</ele><time>2026-04-12T11:21:01.876Z</time></trkpt><trkpt lat="45.1275383" lon="8.0117467"><ele>386.0</ele><time>2026-04-12T11:21:02.875Z</time></trkpt><trkpt lat="45.12752" lon="8.011655"><ele>385.99999999999994</ele><time>2026-04-12T11:21:03.875Z</time></trkpt><trkpt lat="45.1275183" lon="8.01156"><ele>386.0</ele><time>2026-04-12T11:21:04.876Z</time></trkpt><trkpt lat="45.127565" lon="8.0114383"><ele>386.0</ele><time>2026-04-12T11:21:06.875Z</time></trkpt><trkpt lat="45.12767" lon="8.0114783"><ele>386.0</ele><time>2026-04-12T11:21:08.875Z</time></trkpt><trkpt lat="45.1277233" lon="8.0115633"><ele>385.99999999999994</ele><time>2026-04-12T11:21:09.875Z</time></trkpt><trkpt lat="45.1277767" lon="8.011675"><ele>386.0</ele><time>2026-04-12T11:21:10.876Z</time></trkpt><trkpt lat="45.1278233" lon="8.011755"><ele>385.99999999999994</ele><time>2026-04-12T11:21:11.875Z</time></trkpt><trkpt lat="45.1278767" lon="8.0118067"><ele>386.0</ele><time>2026-04-12T11:21:12.876Z</time></trkpt><trkpt lat="45.1279933" lon="8.01185"><ele>386.0</ele><time>2026-04-12T11:21:14.875Z</time></trkpt><trkpt lat="45.1280733" lon="8.0118667"><ele>386.0</ele><time>2026-04-12T11:21:15.876Z</time></trkpt><trkpt lat="45.128155" lon="8.0118967"><ele>385.99999999999994</ele><time>2026-04-12T11:21:16.875Z</time></trkpt><trkpt lat="45.12824" lon="8.0119617"><ele>386.0</ele><time>2026-04-12T11:21:17.876Z</time></trkpt><trkpt lat="45.1283167" lon="8.0120417"><ele>384.20000000000005</ele><time>2026-04-12T11:21:18.876Z</time></trkpt><trkpt lat="45.1283967" lon="8.0121283"><ele>382.40000000000003</ele><time>2026-04-12T11:21:19.875Z</time></trkpt><trkpt lat="45.1284833" lon="8.0122167"><ele>380.6</ele><time>2026-04-12T11:21:20.876Z</time></trkpt><trkpt lat="45.128575" lon="8.0122917"><ele>378.8</ele><time>2026-04-12T11:21:21.875Z</time></trkpt><trkpt lat="45.1286717" lon="8.0123567"><ele>377.0</ele><time>2026-04-12T11:21:22.875Z</time></trkpt><trkpt lat="45.1287733" lon="8.0123933"><ele>377.0</ele><time>2026-04-12T11:21:23.875Z</time></trkpt><trkpt lat="45.12888" lon="8.0124017"><ele>377.0</ele><time>2026-04-12T11:21:24.876Z</time></trkpt><trkpt lat="45.1289883" lon="8.0123983"><ele>377.0</ele><time>2026-04-12T11:21:25.876Z</time></trkpt><trkpt lat="45.1290933" lon="8.0123783"><ele>377.0</ele><time>2026-04-12T11:21:26.876Z</time></trkpt><trkpt lat="45.1292017" lon="8.01239"><ele>377.0</ele><time>2026-04-12T11:21:27.876Z</time></trkpt><trkpt lat="45.1293133" lon="8.0124117"><ele>378.20000000000005</ele><time>2026-04-12T11:21:28.876Z</time></trkpt><trkpt lat="45.1294333" lon="8.0124183"><ele>379.4</ele><time>2026-04-12T11:21:29.875Z</time></trkpt><trkpt lat="45.129545" lon="8.01243"><ele>380.6</ele><time>2026-04-12T11:21:30.875Z</time></trkpt><trkpt lat="45.1296467" lon="8.0124417"><ele>381.79999999999995</ele><time>2026-04-12T11:21:31.876Z</time></trkpt><trkpt lat="45.12975" lon="8.01242"><ele>383.0</ele><time>2026-04-12T11:21:32.876Z</time></trkpt><trkpt lat="45.1298483" lon="8.0123767"><ele>382.0</ele><time>2026-04-12T11:21:33.876Z</time></trkpt><trkpt lat="45.129945" lon="8.0123433"><ele>381.0</ele><time>2026-04-12T11:21:34.876Z</time></trkpt><trkpt lat="45.130045" lon="8.01234"><ele>380.0</ele><time>2026-04-12T11:21:35.875Z</time></trkpt><trkpt lat="45.1301367" lon="8.0123667"><ele>379.0</ele><time>2026-04-12T11:21:36.875Z</time></trkpt><trkpt lat="45.13023" lon="8.012425"><ele>378.0</ele><time>2026-04-12T11:21:37.875Z</time></trkpt><trkpt lat="45.1303267" lon="8.0124883"><ele>375.0</ele><time>2026-04-12T11:21:38.876Z</time></trkpt><trkpt lat="45.130425" lon="8.0125567"><ele>372.0</ele><time>2026-04-12T11:21:39.876Z</time></trkpt><trkpt lat="45.1305167" lon="8.0126183"><ele>369.0</ele><time>2026-04-12T11:21:40.876Z</time></trkpt><trkpt lat="45.1306067" lon="8.012625"><ele>366.0</ele><time>2026-04-12T11:21:41.876Z</time></trkpt><trkpt lat="45.1306883" lon="8.012595"><ele>363.0</ele><time>2026-04-12T11:21:42.876Z</time></trkpt><trkpt lat="45.13076" lon="8.0125283"><ele>365.4</ele><time>2026-04-12T11:21:43.875Z</time></trkpt><trkpt lat="45.1308233" lon="8.0124283"><ele>367.79999999999995</ele><time>2026-04-12T11:21:44.875Z</time></trkpt><trkpt lat="45.1309017" lon="8.0123283"><ele>370.2</ele><time>2026-04-12T11:21:45.876Z</time></trkpt><trkpt lat="45.13098" lon="8.0122283"><ele>372.6</ele><time>2026-04-12T11:21:46.876Z</time></trkpt><trkpt lat="45.131065" lon="8.012145"><ele>375.0</ele><time>2026-04-12T11:21:47.875Z</time></trkpt><trkpt lat="45.1311467" lon="8.0121"><ele>375.0</ele><time>2026-04-12T11:21:48.875Z</time></trkpt><trkpt lat="45.13123" lon="8.0120783"><ele>375.0</ele><time>2026-04-12T11:21:49.876Z</time></trkpt><trkpt lat="45.1313167" lon="8.0120733"><ele>375.0</ele><time>2026-04-12T11:21:50.876Z</time></trkpt><trkpt lat="45.131395" lon="8.0120767"><ele>375.0</ele><time>2026-04-12T11:21:51.875Z</time></trkpt><trkpt lat="45.1314717" lon="8.0120917"><ele>375.0</ele><time>2026-04-12T11:21:52.875Z</time></trkpt><trkpt lat="45.1315467" lon="8.0121417"><ele>375.0</ele><time>2026-04-12T11:21:53.876Z</time></trkpt><trkpt lat="45.1316133" lon="8.0122267"><ele>368.8</ele><time>2026-04-12T11:21:54.876Z</time></trkpt><trkpt lat="45.1316817" lon="8.0123433"><ele>362.6</ele><time>2026-04-12T11:21:55.876Z</time></trkpt><trkpt lat="45.131745" lon="8.0124733"><ele>356.4</ele><time>2026-04-12T11:21:56.876Z</time></trkpt><trkpt lat="45.13182" lon="8.0125983"><ele>350.2</ele><time>2026-04-12T11:21:57.875Z</time></trkpt><trkpt lat="45.13191" lon="8.0126983"><ele>344.0</ele><time>2026-04-12T11:21:58.875Z</time></trkpt><trkpt lat="45.1320133" lon="8.0127767"><ele>344.0</ele><time>2026-04-12T11:21:59.875Z</time></trkpt><trkpt lat="45.1321217" lon="8.0128433"><ele>344.0</ele><time>2026-04-12T11:22:00.876Z</time></trkpt><trkpt lat="45.1322267" lon="8.0128917"><ele>344.0</ele><time>2026-04-12T11:22:01.876Z</time></trkpt><trkpt lat="45.1323367" lon="8.012925"><ele>344.0</ele><time>2026-04-12T11:22:02.875Z</time></trkpt><trkpt lat="45.132445" lon="8.0129667"><ele>343.0</ele><time>2026-04-12T11:22:03.876Z</time></trkpt><trkpt lat="45.132555" lon="8.01301"><ele>342.0</ele><time>2026-04-12T11:22:04.875Z</time></trkpt><trkpt lat="45.1326583" lon="8.01306"><ele>341.0</ele><time>2026-04-12T11:22:05.875Z</time></trkpt><trkpt lat="45.1327633" lon="8.0130933"><ele>340.0</ele><time>2026-04-12T11:22:06.875Z</time></trkpt><trkpt lat="45.13287" lon="8.0131367"><ele>339.0</ele><time>2026-04-12T11:22:07.876Z</time></trkpt><trkpt lat="45.13297" lon="8.0132017"><ele>339.0</ele><time>2026-04-12T11:22:08.875Z</time></trkpt><trkpt lat="45.133075" lon="8.0132617"><ele>339.0</ele><time>2026-04-12T11:22:09.876Z</time></trkpt><trkpt lat="45.1331883" lon="8.0133383"><ele>339.0</ele><time>2026-04-12T11:22:10.876Z</time></trkpt><trkpt lat="45.1333067" lon="8.01341"><ele>339.0</ele><time>2026-04-12T11:22:11.876Z</time></trkpt><trkpt lat="45.133425" lon="8.0134717"><ele>340.5</ele><time>2026-04-12T11:22:12.876Z</time></trkpt><trkpt lat="45.1335433" lon="8.0135467"><ele>342.0</ele><time>2026-04-12T11:22:13.875Z</time></trkpt><trkpt lat="45.1336633" lon="8.0136133"><ele>343.5</ele><time>2026-04-12T11:22:14.876Z</time></trkpt><trkpt lat="45.1337883" lon="8.013685"><ele>345.0</ele><time>2026-04-12T11:22:15.876Z</time></trkpt><trkpt lat="45.133915" lon="8.0137683"><ele>345.0</ele><time>2026-04-12T11:22:16.875Z</time></trkpt><trkpt lat="45.1340483" lon="8.0138483"><ele>345.0</ele><time>2026-04-12T11:22:17.875Z</time></trkpt><trkpt lat="45.134185" lon="8.0139117"><ele>345.0</ele><time>2026-04-12T11:22:18.875Z</time></trkpt><trkpt lat="45.13431" lon="8.0139617"><ele>345.0</ele><time>2026-04-12T11:22:19.875Z</time></trkpt><trkpt lat="45.13443" lon="8.0140183"><ele>342.25</ele><time>2026-04-12T11:22:20.875Z</time></trkpt><trkpt lat="45.13455" lon="8.0140967"><ele>339.5</ele><time>2026-04-12T11:22:21.875Z</time></trkpt><trkpt lat="45.13467" lon="8.0141933"><ele>336.75</ele><time>2026-04-12T11:22:22.875Z</time></trkpt><trkpt lat="45.13479" lon="8.0143"><ele>334.0</ele><time>2026-04-12T11:22:23.876Z</time></trkpt><trkpt lat="45.1349183" lon="8.0144083"><ele>330.3333333333333</ele><time>2026-04-12T11:22:24.876Z</time></trkpt><trkpt lat="45.135055" lon="8.0145067"><ele>326.6666666666667</ele><time>2026-04-12T11:22:25.875Z</time></trkpt><trkpt lat="45.1351917" lon="8.014605"><ele>323.0</ele><time>2026-04-12T11:22:26.875Z</time></trkpt><trkpt lat="45.1353233" lon="8.0146983"><ele>323.0</ele><time>2026-04-12T11:22:27.875Z</time></trkpt><trkpt lat="45.1354533" lon="8.0148017"><ele>323.0</ele><time>2026-04-12T11:22:28.875Z</time></trkpt><trkpt lat="45.135585" lon="8.0148983"><ele>323.0</ele><time>2026-04-12T11:22:29.875Z</time></trkpt><trkpt lat="45.1357183" lon="8.015"><ele>323.0</ele><time>2026-04-12T11:22:30.875Z</time></trkpt><trkpt lat="45.1358483" lon="8.0151"><ele>321.5</ele><time>2026-04-12T11:22:31.876Z</time></trkpt><trkpt lat="45.1359833" lon="8.0152017"><ele>320.0</ele><time>2026-04-12T11:22:32.876Z</time></trkpt><trkpt lat="45.136115" lon="8.0153033"><ele>318.5</ele><time>2026-04-12T11:22:33.876Z</time></trkpt><trkpt lat="45.136245" lon="8.015395"><ele>317.0</ele><time>2026-04-12T11:22:34.876Z</time></trkpt><trkpt lat="45.13637" lon="8.01549"><ele>317.0</ele><time>2026-04-12T11:22:35.875Z</time></trkpt><trkpt lat="45.13649" lon="8.0155683"><ele>317.0</ele><time>2026-04-12T11:22:36.875Z</time></trkpt><trkpt lat="45.1366033" lon="8.0156417"><ele>317.0</ele><time>2026-04-12T11:22:37.876Z</time></trkpt><trkpt lat="45.1366967" lon="8.0157317"><ele>317.0</ele><time>2026-04-12T11:22:38.875Z</time></trkpt><trkpt lat="45.1367717" lon="8.0158467"><ele>316.4</ele><time>2026-04-12T11:22:39.876Z</time></trkpt><trkpt lat="45.1368033" lon="8.0159867"><ele>315.79999999999995</ele><time>2026-04-12T11:22:40.876Z</time></trkpt><trkpt lat="45.1368033" lon="8.0161367"><ele>315.2</ele><time>2026-04-12T11:22:41.875Z</time></trkpt><trkpt lat="45.136785" lon="8.0162917"><ele>314.59999999999997</ele><time>2026-04-12T11:22:42.875Z</time></trkpt><trkpt lat="45.1367633" lon="8.0164517"><ele>314.0</ele><time>2026-04-12T11:22:43.875Z</time></trkpt><trkpt lat="45.1367433" lon="8.0166117"><ele>313.0</ele><time>2026-04-12T11:22:44.876Z</time></trkpt><trkpt lat="45.13675" lon="8.0167683"><ele>312.0</ele><time>2026-04-12T11:22:45.875Z</time></trkpt><trkpt lat="45.1367983" lon="8.01692"><ele>311.0</ele><time>2026-04-12T11:22:46.876Z</time></trkpt><trkpt lat="45.1368717" lon="8.0170683"><ele>310.0</ele><time>2026-04-12T11:22:47.875Z</time></trkpt><trkpt lat="45.13694" lon="8.0172183"><ele>310.0</ele><time>2026-04-12T11:22:48.876Z</time></trkpt><trkpt lat="45.13701" lon="8.0173467"><ele>310.0</ele><time>2026-04-12T11:22:49.876Z</time></trkpt><trkpt lat="45.1370883" lon="8.0174683"><ele>310.0</ele><time>2026-04-12T11:22:50.875Z</time></trkpt><trkpt lat="45.1371883" lon="8.017565"><ele>310.0</ele><time>2026-04-12T11:22:51.876Z</time></trkpt><trkpt lat="45.13731" lon="8.0176567"><ele>305.75</ele><time>2026-04-12T11:22:52.876Z</time></trkpt><trkpt lat="45.1374433" lon="8.01775"><ele>301.5</ele><time>2026-04-12T11:22:53.876Z</time></trkpt><trkpt lat="45.13757" lon="8.01787"><ele>297.25</ele><time>2026-04-12T11:22:54.876Z</time></trkpt><trkpt lat="45.13767" lon="8.0180183"><ele>293.0</ele><time>2026-04-12T11:22:55.875Z</time></trkpt><trkpt lat="45.1377717" lon="8.0181683"><ele>293.0</ele><time>2026-04-12T11:22:56.876Z</time></trkpt><trkpt lat="45.1378717" lon="8.018315"><ele>293.0</ele><time>2026-04-12T11:22:57.876Z</time></trkpt><trkpt lat="45.13798" lon="8.0184467"><ele>293.0</ele><time>2026-04-12T11:22:58.876Z</time></trkpt><trkpt lat="45.1380933" lon="8.0185683"><ele>293.0</ele><time>2026-04-12T11:22:59.876Z</time></trkpt><trkpt lat="45.1381933" lon="8.0186883"><ele>291.2</ele><time>2026-04-12T11:23:00.875Z</time></trkpt><trkpt lat="45.1382617" lon="8.0188233"><ele>289.4</ele><time>2026-04-12T11:23:01.875Z</time></trkpt><trkpt lat="45.1383317" lon="8.0189417"><ele>287.59999999999997</ele><time>2026-04-12T11:23:02.876Z</time></trkpt><trkpt lat="45.1384033" lon="8.0190217"><ele>285.8</ele><time>2026-04-12T11:23:03.875Z</time></trkpt><trkpt lat="45.1384767" lon="8.019065"><ele>284.0</ele><time>2026-04-12T11:23:04.876Z</time></trkpt><trkpt lat="45.1385533" lon="8.019085"><ele>284.0</ele><time>2026-04-12T11:23:05.876Z</time></trkpt><trkpt lat="45.1386267" lon="8.0190817"><ele>284.0</ele><time>2026-04-12T11:23:06.875Z</time></trkpt><trkpt lat="45.1387" lon="8.0190517"><ele>284.0</ele><time>2026-04-12T11:23:07.876Z</time></trkpt><trkpt lat="45.1387717" lon="8.0190183"><ele>284.0</ele><time>2026-04-12T11:23:08.876Z</time></trkpt><trkpt lat="45.1388417" lon="8.0189733"><ele>284.0</ele><time>2026-04-12T11:23:09.876Z</time></trkpt><trkpt lat="45.13892" lon="8.0189583"><ele>284.0</ele><time>2026-04-12T11:23:10.875Z</time></trkpt><trkpt lat="45.1390133" lon="8.0189833"><ele>284.5</ele><time>2026-04-12T11:23:11.876Z</time></trkpt><trkpt lat="45.13911" lon="8.0190467"><ele>285.0</ele><time>2026-04-12T11:23:12.875Z</time></trkpt><trkpt lat="45.1391983" lon="8.0191567"><ele>285.5</ele><time>2026-04-12T11:23:13.876Z</time></trkpt><trkpt lat="45.1392817" lon="8.0192683"><ele>286.0</ele><time>2026-04-12T11:23:14.875Z</time></trkpt><trkpt lat="45.1393717" lon="8.01936"><ele>286.0</ele><time>2026-04-12T11:23:15.876Z</time></trkpt><trkpt lat="45.1394533" lon="8.01945"><ele>286.0</ele><time>2026-04-12T11:23:16.875Z</time></trkpt><trkpt lat="45.139535" lon="8.0195417"><ele>286.0</ele><time>2026-04-12T11:23:17.876Z</time></trkpt><trkpt lat="45.1396183" lon="8.0196217"><ele>286.0</ele><time>2026-04-12T11:23:18.876Z</time></trkpt><trkpt lat="45.1397067" lon="8.0197033"><ele>286.0</ele><time>2026-04-12T11:23:19.875Z</time></trkpt><trkpt lat="45.1398067" lon="8.0197917"><ele>287.6</ele><time>2026-04-12T11:23:20.875Z</time></trkpt><trkpt lat="45.1399117" lon="8.0198833"><ele>289.20000000000005</ele><time>2026-04-12T11:23:21.876Z</time></trkpt><trkpt lat="45.14" lon="8.0199717"><ele>290.79999999999995</ele><time>2026-04-12T11:23:22.875Z</time></trkpt><trkpt lat="45.1400733" lon="8.0200767"><ele>292.4</ele><time>2026-04-12T11:23:23.875Z</time></trkpt><trkpt lat="45.14013" lon="8.0201867"><ele>294.0</ele><time>2026-04-12T11:23:24.875Z</time></trkpt><trkpt lat="45.14017" lon="8.020305"><ele>294.0</ele><time>2026-04-12T11:23:25.875Z</time></trkpt><trkpt lat="45.1402017" lon="8.0204383"><ele>294.0</ele><time>2026-04-12T11:23:26.875Z</time></trkpt><trkpt lat="45.14024" lon="8.02056"><ele>294.0</ele><time>2026-04-12T11:23:27.876Z</time></trkpt><trkpt lat="45.1403" lon="8.0206583"><ele>294.0</ele><time>2026-04-12T11:23:28.876Z</time></trkpt><trkpt lat="45.140385" lon="8.020745"><ele>294.0</ele><time>2026-04-12T11:23:29.876Z</time></trkpt><trkpt lat="45.14049" lon="8.0208033"><ele>294.5</ele><time>2026-04-12T11:23:30.875Z</time></trkpt><trkpt lat="45.1405933" lon="8.0208667"><ele>295.0</ele><time>2026-04-12T11:23:31.875Z</time></trkpt><trkpt lat="45.1407" lon="8.02095"><ele>295.5</ele><time>2026-04-12T11:23:32.875Z</time></trkpt><trkpt lat="45.1407933" lon="8.0210467"><ele>296.0</ele><time>2026-04-12T11:23:33.875Z</time></trkpt><trkpt lat="45.140885" lon="8.0211483"><ele>297.6</ele><time>2026-04-12T11:23:34.875Z</time></trkpt><trkpt lat="45.1409733" lon="8.02125"><ele>299.20000000000005</ele><time>2026-04-12T11:23:35.875Z</time></trkpt><trkpt lat="45.141055" lon="8.021355"><ele>300.79999999999995</ele><time>2026-04-12T11:23:36.876Z</time></trkpt><trkpt lat="45.1411367" lon="8.021455"><ele>302.4</ele><time>2026-04-12T11:23:37.875Z</time></trkpt><trkpt lat="45.1412233" lon="8.0215333"><ele>304.0</ele><time>2026-04-12T11:23:38.875Z</time></trkpt><trkpt lat="45.1413" lon="8.021585"><ele>304.0</ele><time>2026-04-12T11:23:39.876Z</time></trkpt><trkpt lat="45.1413867" lon="8.0216467"><ele>304.0</ele><time>2026-04-12T11:23:40.875Z</time></trkpt><trkpt lat="45.1414933" lon="8.0217183"><ele>304.0</ele><time>2026-04-12T11:23:41.876Z</time></trkpt><trkpt lat="45.1416167" lon="8.02179"><ele>304.0</ele><time>2026-04-12T11:23:42.875Z</time></trkpt><trkpt lat="45.141745" lon="8.0218717"><ele>305.3333333333333</ele><time>2026-04-12T11:23:43.876Z</time></trkpt><trkpt lat="45.1418717" lon="8.0219883"><ele>306.6666666666667</ele><time>2026-04-12T11:23:44.876Z</time></trkpt><trkpt lat="45.1420017" lon="8.022105"><ele>308.0</ele><time>2026-04-12T11:23:45.875Z</time></trkpt><trkpt lat="45.1421283" lon="8.022235"><ele>308.0</ele><time>2026-04-12T11:23:46.876Z</time></trkpt><trkpt lat="45.1422733" lon="8.0223567"><ele>308.0</ele><time>2026-04-12T11:23:47.876Z</time></trkpt><trkpt lat="45.1424133" lon="8.0224517"><ele>308.0</ele><time>2026-04-12T11:23:48.876Z</time></trkpt><trkpt lat="45.1425467" lon="8.0225383"><ele>307.0</ele><time>2026-04-12T11:23:49.876Z</time></trkpt><trkpt lat="45.1426683" lon="8.0226333"><ele>306.0</ele><time>2026-04-12T11:23:50.875Z</time></trkpt><trkpt lat="45.1427867" lon="8.0227433"><ele>305.0</ele><time>2026-04-12T11:23:51.875Z</time></trkpt><trkpt lat="45.1428883" lon="8.0228783"><ele>304.0</ele><time>2026-04-12T11:23:52.875Z</time></trkpt><trkpt lat="45.142975" lon="8.0230233"><ele>304.0</ele><time>2026-04-12T11:23:53.876Z</time></trkpt><trkpt lat="45.1430233" lon="8.0231717"><ele>304.0</ele><time>2026-04-12T11:23:54.875Z</time></trkpt><trkpt lat="45.14306" lon="8.023305"><ele>304.0</ele><time>2026-04-12T11:23:55.876Z</time></trkpt><trkpt lat="45.1431033" lon="8.0234433"><ele>304.0</ele><time>2026-04-12T11:23:56.875Z</time></trkpt><trkpt lat="45.1431633" lon="8.0235583"><ele>304.0</ele><time>2026-04-12T11:23:57.875Z</time></trkpt><trkpt lat="45.14325" lon="8.0236367"><ele>304.59999999999997</ele><time>2026-04-12T11:23:58.875Z</time></trkpt><trkpt lat="45.143345" lon="8.0236917"><ele>305.2</ele><time>2026-04-12T11:23:59.876Z</time></trkpt><trkpt lat="45.14345" lon="8.0237083"><ele>305.79999999999995</ele><time>2026-04-12T11:24:00.876Z</time></trkpt><trkpt lat="45.1435583" lon="8.0237033"><ele>306.4</ele><time>2026-04-12T11:24:01.876Z</time></trkpt><trkpt lat="45.14367" lon="8.023715"><ele>307.0</ele><time>2026-04-12T11:24:02.876Z</time></trkpt><trkpt lat="45.143785" lon="8.0237483"><ele>307.0</ele><time>2026-04-12T11:24:03.876Z</time></trkpt><trkpt lat="45.14389" lon="8.0238183"><ele>307.0</ele><time>2026-04-12T11:24:04.876Z</time></trkpt><trkpt lat="45.1439917" lon="8.0239083"><ele>307.0</ele><time>2026-04-12T11:24:05.876Z</time></trkpt><trkpt lat="45.1441033" lon="8.024"><ele>307.0</ele><time>2026-04-12T11:24:06.876Z</time></trkpt><trkpt lat="45.1441967" lon="8.024085"><ele>309.2</ele><time>2026-04-12T11:24:07.876Z</time></trkpt><trkpt lat="45.1442983" lon="8.0241433"><ele>311.4</ele><time>2026-04-12T11:24:08.876Z</time></trkpt><trkpt lat="45.14439" lon="8.024205"><ele>313.6</ele><time>2026-04-12T11:24:09.875Z</time></trkpt><trkpt lat="45.1444833" lon="8.0242833"><ele>315.8</ele><time>2026-04-12T11:24:10.876Z</time></trkpt><trkpt lat="45.144565" lon="8.024385"><ele>318.0</ele><time>2026-04-12T11:24:11.876Z</time></trkpt><trkpt lat="45.14464" lon="8.0245033"><ele>317.5</ele><time>2026-04-12T11:24:12.876Z</time></trkpt><trkpt lat="45.1447017" lon="8.0246433"><ele>317.0</ele><time>2026-04-12T11:24:13.875Z</time></trkpt><trkpt lat="45.1447567" lon="8.0247967"><ele>316.5</ele><time>2026-04-12T11:24:14.875Z</time></trkpt><trkpt lat="45.144795" lon="8.0249667"><ele>316.0</ele><time>2026-04-12T11:24:15.876Z</time></trkpt><trkpt lat="45.1448267" lon="8.0251317"><ele>316.0</ele><time>2026-04-12T11:24:16.876Z</time></trkpt><trkpt lat="45.1448583" lon="8.025295"><ele>316.0</ele><time>2026-04-12T11:24:17.876Z</time></trkpt><trkpt lat="45.1448783" lon="8.0254583"><ele>316.0</ele><time>2026-04-12T11:24:18.875Z</time></trkpt><trkpt lat="45.1448817" lon="8.0256167"><ele>316.0</ele><time>2026-04-12T11:24:19.875Z</time></trkpt><trkpt lat="45.1448583" lon="8.0257667"><ele>317.0</ele><time>2026-04-12T11:24:20.876Z</time></trkpt><trkpt lat="45.14482" lon="8.0259183"><ele>318.0</ele><time>2026-04-12T11:24:21.875Z</time></trkpt><trkpt lat="45.1447683" lon="8.0260483"><ele>319.0</ele><time>2026-04-12T11:24:22.875Z</time></trkpt><trkpt lat="45.144715" lon="8.026155"><ele>320.0</ele><time>2026-04-12T11:24:23.875Z</time></trkpt><trkpt lat="45.1446633" lon="8.02627"><ele>321.0</ele><time>2026-04-12T11:24:24.875Z</time></trkpt><trkpt lat="45.1446333" lon="8.0263717"><ele>321.0</ele><time>2026-04-12T11:24:25.876Z</time></trkpt><trkpt lat="45.1446267" lon="8.026485"><ele>321.0</ele><time>2026-04-12T11:24:26.875Z</time></trkpt><trkpt lat="45.1446367" lon="8.0265917"><ele>321.0</ele><time>2026-04-12T11:24:27.875Z</time></trkpt><trkpt lat="45.144645" lon="8.0267317"><ele>321.0</ele><time>2026-04-12T11:24:28.875Z</time></trkpt><trkpt lat="45.1446733" lon="8.0268767"><ele>321.0</ele><time>2026-04-12T11:24:29.876Z</time></trkpt><trkpt lat="45.1447017" lon="8.0270367"><ele>320.5</ele><time>2026-04-12T11:24:30.875Z</time></trkpt><trkpt lat="45.1447433" lon="8.0272067"><ele>320.0</ele><time>2026-04-12T11:24:31.876Z</time></trkpt><trkpt lat="45.1447817" lon="8.0273967"><ele>319.5</ele><time>2026-04-12T11:24:32.876Z</time></trkpt><trkpt lat="45.144815" lon="8.0275717"><ele>319.0</ele><time>2026-04-12T11:24:33.875Z</time></trkpt><trkpt lat="45.1448317" lon="8.0277433"><ele>314.75</ele><time>2026-04-12T11:24:34.876Z</time></trkpt><trkpt lat="45.144835" lon="8.0279033"><ele>310.5</ele><time>2026-04-12T11:24:35.875Z</time></trkpt><trkpt lat="45.1448333" lon="8.02805"><ele>306.25</ele><time>2026-04-12T11:24:36.876Z</time></trkpt><trkpt lat="45.1448383" lon="8.0282067"><ele>302.0</ele><time>2026-04-12T11:24:37.875Z</time></trkpt><trkpt lat="45.144855" lon="8.0283917"><ele>306.33333333333337</ele><time>2026-04-12T11:24:38.876Z</time></trkpt><trkpt lat="45.1448833" lon="8.0285917"><ele>310.6666666666667</ele><time>2026-04-12T11:24:39.876Z</time></trkpt><trkpt lat="45.1449183" lon="8.0288067"><ele>315.0</ele><time>2026-04-12T11:24:40.875Z</time></trkpt><trkpt lat="45.1449483" lon="8.02902"><ele>315.5</ele><time>2026-04-12T11:24:41.876Z</time></trkpt><trkpt lat="45.1449783" lon="8.0292383"><ele>316.0</ele><time>2026-04-12T11:24:42.875Z</time></trkpt><trkpt lat="45.1450067" lon="8.02944"><ele>316.5</ele><time>2026-04-12T11:24:43.875Z</time></trkpt><trkpt lat="45.1450283" lon="8.0296283"><ele>317.0</ele><time>2026-04-12T11:24:44.875Z</time></trkpt><trkpt lat="45.14505" lon="8.0297983"><ele>317.0</ele><time>2026-04-12T11:24:45.876Z</time></trkpt><trkpt lat="45.1450783" lon="8.029945"><ele>317.0</ele><time>2026-04-12T11:24:46.875Z</time></trkpt><trkpt lat="45.1451233" lon="8.0300667"><ele>317.0</ele><time>2026-04-12T11:24:47.876Z</time></trkpt><trkpt lat="45.145185" lon="8.030175"><ele>317.0</ele><time>2026-04-12T11:24:48.876Z</time></trkpt><trkpt lat="45.1452867" lon="8.03027"><ele>317.0</ele><time>2026-04-12T11:24:49.875Z</time></trkpt><trkpt lat="45.145395" lon="8.0303367"><ele>317.0</ele><time>2026-04-12T11:24:50.875Z</time></trkpt><trkpt lat="45.1455133" lon="8.0303967"><ele>317.0</ele><time>2026-04-12T11:24:51.875Z</time></trkpt><trkpt lat="45.1456167" lon="8.0304567"><ele>317.0</ele><time>2026-04-12T11:24:52.875Z</time></trkpt><trkpt lat="45.14572" lon="8.03049"><ele>317.0</ele><time>2026-04-12T11:24:53.876Z</time></trkpt><trkpt lat="45.1458183" lon="8.0304733"><ele>317.0</ele><time>2026-04-12T11:24:54.876Z</time></trkpt><trkpt lat="45.1459117" lon="8.0304283"><ele>311.6</ele><time>2026-04-12T11:24:55.876Z</time></trkpt><trkpt lat="45.1460033" lon="8.0303883"><ele>306.2</ele><time>2026-04-12T11:24:56.875Z</time></trkpt><trkpt lat="45.1460967" lon="8.0303567"><ele>300.8</ele><time>2026-04-12T11:24:57.875Z</time></trkpt><trkpt lat="45.1461883" lon="8.030345"><ele>295.4</ele><time>2026-04-12T11:24:58.875Z</time></trkpt><trkpt lat="45.1462767" lon="8.0303633"><ele>290.0</ele><time>2026-04-12T11:24:59.876Z</time></trkpt><trkpt lat="45.1463817" lon="8.0303733"><ele>290.0</ele><time>2026-04-12T11:25:00.875Z</time></trkpt><trkpt lat="45.14649" lon="8.0303833"><ele>290.0</ele><time>2026-04-12T11:25:01.875Z</time></trkpt><trkpt lat="45.1466033" lon="8.0303983"><ele>290.0</ele><time>2026-04-12T11:25:02.876Z</time></trkpt><trkpt lat="45.14671" lon="8.0304233"><ele>290.0</ele><time>2026-04-12T11:25:03.875Z</time></trkpt><trkpt lat="45.1468167" lon="8.030455"><ele>290.0</ele><time>2026-04-12T11:25:04.876Z</time></trkpt><trkpt lat="45.146915" lon="8.0304817"><ele>287.2</ele><time>2026-04-12T11:25:05.876Z</time></trkpt><trkpt lat="45.14702" lon="8.03051"><ele>284.4</ele><time>2026-04-12T11:25:06.876Z</time></trkpt><trkpt lat="45.1471133" lon="8.0305533"><ele>281.6</ele><time>2026-04-12T11:25:07.875Z</time></trkpt><trkpt lat="45.1472067" lon="8.0306017"><ele>278.8</ele><time>2026-04-12T11:25:08.875Z</time></trkpt><trkpt lat="45.147285" lon="8.0306417"><ele>276.0</ele><time>2026-04-12T11:25:09.876Z</time></trkpt><trkpt lat="45.147375" lon="8.030685"><ele>275.40000000000003</ele><time>2026-04-12T11:25:10.876Z</time></trkpt><trkpt lat="45.14746" lon="8.03072"><ele>274.8</ele><time>2026-04-12T11:25:11.875Z</time></trkpt><trkpt lat="45.1475433" lon="8.0307667"><ele>274.20000000000005</ele><time>2026-04-12T11:25:12.875Z</time></trkpt><trkpt lat="45.1476233" lon="8.0308183"><ele>273.6</ele><time>2026-04-12T11:25:13.875Z</time></trkpt><trkpt lat="45.1476933" lon="8.0308967"><ele>273.0</ele><time>2026-04-12T11:25:14.875Z</time></trkpt><trkpt lat="45.1477567" lon="8.0309983"><ele>275.6</ele><time>2026-04-12T11:25:15.876Z</time></trkpt><trkpt lat="45.1478183" lon="8.0311083"><ele>278.20000000000005</ele><time>2026-04-12T11:25:16.876Z</time></trkpt><trkpt lat="45.1478883" lon="8.0312233"><ele>280.8</ele><time>2026-04-12T11:25:17.875Z</time></trkpt><trkpt lat="45.1479767" lon="8.0313383"><ele>283.40000000000003</ele><time>2026-04-12T11:25:18.876Z</time></trkpt><trkpt lat="45.14808" lon="8.0314333"><ele>286.0</ele><time>2026-04-12T11:25:19.876Z</time></trkpt><trkpt lat="45.1481817" lon="8.0314983"><ele>285.8</ele><time>2026-04-12T11:25:20.876Z</time></trkpt><trkpt lat="45.148275" lon="8.0315617"><ele>285.6</ele><time>2026-04-12T11:25:21.876Z</time></trkpt><trkpt lat="45.1483517" lon="8.0316317"><ele>285.4</ele><time>2026-04-12T11:25:22.876Z</time></trkpt><trkpt lat="45.1484317" lon="8.0316967"><ele>285.2</ele><time>2026-04-12T11:25:23.875Z</time></trkpt><trkpt lat="45.1485133" lon="8.0317333"><ele>285.0</ele><time>2026-04-12T11:25:24.875Z</time></trkpt><trkpt lat="45.1486083" lon="8.03177"><ele>284.8</ele><time>2026-04-12T11:25:25.875Z</time></trkpt><trkpt lat="45.1487083" lon="8.0317767"><ele>284.6</ele><time>2026-04-12T11:25:26.876Z</time></trkpt><trkpt lat="45.1488167" lon="8.0317833"><ele>284.4</ele><time>2026-04-12T11:25:27.875Z</time></trkpt><trkpt lat="45.1489133" lon="8.0318133"><ele>284.2</ele><time>2026-04-12T11:25:28.876Z</time></trkpt><trkpt lat="45.149" lon="8.03185"><ele>284.0</ele><time>2026-04-12T11:25:29.876Z</time></trkpt><trkpt lat="45.1490733" lon="8.0318867"><ele>284.0</ele><time>2026-04-12T11:25:30.875Z</time></trkpt><trkpt lat="45.149135" lon="8.0319133"><ele>284.0</ele><time>2026-04-12T11:25:31.875Z</time></trkpt><trkpt lat="45.14922" lon="8.03199"><ele>284.0</ele><time>2026-04-12T11:25:33.875Z</time></trkpt><trkpt lat="45.1492217" lon="8.032125"><ele>284.0</ele><time>2026-04-12T11:25:35.875Z</time></trkpt><trkpt lat="45.1491883" lon="8.032215"><ele>284.0</ele><time>2026-04-12T11:25:36.875Z</time></trkpt><trkpt lat="45.149145" lon="8.0323283"><ele>284.0</ele><time>2026-04-12T11:25:37.875Z</time></trkpt><trkpt lat="45.1491133" lon="8.0324583"><ele>282.4</ele><time>2026-04-12T11:25:38.875Z</time></trkpt><trkpt lat="45.1490867" lon="8.0326"><ele>280.79999999999995</ele><time>2026-04-12T11:25:39.876Z</time></trkpt><trkpt lat="45.1490667" lon="8.03276"><ele>279.20000000000005</ele><time>2026-04-12T11:25:40.876Z</time></trkpt><trkpt lat="45.1490333" lon="8.03291"><ele>277.6</ele><time>2026-04-12T11:25:41.875Z</time></trkpt><trkpt lat="45.1489883" lon="8.0330517"><ele>276.0</ele><time>2026-04-12T11:25:42.875Z</time></trkpt><trkpt lat="45.1489367" lon="8.0331667"><ele>276.0</ele><time>2026-04-12T11:25:43.875Z</time></trkpt><trkpt lat="45.14889" lon="8.033265"><ele>276.0</ele><time>2026-04-12T11:25:44.875Z</time></trkpt><trkpt lat="45.14885" lon="8.033345"><ele>276.0</ele><time>2026-04-12T11:25:45.875Z</time></trkpt><trkpt lat="45.1487767" lon="8.0334517"><ele>276.0</ele><time>2026-04-12T11:25:47.876Z</time></trkpt><trkpt lat="45.14873" lon="8.0335417"><ele>276.0</ele><time>2026-04-12T11:25:49.875Z</time></trkpt><trkpt lat="45.1487383" lon="8.0337017"><ele>276.0</ele><time>2026-04-12T11:25:51.875Z</time></trkpt><trkpt lat="45.148775" lon="8.033805"><ele>276.0</ele><time>2026-04-12T11:25:52.876Z</time></trkpt><trkpt lat="45.1488133" lon="8.033925"><ele>276.0</ele><time>2026-04-12T11:25:53.876Z</time></trkpt><trkpt lat="45.1488483" lon="8.034055"><ele>276.0</ele><time>2026-04-12T11:25:54.876Z</time></trkpt><trkpt lat="45.1488867" lon="8.0341817"><ele>276.0</ele><time>2026-04-12T11:25:55.875Z</time></trkpt><trkpt lat="45.1489267" lon="8.0342883"><ele>275.1666666666667</ele><time>2026-04-12T11:25:56.876Z</time></trkpt><trkpt lat="45.1489617" lon="8.0343783"><ele>274.3333333333333</ele><time>2026-04-12T11:25:57.875Z</time></trkpt><trkpt lat="45.1489733" lon="8.034475"><ele>273.5</ele><time>2026-04-12T11:25:58.875Z</time></trkpt><trkpt lat="45.1489433" lon="8.0346167"><ele>272.66666666666663</ele><time>2026-04-12T11:26:00.876Z</time></trkpt><trkpt lat="45.1488933" lon="8.0346817"><ele>271.8333333333333</ele><time>2026-04-12T11:26:01.876Z</time></trkpt><trkpt lat="45.14881" lon="8.0347383"><ele>271.0</ele><time>2026-04-12T11:26:02.876Z</time></trkpt><trkpt lat="45.14871" lon="8.0347983"><ele>271.0</ele><time>2026-04-12T11:26:03.876Z</time></trkpt><trkpt lat="45.1486" lon="8.03487"><ele>271.0</ele><time>2026-04-12T11:26:04.876Z</time></trkpt><trkpt lat="45.1484983" lon="8.0349417"><ele>271.0</ele><time>2026-04-12T11:26:05.876Z</time></trkpt><trkpt lat="45.1484133" lon="8.0350067"><ele>271.0</ele><time>2026-04-12T11:26:06.875Z</time></trkpt><trkpt lat="45.1483317" lon="8.0350767"><ele>271.0</ele><time>2026-04-12T11:26:07.876Z</time></trkpt><trkpt lat="45.1482483" lon="8.0351567"><ele>267.0</ele><time>2026-04-12T11:26:08.876Z</time></trkpt><trkpt lat="45.14817" lon="8.035235"><ele>263.0</ele><time>2026-04-12T11:26:09.876Z</time></trkpt><trkpt lat="45.1481033" lon="8.035325"><ele>259.0</ele><time>2026-04-12T11:26:10.875Z</time></trkpt><trkpt lat="45.14805" lon="8.0354383"><ele>255.0</ele><time>2026-04-12T11:26:11.875Z</time></trkpt><trkpt lat="45.1480167" lon="8.0355567"><ele>251.0</ele><time>2026-04-12T11:26:12.876Z</time></trkpt><trkpt lat="45.14801" lon="8.0356883"><ele>252.5</ele><time>2026-04-12T11:26:13.875Z</time></trkpt><trkpt lat="45.1480283" lon="8.0358233"><ele>254.0</ele><time>2026-04-12T11:26:14.875Z</time></trkpt><trkpt lat="45.1480817" lon="8.0359683"><ele>255.5</ele><time>2026-04-12T11:26:15.875Z</time></trkpt><trkpt lat="45.14815" lon="8.0361233"><ele>257.0</ele><time>2026-04-12T11:26:16.875Z</time></trkpt><trkpt lat="45.1482083" lon="8.0362817"><ele>254.0</ele><time>2026-04-12T11:26:17.875Z</time></trkpt><trkpt lat="45.1482217" lon="8.03645"><ele>251.0</ele><time>2026-04-12T11:26:18.875Z</time></trkpt><trkpt lat="45.1482233" lon="8.0366317"><ele>248.0</ele><time>2026-04-12T11:26:19.876Z</time></trkpt><trkpt lat="45.1482" lon="8.036845"><ele>245.0</ele><time>2026-04-12T11:26:20.875Z</time></trkpt><trkpt lat="45.1481933" lon="8.03705"><ele>245.0</ele><time>2026-04-12T11:26:21.875Z</time></trkpt><trkpt lat="45.1481867" lon="8.0372433"><ele>245.0</ele><time>2026-04-12T11:26:22.876Z</time></trkpt><trkpt lat="45.1481867" lon="8.0374183"><ele>245.0</ele><time>2026-04-12T11:26:23.875Z</time></trkpt><trkpt lat="45.1481767" lon="8.0375867"><ele>245.0</ele><time>2026-04-12T11:26:24.876Z</time></trkpt><trkpt lat="45.1481583" lon="8.0377433"><ele>242.5</ele><time>2026-04-12T11:26:25.875Z</time></trkpt><trkpt lat="45.1481167" lon="8.0378967"><ele>240.0</ele><time>2026-04-12T11:26:26.876Z</time></trkpt><trkpt lat="45.1480517" lon="8.0380417"><ele>237.5</ele><time>2026-04-12T11:26:27.875Z</time></trkpt><trkpt lat="45.14799" lon="8.038185"><ele>235.0</ele><time>2026-04-12T11:26:28.875Z</time></trkpt><trkpt lat="45.1479" lon="8.0382883"><ele>235.0</ele><time>2026-04-12T11:26:29.875Z</time></trkpt><trkpt lat="45.1477933" lon="8.0383833"><ele>235.0</ele><time>2026-04-12T11:26:30.875Z</time></trkpt><trkpt lat="45.1476717" lon="8.0384283"><ele>235.0</ele><time>2026-04-12T11:26:31.876Z</time></trkpt><trkpt lat="45.1475533" lon="8.0384783"><ele>235.0</ele><time>2026-04-12T11:26:32.876Z</time></trkpt><trkpt lat="45.1474433" lon="8.038535"><ele>231.99999999999997</ele><time>2026-04-12T11:26:33.875Z</time></trkpt><trkpt lat="45.1473483" lon="8.0385833"><ele>229.0</ele><time>2026-04-12T11:26:34.876Z</time></trkpt><trkpt lat="45.147285" lon="8.0386533"><ele>226.0</ele><time>2026-04-12T11:26:35.876Z</time></trkpt><trkpt lat="45.1472483" lon="8.0387383"><ele>223.0</ele><time>2026-04-12T11:26:36.876Z</time></trkpt><trkpt lat="45.1472283" lon="8.0388333"><ele>219.99999999999997</ele><time>2026-04-12T11:26:37.875Z</time></trkpt><trkpt lat="45.147235" lon="8.0389367"><ele>217.0</ele><time>2026-04-12T11:26:38.875Z</time></trkpt><trkpt lat="45.14727" lon="8.0390333"><ele>217.0</ele><time>2026-04-12T11:26:39.875Z</time></trkpt><trkpt lat="45.1473283" lon="8.0391267"><ele>217.0</ele><time>2026-04-12T11:26:40.876Z</time></trkpt><trkpt lat="45.147415" lon="8.039205"><ele>217.0</ele><time>2026-04-12T11:26:41.875Z</time></trkpt><trkpt lat="45.1475083" lon="8.03928"><ele>217.0</ele><time>2026-04-12T11:26:42.875Z</time></trkpt><trkpt lat="45.1475967" lon="8.03936"><ele>217.0</ele><time>2026-04-12T11:26:43.875Z</time></trkpt><trkpt lat="45.147675" lon="8.0394633"><ele>218.0</ele><time>2026-04-12T11:26:44.875Z</time></trkpt><trkpt lat="45.1477483" lon="8.0395833"><ele>219.0</ele><time>2026-04-12T11:26:45.876Z</time></trkpt><trkpt lat="45.1478067" lon="8.039715"><ele>220.0</ele><time>2026-04-12T11:26:46.876Z</time></trkpt><trkpt lat="45.1478833" lon="8.03985"><ele>221.0</ele><time>2026-04-12T11:26:47.876Z</time></trkpt><trkpt lat="45.147965" lon="8.0399733"><ele>221.0</ele><time>2026-04-12T11:26:48.876Z</time></trkpt><trkpt lat="45.1480467" lon="8.0400883"><ele>221.0</ele><time>2026-04-12T11:26:49.876Z</time></trkpt><trkpt lat="45.1481383" lon="8.0401883"><ele>221.0</ele><time>2026-04-12T11:26:50.875Z</time></trkpt><trkpt lat="45.148225" lon="8.0402967"><ele>221.0</ele><time>2026-04-12T11:26:51.875Z</time></trkpt><trkpt lat="45.1483033" lon="8.0404167"><ele>221.60000000000002</ele><time>2026-04-12T11:26:52.876Z</time></trkpt><trkpt lat="45.1483667" lon="8.0405383"><ele>222.20000000000002</ele><time>2026-04-12T11:26:53.875Z</time></trkpt><trkpt lat="45.148425" lon="8.0406583"><ele>222.79999999999998</ele><time>2026-04-12T11:26:54.875Z</time></trkpt><trkpt lat="45.14845" lon="8.0407933"><ele>223.39999999999998</ele><time>2026-04-12T11:26:55.875Z</time></trkpt><trkpt lat="45.1484467" lon="8.0409367"><ele>224.0</ele><time>2026-04-12T11:26:56.876Z</time></trkpt><trkpt lat="45.14845" lon="8.0410717"><ele>224.0</ele><time>2026-04-12T11:26:57.875Z</time></trkpt><trkpt lat="45.1484683" lon="8.0412217"><ele>224.0</ele><time>2026-04-12T11:26:58.876Z</time></trkpt><trkpt lat="45.1485067" lon="8.0413817"><ele>224.0</ele><time>2026-04-12T11:26:59.875Z</time></trkpt><trkpt lat="45.1485383" lon="8.041545"><ele>224.0</ele><time>2026-04-12T11:27:00.875Z</time></trkpt><trkpt lat="45.1485717" lon="8.0417"><ele>222.39999999999998</ele><time>2026-04-12T11:27:01.875Z</time></trkpt><trkpt lat="45.1486" lon="8.0418533"><ele>220.79999999999998</ele><time>2026-04-12T11:27:02.876Z</time></trkpt><trkpt lat="45.14861" lon="8.0419967"><ele>219.20000000000002</ele><time>2026-04-12T11:27:03.875Z</time></trkpt><trkpt lat="45.1486083" lon="8.0421333"><ele>217.60000000000002</ele><time>2026-04-12T11:27:04.875Z</time></trkpt><trkpt lat="45.1485933" lon="8.0422833"><ele>216.0</ele><time>2026-04-12T11:27:05.875Z</time></trkpt><trkpt lat="45.1485767" lon="8.0424283"><ele>214.25</ele><time>2026-04-12T11:27:06.875Z</time></trkpt><trkpt lat="45.148585" lon="8.0425767"><ele>212.5</ele><time>2026-04-12T11:27:07.875Z</time></trkpt><trkpt lat="45.148615" lon="8.0427333"><ele>210.75</ele><time>2026-04-12T11:27:08.875Z</time></trkpt><trkpt lat="45.1486783" lon="8.0428767"><ele>209.0</ele><time>2026-04-12T11:27:09.875Z</time></trkpt><trkpt lat="45.14876" lon="8.0430017"><ele>209.0</ele><time>2026-04-12T11:27:10.876Z</time></trkpt><trkpt lat="45.1488533" lon="8.043135"><ele>209.0</ele><time>2026-04-12T11:27:11.876Z</time></trkpt><trkpt lat="45.1489467" lon="8.04326"><ele>209.0</ele><time>2026-04-12T11:27:12.875Z</time></trkpt><trkpt lat="45.1490317" lon="8.0434017"><ele>209.0</ele><time>2026-04-12T11:27:13.876Z</time></trkpt><trkpt lat="45.1491167" lon="8.0435483"><ele>211.25</ele><time>2026-04-12T11:27:14.875Z</time></trkpt><trkpt lat="45.1491967" lon="8.0436817"><ele>213.5</ele><time>2026-04-12T11:27:15.876Z</time></trkpt><trkpt lat="45.1492783" lon="8.0438133"><ele>215.75</ele><time>2026-04-12T11:27:16.875Z</time></trkpt><trkpt lat="45.1493583" lon="8.0439517"><ele>218.0</ele><time>2026-04-12T11:27:17.876Z</time></trkpt><trkpt lat="45.1494267" lon="8.0440883"><ele>215.0</ele><time>2026-04-12T11:27:18.876Z</time></trkpt><trkpt lat="45.1494967" lon="8.0442383"><ele>212.0</ele><time>2026-04-12T11:27:19.875Z</time></trkpt><trkpt lat="45.149565" lon="8.044375"><ele>209.0</ele><time>2026-04-12T11:27:20.875Z</time></trkpt><trkpt lat="45.149635" lon="8.0445117"><ele>206.0</ele><time>2026-04-12T11:27:21.876Z</time></trkpt><trkpt lat="45.1497" lon="8.0446467"><ele>206.0</ele><time>2026-04-12T11:27:22.876Z</time></trkpt><trkpt lat="45.14977" lon="8.0447717"><ele>206.0</ele><time>2026-04-12T11:27:23.876Z</time></trkpt><trkpt lat="45.1498417" lon="8.04489"><ele>206.0</ele><time>2026-04-12T11:27:24.875Z</time></trkpt><trkpt lat="45.1499067" lon="8.0450233"><ele>206.0</ele><time>2026-04-12T11:27:25.875Z</time></trkpt><trkpt lat="45.1499633" lon="8.0451683"><ele>206.20000000000002</ele><time>2026-04-12T11:27:26.875Z</time></trkpt><trkpt lat="45.1500083" lon="8.04532"><ele>206.4</ele><time>2026-04-12T11:27:27.875Z</time></trkpt><trkpt lat="45.1500283" lon="8.04548"><ele>206.6</ele><time>2026-04-12T11:27:28.875Z</time></trkpt><trkpt lat="45.15005" lon="8.0456317"><ele>206.8</ele><time>2026-04-12T11:27:29.875Z</time></trkpt><trkpt lat="45.1500817" lon="8.0457767"><ele>207.0</ele><time>2026-04-12T11:27:30.876Z</time></trkpt><trkpt lat="45.1501333" lon="8.0459083"><ele>207.0</ele><time>2026-04-12T11:27:31.876Z</time></trkpt><trkpt lat="45.15021" lon="8.0460083"><ele>207.0</ele><time>2026-04-12T11:27:32.875Z</time></trkpt><trkpt lat="45.1503117" lon="8.046095"><ele>207.0</ele><time>2026-04-12T11:27:33.876Z</time></trkpt><trkpt lat="45.1504233" lon="8.04616"><ele>207.0</ele><time>2026-04-12T11:27:34.876Z</time></trkpt><trkpt lat="45.1505333" lon="8.0462367"><ele>207.0</ele><time>2026-04-12T11:27:35.876Z</time></trkpt><trkpt lat="45.15065" lon="8.04631"><ele>207.0</ele><time>2026-04-12T11:27:36.876Z</time></trkpt><trkpt lat="45.1507617" lon="8.04639"><ele>207.0</ele><time>2026-04-12T11:27:37.875Z</time></trkpt><trkpt lat="45.15086" lon="8.0464717"><ele>207.0</ele><time>2026-04-12T11:27:38.876Z</time></trkpt><trkpt lat="45.1509517" lon="8.0465517"><ele>207.0</ele><time>2026-04-12T11:27:39.876Z</time></trkpt><trkpt lat="45.1510283" lon="8.04663"><ele>207.0</ele><time>2026-04-12T11:27:40.876Z</time></trkpt><trkpt lat="45.15109" lon="8.0467133"><ele>207.0</ele><time>2026-04-12T11:27:41.875Z</time></trkpt><trkpt lat="45.1511383" lon="8.0468117"><ele>207.0</ele><time>2026-04-12T11:27:42.875Z</time></trkpt><trkpt lat="45.1511983" lon="8.0469233"><ele>207.0</ele><time>2026-04-12T11:27:43.875Z</time></trkpt><trkpt lat="45.1512417" lon="8.0470517"><ele>207.0</ele><time>2026-04-12T11:27:44.876Z</time></trkpt><trkpt lat="45.1512833" lon="8.04719"><ele>207.0</ele><time>2026-04-12T11:27:45.875Z</time></trkpt><trkpt lat="45.1513233" lon="8.0473267"><ele>207.0</ele><time>2026-04-12T11:27:46.876Z</time></trkpt><trkpt lat="45.1513533" lon="8.047445"><ele>207.0</ele><time>2026-04-12T11:27:47.876Z</time></trkpt><trkpt lat="45.1513817" lon="8.0475467"><ele>207.0</ele><time>2026-04-12T11:27:48.876Z</time></trkpt><trkpt lat="45.1514083" lon="8.0476383"><ele>207.0</ele><time>2026-04-12T11:27:49.875Z</time></trkpt><trkpt lat="45.1514367" lon="8.04774"><ele>206.2</ele><time>2026-04-12T11:27:50.876Z</time></trkpt><trkpt lat="45.1514717" lon="8.047845"><ele>205.39999999999998</ele><time>2026-04-12T11:27:51.876Z</time></trkpt><trkpt lat="45.1515083" lon="8.0479667"><ele>204.60000000000002</ele><time>2026-04-12T11:27:52.876Z</time></trkpt><trkpt lat="45.151565" lon="8.04808"><ele>203.8</ele><time>2026-04-12T11:27:53.875Z</time></trkpt><trkpt lat="45.1516317" lon="8.0481767"><ele>203.0</ele><time>2026-04-12T11:27:54.876Z</time></trkpt><trkpt lat="45.1516933" lon="8.0482667"><ele>202.60000000000002</ele><time>2026-04-12T11:27:55.876Z</time></trkpt><trkpt lat="45.1517717" lon="8.048365"><ele>202.20000000000002</ele><time>2026-04-12T11:27:56.875Z</time></trkpt><trkpt lat="45.1518367" lon="8.0484617"><ele>201.8</ele><time>2026-04-12T11:27:57.876Z</time></trkpt><trkpt lat="45.1519017" lon="8.0485533"><ele>201.4</ele><time>2026-04-12T11:27:58.876Z</time></trkpt><trkpt lat="45.15196" lon="8.048655"><ele>201.0</ele><time>2026-04-12T11:27:59.875Z</time></trkpt><trkpt lat="45.152025" lon="8.048755"><ele>201.0</ele><time>2026-04-12T11:28:00.875Z</time></trkpt><trkpt lat="45.152095" lon="8.048835"><ele>201.0</ele><time>2026-04-12T11:28:01.875Z</time></trkpt><trkpt lat="45.1521667" lon="8.04891"><ele>201.0</ele><time>2026-04-12T11:28:02.876Z</time></trkpt><trkpt lat="45.1522417" lon="8.0489767"><ele>201.0</ele><time>2026-04-12T11:28:03.875Z</time></trkpt><trkpt lat="45.152325" lon="8.0490367"><ele>201.0</ele><time>2026-04-12T11:28:04.875Z</time></trkpt><trkpt lat="45.1524167" lon="8.0491033"><ele>198.8</ele><time>2026-04-12T11:28:05.876Z</time></trkpt><trkpt lat="45.1525067" lon="8.0491733"><ele>196.60000000000002</ele><time>2026-04-12T11:28:06.876Z</time></trkpt><trkpt lat="45.1525933" lon="8.04925"><ele>194.4</ele><time>2026-04-12T11:28:07.875Z</time></trkpt><trkpt lat="45.152675" lon="8.049325"><ele>192.2</ele><time>2026-04-12T11:28:08.876Z</time></trkpt><trkpt lat="45.1527517" lon="8.0493967"><ele>190.0</ele><time>2026-04-12T11:28:09.875Z</time></trkpt><trkpt lat="45.1528083" lon="8.0494783"><ele>190.0</ele><time>2026-04-12T11:28:10.875Z</time></trkpt><trkpt lat="45.1528517" lon="8.04956"><ele>190.0</ele><time>2026-04-12T11:28:11.875Z</time></trkpt><trkpt lat="45.1528717" lon="8.0496483"><ele>190.0</ele><time>2026-04-12T11:28:12.875Z</time></trkpt><trkpt lat="45.1528783" lon="8.0497467"><ele>190.0</ele><time>2026-04-12T11:28:13.876Z</time></trkpt><trkpt lat="45.1528683" lon="8.04985"><ele>190.0</ele><time>2026-04-12T11:28:14.875Z</time></trkpt><trkpt lat="45.1528633" lon="8.04995"><ele>190.0</ele><time>2026-04-12T11:28:15.876Z</time></trkpt><trkpt lat="45.1528617" lon="8.05004"><ele>190.0</ele><time>2026-04-12T11:28:16.875Z</time></trkpt><trkpt lat="45.1528567" lon="8.0501383"><ele>188.33333333333334</ele><time>2026-04-12T11:28:17.875Z</time></trkpt><trkpt lat="45.1528733" lon="8.0502333"><ele>186.66666666666669</ele><time>2026-04-12T11:28:18.876Z</time></trkpt><trkpt lat="45.1528983" lon="8.0503283"><ele>185.0</ele><time>2026-04-12T11:28:19.875Z</time></trkpt><trkpt lat="45.1529383" lon="8.0504183"><ele>183.33333333333334</ele><time>2026-04-12T11:28:20.876Z</time></trkpt><trkpt lat="45.153015" lon="8.0505433"><ele>181.66666666666666</ele><time>2026-04-12T11:28:22.875Z</time></trkpt><trkpt lat="45.153065" lon="8.050615"><ele>180.0</ele><time>2026-04-12T11:28:24.875Z</time></trkpt><trkpt lat="45.1531267" lon="8.0506967"><ele>180.0</ele><time>2026-04-12T11:28:50.875Z</time></trkpt><trkpt lat="45.1531783" lon="8.05076"><ele>180.0</ele><time>2026-04-12T11:28:52.876Z</time></trkpt><trkpt lat="45.1532333" lon="8.0508167"><ele>180.0</ele><time>2026-04-12T11:28:54.876Z</time></trkpt><trkpt lat="45.1531883" lon="8.0509333"><ele>180.0</ele><time>2026-04-12T11:28:58.875Z</time></trkpt><trkpt lat="45.153065" lon="8.0509867"><ele>180.0</ele><time>2026-04-12T11:29:00.876Z</time></trkpt><trkpt lat="45.15299" lon="8.0510217"><ele>180.0</ele><time>2026-04-12T11:29:01.876Z</time></trkpt><trkpt lat="45.15292" lon="8.051085"><ele>179.33333333333334</ele><time>2026-04-12T11:29:02.875Z</time></trkpt><trkpt lat="45.152845" lon="8.0511233"><ele>178.66666666666666</ele><time>2026-04-12T11:29:03.875Z</time></trkpt><trkpt lat="45.1527633" lon="8.0511717"><ele>178.0</ele><time>2026-04-12T11:29:04.876Z</time></trkpt><trkpt lat="45.1526917" lon="8.051215"><ele>177.33333333333331</ele><time>2026-04-12T11:29:05.875Z</time></trkpt><trkpt lat="45.152625" lon="8.051255"><ele>176.66666666666666</ele><time>2026-04-12T11:29:06.875Z</time></trkpt><trkpt lat="45.1525533" lon="8.0513"><ele>176.0</ele><time>2026-04-12T11:29:07.875Z</time></trkpt><trkpt lat="45.15247" lon="8.05136"><ele>176.0</ele><time>2026-04-12T11:29:08.875Z</time></trkpt><trkpt lat="45.1523983" lon="8.051415"><ele>176.0</ele><time>2026-04-12T11:29:09.875Z</time></trkpt><trkpt lat="45.15234" lon="8.051455"><ele>176.0</ele><time>2026-04-12T11:29:10.875Z</time></trkpt><trkpt lat="45.152245" lon="8.051545"><ele>176.0</ele><time>2026-04-12T11:29:12.876Z</time></trkpt><trkpt lat="45.1522067" lon="8.0517167"><ele>176.0</ele><time>2026-04-12T11:29:14.875Z</time></trkpt><trkpt lat="45.152215" lon="8.05183"><ele>176.0</ele><time>2026-04-12T11:29:15.875Z</time></trkpt><trkpt lat="45.1522467" lon="8.0519683"><ele>176.0</ele><time>2026-04-12T11:29:16.875Z</time></trkpt><trkpt lat="45.1523017" lon="8.0521017"><ele>176.0</ele><time>2026-04-12T11:29:17.876Z</time></trkpt><trkpt lat="45.15237" lon="8.0522383"><ele>176.0</ele><time>2026-04-12T11:29:18.876Z</time></trkpt><trkpt lat="45.152435" lon="8.05238"><ele>176.0</ele><time>2026-04-12T11:29:19.875Z</time></trkpt><trkpt lat="45.1524933" lon="8.0525167"><ele>176.0</ele><time>2026-04-12T11:29:20.876Z</time></trkpt><trkpt lat="45.1525483" lon="8.05266"><ele>176.0</ele><time>2026-04-12T11:29:21.875Z</time></trkpt><trkpt lat="45.1525983" lon="8.0528017"><ele>176.0</ele><time>2026-04-12T11:29:22.875Z</time></trkpt><trkpt lat="45.1526483" lon="8.0529433"><ele>176.0</ele><time>2026-04-12T11:29:23.875Z</time></trkpt><trkpt lat="45.15269" lon="8.0530983"><ele>176.0</ele><time>2026-04-12T11:29:24.875Z</time></trkpt><trkpt lat="45.15273" lon="8.0532533"><ele>176.0</ele><time>2026-04-12T11:29:25.875Z</time></trkpt><trkpt lat="45.1527817" lon="8.0533967"><ele>176.0</ele><time>2026-04-12T11:29:26.876Z</time></trkpt><trkpt lat="45.1528317" lon="8.053545"><ele>176.0</ele><time>2026-04-12T11:29:27.875Z</time></trkpt><trkpt lat="45.1528867" lon="8.05368"><ele>175.5</ele><time>2026-04-12T11:29:28.876Z</time></trkpt><trkpt lat="45.1529383" lon="8.0538217"><ele>175.0</ele><time>2026-04-12T11:29:29.876Z</time></trkpt><trkpt lat="45.152985" lon="8.05397"><ele>174.5</ele><time>2026-04-12T11:29:30.876Z</time></trkpt><trkpt lat="45.153035" lon="8.054135"><ele>174.0</ele><time>2026-04-12T11:29:31.876Z</time></trkpt><trkpt lat="45.1530867" lon="8.054285"><ele>173.75</ele><time>2026-04-12T11:29:32.875Z</time></trkpt><trkpt lat="45.1531367" lon="8.0544383"><ele>173.5</ele><time>2026-04-12T11:29:33.876Z</time></trkpt><trkpt lat="45.1531883" lon="8.0545967"><ele>173.25</ele><time>2026-04-12T11:29:34.875Z</time></trkpt><trkpt lat="45.1532433" lon="8.054745"><ele>173.0</ele><time>2026-04-12T11:29:35.875Z</time></trkpt><trkpt lat="45.1532967" lon="8.0548983"><ele>173.25</ele><time>2026-04-12T11:29:36.875Z</time></trkpt><trkpt lat="45.1533417" lon="8.0550567"><ele>173.5</ele><time>2026-04-12T11:29:37.875Z</time></trkpt><trkpt lat="45.153385" lon="8.0552133"><ele>173.75</ele><time>2026-04-12T11:29:38.876Z</time></trkpt><trkpt lat="45.1534267" lon="8.0553567"><ele>174.0</ele><time>2026-04-12T11:29:39.875Z</time></trkpt><trkpt lat="45.1534733" lon="8.05549"><ele>174.0</ele><time>2026-04-12T11:29:40.875Z</time></trkpt><trkpt lat="45.1535233" lon="8.05563"><ele>174.0</ele><time>2026-04-12T11:29:41.875Z</time></trkpt><trkpt lat="45.1535717" lon="8.0557633"><ele>174.0</ele><time>2026-04-12T11:29:42.875Z</time></trkpt><trkpt lat="45.1536067" lon="8.05591"><ele>174.0</ele><time>2026-04-12T11:29:43.876Z</time></trkpt><trkpt lat="45.1536483" lon="8.05605"><ele>174.0</ele><time>2026-04-12T11:29:44.875Z</time></trkpt><trkpt lat="45.1537117" lon="8.0561633"><ele>174.0</ele><time>2026-04-12T11:29:45.875Z</time></trkpt><trkpt lat="45.1537967" lon="8.05625"><ele>174.0</ele><time>2026-04-12T11:29:46.876Z</time></trkpt><trkpt lat="45.153905" lon="8.0563133"><ele>174.0</ele><time>2026-04-12T11:29:47.875Z</time></trkpt><trkpt lat="45.1540217" lon="8.0563883"><ele>174.0</ele><time>2026-04-12T11:29:48.876Z</time></trkpt><trkpt lat="45.1541267" lon="8.0565017"><ele>173.5</ele><time>2026-04-12T11:29:49.876Z</time></trkpt><trkpt lat="45.1542333" lon="8.0566217"><ele>173.0</ele><time>2026-04-12T11:29:50.875Z</time></trkpt><trkpt lat="45.154335" lon="8.0567567"><ele>172.5</ele><time>2026-04-12T11:29:51.875Z</time></trkpt><trkpt lat="45.1544533" lon="8.0568817"><ele>172.0</ele><time>2026-04-12T11:29:52.875Z</time></trkpt><trkpt lat="45.15456" lon="8.057005"><ele>172.0</ele><time>2026-04-12T11:29:53.875Z</time></trkpt><trkpt lat="45.1546667" lon="8.05714"><ele>172.0</ele><time>2026-04-12T11:29:54.875Z</time></trkpt><trkpt lat="45.1547717" lon="8.0572667"><ele>172.0</ele><time>2026-04-12T11:29:55.875Z</time></trkpt><trkpt lat="45.15488" lon="8.0573833"><ele>172.0</ele><time>2026-04-12T11:29:56.876Z</time></trkpt><trkpt lat="45.1549917" lon="8.0575117"><ele>172.0</ele><time>2026-04-12T11:29:57.875Z</time></trkpt><trkpt lat="45.155085" lon="8.05766"><ele>172.0</ele><time>2026-04-12T11:29:58.876Z</time></trkpt><trkpt lat="45.155175" lon="8.05781"><ele>172.0</ele><time>2026-04-12T11:29:59.875Z</time></trkpt><trkpt lat="45.1552933" lon="8.0579467"><ele>172.0</ele><time>2026-04-12T11:30:00.875Z</time></trkpt><trkpt lat="45.1554083" lon="8.05808"><ele>172.0</ele><time>2026-04-12T11:30:01.875Z</time></trkpt><trkpt lat="45.1555233" lon="8.05822"><ele>172.0</ele><time>2026-04-12T11:30:02.876Z</time></trkpt><trkpt lat="45.1556267" lon="8.05835"><ele>172.0</ele><time>2026-04-12T11:30:03.875Z</time></trkpt><trkpt lat="45.15571" lon="8.0584833"><ele>172.0</ele><time>2026-04-12T11:30:04.876Z</time></trkpt><trkpt lat="45.1557917" lon="8.0586217"><ele>171.75</ele><time>2026-04-12T11:30:05.875Z</time></trkpt><trkpt lat="45.15587" lon="8.0587633"><ele>171.5</ele><time>2026-04-12T11:30:06.875Z</time></trkpt><trkpt lat="45.15594" lon="8.0589083"><ele>171.25</ele><time>2026-04-12T11:30:07.876Z</time></trkpt><trkpt lat="45.1559917" lon="8.05905"><ele>171.0</ele><time>2026-04-12T11:30:08.876Z</time></trkpt><trkpt lat="45.1560317" lon="8.0591767"><ele>171.0</ele><time>2026-04-12T11:30:09.876Z</time></trkpt><trkpt lat="45.15607" lon="8.0592833"><ele>171.0</ele><time>2026-04-12T11:30:10.876Z</time></trkpt><trkpt lat="45.1560983" lon="8.05937"><ele>171.0</ele><time>2026-04-12T11:30:11.875Z</time></trkpt><trkpt lat="45.1561183" lon="8.0594633"><ele>171.0</ele><time>2026-04-12T11:30:12.876Z</time></trkpt><trkpt lat="45.1561417" lon="8.05957"><ele>171.0</ele><time>2026-04-12T11:30:13.875Z</time></trkpt><trkpt lat="45.156155" lon="8.0596917"><ele>171.0</ele><time>2026-04-12T11:30:14.875Z</time></trkpt><trkpt lat="45.1561667" lon="8.0598283"><ele>171.0</ele><time>2026-04-12T11:30:15.876Z</time></trkpt><trkpt lat="45.156175" lon="8.0599667"><ele>171.0</ele><time>2026-04-12T11:30:16.876Z</time></trkpt><trkpt lat="45.1561717" lon="8.0601117"><ele>171.0</ele><time>2026-04-12T11:30:17.875Z</time></trkpt><trkpt lat="45.15617" lon="8.0602667"><ele>171.0</ele><time>2026-04-12T11:30:18.875Z</time></trkpt><trkpt lat="45.1561583" lon="8.060425"><ele>171.0</ele><time>2026-04-12T11:30:19.876Z</time></trkpt><trkpt lat="45.1561583" lon="8.0606017"><ele>170.75</ele><time>2026-04-12T11:30:20.875Z</time></trkpt><trkpt lat="45.156155" lon="8.0607917"><ele>170.5</ele><time>2026-04-12T11:30:21.876Z</time></trkpt><trkpt lat="45.1561417" lon="8.061005"><ele>170.25</ele><time>2026-04-12T11:30:22.876Z</time></trkpt><trkpt lat="45.15613" lon="8.0612183"><ele>170.0</ele><time>2026-04-12T11:30:23.876Z</time></trkpt><trkpt lat="45.15612" lon="8.06145"><ele>169.66666666666666</ele><time>2026-04-12T11:30:24.876Z</time></trkpt><trkpt lat="45.156095" lon="8.0616717"><ele>169.33333333333334</ele><time>2026-04-12T11:30:25.875Z</time></trkpt><trkpt lat="45.156065" lon="8.0618933"><ele>169.0</ele><time>2026-04-12T11:30:26.876Z</time></trkpt><trkpt lat="45.1560433" lon="8.0621"><ele>169.0</ele><time>2026-04-12T11:30:27.876Z</time></trkpt><trkpt lat="45.1560167" lon="8.0623183"><ele>169.0</ele><time>2026-04-12T11:30:28.875Z</time></trkpt><trkpt lat="45.1559967" lon="8.0625283"><ele>169.0</ele><time>2026-04-12T11:30:29.876Z</time></trkpt><trkpt lat="45.1559583" lon="8.0627383"><ele>169.25</ele><time>2026-04-12T11:30:30.876Z</time></trkpt><trkpt lat="45.155915" lon="8.0629433"><ele>169.5</ele><time>2026-04-12T11:30:31.876Z</time></trkpt><trkpt lat="45.1558967" lon="8.0631517"><ele>169.75</ele><time>2026-04-12T11:30:32.875Z</time></trkpt><trkpt lat="45.15588" lon="8.0633567"><ele>170.0</ele><time>2026-04-12T11:30:33.875Z</time></trkpt><trkpt lat="45.1558583" lon="8.0635533"><ele>170.0</ele><time>2026-04-12T11:30:34.875Z</time></trkpt><trkpt lat="45.1558333" lon="8.0637467"><ele>170.0</ele><time>2026-04-12T11:30:35.875Z</time></trkpt><trkpt lat="45.1558083" lon="8.0639517"><ele>170.0</ele><time>2026-04-12T11:30:36.876Z</time></trkpt><trkpt lat="45.1557783" lon="8.0641717"><ele>170.0</ele><time>2026-04-12T11:30:37.876Z</time></trkpt><trkpt lat="45.155745" lon="8.064375"><ele>170.0</ele><time>2026-04-12T11:30:38.876Z</time></trkpt><trkpt lat="45.1557133" lon="8.064575"><ele>170.0</ele><time>2026-04-12T11:30:39.875Z</time></trkpt><trkpt lat="45.1556883" lon="8.064775"><ele>170.0</ele><time>2026-04-12T11:30:40.876Z</time></trkpt><trkpt lat="45.1556533" lon="8.064955"><ele>170.0</ele><time>2026-04-12T11:30:41.875Z</time></trkpt><trkpt lat="45.1556333" lon="8.0651283"><ele>171.2</ele><time>2026-04-12T11:30:42.876Z</time></trkpt><trkpt lat="45.155615" lon="8.0652817"><ele>172.4</ele><time>2026-04-12T11:30:43.875Z</time></trkpt><trkpt lat="45.155615" lon="8.065435"><ele>173.60000000000002</ele><time>2026-04-12T11:30:44.876Z</time></trkpt><trkpt lat="45.1555733" lon="8.06557"><ele>174.8</ele><time>2026-04-12T11:30:45.876Z</time></trkpt><trkpt lat="45.155505" lon="8.0656733"><ele>176.0</ele><time>2026-04-12T11:30:46.876Z</time></trkpt><trkpt lat="45.155445" lon="8.0657617"><ele>175.83333333333331</ele><time>2026-04-12T11:30:47.876Z</time></trkpt><trkpt lat="45.155385" lon="8.065855"><ele>175.66666666666666</ele><time>2026-04-12T11:30:48.876Z</time></trkpt><trkpt lat="45.1553583" lon="8.0659767"><ele>175.5</ele><time>2026-04-12T11:30:49.875Z</time></trkpt><trkpt lat="45.15537" lon="8.066095"><ele>175.33333333333334</ele><time>2026-04-12T11:30:50.876Z</time></trkpt><trkpt lat="45.1554217" lon="8.0661833"><ele>175.16666666666669</ele><time>2026-04-12T11:30:51.876Z</time></trkpt><trkpt lat="45.155495" lon="8.0662417"><ele>175.0</ele><time>2026-04-12T11:30:52.875Z</time></trkpt><trkpt lat="45.1555867" lon="8.066315"><ele>175.0</ele><time>2026-04-12T11:30:53.875Z</time></trkpt><trkpt lat="45.1556767" lon="8.0664283"><ele>175.0</ele><time>2026-04-12T11:30:54.876Z</time></trkpt><trkpt lat="45.15575" lon="8.0665733"><ele>175.0</ele><time>2026-04-12T11:30:55.876Z</time></trkpt><trkpt lat="45.1558067" lon="8.0667417"><ele>175.0</ele><time>2026-04-12T11:30:56.876Z</time></trkpt><trkpt lat="45.1558483" lon="8.0669283"><ele>174.25</ele><time>2026-04-12T11:30:57.875Z</time></trkpt><trkpt lat="45.1559067" lon="8.0671167"><ele>173.5</ele><time>2026-04-12T11:30:58.875Z</time></trkpt><trkpt lat="45.15596" lon="8.0673117"><ele>172.75</ele><time>2026-04-12T11:30:59.876Z</time></trkpt><trkpt lat="45.1560167" lon="8.0675033"><ele>172.0</ele><time>2026-04-12T11:31:00.876Z</time></trkpt><trkpt lat="45.1560783" lon="8.0677233"><ele>172.0</ele><time>2026-04-12T11:31:01.876Z</time></trkpt><trkpt lat="45.1561383" lon="8.067935"><ele>172.0</ele><time>2026-04-12T11:31:02.875Z</time></trkpt><trkpt lat="45.1562" lon="8.0681433"><ele>172.0</ele><time>2026-04-12T11:31:03.876Z</time></trkpt><trkpt lat="45.1562617" lon="8.0683533"><ele>172.66666666666669</ele><time>2026-04-12T11:31:04.876Z</time></trkpt><trkpt lat="45.1563133" lon="8.0685617"><ele>173.33333333333334</ele><time>2026-04-12T11:31:05.875Z</time></trkpt><trkpt lat="45.1563667" lon="8.0687683"><ele>174.0</ele><time>2026-04-12T11:31:06.876Z</time></trkpt><trkpt lat="45.1564183" lon="8.0689767"><ele>173.66666666666666</ele><time>2026-04-12T11:31:07.876Z</time></trkpt><trkpt lat="45.1564783" lon="8.0691833"><ele>173.33333333333331</ele><time>2026-04-12T11:31:08.875Z</time></trkpt><trkpt lat="45.1565367" lon="8.0693817"><ele>173.0</ele><time>2026-04-12T11:31:09.875Z</time></trkpt><trkpt lat="45.15659" lon="8.06958"><ele>173.0</ele><time>2026-04-12T11:31:10.875Z</time></trkpt><trkpt lat="45.156645" lon="8.0697817"><ele>173.0</ele><time>2026-04-12T11:31:11.875Z</time></trkpt><trkpt lat="45.1566983" lon="8.069975"><ele>173.0</ele><time>2026-04-12T11:31:12.875Z</time></trkpt><trkpt lat="45.1567567" lon="8.0701717"><ele>173.0</ele><time>2026-04-12T11:31:13.875Z</time></trkpt><trkpt lat="45.156815" lon="8.0703717"><ele>172.66666666666666</ele><time>2026-04-12T11:31:14.875Z</time></trkpt><trkpt lat="45.156875" lon="8.07058"><ele>172.33333333333334</ele><time>2026-04-12T11:31:15.876Z</time></trkpt><trkpt lat="45.1569283" lon="8.0707767"><ele>172.0</ele><time>2026-04-12T11:31:16.875Z</time></trkpt><trkpt lat="45.1569833" lon="8.0709683"><ele>172.0</ele><time>2026-04-12T11:31:17.876Z</time></trkpt><trkpt lat="45.157035" lon="8.0711683"><ele>172.0</ele><time>2026-04-12T11:31:18.875Z</time></trkpt><trkpt lat="45.1570933" lon="8.07138"><ele>172.0</ele><time>2026-04-12T11:31:19.875Z</time></trkpt><trkpt lat="45.1571433" lon="8.0715917"><ele>172.33333333333334</ele><time>2026-04-12T11:31:20.875Z</time></trkpt><trkpt lat="45.1572067" lon="8.071795"><ele>172.66666666666666</ele><time>2026-04-12T11:31:21.875Z</time></trkpt><trkpt lat="45.1572633" lon="8.0720017"><ele>173.0</ele><time>2026-04-12T11:31:22.876Z</time></trkpt><trkpt lat="45.1573217" lon="8.0722217"><ele>172.66666666666666</ele><time>2026-04-12T11:31:23.875Z</time></trkpt><trkpt lat="45.1573783" lon="8.07244"><ele>172.33333333333334</ele><time>2026-04-12T11:31:24.876Z</time></trkpt><trkpt lat="45.1574367" lon="8.0726733"><ele>172.0</ele><time>2026-04-12T11:31:25.876Z</time></trkpt><trkpt lat="45.1575017" lon="8.0729"><ele>172.0</ele><time>2026-04-12T11:31:26.875Z</time></trkpt><trkpt lat="45.1575633" lon="8.0731167"><ele>172.0</ele><time>2026-04-12T11:31:27.875Z</time></trkpt><trkpt lat="45.1576133" lon="8.0733267"><ele>172.0</ele><time>2026-04-12T11:31:28.875Z</time></trkpt><trkpt lat="45.1576733" lon="8.0735033"><ele>171.75</ele><time>2026-04-12T11:31:29.876Z</time></trkpt><trkpt lat="45.1577283" lon="8.0736717"><ele>171.5</ele><time>2026-04-12T11:31:30.875Z</time></trkpt><trkpt lat="45.1577567" lon="8.0738267"><ele>171.25</ele><time>2026-04-12T11:31:31.875Z</time></trkpt><trkpt lat="45.1577467" lon="8.0739683"><ele>171.0</ele><time>2026-04-12T11:31:32.875Z</time></trkpt><trkpt lat="45.157715" lon="8.0741133"><ele>171.0</ele><time>2026-04-12T11:31:33.876Z</time></trkpt><trkpt lat="45.1576833" lon="8.074265"><ele>171.0</ele><time>2026-04-12T11:31:34.875Z</time></trkpt><trkpt lat="45.15765" lon="8.0744283"><ele>171.0</ele><time>2026-04-12T11:31:35.875Z</time></trkpt><trkpt lat="45.15762" lon="8.07459"><ele>171.0</ele><time>2026-04-12T11:31:36.875Z</time></trkpt><trkpt lat="45.1575817" lon="8.07477"><ele>172.0</ele><time>2026-04-12T11:31:37.876Z</time></trkpt><trkpt lat="45.1575283" lon="8.0749667"><ele>173.0</ele><time>2026-04-12T11:31:38.876Z</time></trkpt><trkpt lat="45.1574667" lon="8.075145"><ele>174.0</ele><time>2026-04-12T11:31:39.875Z</time></trkpt><trkpt lat="45.1573967" lon="8.07533"><ele>175.0</ele><time>2026-04-12T11:31:40.875Z</time></trkpt><trkpt lat="45.15733" lon="8.0755083"><ele>175.0</ele><time>2026-04-12T11:31:41.876Z</time></trkpt><trkpt lat="45.15727" lon="8.0756917"><ele>175.0</ele><time>2026-04-12T11:31:42.875Z</time></trkpt><trkpt lat="45.15721" lon="8.0758733"><ele>175.0</ele><time>2026-04-12T11:31:43.876Z</time></trkpt><trkpt lat="45.1571467" lon="8.0760733"><ele>175.0</ele><time>2026-04-12T11:31:44.875Z</time></trkpt><trkpt lat="45.1570767" lon="8.0762617"><ele>176.66666666666669</ele><time>2026-04-12T11:31:45.876Z</time></trkpt><trkpt lat="45.156995" lon="8.0764533"><ele>178.33333333333334</ele><time>2026-04-12T11:31:46.876Z</time></trkpt><trkpt lat="45.1568967" lon="8.07662"><ele>180.0</ele><time>2026-04-12T11:31:47.876Z</time></trkpt><trkpt lat="45.15678" lon="8.07676"><ele>180.25</ele><time>2026-04-12T11:31:48.876Z</time></trkpt><trkpt lat="45.156665" lon="8.0768883"><ele>180.5</ele><time>2026-04-12T11:31:49.875Z</time></trkpt><trkpt lat="45.1565483" lon="8.0770017"><ele>180.75</ele><time>2026-04-12T11:31:50.876Z</time></trkpt><trkpt lat="45.1564483" lon="8.0771367"><ele>181.0</ele><time>2026-04-12T11:31:51.875Z</time></trkpt><trkpt lat="45.156375" lon="8.07727"><ele>181.0</ele><time>2026-04-12T11:31:52.876Z</time></trkpt><trkpt lat="45.1563383" lon="8.07741"><ele>181.0</ele><time>2026-04-12T11:31:53.875Z</time></trkpt><trkpt lat="45.1563333" lon="8.07759"><ele>181.0</ele><time>2026-04-12T11:31:54.876Z</time></trkpt><trkpt lat="45.1563533" lon="8.077775"><ele>181.0</ele><time>2026-04-12T11:31:55.875Z</time></trkpt><trkpt lat="45.1563717" lon="8.0779733"><ele>182.5</ele><time>2026-04-12T11:31:56.875Z</time></trkpt><trkpt lat="45.156385" lon="8.0781733"><ele>184.0</ele><time>2026-04-12T11:31:57.876Z</time></trkpt><trkpt lat="45.1563883" lon="8.07838"><ele>185.5</ele><time>2026-04-12T11:31:58.875Z</time></trkpt><trkpt lat="45.1563617" lon="8.0785683"><ele>187.0</ele><time>2026-04-12T11:31:59.875Z</time></trkpt><trkpt lat="45.156305" lon="8.0787583"><ele>189.0</ele><time>2026-04-12T11:32:00.875Z</time></trkpt><trkpt lat="45.1562233" lon="8.0789533"><ele>191.0</ele><time>2026-04-12T11:32:01.876Z</time></trkpt><trkpt lat="45.1561133" lon="8.0791283"><ele>193.0</ele><time>2026-04-12T11:32:02.876Z</time></trkpt><trkpt lat="45.1560017" lon="8.0792817"><ele>194.66666666666666</ele><time>2026-04-12T11:32:03.876Z</time></trkpt><trkpt lat="45.1559017" lon="8.0794417"><ele>196.33333333333331</ele><time>2026-04-12T11:32:04.876Z</time></trkpt><trkpt lat="45.1558183" lon="8.07961"><ele>198.0</ele><time>2026-04-12T11:32:05.875Z</time></trkpt><trkpt lat="45.1557283" lon="8.0797917"><ele>198.0</ele><time>2026-04-12T11:32:06.875Z</time></trkpt><trkpt lat="45.1556583" lon="8.079955"><ele>198.0</ele><time>2026-04-12T11:32:07.875Z</time></trkpt><trkpt lat="45.155585" lon="8.0801383"><ele>198.0</ele><time>2026-04-12T11:32:08.876Z</time></trkpt><trkpt lat="45.1555167" lon="8.08033"><ele>198.0</ele><time>2026-04-12T11:32:09.876Z</time></trkpt><trkpt lat="45.1554533" lon="8.0805217"><ele>198.0</ele><time>2026-04-12T11:32:10.876Z</time></trkpt><trkpt lat="45.1553933" lon="8.080695"><ele>198.0</ele><time>2026-04-12T11:32:11.876Z</time></trkpt><trkpt lat="45.15534" lon="8.0808433"><ele>198.0</ele><time>2026-04-12T11:32:12.876Z</time></trkpt><trkpt lat="45.155295" lon="8.08097"><ele>198.0</ele><time>2026-04-12T11:32:13.876Z</time></trkpt><trkpt lat="45.1552767" lon="8.0810817"><ele>198.0</ele><time>2026-04-12T11:32:14.875Z</time></trkpt><trkpt lat="45.1552817" lon="8.0812"><ele>199.60000000000002</ele><time>2026-04-12T11:32:15.876Z</time></trkpt><trkpt lat="45.1553167" lon="8.0812883"><ele>201.20000000000002</ele><time>2026-04-12T11:32:16.875Z</time></trkpt><trkpt lat="45.15544" lon="8.0813183"><ele>202.8</ele><time>2026-04-12T11:32:18.876Z</time></trkpt><trkpt lat="45.1555217" lon="8.0812367"><ele>204.4</ele><time>2026-04-12T11:32:19.876Z</time></trkpt><trkpt lat="45.1556133" lon="8.0811033"><ele>206.0</ele><time>2026-04-12T11:32:20.875Z</time></trkpt><trkpt lat="45.1557033" lon="8.080945"><ele>206.75</ele><time>2026-04-12T11:32:21.875Z</time></trkpt><trkpt lat="45.15579" lon="8.0808"><ele>207.5</ele><time>2026-04-12T11:32:22.876Z</time></trkpt><trkpt lat="45.1558783" lon="8.0806567"><ele>208.25</ele><time>2026-04-12T11:32:23.875Z</time></trkpt><trkpt lat="45.1559567" lon="8.0805367"><ele>209.0</ele><time>2026-04-12T11:32:24.876Z</time></trkpt><trkpt lat="45.1560217" lon="8.08044"><ele>209.00000000000003</ele><time>2026-04-12T11:32:25.876Z</time></trkpt><trkpt lat="45.1561" lon="8.08037"><ele>209.0</ele><time>2026-04-12T11:32:26.875Z</time></trkpt><trkpt lat="45.1561767" lon="8.080335"><ele>209.0</ele><time>2026-04-12T11:32:27.875Z</time></trkpt><trkpt lat="45.1562433" lon="8.0803433"><ele>209.0</ele><time>2026-04-12T11:32:28.875Z</time></trkpt><trkpt lat="45.1563017" lon="8.080485"><ele>209.00000000000003</ele><time>2026-04-12T11:32:30.875Z</time></trkpt><trkpt lat="45.1562817" lon="8.0806117"><ele>209.0</ele><time>2026-04-12T11:32:31.875Z</time></trkpt><trkpt lat="45.1562383" lon="8.08077"><ele>211.75</ele><time>2026-04-12T11:32:32.876Z</time></trkpt><trkpt lat="45.1561933" lon="8.0809317"><ele>214.5</ele><time>2026-04-12T11:32:33.876Z</time></trkpt><trkpt lat="45.1561517" lon="8.081085"><ele>217.25</ele><time>2026-04-12T11:32:34.875Z</time></trkpt><trkpt lat="45.1561233" lon="8.08124"><ele>220.0</ele><time>2026-04-12T11:32:35.875Z</time></trkpt><trkpt lat="45.1560833" lon="8.0814017"><ele>220.0</ele><time>2026-04-12T11:32:36.875Z</time></trkpt><trkpt lat="45.1560433" lon="8.08157"><ele>220.0</ele><time>2026-04-12T11:32:37.875Z</time></trkpt><trkpt lat="45.156005" lon="8.0817533"><ele>220.0</ele><time>2026-04-12T11:32:38.875Z</time></trkpt><trkpt lat="45.155975" lon="8.0819367"><ele>220.0</ele><time>2026-04-12T11:32:39.875Z</time></trkpt><trkpt lat="45.15594" lon="8.0820933"><ele>221.2</ele><time>2026-04-12T11:32:40.876Z</time></trkpt><trkpt lat="45.155895" lon="8.0822233"><ele>222.4</ele><time>2026-04-12T11:32:41.876Z</time></trkpt><trkpt lat="45.155845" lon="8.0823433"><ele>223.60000000000002</ele><time>2026-04-12T11:32:42.875Z</time></trkpt><trkpt lat="45.155795" lon="8.082465"><ele>224.8</ele><time>2026-04-12T11:32:43.875Z</time></trkpt><trkpt lat="45.1557317" lon="8.0825817"><ele>226.0</ele><time>2026-04-12T11:32:44.876Z</time></trkpt><trkpt lat="45.1556783" lon="8.082715"><ele>226.0</ele><time>2026-04-12T11:32:45.876Z</time></trkpt><trkpt lat="45.1556033" lon="8.0828417"><ele>226.00000000000003</ele><time>2026-04-12T11:32:46.875Z</time></trkpt><trkpt lat="45.155535" lon="8.0829733"><ele>226.00000000000003</ele><time>2026-04-12T11:32:47.876Z</time></trkpt><trkpt lat="45.1554817" lon="8.0830933"><ele>226.0</ele><time>2026-04-12T11:32:48.875Z</time></trkpt><trkpt lat="45.1554367" lon="8.0831983"><ele>226.0</ele><time>2026-04-12T11:32:49.876Z</time></trkpt><trkpt lat="45.1554033" lon="8.0832967"><ele>229.0</ele><time>2026-04-12T11:32:50.875Z</time></trkpt><trkpt lat="45.1553983" lon="8.0834183"><ele>232.00000000000003</ele><time>2026-04-12T11:32:51.876Z</time></trkpt><trkpt lat="45.155435" lon="8.08354"><ele>235.00000000000003</ele><time>2026-04-12T11:32:52.875Z</time></trkpt><trkpt lat="45.1555017" lon="8.08366"><ele>238.0</ele><time>2026-04-12T11:32:53.875Z</time></trkpt><trkpt lat="45.1555783" lon="8.0837783"><ele>241.0</ele><time>2026-04-12T11:32:54.875Z</time></trkpt><trkpt lat="45.1556633" lon="8.0838983"><ele>241.20000000000002</ele><time>2026-04-12T11:32:55.876Z</time></trkpt><trkpt lat="45.1557383" lon="8.084015"><ele>241.40000000000003</ele><time>2026-04-12T11:32:56.875Z</time></trkpt><trkpt lat="45.1557767" lon="8.08414"><ele>241.6</ele><time>2026-04-12T11:32:57.876Z</time></trkpt><trkpt lat="45.1557833" lon="8.08428"><ele>241.8</ele><time>2026-04-12T11:32:58.875Z</time></trkpt><trkpt lat="45.15575" lon="8.084435"><ele>242.0</ele><time>2026-04-12T11:32:59.875Z</time></trkpt><trkpt lat="45.1556917" lon="8.0846"><ele>244.0</ele><time>2026-04-12T11:33:00.875Z</time></trkpt><trkpt lat="45.155635" lon="8.084745"><ele>246.0</ele><time>2026-04-12T11:33:01.876Z</time></trkpt><trkpt lat="45.1555767" lon="8.0848983"><ele>248.0</ele><time>2026-04-12T11:33:02.876Z</time></trkpt><trkpt lat="45.15552" lon="8.085055"><ele>250.0</ele><time>2026-04-12T11:33:03.875Z</time></trkpt><trkpt lat="45.1554617" lon="8.0852267"><ele>250.75</ele><time>2026-04-12T11:33:04.875Z</time></trkpt><trkpt lat="45.1554017" lon="8.0854133"><ele>251.5</ele><time>2026-04-12T11:33:05.875Z</time></trkpt><trkpt lat="45.1553417" lon="8.0856"><ele>252.25</ele><time>2026-04-12T11:33:06.876Z</time></trkpt><trkpt lat="45.1552967" lon="8.08578"><ele>253.0</ele><time>2026-04-12T11:33:07.875Z</time></trkpt><trkpt lat="45.1552617" lon="8.0859667"><ele>254.25</ele><time>2026-04-12T11:33:08.875Z</time></trkpt><trkpt lat="45.1552467" lon="8.086165"><ele>255.5</ele><time>2026-04-12T11:33:09.876Z</time></trkpt><trkpt lat="45.155255" lon="8.0863483"><ele>256.75</ele><time>2026-04-12T11:33:10.876Z</time></trkpt><trkpt lat="45.1552717" lon="8.086545"><ele>258.0</ele><time>2026-04-12T11:33:11.876Z</time></trkpt><trkpt lat="45.1552817" lon="8.0867633"><ele>258.0</ele><time>2026-04-12T11:33:12.875Z</time></trkpt><trkpt lat="45.1552667" lon="8.0869633"><ele>258.0</ele><time>2026-04-12T11:33:13.875Z</time></trkpt><trkpt lat="45.1552333" lon="8.0871383"><ele>258.0</ele><time>2026-04-12T11:33:14.875Z</time></trkpt><trkpt lat="45.15518" lon="8.0872933"><ele>258.0</ele><time>2026-04-12T11:33:15.875Z</time></trkpt><trkpt lat="45.1550967" lon="8.087435"><ele>258.75</ele><time>2026-04-12T11:33:16.875Z</time></trkpt><trkpt lat="45.155005" lon="8.0875817"><ele>259.5</ele><time>2026-04-12T11:33:17.875Z</time></trkpt><trkpt lat="45.1549083" lon="8.0877083"><ele>260.25</ele><time>2026-04-12T11:33:18.875Z</time></trkpt><trkpt lat="45.1548267" lon="8.0878483"><ele>261.0</ele><time>2026-04-12T11:33:19.876Z</time></trkpt><trkpt lat="45.1547783" lon="8.088015"><ele>261.0</ele><time>2026-04-12T11:33:20.876Z</time></trkpt><trkpt lat="45.15477" lon="8.08821"><ele>261.0</ele><time>2026-04-12T11:33:21.876Z</time></trkpt><trkpt lat="45.1548183" lon="8.088395"><ele>261.0</ele><time>2026-04-12T11:33:22.875Z</time></trkpt><trkpt lat="45.1549" lon="8.0885617"><ele>261.0</ele><time>2026-04-12T11:33:23.876Z</time></trkpt><trkpt lat="45.155005" lon="8.0887333"><ele>261.0</ele><time>2026-04-12T11:33:24.876Z</time></trkpt><trkpt lat="45.1550967" lon="8.0889117"><ele>261.0</ele><time>2026-04-12T11:33:25.875Z</time></trkpt><trkpt lat="45.15518" lon="8.089095"><ele>261.0</ele><time>2026-04-12T11:33:26.875Z</time></trkpt><trkpt lat="45.1552633" lon="8.0892817"><ele>263.6666666666667</ele><time>2026-04-12T11:33:27.876Z</time></trkpt><trkpt lat="45.1553567" lon="8.0894667"><ele>266.33333333333337</ele><time>2026-04-12T11:33:28.875Z</time></trkpt><trkpt lat="45.155455" lon="8.0896517"><ele>269.0</ele><time>2026-04-12T11:33:29.875Z</time></trkpt><trkpt lat="45.1555583" lon="8.0898067"><ele>269.5</ele><time>2026-04-12T11:33:30.875Z</time></trkpt><trkpt lat="45.1556783" lon="8.089935"><ele>270.0</ele><time>2026-04-12T11:33:31.876Z</time></trkpt><trkpt lat="45.155795" lon="8.0900583"><ele>270.5</ele><time>2026-04-12T11:33:32.875Z</time></trkpt><trkpt lat="45.1559033" lon="8.0902083"><ele>271.0</ele><time>2026-04-12T11:33:33.875Z</time></trkpt><trkpt lat="45.1560017" lon="8.090375"><ele>271.0</ele><time>2026-04-12T11:33:34.876Z</time></trkpt><trkpt lat="45.1560967" lon="8.0905467"><ele>271.0</ele><time>2026-04-12T11:33:35.875Z</time></trkpt><trkpt lat="45.1561917" lon="8.0907233"><ele>271.0</ele><time>2026-04-12T11:33:36.875Z</time></trkpt><trkpt lat="45.1562833" lon="8.0908917"><ele>270.0</ele><time>2026-04-12T11:33:37.876Z</time></trkpt><trkpt lat="45.1563767" lon="8.09106"><ele>269.0</ele><time>2026-04-12T11:33:38.876Z</time></trkpt><trkpt lat="45.1564667" lon="8.0912283"><ele>268.0</ele><time>2026-04-12T11:33:39.876Z</time></trkpt><trkpt lat="45.1565583" lon="8.0913883"><ele>267.0</ele><time>2026-04-12T11:33:40.875Z</time></trkpt><trkpt lat="45.15664" lon="8.0915583"><ele>269.75</ele><time>2026-04-12T11:33:41.875Z</time></trkpt><trkpt lat="45.156705" lon="8.0917417"><ele>272.5</ele><time>2026-04-12T11:33:42.875Z</time></trkpt><trkpt lat="45.1567733" lon="8.0919267"><ele>275.25</ele><time>2026-04-12T11:33:43.875Z</time></trkpt><trkpt lat="45.1568383" lon="8.0921267"><ele>278.0</ele><time>2026-04-12T11:33:44.876Z</time></trkpt><trkpt lat="45.156895" lon="8.0922883"><ele>280.0</ele><time>2026-04-12T11:33:45.875Z</time></trkpt><trkpt lat="45.1569667" lon="8.0924233"><ele>282.0</ele><time>2026-04-12T11:33:46.876Z</time></trkpt><trkpt lat="45.1570417" lon="8.0925467"><ele>284.0</ele><time>2026-04-12T11:33:47.875Z</time></trkpt><trkpt lat="45.1571033" lon="8.0926617"><ele>286.0</ele><time>2026-04-12T11:33:48.876Z</time></trkpt><trkpt lat="45.1571433" lon="8.0927867"><ele>288.0</ele><time>2026-04-12T11:33:49.875Z</time></trkpt><trkpt lat="45.1571833" lon="8.0928967"><ele>288.0</ele><time>2026-04-12T11:33:50.876Z</time></trkpt><trkpt lat="45.157215" lon="8.0929817"><ele>288.0</ele><time>2026-04-12T11:33:51.875Z</time></trkpt><trkpt lat="45.1572533" lon="8.0930667"><ele>288.0</ele><time>2026-04-12T11:33:52.876Z</time></trkpt><trkpt lat="45.1572467" lon="8.09319"><ele>288.0</ele><time>2026-04-12T11:33:54.875Z</time></trkpt><trkpt lat="45.1571783" lon="8.093295"><ele>288.0</ele><time>2026-04-12T11:33:56.875Z</time></trkpt><trkpt lat="45.157095" lon="8.0933667"><ele>288.0</ele><time>2026-04-12T11:33:58.875Z</time></trkpt><trkpt lat="45.157015" lon="8.0933883"><ele>288.2</ele><time>2026-04-12T11:33:59.876Z</time></trkpt><trkpt lat="45.1569033" lon="8.093415"><ele>288.4</ele><time>2026-04-12T11:34:00.875Z</time></trkpt><trkpt lat="45.1567833" lon="8.0934333"><ele>288.59999999999997</ele><time>2026-04-12T11:34:01.875Z</time></trkpt><trkpt lat="45.1566783" lon="8.0934517"><ele>288.8</ele><time>2026-04-12T11:34:02.876Z</time></trkpt><trkpt lat="45.156585" lon="8.0934567"><ele>289.0</ele><time>2026-04-12T11:34:03.876Z</time></trkpt><trkpt lat="45.156495" lon="8.0934583"><ele>289.8</ele><time>2026-04-12T11:34:04.876Z</time></trkpt><trkpt lat="45.1564033" lon="8.093465"><ele>290.59999999999997</ele><time>2026-04-12T11:34:05.876Z</time></trkpt><trkpt lat="45.156305" lon="8.0934783"><ele>291.4</ele><time>2026-04-12T11:34:06.876Z</time></trkpt><trkpt lat="45.1561983" lon="8.0935017"><ele>292.2</ele><time>2026-04-12T11:34:07.876Z</time></trkpt><trkpt lat="45.1560867" lon="8.09353"><ele>293.0</ele><time>2026-04-12T11:34:08.876Z</time></trkpt><trkpt lat="45.155965" lon="8.0935383"><ele>293.0</ele><time>2026-04-12T11:34:09.875Z</time></trkpt><trkpt lat="45.1558483" lon="8.0935467"><ele>293.0</ele><time>2026-04-12T11:34:10.875Z</time></trkpt><trkpt lat="45.1557483" lon="8.09356"><ele>293.0</ele><time>2026-04-12T11:34:11.875Z</time></trkpt><trkpt lat="45.1556433" lon="8.0935683"><ele>293.0</ele><time>2026-04-12T11:34:12.876Z</time></trkpt><trkpt lat="45.15554" lon="8.093585"><ele>293.0</ele><time>2026-04-12T11:34:13.876Z</time></trkpt><trkpt lat="45.15543" lon="8.0935983"><ele>293.8</ele><time>2026-04-12T11:34:14.876Z</time></trkpt><trkpt lat="45.155335" lon="8.093625"><ele>294.6</ele><time>2026-04-12T11:34:15.876Z</time></trkpt><trkpt lat="45.15524" lon="8.0936633"><ele>295.4</ele><time>2026-04-12T11:34:16.875Z</time></trkpt><trkpt lat="45.1551517" lon="8.093685"><ele>296.2</ele><time>2026-04-12T11:34:17.876Z</time></trkpt><trkpt lat="45.155085" lon="8.0937617"><ele>297.0</ele><time>2026-04-12T11:34:18.875Z</time></trkpt><trkpt lat="45.1550383" lon="8.0938783"><ele>297.0</ele><time>2026-04-12T11:34:19.875Z</time></trkpt><trkpt lat="45.1550067" lon="8.094025"><ele>297.0</ele><time>2026-04-12T11:34:20.875Z</time></trkpt><trkpt lat="45.1549833" lon="8.0942083"><ele>297.0</ele><time>2026-04-12T11:34:21.875Z</time></trkpt><trkpt lat="45.1549483" lon="8.094395"><ele>297.0</ele><time>2026-04-12T11:34:22.876Z</time></trkpt><trkpt lat="45.1549" lon="8.0945833"><ele>297.0</ele><time>2026-04-12T11:34:23.876Z</time></trkpt><trkpt lat="45.154855" lon="8.0947783"><ele>297.0</ele><time>2026-04-12T11:34:24.876Z</time></trkpt><trkpt lat="45.1548017" lon="8.0949683"><ele>297.0</ele><time>2026-04-12T11:34:25.875Z</time></trkpt><trkpt lat="45.1547433" lon="8.095155"><ele>297.0</ele><time>2026-04-12T11:34:26.875Z</time></trkpt><trkpt lat="45.1546967" lon="8.0953383"><ele>296.0</ele><time>2026-04-12T11:34:27.875Z</time></trkpt><trkpt lat="45.1546383" lon="8.0955217"><ele>295.0</ele><time>2026-04-12T11:34:28.876Z</time></trkpt><trkpt lat="45.15459" lon="8.0957083"><ele>294.0</ele><time>2026-04-12T11:34:29.875Z</time></trkpt><trkpt lat="45.15455" lon="8.0959017"><ele>293.0</ele><time>2026-04-12T11:34:30.876Z</time></trkpt><trkpt lat="45.1545283" lon="8.0960917"><ele>291.5</ele><time>2026-04-12T11:34:31.876Z</time></trkpt><trkpt lat="45.1545133" lon="8.0962817"><ele>290.0</ele><time>2026-04-12T11:34:32.875Z</time></trkpt><trkpt lat="45.1545133" lon="8.0964783"><ele>288.5</ele><time>2026-04-12T11:34:33.875Z</time></trkpt><trkpt lat="45.1545133" lon="8.0966767"><ele>287.0</ele><time>2026-04-12T11:34:34.876Z</time></trkpt><trkpt lat="45.1544933" lon="8.0968683"><ele>286.5</ele><time>2026-04-12T11:34:35.876Z</time></trkpt><trkpt lat="45.1544483" lon="8.0970583"><ele>286.0</ele><time>2026-04-12T11:34:36.876Z</time></trkpt><trkpt lat="45.15439" lon="8.0972317"><ele>285.5</ele><time>2026-04-12T11:34:37.875Z</time></trkpt><trkpt lat="45.15432" lon="8.0974017"><ele>285.0</ele><time>2026-04-12T11:34:38.876Z</time></trkpt><trkpt lat="45.1542333" lon="8.09757"><ele>284.3333333333333</ele><time>2026-04-12T11:34:39.876Z</time></trkpt><trkpt lat="45.15414" lon="8.0977467"><ele>283.66666666666663</ele><time>2026-04-12T11:34:40.875Z</time></trkpt><trkpt lat="45.15406" lon="8.097925"><ele>283.0</ele><time>2026-04-12T11:34:41.876Z</time></trkpt><trkpt lat="45.153975" lon="8.098105"><ele>283.66666666666663</ele><time>2026-04-12T11:34:42.876Z</time></trkpt><trkpt lat="45.1538883" lon="8.0982783"><ele>284.3333333333333</ele><time>2026-04-12T11:34:43.876Z</time></trkpt><trkpt lat="45.1537983" lon="8.0984533"><ele>285.0</ele><time>2026-04-12T11:34:44.875Z</time></trkpt><trkpt lat="45.1537133" lon="8.0986417"><ele>285.0</ele><time>2026-04-12T11:34:45.876Z</time></trkpt><trkpt lat="45.1536233" lon="8.0988283"><ele>285.0</ele><time>2026-04-12T11:34:46.875Z</time></trkpt><trkpt lat="45.1535417" lon="8.099015"><ele>285.0</ele><time>2026-04-12T11:34:47.875Z</time></trkpt><trkpt lat="45.15346" lon="8.0991867"><ele>285.25</ele><time>2026-04-12T11:34:48.876Z</time></trkpt><trkpt lat="45.153375" lon="8.0993617"><ele>285.5</ele><time>2026-04-12T11:34:49.875Z</time></trkpt><trkpt lat="45.15329" lon="8.09954"><ele>285.75</ele><time>2026-04-12T11:34:50.875Z</time></trkpt><trkpt lat="45.1532267" lon="8.0997167"><ele>286.0</ele><time>2026-04-12T11:34:51.875Z</time></trkpt><trkpt lat="45.1531717" lon="8.0999033"><ele>283.5</ele><time>2026-04-12T11:34:52.875Z</time></trkpt><trkpt lat="45.1531433" lon="8.10008"><ele>281.0</ele><time>2026-04-12T11:34:53.875Z</time></trkpt><trkpt lat="45.1531467" lon="8.1002717"><ele>278.5</ele><time>2026-04-12T11:34:54.875Z</time></trkpt><trkpt lat="45.1531867" lon="8.1004517"><ele>276.0</ele><time>2026-04-12T11:34:55.876Z</time></trkpt><trkpt lat="45.15321" lon="8.1006283"><ele>273.0</ele><time>2026-04-12T11:34:56.875Z</time></trkpt><trkpt lat="45.153205" lon="8.1007933"><ele>270.0</ele><time>2026-04-12T11:34:57.876Z</time></trkpt><trkpt lat="45.1531533" lon="8.1009483"><ele>267.0</ele><time>2026-04-12T11:34:58.876Z</time></trkpt><trkpt lat="45.1531" lon="8.1010833"><ele>264.0</ele><time>2026-04-12T11:34:59.876Z</time></trkpt><trkpt lat="45.1530633" lon="8.101225"><ele>264.0</ele><time>2026-04-12T11:35:00.875Z</time></trkpt><trkpt lat="45.1530317" lon="8.101385"><ele>264.0</ele><time>2026-04-12T11:35:01.876Z</time></trkpt><trkpt lat="45.1530133" lon="8.1015767"><ele>264.0</ele><time>2026-04-12T11:35:02.875Z</time></trkpt><trkpt lat="45.153005" lon="8.10177"><ele>264.0</ele><time>2026-04-12T11:35:03.875Z</time></trkpt><trkpt lat="45.1530067" lon="8.1019717"><ele>262.25</ele><time>2026-04-12T11:35:04.876Z</time></trkpt><trkpt lat="45.1530167" lon="8.1021633"><ele>260.5</ele><time>2026-04-12T11:35:05.876Z</time></trkpt><trkpt lat="45.1530533" lon="8.1023467"><ele>258.75</ele><time>2026-04-12T11:35:06.876Z</time></trkpt><trkpt lat="45.153105" lon="8.1025333"><ele>257.0</ele><time>2026-04-12T11:35:07.875Z</time></trkpt><trkpt lat="45.15316" lon="8.10272"><ele>257.0</ele><time>2026-04-12T11:35:08.876Z</time></trkpt><trkpt lat="45.1532233" lon="8.10289"><ele>257.0</ele><time>2026-04-12T11:35:09.875Z</time></trkpt><trkpt lat="45.1533033" lon="8.1030283"><ele>257.0</ele><time>2026-04-12T11:35:10.875Z</time></trkpt><trkpt lat="45.1533867" lon="8.103145"><ele>257.0</ele><time>2026-04-12T11:35:11.875Z</time></trkpt><trkpt lat="45.1534467" lon="8.1032583"><ele>257.0</ele><time>2026-04-12T11:35:12.875Z</time></trkpt><trkpt lat="45.1534683" lon="8.1033683"><ele>257.0</ele><time>2026-04-12T11:35:13.875Z</time></trkpt><trkpt lat="45.1534567" lon="8.1034617"><ele>257.0</ele><time>2026-04-12T11:35:14.876Z</time></trkpt><trkpt lat="45.153345" lon="8.103535"><ele>257.0</ele><time>2026-04-12T11:35:16.876Z</time></trkpt><trkpt lat="45.1532617" lon="8.103495"><ele>257.0</ele><time>2026-04-12T11:35:17.876Z</time></trkpt><trkpt lat="45.15316" lon="8.103415"><ele>255.75</ele><time>2026-04-12T11:35:18.876Z</time></trkpt><trkpt lat="45.15306" lon="8.103315"><ele>254.5</ele><time>2026-04-12T11:35:19.875Z</time></trkpt><trkpt lat="45.152955" lon="8.1032067"><ele>253.25</ele><time>2026-04-12T11:35:20.876Z</time></trkpt><trkpt lat="45.15286" lon="8.1031033"><ele>252.0</ele><time>2026-04-12T11:35:21.875Z</time></trkpt><trkpt lat="45.152765" lon="8.1030067"><ele>252.0</ele><time>2026-04-12T11:35:22.875Z</time></trkpt><trkpt lat="45.1526967" lon="8.1029283"><ele>252.0</ele><time>2026-04-12T11:35:23.875Z</time></trkpt><trkpt lat="45.1525833" lon="8.10286"><ele>252.0</ele><time>2026-04-12T11:35:25.875Z</time></trkpt><trkpt lat="45.1525117" lon="8.1029367"><ele>252.0</ele><time>2026-04-12T11:35:27.876Z</time></trkpt><trkpt lat="45.1525083" lon="8.1030717"><ele>252.0</ele><time>2026-04-12T11:35:28.876Z</time></trkpt><trkpt lat="45.1525383" lon="8.10322"><ele>249.75</ele><time>2026-04-12T11:35:29.875Z</time></trkpt><trkpt lat="45.15259" lon="8.1033883"><ele>247.5</ele><time>2026-04-12T11:35:30.876Z</time></trkpt><trkpt lat="45.1526617" lon="8.1035667"><ele>245.25</ele><time>2026-04-12T11:35:31.875Z</time></trkpt><trkpt lat="45.1527367" lon="8.1037533"><ele>243.0</ele><time>2026-04-12T11:35:32.875Z</time></trkpt><trkpt lat="45.1528117" lon="8.1039483"><ele>239.0</ele><time>2026-04-12T11:35:33.875Z</time></trkpt><trkpt lat="45.152885" lon="8.1041517"><ele>235.0</ele><time>2026-04-12T11:35:34.875Z</time></trkpt><trkpt lat="45.1529517" lon="8.1043533"><ele>231.0</ele><time>2026-04-12T11:35:35.875Z</time></trkpt><trkpt lat="45.1530083" lon="8.10454"><ele>231.0</ele><time>2026-04-12T11:35:36.876Z</time></trkpt><trkpt lat="45.153065" lon="8.104715"><ele>231.0</ele><time>2026-04-12T11:35:37.875Z</time></trkpt><trkpt lat="45.1531233" lon="8.10489"><ele>231.0</ele><time>2026-04-12T11:35:38.875Z</time></trkpt><trkpt lat="45.1531933" lon="8.1050367"><ele>231.0</ele><time>2026-04-12T11:35:39.876Z</time></trkpt><trkpt lat="45.1532733" lon="8.105175"><ele>231.75</ele><time>2026-04-12T11:35:40.875Z</time></trkpt><trkpt lat="45.15337" lon="8.1052783"><ele>232.5</ele><time>2026-04-12T11:35:41.875Z</time></trkpt><trkpt lat="45.1534783" lon="8.1053383"><ele>233.25</ele><time>2026-04-12T11:35:42.875Z</time></trkpt><trkpt lat="45.1535883" lon="8.1054083"><ele>234.0</ele><time>2026-04-12T11:35:43.875Z</time></trkpt><trkpt lat="45.1536833" lon="8.1055217"><ele>234.0</ele><time>2026-04-12T11:35:44.875Z</time></trkpt><trkpt lat="45.1537683" lon="8.10567"><ele>234.0</ele><time>2026-04-12T11:35:45.876Z</time></trkpt><trkpt lat="45.1538317" lon="8.105855"><ele>234.0</ele><time>2026-04-12T11:35:46.876Z</time></trkpt><trkpt lat="45.1538683" lon="8.1060483"><ele>234.0</ele><time>2026-04-12T11:35:47.875Z</time></trkpt><trkpt lat="45.1538883" lon="8.1062633"><ele>232.0</ele><time>2026-04-12T11:35:48.876Z</time></trkpt><trkpt lat="45.1539017" lon="8.106475"><ele>230.0</ele><time>2026-04-12T11:35:49.876Z</time></trkpt><trkpt lat="45.15392" lon="8.1066783"><ele>228.0</ele><time>2026-04-12T11:35:50.875Z</time></trkpt><trkpt lat="45.1539367" lon="8.106865"><ele>226.0</ele><time>2026-04-12T11:35:51.876Z</time></trkpt><trkpt lat="45.15396" lon="8.1070333"><ele>225.60000000000002</ele><time>2026-04-12T11:35:52.876Z</time></trkpt><trkpt lat="45.154" lon="8.1071933"><ele>225.20000000000002</ele><time>2026-04-12T11:35:53.875Z</time></trkpt><trkpt lat="45.15406" lon="8.1073267"><ele>224.79999999999998</ele><time>2026-04-12T11:35:54.876Z</time></trkpt><trkpt lat="45.15413" lon="8.107445"><ele>224.39999999999998</ele><time>2026-04-12T11:35:55.876Z</time></trkpt><trkpt lat="45.1542017" lon="8.1075617"><ele>224.0</ele><time>2026-04-12T11:35:56.875Z</time></trkpt><trkpt lat="45.1542633" lon="8.1076733"><ele>224.0</ele><time>2026-04-12T11:35:57.875Z</time></trkpt><trkpt lat="45.1543267" lon="8.10779"><ele>223.99999999999997</ele><time>2026-04-12T11:35:58.875Z</time></trkpt><trkpt lat="45.1544" lon="8.1078717"><ele>223.99999999999997</ele><time>2026-04-12T11:35:59.875Z</time></trkpt><trkpt lat="45.1544883" lon="8.1079167"><ele>224.0</ele><time>2026-04-12T11:36:00.875Z</time></trkpt><trkpt lat="45.154595" lon="8.1079067"><ele>224.0</ele><time>2026-04-12T11:36:01.876Z</time></trkpt><trkpt lat="45.15471" lon="8.1078567"><ele>224.0</ele><time>2026-04-12T11:36:02.876Z</time></trkpt><trkpt lat="45.154835" lon="8.1077817"><ele>224.0</ele><time>2026-04-12T11:36:03.875Z</time></trkpt><trkpt lat="45.154965" lon="8.1077083"><ele>224.0</ele><time>2026-04-12T11:36:04.875Z</time></trkpt><trkpt lat="45.1550833" lon="8.1076283"><ele>224.0</ele><time>2026-04-12T11:36:05.875Z</time></trkpt><trkpt lat="45.1551967" lon="8.10756"><ele>224.33333333333334</ele><time>2026-04-12T11:36:06.875Z</time></trkpt><trkpt lat="45.155305" lon="8.1075017"><ele>224.66666666666669</ele><time>2026-04-12T11:36:07.875Z</time></trkpt><trkpt lat="45.1553933" lon="8.1074617"><ele>225.0</ele><time>2026-04-12T11:36:08.876Z</time></trkpt><trkpt lat="45.155475" lon="8.1074433"><ele>225.33333333333331</ele><time>2026-04-12T11:36:09.875Z</time></trkpt><trkpt lat="45.1555517" lon="8.107485"><ele>225.66666666666666</ele><time>2026-04-12T11:36:10.875Z</time></trkpt><trkpt lat="45.1555983" lon="8.1075533"><ele>226.0</ele><time>2026-04-12T11:36:11.876Z</time></trkpt><trkpt lat="45.1556" lon="8.1076583"><ele>226.0</ele><time>2026-04-12T11:36:12.875Z</time></trkpt><trkpt lat="45.1555617" lon="8.1077733"><ele>226.0</ele><time>2026-04-12T11:36:13.876Z</time></trkpt><trkpt lat="45.15549" lon="8.1079"><ele>226.0</ele><time>2026-04-12T11:36:14.875Z</time></trkpt><trkpt lat="45.1553967" lon="8.1080467"><ele>226.0</ele><time>2026-04-12T11:36:15.875Z</time></trkpt><trkpt lat="45.15528" lon="8.108205"><ele>219.33333333333331</ele><time>2026-04-12T11:36:16.875Z</time></trkpt><trkpt lat="45.15515" lon="8.10837"><ele>212.66666666666669</ele><time>2026-04-12T11:36:17.876Z</time></trkpt><trkpt lat="45.15503" lon="8.1084933"><ele>206.0</ele><time>2026-04-12T11:36:18.875Z</time></trkpt><trkpt lat="45.1549117" lon="8.10858"><ele>205.5</ele><time>2026-04-12T11:36:19.875Z</time></trkpt><trkpt lat="45.1547933" lon="8.108625"><ele>205.0</ele><time>2026-04-12T11:36:20.875Z</time></trkpt><trkpt lat="45.154665" lon="8.108635"><ele>204.5</ele><time>2026-04-12T11:36:21.876Z</time></trkpt><trkpt lat="45.1545333" lon="8.108615"><ele>204.0</ele><time>2026-04-12T11:36:22.875Z</time></trkpt><trkpt lat="45.1544033" lon="8.1085967"><ele>204.0</ele><time>2026-04-12T11:36:23.875Z</time></trkpt><trkpt lat="45.154275" lon="8.108585"><ele>204.0</ele><time>2026-04-12T11:36:24.876Z</time></trkpt><trkpt lat="45.1541517" lon="8.108555"><ele>204.0</ele><time>2026-04-12T11:36:25.875Z</time></trkpt><trkpt lat="45.15404" lon="8.108545"><ele>204.0</ele><time>2026-04-12T11:36:26.876Z</time></trkpt><trkpt lat="45.153935" lon="8.108535"><ele>201.79999999999998</ele><time>2026-04-12T11:36:27.875Z</time></trkpt><trkpt lat="45.15383" lon="8.10854"><ele>199.6</ele><time>2026-04-12T11:36:28.876Z</time></trkpt><trkpt lat="45.1537283" lon="8.1085683"><ele>197.4</ele><time>2026-04-12T11:36:29.875Z</time></trkpt><trkpt lat="45.15364" lon="8.108655"><ele>195.2</ele><time>2026-04-12T11:36:30.875Z</time></trkpt><trkpt lat="45.1535667" lon="8.1087617"><ele>193.0</ele><time>2026-04-12T11:36:31.876Z</time></trkpt><trkpt lat="45.153515" lon="8.1088883"><ele>193.0</ele><time>2026-04-12T11:36:32.876Z</time></trkpt><trkpt lat="45.1534933" lon="8.10905"><ele>193.0</ele><time>2026-04-12T11:36:33.876Z</time></trkpt><trkpt lat="45.1534933" lon="8.1092217"><ele>193.0</ele><time>2026-04-12T11:36:34.875Z</time></trkpt><trkpt lat="45.1535233" lon="8.1093917"><ele>193.0</ele><time>2026-04-12T11:36:35.875Z</time></trkpt><trkpt lat="45.153575" lon="8.1095517"><ele>193.25</ele><time>2026-04-12T11:36:36.875Z</time></trkpt><trkpt lat="45.1536383" lon="8.1097117"><ele>193.5</ele><time>2026-04-12T11:36:37.875Z</time></trkpt><trkpt lat="45.1537083" lon="8.1098817"><ele>193.75</ele><time>2026-04-12T11:36:38.875Z</time></trkpt><trkpt lat="45.1537783" lon="8.110055"><ele>194.0</ele><time>2026-04-12T11:36:39.876Z</time></trkpt><trkpt lat="45.1538467" lon="8.110205"><ele>194.25</ele><time>2026-04-12T11:36:40.876Z</time></trkpt><trkpt lat="45.1539217" lon="8.1103617"><ele>194.5</ele><time>2026-04-12T11:36:41.876Z</time></trkpt><trkpt lat="45.1540017" lon="8.110515"><ele>194.75</ele><time>2026-04-12T11:36:42.875Z</time></trkpt><trkpt lat="45.154075" lon="8.1106717"><ele>195.0</ele><time>2026-04-12T11:36:43.875Z</time></trkpt><trkpt lat="45.1541267" lon="8.1108233"><ele>196.0</ele><time>2026-04-12T11:36:44.875Z</time></trkpt><trkpt lat="45.154155" lon="8.1109883"><ele>197.0</ele><time>2026-04-12T11:36:45.875Z</time></trkpt><trkpt lat="45.1541517" lon="8.1111733"><ele>198.0</ele><time>2026-04-12T11:36:46.875Z</time></trkpt><trkpt lat="45.15414" lon="8.1113567"><ele>199.0</ele><time>2026-04-12T11:36:47.875Z</time></trkpt><trkpt lat="45.1541367" lon="8.1115583"><ele>200.75</ele><time>2026-04-12T11:36:48.875Z</time></trkpt><trkpt lat="45.1541367" lon="8.1117433"><ele>202.5</ele><time>2026-04-12T11:36:49.876Z</time></trkpt><trkpt lat="45.1541733" lon="8.1119333"><ele>204.25</ele><time>2026-04-12T11:36:50.876Z</time></trkpt><trkpt lat="45.15425" lon="8.1120867"><ele>206.0</ele><time>2026-04-12T11:36:51.875Z</time></trkpt><trkpt lat="45.154355" lon="8.112225"><ele>206.0</ele><time>2026-04-12T11:36:52.876Z</time></trkpt><trkpt lat="45.1544783" lon="8.1123567"><ele>206.0</ele><time>2026-04-12T11:36:53.876Z</time></trkpt><trkpt lat="45.1546117" lon="8.1124267"><ele>206.0</ele><time>2026-04-12T11:36:54.875Z</time></trkpt><trkpt lat="45.1547333" lon="8.1125017"><ele>206.0</ele><time>2026-04-12T11:36:55.876Z</time></trkpt><trkpt lat="45.1548783" lon="8.11257"><ele>207.25</ele><time>2026-04-12T11:36:56.875Z</time></trkpt><trkpt lat="45.155005" lon="8.1126483"><ele>208.5</ele><time>2026-04-12T11:36:57.876Z</time></trkpt><trkpt lat="45.1551433" lon="8.1127033"><ele>209.75</ele><time>2026-04-12T11:36:58.876Z</time></trkpt><trkpt lat="45.15529" lon="8.112725"><ele>211.0</ele><time>2026-04-12T11:36:59.876Z</time></trkpt><trkpt lat="45.15543" lon="8.1127533"><ele>211.0</ele><time>2026-04-12T11:37:00.876Z</time></trkpt><trkpt lat="45.155555" lon="8.11279"><ele>211.0</ele><time>2026-04-12T11:37:01.876Z</time></trkpt><trkpt lat="45.1556883" lon="8.1128183"><ele>211.0</ele><time>2026-04-12T11:37:02.875Z</time></trkpt><trkpt lat="45.155805" lon="8.112845"><ele>211.0</ele><time>2026-04-12T11:37:03.876Z</time></trkpt><trkpt lat="45.1559083" lon="8.1128683"><ele>210.33333333333331</ele><time>2026-04-12T11:37:04.876Z</time></trkpt><trkpt lat="45.1560033" lon="8.112895"><ele>209.66666666666666</ele><time>2026-04-12T11:37:05.876Z</time></trkpt><trkpt lat="45.1560783" lon="8.1129133"><ele>209.0</ele><time>2026-04-12T11:37:06.875Z</time></trkpt><trkpt lat="45.1561367" lon="8.11295"><ele>208.33333333333331</ele><time>2026-04-12T11:37:07.875Z</time></trkpt><trkpt lat="45.1561733" lon="8.1130617"><ele>207.66666666666666</ele><time>2026-04-12T11:37:09.875Z</time></trkpt><trkpt lat="45.1560817" lon="8.1131783"><ele>207.0</ele><time>2026-04-12T11:37:11.875Z</time></trkpt><trkpt lat="45.1559933" lon="8.1132067"><ele>207.0</ele><time>2026-04-12T11:37:12.876Z</time></trkpt><trkpt lat="45.1558867" lon="8.1132117"><ele>207.0</ele><time>2026-04-12T11:37:13.876Z</time></trkpt><trkpt lat="45.1557767" lon="8.1132283"><ele>207.0</ele><time>2026-04-12T11:37:14.875Z</time></trkpt><trkpt lat="45.1556617" lon="8.1132483"><ele>207.0</ele><time>2026-04-12T11:37:15.876Z</time></trkpt><trkpt lat="45.1555533" lon="8.1132767"><ele>207.0</ele><time>2026-04-12T11:37:16.875Z</time></trkpt><trkpt lat="45.15544" lon="8.1133133"><ele>211.5</ele><time>2026-04-12T11:37:17.876Z</time></trkpt><trkpt lat="45.15532" lon="8.1133517"><ele>216.0</ele><time>2026-04-12T11:37:18.875Z</time></trkpt><trkpt lat="45.1552033" lon="8.11338"><ele>220.5</ele><time>2026-04-12T11:37:19.876Z</time></trkpt><trkpt lat="45.15508" lon="8.113395"><ele>225.0</ele><time>2026-04-12T11:37:20.876Z</time></trkpt><trkpt lat="45.1549617" lon="8.1134133"><ele>225.75</ele><time>2026-04-12T11:37:21.875Z</time></trkpt><trkpt lat="45.15485" lon="8.1134517"><ele>226.5</ele><time>2026-04-12T11:37:22.876Z</time></trkpt><trkpt lat="45.15474" lon="8.1135133"><ele>227.25</ele><time>2026-04-12T11:37:23.875Z</time></trkpt><trkpt lat="45.1546233" lon="8.113605"><ele>228.0</ele><time>2026-04-12T11:37:24.875Z</time></trkpt><trkpt lat="45.1545183" lon="8.1136967"><ele>228.0</ele><time>2026-04-12T11:37:25.876Z</time></trkpt><trkpt lat="45.1544" lon="8.1137767"><ele>228.0</ele><time>2026-04-12T11:37:26.876Z</time></trkpt><trkpt lat="45.154295" lon="8.11382"><ele>228.0</ele><time>2026-04-12T11:37:27.876Z</time></trkpt><trkpt lat="45.154165" lon="8.1138567"><ele>228.0</ele><time>2026-04-12T11:37:28.876Z</time></trkpt><trkpt lat="45.1540483" lon="8.1138783"><ele>230.8</ele><time>2026-04-12T11:37:29.876Z</time></trkpt><trkpt lat="45.153945" lon="8.1139"><ele>233.60000000000002</ele><time>2026-04-12T11:37:30.876Z</time></trkpt><trkpt lat="45.15384" lon="8.113975"><ele>236.39999999999998</ele><time>2026-04-12T11:37:31.875Z</time></trkpt><trkpt lat="45.1537333" lon="8.1140633"><ele>239.2</ele><time>2026-04-12T11:37:32.876Z</time></trkpt><trkpt lat="45.1536767" lon="8.1141817"><ele>242.0</ele><time>2026-04-12T11:37:33.876Z</time></trkpt><trkpt lat="45.15364" lon="8.1143417"><ele>242.2</ele><time>2026-04-12T11:37:34.875Z</time></trkpt><trkpt lat="45.1536167" lon="8.1145117"><ele>242.39999999999998</ele><time>2026-04-12T11:37:35.876Z</time></trkpt><trkpt lat="45.1535983" lon="8.1146567"><ele>242.60000000000002</ele><time>2026-04-12T11:37:36.876Z</time></trkpt><trkpt lat="45.1536" lon="8.1148067"><ele>242.8</ele><time>2026-04-12T11:37:37.875Z</time></trkpt><trkpt lat="45.1536467" lon="8.1149383"><ele>243.0</ele><time>2026-04-12T11:37:38.875Z</time></trkpt><trkpt lat="45.1537333" lon="8.115065"><ele>242.0</ele><time>2026-04-12T11:37:39.875Z</time></trkpt><trkpt lat="45.153825" lon="8.1151683"><ele>241.0</ele><time>2026-04-12T11:37:40.876Z</time></trkpt><trkpt lat="45.1539383" lon="8.1152367"><ele>240.0</ele><time>2026-04-12T11:37:41.876Z</time></trkpt><trkpt lat="45.1540517" lon="8.1153"><ele>239.0</ele><time>2026-04-12T11:37:42.876Z</time></trkpt><trkpt lat="45.1541633" lon="8.1153633"><ele>238.75</ele><time>2026-04-12T11:37:43.875Z</time></trkpt><trkpt lat="45.1542683" lon="8.11545"><ele>238.5</ele><time>2026-04-12T11:37:44.875Z</time></trkpt><trkpt lat="45.154375" lon="8.1155533"><ele>238.25</ele><time>2026-04-12T11:37:45.875Z</time></trkpt><trkpt lat="45.1544633" lon="8.1156917"><ele>238.0</ele><time>2026-04-12T11:37:46.876Z</time></trkpt><trkpt lat="45.1545167" lon="8.115855"><ele>235.0</ele><time>2026-04-12T11:37:47.875Z</time></trkpt><trkpt lat="45.154555" lon="8.1160667"><ele>232.0</ele><time>2026-04-12T11:37:48.875Z</time></trkpt><trkpt lat="45.154595" lon="8.1163083"><ele>229.0</ele><time>2026-04-12T11:37:49.875Z</time></trkpt><trkpt lat="45.1546267" lon="8.1164783"><ele>227.5</ele><time>2026-04-12T11:37:50.875Z</time></trkpt><trkpt lat="45.1546683" lon="8.1166583"><ele>226.0</ele><time>2026-04-12T11:37:51.875Z</time></trkpt><trkpt lat="45.154715" lon="8.1168517"><ele>224.5</ele><time>2026-04-12T11:37:52.875Z</time></trkpt><trkpt lat="45.15476" lon="8.1170533"><ele>223.0</ele><time>2026-04-12T11:37:53.875Z</time></trkpt><trkpt lat="45.1548" lon="8.1172617"><ele>223.66666666666666</ele><time>2026-04-12T11:37:54.875Z</time></trkpt><trkpt lat="45.1548433" lon="8.1174767"><ele>224.33333333333331</ele><time>2026-04-12T11:37:55.875Z</time></trkpt><trkpt lat="45.15489" lon="8.11769"><ele>225.0</ele><time>2026-04-12T11:37:56.875Z</time></trkpt><trkpt lat="45.1549317" lon="8.1179"><ele>225.0</ele><time>2026-04-12T11:37:57.875Z</time></trkpt><trkpt lat="45.1549717" lon="8.1181117"><ele>225.0</ele><time>2026-04-12T11:37:58.875Z</time></trkpt><trkpt lat="45.154995" lon="8.1183383"><ele>225.0</ele><time>2026-04-12T11:37:59.876Z</time></trkpt><trkpt lat="45.155025" lon="8.1185583"><ele>222.5</ele><time>2026-04-12T11:38:00.875Z</time></trkpt><trkpt lat="45.1550467" lon="8.118765"><ele>220.0</ele><time>2026-04-12T11:38:01.875Z</time></trkpt><trkpt lat="45.155065" lon="8.11897"><ele>217.5</ele><time>2026-04-12T11:38:02.875Z</time></trkpt><trkpt lat="45.155055" lon="8.11916"><ele>215.0</ele><time>2026-04-12T11:38:03.875Z</time></trkpt><trkpt lat="45.155025" lon="8.119345"><ele>213.8</ele><time>2026-04-12T11:38:04.876Z</time></trkpt><trkpt lat="45.1549917" lon="8.1194983"><ele>212.6</ele><time>2026-04-12T11:38:05.875Z</time></trkpt><trkpt lat="45.154975" lon="8.1196483"><ele>211.39999999999998</ele><time>2026-04-12T11:38:06.876Z</time></trkpt><trkpt lat="45.1550033" lon="8.1197967"><ele>210.2</ele><time>2026-04-12T11:38:07.876Z</time></trkpt><trkpt lat="45.155075" lon="8.1199267"><ele>209.0</ele><time>2026-04-12T11:38:08.875Z</time></trkpt><trkpt lat="45.1551467" lon="8.12006"><ele>208.6</ele><time>2026-04-12T11:38:09.875Z</time></trkpt><trkpt lat="45.1551833" lon="8.12019"><ele>208.2</ele><time>2026-04-12T11:38:10.876Z</time></trkpt><trkpt lat="45.1551617" lon="8.1203233"><ele>207.79999999999998</ele><time>2026-04-12T11:38:11.875Z</time></trkpt><trkpt lat="45.155105" lon="8.12044"><ele>207.39999999999998</ele><time>2026-04-12T11:38:12.876Z</time></trkpt><trkpt lat="45.1550333" lon="8.12056"><ele>207.0</ele><time>2026-04-12T11:38:13.875Z</time></trkpt><trkpt lat="45.1549483" lon="8.1207067"><ele>204.5</ele><time>2026-04-12T11:38:14.875Z</time></trkpt><trkpt lat="45.1548683" lon="8.12087"><ele>202.0</ele><time>2026-04-12T11:38:15.875Z</time></trkpt><trkpt lat="45.1547783" lon="8.1210267"><ele>199.5</ele><time>2026-04-12T11:38:16.876Z</time></trkpt><trkpt lat="45.1546883" lon="8.121195"><ele>197.0</ele><time>2026-04-12T11:38:17.876Z</time></trkpt><trkpt lat="45.1545967" lon="8.1213633"><ele>197.0</ele><time>2026-04-12T11:38:18.875Z</time></trkpt><trkpt lat="45.1544983" lon="8.12153"><ele>197.0</ele><time>2026-04-12T11:38:19.876Z</time></trkpt><trkpt lat="45.1544017" lon="8.1216933"><ele>197.0</ele><time>2026-04-12T11:38:20.875Z</time></trkpt><trkpt lat="45.154305" lon="8.1218467"><ele>197.0</ele><time>2026-04-12T11:38:21.876Z</time></trkpt><trkpt lat="45.1542133" lon="8.122"><ele>197.0</ele><time>2026-04-12T11:38:22.875Z</time></trkpt><trkpt lat="45.1541283" lon="8.1221533"><ele>197.0</ele><time>2026-04-12T11:38:23.876Z</time></trkpt><trkpt lat="45.1540383" lon="8.122315"><ele>197.0</ele><time>2026-04-12T11:38:24.875Z</time></trkpt><trkpt lat="45.1539417" lon="8.1224733"><ele>197.0</ele><time>2026-04-12T11:38:25.875Z</time></trkpt><trkpt lat="45.1538433" lon="8.12263"><ele>197.0</ele><time>2026-04-12T11:38:26.875Z</time></trkpt><trkpt lat="45.1537483" lon="8.1227833"><ele>197.0</ele><time>2026-04-12T11:38:27.875Z</time></trkpt><trkpt lat="45.1536533" lon="8.122945"><ele>197.0</ele><time>2026-04-12T11:38:28.875Z</time></trkpt><trkpt lat="45.15356" lon="8.1231217"><ele>197.0</ele><time>2026-04-12T11:38:29.876Z</time></trkpt><trkpt lat="45.1534767" lon="8.1232817"><ele>195.0</ele><time>2026-04-12T11:38:30.875Z</time></trkpt><trkpt lat="45.153415" lon="8.12346"><ele>193.0</ele><time>2026-04-12T11:38:31.875Z</time></trkpt><trkpt lat="45.1533717" lon="8.1236317"><ele>191.0</ele><time>2026-04-12T11:38:32.876Z</time></trkpt><trkpt lat="45.1533433" lon="8.123815"><ele>189.0</ele><time>2026-04-12T11:38:33.876Z</time></trkpt><trkpt lat="45.15334" lon="8.1239867"><ele>189.25</ele><time>2026-04-12T11:38:34.875Z</time></trkpt><trkpt lat="45.1533517" lon="8.124175"><ele>189.5</ele><time>2026-04-12T11:38:35.875Z</time></trkpt><trkpt lat="45.1533783" lon="8.1243733"><ele>189.75</ele><time>2026-04-12T11:38:36.875Z</time></trkpt><trkpt lat="45.1534067" lon="8.1245817"><ele>190.0</ele><time>2026-04-12T11:38:37.875Z</time></trkpt><trkpt lat="45.1534467" lon="8.1247833"><ele>190.25</ele><time>2026-04-12T11:38:38.876Z</time></trkpt><trkpt lat="45.1534817" lon="8.1249767"><ele>190.5</ele><time>2026-04-12T11:38:39.876Z</time></trkpt><trkpt lat="45.1535067" lon="8.125175"><ele>190.75</ele><time>2026-04-12T11:38:40.876Z</time></trkpt><trkpt lat="45.1535133" lon="8.125355"><ele>191.0</ele><time>2026-04-12T11:38:41.875Z</time></trkpt><trkpt lat="45.1534967" lon="8.1255233"><ele>191.0</ele><time>2026-04-12T11:38:42.875Z</time></trkpt><trkpt lat="45.1534617" lon="8.1256833"><ele>191.0</ele><time>2026-04-12T11:38:43.875Z</time></trkpt><trkpt lat="45.1534417" lon="8.125815"><ele>191.0</ele><time>2026-04-12T11:38:44.876Z</time></trkpt><trkpt lat="45.1534383" lon="8.1259633"><ele>191.0</ele><time>2026-04-12T11:38:45.876Z</time></trkpt><trkpt lat="45.1534433" lon="8.1261183"><ele>191.0</ele><time>2026-04-12T11:38:46.875Z</time></trkpt><trkpt lat="45.1534333" lon="8.1262983"><ele>190.25</ele><time>2026-04-12T11:38:47.875Z</time></trkpt><trkpt lat="45.1534283" lon="8.1264933"><ele>189.5</ele><time>2026-04-12T11:38:48.875Z</time></trkpt><trkpt lat="45.153425" lon="8.1266883"><ele>188.75</ele><time>2026-04-12T11:38:49.876Z</time></trkpt><trkpt lat="45.1534317" lon="8.1268867"><ele>188.0</ele><time>2026-04-12T11:38:50.875Z</time></trkpt><trkpt lat="45.1534383" lon="8.1270917"><ele>187.0</ele><time>2026-04-12T11:38:51.875Z</time></trkpt><trkpt lat="45.1534433" lon="8.12729"><ele>186.0</ele><time>2026-04-12T11:38:52.875Z</time></trkpt><trkpt lat="45.1534433" lon="8.127475"><ele>185.0</ele><time>2026-04-12T11:38:53.875Z</time></trkpt><trkpt lat="45.15344" lon="8.1276533"><ele>184.0</ele><time>2026-04-12T11:38:54.875Z</time></trkpt><trkpt lat="45.1534467" lon="8.12783"><ele>182.2</ele><time>2026-04-12T11:38:55.876Z</time></trkpt><trkpt lat="45.1534383" lon="8.127995"><ele>180.39999999999998</ele><time>2026-04-12T11:38:56.876Z</time></trkpt><trkpt lat="45.153435" lon="8.1281517"><ele>178.6</ele><time>2026-04-12T11:38:57.876Z</time></trkpt><trkpt lat="45.153435" lon="8.1283"><ele>176.8</ele><time>2026-04-12T11:38:58.875Z</time></trkpt><trkpt lat="45.1534383" lon="8.1284233"><ele>175.0</ele><time>2026-04-12T11:38:59.875Z</time></trkpt><trkpt lat="45.15344" lon="8.1285367"><ele>173.8</ele><time>2026-04-12T11:39:00.876Z</time></trkpt><trkpt lat="45.15347" lon="8.128715"><ele>172.6</ele><time>2026-04-12T11:39:02.876Z</time></trkpt><trkpt lat="45.1535083" lon="8.1287967"><ele>171.39999999999998</ele><time>2026-04-12T11:39:03.876Z</time></trkpt><trkpt lat="45.1535683" lon="8.1288817"><ele>170.2</ele><time>2026-04-12T11:39:04.876Z</time></trkpt><trkpt lat="45.15364" lon="8.1289633"><ele>169.0</ele><time>2026-04-12T11:39:05.876Z</time></trkpt><trkpt lat="45.1537167" lon="8.1290467"><ele>167.75</ele><time>2026-04-12T11:39:06.876Z</time></trkpt><trkpt lat="45.1538" lon="8.1291433"><ele>166.5</ele><time>2026-04-12T11:39:07.875Z</time></trkpt><trkpt lat="45.1538867" lon="8.1292383"><ele>165.25</ele><time>2026-04-12T11:39:08.875Z</time></trkpt><trkpt lat="45.153985" lon="8.129335"><ele>164.0</ele><time>2026-04-12T11:39:09.875Z</time></trkpt><trkpt lat="45.154085" lon="8.12944"><ele>164.0</ele><time>2026-04-12T11:39:10.875Z</time></trkpt><trkpt lat="45.15418" lon="8.1295283"><ele>164.0</ele><time>2026-04-12T11:39:11.876Z</time></trkpt><trkpt lat="45.1542683" lon="8.1296317"><ele>164.0</ele><time>2026-04-12T11:39:12.876Z</time></trkpt><trkpt lat="45.1543617" lon="8.1297317"><ele>164.0</ele><time>2026-04-12T11:39:13.875Z</time></trkpt><trkpt lat="45.15447" lon="8.1298367"><ele>163.75</ele><time>2026-04-12T11:39:14.875Z</time></trkpt><trkpt lat="45.1545867" lon="8.1299217"><ele>163.5</ele><time>2026-04-12T11:39:15.875Z</time></trkpt><trkpt lat="45.1547217" lon="8.129985"><ele>163.25</ele><time>2026-04-12T11:39:16.876Z</time></trkpt><trkpt lat="45.1548533" lon="8.13005"><ele>163.0</ele><time>2026-04-12T11:39:17.875Z</time></trkpt><trkpt lat="45.1549883" lon="8.1301333"><ele>163.0</ele><time>2026-04-12T11:39:18.876Z</time></trkpt><trkpt lat="45.15512" lon="8.1302283"><ele>163.0</ele><time>2026-04-12T11:39:19.875Z</time></trkpt><trkpt lat="45.1552583" lon="8.13032"><ele>163.0</ele><time>2026-04-12T11:39:20.876Z</time></trkpt><trkpt lat="45.1554" lon="8.1304017"><ele>163.0</ele><time>2026-04-12T11:39:21.875Z</time></trkpt><trkpt lat="45.1555433" lon="8.1305033"><ele>163.0</ele><time>2026-04-12T11:39:22.875Z</time></trkpt><trkpt lat="45.1556767" lon="8.130595"><ele>163.0</ele><time>2026-04-12T11:39:23.876Z</time></trkpt><trkpt lat="45.1558183" lon="8.130655"><ele>164.0</ele><time>2026-04-12T11:39:24.876Z</time></trkpt><trkpt lat="45.15597" lon="8.130715"><ele>165.0</ele><time>2026-04-12T11:39:25.876Z</time></trkpt><trkpt lat="45.1561067" lon="8.1307733"><ele>166.0</ele><time>2026-04-12T11:39:26.875Z</time></trkpt><trkpt lat="45.1562483" lon="8.1308217"><ele>167.0</ele><time>2026-04-12T11:39:27.875Z</time></trkpt><trkpt lat="45.15638" lon="8.1308767"><ele>166.0</ele><time>2026-04-12T11:39:28.876Z</time></trkpt><trkpt lat="45.156515" lon="8.1309217"><ele>165.0</ele><time>2026-04-12T11:39:29.875Z</time></trkpt><trkpt lat="45.156645" lon="8.13097"><ele>164.0</ele><time>2026-04-12T11:39:30.875Z</time></trkpt><trkpt lat="45.156775" lon="8.1310067"><ele>163.0</ele><time>2026-04-12T11:39:31.876Z</time></trkpt><trkpt lat="45.1569183" lon="8.13104"><ele>163.0</ele><time>2026-04-12T11:39:32.875Z</time></trkpt><trkpt lat="45.15707" lon="8.13107"><ele>163.0</ele><time>2026-04-12T11:39:33.875Z</time></trkpt><trkpt lat="45.1572217" lon="8.1310867"><ele>163.0</ele><time>2026-04-12T11:39:34.875Z</time></trkpt><trkpt lat="45.157365" lon="8.1311083"><ele>163.0</ele><time>2026-04-12T11:39:35.875Z</time></trkpt><trkpt lat="45.1575067" lon="8.1311333"><ele>162.0</ele><time>2026-04-12T11:39:36.875Z</time></trkpt><trkpt lat="45.15764" lon="8.1311567"><ele>161.0</ele><time>2026-04-12T11:39:37.875Z</time></trkpt><trkpt lat="45.1577783" lon="8.1311967"><ele>160.0</ele><time>2026-04-12T11:39:38.876Z</time></trkpt><trkpt lat="45.1579167" lon="8.1312317"><ele>159.0</ele><time>2026-04-12T11:39:39.875Z</time></trkpt><trkpt lat="45.1580567" lon="8.1312917"><ele>159.0</ele><time>2026-04-12T11:39:40.876Z</time></trkpt><trkpt lat="45.158195" lon="8.131345"><ele>159.0</ele><time>2026-04-12T11:39:41.876Z</time></trkpt><trkpt lat="45.15833" lon="8.131385"><ele>159.0</ele><time>2026-04-12T11:39:42.876Z</time></trkpt><trkpt lat="45.1584667" lon="8.1314117"><ele>159.0</ele><time>2026-04-12T11:39:43.875Z</time></trkpt><trkpt lat="45.1586017" lon="8.1314467"><ele>158.5</ele><time>2026-04-12T11:39:44.876Z</time></trkpt><trkpt lat="45.158735" lon="8.13149"><ele>158.0</ele><time>2026-04-12T11:39:45.876Z</time></trkpt><trkpt lat="45.1588683" lon="8.1315617"><ele>157.5</ele><time>2026-04-12T11:39:46.875Z</time></trkpt><trkpt lat="45.1589983" lon="8.131665"><ele>157.0</ele><time>2026-04-12T11:39:47.876Z</time></trkpt><trkpt lat="45.159135" lon="8.1317767"><ele>156.25</ele><time>2026-04-12T11:39:48.875Z</time></trkpt><trkpt lat="45.159255" lon="8.131885"><ele>155.5</ele><time>2026-04-12T11:39:49.875Z</time></trkpt><trkpt lat="45.15938" lon="8.1319783"><ele>154.75</ele><time>2026-04-12T11:39:50.875Z</time></trkpt><trkpt lat="45.1595067" lon="8.1320733"><ele>154.0</ele><time>2026-04-12T11:39:51.875Z</time></trkpt><trkpt lat="45.1596517" lon="8.1321217"><ele>154.0</ele><time>2026-04-12T11:39:52.875Z</time></trkpt><trkpt lat="45.1597833" lon="8.1321883"><ele>154.0</ele><time>2026-04-12T11:39:53.875Z</time></trkpt><trkpt lat="45.15991" lon="8.1322583"><ele>154.0</ele><time>2026-04-12T11:39:54.875Z</time></trkpt><trkpt lat="45.160035" lon="8.13231"><ele>154.0</ele><time>2026-04-12T11:39:55.876Z</time></trkpt><trkpt lat="45.160165" lon="8.1323567"><ele>152.25</ele><time>2026-04-12T11:39:56.876Z</time></trkpt><trkpt lat="45.16029" lon="8.13243"><ele>150.5</ele><time>2026-04-12T11:39:57.875Z</time></trkpt><trkpt lat="45.1604167" lon="8.1324983"><ele>148.75</ele><time>2026-04-12T11:39:58.875Z</time></trkpt><trkpt lat="45.160535" lon="8.1325717"><ele>147.0</ele><time>2026-04-12T11:39:59.875Z</time></trkpt><trkpt lat="45.1606433" lon="8.1326367"><ele>147.16666666666666</ele><time>2026-04-12T11:40:00.876Z</time></trkpt><trkpt lat="45.1607417" lon="8.1327017"><ele>147.33333333333334</ele><time>2026-04-12T11:40:01.876Z</time></trkpt><trkpt lat="45.1608333" lon="8.1327517"><ele>147.5</ele><time>2026-04-12T11:40:02.875Z</time></trkpt><trkpt lat="45.1609067" lon="8.1328067"><ele>147.66666666666669</ele><time>2026-04-12T11:40:03.875Z</time></trkpt><trkpt lat="45.16096" lon="8.1328583"><ele>147.83333333333334</ele><time>2026-04-12T11:40:04.875Z</time></trkpt><trkpt lat="45.1610167" lon="8.1329333"><ele>148.0</ele><time>2026-04-12T11:40:06.875Z</time></trkpt><trkpt lat="45.1610467" lon="8.13304"><ele>148.0</ele><time>2026-04-12T11:40:49.876Z</time></trkpt><trkpt lat="45.1611083" lon="8.1330667"><ele>148.0</ele><time>2026-04-12T11:40:53.876Z</time></trkpt><trkpt lat="45.16106" lon="8.1329983"><ele>148.0</ele><time>2026-04-12T11:40:56.875Z</time></trkpt><trkpt lat="45.1610033" lon="8.132955"><ele>148.0</ele><time>2026-04-12T11:40:59.875Z</time></trkpt></trkseg><trkseg><trkpt lat="45.160965" lon="8.1328467"><ele>148.0</ele><time>2026-04-12T11:56:19.875Z</time></trkpt><trkpt lat="45.16091" lon="8.132785"><ele>148.0</ele><time>2026-04-12T11:56:20.875Z</time></trkpt><trkpt lat="45.16084" lon="8.1327383"><ele>148.0</ele><time>2026-04-12T11:56:21.875Z</time></trkpt><trkpt lat="45.16077" lon="8.1326917"><ele>148.0</ele><time>2026-04-12T11:56:22.875Z</time></trkpt><trkpt lat="45.1607017" lon="8.13265"><ele>148.0</ele><time>2026-04-12T11:56:23.876Z</time></trkpt><trkpt lat="45.16063" lon="8.13261"><ele>148.0</ele><time>2026-04-12T11:56:24.875Z</time></trkpt><trkpt lat="45.160545" lon="8.1325717"><ele>148.0</ele><time>2026-04-12T11:56:25.875Z</time></trkpt><trkpt lat="45.1604567" lon="8.132535"><ele>148.0</ele><time>2026-04-12T11:56:26.876Z</time></trkpt><trkpt lat="45.16037" lon="8.1324867"><ele>148.0</ele><time>2026-04-12T11:56:27.875Z</time></trkpt><trkpt lat="45.1602833" lon="8.1324417"><ele>148.0</ele><time>2026-04-12T11:56:28.876Z</time></trkpt><trkpt lat="45.1601867" lon="8.1323967"><ele>148.0</ele><time>2026-04-12T11:56:29.875Z</time></trkpt><trkpt lat="45.1601" lon="8.13235"><ele>148.0</ele><time>2026-04-12T11:56:30.876Z</time></trkpt><trkpt lat="45.1600133" lon="8.1323067"><ele>148.0</ele><time>2026-04-12T11:56:31.875Z</time></trkpt><trkpt lat="45.1599317" lon="8.132265"><ele>148.0</ele><time>2026-04-12T11:56:32.875Z</time></trkpt><trkpt lat="45.159845" lon="8.1322233"><ele>148.0</ele><time>2026-04-12T11:56:33.875Z</time></trkpt><trkpt lat="45.1597583" lon="8.1321817"><ele>148.0</ele><time>2026-04-12T11:56:34.875Z</time></trkpt><trkpt lat="45.1596583" lon="8.1321317"><ele>149.5</ele><time>2026-04-12T11:56:35.875Z</time></trkpt><trkpt lat="45.1595517" lon="8.1320633"><ele>151.0</ele><time>2026-04-12T11:56:36.875Z</time></trkpt><trkpt lat="45.159445" lon="8.132"><ele>152.5</ele><time>2026-04-12T11:56:37.876Z</time></trkpt><trkpt lat="45.1593317" lon="8.1319383"><ele>154.0</ele><time>2026-04-12T11:56:38.875Z</time></trkpt><trkpt lat="45.1592133" lon="8.1318633"><ele>154.0</ele><time>2026-04-12T11:56:39.876Z</time></trkpt><trkpt lat="45.159095" lon="8.1317817"><ele>154.0</ele><time>2026-04-12T11:56:40.876Z</time></trkpt><trkpt lat="45.158995" lon="8.1316867"><ele>154.0</ele><time>2026-04-12T11:56:41.876Z</time></trkpt><trkpt lat="45.1588983" lon="8.1315967"><ele>154.0</ele><time>2026-04-12T11:56:42.875Z</time></trkpt><trkpt lat="45.1587967" lon="8.1315167"><ele>154.75</ele><time>2026-04-12T11:56:43.876Z</time></trkpt><trkpt lat="45.1586833" lon="8.13145"><ele>155.5</ele><time>2026-04-12T11:56:44.875Z</time></trkpt><trkpt lat="45.158565" lon="8.1314017"><ele>156.25</ele><time>2026-04-12T11:56:45.875Z</time></trkpt><trkpt lat="45.1584367" lon="8.13136"><ele>157.0</ele><time>2026-04-12T11:56:46.876Z</time></trkpt><trkpt lat="45.1583167" lon="8.1313433"><ele>157.5</ele><time>2026-04-12T11:56:47.876Z</time></trkpt><trkpt lat="45.1581967" lon="8.1313017"><ele>158.0</ele><time>2026-04-12T11:56:48.876Z</time></trkpt><trkpt lat="45.15808" lon="8.1312567"><ele>158.5</ele><time>2026-04-12T11:56:49.875Z</time></trkpt><trkpt lat="45.1579667" lon="8.13121"><ele>159.0</ele><time>2026-04-12T11:56:50.875Z</time></trkpt><trkpt lat="45.1578367" lon="8.1311783"><ele>159.0</ele><time>2026-04-12T11:56:51.876Z</time></trkpt><trkpt lat="45.157705" lon="8.1311433"><ele>159.0</ele><time>2026-04-12T11:56:52.875Z</time></trkpt><trkpt lat="45.1575633" lon="8.1311117"><ele>159.0</ele><time>2026-04-12T11:56:53.875Z</time></trkpt><trkpt lat="45.1574233" lon="8.1310917"><ele>159.0</ele><time>2026-04-12T11:56:54.875Z</time></trkpt><trkpt lat="45.157285" lon="8.131065"><ele>160.0</ele><time>2026-04-12T11:56:55.875Z</time></trkpt><trkpt lat="45.1571467" lon="8.131035"><ele>161.0</ele><time>2026-04-12T11:56:56.876Z</time></trkpt><trkpt lat="45.1570083" lon="8.1310167"><ele>162.0</ele><time>2026-04-12T11:56:57.875Z</time></trkpt><trkpt lat="45.15688" lon="8.1309933"><ele>163.0</ele><time>2026-04-12T11:56:58.875Z</time></trkpt><trkpt lat="45.1567367" lon="8.130975"><ele>163.0</ele><time>2026-04-12T11:56:59.875Z</time></trkpt><trkpt lat="45.1566133" lon="8.1309433"><ele>163.0</ele><time>2026-04-12T11:57:00.876Z</time></trkpt><trkpt lat="45.1564833" lon="8.1308967"><ele>163.0</ele><time>2026-04-12T11:57:01.875Z</time></trkpt><trkpt lat="45.1563583" lon="8.1308617"><ele>163.0</ele><time>2026-04-12T11:57:02.875Z</time></trkpt><trkpt lat="45.156215" lon="8.130815"><ele>163.0</ele><time>2026-04-12T11:57:03.876Z</time></trkpt><trkpt lat="45.1560733" lon="8.1307617"><ele>163.0</ele><time>2026-04-12T11:57:04.875Z</time></trkpt><trkpt lat="45.15593" lon="8.1307067"><ele>163.0</ele><time>2026-04-12T11:57:05.875Z</time></trkpt><trkpt lat="45.155795" lon="8.1306333"><ele>163.0</ele><time>2026-04-12T11:57:06.875Z</time></trkpt><trkpt lat="45.1556583" lon="8.1305667"><ele>163.0</ele><time>2026-04-12T11:57:07.876Z</time></trkpt><trkpt lat="45.155525" lon="8.1304917"><ele>163.0</ele><time>2026-04-12T11:57:08.876Z</time></trkpt><trkpt lat="45.155385" lon="8.1304117"><ele>163.0</ele><time>2026-04-12T11:57:09.875Z</time></trkpt><trkpt lat="45.1552533" lon="8.1303183"><ele>163.0</ele><time>2026-04-12T11:57:10.876Z</time></trkpt><trkpt lat="45.155125" lon="8.130225"><ele>163.0</ele><time>2026-04-12T11:57:11.876Z</time></trkpt><trkpt lat="45.155005" lon="8.13015"><ele>163.0</ele><time>2026-04-12T11:57:12.876Z</time></trkpt><trkpt lat="45.1548833" lon="8.13007"><ele>163.0</ele><time>2026-04-12T11:57:13.875Z</time></trkpt><trkpt lat="45.1547617" lon="8.1299983"><ele>163.0</ele><time>2026-04-12T11:57:14.875Z</time></trkpt><trkpt lat="45.1546367" lon="8.1299317"><ele>163.25</ele><time>2026-04-12T11:57:15.875Z</time></trkpt><trkpt lat="45.1545117" lon="8.1298633"><ele>163.5</ele><time>2026-04-12T11:57:16.876Z</time></trkpt><trkpt lat="45.1544" lon="8.1297683"><ele>163.75</ele><time>2026-04-12T11:57:17.875Z</time></trkpt><trkpt lat="45.1542933" lon="8.1296617"><ele>164.0</ele><time>2026-04-12T11:57:18.875Z</time></trkpt><trkpt lat="45.15419" lon="8.12954"><ele>164.0</ele><time>2026-04-12T11:57:19.876Z</time></trkpt><trkpt lat="45.1540933" lon="8.1294283"><ele>164.0</ele><time>2026-04-12T11:57:20.875Z</time></trkpt><trkpt lat="45.1540033" lon="8.129325"><ele>164.0</ele><time>2026-04-12T11:57:21.875Z</time></trkpt><trkpt lat="45.1539133" lon="8.12923"><ele>164.0</ele><time>2026-04-12T11:57:22.876Z</time></trkpt><trkpt lat="45.1538317" lon="8.129135"><ele>164.83333333333331</ele><time>2026-04-12T11:57:23.875Z</time></trkpt><trkpt lat="45.1537583" lon="8.12905"><ele>165.66666666666666</ele><time>2026-04-12T11:57:24.876Z</time></trkpt><trkpt lat="45.1536933" lon="8.1289783"><ele>166.5</ele><time>2026-04-12T11:57:25.875Z</time></trkpt><trkpt lat="45.153635" lon="8.12891"><ele>167.33333333333334</ele><time>2026-04-12T11:57:26.876Z</time></trkpt><trkpt lat="45.1535733" lon="8.12889"><ele>168.16666666666669</ele><time>2026-04-12T11:57:27.875Z</time></trkpt><trkpt lat="45.1534533" lon="8.1288883"><ele>169.0</ele><time>2026-04-12T11:57:29.875Z</time></trkpt><trkpt lat="45.15338" lon="8.1288783"><ele>169.0</ele><time>2026-04-12T11:57:30.876Z</time></trkpt><trkpt lat="45.1533" lon="8.1288667"><ele>169.0</ele><time>2026-04-12T11:57:31.875Z</time></trkpt><trkpt lat="45.153205" lon="8.1288433"><ele>169.0</ele><time>2026-04-12T11:57:32.875Z</time></trkpt><trkpt lat="45.1531033" lon="8.1288183"><ele>169.0</ele><time>2026-04-12T11:57:33.875Z</time></trkpt><trkpt lat="45.152995" lon="8.1288"><ele>169.0</ele><time>2026-04-12T11:57:34.876Z</time></trkpt><trkpt lat="45.152885" lon="8.12879"><ele>170.79999999999998</ele><time>2026-04-12T11:57:35.875Z</time></trkpt><trkpt lat="45.15277" lon="8.1287833"><ele>172.6</ele><time>2026-04-12T11:57:36.875Z</time></trkpt><trkpt lat="45.15265" lon="8.1288067"><ele>174.4</ele><time>2026-04-12T11:57:37.875Z</time></trkpt><trkpt lat="45.15255" lon="8.1288567"><ele>176.2</ele><time>2026-04-12T11:57:38.876Z</time></trkpt><trkpt lat="45.1524733" lon="8.128945"><ele>178.0</ele><time>2026-04-12T11:57:39.875Z</time></trkpt><trkpt lat="45.1524017" lon="8.129045"><ele>174.0</ele><time>2026-04-12T11:57:40.875Z</time></trkpt><trkpt lat="45.152325" lon="8.1291467"><ele>170.0</ele><time>2026-04-12T11:57:41.876Z</time></trkpt><trkpt lat="45.15222" lon="8.1292"><ele>166.0</ele><time>2026-04-12T11:57:42.875Z</time></trkpt><trkpt lat="45.152105" lon="8.1291917"><ele>162.0</ele><time>2026-04-12T11:57:43.876Z</time></trkpt><trkpt lat="45.1519933" lon="8.1291333"><ele>164.75</ele><time>2026-04-12T11:57:44.876Z</time></trkpt><trkpt lat="45.151895" lon="8.1290417"><ele>167.5</ele><time>2026-04-12T11:57:45.875Z</time></trkpt><trkpt lat="45.1518067" lon="8.1289333"><ele>170.25</ele><time>2026-04-12T11:57:46.876Z</time></trkpt><trkpt lat="45.1517033" lon="8.1288183"><ele>173.0</ele><time>2026-04-12T11:57:47.875Z</time></trkpt><trkpt lat="45.1516017" lon="8.1287133"><ele>173.5</ele><time>2026-04-12T11:57:48.876Z</time></trkpt><trkpt lat="45.1515017" lon="8.128625"><ele>174.0</ele><time>2026-04-12T11:57:49.876Z</time></trkpt><trkpt lat="45.15139" lon="8.1285367"><ele>174.5</ele><time>2026-04-12T11:57:50.876Z</time></trkpt><trkpt lat="45.1512667" lon="8.1284967"><ele>175.0</ele><time>2026-04-12T11:57:51.875Z</time></trkpt><trkpt lat="45.15115" lon="8.1284967"><ele>175.0</ele><time>2026-04-12T11:57:52.875Z</time></trkpt><trkpt lat="45.1510267" lon="8.1285267"><ele>175.0</ele><time>2026-04-12T11:57:53.876Z</time></trkpt><trkpt lat="45.1508917" lon="8.1285717"><ele>175.0</ele><time>2026-04-12T11:57:54.875Z</time></trkpt><trkpt lat="45.1507733" lon="8.1286167"><ele>175.0</ele><time>2026-04-12T11:57:55.876Z</time></trkpt><trkpt lat="45.1506567" lon="8.12863"><ele>176.0</ele><time>2026-04-12T11:57:56.875Z</time></trkpt><trkpt lat="45.15054" lon="8.1286133"><ele>177.0</ele><time>2026-04-12T11:57:57.874Z</time></trkpt><trkpt lat="45.150425" lon="8.1285883"><ele>178.0</ele><time>2026-04-12T11:57:58.874Z</time></trkpt><trkpt lat="45.1503133" lon="8.12853"><ele>179.0</ele><time>2026-04-12T11:57:59.875Z</time></trkpt><trkpt lat="45.1502017" lon="8.1284783"><ele>179.0</ele><time>2026-04-12T11:58:00.874Z</time></trkpt><trkpt lat="45.1500833" lon="8.1284217"><ele>179.0</ele><time>2026-04-12T11:58:01.875Z</time></trkpt><trkpt lat="45.14996" lon="8.128365"><ele>179.0</ele><time>2026-04-12T11:58:02.874Z</time></trkpt><trkpt lat="45.1498333" lon="8.1283567"><ele>179.0</ele><time>2026-04-12T11:58:03.874Z</time></trkpt><trkpt lat="45.1497033" lon="8.1283867"><ele>179.5</ele><time>2026-04-12T11:58:04.875Z</time></trkpt><trkpt lat="45.1495917" lon="8.128425"><ele>180.0</ele><time>2026-04-12T11:58:05.875Z</time></trkpt><trkpt lat="45.1494767" lon="8.1284617"><ele>180.5</ele><time>2026-04-12T11:58:06.874Z</time></trkpt><trkpt lat="45.1493483" lon="8.1284767"><ele>181.0</ele><time>2026-04-12T11:58:07.875Z</time></trkpt><trkpt lat="45.1492267" lon="8.1284533"><ele>181.0</ele><time>2026-04-12T11:58:08.874Z</time></trkpt><trkpt lat="45.1491033" lon="8.1283883"><ele>181.0</ele><time>2026-04-12T11:58:09.874Z</time></trkpt><trkpt lat="45.1489983" lon="8.1283083"><ele>181.0</ele><time>2026-04-12T11:58:10.874Z</time></trkpt><trkpt lat="45.1488917" lon="8.12823"><ele>181.0</ele><time>2026-04-12T11:58:11.874Z</time></trkpt><trkpt lat="45.1487833" lon="8.1281583"><ele>185.25</ele><time>2026-04-12T11:58:12.875Z</time></trkpt><trkpt lat="45.1486633" lon="8.12812"><ele>189.5</ele><time>2026-04-12T11:58:13.874Z</time></trkpt><trkpt lat="45.14854" lon="8.1281067"><ele>193.75</ele><time>2026-04-12T11:58:14.874Z</time></trkpt><trkpt lat="45.1484167" lon="8.1281233"><ele>198.0</ele><time>2026-04-12T11:58:15.874Z</time></trkpt><trkpt lat="45.148295" lon="8.1281217"><ele>196.0</ele><time>2026-04-12T11:58:16.874Z</time></trkpt><trkpt lat="45.1481633" lon="8.1281"><ele>194.0</ele><time>2026-04-12T11:58:17.874Z</time></trkpt><trkpt lat="45.1480233" lon="8.1280783"><ele>192.0</ele><time>2026-04-12T11:58:18.875Z</time></trkpt><trkpt lat="45.1478783" lon="8.12805"><ele>190.0</ele><time>2026-04-12T11:58:19.874Z</time></trkpt><trkpt lat="45.1477317" lon="8.12804"><ele>190.0</ele><time>2026-04-12T11:58:20.875Z</time></trkpt><trkpt lat="45.14758" lon="8.12806"><ele>190.0</ele><time>2026-04-12T11:58:21.875Z</time></trkpt><trkpt lat="45.1474333" lon="8.128075"><ele>190.0</ele><time>2026-04-12T11:58:22.874Z</time></trkpt><trkpt lat="45.147285" lon="8.1280867"><ele>190.0</ele><time>2026-04-12T11:58:23.874Z</time></trkpt><trkpt lat="45.1471433" lon="8.1280733"><ele>188.25</ele><time>2026-04-12T11:58:24.874Z</time></trkpt><trkpt lat="45.147005" lon="8.1280567"><ele>186.5</ele><time>2026-04-12T11:58:25.875Z</time></trkpt><trkpt lat="45.1468517" lon="8.12803"><ele>184.75</ele><time>2026-04-12T11:58:26.874Z</time></trkpt><trkpt lat="45.1466967" lon="8.128015"><ele>183.0</ele><time>2026-04-12T11:58:27.874Z</time></trkpt><trkpt lat="45.1465467" lon="8.1280317"><ele>181.5</ele><time>2026-04-12T11:58:28.874Z</time></trkpt><trkpt lat="45.1463833" lon="8.12807"><ele>180.0</ele><time>2026-04-12T11:58:29.875Z</time></trkpt><trkpt lat="45.1462417" lon="8.1281133"><ele>178.5</ele><time>2026-04-12T11:58:30.874Z</time></trkpt><trkpt lat="45.14612" lon="8.12815"><ele>177.0</ele><time>2026-04-12T11:58:31.874Z</time></trkpt><trkpt lat="45.146015" lon="8.1281867"><ele>177.0</ele><time>2026-04-12T11:58:32.875Z</time></trkpt><trkpt lat="45.145905" lon="8.1282117"><ele>177.0</ele><time>2026-04-12T11:58:33.875Z</time></trkpt><trkpt lat="45.1457817" lon="8.1282067"><ele>177.0</ele><time>2026-04-12T11:58:34.874Z</time></trkpt><trkpt lat="45.14565" lon="8.1281667"><ele>177.0</ele><time>2026-04-12T11:58:35.874Z</time></trkpt><trkpt lat="45.1455383" lon="8.1280867"><ele>176.25</ele><time>2026-04-12T11:58:36.874Z</time></trkpt><trkpt lat="45.1454267" lon="8.12799"><ele>175.5</ele><time>2026-04-12T11:58:37.874Z</time></trkpt><trkpt lat="45.1453083" lon="8.127885"><ele>174.75</ele><time>2026-04-12T11:58:38.875Z</time></trkpt><trkpt lat="45.1451783" lon="8.127795"><ele>174.0</ele><time>2026-04-12T11:58:39.875Z</time></trkpt><trkpt lat="45.145055" lon="8.12769"><ele>174.0</ele><time>2026-04-12T11:58:40.875Z</time></trkpt><trkpt lat="45.1449317" lon="8.1275867"><ele>174.0</ele><time>2026-04-12T11:58:41.875Z</time></trkpt><trkpt lat="45.1448033" lon="8.1274717"><ele>174.0</ele><time>2026-04-12T11:58:42.875Z</time></trkpt><trkpt lat="45.144665" lon="8.1273667"><ele>175.0</ele><time>2026-04-12T11:58:43.874Z</time></trkpt><trkpt lat="45.1445317" lon="8.1272567"><ele>176.0</ele><time>2026-04-12T11:58:44.875Z</time></trkpt><trkpt lat="45.1444" lon="8.127155"><ele>177.0</ele><time>2026-04-12T11:58:45.875Z</time></trkpt><trkpt lat="45.1442817" lon="8.1270633"><ele>178.0</ele><time>2026-04-12T11:58:46.874Z</time></trkpt><trkpt lat="45.14417" lon="8.1269783"><ele>178.0</ele><time>2026-04-12T11:58:47.875Z</time></trkpt><trkpt lat="45.1440733" lon="8.1268983"><ele>178.0</ele><time>2026-04-12T11:58:48.875Z</time></trkpt><trkpt lat="45.1439883" lon="8.1268133"><ele>178.0</ele><time>2026-04-12T11:58:49.874Z</time></trkpt><trkpt lat="45.143905" lon="8.126735"><ele>178.0</ele><time>2026-04-12T11:58:50.874Z</time></trkpt><trkpt lat="45.1438217" lon="8.1266617"><ele>178.0</ele><time>2026-04-12T11:58:51.874Z</time></trkpt><trkpt lat="45.1437317" lon="8.126595"><ele>179.5</ele><time>2026-04-12T11:58:52.875Z</time></trkpt><trkpt lat="45.1436383" lon="8.1265283"><ele>181.0</ele><time>2026-04-12T11:58:53.874Z</time></trkpt><trkpt lat="45.14354" lon="8.1264517"><ele>182.5</ele><time>2026-04-12T11:58:54.874Z</time></trkpt><trkpt lat="45.143435" lon="8.1263683"><ele>184.0</ele><time>2026-04-12T11:58:55.875Z</time></trkpt><trkpt lat="45.1433183" lon="8.1262683"><ele>182.25</ele><time>2026-04-12T11:58:56.875Z</time></trkpt><trkpt lat="45.1432033" lon="8.1261633"><ele>180.5</ele><time>2026-04-12T11:58:57.875Z</time></trkpt><trkpt lat="45.143075" lon="8.1260567"><ele>178.75</ele><time>2026-04-12T11:58:58.875Z</time></trkpt><trkpt lat="45.14295" lon="8.125935"><ele>177.0</ele><time>2026-04-12T11:58:59.874Z</time></trkpt><trkpt lat="45.1428267" lon="8.1258167"><ele>178.66666666666666</ele><time>2026-04-12T11:59:00.874Z</time></trkpt><trkpt lat="45.142695" lon="8.1257033"><ele>180.33333333333331</ele><time>2026-04-12T11:59:01.874Z</time></trkpt><trkpt lat="45.1425533" lon="8.125605"><ele>182.0</ele><time>2026-04-12T11:59:02.874Z</time></trkpt><trkpt lat="45.1424" lon="8.12553"><ele>181.33333333333331</ele><time>2026-04-12T11:59:03.875Z</time></trkpt><trkpt lat="45.1422417" lon="8.1254767"><ele>180.66666666666666</ele><time>2026-04-12T11:59:04.874Z</time></trkpt><trkpt lat="45.1420783" lon="8.125445"><ele>180.0</ele><time>2026-04-12T11:59:05.875Z</time></trkpt><trkpt lat="45.1419233" lon="8.12541"><ele>180.0</ele><time>2026-04-12T11:59:06.874Z</time></trkpt><trkpt lat="45.1417617" lon="8.1253817"><ele>180.0</ele><time>2026-04-12T11:59:07.874Z</time></trkpt><trkpt lat="45.1416017" lon="8.1253633"><ele>180.0</ele><time>2026-04-12T11:59:08.874Z</time></trkpt><trkpt lat="45.141445" lon="8.1253567"><ele>180.0</ele><time>2026-04-12T11:59:09.875Z</time></trkpt><trkpt lat="45.1412817" lon="8.12534"><ele>180.0</ele><time>2026-04-12T11:59:10.874Z</time></trkpt><trkpt lat="45.1411167" lon="8.125315"><ele>180.0</ele><time>2026-04-12T11:59:11.875Z</time></trkpt><trkpt lat="45.140965" lon="8.12528"><ele>180.0</ele><time>2026-04-12T11:59:12.874Z</time></trkpt><trkpt lat="45.1408167" lon="8.12525"><ele>180.0</ele><time>2026-04-12T11:59:13.874Z</time></trkpt><trkpt lat="45.1406667" lon="8.1252233"><ele>180.0</ele><time>2026-04-12T11:59:14.874Z</time></trkpt><trkpt lat="45.1405217" lon="8.125195"><ele>180.0</ele><time>2026-04-12T11:59:15.875Z</time></trkpt><trkpt lat="45.1403683" lon="8.1251517"><ele>180.33333333333334</ele><time>2026-04-12T11:59:16.874Z</time></trkpt><trkpt lat="45.140215" lon="8.1251117"><ele>180.66666666666669</ele><time>2026-04-12T11:59:17.875Z</time></trkpt><trkpt lat="45.140065" lon="8.1250567"><ele>181.0</ele><time>2026-04-12T11:59:18.874Z</time></trkpt><trkpt lat="45.1399233" lon="8.1249867"><ele>181.0</ele><time>2026-04-12T11:59:19.875Z</time></trkpt><trkpt lat="45.1397767" lon="8.1249117"><ele>181.0</ele><time>2026-04-12T11:59:20.875Z</time></trkpt><trkpt lat="45.13964" lon="8.1248267"><ele>181.0</ele><time>2026-04-12T11:59:21.874Z</time></trkpt><trkpt lat="45.1395" lon="8.1247317"><ele>183.33333333333334</ele><time>2026-04-12T11:59:22.874Z</time></trkpt><trkpt lat="45.1393683" lon="8.1246167"><ele>185.66666666666666</ele><time>2026-04-12T11:59:23.874Z</time></trkpt><trkpt lat="45.1392317" lon="8.1245"><ele>188.0</ele><time>2026-04-12T11:59:24.874Z</time></trkpt><trkpt lat="45.1391017" lon="8.1243817"><ele>188.0</ele><time>2026-04-12T11:59:25.874Z</time></trkpt><trkpt lat="45.13897" lon="8.1242617"><ele>188.0</ele><time>2026-04-12T11:59:26.874Z</time></trkpt><trkpt lat="45.1388417" lon="8.1241467"><ele>188.0</ele><time>2026-04-12T11:59:27.874Z</time></trkpt><trkpt lat="45.13871" lon="8.1240317"><ele>190.33333333333331</ele><time>2026-04-12T11:59:28.874Z</time></trkpt><trkpt lat="45.1385717" lon="8.1239283"><ele>192.66666666666666</ele><time>2026-04-12T11:59:29.874Z</time></trkpt><trkpt lat="45.1384433" lon="8.1238217"><ele>195.0</ele><time>2026-04-12T11:59:30.875Z</time></trkpt><trkpt lat="45.138335" lon="8.1236817"><ele>195.0</ele><time>2026-04-12T11:59:31.874Z</time></trkpt><trkpt lat="45.138245" lon="8.1235433"><ele>195.0</ele><time>2026-04-12T11:59:32.875Z</time></trkpt><trkpt lat="45.138165" lon="8.123415"><ele>195.0</ele><time>2026-04-12T11:59:33.874Z</time></trkpt><trkpt lat="45.138105" lon="8.1233017"><ele>195.0</ele><time>2026-04-12T11:59:34.874Z</time></trkpt><trkpt lat="45.1380467" lon="8.1232033"><ele>195.0</ele><time>2026-04-12T11:59:35.874Z</time></trkpt><trkpt lat="45.138" lon="8.1231333"><ele>195.33333333333334</ele><time>2026-04-12T11:59:36.875Z</time></trkpt><trkpt lat="45.13794" lon="8.1230833"><ele>195.66666666666669</ele><time>2026-04-12T11:59:37.875Z</time></trkpt><trkpt lat="45.13787" lon="8.12308"><ele>196.0</ele><time>2026-04-12T11:59:38.875Z</time></trkpt><trkpt lat="45.137795" lon="8.1231183"><ele>196.33333333333334</ele><time>2026-04-12T11:59:39.874Z</time></trkpt><trkpt lat="45.1377067" lon="8.1231867"><ele>196.66666666666669</ele><time>2026-04-12T11:59:40.874Z</time></trkpt><trkpt lat="45.137595" lon="8.1232617"><ele>197.0</ele><time>2026-04-12T11:59:41.874Z</time></trkpt><trkpt lat="45.13748" lon="8.12331"><ele>195.75</ele><time>2026-04-12T11:59:42.874Z</time></trkpt><trkpt lat="45.1373667" lon="8.12334"><ele>194.5</ele><time>2026-04-12T11:59:43.875Z</time></trkpt><trkpt lat="45.1372583" lon="8.12333"><ele>193.25</ele><time>2026-04-12T11:59:44.874Z</time></trkpt><trkpt lat="45.1371533" lon="8.12328"><ele>192.0</ele><time>2026-04-12T11:59:45.875Z</time></trkpt><trkpt lat="45.1370467" lon="8.123205"><ele>192.0</ele><time>2026-04-12T11:59:46.875Z</time></trkpt><trkpt lat="45.1369417" lon="8.1230933"><ele>192.0</ele><time>2026-04-12T11:59:47.874Z</time></trkpt><trkpt lat="45.1368517" lon="8.12295"><ele>192.0</ele><time>2026-04-12T11:59:48.874Z</time></trkpt><trkpt lat="45.1367683" lon="8.1228167"><ele>192.0</ele><time>2026-04-12T11:59:49.875Z</time></trkpt><trkpt lat="45.1366933" lon="8.1227233"><ele>192.0</ele><time>2026-04-12T11:59:50.875Z</time></trkpt><trkpt lat="45.1365883" lon="8.12269"><ele>192.0</ele><time>2026-04-12T11:59:51.874Z</time></trkpt><trkpt lat="45.1364783" lon="8.122695"><ele>192.0</ele><time>2026-04-12T11:59:52.874Z</time></trkpt><trkpt lat="45.1363667" lon="8.1227483"><ele>192.0</ele><time>2026-04-12T11:59:53.874Z</time></trkpt><trkpt lat="45.136265" lon="8.122835"><ele>190.39999999999998</ele><time>2026-04-12T11:59:54.874Z</time></trkpt><trkpt lat="45.1361667" lon="8.1229417"><ele>188.79999999999998</ele><time>2026-04-12T11:59:55.874Z</time></trkpt><trkpt lat="45.1360767" lon="8.123045"><ele>187.2</ele><time>2026-04-12T11:59:56.874Z</time></trkpt><trkpt lat="45.1360033" lon="8.12314"><ele>185.6</ele><time>2026-04-12T11:59:57.874Z</time></trkpt><trkpt lat="45.13594" lon="8.1232433"><ele>184.0</ele><time>2026-04-12T11:59:58.874Z</time></trkpt><trkpt lat="45.1358917" lon="8.123365"><ele>183.0</ele><time>2026-04-12T11:59:59.875Z</time></trkpt><trkpt lat="45.1358767" lon="8.123525"><ele>182.0</ele><time>2026-04-12T12:00:00.875Z</time></trkpt><trkpt lat="45.1359083" lon="8.1237017"><ele>181.0</ele><time>2026-04-12T12:00:01.875Z</time></trkpt><trkpt lat="45.1359617" lon="8.123875"><ele>180.0</ele><time>2026-04-12T12:00:02.874Z</time></trkpt><trkpt lat="45.1360267" lon="8.1240333"><ele>179.8</ele><time>2026-04-12T12:00:03.875Z</time></trkpt><trkpt lat="45.1360833" lon="8.1241833"><ele>179.6</ele><time>2026-04-12T12:00:04.875Z</time></trkpt><trkpt lat="45.136125" lon="8.1243317"><ele>179.39999999999998</ele><time>2026-04-12T12:00:05.874Z</time></trkpt><trkpt lat="45.1361417" lon="8.1244767"><ele>179.2</ele><time>2026-04-12T12:00:06.874Z</time></trkpt><trkpt lat="45.13613" lon="8.124625"><ele>179.0</ele><time>2026-04-12T12:00:07.875Z</time></trkpt><trkpt lat="45.136085" lon="8.1247733"><ele>179.0</ele><time>2026-04-12T12:00:08.875Z</time></trkpt><trkpt lat="45.1360267" lon="8.1249183"><ele>179.0</ele><time>2026-04-12T12:00:09.875Z</time></trkpt><trkpt lat="45.13596" lon="8.1250833"><ele>179.0</ele><time>2026-04-12T12:00:10.874Z</time></trkpt><trkpt lat="45.1358817" lon="8.1252467"><ele>179.0</ele><time>2026-04-12T12:00:11.875Z</time></trkpt><trkpt lat="45.1357767" lon="8.1253717"><ele>182.25</ele><time>2026-04-12T12:00:12.874Z</time></trkpt><trkpt lat="45.1356567" lon="8.1254633"><ele>185.5</ele><time>2026-04-12T12:00:13.874Z</time></trkpt><trkpt lat="45.135525" lon="8.1255367"><ele>188.75</ele><time>2026-04-12T12:00:14.875Z</time></trkpt><trkpt lat="45.135395" lon="8.1256217"><ele>192.0</ele><time>2026-04-12T12:00:15.874Z</time></trkpt><trkpt lat="45.1352733" lon="8.1257083"><ele>190.0</ele><time>2026-04-12T12:00:16.875Z</time></trkpt><trkpt lat="45.1351517" lon="8.125785"><ele>188.0</ele><time>2026-04-12T12:00:17.874Z</time></trkpt><trkpt lat="45.1350383" lon="8.1258467"><ele>186.0</ele><time>2026-04-12T12:00:18.875Z</time></trkpt><trkpt lat="45.13493" lon="8.1258883"><ele>184.0</ele><time>2026-04-12T12:00:19.875Z</time></trkpt><trkpt lat="45.1348217" lon="8.1259483"><ele>188.75</ele><time>2026-04-12T12:00:20.875Z</time></trkpt><trkpt lat="45.1347233" lon="8.1260533"><ele>193.5</ele><time>2026-04-12T12:00:21.874Z</time></trkpt><trkpt lat="45.1346517" lon="8.12618"><ele>198.25</ele><time>2026-04-12T12:00:22.875Z</time></trkpt><trkpt lat="45.1345683" lon="8.1263067"><ele>203.0</ele><time>2026-04-12T12:00:23.875Z</time></trkpt><trkpt lat="45.1344683" lon="8.12643"><ele>203.0</ele><time>2026-04-12T12:00:24.874Z</time></trkpt><trkpt lat="45.1343533" lon="8.126545"><ele>203.0</ele><time>2026-04-12T12:00:25.874Z</time></trkpt><trkpt lat="45.1342317" lon="8.1266417"><ele>203.0</ele><time>2026-04-12T12:00:26.874Z</time></trkpt><trkpt lat="45.1341" lon="8.1267233"><ele>203.0</ele><time>2026-04-12T12:00:27.874Z</time></trkpt><trkpt lat="45.1339583" lon="8.1268067"><ele>200.75</ele><time>2026-04-12T12:00:28.875Z</time></trkpt><trkpt lat="45.133815" lon="8.1268883"><ele>198.5</ele><time>2026-04-12T12:00:29.874Z</time></trkpt><trkpt lat="45.1336767" lon="8.1269517"><ele>196.25</ele><time>2026-04-12T12:00:30.874Z</time></trkpt><trkpt lat="45.1335467" lon="8.1270217"><ele>194.0</ele><time>2026-04-12T12:00:31.875Z</time></trkpt><trkpt lat="45.1334283" lon="8.1271183"><ele>194.0</ele><time>2026-04-12T12:00:32.874Z</time></trkpt><trkpt lat="45.1333233" lon="8.1272083"><ele>194.0</ele><time>2026-04-12T12:00:33.875Z</time></trkpt><trkpt lat="45.1332183" lon="8.1272833"><ele>194.0</ele><time>2026-04-12T12:00:34.874Z</time></trkpt><trkpt lat="45.1331117" lon="8.1273167"><ele>194.0</ele><time>2026-04-12T12:00:35.875Z</time></trkpt><trkpt lat="45.1330017" lon="8.1272817"><ele>195.75</ele><time>2026-04-12T12:00:36.874Z</time></trkpt><trkpt lat="45.1328917" lon="8.1272167"><ele>197.5</ele><time>2026-04-12T12:00:37.875Z</time></trkpt><trkpt lat="45.132775" lon="8.1271383"><ele>199.25</ele><time>2026-04-12T12:00:38.875Z</time></trkpt><trkpt lat="45.132655" lon="8.1270533"><ele>201.0</ele><time>2026-04-12T12:00:39.874Z</time></trkpt><trkpt lat="45.1325233" lon="8.1269883"><ele>201.0</ele><time>2026-04-12T12:00:40.875Z</time></trkpt><trkpt lat="45.13239" lon="8.12697"><ele>201.0</ele><time>2026-04-12T12:00:41.874Z</time></trkpt><trkpt lat="45.13224" lon="8.127005"><ele>201.0</ele><time>2026-04-12T12:00:42.874Z</time></trkpt><trkpt lat="45.132085" lon="8.127065"><ele>201.0</ele><time>2026-04-12T12:00:43.875Z</time></trkpt><trkpt lat="45.1319517" lon="8.1271267"><ele>201.5</ele><time>2026-04-12T12:00:44.875Z</time></trkpt><trkpt lat="45.1318133" lon="8.12715"><ele>202.0</ele><time>2026-04-12T12:00:45.874Z</time></trkpt><trkpt lat="45.131685" lon="8.1271233"><ele>202.5</ele><time>2026-04-12T12:00:46.875Z</time></trkpt><trkpt lat="45.131585" lon="8.1270333"><ele>203.0</ele><time>2026-04-12T12:00:47.874Z</time></trkpt><trkpt lat="45.1314817" lon="8.12691"><ele>203.0</ele><time>2026-04-12T12:00:48.874Z</time></trkpt><trkpt lat="45.131385" lon="8.1267767"><ele>203.0</ele><time>2026-04-12T12:00:49.874Z</time></trkpt><trkpt lat="45.1312717" lon="8.1266717"><ele>203.0</ele><time>2026-04-12T12:00:50.874Z</time></trkpt><trkpt lat="45.131145" lon="8.12658"><ele>203.0</ele><time>2026-04-12T12:00:51.875Z</time></trkpt><trkpt lat="45.1310083" lon="8.126485"><ele>203.66666666666669</ele><time>2026-04-12T12:00:52.874Z</time></trkpt><trkpt lat="45.130865" lon="8.12639"><ele>204.33333333333331</ele><time>2026-04-12T12:00:53.874Z</time></trkpt><trkpt lat="45.1307167" lon="8.1262833"><ele>205.0</ele><time>2026-04-12T12:00:54.874Z</time></trkpt><trkpt lat="45.130575" lon="8.126175"><ele>205.0</ele><time>2026-04-12T12:00:55.875Z</time></trkpt><trkpt lat="45.1304467" lon="8.1260617"><ele>205.0</ele><time>2026-04-12T12:00:56.874Z</time></trkpt><trkpt lat="45.130315" lon="8.1259517"><ele>205.0</ele><time>2026-04-12T12:00:57.874Z</time></trkpt><trkpt lat="45.1301883" lon="8.12583"><ele>204.33333333333331</ele><time>2026-04-12T12:00:58.874Z</time></trkpt><trkpt lat="45.1300733" lon="8.125695"><ele>203.66666666666669</ele><time>2026-04-12T12:00:59.874Z</time></trkpt><trkpt lat="45.1299467" lon="8.1255567"><ele>203.0</ele><time>2026-04-12T12:01:00.874Z</time></trkpt><trkpt lat="45.12982" lon="8.1254383"><ele>203.0</ele><time>2026-04-12T12:01:01.875Z</time></trkpt><trkpt lat="45.1296783" lon="8.12536"><ele>203.0</ele><time>2026-04-12T12:01:02.875Z</time></trkpt><trkpt lat="45.1295183" lon="8.1253217"><ele>203.0</ele><time>2026-04-12T12:01:03.874Z</time></trkpt><trkpt lat="45.1293633" lon="8.12529"><ele>203.0</ele><time>2026-04-12T12:01:04.874Z</time></trkpt><trkpt lat="45.129225" lon="8.1252433"><ele>203.0</ele><time>2026-04-12T12:01:05.874Z</time></trkpt><trkpt lat="45.1291017" lon="8.1251367"><ele>203.0</ele><time>2026-04-12T12:01:06.875Z</time></trkpt><trkpt lat="45.12899" lon="8.1249983"><ele>203.0</ele><time>2026-04-12T12:01:07.875Z</time></trkpt><trkpt lat="45.1288767" lon="8.1248783"><ele>204.33333333333334</ele><time>2026-04-12T12:01:08.874Z</time></trkpt><trkpt lat="45.128755" lon="8.124755"><ele>205.66666666666669</ele><time>2026-04-12T12:01:09.875Z</time></trkpt><trkpt lat="45.1286183" lon="8.1246617"><ele>207.0</ele><time>2026-04-12T12:01:10.874Z</time></trkpt><trkpt lat="45.1284717" lon="8.12458"><ele>207.0</ele><time>2026-04-12T12:01:11.874Z</time></trkpt><trkpt lat="45.1283183" lon="8.1245267"><ele>207.0</ele><time>2026-04-12T12:01:12.874Z</time></trkpt><trkpt lat="45.128165" lon="8.1244567"><ele>207.0</ele><time>2026-04-12T12:01:13.875Z</time></trkpt><trkpt lat="45.1280183" lon="8.1243783"><ele>207.33333333333331</ele><time>2026-04-12T12:01:14.874Z</time></trkpt><trkpt lat="45.1278667" lon="8.1242983"><ele>207.66666666666666</ele><time>2026-04-12T12:01:15.875Z</time></trkpt><trkpt lat="45.12772" lon="8.12422"><ele>208.0</ele><time>2026-04-12T12:01:16.875Z</time></trkpt><trkpt lat="45.1275817" lon="8.12411"><ele>209.33333333333331</ele><time>2026-04-12T12:01:17.874Z</time></trkpt><trkpt lat="45.1274567" lon="8.1239933"><ele>210.66666666666669</ele><time>2026-04-12T12:01:18.875Z</time></trkpt><trkpt lat="45.1273433" lon="8.123855"><ele>212.0</ele><time>2026-04-12T12:01:19.875Z</time></trkpt><trkpt lat="45.1272383" lon="8.1237017"><ele>212.0</ele><time>2026-04-12T12:01:20.875Z</time></trkpt><trkpt lat="45.1271517" lon="8.1235467"><ele>212.0</ele><time>2026-04-12T12:01:21.874Z</time></trkpt><trkpt lat="45.1270583" lon="8.1233817"><ele>212.0</ele><time>2026-04-12T12:01:22.874Z</time></trkpt><trkpt lat="45.1269717" lon="8.12321"><ele>212.0</ele><time>2026-04-12T12:01:23.874Z</time></trkpt><trkpt lat="45.12687" lon="8.1230567"><ele>211.75</ele><time>2026-04-12T12:01:24.875Z</time></trkpt><trkpt lat="45.1267633" lon="8.1229217"><ele>211.5</ele><time>2026-04-12T12:01:25.875Z</time></trkpt><trkpt lat="45.126635" lon="8.1228133"><ele>211.25</ele><time>2026-04-12T12:01:26.875Z</time></trkpt><trkpt lat="45.1265067" lon="8.12271"><ele>211.0</ele><time>2026-04-12T12:01:27.874Z</time></trkpt><trkpt lat="45.126365" lon="8.1226167"><ele>211.0</ele><time>2026-04-12T12:01:28.875Z</time></trkpt><trkpt lat="45.1262217" lon="8.1225383"><ele>211.0</ele><time>2026-04-12T12:01:29.875Z</time></trkpt><trkpt lat="45.1260667" lon="8.1224733"><ele>211.0</ele><time>2026-04-12T12:01:30.874Z</time></trkpt><trkpt lat="45.125915" lon="8.122415"><ele>212.0</ele><time>2026-04-12T12:01:31.874Z</time></trkpt><trkpt lat="45.1257717" lon="8.122385"><ele>213.0</ele><time>2026-04-12T12:01:32.874Z</time></trkpt><trkpt lat="45.1256383" lon="8.1223217"><ele>214.0</ele><time>2026-04-12T12:01:33.874Z</time></trkpt><trkpt lat="45.125515" lon="8.1222383"><ele>215.0</ele><time>2026-04-12T12:01:34.875Z</time></trkpt><trkpt lat="45.1254233" lon="8.1220983"><ele>215.0</ele><time>2026-04-12T12:01:35.874Z</time></trkpt><trkpt lat="45.1253467" lon="8.1219267"><ele>215.0</ele><time>2026-04-12T12:01:36.874Z</time></trkpt><trkpt lat="45.125275" lon="8.1217433"><ele>215.0</ele><time>2026-04-12T12:01:37.874Z</time></trkpt><trkpt lat="45.12519" lon="8.12157"><ele>215.0</ele><time>2026-04-12T12:01:38.874Z</time></trkpt><trkpt lat="45.1250983" lon="8.1213967"><ele>215.75</ele><time>2026-04-12T12:01:39.875Z</time></trkpt><trkpt lat="45.1250033" lon="8.12123"><ele>216.5</ele><time>2026-04-12T12:01:40.875Z</time></trkpt><trkpt lat="45.1249017" lon="8.1210767"><ele>217.25</ele><time>2026-04-12T12:01:41.874Z</time></trkpt><trkpt lat="45.1247967" lon="8.1209383"><ele>218.0</ele><time>2026-04-12T12:01:42.875Z</time></trkpt><trkpt lat="45.1246933" lon="8.120805"><ele>218.0</ele><time>2026-04-12T12:01:43.874Z</time></trkpt><trkpt lat="45.1245767" lon="8.1207067"><ele>218.0</ele><time>2026-04-12T12:01:44.874Z</time></trkpt><trkpt lat="45.12446" lon="8.120635"><ele>218.0</ele><time>2026-04-12T12:01:45.874Z</time></trkpt><trkpt lat="45.1243467" lon="8.1205883"><ele>218.0</ele><time>2026-04-12T12:01:46.875Z</time></trkpt><trkpt lat="45.1242483" lon="8.1205317"><ele>218.00000000000003</ele><time>2026-04-12T12:01:47.875Z</time></trkpt><trkpt lat="45.1241533" lon="8.1204983"><ele>218.0</ele><time>2026-04-12T12:01:48.875Z</time></trkpt><trkpt lat="45.1240667" lon="8.1204833"><ele>218.0</ele><time>2026-04-12T12:01:49.874Z</time></trkpt><trkpt lat="45.123985" lon="8.1205033"><ele>218.0</ele><time>2026-04-12T12:01:50.874Z</time></trkpt><trkpt lat="45.1239033" lon="8.1205467"><ele>218.00000000000003</ele><time>2026-04-12T12:01:51.874Z</time></trkpt><trkpt lat="45.1238167" lon="8.12059"><ele>218.0</ele><time>2026-04-12T12:01:52.874Z</time></trkpt><trkpt lat="45.1237133" lon="8.1206417"><ele>221.0</ele><time>2026-04-12T12:01:53.874Z</time></trkpt><trkpt lat="45.1236067" lon="8.1206967"><ele>224.0</ele><time>2026-04-12T12:01:54.874Z</time></trkpt><trkpt lat="45.123505" lon="8.1207583"><ele>227.0</ele><time>2026-04-12T12:01:55.874Z</time></trkpt><trkpt lat="45.12341" lon="8.1208433"><ele>230.0</ele><time>2026-04-12T12:01:56.874Z</time></trkpt><trkpt lat="45.1233233" lon="8.12094"><ele>233.0</ele><time>2026-04-12T12:01:57.874Z</time></trkpt><trkpt lat="45.123245" lon="8.121045"><ele>237.8</ele><time>2026-04-12T12:01:58.875Z</time></trkpt><trkpt lat="45.12316" lon="8.12115"><ele>242.60000000000002</ele><time>2026-04-12T12:01:59.874Z</time></trkpt><trkpt lat="45.1230733" lon="8.1212633"><ele>247.39999999999998</ele><time>2026-04-12T12:02:00.874Z</time></trkpt><trkpt lat="45.122995" lon="8.1213717"><ele>252.2</ele><time>2026-04-12T12:02:01.874Z</time></trkpt><trkpt lat="45.1229267" lon="8.1214783"><ele>257.0</ele><time>2026-04-12T12:02:02.874Z</time></trkpt><trkpt lat="45.1228883" lon="8.121565"><ele>257.0</ele><time>2026-04-12T12:02:03.874Z</time></trkpt><trkpt lat="45.1228583" lon="8.1216867"><ele>257.0</ele><time>2026-04-12T12:02:05.874Z</time></trkpt><trkpt lat="45.1229" lon="8.1217767"><ele>257.0</ele><time>2026-04-12T12:02:07.875Z</time></trkpt><trkpt lat="45.1229817" lon="8.121775"><ele>257.0</ele><time>2026-04-12T12:02:09.874Z</time></trkpt><trkpt lat="45.1230583" lon="8.1217217"><ele>257.0</ele><time>2026-04-12T12:02:10.875Z</time></trkpt><trkpt lat="45.1231583" lon="8.1216333"><ele>252.39999999999998</ele><time>2026-04-12T12:02:11.874Z</time></trkpt><trkpt lat="45.123285" lon="8.1215317"><ele>247.79999999999998</ele><time>2026-04-12T12:02:12.874Z</time></trkpt><trkpt lat="45.1233633" lon="8.1214533"><ele>243.2</ele><time>2026-04-12T12:02:13.875Z</time></trkpt><trkpt lat="45.1234417" lon="8.1213967"><ele>238.6</ele><time>2026-04-12T12:02:14.875Z</time></trkpt><trkpt lat="45.12353" lon="8.1213733"><ele>234.0</ele><time>2026-04-12T12:02:15.875Z</time></trkpt><trkpt lat="45.1235933" lon="8.1213883"><ele>234.0</ele><time>2026-04-12T12:02:16.874Z</time></trkpt><trkpt lat="45.1236483" lon="8.121465"><ele>233.99999999999997</ele><time>2026-04-12T12:02:17.874Z</time></trkpt><trkpt lat="45.123695" lon="8.1215867"><ele>233.99999999999997</ele><time>2026-04-12T12:02:18.875Z</time></trkpt><trkpt lat="45.123735" lon="8.1217467"><ele>234.0</ele><time>2026-04-12T12:02:19.874Z</time></trkpt><trkpt lat="45.123775" lon="8.1218933"><ele>234.0</ele><time>2026-04-12T12:02:20.874Z</time></trkpt><trkpt lat="45.1238267" lon="8.1220133"><ele>235.33333333333334</ele><time>2026-04-12T12:02:21.875Z</time></trkpt><trkpt lat="45.1238683" lon="8.12211"><ele>236.66666666666669</ele><time>2026-04-12T12:02:22.874Z</time></trkpt><trkpt lat="45.1239083" lon="8.1222017"><ele>238.0</ele><time>2026-04-12T12:02:23.875Z</time></trkpt><trkpt lat="45.1239283" lon="8.122305"><ele>239.33333333333334</ele><time>2026-04-12T12:02:24.874Z</time></trkpt><trkpt lat="45.123935" lon="8.1224233"><ele>240.66666666666669</ele><time>2026-04-12T12:02:25.874Z</time></trkpt><trkpt lat="45.1239317" lon="8.1225417"><ele>242.0</ele><time>2026-04-12T12:02:26.874Z</time></trkpt><trkpt lat="45.1239283" lon="8.1226783"><ele>243.83333333333334</ele><time>2026-04-12T12:02:27.874Z</time></trkpt><trkpt lat="45.123925" lon="8.1228167"><ele>245.66666666666669</ele><time>2026-04-12T12:02:28.874Z</time></trkpt><trkpt lat="45.123915" lon="8.12292"><ele>247.5</ele><time>2026-04-12T12:02:29.874Z</time></trkpt><trkpt lat="45.1239017" lon="8.1230133"><ele>249.33333333333331</ele><time>2026-04-12T12:02:30.875Z</time></trkpt><trkpt lat="45.1238283" lon="8.1231267"><ele>251.16666666666666</ele><time>2026-04-12T12:02:32.875Z</time></trkpt><trkpt lat="45.123765" lon="8.1230433"><ele>253.0</ele><time>2026-04-12T12:02:34.875Z</time></trkpt><trkpt lat="45.1237517" lon="8.1228783"><ele>252.99999999999997</ele><time>2026-04-12T12:02:36.874Z</time></trkpt><trkpt lat="45.123745" lon="8.1227817"><ele>253.0</ele><time>2026-04-12T12:02:37.875Z</time></trkpt><trkpt lat="45.1237333" lon="8.1226767"><ele>253.0</ele><time>2026-04-12T12:02:38.875Z</time></trkpt><trkpt lat="45.1237067" lon="8.1225833"><ele>253.0</ele><time>2026-04-12T12:02:39.874Z</time></trkpt><trkpt lat="45.1236733" lon="8.1224733"><ele>252.99999999999997</ele><time>2026-04-12T12:02:40.875Z</time></trkpt><trkpt lat="45.123625" lon="8.1223717"><ele>253.0</ele><time>2026-04-12T12:02:41.875Z</time></trkpt><trkpt lat="45.1235617" lon="8.122315"><ele>254.60000000000002</ele><time>2026-04-12T12:02:42.875Z</time></trkpt><trkpt lat="45.1234783" lon="8.1222883"><ele>256.20000000000005</ele><time>2026-04-12T12:02:43.874Z</time></trkpt><trkpt lat="45.123385" lon="8.1223133"><ele>257.8</ele><time>2026-04-12T12:02:44.875Z</time></trkpt><trkpt lat="45.1233017" lon="8.1223833"><ele>259.40000000000003</ele><time>2026-04-12T12:02:45.874Z</time></trkpt><trkpt lat="45.123225" lon="8.1224917"><ele>261.0</ele><time>2026-04-12T12:02:46.874Z</time></trkpt><trkpt lat="45.1231467" lon="8.1226333"><ele>261.0</ele><time>2026-04-12T12:02:47.874Z</time></trkpt><trkpt lat="45.1230667" lon="8.1227483"><ele>261.0</ele><time>2026-04-12T12:02:48.874Z</time></trkpt><trkpt lat="45.1229833" lon="8.1228717"><ele>261.0</ele><time>2026-04-12T12:02:49.874Z</time></trkpt><trkpt lat="45.122905" lon="8.1229933"><ele>261.0</ele><time>2026-04-12T12:02:50.874Z</time></trkpt><trkpt lat="45.12283" lon="8.1231133"><ele>263.8</ele><time>2026-04-12T12:02:51.874Z</time></trkpt><trkpt lat="45.1227583" lon="8.1232333"><ele>266.6</ele><time>2026-04-12T12:02:52.874Z</time></trkpt><trkpt lat="45.12268" lon="8.123335"><ele>269.4</ele><time>2026-04-12T12:02:53.874Z</time></trkpt><trkpt lat="45.1226017" lon="8.1234317"><ele>272.2</ele><time>2026-04-12T12:02:54.874Z</time></trkpt><trkpt lat="45.1225183" lon="8.1235167"><ele>275.0</ele><time>2026-04-12T12:02:55.874Z</time></trkpt><trkpt lat="45.1224317" lon="8.1236033"><ele>278.4</ele><time>2026-04-12T12:02:56.874Z</time></trkpt><trkpt lat="45.1223417" lon="8.1236917"><ele>281.8</ele><time>2026-04-12T12:02:57.874Z</time></trkpt><trkpt lat="45.122255" lon="8.1237733"><ele>285.2</ele><time>2026-04-12T12:02:58.875Z</time></trkpt><trkpt lat="45.122175" lon="8.1238517"><ele>288.6</ele><time>2026-04-12T12:02:59.874Z</time></trkpt><trkpt lat="45.1220883" lon="8.1238983"><ele>292.0</ele><time>2026-04-12T12:03:00.874Z</time></trkpt><trkpt lat="45.122" lon="8.1239117"><ele>292.0</ele><time>2026-04-12T12:03:01.875Z</time></trkpt><trkpt lat="45.12191" lon="8.1239117"><ele>292.0</ele><time>2026-04-12T12:03:02.874Z</time></trkpt><trkpt lat="45.1218283" lon="8.123865"><ele>292.0</ele><time>2026-04-12T12:03:03.874Z</time></trkpt><trkpt lat="45.1217683" lon="8.123755"><ele>292.0</ele><time>2026-04-12T12:03:04.875Z</time></trkpt><trkpt lat="45.121725" lon="8.1236133"><ele>292.0</ele><time>2026-04-12T12:03:05.875Z</time></trkpt><trkpt lat="45.1216867" lon="8.1234483"><ele>292.0</ele><time>2026-04-12T12:03:06.874Z</time></trkpt><trkpt lat="45.121625" lon="8.1232983"><ele>292.0</ele><time>2026-04-12T12:03:07.875Z</time></trkpt><trkpt lat="45.1215633" lon="8.1231533"><ele>292.0</ele><time>2026-04-12T12:03:08.875Z</time></trkpt><trkpt lat="45.1214883" lon="8.1230167"><ele>292.0</ele><time>2026-04-12T12:03:09.875Z</time></trkpt><trkpt lat="45.121425" lon="8.122885"><ele>295.4</ele><time>2026-04-12T12:03:10.875Z</time></trkpt><trkpt lat="45.121375" lon="8.12276"><ele>298.79999999999995</ele><time>2026-04-12T12:03:11.875Z</time></trkpt><trkpt lat="45.1213333" lon="8.1226233"><ele>302.2</ele><time>2026-04-12T12:03:12.874Z</time></trkpt><trkpt lat="45.1213033" lon="8.1224733"><ele>305.59999999999997</ele><time>2026-04-12T12:03:13.874Z</time></trkpt><trkpt lat="45.1212817" lon="8.1223133"><ele>309.0</ele><time>2026-04-12T12:03:14.874Z</time></trkpt><trkpt lat="45.1212633" lon="8.1221383"><ele>309.0</ele><time>2026-04-12T12:03:15.874Z</time></trkpt><trkpt lat="45.12125" lon="8.1219533"><ele>309.0</ele><time>2026-04-12T12:03:16.874Z</time></trkpt><trkpt lat="45.1212417" lon="8.1217817"><ele>309.0</ele><time>2026-04-12T12:03:17.874Z</time></trkpt><trkpt lat="45.121235" lon="8.12162"><ele>309.0</ele><time>2026-04-12T12:03:18.874Z</time></trkpt><trkpt lat="45.12122" lon="8.1214533"><ele>306.25</ele><time>2026-04-12T12:03:19.874Z</time></trkpt><trkpt lat="45.1212" lon="8.1212917"><ele>303.5</ele><time>2026-04-12T12:03:20.874Z</time></trkpt><trkpt lat="45.1211617" lon="8.1211367"><ele>300.75</ele><time>2026-04-12T12:03:21.874Z</time></trkpt><trkpt lat="45.1211117" lon="8.12099"><ele>298.0</ele><time>2026-04-12T12:03:22.875Z</time></trkpt><trkpt lat="45.12106" lon="8.1208633"><ele>298.0</ele><time>2026-04-12T12:03:23.875Z</time></trkpt><trkpt lat="45.1210167" lon="8.1207383"><ele>298.0</ele><time>2026-04-12T12:03:24.874Z</time></trkpt><trkpt lat="45.120995" lon="8.12059"><ele>298.0</ele><time>2026-04-12T12:03:25.874Z</time></trkpt><trkpt lat="45.121" lon="8.1204233"><ele>298.0</ele><time>2026-04-12T12:03:26.874Z</time></trkpt><trkpt lat="45.1210083" lon="8.1202567"><ele>298.0</ele><time>2026-04-12T12:03:27.874Z</time></trkpt><trkpt lat="45.12101" lon="8.1200967"><ele>299.0</ele><time>2026-04-12T12:03:28.875Z</time></trkpt><trkpt lat="45.1209933" lon="8.1199433"><ele>300.0</ele><time>2026-04-12T12:03:29.874Z</time></trkpt><trkpt lat="45.120975" lon="8.1197833"><ele>301.0</ele><time>2026-04-12T12:03:30.875Z</time></trkpt><trkpt lat="45.1209583" lon="8.11961"><ele>302.0</ele><time>2026-04-12T12:03:31.874Z</time></trkpt><trkpt lat="45.1209333" lon="8.1194267"><ele>302.25</ele><time>2026-04-12T12:03:32.874Z</time></trkpt><trkpt lat="45.1209083" lon="8.1192367"><ele>302.5</ele><time>2026-04-12T12:03:33.874Z</time></trkpt><trkpt lat="45.12089" lon="8.1190483"><ele>302.75</ele><time>2026-04-12T12:03:34.874Z</time></trkpt><trkpt lat="45.120875" lon="8.1188617"><ele>303.0</ele><time>2026-04-12T12:03:35.875Z</time></trkpt><trkpt lat="45.1208667" lon="8.1186667"><ele>304.25</ele><time>2026-04-12T12:03:36.875Z</time></trkpt><trkpt lat="45.1208617" lon="8.11847"><ele>305.5</ele><time>2026-04-12T12:03:37.875Z</time></trkpt><trkpt lat="45.1208617" lon="8.1182683"><ele>306.75</ele><time>2026-04-12T12:03:38.875Z</time></trkpt><trkpt lat="45.120855" lon="8.1180667"><ele>308.0</ele><time>2026-04-12T12:03:39.874Z</time></trkpt><trkpt lat="45.1208417" lon="8.1178717"><ele>309.75</ele><time>2026-04-12T12:03:40.874Z</time></trkpt><trkpt lat="45.1208167" lon="8.117675"><ele>311.5</ele><time>2026-04-12T12:03:41.874Z</time></trkpt><trkpt lat="45.1207817" lon="8.1174817"><ele>313.25</ele><time>2026-04-12T12:03:42.875Z</time></trkpt><trkpt lat="45.1207333" lon="8.11729"><ele>315.0</ele><time>2026-04-12T12:03:43.874Z</time></trkpt><trkpt lat="45.1206783" lon="8.1171017"><ele>315.25</ele><time>2026-04-12T12:03:44.875Z</time></trkpt><trkpt lat="45.1206167" lon="8.1169183"><ele>315.5</ele><time>2026-04-12T12:03:45.874Z</time></trkpt><trkpt lat="45.1205517" lon="8.11675"><ele>315.75</ele><time>2026-04-12T12:03:46.874Z</time></trkpt><trkpt lat="45.1204683" lon="8.1165967"><ele>316.0</ele><time>2026-04-12T12:03:47.874Z</time></trkpt><trkpt lat="45.1203717" lon="8.1164617"><ele>318.75</ele><time>2026-04-12T12:03:48.874Z</time></trkpt><trkpt lat="45.1202733" lon="8.1163633"><ele>321.5</ele><time>2026-04-12T12:03:49.874Z</time></trkpt><trkpt lat="45.120155" lon="8.1162633"><ele>324.25</ele><time>2026-04-12T12:03:50.875Z</time></trkpt><trkpt lat="45.1200583" lon="8.1161717"><ele>327.0</ele><time>2026-04-12T12:03:51.875Z</time></trkpt><trkpt lat="45.1200033" lon="8.1160817"><ele>327.0</ele><time>2026-04-12T12:03:52.875Z</time></trkpt><trkpt lat="45.119965" lon="8.1159867"><ele>327.0</ele><time>2026-04-12T12:03:53.875Z</time></trkpt><trkpt lat="45.11997" lon="8.115875"><ele>327.0</ele><time>2026-04-12T12:03:54.874Z</time></trkpt><trkpt lat="45.1199833" lon="8.11574"><ele>327.0</ele><time>2026-04-12T12:03:55.875Z</time></trkpt><trkpt lat="45.1199967" lon="8.1155917"><ele>327.0</ele><time>2026-04-12T12:03:56.874Z</time></trkpt><trkpt lat="45.1199867" lon="8.1154317"><ele>328.0</ele><time>2026-04-12T12:03:57.874Z</time></trkpt><trkpt lat="45.1199633" lon="8.1152517"><ele>329.0</ele><time>2026-04-12T12:03:58.875Z</time></trkpt><trkpt lat="45.119935" lon="8.1150683"><ele>330.0</ele><time>2026-04-12T12:03:59.875Z</time></trkpt><trkpt lat="45.1199133" lon="8.114875"><ele>331.0</ele><time>2026-04-12T12:04:00.875Z</time></trkpt><trkpt lat="45.1198967" lon="8.1146783"><ele>325.0</ele><time>2026-04-12T12:04:01.874Z</time></trkpt><trkpt lat="45.1198833" lon="8.114475"><ele>319.0</ele><time>2026-04-12T12:04:02.874Z</time></trkpt><trkpt lat="45.11986" lon="8.114275"><ele>313.0</ele><time>2026-04-12T12:04:03.874Z</time></trkpt><trkpt lat="45.11984" lon="8.1140583"><ele>307.0</ele><time>2026-04-12T12:04:04.874Z</time></trkpt><trkpt lat="45.1198133" lon="8.113845"><ele>307.0</ele><time>2026-04-12T12:04:05.874Z</time></trkpt><trkpt lat="45.1197733" lon="8.11365"><ele>307.0</ele><time>2026-04-12T12:04:06.874Z</time></trkpt><trkpt lat="45.1197417" lon="8.1134683"><ele>307.0</ele><time>2026-04-12T12:04:07.874Z</time></trkpt><trkpt lat="45.1197033" lon="8.1132933"><ele>307.0</ele><time>2026-04-12T12:04:08.874Z</time></trkpt><trkpt lat="45.11967" lon="8.1131217"><ele>308.5</ele><time>2026-04-12T12:04:09.875Z</time></trkpt><trkpt lat="45.1196433" lon="8.11295"><ele>310.0</ele><time>2026-04-12T12:04:10.875Z</time></trkpt><trkpt lat="45.1196233" lon="8.1127817"><ele>311.5</ele><time>2026-04-12T12:04:11.874Z</time></trkpt><trkpt lat="45.119605" lon="8.1126233"><ele>313.0</ele><time>2026-04-12T12:04:12.874Z</time></trkpt><trkpt lat="45.119575" lon="8.1124683"><ele>313.75</ele><time>2026-04-12T12:04:13.874Z</time></trkpt><trkpt lat="45.1195267" lon="8.1123083"><ele>314.5</ele><time>2026-04-12T12:04:14.875Z</time></trkpt><trkpt lat="45.11947" lon="8.1121483"><ele>315.25</ele><time>2026-04-12T12:04:15.874Z</time></trkpt><trkpt lat="45.1194133" lon="8.1119883"><ele>316.0</ele><time>2026-04-12T12:04:16.874Z</time></trkpt><trkpt lat="45.11934" lon="8.1118383"><ele>316.0</ele><time>2026-04-12T12:04:17.875Z</time></trkpt><trkpt lat="45.1192617" lon="8.1117"><ele>316.0</ele><time>2026-04-12T12:04:18.875Z</time></trkpt><trkpt lat="45.11917" lon="8.111575"><ele>316.0</ele><time>2026-04-12T12:04:19.874Z</time></trkpt><trkpt lat="45.1190667" lon="8.1114717"><ele>316.0</ele><time>2026-04-12T12:04:20.875Z</time></trkpt><trkpt lat="45.118955" lon="8.1113783"><ele>316.0</ele><time>2026-04-12T12:04:21.875Z</time></trkpt><trkpt lat="45.1188333" lon="8.1112967"><ele>316.0</ele><time>2026-04-12T12:04:22.875Z</time></trkpt><trkpt lat="45.1187267" lon="8.1111733"><ele>316.0</ele><time>2026-04-12T12:04:23.874Z</time></trkpt><trkpt lat="45.1186383" lon="8.1110283"><ele>316.0</ele><time>2026-04-12T12:04:24.874Z</time></trkpt><trkpt lat="45.118565" lon="8.1108867"><ele>316.0</ele><time>2026-04-12T12:04:25.875Z</time></trkpt><trkpt lat="45.11847" lon="8.1107717"><ele>316.0</ele><time>2026-04-12T12:04:26.875Z</time></trkpt><trkpt lat="45.11835" lon="8.1107"><ele>316.0</ele><time>2026-04-12T12:04:27.874Z</time></trkpt><trkpt lat="45.1182333" lon="8.1106817"><ele>316.0</ele><time>2026-04-12T12:04:28.875Z</time></trkpt><trkpt lat="45.118105" lon="8.1106817"><ele>319.5</ele><time>2026-04-12T12:04:29.874Z</time></trkpt><trkpt lat="45.1179767" lon="8.1106833"><ele>323.0</ele><time>2026-04-12T12:04:30.875Z</time></trkpt><trkpt lat="45.1178433" lon="8.1106867"><ele>326.5</ele><time>2026-04-12T12:04:31.874Z</time></trkpt><trkpt lat="45.1177167" lon="8.1106883"><ele>330.0</ele><time>2026-04-12T12:04:32.874Z</time></trkpt><trkpt lat="45.1176" lon="8.1106917"><ele>330.0</ele><time>2026-04-12T12:04:33.875Z</time></trkpt><trkpt lat="45.1174967" lon="8.110665"><ele>330.0</ele><time>2026-04-12T12:04:34.874Z</time></trkpt><trkpt lat="45.1174083" lon="8.11059"><ele>330.0</ele><time>2026-04-12T12:04:35.874Z</time></trkpt><trkpt lat="45.11734" lon="8.11046"><ele>330.0</ele><time>2026-04-12T12:04:36.875Z</time></trkpt><trkpt lat="45.1172883" lon="8.1103267"><ele>330.0</ele><time>2026-04-12T12:04:37.874Z</time></trkpt><trkpt lat="45.1172317" lon="8.1102017"><ele>329.8</ele><time>2026-04-12T12:04:38.875Z</time></trkpt><trkpt lat="45.1171567" lon="8.1101067"><ele>329.6</ele><time>2026-04-12T12:04:39.875Z</time></trkpt><trkpt lat="45.1170733" lon="8.110075"><ele>329.4</ele><time>2026-04-12T12:04:40.875Z</time></trkpt><trkpt lat="45.1169683" lon="8.11008"><ele>329.2</ele><time>2026-04-12T12:04:41.874Z</time></trkpt><trkpt lat="45.1168517" lon="8.1101183"><ele>329.0</ele><time>2026-04-12T12:04:42.875Z</time></trkpt><trkpt lat="45.1167417" lon="8.1101683"><ele>329.0</ele><time>2026-04-12T12:04:43.874Z</time></trkpt><trkpt lat="45.1166333" lon="8.1102333"><ele>329.0</ele><time>2026-04-12T12:04:44.875Z</time></trkpt><trkpt lat="45.11653" lon="8.110315"><ele>329.0</ele><time>2026-04-12T12:04:45.874Z</time></trkpt><trkpt lat="45.1164233" lon="8.110415"><ele>329.0</ele><time>2026-04-12T12:04:46.874Z</time></trkpt><trkpt lat="45.1163067" lon="8.1105283"><ele>328.75</ele><time>2026-04-12T12:04:47.874Z</time></trkpt><trkpt lat="45.1161983" lon="8.110645"><ele>328.5</ele><time>2026-04-12T12:04:48.874Z</time></trkpt><trkpt lat="45.11609" lon="8.1107533"><ele>328.25</ele><time>2026-04-12T12:04:49.874Z</time></trkpt><trkpt lat="45.11599" lon="8.1108767"><ele>328.0</ele><time>2026-04-12T12:04:50.874Z</time></trkpt><trkpt lat="45.115885" lon="8.110985"><ele>330.2</ele><time>2026-04-12T12:04:51.874Z</time></trkpt><trkpt lat="45.11579" lon="8.111075"><ele>332.4</ele><time>2026-04-12T12:04:52.874Z</time></trkpt><trkpt lat="45.1157017" lon="8.1111433"><ele>334.59999999999997</ele><time>2026-04-12T12:04:53.875Z</time></trkpt><trkpt lat="45.1156033" lon="8.1111983"><ele>336.79999999999995</ele><time>2026-04-12T12:04:54.874Z</time></trkpt><trkpt lat="45.11549" lon="8.1112467"><ele>339.0</ele><time>2026-04-12T12:04:55.874Z</time></trkpt><trkpt lat="45.1153767" lon="8.1112783"><ele>339.4</ele><time>2026-04-12T12:04:56.875Z</time></trkpt><trkpt lat="45.1152583" lon="8.1113167"><ele>339.79999999999995</ele><time>2026-04-12T12:04:57.874Z</time></trkpt><trkpt lat="45.1151383" lon="8.1113567"><ele>340.20000000000005</ele><time>2026-04-12T12:04:58.874Z</time></trkpt><trkpt lat="45.115035" lon="8.11136"><ele>340.6</ele><time>2026-04-12T12:04:59.875Z</time></trkpt><trkpt lat="45.1149367" lon="8.1113267"><ele>341.0</ele><time>2026-04-12T12:05:00.874Z</time></trkpt><trkpt lat="45.1148483" lon="8.1112617"><ele>341.0</ele><time>2026-04-12T12:05:01.875Z</time></trkpt><trkpt lat="45.1147833" lon="8.11117"><ele>341.0</ele><time>2026-04-12T12:05:02.874Z</time></trkpt><trkpt lat="45.1147217" lon="8.1110517"><ele>341.0</ele><time>2026-04-12T12:05:03.875Z</time></trkpt><trkpt lat="45.1146817" lon="8.1109167"><ele>341.0</ele><time>2026-04-12T12:05:04.874Z</time></trkpt><trkpt lat="45.11465" lon="8.110765"><ele>341.0</ele><time>2026-04-12T12:05:05.874Z</time></trkpt><trkpt lat="45.1146333" lon="8.1106067"><ele>341.0</ele><time>2026-04-12T12:05:06.874Z</time></trkpt><trkpt lat="45.1146317" lon="8.1104417"><ele>341.0</ele><time>2026-04-12T12:05:07.874Z</time></trkpt><trkpt lat="45.11467" lon="8.1102733"><ele>341.0</ele><time>2026-04-12T12:05:08.875Z</time></trkpt><trkpt lat="45.1147283" lon="8.110105"><ele>341.0</ele><time>2026-04-12T12:05:09.875Z</time></trkpt><trkpt lat="45.1147917" lon="8.1099233"><ele>340.33333333333337</ele><time>2026-04-12T12:05:10.875Z</time></trkpt><trkpt lat="45.1148367" lon="8.1097117"><ele>339.6666666666667</ele><time>2026-04-12T12:05:11.874Z</time></trkpt><trkpt lat="45.1148617" lon="8.1094983"><ele>339.0</ele><time>2026-04-12T12:05:12.875Z</time></trkpt><trkpt lat="45.11485" lon="8.10929"><ele>339.0</ele><time>2026-04-12T12:05:13.874Z</time></trkpt><trkpt lat="45.1148283" lon="8.109095"><ele>339.0</ele><time>2026-04-12T12:05:14.874Z</time></trkpt><trkpt lat="45.1147917" lon="8.1088967"><ele>339.0</ele><time>2026-04-12T12:05:15.874Z</time></trkpt><trkpt lat="45.11475" lon="8.1087067"><ele>339.0</ele><time>2026-04-12T12:05:16.875Z</time></trkpt><trkpt lat="45.1146933" lon="8.10855"><ele>341.5</ele><time>2026-04-12T12:05:17.874Z</time></trkpt><trkpt lat="45.1146033" lon="8.1084"><ele>344.0</ele><time>2026-04-12T12:05:18.874Z</time></trkpt><trkpt lat="45.1144933" lon="8.108285"><ele>346.5</ele><time>2026-04-12T12:05:19.875Z</time></trkpt><trkpt lat="45.1143667" lon="8.1081867"><ele>349.0</ele><time>2026-04-12T12:05:20.875Z</time></trkpt><trkpt lat="45.11424" lon="8.1080867"><ele>349.0</ele><time>2026-04-12T12:05:21.874Z</time></trkpt><trkpt lat="45.1141233" lon="8.1079783"><ele>349.0</ele><time>2026-04-12T12:05:22.874Z</time></trkpt><trkpt lat="45.1140067" lon="8.107865"><ele>349.0</ele><time>2026-04-12T12:05:23.875Z</time></trkpt><trkpt lat="45.1139033" lon="8.107755"><ele>349.0</ele><time>2026-04-12T12:05:24.874Z</time></trkpt><trkpt lat="45.1138033" lon="8.107635"><ele>349.0</ele><time>2026-04-12T12:05:25.875Z</time></trkpt><trkpt lat="45.113715" lon="8.1074967"><ele>349.0</ele><time>2026-04-12T12:05:26.874Z</time></trkpt><trkpt lat="45.113645" lon="8.1073533"><ele>349.0</ele><time>2026-04-12T12:05:27.874Z</time></trkpt><trkpt lat="45.1135933" lon="8.107225"><ele>349.0</ele><time>2026-04-12T12:05:28.875Z</time></trkpt><trkpt lat="45.1135433" lon="8.1070717"><ele>349.25</ele><time>2026-04-12T12:05:29.874Z</time></trkpt><trkpt lat="45.113505" lon="8.1069167"><ele>349.5</ele><time>2026-04-12T12:05:30.874Z</time></trkpt><trkpt lat="45.113485" lon="8.1067483"><ele>349.75</ele><time>2026-04-12T12:05:31.874Z</time></trkpt><trkpt lat="45.1134717" lon="8.1065667"><ele>350.0</ele><time>2026-04-12T12:05:32.875Z</time></trkpt><trkpt lat="45.1134767" lon="8.1063833"><ele>350.0</ele><time>2026-04-12T12:05:33.875Z</time></trkpt><trkpt lat="45.1134967" lon="8.106195"><ele>350.0</ele><time>2026-04-12T12:05:34.875Z</time></trkpt><trkpt lat="45.1135233" lon="8.1060067"><ele>350.0</ele><time>2026-04-12T12:05:35.874Z</time></trkpt><trkpt lat="45.1135583" lon="8.1058167"><ele>350.0</ele><time>2026-04-12T12:05:36.875Z</time></trkpt><trkpt lat="45.1135767" lon="8.1056433"><ele>350.0</ele><time>2026-04-12T12:05:37.874Z</time></trkpt><trkpt lat="45.1136" lon="8.1054667"><ele>350.0</ele><time>2026-04-12T12:05:38.875Z</time></trkpt><trkpt lat="45.1136117" lon="8.10529"><ele>350.0</ele><time>2026-04-12T12:05:39.874Z</time></trkpt><trkpt lat="45.1136033" lon="8.10512"><ele>350.0</ele><time>2026-04-12T12:05:40.875Z</time></trkpt><trkpt lat="45.1135833" lon="8.1049783"><ele>350.8</ele><time>2026-04-12T12:05:41.874Z</time></trkpt><trkpt lat="45.1135483" lon="8.1048417"><ele>351.6</ele><time>2026-04-12T12:05:42.875Z</time></trkpt><trkpt lat="45.1134833" lon="8.1047267"><ele>352.4</ele><time>2026-04-12T12:05:43.875Z</time></trkpt><trkpt lat="45.113405" lon="8.10461"><ele>353.2</ele><time>2026-04-12T12:05:44.874Z</time></trkpt><trkpt lat="45.113325" lon="8.1045117"><ele>354.0</ele><time>2026-04-12T12:05:45.875Z</time></trkpt><trkpt lat="45.113245" lon="8.104415"><ele>353.0</ele><time>2026-04-12T12:05:46.875Z</time></trkpt><trkpt lat="45.113155" lon="8.104315"><ele>352.0</ele><time>2026-04-12T12:05:47.874Z</time></trkpt><trkpt lat="45.1130717" lon="8.10421"><ele>351.0</ele><time>2026-04-12T12:05:48.875Z</time></trkpt><trkpt lat="45.1129883" lon="8.104105"><ele>350.0</ele><time>2026-04-12T12:05:49.874Z</time></trkpt><trkpt lat="45.1129033" lon="8.10401"><ele>349.0</ele><time>2026-04-12T12:05:50.875Z</time></trkpt><trkpt lat="45.112825" lon="8.1039033"><ele>349.0</ele><time>2026-04-12T12:05:51.874Z</time></trkpt><trkpt lat="45.1127617" lon="8.1037633"><ele>349.0</ele><time>2026-04-12T12:05:52.874Z</time></trkpt><trkpt lat="45.1127017" lon="8.1036367"><ele>349.0</ele><time>2026-04-12T12:05:53.874Z</time></trkpt><trkpt lat="45.1126467" lon="8.1035217"><ele>349.0</ele><time>2026-04-12T12:05:54.874Z</time></trkpt><trkpt lat="45.1125983" lon="8.1033933"><ele>349.0</ele><time>2026-04-12T12:05:55.874Z</time></trkpt><trkpt lat="45.11258" lon="8.1032567"><ele>347.4</ele><time>2026-04-12T12:05:56.875Z</time></trkpt><trkpt lat="45.1125817" lon="8.1031117"><ele>345.79999999999995</ele><time>2026-04-12T12:05:57.875Z</time></trkpt><trkpt lat="45.1126217" lon="8.102975"><ele>344.20000000000005</ele><time>2026-04-12T12:05:58.874Z</time></trkpt><trkpt lat="45.112675" lon="8.10284"><ele>342.6</ele><time>2026-04-12T12:05:59.875Z</time></trkpt><trkpt lat="45.112735" lon="8.1027083"><ele>341.0</ele><time>2026-04-12T12:06:00.874Z</time></trkpt><trkpt lat="45.1127983" lon="8.1025883"><ele>341.0</ele><time>2026-04-12T12:06:01.875Z</time></trkpt><trkpt lat="45.1128683" lon="8.1024867"><ele>341.0</ele><time>2026-04-12T12:06:02.874Z</time></trkpt><trkpt lat="45.1129467" lon="8.1023917"><ele>341.0</ele><time>2026-04-12T12:06:03.875Z</time></trkpt><trkpt lat="45.113015" lon="8.1022767"><ele>341.0</ele><time>2026-04-12T12:06:04.874Z</time></trkpt><trkpt lat="45.1130683" lon="8.102125"><ele>341.0</ele><time>2026-04-12T12:06:05.875Z</time></trkpt><trkpt lat="45.1130817" lon="8.1019533"><ele>341.25</ele><time>2026-04-12T12:06:06.874Z</time></trkpt><trkpt lat="45.1130783" lon="8.10178"><ele>341.5</ele><time>2026-04-12T12:06:07.875Z</time></trkpt><trkpt lat="45.1130467" lon="8.1016167"><ele>341.75</ele><time>2026-04-12T12:06:08.875Z</time></trkpt><trkpt lat="45.1130033" lon="8.1014467"><ele>342.0</ele><time>2026-04-12T12:06:09.874Z</time></trkpt><trkpt lat="45.1129383" lon="8.101285"><ele>342.0</ele><time>2026-04-12T12:06:10.874Z</time></trkpt><trkpt lat="45.112875" lon="8.1011167"><ele>342.0</ele><time>2026-04-12T12:06:11.875Z</time></trkpt><trkpt lat="45.11279" lon="8.1009733"><ele>342.0</ele><time>2026-04-12T12:06:12.875Z</time></trkpt><trkpt lat="45.1126733" lon="8.1008633"><ele>342.0</ele><time>2026-04-12T12:06:13.875Z</time></trkpt><trkpt lat="45.1125533" lon="8.100775"><ele>339.5</ele><time>2026-04-12T12:06:14.874Z</time></trkpt><trkpt lat="45.112415" lon="8.1006967"><ele>337.0</ele><time>2026-04-12T12:06:15.874Z</time></trkpt><trkpt lat="45.1122833" lon="8.100625"><ele>334.5</ele><time>2026-04-12T12:06:16.874Z</time></trkpt><trkpt lat="45.112145" lon="8.10057"><ele>332.0</ele><time>2026-04-12T12:06:17.874Z</time></trkpt><trkpt lat="45.11202" lon="8.1005083"><ele>332.0</ele><time>2026-04-12T12:06:18.875Z</time></trkpt><trkpt lat="45.1119167" lon="8.1004267"><ele>332.0</ele><time>2026-04-12T12:06:19.874Z</time></trkpt><trkpt lat="45.111845" lon="8.1003283"><ele>332.0</ele><time>2026-04-12T12:06:20.875Z</time></trkpt><trkpt lat="45.1117933" lon="8.1001867"><ele>332.0</ele><time>2026-04-12T12:06:21.874Z</time></trkpt><trkpt lat="45.1117733" lon="8.1000183"><ele>332.75</ele><time>2026-04-12T12:06:22.874Z</time></trkpt><trkpt lat="45.1117667" lon="8.099845"><ele>333.5</ele><time>2026-04-12T12:06:23.874Z</time></trkpt><trkpt lat="45.111755" lon="8.0996567"><ele>334.25</ele><time>2026-04-12T12:06:24.875Z</time></trkpt><trkpt lat="45.111745" lon="8.0994633"><ele>335.0</ele><time>2026-04-12T12:06:25.874Z</time></trkpt><trkpt lat="45.1117283" lon="8.0992633"><ele>334.5</ele><time>2026-04-12T12:06:26.874Z</time></trkpt><trkpt lat="45.1117117" lon="8.099065"><ele>334.0</ele><time>2026-04-12T12:06:27.875Z</time></trkpt><trkpt lat="45.1116917" lon="8.0988683"><ele>333.5</ele><time>2026-04-12T12:06:28.875Z</time></trkpt><trkpt lat="45.1116717" lon="8.09866"><ele>333.0</ele><time>2026-04-12T12:06:29.874Z</time></trkpt><trkpt lat="45.1116483" lon="8.0984517"><ele>334.3333333333333</ele><time>2026-04-12T12:06:30.874Z</time></trkpt><trkpt lat="45.111625" lon="8.0982317"><ele>335.66666666666663</ele><time>2026-04-12T12:06:31.874Z</time></trkpt><trkpt lat="45.1116017" lon="8.0980133"><ele>337.0</ele><time>2026-04-12T12:06:32.874Z</time></trkpt><trkpt lat="45.1115817" lon="8.0977867"><ele>338.25</ele><time>2026-04-12T12:06:33.874Z</time></trkpt><trkpt lat="45.1115583" lon="8.097575"><ele>339.5</ele><time>2026-04-12T12:06:34.874Z</time></trkpt><trkpt lat="45.1115533" lon="8.0973817"><ele>340.75</ele><time>2026-04-12T12:06:35.874Z</time></trkpt><trkpt lat="45.1115283" lon="8.09721"><ele>342.0</ele><time>2026-04-12T12:06:36.874Z</time></trkpt><trkpt lat="45.111475" lon="8.0970583"><ele>342.0</ele><time>2026-04-12T12:06:37.875Z</time></trkpt><trkpt lat="45.1114" lon="8.0969367"><ele>342.0</ele><time>2026-04-12T12:06:38.874Z</time></trkpt><trkpt lat="45.111315" lon="8.0968183"><ele>342.0</ele><time>2026-04-12T12:06:39.874Z</time></trkpt><trkpt lat="45.1112217" lon="8.09669"><ele>342.0</ele><time>2026-04-12T12:06:40.875Z</time></trkpt><trkpt lat="45.1111417" lon="8.0965783"><ele>342.1666666666667</ele><time>2026-04-12T12:06:41.874Z</time></trkpt><trkpt lat="45.111065" lon="8.096465"><ele>342.3333333333333</ele><time>2026-04-12T12:06:42.874Z</time></trkpt><trkpt lat="45.1109917" lon="8.0963833"><ele>342.5</ele><time>2026-04-12T12:06:43.875Z</time></trkpt><trkpt lat="45.1109167" lon="8.096325"><ele>342.66666666666663</ele><time>2026-04-12T12:06:44.875Z</time></trkpt><trkpt lat="45.1108417" lon="8.096305"><ele>342.8333333333333</ele><time>2026-04-12T12:06:45.875Z</time></trkpt><trkpt lat="45.1107583" lon="8.0963067"><ele>343.0</ele><time>2026-04-12T12:06:46.875Z</time></trkpt><trkpt lat="45.1106933" lon="8.0963067"><ele>341.3333333333333</ele><time>2026-04-12T12:06:47.874Z</time></trkpt><trkpt lat="45.1106" lon="8.09629"><ele>339.66666666666663</ele><time>2026-04-12T12:06:49.875Z</time></trkpt><trkpt lat="45.110545" lon="8.09617"><ele>338.0</ele><time>2026-04-12T12:06:51.875Z</time></trkpt><trkpt lat="45.1105283" lon="8.0960817"><ele>336.3333333333333</ele><time>2026-04-12T12:06:52.874Z</time></trkpt><trkpt lat="45.110525" lon="8.0959833"><ele>334.6666666666667</ele><time>2026-04-12T12:06:53.875Z</time></trkpt><trkpt lat="45.1105483" lon="8.0958767"><ele>333.0</ele><time>2026-04-12T12:06:54.874Z</time></trkpt><trkpt lat="45.1105817" lon="8.0957717"><ele>331.1666666666667</ele><time>2026-04-12T12:06:55.875Z</time></trkpt><trkpt lat="45.1106117" lon="8.095675"><ele>329.3333333333333</ele><time>2026-04-12T12:06:56.874Z</time></trkpt><trkpt lat="45.1106317" lon="8.09559"><ele>327.5</ele><time>2026-04-12T12:06:57.874Z</time></trkpt><trkpt lat="45.11063" lon="8.0954983"><ele>325.66666666666663</ele><time>2026-04-12T12:06:58.874Z</time></trkpt><trkpt lat="45.110545" lon="8.0953883"><ele>323.8333333333333</ele><time>2026-04-12T12:07:00.874Z</time></trkpt><trkpt lat="45.1104783" lon="8.0953933"><ele>322.0</ele><time>2026-04-12T12:07:01.874Z</time></trkpt><trkpt lat="45.110395" lon="8.0954367"><ele>322.0</ele><time>2026-04-12T12:07:02.874Z</time></trkpt><trkpt lat="45.1103133" lon="8.0955067"><ele>322.0</ele><time>2026-04-12T12:07:03.875Z</time></trkpt><trkpt lat="45.1102167" lon="8.0955567"><ele>322.0</ele><time>2026-04-12T12:07:04.874Z</time></trkpt><trkpt lat="45.11011" lon="8.0955767"><ele>322.0</ele><time>2026-04-12T12:07:05.875Z</time></trkpt><trkpt lat="45.10999" lon="8.09556"><ele>322.0</ele><time>2026-04-12T12:07:06.874Z</time></trkpt><trkpt lat="45.1098733" lon="8.0955383"><ele>321.6</ele><time>2026-04-12T12:07:07.874Z</time></trkpt><trkpt lat="45.10976" lon="8.0955317"><ele>321.20000000000005</ele><time>2026-04-12T12:07:08.874Z</time></trkpt><trkpt lat="45.1096533" lon="8.0955467"><ele>320.8</ele><time>2026-04-12T12:07:09.875Z</time></trkpt><trkpt lat="45.109545" lon="8.0955717"><ele>320.4</ele><time>2026-04-12T12:07:10.874Z</time></trkpt><trkpt lat="45.1094367" lon="8.0955633"><ele>320.0</ele><time>2026-04-12T12:07:11.874Z</time></trkpt><trkpt lat="45.1093283" lon="8.09552"><ele>320.0</ele><time>2026-04-12T12:07:12.875Z</time></trkpt><trkpt lat="45.10921" lon="8.0954383"><ele>320.0</ele><time>2026-04-12T12:07:13.875Z</time></trkpt><trkpt lat="45.1090833" lon="8.0953783"><ele>320.0</ele><time>2026-04-12T12:07:14.874Z</time></trkpt><trkpt lat="45.1089683" lon="8.0953167"><ele>320.0</ele><time>2026-04-12T12:07:15.874Z</time></trkpt><trkpt lat="45.1088283" lon="8.09532"><ele>317.33333333333337</ele><time>2026-04-12T12:07:16.875Z</time></trkpt><trkpt lat="45.108685" lon="8.0953417"><ele>314.6666666666667</ele><time>2026-04-12T12:07:17.874Z</time></trkpt><trkpt lat="45.1085333" lon="8.09535"><ele>312.0</ele><time>2026-04-12T12:07:18.875Z</time></trkpt><trkpt lat="45.10838" lon="8.0953217"><ele>311.75</ele><time>2026-04-12T12:07:19.874Z</time></trkpt><trkpt lat="45.1082333" lon="8.095265"><ele>311.5</ele><time>2026-04-12T12:07:20.875Z</time></trkpt><trkpt lat="45.108095" lon="8.0952067"><ele>311.25</ele><time>2026-04-12T12:07:21.874Z</time></trkpt><trkpt lat="45.10796" lon="8.0951567"><ele>311.0</ele><time>2026-04-12T12:07:22.874Z</time></trkpt><trkpt lat="45.1078317" lon="8.0950983"><ele>311.0</ele><time>2026-04-12T12:07:23.874Z</time></trkpt><trkpt lat="45.1077033" lon="8.095035"><ele>311.0</ele><time>2026-04-12T12:07:24.875Z</time></trkpt><trkpt lat="45.1075817" lon="8.0949917"><ele>311.0</ele><time>2026-04-12T12:07:25.875Z</time></trkpt><trkpt lat="45.107465" lon="8.0949317"><ele>311.0</ele><time>2026-04-12T12:07:26.874Z</time></trkpt><trkpt lat="45.1073567" lon="8.0948583"><ele>311.25</ele><time>2026-04-12T12:07:27.875Z</time></trkpt><trkpt lat="45.10725" lon="8.0947533"><ele>311.5</ele><time>2026-04-12T12:07:28.874Z</time></trkpt><trkpt lat="45.1071533" lon="8.0946083"><ele>311.75</ele><time>2026-04-12T12:07:29.874Z</time></trkpt><trkpt lat="45.1071" lon="8.09444"><ele>312.0</ele><time>2026-04-12T12:07:30.874Z</time></trkpt><trkpt lat="45.10705" lon="8.094235"><ele>310.75</ele><time>2026-04-12T12:07:31.874Z</time></trkpt><trkpt lat="45.1070133" lon="8.094035"><ele>309.5</ele><time>2026-04-12T12:07:32.874Z</time></trkpt><trkpt lat="45.1069967" lon="8.0938433"><ele>308.25</ele><time>2026-04-12T12:07:33.874Z</time></trkpt><trkpt lat="45.1069833" lon="8.0936417"><ele>307.0</ele><time>2026-04-12T12:07:34.874Z</time></trkpt><trkpt lat="45.1069917" lon="8.0934317"><ele>306.0</ele><time>2026-04-12T12:07:35.875Z</time></trkpt><trkpt lat="45.1070067" lon="8.0932233"><ele>305.0</ele><time>2026-04-12T12:07:36.875Z</time></trkpt><trkpt lat="45.1070567" lon="8.0930383"><ele>304.0</ele><time>2026-04-12T12:07:37.874Z</time></trkpt><trkpt lat="45.1071083" lon="8.0928633"><ele>303.0</ele><time>2026-04-12T12:07:38.874Z</time></trkpt><trkpt lat="45.1071483" lon="8.092695"><ele>303.0</ele><time>2026-04-12T12:07:39.875Z</time></trkpt><trkpt lat="45.1071583" lon="8.092525"><ele>303.0</ele><time>2026-04-12T12:07:40.874Z</time></trkpt><trkpt lat="45.107155" lon="8.092355"><ele>303.0</ele><time>2026-04-12T12:07:41.874Z</time></trkpt><trkpt lat="45.1071233" lon="8.0922117"><ele>303.0</ele><time>2026-04-12T12:07:42.874Z</time></trkpt><trkpt lat="45.1070667" lon="8.0920617"><ele>301.5</ele><time>2026-04-12T12:07:43.874Z</time></trkpt><trkpt lat="45.1070067" lon="8.091905"><ele>300.0</ele><time>2026-04-12T12:07:44.874Z</time></trkpt><trkpt lat="45.1069317" lon="8.091725"><ele>298.5</ele><time>2026-04-12T12:07:45.874Z</time></trkpt><trkpt lat="45.1068567" lon="8.09154"><ele>297.0</ele><time>2026-04-12T12:07:46.875Z</time></trkpt><trkpt lat="45.1067783" lon="8.091355"><ele>297.0</ele><time>2026-04-12T12:07:47.874Z</time></trkpt><trkpt lat="45.106695" lon="8.0911683"><ele>297.0</ele><time>2026-04-12T12:07:48.875Z</time></trkpt><trkpt lat="45.1066217" lon="8.090985"><ele>297.0</ele><time>2026-04-12T12:07:49.875Z</time></trkpt><trkpt lat="45.1065583" lon="8.0907983"><ele>296.0</ele><time>2026-04-12T12:07:50.874Z</time></trkpt><trkpt lat="45.1065233" lon="8.0905967"><ele>295.0</ele><time>2026-04-12T12:07:51.874Z</time></trkpt><trkpt lat="45.1065033" lon="8.090375"><ele>294.0</ele><time>2026-04-12T12:07:52.875Z</time></trkpt><trkpt lat="45.106485" lon="8.09017"><ele>294.0</ele><time>2026-04-12T12:07:53.874Z</time></trkpt><trkpt lat="45.1064617" lon="8.0899633"><ele>294.0</ele><time>2026-04-12T12:07:54.874Z</time></trkpt><trkpt lat="45.1064267" lon="8.0897833"><ele>294.0</ele><time>2026-04-12T12:07:55.875Z</time></trkpt><trkpt lat="45.10637" lon="8.0896133"><ele>294.0</ele><time>2026-04-12T12:07:56.874Z</time></trkpt><trkpt lat="45.1062817" lon="8.0894533"><ele>292.75</ele><time>2026-04-12T12:07:57.874Z</time></trkpt><trkpt lat="45.1061933" lon="8.0893033"><ele>291.5</ele><time>2026-04-12T12:07:58.875Z</time></trkpt><trkpt lat="45.1061067" lon="8.0891483"><ele>290.25</ele><time>2026-04-12T12:07:59.874Z</time></trkpt><trkpt lat="45.106015" lon="8.08898"><ele>289.0</ele><time>2026-04-12T12:08:00.875Z</time></trkpt><trkpt lat="45.105925" lon="8.0888167"><ele>287.75</ele><time>2026-04-12T12:08:01.875Z</time></trkpt><trkpt lat="45.1058283" lon="8.088675"><ele>286.5</ele><time>2026-04-12T12:08:02.875Z</time></trkpt><trkpt lat="45.1057167" lon="8.0885467"><ele>285.25</ele><time>2026-04-12T12:08:03.875Z</time></trkpt><trkpt lat="45.1055983" lon="8.0884383"><ele>284.0</ele><time>2026-04-12T12:08:04.874Z</time></trkpt><trkpt lat="45.1054783" lon="8.0883183"><ele>281.25</ele><time>2026-04-12T12:08:05.875Z</time></trkpt><trkpt lat="45.1053633" lon="8.08819"><ele>278.5</ele><time>2026-04-12T12:08:06.875Z</time></trkpt><trkpt lat="45.1052483" lon="8.088065"><ele>275.75</ele><time>2026-04-12T12:08:07.875Z</time></trkpt><trkpt lat="45.1051367" lon="8.087965"><ele>273.0</ele><time>2026-04-12T12:08:08.874Z</time></trkpt><trkpt lat="45.1049967" lon="8.087895"><ele>274.0</ele><time>2026-04-12T12:08:09.874Z</time></trkpt><trkpt lat="45.1048467" lon="8.0878667"><ele>275.0</ele><time>2026-04-12T12:08:10.874Z</time></trkpt><trkpt lat="45.1046833" lon="8.0878533"><ele>276.0</ele><time>2026-04-12T12:08:11.874Z</time></trkpt><trkpt lat="45.1045217" lon="8.0878383"><ele>276.0</ele><time>2026-04-12T12:08:12.875Z</time></trkpt><trkpt lat="45.1043667" lon="8.087825"><ele>276.0</ele><time>2026-04-12T12:08:13.875Z</time></trkpt><trkpt lat="45.1042067" lon="8.08781"><ele>276.0</ele><time>2026-04-12T12:08:14.874Z</time></trkpt><trkpt lat="45.1040433" lon="8.0878117"><ele>274.0</ele><time>2026-04-12T12:08:15.874Z</time></trkpt><trkpt lat="45.1038767" lon="8.0877833"><ele>272.0</ele><time>2026-04-12T12:08:16.874Z</time></trkpt><trkpt lat="45.1037033" lon="8.0877667"><ele>270.0</ele><time>2026-04-12T12:08:17.875Z</time></trkpt><trkpt lat="45.1035317" lon="8.087745"><ele>270.0</ele><time>2026-04-12T12:08:18.874Z</time></trkpt><trkpt lat="45.1033583" lon="8.08774"><ele>270.0</ele><time>2026-04-12T12:08:19.875Z</time></trkpt><trkpt lat="45.1031967" lon="8.0877467"><ele>270.0</ele><time>2026-04-12T12:08:20.874Z</time></trkpt><trkpt lat="45.1030333" lon="8.0877633"><ele>270.3333333333333</ele><time>2026-04-12T12:08:21.874Z</time></trkpt><trkpt lat="45.1028633" lon="8.087775"><ele>270.66666666666663</ele><time>2026-04-12T12:08:22.875Z</time></trkpt><trkpt lat="45.1027017" lon="8.087775"><ele>271.0</ele><time>2026-04-12T12:08:23.874Z</time></trkpt><trkpt lat="45.10254" lon="8.0877883"><ele>269.3333333333333</ele><time>2026-04-12T12:08:24.875Z</time></trkpt><trkpt lat="45.10239" lon="8.087815"><ele>267.6666666666667</ele><time>2026-04-12T12:08:25.874Z</time></trkpt><trkpt lat="45.1022333" lon="8.0878517"><ele>266.0</ele><time>2026-04-12T12:08:26.874Z</time></trkpt><trkpt lat="45.102085" lon="8.0879133"><ele>266.0</ele><time>2026-04-12T12:08:27.874Z</time></trkpt><trkpt lat="45.1019417" lon="8.0879867"><ele>266.0</ele><time>2026-04-12T12:08:28.874Z</time></trkpt><trkpt lat="45.1017917" lon="8.088065"><ele>266.0</ele><time>2026-04-12T12:08:29.874Z</time></trkpt><trkpt lat="45.10164" lon="8.0881"><ele>268.0</ele><time>2026-04-12T12:08:30.875Z</time></trkpt><trkpt lat="45.1014767" lon="8.0880733"><ele>270.0</ele><time>2026-04-12T12:08:31.874Z</time></trkpt><trkpt lat="45.101325" lon="8.08802"><ele>272.0</ele><time>2026-04-12T12:08:32.874Z</time></trkpt><trkpt lat="45.1011783" lon="8.08795"><ele>272.0</ele><time>2026-04-12T12:08:33.874Z</time></trkpt><trkpt lat="45.101025" lon="8.0879017"><ele>272.0</ele><time>2026-04-12T12:08:34.875Z</time></trkpt><trkpt lat="45.1008733" lon="8.0879033"><ele>272.0</ele><time>2026-04-12T12:08:35.874Z</time></trkpt><trkpt lat="45.1007083" lon="8.0879433"><ele>271.0</ele><time>2026-04-12T12:08:36.874Z</time></trkpt><trkpt lat="45.1005417" lon="8.088005"><ele>270.0</ele><time>2026-04-12T12:08:37.875Z</time></trkpt><trkpt lat="45.100385" lon="8.0880717"><ele>269.0</ele><time>2026-04-12T12:08:38.875Z</time></trkpt><trkpt lat="45.10023" lon="8.0881133"><ele>269.0</ele><time>2026-04-12T12:08:39.875Z</time></trkpt><trkpt lat="45.100065" lon="8.0881033"><ele>269.0</ele><time>2026-04-12T12:08:40.875Z</time></trkpt><trkpt lat="45.0998983" lon="8.08805"><ele>269.0</ele><time>2026-04-12T12:08:41.874Z</time></trkpt><trkpt lat="45.0997283" lon="8.08796"><ele>268.0</ele><time>2026-04-12T12:08:42.874Z</time></trkpt><trkpt lat="45.0995683" lon="8.0878917"><ele>267.0</ele><time>2026-04-12T12:08:43.875Z</time></trkpt><trkpt lat="45.0994067" lon="8.0878117"><ele>266.0</ele><time>2026-04-12T12:08:44.875Z</time></trkpt><trkpt lat="45.0992567" lon="8.08773"><ele>266.0</ele><time>2026-04-12T12:08:45.875Z</time></trkpt><trkpt lat="45.0990983" lon="8.087655"><ele>266.0</ele><time>2026-04-12T12:08:46.875Z</time></trkpt><trkpt lat="45.098955" lon="8.0875883"><ele>266.0</ele><time>2026-04-12T12:08:47.875Z</time></trkpt><trkpt lat="45.0988133" lon="8.0875183"><ele>266.0</ele><time>2026-04-12T12:08:48.874Z</time></trkpt><trkpt lat="45.098675" lon="8.0874617"><ele>266.0</ele><time>2026-04-12T12:08:49.874Z</time></trkpt><trkpt lat="45.098565" lon="8.087415"><ele>266.0</ele><time>2026-04-12T12:08:50.874Z</time></trkpt><trkpt lat="45.0984517" lon="8.0873983"><ele>266.0</ele><time>2026-04-12T12:08:51.874Z</time></trkpt><trkpt lat="45.09835" lon="8.0873817"><ele>265.0</ele><time>2026-04-12T12:08:52.874Z</time></trkpt><trkpt lat="45.0982633" lon="8.087355"><ele>264.0</ele><time>2026-04-12T12:08:53.874Z</time></trkpt><trkpt lat="45.0981783" lon="8.087315"><ele>263.0</ele><time>2026-04-12T12:08:54.874Z</time></trkpt><trkpt lat="45.0980917" lon="8.0872583"><ele>262.0</ele><time>2026-04-12T12:08:55.875Z</time></trkpt><trkpt lat="45.098005" lon="8.087185"><ele>261.0</ele><time>2026-04-12T12:08:56.874Z</time></trkpt><trkpt lat="45.097905" lon="8.087095"><ele>261.0</ele><time>2026-04-12T12:08:57.875Z</time></trkpt><trkpt lat="45.0978017" lon="8.0870017"><ele>261.0</ele><time>2026-04-12T12:08:58.874Z</time></trkpt><trkpt lat="45.0976917" lon="8.0869167"><ele>261.0</ele><time>2026-04-12T12:08:59.874Z</time></trkpt><trkpt lat="45.09759" lon="8.0868317"><ele>261.0</ele><time>2026-04-12T12:09:00.875Z</time></trkpt><trkpt lat="45.0974917" lon="8.0867333"><ele>261.0</ele><time>2026-04-12T12:09:01.875Z</time></trkpt><trkpt lat="45.0973833" lon="8.0866317"><ele>261.0</ele><time>2026-04-12T12:09:02.874Z</time></trkpt><trkpt lat="45.0972767" lon="8.0865233"><ele>261.0</ele><time>2026-04-12T12:09:03.875Z</time></trkpt><trkpt lat="45.0971633" lon="8.0864267"><ele>261.0</ele><time>2026-04-12T12:09:04.874Z</time></trkpt><trkpt lat="45.0970467" lon="8.0863317"><ele>259.5</ele><time>2026-04-12T12:09:05.874Z</time></trkpt><trkpt lat="45.0969317" lon="8.0862333"><ele>258.0</ele><time>2026-04-12T12:09:06.874Z</time></trkpt><trkpt lat="45.0968167" lon="8.0861317"><ele>256.5</ele><time>2026-04-12T12:09:07.874Z</time></trkpt><trkpt lat="45.0967017" lon="8.0860233"><ele>255.0</ele><time>2026-04-12T12:09:08.874Z</time></trkpt><trkpt lat="45.0965883" lon="8.0859267"><ele>255.0</ele><time>2026-04-12T12:09:09.875Z</time></trkpt><trkpt lat="45.09648" lon="8.0858333"><ele>255.0</ele><time>2026-04-12T12:09:10.874Z</time></trkpt><trkpt lat="45.0963833" lon="8.0857567"><ele>255.0</ele><time>2026-04-12T12:09:11.875Z</time></trkpt><trkpt lat="45.0963067" lon="8.0856783"><ele>255.0</ele><time>2026-04-12T12:09:12.875Z</time></trkpt><trkpt lat="45.0962483" lon="8.0856033"><ele>255.0</ele><time>2026-04-12T12:09:13.874Z</time></trkpt><trkpt lat="45.096225" lon="8.0854483"><ele>254.75</ele><time>2026-04-12T12:09:15.874Z</time></trkpt><trkpt lat="45.096315" lon="8.0852917"><ele>254.5</ele><time>2026-04-12T12:09:17.875Z</time></trkpt><trkpt lat="45.096405" lon="8.0852183"><ele>254.25</ele><time>2026-04-12T12:09:18.875Z</time></trkpt><trkpt lat="45.0964983" lon="8.0851283"><ele>254.0</ele><time>2026-04-12T12:09:19.874Z</time></trkpt><trkpt lat="45.09659" lon="8.0850317"><ele>254.0</ele><time>2026-04-12T12:09:20.875Z</time></trkpt><trkpt lat="45.0966867" lon="8.0849367"><ele>254.0</ele><time>2026-04-12T12:09:21.874Z</time></trkpt><trkpt lat="45.09678" lon="8.0848267"><ele>254.0</ele><time>2026-04-12T12:09:22.875Z</time></trkpt><trkpt lat="45.0968833" lon="8.084725"><ele>254.0</ele><time>2026-04-12T12:09:23.875Z</time></trkpt><trkpt lat="45.09699" lon="8.084615"><ele>254.5</ele><time>2026-04-12T12:09:24.874Z</time></trkpt><trkpt lat="45.097095" lon="8.0845033"><ele>255.0</ele><time>2026-04-12T12:09:25.875Z</time></trkpt><trkpt lat="45.097215" lon="8.0843883"><ele>255.5</ele><time>2026-04-12T12:09:26.875Z</time></trkpt><trkpt lat="45.097325" lon="8.0842767"><ele>256.0</ele><time>2026-04-12T12:09:27.874Z</time></trkpt><trkpt lat="45.0974467" lon="8.0841567"><ele>256.66666666666663</ele><time>2026-04-12T12:09:28.874Z</time></trkpt><trkpt lat="45.0975733" lon="8.0840367"><ele>257.3333333333333</ele><time>2026-04-12T12:09:29.874Z</time></trkpt><trkpt lat="45.0976933" lon="8.0839067"><ele>258.0</ele><time>2026-04-12T12:09:30.874Z</time></trkpt><trkpt lat="45.09782" lon="8.083775"><ele>258.0</ele><time>2026-04-12T12:09:31.874Z</time></trkpt><trkpt lat="45.0979467" lon="8.0836367"><ele>258.0</ele><time>2026-04-12T12:09:32.874Z</time></trkpt><trkpt lat="45.0980783" lon="8.083495"><ele>258.0</ele><time>2026-04-12T12:09:33.874Z</time></trkpt><trkpt lat="45.0982067" lon="8.0833533"><ele>257.6666666666667</ele><time>2026-04-12T12:09:34.875Z</time></trkpt><trkpt lat="45.0983367" lon="8.0832233"><ele>257.33333333333337</ele><time>2026-04-12T12:09:35.874Z</time></trkpt><trkpt lat="45.0984583" lon="8.0830917"><ele>257.0</ele><time>2026-04-12T12:09:36.875Z</time></trkpt><trkpt lat="45.0985817" lon="8.082955"><ele>257.0</ele><time>2026-04-12T12:09:37.874Z</time></trkpt><trkpt lat="45.098695" lon="8.082815"><ele>257.0</ele><time>2026-04-12T12:09:38.875Z</time></trkpt><trkpt lat="45.0987983" lon="8.0826717"><ele>257.0</ele><time>2026-04-12T12:09:39.874Z</time></trkpt><trkpt lat="45.098895" lon="8.0825133"><ele>257.0</ele><time>2026-04-12T12:09:40.875Z</time></trkpt><trkpt lat="45.0989917" lon="8.082345"><ele>259.5</ele><time>2026-04-12T12:09:41.875Z</time></trkpt><trkpt lat="45.0990867" lon="8.0821817"><ele>262.0</ele><time>2026-04-12T12:09:42.874Z</time></trkpt><trkpt lat="45.09918" lon="8.0820233"><ele>264.5</ele><time>2026-04-12T12:09:43.875Z</time></trkpt><trkpt lat="45.0992717" lon="8.0818483"><ele>267.0</ele><time>2026-04-12T12:09:44.875Z</time></trkpt><trkpt lat="45.0993683" lon="8.0816817"><ele>264.6666666666667</ele><time>2026-04-12T12:09:45.874Z</time></trkpt><trkpt lat="45.0994617" lon="8.0815"><ele>262.33333333333337</ele><time>2026-04-12T12:09:46.874Z</time></trkpt><trkpt lat="45.099555" lon="8.0813383"><ele>260.0</ele><time>2026-04-12T12:09:47.874Z</time></trkpt><trkpt lat="45.099655" lon="8.0811733"><ele>260.0</ele><time>2026-04-12T12:09:48.875Z</time></trkpt><trkpt lat="45.0997433" lon="8.080985"><ele>260.0</ele><time>2026-04-12T12:09:49.875Z</time></trkpt><trkpt lat="45.09983" lon="8.0808117"><ele>260.0</ele><time>2026-04-12T12:09:50.874Z</time></trkpt><trkpt lat="45.0999167" lon="8.0806417"><ele>261.75</ele><time>2026-04-12T12:09:51.874Z</time></trkpt><trkpt lat="45.100005" lon="8.0804733"><ele>263.5</ele><time>2026-04-12T12:09:52.875Z</time></trkpt><trkpt lat="45.1000917" lon="8.0803033"><ele>265.25</ele><time>2026-04-12T12:09:53.874Z</time></trkpt><trkpt lat="45.1001783" lon="8.08013"><ele>267.0</ele><time>2026-04-12T12:09:54.875Z</time></trkpt><trkpt lat="45.1002767" lon="8.079965"><ele>266.25</ele><time>2026-04-12T12:09:55.874Z</time></trkpt><trkpt lat="45.1003617" lon="8.0797917"><ele>265.5</ele><time>2026-04-12T12:09:56.875Z</time></trkpt><trkpt lat="45.1004533" lon="8.0796333"><ele>264.75</ele><time>2026-04-12T12:09:57.875Z</time></trkpt><trkpt lat="45.1005417" lon="8.07946"><ele>264.0</ele><time>2026-04-12T12:09:58.874Z</time></trkpt><trkpt lat="45.1006367" lon="8.0792967"><ele>264.0</ele><time>2026-04-12T12:09:59.874Z</time></trkpt><trkpt lat="45.1007367" lon="8.0791267"><ele>264.0</ele><time>2026-04-12T12:10:00.874Z</time></trkpt><trkpt lat="45.10083" lon="8.0789633"><ele>264.0</ele><time>2026-04-12T12:10:01.875Z</time></trkpt><trkpt lat="45.1009133" lon="8.078795"><ele>264.25</ele><time>2026-04-12T12:10:02.875Z</time></trkpt><trkpt lat="45.101" lon="8.0786267"><ele>264.5</ele><time>2026-04-12T12:10:03.875Z</time></trkpt><trkpt lat="45.10109" lon="8.0784567"><ele>264.75</ele><time>2026-04-12T12:10:04.874Z</time></trkpt><trkpt lat="45.101175" lon="8.0782817"><ele>265.0</ele><time>2026-04-12T12:10:05.874Z</time></trkpt><trkpt lat="45.1012633" lon="8.0781083"><ele>265.0</ele><time>2026-04-12T12:10:06.875Z</time></trkpt><trkpt lat="45.1013583" lon="8.0779233"><ele>265.0</ele><time>2026-04-12T12:10:07.874Z</time></trkpt><trkpt lat="45.101455" lon="8.0777483"><ele>265.0</ele><time>2026-04-12T12:10:08.874Z</time></trkpt><trkpt lat="45.101555" lon="8.0775883"><ele>266.3333333333333</ele><time>2026-04-12T12:10:09.875Z</time></trkpt><trkpt lat="45.1016433" lon="8.0774083"><ele>267.6666666666667</ele><time>2026-04-12T12:10:10.875Z</time></trkpt><trkpt lat="45.1017417" lon="8.077235"><ele>269.0</ele><time>2026-04-12T12:10:11.874Z</time></trkpt><trkpt lat="45.1018317" lon="8.0770683"><ele>269.0</ele><time>2026-04-12T12:10:12.874Z</time></trkpt><trkpt lat="45.1019167" lon="8.0769167"><ele>269.0</ele><time>2026-04-12T12:10:13.874Z</time></trkpt><trkpt lat="45.101995" lon="8.076755"><ele>269.0</ele><time>2026-04-12T12:10:14.875Z</time></trkpt><trkpt lat="45.1020817" lon="8.0765983"><ele>269.0</ele><time>2026-04-12T12:10:15.875Z</time></trkpt><trkpt lat="45.1021567" lon="8.0764583"><ele>268.4</ele><time>2026-04-12T12:10:16.875Z</time></trkpt><trkpt lat="45.1022233" lon="8.0763283"><ele>267.79999999999995</ele><time>2026-04-12T12:10:17.874Z</time></trkpt><trkpt lat="45.1022783" lon="8.0761717"><ele>267.20000000000005</ele><time>2026-04-12T12:10:18.875Z</time></trkpt><trkpt lat="45.1023133" lon="8.07602"><ele>266.6</ele><time>2026-04-12T12:10:19.874Z</time></trkpt><trkpt lat="45.1023517" lon="8.07589"><ele>266.0</ele><time>2026-04-12T12:10:20.874Z</time></trkpt><trkpt lat="45.102385" lon="8.0757617"><ele>266.0</ele><time>2026-04-12T12:10:21.874Z</time></trkpt><trkpt lat="45.1024167" lon="8.0756533"><ele>266.0</ele><time>2026-04-12T12:10:22.874Z</time></trkpt><trkpt lat="45.10243" lon="8.0755483"><ele>266.0</ele><time>2026-04-12T12:10:23.875Z</time></trkpt><trkpt lat="45.10237" lon="8.07541"><ele>266.0</ele><time>2026-04-12T12:10:25.874Z</time></trkpt><trkpt lat="45.1023033" lon="8.0753483"><ele>266.0</ele><time>2026-04-12T12:10:26.874Z</time></trkpt><trkpt lat="45.1022183" lon="8.075275"><ele>266.0</ele><time>2026-04-12T12:10:27.874Z</time></trkpt><trkpt lat="45.10213" lon="8.0751917"><ele>266.0</ele><time>2026-04-12T12:10:28.875Z</time></trkpt><trkpt lat="45.1020433" lon="8.0750833"><ele>266.0</ele><time>2026-04-12T12:10:29.874Z</time></trkpt><trkpt lat="45.1019567" lon="8.0749617"><ele>266.0</ele><time>2026-04-12T12:10:30.875Z</time></trkpt><trkpt lat="45.101875" lon="8.0748233"><ele>265.5</ele><time>2026-04-12T12:10:31.874Z</time></trkpt><trkpt lat="45.1018083" lon="8.074665"><ele>265.0</ele><time>2026-04-12T12:10:32.874Z</time></trkpt><trkpt lat="45.101755" lon="8.074495"><ele>264.5</ele><time>2026-04-12T12:10:33.874Z</time></trkpt><trkpt lat="45.1017117" lon="8.07432"><ele>264.0</ele><time>2026-04-12T12:10:34.875Z</time></trkpt><trkpt lat="45.101665" lon="8.0741367"><ele>264.5</ele><time>2026-04-12T12:10:35.874Z</time></trkpt><trkpt lat="45.1016133" lon="8.073945"><ele>265.0</ele><time>2026-04-12T12:10:36.875Z</time></trkpt><trkpt lat="45.1015667" lon="8.0737617"><ele>265.5</ele><time>2026-04-12T12:10:37.875Z</time></trkpt><trkpt lat="45.1015067" lon="8.07358"><ele>266.0</ele><time>2026-04-12T12:10:38.875Z</time></trkpt><trkpt lat="45.10144" lon="8.0734167"><ele>267.25</ele><time>2026-04-12T12:10:39.875Z</time></trkpt><trkpt lat="45.1013533" lon="8.0732633"><ele>268.5</ele><time>2026-04-12T12:10:40.875Z</time></trkpt><trkpt lat="45.10127" lon="8.07312"><ele>269.75</ele><time>2026-04-12T12:10:41.875Z</time></trkpt><trkpt lat="45.1012017" lon="8.0729817"><ele>271.0</ele><time>2026-04-12T12:10:42.874Z</time></trkpt><trkpt lat="45.1011617" lon="8.0728267"><ele>271.0</ele><time>2026-04-12T12:10:43.875Z</time></trkpt><trkpt lat="45.1011517" lon="8.072665"><ele>271.0</ele><time>2026-04-12T12:10:44.874Z</time></trkpt><trkpt lat="45.101165" lon="8.0725133"><ele>271.0</ele><time>2026-04-12T12:10:45.874Z</time></trkpt><trkpt lat="45.10119" lon="8.0723933"><ele>271.0</ele><time>2026-04-12T12:10:46.875Z</time></trkpt><trkpt lat="45.1012267" lon="8.072295"><ele>271.0</ele><time>2026-04-12T12:10:47.874Z</time></trkpt><trkpt lat="45.1012817" lon="8.0722017"><ele>271.40000000000003</ele><time>2026-04-12T12:10:48.875Z</time></trkpt><trkpt lat="45.101345" lon="8.0721217"><ele>271.8</ele><time>2026-04-12T12:10:49.875Z</time></trkpt><trkpt lat="45.101405" lon="8.0720533"><ele>272.20000000000005</ele><time>2026-04-12T12:10:50.875Z</time></trkpt><trkpt lat="45.1014583" lon="8.07199"><ele>272.6</ele><time>2026-04-12T12:10:51.875Z</time></trkpt><trkpt lat="45.10152" lon="8.0718483"><ele>273.0</ele><time>2026-04-12T12:10:53.875Z</time></trkpt><trkpt lat="45.1015017" lon="8.07169"><ele>272.0</ele><time>2026-04-12T12:10:55.874Z</time></trkpt><trkpt lat="45.1014633" lon="8.07158"><ele>271.0</ele><time>2026-04-12T12:10:56.875Z</time></trkpt><trkpt lat="45.1014267" lon="8.0714583"><ele>270.0</ele><time>2026-04-12T12:10:57.875Z</time></trkpt><trkpt lat="45.1013883" lon="8.0713233"><ele>269.0</ele><time>2026-04-12T12:10:58.874Z</time></trkpt><trkpt lat="45.10134" lon="8.071185"><ele>268.0</ele><time>2026-04-12T12:10:59.875Z</time></trkpt><trkpt lat="45.1013083" lon="8.07103"><ele>268.0</ele><time>2026-04-12T12:11:00.874Z</time></trkpt><trkpt lat="45.1012717" lon="8.0708583"><ele>268.0</ele><time>2026-04-12T12:11:01.874Z</time></trkpt><trkpt lat="45.101255" lon="8.070675"><ele>268.0</ele><time>2026-04-12T12:11:02.874Z</time></trkpt><trkpt lat="45.1012383" lon="8.0704833"><ele>268.0</ele><time>2026-04-12T12:11:03.875Z</time></trkpt><trkpt lat="45.1012417" lon="8.0702967"><ele>268.5</ele><time>2026-04-12T12:11:04.875Z</time></trkpt><trkpt lat="45.101245" lon="8.0701017"><ele>269.0</ele><time>2026-04-12T12:11:05.875Z</time></trkpt><trkpt lat="45.1012533" lon="8.0698867"><ele>269.5</ele><time>2026-04-12T12:11:06.875Z</time></trkpt><trkpt lat="45.10126" lon="8.069675"><ele>270.0</ele><time>2026-04-12T12:11:07.875Z</time></trkpt><trkpt lat="45.1012683" lon="8.0694483"><ele>270.0</ele><time>2026-04-12T12:11:08.874Z</time></trkpt><trkpt lat="45.101275" lon="8.0692217"><ele>270.0</ele><time>2026-04-12T12:11:09.875Z</time></trkpt><trkpt lat="45.101285" lon="8.0689933"><ele>270.0</ele><time>2026-04-12T12:11:10.874Z</time></trkpt><trkpt lat="45.101295" lon="8.0687667"><ele>272.0</ele><time>2026-04-12T12:11:11.875Z</time></trkpt><trkpt lat="45.10132" lon="8.06854"><ele>274.0</ele><time>2026-04-12T12:11:12.875Z</time></trkpt><trkpt lat="45.1013567" lon="8.06832"><ele>276.0</ele><time>2026-04-12T12:11:13.874Z</time></trkpt><trkpt lat="45.1013933" lon="8.0681033"><ele>276.6666666666667</ele><time>2026-04-12T12:11:14.874Z</time></trkpt><trkpt lat="45.1014417" lon="8.0678833"><ele>277.33333333333337</ele><time>2026-04-12T12:11:15.875Z</time></trkpt><trkpt lat="45.1014733" lon="8.0676683"><ele>278.0</ele><time>2026-04-12T12:11:16.875Z</time></trkpt><trkpt lat="45.1015117" lon="8.0674533"><ele>279.33333333333337</ele><time>2026-04-12T12:11:17.874Z</time></trkpt><trkpt lat="45.1015667" lon="8.0672417"><ele>280.6666666666667</ele><time>2026-04-12T12:11:18.875Z</time></trkpt><trkpt lat="45.1016267" lon="8.06704"><ele>282.0</ele><time>2026-04-12T12:11:19.874Z</time></trkpt><trkpt lat="45.1016967" lon="8.066845"><ele>282.0</ele><time>2026-04-12T12:11:20.874Z</time></trkpt><trkpt lat="45.10177" lon="8.0666433"><ele>282.0</ele><time>2026-04-12T12:11:21.875Z</time></trkpt><trkpt lat="45.10185" lon="8.06644"><ele>282.0</ele><time>2026-04-12T12:11:22.874Z</time></trkpt><trkpt lat="45.10192" lon="8.0662517"><ele>281.6666666666667</ele><time>2026-04-12T12:11:23.874Z</time></trkpt><trkpt lat="45.1020017" lon="8.0660567"><ele>281.33333333333337</ele><time>2026-04-12T12:11:24.874Z</time></trkpt><trkpt lat="45.1020917" lon="8.06586"><ele>281.0</ele><time>2026-04-12T12:11:25.874Z</time></trkpt><trkpt lat="45.102185" lon="8.0656817"><ele>281.0</ele><time>2026-04-12T12:11:26.874Z</time></trkpt><trkpt lat="45.1022783" lon="8.0654917"><ele>281.0</ele><time>2026-04-12T12:11:27.874Z</time></trkpt><trkpt lat="45.1023733" lon="8.0652983"><ele>281.0</ele><time>2026-04-12T12:11:28.874Z</time></trkpt><trkpt lat="45.1024633" lon="8.06511"><ele>281.33333333333337</ele><time>2026-04-12T12:11:29.875Z</time></trkpt><trkpt lat="45.1025483" lon="8.0649167"><ele>281.6666666666667</ele><time>2026-04-12T12:11:30.874Z</time></trkpt><trkpt lat="45.1026433" lon="8.0647283"><ele>282.0</ele><time>2026-04-12T12:11:31.875Z</time></trkpt><trkpt lat="45.102745" lon="8.0645467"><ele>282.0</ele><time>2026-04-12T12:11:32.874Z</time></trkpt><trkpt lat="45.10285" lon="8.0643683"><ele>282.0</ele><time>2026-04-12T12:11:33.874Z</time></trkpt><trkpt lat="45.102955" lon="8.0641983"><ele>282.0</ele><time>2026-04-12T12:11:34.874Z</time></trkpt><trkpt lat="45.1030583" lon="8.0640417"><ele>281.5</ele><time>2026-04-12T12:11:35.875Z</time></trkpt><trkpt lat="45.1031717" lon="8.0639"><ele>281.0</ele><time>2026-04-12T12:11:36.874Z</time></trkpt><trkpt lat="45.1032783" lon="8.063755"><ele>280.5</ele><time>2026-04-12T12:11:37.875Z</time></trkpt><trkpt lat="45.1033767" lon="8.0635983"><ele>280.0</ele><time>2026-04-12T12:11:38.875Z</time></trkpt><trkpt lat="45.103465" lon="8.0634283"><ele>280.25</ele><time>2026-04-12T12:11:39.874Z</time></trkpt><trkpt lat="45.103535" lon="8.0632517"><ele>280.5</ele><time>2026-04-12T12:11:40.875Z</time></trkpt><trkpt lat="45.1036033" lon="8.0630633"><ele>280.75</ele><time>2026-04-12T12:11:41.875Z</time></trkpt><trkpt lat="45.10366" lon="8.06287"><ele>281.0</ele><time>2026-04-12T12:11:42.875Z</time></trkpt><trkpt lat="45.10374" lon="8.0626917"><ele>281.0</ele><time>2026-04-12T12:11:43.874Z</time></trkpt><trkpt lat="45.1038283" lon="8.0625067"><ele>281.0</ele><time>2026-04-12T12:11:44.874Z</time></trkpt><trkpt lat="45.1039383" lon="8.0623317"><ele>281.0</ele><time>2026-04-12T12:11:45.874Z</time></trkpt><trkpt lat="45.104055" lon="8.0621767"><ele>282.0</ele><time>2026-04-12T12:11:46.874Z</time></trkpt><trkpt lat="45.104165" lon="8.0620167"><ele>283.0</ele><time>2026-04-12T12:11:47.874Z</time></trkpt><trkpt lat="45.10426" lon="8.06185"><ele>284.0</ele><time>2026-04-12T12:11:48.874Z</time></trkpt><trkpt lat="45.1043467" lon="8.061665"><ele>283.5</ele><time>2026-04-12T12:11:49.875Z</time></trkpt><trkpt lat="45.1044033" lon="8.0614783"><ele>283.0</ele><time>2026-04-12T12:11:50.875Z</time></trkpt><trkpt lat="45.104465" lon="8.061285"><ele>282.5</ele><time>2026-04-12T12:11:51.874Z</time></trkpt><trkpt lat="45.104505" lon="8.0610783"><ele>282.0</ele><time>2026-04-12T12:11:52.874Z</time></trkpt><trkpt lat="45.1045433" lon="8.060875"><ele>283.0</ele><time>2026-04-12T12:11:53.874Z</time></trkpt><trkpt lat="45.1045967" lon="8.0606767"><ele>284.0</ele><time>2026-04-12T12:11:54.875Z</time></trkpt><trkpt lat="45.1046767" lon="8.0604967"><ele>285.0</ele><time>2026-04-12T12:11:55.874Z</time></trkpt><trkpt lat="45.1047833" lon="8.060335"><ele>285.0</ele><time>2026-04-12T12:11:56.874Z</time></trkpt><trkpt lat="45.1048933" lon="8.0601967"><ele>285.0</ele><time>2026-04-12T12:11:57.875Z</time></trkpt><trkpt lat="45.1049783" lon="8.0600483"><ele>285.0</ele><time>2026-04-12T12:11:58.874Z</time></trkpt><trkpt lat="45.1050367" lon="8.0598717"><ele>285.0</ele><time>2026-04-12T12:11:59.874Z</time></trkpt><trkpt lat="45.1050567" lon="8.0596667"><ele>286.25</ele><time>2026-04-12T12:12:00.874Z</time></trkpt><trkpt lat="45.105065" lon="8.0594667"><ele>287.5</ele><time>2026-04-12T12:12:01.875Z</time></trkpt><trkpt lat="45.1050717" lon="8.0592733"><ele>288.75</ele><time>2026-04-12T12:12:02.875Z</time></trkpt><trkpt lat="45.1050817" lon="8.0590767"><ele>290.0</ele><time>2026-04-12T12:12:03.874Z</time></trkpt><trkpt lat="45.1050967" lon="8.0588633"><ele>290.0</ele><time>2026-04-12T12:12:04.874Z</time></trkpt><trkpt lat="45.1051083" lon="8.0586567"><ele>290.0</ele><time>2026-04-12T12:12:05.875Z</time></trkpt><trkpt lat="45.1051483" lon="8.058465"><ele>290.0</ele><time>2026-04-12T12:12:06.875Z</time></trkpt><trkpt lat="45.1051883" lon="8.05827"><ele>290.0</ele><time>2026-04-12T12:12:07.875Z</time></trkpt><trkpt lat="45.1052417" lon="8.0580667"><ele>288.6666666666667</ele><time>2026-04-12T12:12:08.875Z</time></trkpt><trkpt lat="45.1052967" lon="8.0578667"><ele>287.3333333333333</ele><time>2026-04-12T12:12:09.875Z</time></trkpt><trkpt lat="45.105355" lon="8.0576667"><ele>286.0</ele><time>2026-04-12T12:12:10.875Z</time></trkpt><trkpt lat="45.1054183" lon="8.0574633"><ele>287.0</ele><time>2026-04-12T12:12:11.874Z</time></trkpt><trkpt lat="45.1054733" lon="8.0572633"><ele>288.0</ele><time>2026-04-12T12:12:12.874Z</time></trkpt><trkpt lat="45.1055433" lon="8.05707"><ele>289.0</ele><time>2026-04-12T12:12:13.874Z</time></trkpt><trkpt lat="45.105625" lon="8.056885"><ele>289.0</ele><time>2026-04-12T12:12:14.875Z</time></trkpt><trkpt lat="45.1057133" lon="8.0566967"><ele>289.0</ele><time>2026-04-12T12:12:15.874Z</time></trkpt><trkpt lat="45.1057967" lon="8.0565183"><ele>289.0</ele><time>2026-04-12T12:12:16.875Z</time></trkpt><trkpt lat="45.1058833" lon="8.0563417"><ele>289.66666666666663</ele><time>2026-04-12T12:12:17.874Z</time></trkpt><trkpt lat="45.1059633" lon="8.05617"><ele>290.3333333333333</ele><time>2026-04-12T12:12:18.875Z</time></trkpt><trkpt lat="45.1060467" lon="8.0559967"><ele>291.0</ele><time>2026-04-12T12:12:19.875Z</time></trkpt><trkpt lat="45.1061417" lon="8.0558117"><ele>292.6666666666667</ele><time>2026-04-12T12:12:20.874Z</time></trkpt><trkpt lat="45.1062283" lon="8.055635"><ele>294.33333333333337</ele><time>2026-04-12T12:12:21.874Z</time></trkpt><trkpt lat="45.1063083" lon="8.0554567"><ele>296.0</ele><time>2026-04-12T12:12:22.875Z</time></trkpt><trkpt lat="45.106395" lon="8.0552833"><ele>296.0</ele><time>2026-04-12T12:12:23.875Z</time></trkpt><trkpt lat="45.1064867" lon="8.0551283"><ele>296.0</ele><time>2026-04-12T12:12:24.874Z</time></trkpt><trkpt lat="45.1065867" lon="8.0549767"><ele>296.0</ele><time>2026-04-12T12:12:25.874Z</time></trkpt><trkpt lat="45.1066833" lon="8.0548367"><ele>296.0</ele><time>2026-04-12T12:12:26.875Z</time></trkpt><trkpt lat="45.106775" lon="8.0546967"><ele>296.0</ele><time>2026-04-12T12:12:27.874Z</time></trkpt><trkpt lat="45.1068583" lon="8.0545333"><ele>296.0</ele><time>2026-04-12T12:12:28.874Z</time></trkpt><trkpt lat="45.10693" lon="8.05436"><ele>296.0</ele><time>2026-04-12T12:12:29.875Z</time></trkpt><trkpt lat="45.1069967" lon="8.0541867"><ele>296.0</ele><time>2026-04-12T12:12:30.874Z</time></trkpt><trkpt lat="45.107065" lon="8.0539967"><ele>296.0</ele><time>2026-04-12T12:12:31.875Z</time></trkpt><trkpt lat="45.1071317" lon="8.0538133"><ele>296.0</ele><time>2026-04-12T12:12:32.875Z</time></trkpt><trkpt lat="45.10719" lon="8.0536267"><ele>296.0</ele><time>2026-04-12T12:12:33.874Z</time></trkpt><trkpt lat="45.1072583" lon="8.0534367"><ele>296.0</ele><time>2026-04-12T12:12:34.874Z</time></trkpt><trkpt lat="45.1073267" lon="8.05325"><ele>295.6666666666667</ele><time>2026-04-12T12:12:35.875Z</time></trkpt><trkpt lat="45.1074" lon="8.0530433"><ele>295.3333333333333</ele><time>2026-04-12T12:12:36.875Z</time></trkpt><trkpt lat="45.1074517" lon="8.0528433"><ele>295.0</ele><time>2026-04-12T12:12:37.874Z</time></trkpt><trkpt lat="45.107505" lon="8.052625"><ele>294.66666666666663</ele><time>2026-04-12T12:12:38.875Z</time></trkpt><trkpt lat="45.1075517" lon="8.0524067"><ele>294.3333333333333</ele><time>2026-04-12T12:12:39.875Z</time></trkpt><trkpt lat="45.1076067" lon="8.0521933"><ele>294.0</ele><time>2026-04-12T12:12:40.875Z</time></trkpt><trkpt lat="45.1076733" lon="8.0519933"><ele>294.0</ele><time>2026-04-12T12:12:41.874Z</time></trkpt><trkpt lat="45.1077533" lon="8.0518217"><ele>294.0</ele><time>2026-04-12T12:12:42.875Z</time></trkpt><trkpt lat="45.107855" lon="8.0516567"><ele>294.0</ele><time>2026-04-12T12:12:43.874Z</time></trkpt><trkpt lat="45.1079567" lon="8.051515"><ele>294.0</ele><time>2026-04-12T12:12:44.875Z</time></trkpt><trkpt lat="45.10806" lon="8.0513817"><ele>295.0</ele><time>2026-04-12T12:12:45.875Z</time></trkpt><trkpt lat="45.1081517" lon="8.051235"><ele>296.0</ele><time>2026-04-12T12:12:46.874Z</time></trkpt><trkpt lat="45.10823" lon="8.05107"><ele>297.0</ele><time>2026-04-12T12:12:47.875Z</time></trkpt><trkpt lat="45.1082817" lon="8.0508883"><ele>298.0</ele><time>2026-04-12T12:12:48.875Z</time></trkpt><trkpt lat="45.1083117" lon="8.05069"><ele>299.0</ele><time>2026-04-12T12:12:49.874Z</time></trkpt><trkpt lat="45.1083283" lon="8.0504817"><ele>300.0</ele><time>2026-04-12T12:12:50.875Z</time></trkpt><trkpt lat="45.10836" lon="8.0502633"><ele>301.0</ele><time>2026-04-12T12:12:51.874Z</time></trkpt><trkpt lat="45.108395" lon="8.05007"><ele>302.0</ele><time>2026-04-12T12:12:52.874Z</time></trkpt><trkpt lat="45.10844" lon="8.0498767"><ele>302.0</ele><time>2026-04-12T12:12:53.875Z</time></trkpt><trkpt lat="45.1084883" lon="8.0496833"><ele>302.0</ele><time>2026-04-12T12:12:54.874Z</time></trkpt><trkpt lat="45.10852" lon="8.0494917"><ele>302.0</ele><time>2026-04-12T12:12:55.874Z</time></trkpt><trkpt lat="45.1085233" lon="8.0492883"><ele>302.0</ele><time>2026-04-12T12:12:56.875Z</time></trkpt><trkpt lat="45.1084933" lon="8.0491117"><ele>302.75</ele><time>2026-04-12T12:12:57.875Z</time></trkpt><trkpt lat="45.1084517" lon="8.0489317"><ele>303.5</ele><time>2026-04-12T12:12:58.875Z</time></trkpt><trkpt lat="45.108415" lon="8.0487417"><ele>304.25</ele><time>2026-04-12T12:12:59.874Z</time></trkpt><trkpt lat="45.1083983" lon="8.0485383"><ele>305.0</ele><time>2026-04-12T12:13:00.874Z</time></trkpt><trkpt lat="45.1083883" lon="8.04834"><ele>305.25</ele><time>2026-04-12T12:13:01.875Z</time></trkpt><trkpt lat="45.1083917" lon="8.0481367"><ele>305.5</ele><time>2026-04-12T12:13:02.874Z</time></trkpt><trkpt lat="45.1083867" lon="8.04793"><ele>305.75</ele><time>2026-04-12T12:13:03.875Z</time></trkpt><trkpt lat="45.1083883" lon="8.047725"><ele>306.0</ele><time>2026-04-12T12:13:04.875Z</time></trkpt><trkpt lat="45.1083817" lon="8.0475167"><ele>306.0</ele><time>2026-04-12T12:13:05.874Z</time></trkpt><trkpt lat="45.1083633" lon="8.0473083"><ele>306.0</ele><time>2026-04-12T12:13:06.874Z</time></trkpt><trkpt lat="45.1083433" lon="8.0470967"><ele>306.0</ele><time>2026-04-12T12:13:07.875Z</time></trkpt><trkpt lat="45.1083317" lon="8.04689"><ele>306.0</ele><time>2026-04-12T12:13:08.875Z</time></trkpt><trkpt lat="45.1083333" lon="8.04667"><ele>306.5</ele><time>2026-04-12T12:13:09.875Z</time></trkpt><trkpt lat="45.1083583" lon="8.04645"><ele>307.0</ele><time>2026-04-12T12:13:10.874Z</time></trkpt><trkpt lat="45.1083983" lon="8.04625"><ele>307.5</ele><time>2026-04-12T12:13:11.875Z</time></trkpt><trkpt lat="45.1084467" lon="8.0460567"><ele>308.0</ele><time>2026-04-12T12:13:12.875Z</time></trkpt><trkpt lat="45.1084933" lon="8.04586"><ele>309.0</ele><time>2026-04-12T12:13:13.875Z</time></trkpt><trkpt lat="45.108525" lon="8.0456633"><ele>310.0</ele><time>2026-04-12T12:13:14.874Z</time></trkpt><trkpt lat="45.1085483" lon="8.045465"><ele>311.0</ele><time>2026-04-12T12:13:15.875Z</time></trkpt><trkpt lat="45.1085867" lon="8.0452533"><ele>312.0</ele><time>2026-04-12T12:13:16.875Z</time></trkpt><trkpt lat="45.10863" lon="8.04506"><ele>312.5</ele><time>2026-04-12T12:13:17.875Z</time></trkpt><trkpt lat="45.1086667" lon="8.0448567"><ele>313.0</ele><time>2026-04-12T12:13:18.875Z</time></trkpt><trkpt lat="45.1087033" lon="8.0446483"><ele>313.5</ele><time>2026-04-12T12:13:19.875Z</time></trkpt><trkpt lat="45.1087283" lon="8.04444"><ele>314.0</ele><time>2026-04-12T12:13:20.875Z</time></trkpt><trkpt lat="45.1087417" lon="8.0442283"><ele>315.0</ele><time>2026-04-12T12:13:21.875Z</time></trkpt><trkpt lat="45.1087417" lon="8.0440167"><ele>316.0</ele><time>2026-04-12T12:13:22.874Z</time></trkpt><trkpt lat="45.1087367" lon="8.04381"><ele>317.0</ele><time>2026-04-12T12:13:23.874Z</time></trkpt><trkpt lat="45.1087317" lon="8.0436217"><ele>318.0</ele><time>2026-04-12T12:13:24.875Z</time></trkpt><trkpt lat="45.1087267" lon="8.04342"><ele>318.5</ele><time>2026-04-12T12:13:25.875Z</time></trkpt><trkpt lat="45.10873" lon="8.0432283"><ele>319.0</ele><time>2026-04-12T12:13:26.874Z</time></trkpt><trkpt lat="45.1087283" lon="8.04303"><ele>319.5</ele><time>2026-04-12T12:13:27.874Z</time></trkpt><trkpt lat="45.1087367" lon="8.0428467"><ele>320.0</ele><time>2026-04-12T12:13:28.875Z</time></trkpt><trkpt lat="45.1087483" lon="8.042675"><ele>320.0</ele><time>2026-04-12T12:13:29.874Z</time></trkpt><trkpt lat="45.1087667" lon="8.04251"><ele>320.0</ele><time>2026-04-12T12:13:30.874Z</time></trkpt><trkpt lat="45.10877" lon="8.042375"><ele>320.0</ele><time>2026-04-12T12:13:31.875Z</time></trkpt><trkpt lat="45.1087733" lon="8.042245"><ele>320.0</ele><time>2026-04-12T12:13:32.875Z</time></trkpt><trkpt lat="45.1087717" lon="8.042145"><ele>320.0</ele><time>2026-04-12T12:13:33.874Z</time></trkpt><trkpt lat="45.1087667" lon="8.0419917"><ele>319.4</ele><time>2026-04-12T12:13:35.874Z</time></trkpt><trkpt lat="45.1087567" lon="8.0418633"><ele>318.8</ele><time>2026-04-12T12:13:37.875Z</time></trkpt><trkpt lat="45.108765" lon="8.04172"><ele>318.2</ele><time>2026-04-12T12:13:39.874Z</time></trkpt><trkpt lat="45.10877" lon="8.04154"><ele>317.6</ele><time>2026-04-12T12:13:41.875Z</time></trkpt><trkpt lat="45.1087683" lon="8.0414333"><ele>317.0</ele><time>2026-04-12T12:13:42.874Z</time></trkpt><trkpt lat="45.1087383" lon="8.0413317"><ele>317.0</ele><time>2026-04-12T12:13:43.875Z</time></trkpt><trkpt lat="45.1087167" lon="8.041215"><ele>317.0</ele><time>2026-04-12T12:13:44.874Z</time></trkpt><trkpt lat="45.1086883" lon="8.0411083"><ele>317.0</ele><time>2026-04-12T12:13:45.875Z</time></trkpt><trkpt lat="45.1086717" lon="8.041"><ele>317.0</ele><time>2026-04-12T12:13:46.874Z</time></trkpt><trkpt lat="45.108665" lon="8.0408833"><ele>317.0</ele><time>2026-04-12T12:13:47.875Z</time></trkpt><trkpt lat="45.1086683" lon="8.0407783"><ele>317.0</ele><time>2026-04-12T12:13:48.874Z</time></trkpt><trkpt lat="45.10869" lon="8.0406617"><ele>317.0</ele><time>2026-04-12T12:13:49.874Z</time></trkpt><trkpt lat="45.108715" lon="8.0405533"><ele>317.0</ele><time>2026-04-12T12:13:50.874Z</time></trkpt><trkpt lat="45.1087567" lon="8.0404283"><ele>317.0</ele><time>2026-04-12T12:13:51.875Z</time></trkpt><trkpt lat="45.1087983" lon="8.0403067"><ele>317.0</ele><time>2026-04-12T12:13:52.874Z</time></trkpt><trkpt lat="45.1088417" lon="8.0401883"><ele>317.0</ele><time>2026-04-12T12:13:53.874Z</time></trkpt><trkpt lat="45.10888" lon="8.04007"><ele>317.0</ele><time>2026-04-12T12:13:54.874Z</time></trkpt><trkpt lat="45.10892" lon="8.0399683"><ele>317.0</ele><time>2026-04-12T12:13:55.874Z</time></trkpt><trkpt lat="45.1089683" lon="8.0398617"><ele>317.0</ele><time>2026-04-12T12:13:56.874Z</time></trkpt><trkpt lat="45.1090233" lon="8.0397633"><ele>317.0</ele><time>2026-04-12T12:13:57.875Z</time></trkpt><trkpt lat="45.1090767" lon="8.0396783"><ele>317.0</ele><time>2026-04-12T12:13:58.874Z</time></trkpt><trkpt lat="45.1091317" lon="8.03958"><ele>317.0</ele><time>2026-04-12T12:13:59.874Z</time></trkpt><trkpt lat="45.10919" lon="8.039495"><ele>317.0</ele><time>2026-04-12T12:14:00.874Z</time></trkpt><trkpt lat="45.1092417" lon="8.0394167"><ele>317.0</ele><time>2026-04-12T12:14:01.874Z</time></trkpt><trkpt lat="45.1092983" lon="8.0393317"><ele>317.0</ele><time>2026-04-12T12:14:02.875Z</time></trkpt><trkpt lat="45.1093433" lon="8.03924"><ele>317.0</ele><time>2026-04-12T12:14:03.874Z</time></trkpt><trkpt lat="45.1093817" lon="8.0391533"><ele>317.0</ele><time>2026-04-12T12:14:04.874Z</time></trkpt><trkpt lat="45.1094183" lon="8.0390617"><ele>317.0</ele><time>2026-04-12T12:14:05.875Z</time></trkpt><trkpt lat="45.1094633" lon="8.038975"><ele>317.5</ele><time>2026-04-12T12:14:06.874Z</time></trkpt><trkpt lat="45.1095267" lon="8.0389067"><ele>318.0</ele><time>2026-04-12T12:14:07.875Z</time></trkpt><trkpt lat="45.1096" lon="8.038855"><ele>318.5</ele><time>2026-04-12T12:14:08.875Z</time></trkpt><trkpt lat="45.1096767" lon="8.0388017"><ele>319.0</ele><time>2026-04-12T12:14:09.875Z</time></trkpt><trkpt lat="45.109755" lon="8.03875"><ele>319.5</ele><time>2026-04-12T12:14:10.874Z</time></trkpt><trkpt lat="45.1098267" lon="8.0386867"><ele>320.0</ele><time>2026-04-12T12:14:11.874Z</time></trkpt><trkpt lat="45.1099" lon="8.0386183"><ele>321.6</ele><time>2026-04-12T12:14:12.875Z</time></trkpt><trkpt lat="45.1099667" lon="8.0385317"><ele>323.2</ele><time>2026-04-12T12:14:13.874Z</time></trkpt><trkpt lat="45.1100083" lon="8.0384267"><ele>324.79999999999995</ele><time>2026-04-12T12:14:14.874Z</time></trkpt><trkpt lat="45.110045" lon="8.0383183"><ele>326.4</ele><time>2026-04-12T12:14:15.874Z</time></trkpt><trkpt lat="45.11007" lon="8.0381867"><ele>328.0</ele><time>2026-04-12T12:14:16.875Z</time></trkpt><trkpt lat="45.110085" lon="8.038045"><ele>328.59999999999997</ele><time>2026-04-12T12:14:17.874Z</time></trkpt><trkpt lat="45.1100817" lon="8.0379017"><ele>329.2</ele><time>2026-04-12T12:14:18.875Z</time></trkpt><trkpt lat="45.1100733" lon="8.0377583"><ele>329.8</ele><time>2026-04-12T12:14:19.874Z</time></trkpt><trkpt lat="45.11005" lon="8.0376033"><ele>330.4</ele><time>2026-04-12T12:14:20.875Z</time></trkpt><trkpt lat="45.1100183" lon="8.03746"><ele>331.0</ele><time>2026-04-12T12:14:21.875Z</time></trkpt><trkpt lat="45.1099833" lon="8.0373167"><ele>331.6</ele><time>2026-04-12T12:14:22.874Z</time></trkpt><trkpt lat="45.10995" lon="8.03718"><ele>332.20000000000005</ele><time>2026-04-12T12:14:23.874Z</time></trkpt><trkpt lat="45.109925" lon="8.0370467"><ele>332.79999999999995</ele><time>2026-04-12T12:14:24.874Z</time></trkpt><trkpt lat="45.1099233" lon="8.036895"><ele>333.4</ele><time>2026-04-12T12:14:25.874Z</time></trkpt><trkpt lat="45.109945" lon="8.0367433"><ele>334.0</ele><time>2026-04-12T12:14:26.875Z</time></trkpt><trkpt lat="45.1099783" lon="8.03659"><ele>334.5</ele><time>2026-04-12T12:14:27.874Z</time></trkpt><trkpt lat="45.1100167" lon="8.0364417"><ele>335.0</ele><time>2026-04-12T12:14:28.874Z</time></trkpt><trkpt lat="45.1100517" lon="8.0362783"><ele>335.5</ele><time>2026-04-12T12:14:29.875Z</time></trkpt><trkpt lat="45.1100783" lon="8.0361217"><ele>336.0</ele><time>2026-04-12T12:14:30.874Z</time></trkpt><trkpt lat="45.1101033" lon="8.03595"><ele>335.5</ele><time>2026-04-12T12:14:31.874Z</time></trkpt><trkpt lat="45.110135" lon="8.03578"><ele>335.0</ele><time>2026-04-12T12:14:32.874Z</time></trkpt><trkpt lat="45.1101617" lon="8.0356167"><ele>334.5</ele><time>2026-04-12T12:14:33.874Z</time></trkpt><trkpt lat="45.11019" lon="8.0354467"><ele>334.0</ele><time>2026-04-12T12:14:34.874Z</time></trkpt><trkpt lat="45.110225" lon="8.0352817"><ele>334.0</ele><time>2026-04-12T12:14:35.874Z</time></trkpt><trkpt lat="45.1102717" lon="8.0351417"><ele>334.0</ele><time>2026-04-12T12:14:36.874Z</time></trkpt><trkpt lat="45.1103367" lon="8.0350083"><ele>334.0</ele><time>2026-04-12T12:14:37.874Z</time></trkpt><trkpt lat="45.11041" lon="8.03488"><ele>334.0</ele><time>2026-04-12T12:14:38.875Z</time></trkpt><trkpt lat="45.110485" lon="8.034765"><ele>333.2</ele><time>2026-04-12T12:14:39.875Z</time></trkpt><trkpt lat="45.1105617" lon="8.0346567"><ele>332.4</ele><time>2026-04-12T12:14:40.874Z</time></trkpt><trkpt lat="45.1106417" lon="8.034575"><ele>331.6</ele><time>2026-04-12T12:14:41.874Z</time></trkpt><trkpt lat="45.110725" lon="8.0345333"><ele>330.8</ele><time>2026-04-12T12:14:42.875Z</time></trkpt><trkpt lat="45.110815" lon="8.0345317"><ele>330.0</ele><time>2026-04-12T12:14:43.874Z</time></trkpt><trkpt lat="45.1109167" lon="8.034515"><ele>333.2</ele><time>2026-04-12T12:14:44.875Z</time></trkpt><trkpt lat="45.1110083" lon="8.0344667"><ele>336.4</ele><time>2026-04-12T12:14:45.874Z</time></trkpt><trkpt lat="45.11109" lon="8.0343967"><ele>339.6</ele><time>2026-04-12T12:14:46.874Z</time></trkpt><trkpt lat="45.1111633" lon="8.0343033"><ele>342.8</ele><time>2026-04-12T12:14:47.874Z</time></trkpt><trkpt lat="45.1112283" lon="8.034195"><ele>346.0</ele><time>2026-04-12T12:14:48.875Z</time></trkpt><trkpt lat="45.1113" lon="8.0340833"><ele>346.0</ele><time>2026-04-12T12:14:49.875Z</time></trkpt><trkpt lat="45.1113667" lon="8.0339733"><ele>346.0</ele><time>2026-04-12T12:14:50.874Z</time></trkpt><trkpt lat="45.1114367" lon="8.0338767"><ele>346.0</ele><time>2026-04-12T12:14:51.874Z</time></trkpt><trkpt lat="45.1115117" lon="8.03379"><ele>346.0</ele><time>2026-04-12T12:14:52.874Z</time></trkpt><trkpt lat="45.11159" lon="8.033695"><ele>346.0</ele><time>2026-04-12T12:14:53.875Z</time></trkpt><trkpt lat="45.11167" lon="8.0335983"><ele>347.25</ele><time>2026-04-12T12:14:54.875Z</time></trkpt><trkpt lat="45.11176" lon="8.0335"><ele>348.5</ele><time>2026-04-12T12:14:55.874Z</time></trkpt><trkpt lat="45.111855" lon="8.0334217"><ele>349.75</ele><time>2026-04-12T12:14:56.875Z</time></trkpt><trkpt lat="45.1119533" lon="8.033355"><ele>351.0</ele><time>2026-04-12T12:14:57.874Z</time></trkpt><trkpt lat="45.11207" lon="8.0332867"><ele>351.0</ele><time>2026-04-12T12:14:58.874Z</time></trkpt><trkpt lat="45.11218" lon="8.033205"><ele>351.0</ele><time>2026-04-12T12:14:59.874Z</time></trkpt><trkpt lat="45.1122967" lon="8.03312"><ele>351.0</ele><time>2026-04-12T12:15:00.874Z</time></trkpt><trkpt lat="45.11241" lon="8.0330333"><ele>351.0</ele><time>2026-04-12T12:15:01.874Z</time></trkpt><trkpt lat="45.1125333" lon="8.0329633"><ele>353.5</ele><time>2026-04-12T12:15:02.875Z</time></trkpt><trkpt lat="45.1126517" lon="8.0329167"><ele>356.0</ele><time>2026-04-12T12:15:03.875Z</time></trkpt><trkpt lat="45.1127783" lon="8.0328733"><ele>358.5</ele><time>2026-04-12T12:15:04.875Z</time></trkpt><trkpt lat="45.1129033" lon="8.0328567"><ele>361.0</ele><time>2026-04-12T12:15:05.874Z</time></trkpt><trkpt lat="45.113025" lon="8.03286"><ele>361.0</ele><time>2026-04-12T12:15:06.874Z</time></trkpt><trkpt lat="45.1131433" lon="8.0328733"><ele>361.0</ele><time>2026-04-12T12:15:07.874Z</time></trkpt><trkpt lat="45.11326" lon="8.0328767"><ele>361.0</ele><time>2026-04-12T12:15:08.875Z</time></trkpt><trkpt lat="45.1133583" lon="8.032845"><ele>361.0</ele><time>2026-04-12T12:15:09.874Z</time></trkpt><trkpt lat="45.11344" lon="8.03278"><ele>361.0</ele><time>2026-04-12T12:15:10.874Z</time></trkpt><trkpt lat="45.1135017" lon="8.0326583"><ele>363.0</ele><time>2026-04-12T12:15:11.875Z</time></trkpt><trkpt lat="45.11353" lon="8.0325233"><ele>365.0</ele><time>2026-04-12T12:15:12.874Z</time></trkpt><trkpt lat="45.1135367" lon="8.0323817"><ele>367.0</ele><time>2026-04-12T12:15:13.874Z</time></trkpt><trkpt lat="45.1135367" lon="8.0322233"><ele>369.0</ele><time>2026-04-12T12:15:14.875Z</time></trkpt><trkpt lat="45.1135217" lon="8.0320683"><ele>371.0</ele><time>2026-04-12T12:15:15.874Z</time></trkpt><trkpt lat="45.1135" lon="8.0319133"><ele>372.75</ele><time>2026-04-12T12:15:16.874Z</time></trkpt><trkpt lat="45.1134717" lon="8.0317533"><ele>374.5</ele><time>2026-04-12T12:15:17.875Z</time></trkpt><trkpt lat="45.1134467" lon="8.0315917"><ele>376.25</ele><time>2026-04-12T12:15:18.874Z</time></trkpt><trkpt lat="45.11343" lon="8.0314183"><ele>378.0</ele><time>2026-04-12T12:15:19.874Z</time></trkpt><trkpt lat="45.1134283" lon="8.031245"><ele>380.79999999999995</ele><time>2026-04-12T12:15:20.875Z</time></trkpt><trkpt lat="45.1134417" lon="8.0310683"><ele>383.6</ele><time>2026-04-12T12:15:21.874Z</time></trkpt><trkpt lat="45.1134567" lon="8.03091"><ele>386.4</ele><time>2026-04-12T12:15:22.875Z</time></trkpt><trkpt lat="45.1134517" lon="8.0307583"><ele>389.20000000000005</ele><time>2026-04-12T12:15:23.874Z</time></trkpt><trkpt lat="45.11343" lon="8.0306167"><ele>392.0</ele><time>2026-04-12T12:15:24.874Z</time></trkpt><trkpt lat="45.1133867" lon="8.0304933"><ele>392.20000000000005</ele><time>2026-04-12T12:15:25.874Z</time></trkpt><trkpt lat="45.113345" lon="8.030395"><ele>392.4</ele><time>2026-04-12T12:15:26.875Z</time></trkpt><trkpt lat="45.1133083" lon="8.0303083"><ele>392.6</ele><time>2026-04-12T12:15:27.874Z</time></trkpt><trkpt lat="45.11326" lon="8.0301717"><ele>392.79999999999995</ele><time>2026-04-12T12:15:29.874Z</time></trkpt><trkpt lat="45.1132333" lon="8.030005"><ele>393.0</ele><time>2026-04-12T12:15:31.875Z</time></trkpt><trkpt lat="45.1132367" lon="8.02987"><ele>392.59999999999997</ele><time>2026-04-12T12:15:32.874Z</time></trkpt><trkpt lat="45.1132533" lon="8.02972"><ele>392.2</ele><time>2026-04-12T12:15:33.874Z</time></trkpt><trkpt lat="45.1132717" lon="8.0295617"><ele>391.8</ele><time>2026-04-12T12:15:34.875Z</time></trkpt><trkpt lat="45.11329" lon="8.0294067"><ele>391.4</ele><time>2026-04-12T12:15:35.874Z</time></trkpt><trkpt lat="45.1133217" lon="8.02925"><ele>391.0</ele><time>2026-04-12T12:15:36.875Z</time></trkpt><trkpt lat="45.113355" lon="8.02909"><ele>390.25</ele><time>2026-04-12T12:15:37.875Z</time></trkpt><trkpt lat="45.1133817" lon="8.028925"><ele>389.5</ele><time>2026-04-12T12:15:38.874Z</time></trkpt><trkpt lat="45.1134167" lon="8.028755"><ele>388.75</ele><time>2026-04-12T12:15:39.874Z</time></trkpt><trkpt lat="45.1134633" lon="8.0285867"><ele>388.0</ele><time>2026-04-12T12:15:40.874Z</time></trkpt><trkpt lat="45.1135033" lon="8.0284283"><ele>388.0</ele><time>2026-04-12T12:15:41.874Z</time></trkpt><trkpt lat="45.1135417" lon="8.02826"><ele>388.0</ele><time>2026-04-12T12:15:42.874Z</time></trkpt><trkpt lat="45.1135783" lon="8.0280967"><ele>388.0</ele><time>2026-04-12T12:15:43.874Z</time></trkpt><trkpt lat="45.1136267" lon="8.0279433"><ele>388.0</ele><time>2026-04-12T12:15:44.874Z</time></trkpt><trkpt lat="45.1136583" lon="8.0277917"><ele>388.0</ele><time>2026-04-12T12:15:45.875Z</time></trkpt><trkpt lat="45.1136917" lon="8.0276417"><ele>388.0</ele><time>2026-04-12T12:15:46.874Z</time></trkpt><trkpt lat="45.1137083" lon="8.0275"><ele>388.0</ele><time>2026-04-12T12:15:47.875Z</time></trkpt><trkpt lat="45.1137233" lon="8.027335"><ele>388.0</ele><time>2026-04-12T12:15:48.874Z</time></trkpt><trkpt lat="45.113725" lon="8.0271667"><ele>388.0</ele><time>2026-04-12T12:15:49.874Z</time></trkpt><trkpt lat="45.1137233" lon="8.0269983"><ele>387.79999999999995</ele><time>2026-04-12T12:15:50.874Z</time></trkpt><trkpt lat="45.1137167" lon="8.0268417"><ele>387.6</ele><time>2026-04-12T12:15:51.874Z</time></trkpt><trkpt lat="45.1137117" lon="8.0266983"><ele>387.4</ele><time>2026-04-12T12:15:52.874Z</time></trkpt><trkpt lat="45.113715" lon="8.0265483"><ele>387.20000000000005</ele><time>2026-04-12T12:15:53.874Z</time></trkpt><trkpt lat="45.1137267" lon="8.026395"><ele>387.0</ele><time>2026-04-12T12:15:54.875Z</time></trkpt><trkpt lat="45.1137483" lon="8.02626"><ele>386.6666666666667</ele><time>2026-04-12T12:15:55.875Z</time></trkpt><trkpt lat="45.113775" lon="8.0261533"><ele>386.33333333333337</ele><time>2026-04-12T12:15:56.875Z</time></trkpt><trkpt lat="45.1138067" lon="8.0260683"><ele>386.0</ele><time>2026-04-12T12:15:57.875Z</time></trkpt><trkpt lat="45.11385" lon="8.025975"><ele>385.6666666666667</ele><time>2026-04-12T12:15:58.875Z</time></trkpt><trkpt lat="45.1138967" lon="8.0258783"><ele>385.33333333333337</ele><time>2026-04-12T12:15:59.874Z</time></trkpt><trkpt lat="45.1139483" lon="8.0257833"><ele>385.0</ele><time>2026-04-12T12:16:00.874Z</time></trkpt><trkpt lat="45.1139967" lon="8.0256833"><ele>384.50000000000006</ele><time>2026-04-12T12:16:01.875Z</time></trkpt><trkpt lat="45.1140483" lon="8.025595"><ele>384.0</ele><time>2026-04-12T12:16:02.874Z</time></trkpt><trkpt lat="45.11412" lon="8.0255067"><ele>383.5</ele><time>2026-04-12T12:16:03.874Z</time></trkpt><trkpt lat="45.114185" lon="8.0254383"><ele>383.0</ele><time>2026-04-12T12:16:04.875Z</time></trkpt><trkpt lat="45.11426" lon="8.0253917"><ele>382.5</ele><time>2026-04-12T12:16:05.874Z</time></trkpt><trkpt lat="45.1143317" lon="8.0253083"><ele>382.0</ele><time>2026-04-12T12:16:06.874Z</time></trkpt><trkpt lat="45.11441" lon="8.0252317"><ele>382.16666666666663</ele><time>2026-04-12T12:16:07.875Z</time></trkpt><trkpt lat="45.1144933" lon="8.0251667"><ele>382.3333333333333</ele><time>2026-04-12T12:16:08.875Z</time></trkpt><trkpt lat="45.11457" lon="8.0251"><ele>382.5</ele><time>2026-04-12T12:16:09.874Z</time></trkpt><trkpt lat="45.11465" lon="8.0250367"><ele>382.6666666666667</ele><time>2026-04-12T12:16:10.874Z</time></trkpt><trkpt lat="45.1147217" lon="8.0249667"><ele>382.83333333333337</ele><time>2026-04-12T12:16:11.875Z</time></trkpt><trkpt lat="45.1147883" lon="8.0248933"><ele>383.0</ele><time>2026-04-12T12:16:12.875Z</time></trkpt><trkpt lat="45.1148567" lon="8.024835"><ele>385.33333333333337</ele><time>2026-04-12T12:16:13.875Z</time></trkpt><trkpt lat="45.11493" lon="8.0247583"><ele>387.6666666666667</ele><time>2026-04-12T12:16:14.875Z</time></trkpt><trkpt lat="45.115005" lon="8.0246883"><ele>390.0</ele><time>2026-04-12T12:16:15.874Z</time></trkpt><trkpt lat="45.1150767" lon="8.0246233"><ele>392.33333333333337</ele><time>2026-04-12T12:16:16.875Z</time></trkpt><trkpt lat="45.1151367" lon="8.0245533"><ele>394.6666666666667</ele><time>2026-04-12T12:16:17.875Z</time></trkpt><trkpt lat="45.1152067" lon="8.0244867"><ele>397.0</ele><time>2026-04-12T12:16:18.874Z</time></trkpt><trkpt lat="45.1152733" lon="8.024425"><ele>397.00000000000006</ele><time>2026-04-12T12:16:19.874Z</time></trkpt><trkpt lat="45.1153333" lon="8.024375"><ele>397.0</ele><time>2026-04-12T12:16:20.875Z</time></trkpt><trkpt lat="45.1153983" lon="8.0243"><ele>397.0</ele><time>2026-04-12T12:16:22.874Z</time></trkpt><trkpt lat="45.1154167" lon="8.0242133"><ele>397.0</ele><time>2026-04-12T12:17:51.874Z</time></trkpt><trkpt lat="45.1154583" lon="8.0240867"><ele>397.00000000000006</ele><time>2026-04-12T12:17:53.875Z</time></trkpt><trkpt lat="45.115495" lon="8.0240133"><ele>397.0</ele><time>2026-04-12T12:17:54.874Z</time></trkpt><trkpt lat="45.11557" lon="8.0238733"><ele>396.33333333333337</ele><time>2026-04-12T12:17:56.874Z</time></trkpt><trkpt lat="45.1156017" lon="8.0237783"><ele>395.6666666666667</ele><time>2026-04-12T12:17:57.875Z</time></trkpt><trkpt lat="45.1156383" lon="8.0236883"><ele>395.0</ele><time>2026-04-12T12:17:58.875Z</time></trkpt><trkpt lat="45.1156817" lon="8.0236"><ele>394.33333333333337</ele><time>2026-04-12T12:17:59.874Z</time></trkpt><trkpt lat="45.1157483" lon="8.0234383"><ele>393.6666666666667</ele><time>2026-04-12T12:18:01.875Z</time></trkpt><trkpt lat="45.11578" lon="8.0233317"><ele>393.0</ele><time>2026-04-12T12:18:02.875Z</time></trkpt><trkpt lat="45.11582" lon="8.0232117"><ele>393.0</ele><time>2026-04-12T12:18:03.874Z</time></trkpt><trkpt lat="45.115875" lon="8.02309"><ele>393.0</ele><time>2026-04-12T12:18:04.874Z</time></trkpt><trkpt lat="45.1159317" lon="8.0229767"><ele>393.0</ele><time>2026-04-12T12:18:05.874Z</time></trkpt><trkpt lat="45.1160133" lon="8.0228367"><ele>393.0</ele><time>2026-04-12T12:18:06.874Z</time></trkpt><trkpt lat="45.1160983" lon="8.0227"><ele>393.0</ele><time>2026-04-12T12:18:07.874Z</time></trkpt><trkpt lat="45.1161867" lon="8.0225717"><ele>393.0</ele><time>2026-04-12T12:18:08.875Z</time></trkpt><trkpt lat="45.116275" lon="8.0224433"><ele>393.0</ele><time>2026-04-12T12:18:09.875Z</time></trkpt><trkpt lat="45.1163683" lon="8.022295"><ele>393.0</ele><time>2026-04-12T12:18:10.874Z</time></trkpt><trkpt lat="45.1164583" lon="8.0221317"><ele>393.59999999999997</ele><time>2026-04-12T12:18:11.874Z</time></trkpt><trkpt lat="45.11653" lon="8.0219717"><ele>394.2</ele><time>2026-04-12T12:18:12.875Z</time></trkpt><trkpt lat="45.1165833" lon="8.0218317"><ele>394.8</ele><time>2026-04-12T12:18:13.874Z</time></trkpt><trkpt lat="45.1166283" lon="8.0217117"><ele>395.4</ele><time>2026-04-12T12:18:14.875Z</time></trkpt><trkpt lat="45.11667" lon="8.0215967"><ele>396.0</ele><time>2026-04-12T12:18:15.875Z</time></trkpt><trkpt lat="45.1167017" lon="8.0215033"><ele>393.8</ele><time>2026-04-12T12:18:16.874Z</time></trkpt><trkpt lat="45.11677" lon="8.0213483"><ele>391.6</ele><time>2026-04-12T12:18:18.874Z</time></trkpt><trkpt lat="45.1168017" lon="8.0212583"><ele>389.4</ele><time>2026-04-12T12:18:19.874Z</time></trkpt><trkpt lat="45.11685" lon="8.0211517"><ele>387.2</ele><time>2026-04-12T12:18:20.874Z</time></trkpt><trkpt lat="45.116895" lon="8.0210433"><ele>385.0</ele><time>2026-04-12T12:18:21.875Z</time></trkpt><trkpt lat="45.11695" lon="8.0209283"><ele>385.0</ele><time>2026-04-12T12:18:22.875Z</time></trkpt><trkpt lat="45.117015" lon="8.020835"><ele>385.0</ele><time>2026-04-12T12:18:23.874Z</time></trkpt><trkpt lat="45.1170917" lon="8.0207517"><ele>385.0</ele><time>2026-04-12T12:18:24.874Z</time></trkpt><trkpt lat="45.1171683" lon="8.0206533"><ele>385.0</ele><time>2026-04-12T12:18:25.874Z</time></trkpt><trkpt lat="45.1172467" lon="8.0205333"><ele>385.0</ele><time>2026-04-12T12:18:26.875Z</time></trkpt><trkpt lat="45.1173133" lon="8.0203883"><ele>384.25</ele><time>2026-04-12T12:18:27.875Z</time></trkpt><trkpt lat="45.11737" lon="8.02023"><ele>383.5</ele><time>2026-04-12T12:18:28.875Z</time></trkpt><trkpt lat="45.1174217" lon="8.0200483"><ele>382.75</ele><time>2026-04-12T12:18:29.875Z</time></trkpt><trkpt lat="45.117475" lon="8.019865"><ele>382.0</ele><time>2026-04-12T12:18:30.874Z</time></trkpt><trkpt lat="45.1175333" lon="8.0196933"><ele>382.0</ele><time>2026-04-12T12:18:31.875Z</time></trkpt><trkpt lat="45.1175867" lon="8.0195183"><ele>382.0</ele><time>2026-04-12T12:18:32.874Z</time></trkpt><trkpt lat="45.117635" lon="8.01935"><ele>382.0</ele><time>2026-04-12T12:18:33.874Z</time></trkpt><trkpt lat="45.1176717" lon="8.01921"><ele>382.0</ele><time>2026-04-12T12:18:34.875Z</time></trkpt><trkpt lat="45.1177083" lon="8.0191017"><ele>380.6</ele><time>2026-04-12T12:18:35.874Z</time></trkpt><trkpt lat="45.11774" lon="8.019015"><ele>379.20000000000005</ele><time>2026-04-12T12:18:36.874Z</time></trkpt><trkpt lat="45.1177917" lon="8.0189117"><ele>377.8</ele><time>2026-04-12T12:18:38.874Z</time></trkpt><trkpt lat="45.1178517" lon="8.0187533"><ele>376.4</ele><time>2026-04-12T12:18:40.874Z</time></trkpt><trkpt lat="45.117885" lon="8.018645"><ele>375.0</ele><time>2026-04-12T12:18:41.874Z</time></trkpt><trkpt lat="45.1179117" lon="8.0185167"><ele>375.0</ele><time>2026-04-12T12:18:42.874Z</time></trkpt><trkpt lat="45.11793" lon="8.01839"><ele>375.0</ele><time>2026-04-12T12:18:43.874Z</time></trkpt><trkpt lat="45.1179283" lon="8.01827"><ele>375.0</ele><time>2026-04-12T12:18:44.875Z</time></trkpt><trkpt lat="45.11791" lon="8.0181617"><ele>375.0</ele><time>2026-04-12T12:18:45.875Z</time></trkpt><trkpt lat="45.1178667" lon="8.0180483"><ele>375.0</ele><time>2026-04-12T12:18:46.874Z</time></trkpt><trkpt lat="45.1178033" lon="8.0179433"><ele>375.0</ele><time>2026-04-12T12:18:47.874Z</time></trkpt><trkpt lat="45.1177283" lon="8.017815"><ele>375.4</ele><time>2026-04-12T12:18:48.874Z</time></trkpt><trkpt lat="45.11766" lon="8.0176933"><ele>375.8</ele><time>2026-04-12T12:18:49.875Z</time></trkpt><trkpt lat="45.1175867" lon="8.0175683"><ele>376.20000000000005</ele><time>2026-04-12T12:18:50.875Z</time></trkpt><trkpt lat="45.117515" lon="8.0174733"><ele>376.6</ele><time>2026-04-12T12:18:51.874Z</time></trkpt><trkpt lat="45.1174333" lon="8.01742"><ele>377.0</ele><time>2026-04-12T12:18:52.874Z</time></trkpt><trkpt lat="45.11735" lon="8.0174033"><ele>378.8</ele><time>2026-04-12T12:18:53.874Z</time></trkpt><trkpt lat="45.117265" lon="8.0174233"><ele>380.6</ele><time>2026-04-12T12:18:54.874Z</time></trkpt><trkpt lat="45.11717" lon="8.01747"><ele>382.40000000000003</ele><time>2026-04-12T12:18:55.874Z</time></trkpt><trkpt lat="45.1170817" lon="8.0175517"><ele>384.20000000000005</ele><time>2026-04-12T12:18:56.875Z</time></trkpt><trkpt lat="45.1169983" lon="8.01766"><ele>386.0</ele><time>2026-04-12T12:18:57.875Z</time></trkpt><trkpt lat="45.1169067" lon="8.0177583"><ele>386.0</ele><time>2026-04-12T12:18:58.875Z</time></trkpt><trkpt lat="45.1168083" lon="8.017815"><ele>386.0</ele><time>2026-04-12T12:18:59.875Z</time></trkpt><trkpt lat="45.1166933" lon="8.0178667"><ele>386.0</ele><time>2026-04-12T12:19:00.874Z</time></trkpt><trkpt lat="45.1165733" lon="8.0179083"><ele>386.0</ele><time>2026-04-12T12:19:01.874Z</time></trkpt><trkpt lat="45.11644" lon="8.0179517"><ele>385.75</ele><time>2026-04-12T12:19:02.875Z</time></trkpt><trkpt lat="45.1163067" lon="8.0179817"><ele>385.5</ele><time>2026-04-12T12:19:03.875Z</time></trkpt><trkpt lat="45.11618" lon="8.018035"><ele>385.25</ele><time>2026-04-12T12:19:04.875Z</time></trkpt><trkpt lat="45.1160583" lon="8.018105"><ele>385.0</ele><time>2026-04-12T12:19:05.874Z</time></trkpt><trkpt lat="45.11593" lon="8.01819"><ele>385.0</ele><time>2026-04-12T12:19:06.874Z</time></trkpt><trkpt lat="45.11583" lon="8.0182833"><ele>385.0</ele><time>2026-04-12T12:19:07.874Z</time></trkpt><trkpt lat="45.1157367" lon="8.0183833"><ele>385.0</ele><time>2026-04-12T12:19:08.874Z</time></trkpt><trkpt lat="45.1156383" lon="8.0184567"><ele>385.0</ele><time>2026-04-12T12:19:09.875Z</time></trkpt><trkpt lat="45.115525" lon="8.018495"><ele>386.75</ele><time>2026-04-12T12:19:10.875Z</time></trkpt><trkpt lat="45.1154083" lon="8.0184867"><ele>388.5</ele><time>2026-04-12T12:19:11.875Z</time></trkpt><trkpt lat="45.1152867" lon="8.0184583"><ele>390.25</ele><time>2026-04-12T12:19:12.875Z</time></trkpt><trkpt lat="45.1151667" lon="8.0184217"><ele>392.0</ele><time>2026-04-12T12:19:13.874Z</time></trkpt><trkpt lat="45.1150317" lon="8.0184"><ele>392.0</ele><time>2026-04-12T12:19:14.874Z</time></trkpt><trkpt lat="45.1149083" lon="8.0184033"><ele>392.0</ele><time>2026-04-12T12:19:15.875Z</time></trkpt><trkpt lat="45.1147867" lon="8.01843"><ele>392.0</ele><time>2026-04-12T12:19:16.874Z</time></trkpt><trkpt lat="45.1146717" lon="8.01848"><ele>392.0</ele><time>2026-04-12T12:19:17.874Z</time></trkpt><trkpt lat="45.114555" lon="8.0185383"><ele>398.25</ele><time>2026-04-12T12:19:18.875Z</time></trkpt><trkpt lat="45.1144467" lon="8.0186283"><ele>404.5</ele><time>2026-04-12T12:19:19.874Z</time></trkpt><trkpt lat="45.1143483" lon="8.0187383"><ele>410.75</ele><time>2026-04-12T12:19:20.874Z</time></trkpt><trkpt lat="45.1142583" lon="8.0188583"><ele>417.0</ele><time>2026-04-12T12:19:21.875Z</time></trkpt><trkpt lat="45.1141533" lon="8.0189517"><ele>418.25</ele><time>2026-04-12T12:19:22.875Z</time></trkpt><trkpt lat="45.114035" lon="8.0190067"><ele>419.5</ele><time>2026-04-12T12:19:23.874Z</time></trkpt><trkpt lat="45.1139117" lon="8.01902"><ele>420.75</ele><time>2026-04-12T12:19:24.875Z</time></trkpt><trkpt lat="45.1137933" lon="8.018985"><ele>422.0</ele><time>2026-04-12T12:19:25.875Z</time></trkpt><trkpt lat="45.1136917" lon="8.0189033"><ele>422.0</ele><time>2026-04-12T12:19:26.874Z</time></trkpt><trkpt lat="45.11359" lon="8.0188117"><ele>422.0</ele><time>2026-04-12T12:19:27.874Z</time></trkpt><trkpt lat="45.1134933" lon="8.0187167"><ele>422.0</ele><time>2026-04-12T12:19:28.874Z</time></trkpt><trkpt lat="45.1133967" lon="8.0186067"><ele>422.0</ele><time>2026-04-12T12:19:29.874Z</time></trkpt><trkpt lat="45.1132967" lon="8.0184867"><ele>421.0</ele><time>2026-04-12T12:19:30.875Z</time></trkpt><trkpt lat="45.113185" lon="8.018435"><ele>420.0</ele><time>2026-04-12T12:19:31.875Z</time></trkpt><trkpt lat="45.1130567" lon="8.01844"><ele>419.0</ele><time>2026-04-12T12:19:32.875Z</time></trkpt><trkpt lat="45.1129417" lon="8.0184533"><ele>418.0</ele><time>2026-04-12T12:19:33.875Z</time></trkpt><trkpt lat="45.112825" lon="8.018425"><ele>418.0</ele><time>2026-04-12T12:19:34.874Z</time></trkpt><trkpt lat="45.1127267" lon="8.018345"><ele>418.0</ele><time>2026-04-12T12:19:35.874Z</time></trkpt><trkpt lat="45.1126367" lon="8.0182417"><ele>418.0</ele><time>2026-04-12T12:19:36.875Z</time></trkpt><trkpt lat="45.1125267" lon="8.0181667"><ele>418.0</ele><time>2026-04-12T12:19:37.875Z</time></trkpt><trkpt lat="45.112415" lon="8.0181533"><ele>418.25</ele><time>2026-04-12T12:19:38.874Z</time></trkpt><trkpt lat="45.1123167" lon="8.0181767"><ele>418.5</ele><time>2026-04-12T12:19:39.874Z</time></trkpt><trkpt lat="45.112215" lon="8.01825"><ele>418.75</ele><time>2026-04-12T12:19:40.875Z</time></trkpt><trkpt lat="45.11212" lon="8.0183733"><ele>419.0</ele><time>2026-04-12T12:19:41.875Z</time></trkpt><trkpt lat="45.1120533" lon="8.0185167"><ele>419.75</ele><time>2026-04-12T12:19:42.874Z</time></trkpt><trkpt lat="45.112" lon="8.0186817"><ele>420.5</ele><time>2026-04-12T12:19:43.875Z</time></trkpt><trkpt lat="45.111955" lon="8.0188317"><ele>421.25</ele><time>2026-04-12T12:19:44.874Z</time></trkpt><trkpt lat="45.1119233" lon="8.01898"><ele>422.0</ele><time>2026-04-12T12:19:45.875Z</time></trkpt><trkpt lat="45.1119033" lon="8.01915"><ele>422.6</ele><time>2026-04-12T12:19:46.875Z</time></trkpt><trkpt lat="45.1118967" lon="8.019315"><ele>423.20000000000005</ele><time>2026-04-12T12:19:47.874Z</time></trkpt><trkpt lat="45.11189" lon="8.0194667"><ele>423.8</ele><time>2026-04-12T12:19:48.874Z</time></trkpt><trkpt lat="45.111865" lon="8.0195967"><ele>424.4</ele><time>2026-04-12T12:19:49.875Z</time></trkpt><trkpt lat="45.1118" lon="8.0197083"><ele>425.0</ele><time>2026-04-12T12:19:50.875Z</time></trkpt><trkpt lat="45.1117183" lon="8.01981"><ele>425.0</ele><time>2026-04-12T12:19:51.875Z</time></trkpt><trkpt lat="45.1116233" lon="8.0198967"><ele>425.0</ele><time>2026-04-12T12:19:52.874Z</time></trkpt><trkpt lat="45.111535" lon="8.0199683"><ele>425.0</ele><time>2026-04-12T12:19:53.875Z</time></trkpt><trkpt lat="45.1114467" lon="8.020015"><ele>425.0</ele><time>2026-04-12T12:19:54.874Z</time></trkpt><trkpt lat="45.11136" lon="8.0200467"><ele>425.0</ele><time>2026-04-12T12:19:55.874Z</time></trkpt><trkpt lat="45.111275" lon="8.0200517"><ele>424.0</ele><time>2026-04-12T12:19:56.875Z</time></trkpt><trkpt lat="45.1112117" lon="8.0200167"><ele>423.0</ele><time>2026-04-12T12:19:57.874Z</time></trkpt><trkpt lat="45.111145" lon="8.0199467"><ele>422.0</ele><time>2026-04-12T12:19:59.875Z</time></trkpt><trkpt lat="45.1111817" lon="8.019835"><ele>421.0</ele><time>2026-04-12T12:20:02.874Z</time></trkpt><trkpt lat="45.1112467" lon="8.01973"><ele>420.0</ele><time>2026-04-12T12:20:04.875Z</time></trkpt><trkpt lat="45.1113233" lon="8.01959"><ele>419.57142857142856</ele><time>2026-04-12T12:20:06.874Z</time></trkpt><trkpt lat="45.111355" lon="8.0195067"><ele>419.1428571428571</ele><time>2026-04-12T12:20:07.875Z</time></trkpt><trkpt lat="45.1113917" lon="8.0194217"><ele>418.7142857142857</ele><time>2026-04-12T12:20:08.874Z</time></trkpt><trkpt lat="45.1114217" lon="8.0193417"><ele>418.2857142857143</ele><time>2026-04-12T12:20:09.875Z</time></trkpt><trkpt lat="45.1114583" lon="8.0192617"><ele>417.85714285714283</ele><time>2026-04-12T12:20:10.874Z</time></trkpt><trkpt lat="45.1114867" lon="8.01918"><ele>417.42857142857144</ele><time>2026-04-12T12:20:11.874Z</time></trkpt><trkpt lat="45.1115267" lon="8.0191033"><ele>417.0</ele><time>2026-04-12T12:20:12.874Z</time></trkpt><trkpt lat="45.11157" lon="8.0190217"><ele>418.0</ele><time>2026-04-12T12:20:13.874Z</time></trkpt><trkpt lat="45.1116133" lon="8.018925"><ele>419.0</ele><time>2026-04-12T12:20:14.874Z</time></trkpt><trkpt lat="45.1116533" lon="8.0188217"><ele>420.0</ele><time>2026-04-12T12:20:15.874Z</time></trkpt><trkpt lat="45.11169" lon="8.0187067"><ele>421.0</ele><time>2026-04-12T12:20:16.874Z</time></trkpt><trkpt lat="45.111735" lon="8.01858"><ele>422.0</ele><time>2026-04-12T12:20:17.874Z</time></trkpt><trkpt lat="45.1117967" lon="8.0184433"><ele>421.25</ele><time>2026-04-12T12:20:18.875Z</time></trkpt><trkpt lat="45.1118583" lon="8.0183083"><ele>420.5</ele><time>2026-04-12T12:20:19.875Z</time></trkpt><trkpt lat="45.1119233" lon="8.0181667"><ele>419.75</ele><time>2026-04-12T12:20:20.875Z</time></trkpt><trkpt lat="45.111975" lon="8.01801"><ele>419.0</ele><time>2026-04-12T12:20:21.874Z</time></trkpt><trkpt lat="45.1120383" lon="8.0178533"><ele>419.0</ele><time>2026-04-12T12:20:22.874Z</time></trkpt><trkpt lat="45.112095" lon="8.0176967"><ele>419.0</ele><time>2026-04-12T12:20:23.874Z</time></trkpt><trkpt lat="45.11216" lon="8.01753"><ele>419.0</ele><time>2026-04-12T12:20:24.875Z</time></trkpt><trkpt lat="45.112225" lon="8.01737"><ele>419.0</ele><time>2026-04-12T12:20:25.875Z</time></trkpt><trkpt lat="45.1123" lon="8.01722"><ele>417.5</ele><time>2026-04-12T12:20:26.874Z</time></trkpt><trkpt lat="45.1123767" lon="8.0170567"><ele>416.0</ele><time>2026-04-12T12:20:27.875Z</time></trkpt><trkpt lat="45.1124483" lon="8.016895"><ele>414.5</ele><time>2026-04-12T12:20:28.874Z</time></trkpt><trkpt lat="45.112515" lon="8.0167367"><ele>413.0</ele><time>2026-04-12T12:20:29.874Z</time></trkpt><trkpt lat="45.1125733" lon="8.0165817"><ele>417.5</ele><time>2026-04-12T12:20:30.874Z</time></trkpt><trkpt lat="45.11263" lon="8.0164133"><ele>422.0</ele><time>2026-04-12T12:20:31.874Z</time></trkpt><trkpt lat="45.1126583" lon="8.0162433"><ele>426.5</ele><time>2026-04-12T12:20:32.874Z</time></trkpt><trkpt lat="45.1126633" lon="8.0160733"><ele>431.0</ele><time>2026-04-12T12:20:33.875Z</time></trkpt><trkpt lat="45.1126683" lon="8.0158967"><ele>432.25</ele><time>2026-04-12T12:20:34.875Z</time></trkpt><trkpt lat="45.112675" lon="8.0157217"><ele>433.5</ele><time>2026-04-12T12:20:35.874Z</time></trkpt><trkpt lat="45.1126783" lon="8.0155517"><ele>434.75</ele><time>2026-04-12T12:20:36.875Z</time></trkpt><trkpt lat="45.1126867" lon="8.0153983"><ele>436.0</ele><time>2026-04-12T12:20:37.875Z</time></trkpt><trkpt lat="45.1126933" lon="8.01525"><ele>436.0</ele><time>2026-04-12T12:20:38.874Z</time></trkpt><trkpt lat="45.1127083" lon="8.0151"><ele>436.0</ele><time>2026-04-12T12:20:39.875Z</time></trkpt><trkpt lat="45.1127517" lon="8.0149683"><ele>436.0</ele><time>2026-04-12T12:20:40.874Z</time></trkpt><trkpt lat="45.112805" lon="8.0148267"><ele>436.0</ele><time>2026-04-12T12:20:41.874Z</time></trkpt><trkpt lat="45.1128633" lon="8.014705"><ele>436.0</ele><time>2026-04-12T12:20:42.874Z</time></trkpt><trkpt lat="45.1129383" lon="8.0145867"><ele>434.0</ele><time>2026-04-12T12:20:43.875Z</time></trkpt><trkpt lat="45.1130133" lon="8.014465"><ele>432.0</ele><time>2026-04-12T12:20:44.874Z</time></trkpt><trkpt lat="45.1130883" lon="8.01434"><ele>430.0</ele><time>2026-04-12T12:20:45.874Z</time></trkpt><trkpt lat="45.113165" lon="8.0142083"><ele>428.0</ele><time>2026-04-12T12:20:46.875Z</time></trkpt><trkpt lat="45.113245" lon="8.0140767"><ele>427.25</ele><time>2026-04-12T12:20:47.874Z</time></trkpt><trkpt lat="45.1133217" lon="8.0139417"><ele>426.5</ele><time>2026-04-12T12:20:48.874Z</time></trkpt><trkpt lat="45.1134017" lon="8.0138017"><ele>425.75</ele><time>2026-04-12T12:20:49.874Z</time></trkpt><trkpt lat="45.1134783" lon="8.013665"><ele>425.0</ele><time>2026-04-12T12:20:50.874Z</time></trkpt><trkpt lat="45.11355" lon="8.0135383"><ele>425.0</ele><time>2026-04-12T12:20:51.875Z</time></trkpt><trkpt lat="45.113635" lon="8.013415"><ele>425.0</ele><time>2026-04-12T12:20:52.875Z</time></trkpt><trkpt lat="45.11373" lon="8.0133067"><ele>425.0</ele><time>2026-04-12T12:20:53.874Z</time></trkpt><trkpt lat="45.1138333" lon="8.01322"><ele>425.0</ele><time>2026-04-12T12:20:54.874Z</time></trkpt><trkpt lat="45.11394" lon="8.0131533"><ele>422.0</ele><time>2026-04-12T12:20:55.874Z</time></trkpt><trkpt lat="45.114045" lon="8.0130917"><ele>419.0</ele><time>2026-04-12T12:20:56.874Z</time></trkpt><trkpt lat="45.1141517" lon="8.0130317"><ele>416.0</ele><time>2026-04-12T12:20:57.874Z</time></trkpt><trkpt lat="45.1142617" lon="8.0129567"><ele>413.0</ele><time>2026-04-12T12:20:58.874Z</time></trkpt><trkpt lat="45.1143583" lon="8.01288"><ele>416.5</ele><time>2026-04-12T12:20:59.875Z</time></trkpt><trkpt lat="45.114455" lon="8.0127817"><ele>420.0</ele><time>2026-04-12T12:21:00.874Z</time></trkpt><trkpt lat="45.1145483" lon="8.0126533"><ele>423.5</ele><time>2026-04-12T12:21:01.874Z</time></trkpt><trkpt lat="45.1146233" lon="8.0124817"><ele>427.0</ele><time>2026-04-12T12:21:02.875Z</time></trkpt><trkpt lat="45.1146767" lon="8.0122983"><ele>427.0</ele><time>2026-04-12T12:21:03.875Z</time></trkpt><trkpt lat="45.1146983" lon="8.0120817"><ele>427.0</ele><time>2026-04-12T12:21:04.875Z</time></trkpt><trkpt lat="45.1147217" lon="8.011845"><ele>427.0</ele><time>2026-04-12T12:21:05.875Z</time></trkpt><trkpt lat="45.1147417" lon="8.0116133"><ele>427.33333333333337</ele><time>2026-04-12T12:21:06.874Z</time></trkpt><trkpt lat="45.1147583" lon="8.0113767"><ele>427.66666666666663</ele><time>2026-04-12T12:21:07.875Z</time></trkpt><trkpt lat="45.1147767" lon="8.01115"><ele>428.0</ele><time>2026-04-12T12:21:08.874Z</time></trkpt><trkpt lat="45.1148017" lon="8.01093"><ele>429.0</ele><time>2026-04-12T12:21:09.875Z</time></trkpt><trkpt lat="45.1148283" lon="8.0107133"><ele>430.0</ele><time>2026-04-12T12:21:10.874Z</time></trkpt><trkpt lat="45.1148467" lon="8.0105"><ele>431.0</ele><time>2026-04-12T12:21:11.874Z</time></trkpt><trkpt lat="45.11487" lon="8.01029"><ele>431.0</ele><time>2026-04-12T12:21:12.875Z</time></trkpt><trkpt lat="45.1148833" lon="8.0100883"><ele>431.0</ele><time>2026-04-12T12:21:13.874Z</time></trkpt><trkpt lat="45.1148867" lon="8.009875"><ele>431.0</ele><time>2026-04-12T12:21:14.874Z</time></trkpt><trkpt lat="45.114895" lon="8.009655"><ele>431.0</ele><time>2026-04-12T12:21:15.875Z</time></trkpt><trkpt lat="45.1148933" lon="8.0094383"><ele>430.75</ele><time>2026-04-12T12:21:16.874Z</time></trkpt><trkpt lat="45.1148833" lon="8.0092367"><ele>430.5</ele><time>2026-04-12T12:21:17.874Z</time></trkpt><trkpt lat="45.1148717" lon="8.0090283"><ele>430.25</ele><time>2026-04-12T12:21:18.875Z</time></trkpt><trkpt lat="45.1148483" lon="8.008815"><ele>430.0</ele><time>2026-04-12T12:21:19.875Z</time></trkpt><trkpt lat="45.1148367" lon="8.0085983"><ele>432.25</ele><time>2026-04-12T12:21:20.874Z</time></trkpt><trkpt lat="45.1148267" lon="8.0083967"><ele>434.5</ele><time>2026-04-12T12:21:21.874Z</time></trkpt><trkpt lat="45.114815" lon="8.008195"><ele>436.75</ele><time>2026-04-12T12:21:22.875Z</time></trkpt><trkpt lat="45.1147933" lon="8.0080083"><ele>439.0</ele><time>2026-04-12T12:21:23.874Z</time></trkpt><trkpt lat="45.114735" lon="8.007835"><ele>444.0</ele><time>2026-04-12T12:21:24.875Z</time></trkpt><trkpt lat="45.1146517" lon="8.0076867"><ele>449.0</ele><time>2026-04-12T12:21:25.875Z</time></trkpt><trkpt lat="45.1145317" lon="8.0075767"><ele>454.0</ele><time>2026-04-12T12:21:26.875Z</time></trkpt><trkpt lat="45.114405" lon="8.007475"><ele>459.0</ele><time>2026-04-12T12:21:27.874Z</time></trkpt><trkpt lat="45.1142817" lon="8.0073783"><ele>461.0</ele><time>2026-04-12T12:21:28.875Z</time></trkpt><trkpt lat="45.11415" lon="8.0072817"><ele>463.0</ele><time>2026-04-12T12:21:29.875Z</time></trkpt><trkpt lat="45.1140167" lon="8.0071833"><ele>465.0</ele><time>2026-04-12T12:21:30.874Z</time></trkpt><trkpt lat="45.113875" lon="8.007085"><ele>465.0</ele><time>2026-04-12T12:21:31.875Z</time></trkpt><trkpt lat="45.1137383" lon="8.00699"><ele>465.0</ele><time>2026-04-12T12:21:32.874Z</time></trkpt><trkpt lat="45.1136033" lon="8.006895"><ele>465.0</ele><time>2026-04-12T12:21:33.874Z</time></trkpt><trkpt lat="45.1134667" lon="8.0068117"><ele>465.0</ele><time>2026-04-12T12:21:34.875Z</time></trkpt><trkpt lat="45.113355" lon="8.0067333"><ele>465.0</ele><time>2026-04-12T12:21:35.875Z</time></trkpt><trkpt lat="45.1132483" lon="8.006665"><ele>465.0</ele><time>2026-04-12T12:21:36.875Z</time></trkpt><trkpt lat="45.1131583" lon="8.0066"><ele>465.0</ele><time>2026-04-12T12:21:37.875Z</time></trkpt><trkpt lat="45.1130817" lon="8.0065333"><ele>465.0</ele><time>2026-04-12T12:21:38.874Z</time></trkpt><trkpt lat="45.1130317" lon="8.00645"><ele>464.0</ele><time>2026-04-12T12:21:39.874Z</time></trkpt><trkpt lat="45.112995" lon="8.00635"><ele>463.0</ele><time>2026-04-12T12:21:40.874Z</time></trkpt><trkpt lat="45.112995" lon="8.006235"><ele>462.0</ele><time>2026-04-12T12:21:41.874Z</time></trkpt><trkpt lat="45.11304" lon="8.0061383"><ele>461.0</ele><time>2026-04-12T12:21:42.875Z</time></trkpt><trkpt lat="45.1131167" lon="8.0060633"><ele>460.0</ele><time>2026-04-12T12:21:43.874Z</time></trkpt><trkpt lat="45.1132333" lon="8.00601"><ele>459.25</ele><time>2026-04-12T12:21:44.874Z</time></trkpt><trkpt lat="45.1133717" lon="8.00596"><ele>458.5</ele><time>2026-04-12T12:21:45.874Z</time></trkpt><trkpt lat="45.1135017" lon="8.00592"><ele>457.75</ele><time>2026-04-12T12:21:46.874Z</time></trkpt><trkpt lat="45.11361" lon="8.0058967"><ele>457.0</ele><time>2026-04-12T12:21:47.875Z</time></trkpt><trkpt lat="45.1137183" lon="8.0058917"><ele>457.0</ele><time>2026-04-12T12:21:48.874Z</time></trkpt><trkpt lat="45.11383" lon="8.005915"><ele>457.00000000000006</ele><time>2026-04-12T12:21:49.874Z</time></trkpt><trkpt lat="45.11394" lon="8.0059483"><ele>457.00000000000006</ele><time>2026-04-12T12:21:50.874Z</time></trkpt><trkpt lat="45.1140467" lon="8.005975"><ele>457.0</ele><time>2026-04-12T12:21:51.875Z</time></trkpt><trkpt lat="45.11414" lon="8.0059633"><ele>457.0</ele><time>2026-04-12T12:21:52.874Z</time></trkpt><trkpt lat="45.1142467" lon="8.0059083"><ele>451.0</ele><time>2026-04-12T12:21:53.875Z</time></trkpt><trkpt lat="45.1143483" lon="8.0058217"><ele>445.0</ele><time>2026-04-12T12:21:54.874Z</time></trkpt><trkpt lat="45.1144483" lon="8.005705"><ele>439.0</ele><time>2026-04-12T12:21:55.874Z</time></trkpt><trkpt lat="45.1145483" lon="8.0055767"><ele>433.0</ele><time>2026-04-12T12:21:56.875Z</time></trkpt><trkpt lat="45.11465" lon="8.0054633"><ele>433.0</ele><time>2026-04-12T12:21:57.874Z</time></trkpt><trkpt lat="45.1147333" lon="8.0053367"><ele>433.0</ele><time>2026-04-12T12:21:58.875Z</time></trkpt><trkpt lat="45.1148183" lon="8.0051917"><ele>433.0</ele><time>2026-04-12T12:21:59.874Z</time></trkpt><trkpt lat="45.1148883" lon="8.0050217"><ele>433.0</ele><time>2026-04-12T12:22:00.875Z</time></trkpt><trkpt lat="45.1149583" lon="8.0048667"><ele>433.5</ele><time>2026-04-12T12:22:01.874Z</time></trkpt><trkpt lat="45.11505" lon="8.0047567"><ele>434.0</ele><time>2026-04-12T12:22:02.874Z</time></trkpt><trkpt lat="45.1151517" lon="8.0046533"><ele>434.5</ele><time>2026-04-12T12:22:03.875Z</time></trkpt><trkpt lat="45.11525" lon="8.00457"><ele>435.0</ele><time>2026-04-12T12:22:04.875Z</time></trkpt><trkpt lat="45.11536" lon="8.0044867"><ele>435.0</ele><time>2026-04-12T12:22:05.875Z</time></trkpt><trkpt lat="45.1154567" lon="8.0043983"><ele>435.0</ele><time>2026-04-12T12:22:06.875Z</time></trkpt><trkpt lat="45.1155483" lon="8.0042967"><ele>435.0</ele><time>2026-04-12T12:22:07.875Z</time></trkpt><trkpt lat="45.1156333" lon="8.0042083"><ele>435.0</ele><time>2026-04-12T12:22:08.874Z</time></trkpt><trkpt lat="45.1157333" lon="8.0041333"><ele>432.6</ele><time>2026-04-12T12:22:09.874Z</time></trkpt><trkpt lat="45.11582" lon="8.004105"><ele>430.2</ele><time>2026-04-12T12:22:10.874Z</time></trkpt><trkpt lat="45.1159117" lon="8.0040817"><ele>427.79999999999995</ele><time>2026-04-12T12:22:11.874Z</time></trkpt><trkpt lat="45.1160067" lon="8.0040767"><ele>425.4</ele><time>2026-04-12T12:22:12.875Z</time></trkpt><trkpt lat="45.1161033" lon="8.004045"><ele>423.0</ele><time>2026-04-12T12:22:13.875Z</time></trkpt><trkpt lat="45.1161967" lon="8.0040233"><ele>423.0</ele><time>2026-04-12T12:22:14.874Z</time></trkpt><trkpt lat="45.116305" lon="8.0039683"><ele>423.0</ele><time>2026-04-12T12:22:15.875Z</time></trkpt><trkpt lat="45.116375" lon="8.0038733"><ele>423.0</ele><time>2026-04-12T12:22:16.875Z</time></trkpt><trkpt lat="45.1164467" lon="8.003775"><ele>423.0</ele><time>2026-04-12T12:22:17.874Z</time></trkpt><trkpt lat="45.11652" lon="8.0036717"><ele>423.0</ele><time>2026-04-12T12:22:18.874Z</time></trkpt><trkpt lat="45.1165917" lon="8.0035783"><ele>425.4</ele><time>2026-04-12T12:22:19.874Z</time></trkpt><trkpt lat="45.1166583" lon="8.0034867"><ele>427.79999999999995</ele><time>2026-04-12T12:22:20.875Z</time></trkpt><trkpt lat="45.1167183" lon="8.0033917"><ele>430.2</ele><time>2026-04-12T12:22:21.875Z</time></trkpt><trkpt lat="45.11678" lon="8.0033"><ele>432.6</ele><time>2026-04-12T12:22:22.874Z</time></trkpt><trkpt lat="45.1168383" lon="8.0032117"><ele>435.0</ele><time>2026-04-12T12:22:23.874Z</time></trkpt><trkpt lat="45.1169067" lon="8.00312"><ele>435.0</ele><time>2026-04-12T12:22:24.874Z</time></trkpt><trkpt lat="45.116975" lon="8.0030283"><ele>435.0</ele><time>2026-04-12T12:22:25.875Z</time></trkpt><trkpt lat="45.1170283" lon="8.0029283"><ele>435.0</ele><time>2026-04-12T12:22:26.874Z</time></trkpt><trkpt lat="45.11709" lon="8.00284"><ele>435.0</ele><time>2026-04-12T12:22:27.875Z</time></trkpt><trkpt lat="45.1171567" lon="8.0027583"><ele>435.0</ele><time>2026-04-12T12:22:28.875Z</time></trkpt><trkpt lat="45.1172167" lon="8.00267"><ele>435.0</ele><time>2026-04-12T12:22:29.874Z</time></trkpt><trkpt lat="45.117285" lon="8.0025867"><ele>435.0</ele><time>2026-04-12T12:22:30.875Z</time></trkpt><trkpt lat="45.1173767" lon="8.00252"><ele>435.0</ele><time>2026-04-12T12:22:31.874Z</time></trkpt><trkpt lat="45.11748" lon="8.0024483"><ele>435.0</ele><time>2026-04-12T12:22:32.874Z</time></trkpt><trkpt lat="45.1175817" lon="8.0023733"><ele>435.0</ele><time>2026-04-12T12:22:33.874Z</time></trkpt><trkpt lat="45.1177" lon="8.0023267"><ele>438.5</ele><time>2026-04-12T12:22:34.875Z</time></trkpt><trkpt lat="45.117825" lon="8.002295"><ele>442.0</ele><time>2026-04-12T12:22:35.875Z</time></trkpt><trkpt lat="45.1179517" lon="8.0022967"><ele>445.5</ele><time>2026-04-12T12:22:36.875Z</time></trkpt><trkpt lat="45.1180917" lon="8.002335"><ele>449.0</ele><time>2026-04-12T12:22:37.874Z</time></trkpt><trkpt lat="45.1182283" lon="8.0023467"><ele>446.2</ele><time>2026-04-12T12:22:38.874Z</time></trkpt><trkpt lat="45.1183567" lon="8.0023367"><ele>443.4</ele><time>2026-04-12T12:22:39.875Z</time></trkpt><trkpt lat="45.1184617" lon="8.0023117"><ele>440.6</ele><time>2026-04-12T12:22:40.874Z</time></trkpt><trkpt lat="45.1185617" lon="8.0022883"><ele>437.8</ele><time>2026-04-12T12:22:41.874Z</time></trkpt><trkpt lat="45.118655" lon="8.00226"><ele>435.0</ele><time>2026-04-12T12:22:42.875Z</time></trkpt><trkpt lat="45.1187433" lon="8.0022233"><ele>435.0</ele><time>2026-04-12T12:22:43.874Z</time></trkpt><trkpt lat="45.11883" lon="8.002175"><ele>435.0</ele><time>2026-04-12T12:22:44.874Z</time></trkpt><trkpt lat="45.1189367" lon="8.0021383"><ele>435.0</ele><time>2026-04-12T12:22:45.875Z</time></trkpt><trkpt lat="45.1190483" lon="8.00211"><ele>435.0</ele><time>2026-04-12T12:22:46.874Z</time></trkpt><trkpt lat="45.1191633" lon="8.0020967"><ele>435.0</ele><time>2026-04-12T12:22:47.874Z</time></trkpt><trkpt lat="45.11929" lon="8.002075"><ele>433.25</ele><time>2026-04-12T12:22:48.874Z</time></trkpt><trkpt lat="45.1194217" lon="8.0020233"><ele>431.5</ele><time>2026-04-12T12:22:49.875Z</time></trkpt><trkpt lat="45.1195517" lon="8.0019317"><ele>429.75</ele><time>2026-04-12T12:22:50.875Z</time></trkpt><trkpt lat="45.1196817" lon="8.001825"><ele>428.0</ele><time>2026-04-12T12:22:51.875Z</time></trkpt><trkpt lat="45.119805" lon="8.001715"><ele>426.0</ele><time>2026-04-12T12:22:52.875Z</time></trkpt><trkpt lat="45.119945" lon="8.0016033"><ele>424.0</ele><time>2026-04-12T12:22:53.874Z</time></trkpt><trkpt lat="45.120095" lon="8.0014883"><ele>422.0</ele><time>2026-04-12T12:22:54.874Z</time></trkpt><trkpt lat="45.12025" lon="8.001365"><ele>422.0</ele><time>2026-04-12T12:22:55.874Z</time></trkpt><trkpt lat="45.1203883" lon="8.0012317"><ele>422.0</ele><time>2026-04-12T12:22:56.874Z</time></trkpt><trkpt lat="45.1205283" lon="8.0011183"><ele>422.0</ele><time>2026-04-12T12:22:57.874Z</time></trkpt><trkpt lat="45.120655" lon="8.0010033"><ele>422.25</ele><time>2026-04-12T12:22:58.874Z</time></trkpt><trkpt lat="45.1207783" lon="8.0009317"><ele>422.5</ele><time>2026-04-12T12:22:59.874Z</time></trkpt><trkpt lat="45.120915" lon="8.000865"><ele>422.75</ele><time>2026-04-12T12:23:00.874Z</time></trkpt><trkpt lat="45.1210467" lon="8.000805"><ele>423.0</ele><time>2026-04-12T12:23:01.874Z</time></trkpt><trkpt lat="45.1211717" lon="8.0007033"><ele>421.5</ele><time>2026-04-12T12:23:02.874Z</time></trkpt><trkpt lat="45.121275" lon="8.0005783"><ele>420.0</ele><time>2026-04-12T12:23:03.875Z</time></trkpt><trkpt lat="45.1213783" lon="8.0004283"><ele>418.5</ele><time>2026-04-12T12:23:04.874Z</time></trkpt><trkpt lat="45.1214667" lon="8.0002817"><ele>417.0</ele><time>2026-04-12T12:23:05.874Z</time></trkpt><trkpt lat="45.1215267" lon="8.0000983"><ele>417.0</ele><time>2026-04-12T12:23:06.875Z</time></trkpt><trkpt lat="45.1215417" lon="7.99991"><ele>417.0</ele><time>2026-04-12T12:23:07.874Z</time></trkpt><trkpt lat="45.1215417" lon="7.9997233"><ele>417.0</ele><time>2026-04-12T12:23:08.874Z</time></trkpt><trkpt lat="45.121545" lon="7.9995467"><ele>417.0</ele><time>2026-04-12T12:23:09.874Z</time></trkpt><trkpt lat="45.1215817" lon="7.9993633"><ele>420.0</ele><time>2026-04-12T12:23:10.874Z</time></trkpt><trkpt lat="45.12164" lon="7.9992083"><ele>423.0</ele><time>2026-04-12T12:23:11.874Z</time></trkpt><trkpt lat="45.12172" lon="7.9990833"><ele>426.0</ele><time>2026-04-12T12:23:12.874Z</time></trkpt><trkpt lat="45.1218133" lon="7.998945"><ele>429.0</ele><time>2026-04-12T12:23:13.875Z</time></trkpt><trkpt lat="45.1219067" lon="7.9988133"><ele>429.0</ele><time>2026-04-12T12:23:14.874Z</time></trkpt><trkpt lat="45.1219967" lon="7.99869"><ele>429.0</ele><time>2026-04-12T12:23:15.875Z</time></trkpt><trkpt lat="45.122085" lon="7.9985567"><ele>429.0</ele><time>2026-04-12T12:23:16.874Z</time></trkpt><trkpt lat="45.1221783" lon="7.998445"><ele>429.0</ele><time>2026-04-12T12:23:17.875Z</time></trkpt><trkpt lat="45.12228" lon="7.99835"><ele>427.0</ele><time>2026-04-12T12:23:18.874Z</time></trkpt><trkpt lat="45.1223733" lon="7.9982583"><ele>425.0</ele><time>2026-04-12T12:23:19.874Z</time></trkpt><trkpt lat="45.122485" lon="7.998165"><ele>423.0</ele><time>2026-04-12T12:23:20.875Z</time></trkpt><trkpt lat="45.1225933" lon="7.99808"><ele>421.0</ele><time>2026-04-12T12:23:21.875Z</time></trkpt><trkpt lat="45.122695" lon="7.9979967"><ele>424.00000000000006</ele><time>2026-04-12T12:23:22.874Z</time></trkpt><trkpt lat="45.1227883" lon="7.9979333"><ele>427.0</ele><time>2026-04-12T12:23:23.874Z</time></trkpt><trkpt lat="45.122875" lon="7.9978883"><ele>430.0</ele><time>2026-04-12T12:23:24.875Z</time></trkpt><trkpt lat="45.1229483" lon="7.99784"><ele>433.0</ele><time>2026-04-12T12:23:25.875Z</time></trkpt><trkpt lat="45.12301" lon="7.99777"><ele>436.00000000000006</ele><time>2026-04-12T12:23:26.875Z</time></trkpt><trkpt lat="45.12306" lon="7.9976633"><ele>439.0</ele><time>2026-04-12T12:23:27.874Z</time></trkpt><trkpt lat="45.1231" lon="7.9975417"><ele>438.0</ele><time>2026-04-12T12:23:28.874Z</time></trkpt><trkpt lat="45.1231133" lon="7.9973967"><ele>437.0</ele><time>2026-04-12T12:23:29.874Z</time></trkpt><trkpt lat="45.1231267" lon="7.997245"><ele>436.0</ele><time>2026-04-12T12:23:30.875Z</time></trkpt><trkpt lat="45.1231483" lon="7.9970783"><ele>435.0</ele><time>2026-04-12T12:23:31.874Z</time></trkpt><trkpt lat="45.1231783" lon="7.9969267"><ele>434.0</ele><time>2026-04-12T12:23:32.874Z</time></trkpt><trkpt lat="45.1232083" lon="7.9967517"><ele>441.5</ele><time>2026-04-12T12:23:33.874Z</time></trkpt><trkpt lat="45.1232433" lon="7.9965667"><ele>449.0</ele><time>2026-04-12T12:23:34.874Z</time></trkpt><trkpt lat="45.123275" lon="7.9963617"><ele>456.5</ele><time>2026-04-12T12:23:35.874Z</time></trkpt><trkpt lat="45.12331" lon="7.9961567"><ele>464.0</ele><time>2026-04-12T12:23:36.874Z</time></trkpt><trkpt lat="45.123345" lon="7.995965"><ele>463.6</ele><time>2026-04-12T12:23:37.874Z</time></trkpt><trkpt lat="45.1233733" lon="7.9957867"><ele>463.2</ele><time>2026-04-12T12:23:38.874Z</time></trkpt><trkpt lat="45.123375" lon="7.9956233"><ele>462.80000000000007</ele><time>2026-04-12T12:23:39.875Z</time></trkpt><trkpt lat="45.1233467" lon="7.995485"><ele>462.40000000000003</ele><time>2026-04-12T12:23:40.875Z</time></trkpt><trkpt lat="45.1232867" lon="7.9953767"><ele>462.0</ele><time>2026-04-12T12:23:41.875Z</time></trkpt><trkpt lat="45.1232017" lon="7.9952867"><ele>458.25</ele><time>2026-04-12T12:23:42.874Z</time></trkpt><trkpt lat="45.1231033" lon="7.9952233"><ele>454.5</ele><time>2026-04-12T12:23:43.874Z</time></trkpt><trkpt lat="45.1229917" lon="7.99519"><ele>450.75</ele><time>2026-04-12T12:23:44.874Z</time></trkpt><trkpt lat="45.122865" lon="7.9951733"><ele>447.0</ele><time>2026-04-12T12:23:45.875Z</time></trkpt><trkpt lat="45.12274" lon="7.9951833"><ele>447.0</ele><time>2026-04-12T12:23:46.875Z</time></trkpt><trkpt lat="45.1226083" lon="7.9951733"><ele>447.0</ele><time>2026-04-12T12:23:47.874Z</time></trkpt><trkpt lat="45.1224833" lon="7.995145"><ele>447.0</ele><time>2026-04-12T12:23:48.875Z</time></trkpt><trkpt lat="45.12236" lon="7.99511"><ele>447.0</ele><time>2026-04-12T12:23:49.875Z</time></trkpt><trkpt lat="45.1222433" lon="7.9950467"><ele>450.25</ele><time>2026-04-12T12:23:50.874Z</time></trkpt><trkpt lat="45.12214" lon="7.9949617"><ele>453.5</ele><time>2026-04-12T12:23:51.874Z</time></trkpt><trkpt lat="45.1220417" lon="7.99488"><ele>456.75</ele><time>2026-04-12T12:23:52.874Z</time></trkpt><trkpt lat="45.12193" lon="7.9947967"><ele>460.0</ele><time>2026-04-12T12:23:53.874Z</time></trkpt><trkpt lat="45.1218283" lon="7.9946917"><ele>460.0</ele><time>2026-04-12T12:23:54.874Z</time></trkpt><trkpt lat="45.1217267" lon="7.9945683"><ele>460.0</ele><time>2026-04-12T12:23:55.874Z</time></trkpt><trkpt lat="45.121625" lon="7.9944367"><ele>460.0</ele><time>2026-04-12T12:23:56.875Z</time></trkpt><trkpt lat="45.1215233" lon="7.9942967"><ele>460.0</ele><time>2026-04-12T12:23:57.874Z</time></trkpt><trkpt lat="45.12142" lon="7.9941683"><ele>464.25</ele><time>2026-04-12T12:23:58.874Z</time></trkpt><trkpt lat="45.1213133" lon="7.99405"><ele>468.5</ele><time>2026-04-12T12:23:59.874Z</time></trkpt><trkpt lat="45.12121" lon="7.9939367"><ele>472.75</ele><time>2026-04-12T12:24:00.874Z</time></trkpt><trkpt lat="45.1211067" lon="7.9938367"><ele>477.0</ele><time>2026-04-12T12:24:01.875Z</time></trkpt><trkpt lat="45.121015" lon="7.99374"><ele>477.0</ele><time>2026-04-12T12:24:02.875Z</time></trkpt><trkpt lat="45.1209183" lon="7.993615"><ele>477.0</ele><time>2026-04-12T12:24:03.874Z</time></trkpt><trkpt lat="45.1208417" lon="7.99348"><ele>477.0</ele><time>2026-04-12T12:24:04.874Z</time></trkpt><trkpt lat="45.12079" lon="7.9933"><ele>477.0</ele><time>2026-04-12T12:24:05.875Z</time></trkpt><trkpt lat="45.1207583" lon="7.99311"><ele>470.5</ele><time>2026-04-12T12:24:06.875Z</time></trkpt><trkpt lat="45.120725" lon="7.9929367"><ele>464.0</ele><time>2026-04-12T12:24:07.874Z</time></trkpt><trkpt lat="45.1206917" lon="7.992785"><ele>457.5</ele><time>2026-04-12T12:24:08.874Z</time></trkpt><trkpt lat="45.1206583" lon="7.9926433"><ele>451.0</ele><time>2026-04-12T12:24:09.874Z</time></trkpt><trkpt lat="45.1206283" lon="7.9925"><ele>451.0</ele><time>2026-04-12T12:24:10.875Z</time></trkpt><trkpt lat="45.120595" lon="7.9923633"><ele>451.0</ele><time>2026-04-12T12:24:11.875Z</time></trkpt><trkpt lat="45.120575" lon="7.99222"><ele>451.0</ele><time>2026-04-12T12:24:12.875Z</time></trkpt><trkpt lat="45.1205617" lon="7.99206"><ele>451.0</ele><time>2026-04-12T12:24:13.874Z</time></trkpt><trkpt lat="45.12055" lon="7.9919017"><ele>451.0</ele><time>2026-04-12T12:24:14.875Z</time></trkpt><trkpt lat="45.120535" lon="7.9917467"><ele>453.8</ele><time>2026-04-12T12:24:15.875Z</time></trkpt><trkpt lat="45.1205367" lon="7.99159"><ele>456.6</ele><time>2026-04-12T12:24:16.874Z</time></trkpt><trkpt lat="45.120545" lon="7.9914467"><ele>459.4</ele><time>2026-04-12T12:24:17.875Z</time></trkpt><trkpt lat="45.1205717" lon="7.9913033"><ele>462.2</ele><time>2026-04-12T12:24:18.874Z</time></trkpt><trkpt lat="45.1206" lon="7.9911583"><ele>465.0</ele><time>2026-04-12T12:24:19.875Z</time></trkpt><trkpt lat="45.1206367" lon="7.9910033"><ele>465.0</ele><time>2026-04-12T12:24:20.874Z</time></trkpt><trkpt lat="45.1206683" lon="7.9908483"><ele>465.0</ele><time>2026-04-12T12:24:21.875Z</time></trkpt><trkpt lat="45.12069" lon="7.9907183"><ele>465.0</ele><time>2026-04-12T12:24:22.875Z</time></trkpt><trkpt lat="45.120725" lon="7.99059"><ele>465.0</ele><time>2026-04-12T12:24:23.875Z</time></trkpt><trkpt lat="45.120765" lon="7.9904883"><ele>465.0</ele><time>2026-04-12T12:24:24.875Z</time></trkpt><trkpt lat="45.1208033" lon="7.9903967"><ele>466.6666666666667</ele><time>2026-04-12T12:24:25.875Z</time></trkpt><trkpt lat="45.120825" lon="7.9903083"><ele>468.33333333333337</ele><time>2026-04-12T12:24:26.875Z</time></trkpt><trkpt lat="45.12078" lon="7.99017"><ele>470.0</ele><time>2026-04-12T12:24:28.874Z</time></trkpt><trkpt lat="45.1207083" lon="7.99013"><ele>471.6666666666667</ele><time>2026-04-12T12:24:29.875Z</time></trkpt><trkpt lat="45.12063" lon="7.9900983"><ele>473.33333333333337</ele><time>2026-04-12T12:24:30.875Z</time></trkpt><trkpt lat="45.1205333" lon="7.990075"><ele>475.0</ele><time>2026-04-12T12:24:31.874Z</time></trkpt><trkpt lat="45.1204283" lon="7.990065"><ele>475.00000000000006</ele><time>2026-04-12T12:24:32.875Z</time></trkpt><trkpt lat="45.12034" lon="7.99003"><ele>475.0</ele><time>2026-04-12T12:24:33.874Z</time></trkpt><trkpt lat="45.1202717" lon="7.9899817"><ele>475.0</ele><time>2026-04-12T12:24:34.875Z</time></trkpt><trkpt lat="45.1202083" lon="7.9899067"><ele>475.0</ele><time>2026-04-12T12:24:35.874Z</time></trkpt><trkpt lat="45.1201533" lon="7.9898083"><ele>475.00000000000006</ele><time>2026-04-12T12:24:36.874Z</time></trkpt><trkpt lat="45.1200833" lon="7.9897133"><ele>475.0</ele><time>2026-04-12T12:24:37.874Z</time></trkpt><trkpt lat="45.1200083" lon="7.9896017"><ele>474.2</ele><time>2026-04-12T12:24:38.874Z</time></trkpt><trkpt lat="45.1199317" lon="7.9894917"><ele>473.4</ele><time>2026-04-12T12:24:39.874Z</time></trkpt><trkpt lat="45.1198633" lon="7.9893717"><ele>472.6</ele><time>2026-04-12T12:24:40.875Z</time></trkpt><trkpt lat="45.1198083" lon="7.989265"><ele>471.8</ele><time>2026-04-12T12:24:41.875Z</time></trkpt><trkpt lat="45.119755" lon="7.989155"><ele>471.0</ele><time>2026-04-12T12:24:42.874Z</time></trkpt><trkpt lat="45.1196933" lon="7.9890333"><ele>471.0</ele><time>2026-04-12T12:24:43.875Z</time></trkpt><trkpt lat="45.1196183" lon="7.9889333"><ele>471.0</ele><time>2026-04-12T12:24:44.875Z</time></trkpt><trkpt lat="45.1195417" lon="7.9888367"><ele>471.0</ele><time>2026-04-12T12:24:45.875Z</time></trkpt><trkpt lat="45.1194617" lon="7.9887417"><ele>471.0</ele><time>2026-04-12T12:24:46.874Z</time></trkpt><trkpt lat="45.119395" lon="7.988645"><ele>471.0</ele><time>2026-04-12T12:24:47.875Z</time></trkpt><trkpt lat="45.1193417" lon="7.988545"><ele>471.0</ele><time>2026-04-12T12:24:48.874Z</time></trkpt><trkpt lat="45.1193" lon="7.9884133"><ele>471.0</ele><time>2026-04-12T12:24:49.874Z</time></trkpt><trkpt lat="45.1192733" lon="7.9882733"><ele>471.0</ele><time>2026-04-12T12:24:50.874Z</time></trkpt><trkpt lat="45.1192583" lon="7.988125"><ele>471.0</ele><time>2026-04-12T12:24:51.875Z</time></trkpt><trkpt lat="45.1192383" lon="7.98799"><ele>471.0</ele><time>2026-04-12T12:24:52.874Z</time></trkpt><trkpt lat="45.11922" lon="7.9878433"><ele>467.20000000000005</ele><time>2026-04-12T12:24:53.875Z</time></trkpt><trkpt lat="45.1192017" lon="7.9877217"><ele>463.40000000000003</ele><time>2026-04-12T12:24:54.874Z</time></trkpt><trkpt lat="45.119185" lon="7.9876133"><ele>459.6</ele><time>2026-04-12T12:24:55.874Z</time></trkpt><trkpt lat="45.1191783" lon="7.987505"><ele>455.8</ele><time>2026-04-12T12:24:56.875Z</time></trkpt><trkpt lat="45.119235" lon="7.98735"><ele>452.0</ele><time>2026-04-12T12:24:58.874Z</time></trkpt><trkpt lat="45.1193117" lon="7.9872983"><ele>450.8</ele><time>2026-04-12T12:24:59.875Z</time></trkpt><trkpt lat="45.1193917" lon="7.9872233"><ele>449.6</ele><time>2026-04-12T12:25:00.875Z</time></trkpt><trkpt lat="45.1194567" lon="7.9871317"><ele>448.40000000000003</ele><time>2026-04-12T12:25:01.874Z</time></trkpt><trkpt lat="45.1195033" lon="7.98701"><ele>447.20000000000005</ele><time>2026-04-12T12:25:02.875Z</time></trkpt><trkpt lat="45.1195417" lon="7.9868883"><ele>446.0</ele><time>2026-04-12T12:25:03.875Z</time></trkpt><trkpt lat="45.119555" lon="7.9867717"><ele>445.3333333333333</ele><time>2026-04-12T12:25:04.874Z</time></trkpt><trkpt lat="45.11953" lon="7.9866683"><ele>444.66666666666663</ele><time>2026-04-12T12:25:05.875Z</time></trkpt><trkpt lat="45.1194917" lon="7.9865733"><ele>444.0</ele><time>2026-04-12T12:25:06.875Z</time></trkpt><trkpt lat="45.119445" lon="7.986475"><ele>443.33333333333337</ele><time>2026-04-12T12:25:07.874Z</time></trkpt><trkpt lat="45.1194017" lon="7.9863633"><ele>442.6666666666667</ele><time>2026-04-12T12:25:08.875Z</time></trkpt><trkpt lat="45.1193483" lon="7.9862583"><ele>442.0</ele><time>2026-04-12T12:25:09.875Z</time></trkpt><trkpt lat="45.1192983" lon="7.986145"><ele>442.0</ele><time>2026-04-12T12:25:10.875Z</time></trkpt><trkpt lat="45.11925" lon="7.9860333"><ele>442.00000000000006</ele><time>2026-04-12T12:25:11.875Z</time></trkpt><trkpt lat="45.1192033" lon="7.985925"><ele>442.00000000000006</ele><time>2026-04-12T12:25:12.875Z</time></trkpt><trkpt lat="45.11916" lon="7.985825"><ele>442.0</ele><time>2026-04-12T12:25:13.874Z</time></trkpt><trkpt lat="45.1191433" lon="7.9856883"><ele>442.0</ele><time>2026-04-12T12:25:14.875Z</time></trkpt><trkpt lat="45.1191517" lon="7.9855233"><ele>439.0</ele><time>2026-04-12T12:25:15.875Z</time></trkpt><trkpt lat="45.11917" lon="7.9853583"><ele>436.0</ele><time>2026-04-12T12:25:16.875Z</time></trkpt><trkpt lat="45.11921" lon="7.985185"><ele>433.0</ele><time>2026-04-12T12:25:17.874Z</time></trkpt><trkpt lat="45.11926" lon="7.9850183"><ele>430.0</ele><time>2026-04-12T12:25:18.874Z</time></trkpt><trkpt lat="45.1193117" lon="7.98487"><ele>429.6666666666667</ele><time>2026-04-12T12:25:19.875Z</time></trkpt><trkpt lat="45.1193683" lon="7.9847383"><ele>429.33333333333337</ele><time>2026-04-12T12:25:20.875Z</time></trkpt><trkpt lat="45.1194183" lon="7.98462"><ele>429.0</ele><time>2026-04-12T12:25:21.874Z</time></trkpt><trkpt lat="45.1194817" lon="7.98451"><ele>428.66666666666663</ele><time>2026-04-12T12:25:22.875Z</time></trkpt><trkpt lat="45.11953" lon="7.9844317"><ele>428.3333333333333</ele><time>2026-04-12T12:25:23.874Z</time></trkpt><trkpt lat="45.1195683" lon="7.9843583"><ele>428.0</ele><time>2026-04-12T12:25:24.874Z</time></trkpt><trkpt lat="45.11962" lon="7.9842717"><ele>424.25</ele><time>2026-04-12T12:25:25.875Z</time></trkpt><trkpt lat="45.11967" lon="7.984155"><ele>420.5</ele><time>2026-04-12T12:25:26.874Z</time></trkpt><trkpt lat="45.11973" lon="7.984025"><ele>416.75</ele><time>2026-04-12T12:25:27.875Z</time></trkpt><trkpt lat="45.1197867" lon="7.9838767"><ele>413.0</ele><time>2026-04-12T12:25:28.874Z</time></trkpt><trkpt lat="45.11985" lon="7.9837217"><ele>412.0</ele><time>2026-04-12T12:25:29.874Z</time></trkpt><trkpt lat="45.1199283" lon="7.9835483"><ele>411.0</ele><time>2026-04-12T12:25:30.874Z</time></trkpt><trkpt lat="45.120005" lon="7.983375"><ele>410.0</ele><time>2026-04-12T12:25:31.874Z</time></trkpt><trkpt lat="45.1200883" lon="7.9832033"><ele>409.0</ele><time>2026-04-12T12:25:32.875Z</time></trkpt><trkpt lat="45.1201767" lon="7.9830567"><ele>408.0</ele><time>2026-04-12T12:25:33.874Z</time></trkpt><trkpt lat="45.1202867" lon="7.9829367"><ele>407.0</ele><time>2026-04-12T12:25:34.874Z</time></trkpt><trkpt lat="45.1204017" lon="7.9828417"><ele>406.0</ele><time>2026-04-12T12:25:35.874Z</time></trkpt><trkpt lat="45.1205183" lon="7.982775"><ele>405.0</ele><time>2026-04-12T12:25:36.875Z</time></trkpt><trkpt lat="45.1206383" lon="7.9827367"><ele>402.5</ele><time>2026-04-12T12:25:37.875Z</time></trkpt><trkpt lat="45.1207683" lon="7.98272"><ele>400.0</ele><time>2026-04-12T12:25:38.875Z</time></trkpt><trkpt lat="45.12091" lon="7.98273"><ele>397.5</ele><time>2026-04-12T12:25:39.874Z</time></trkpt><trkpt lat="45.1210383" lon="7.9827733"><ele>395.0</ele><time>2026-04-12T12:25:40.875Z</time></trkpt><trkpt lat="45.1211667" lon="7.98281"><ele>395.0</ele><time>2026-04-12T12:25:41.875Z</time></trkpt><trkpt lat="45.1212933" lon="7.9828367"><ele>395.0</ele><time>2026-04-12T12:25:42.875Z</time></trkpt><trkpt lat="45.1214117" lon="7.982835"><ele>395.0</ele><time>2026-04-12T12:25:43.875Z</time></trkpt><trkpt lat="45.121545" lon="7.982785"><ele>395.0</ele><time>2026-04-12T12:25:44.874Z</time></trkpt><trkpt lat="45.1216633" lon="7.9827217"><ele>392.0</ele><time>2026-04-12T12:25:45.875Z</time></trkpt><trkpt lat="45.1217883" lon="7.9826267"><ele>389.0</ele><time>2026-04-12T12:25:46.875Z</time></trkpt><trkpt lat="45.1219067" lon="7.9825033"><ele>386.0</ele><time>2026-04-12T12:25:47.874Z</time></trkpt><trkpt lat="45.121995" lon="7.9823567"><ele>383.0</ele><time>2026-04-12T12:25:48.874Z</time></trkpt><trkpt lat="45.1220617" lon="7.982215"><ele>383.0</ele><time>2026-04-12T12:25:49.875Z</time></trkpt><trkpt lat="45.12212" lon="7.9820633"><ele>383.0</ele><time>2026-04-12T12:25:50.875Z</time></trkpt><trkpt lat="45.1221617" lon="7.9819183"><ele>383.0</ele><time>2026-04-12T12:25:51.874Z</time></trkpt><trkpt lat="45.1222033" lon="7.9817633"><ele>383.0</ele><time>2026-04-12T12:25:52.874Z</time></trkpt><trkpt lat="45.12224" lon="7.9816083"><ele>382.6666666666667</ele><time>2026-04-12T12:25:53.874Z</time></trkpt><trkpt lat="45.1222783" lon="7.9814817"><ele>382.33333333333337</ele><time>2026-04-12T12:25:54.874Z</time></trkpt><trkpt lat="45.12232" lon="7.98138"><ele>382.0</ele><time>2026-04-12T12:25:55.875Z</time></trkpt><trkpt lat="45.1223733" lon="7.9813067"><ele>381.6666666666667</ele><time>2026-04-12T12:25:56.875Z</time></trkpt><trkpt lat="45.1224367" lon="7.9812183"><ele>381.3333333333333</ele><time>2026-04-12T12:25:57.875Z</time></trkpt><trkpt lat="45.12252" lon="7.9811417"><ele>381.0</ele><time>2026-04-12T12:25:58.874Z</time></trkpt><trkpt lat="45.1226117" lon="7.9810667"><ele>382.0</ele><time>2026-04-12T12:25:59.875Z</time></trkpt><trkpt lat="45.1227167" lon="7.9809833"><ele>383.0</ele><time>2026-04-12T12:26:00.874Z</time></trkpt><trkpt lat="45.1228333" lon="7.980885"><ele>384.0</ele><time>2026-04-12T12:26:01.875Z</time></trkpt><trkpt lat="45.122945" lon="7.9807817"><ele>385.0</ele><time>2026-04-12T12:26:02.874Z</time></trkpt><trkpt lat="45.12306" lon="7.9806967"><ele>385.0</ele><time>2026-04-12T12:26:03.875Z</time></trkpt><trkpt lat="45.1231833" lon="7.9806333"><ele>385.0</ele><time>2026-04-12T12:26:04.874Z</time></trkpt><trkpt lat="45.12331" lon="7.9805817"><ele>385.0</ele><time>2026-04-12T12:26:05.875Z</time></trkpt><trkpt lat="45.1234367" lon="7.98052"><ele>385.0</ele><time>2026-04-12T12:26:06.874Z</time></trkpt><trkpt lat="45.1235617" lon="7.9804717"><ele>388.5</ele><time>2026-04-12T12:26:07.874Z</time></trkpt><trkpt lat="45.1236767" lon="7.980405"><ele>392.0</ele><time>2026-04-12T12:26:08.874Z</time></trkpt><trkpt lat="45.1238" lon="7.9803367"><ele>395.5</ele><time>2026-04-12T12:26:09.874Z</time></trkpt><trkpt lat="45.1239233" lon="7.9802667"><ele>399.0</ele><time>2026-04-12T12:26:10.874Z</time></trkpt><trkpt lat="45.12405" lon="7.980175"><ele>399.25</ele><time>2026-04-12T12:26:11.875Z</time></trkpt><trkpt lat="45.124175" lon="7.9800633"><ele>399.5</ele><time>2026-04-12T12:26:12.875Z</time></trkpt><trkpt lat="45.1242567" lon="7.979955"><ele>399.75</ele><time>2026-04-12T12:26:13.874Z</time></trkpt><trkpt lat="45.1243617" lon="7.9798433"><ele>400.0</ele><time>2026-04-12T12:26:14.875Z</time></trkpt><trkpt lat="45.124465" lon="7.979755"><ele>400.0</ele><time>2026-04-12T12:26:15.874Z</time></trkpt><trkpt lat="45.1246067" lon="7.9796717"><ele>400.0</ele><time>2026-04-12T12:26:16.874Z</time></trkpt><trkpt lat="45.124755" lon="7.9795933"><ele>400.0</ele><time>2026-04-12T12:26:17.874Z</time></trkpt><trkpt lat="45.12489" lon="7.9795217"><ele>399.75</ele><time>2026-04-12T12:26:18.875Z</time></trkpt><trkpt lat="45.1250133" lon="7.9794633"><ele>399.5</ele><time>2026-04-12T12:26:19.874Z</time></trkpt><trkpt lat="45.12514" lon="7.9794033"><ele>399.25</ele><time>2026-04-12T12:26:20.875Z</time></trkpt><trkpt lat="45.1252733" lon="7.979355"><ele>399.0</ele><time>2026-04-12T12:26:21.875Z</time></trkpt><trkpt lat="45.1254217" lon="7.9793133"><ele>399.0</ele><time>2026-04-12T12:26:22.874Z</time></trkpt><trkpt lat="45.1255783" lon="7.9792517"><ele>399.0</ele><time>2026-04-12T12:26:23.874Z</time></trkpt><trkpt lat="45.1257217" lon="7.9791767"><ele>399.0</ele><time>2026-04-12T12:26:24.875Z</time></trkpt><trkpt lat="45.125865" lon="7.9791233"><ele>394.0</ele><time>2026-04-12T12:26:25.874Z</time></trkpt><trkpt lat="45.1260083" lon="7.9791117"><ele>389.0</ele><time>2026-04-12T12:26:26.874Z</time></trkpt><trkpt lat="45.126155" lon="7.97913"><ele>384.0</ele><time>2026-04-12T12:26:27.874Z</time></trkpt><trkpt lat="45.1262967" lon="7.9791767"><ele>379.0</ele><time>2026-04-12T12:26:28.874Z</time></trkpt><trkpt lat="45.1264383" lon="7.9792467"><ele>375.75</ele><time>2026-04-12T12:26:29.875Z</time></trkpt><trkpt lat="45.1265633" lon="7.979315"><ele>372.5</ele><time>2026-04-12T12:26:30.875Z</time></trkpt><trkpt lat="45.1266867" lon="7.9793633"><ele>369.25</ele><time>2026-04-12T12:26:31.874Z</time></trkpt><trkpt lat="45.1268167" lon="7.9793833"><ele>366.0</ele><time>2026-04-12T12:26:32.874Z</time></trkpt><trkpt lat="45.126945" lon="7.97938"><ele>366.0</ele><time>2026-04-12T12:26:33.875Z</time></trkpt><trkpt lat="45.127065" lon="7.979335"><ele>366.0</ele><time>2026-04-12T12:26:34.874Z</time></trkpt><trkpt lat="45.127175" lon="7.979235"><ele>366.0</ele><time>2026-04-12T12:26:35.875Z</time></trkpt><trkpt lat="45.1272283" lon="7.979075"><ele>366.0</ele><time>2026-04-12T12:26:36.874Z</time></trkpt><trkpt lat="45.12725" lon="7.97888"><ele>364.5</ele><time>2026-04-12T12:26:37.875Z</time></trkpt><trkpt lat="45.12724" lon="7.9786667"><ele>363.0</ele><time>2026-04-12T12:26:38.874Z</time></trkpt><trkpt lat="45.127245" lon="7.9784683"><ele>361.5</ele><time>2026-04-12T12:26:39.874Z</time></trkpt><trkpt lat="45.127235" lon="7.97827"><ele>360.0</ele><time>2026-04-12T12:26:40.874Z</time></trkpt><trkpt lat="45.1272433" lon="7.97807"><ele>360.0</ele><time>2026-04-12T12:26:41.874Z</time></trkpt><trkpt lat="45.127265" lon="7.9778733"><ele>360.0</ele><time>2026-04-12T12:26:42.875Z</time></trkpt><trkpt lat="45.1272983" lon="7.9776767"><ele>360.0</ele><time>2026-04-12T12:26:43.874Z</time></trkpt><trkpt lat="45.127315" lon="7.9774567"><ele>360.0</ele><time>2026-04-12T12:26:44.874Z</time></trkpt><trkpt lat="45.12729" lon="7.9772583"><ele>358.5</ele><time>2026-04-12T12:26:45.874Z</time></trkpt><trkpt lat="45.127245" lon="7.9770867"><ele>357.0</ele><time>2026-04-12T12:26:46.874Z</time></trkpt><trkpt lat="45.12721" lon="7.976915"><ele>355.5</ele><time>2026-04-12T12:26:47.875Z</time></trkpt><trkpt lat="45.1271933" lon="7.9767633"><ele>354.0</ele><time>2026-04-12T12:26:48.874Z</time></trkpt><trkpt lat="45.1271983" lon="7.9766317"><ele>354.0</ele><time>2026-04-12T12:26:49.874Z</time></trkpt><trkpt lat="45.127225" lon="7.976545"><ele>354.0</ele><time>2026-04-12T12:26:50.874Z</time></trkpt><trkpt lat="45.12727" lon="7.9764817"><ele>354.0</ele><time>2026-04-12T12:26:51.874Z</time></trkpt><trkpt lat="45.1273483" lon="7.9764617"><ele>354.0</ele><time>2026-04-12T12:26:52.874Z</time></trkpt><trkpt lat="45.1274533" lon="7.976475"><ele>354.0</ele><time>2026-04-12T12:26:53.875Z</time></trkpt><trkpt lat="45.1275833" lon="7.97647"><ele>354.0</ele><time>2026-04-12T12:26:54.874Z</time></trkpt><trkpt lat="45.1277133" lon="7.9764133"><ele>360.5</ele><time>2026-04-12T12:26:55.874Z</time></trkpt><trkpt lat="45.12783" lon="7.9763433"><ele>367.0</ele><time>2026-04-12T12:26:56.874Z</time></trkpt><trkpt lat="45.127935" lon="7.9762967"><ele>373.5</ele><time>2026-04-12T12:26:57.874Z</time></trkpt><trkpt lat="45.1280467" lon="7.97629"><ele>380.0</ele><time>2026-04-12T12:26:58.874Z</time></trkpt><trkpt lat="45.1281533" lon="7.9763167"><ele>381.75</ele><time>2026-04-12T12:26:59.875Z</time></trkpt><trkpt lat="45.128285" lon="7.9763283"><ele>383.5</ele><time>2026-04-12T12:27:00.875Z</time></trkpt><trkpt lat="45.12841" lon="7.9762867"><ele>385.25</ele><time>2026-04-12T12:27:01.874Z</time></trkpt><trkpt lat="45.12851" lon="7.9762033"><ele>387.0</ele><time>2026-04-12T12:27:02.874Z</time></trkpt><trkpt lat="45.1285867" lon="7.9760817"><ele>387.0</ele><time>2026-04-12T12:27:03.874Z</time></trkpt><trkpt lat="45.1286533" lon="7.9759483"><ele>387.0</ele><time>2026-04-12T12:27:04.875Z</time></trkpt><trkpt lat="45.1287183" lon="7.975835"><ele>387.0</ele><time>2026-04-12T12:27:05.874Z</time></trkpt><trkpt lat="45.1287717" lon="7.97575"><ele>387.0</ele><time>2026-04-12T12:27:06.875Z</time></trkpt><trkpt lat="45.128815" lon="7.975665"><ele>387.0</ele><time>2026-04-12T12:27:07.874Z</time></trkpt><trkpt lat="45.12884" lon="7.9755733"><ele>387.0</ele><time>2026-04-12T12:27:08.874Z</time></trkpt><trkpt lat="45.1288267" lon="7.9754783"><ele>381.0</ele><time>2026-04-12T12:27:09.874Z</time></trkpt><trkpt lat="45.1287833" lon="7.9753733"><ele>375.0</ele><time>2026-04-12T12:27:10.875Z</time></trkpt><trkpt lat="45.128705" lon="7.9752633"><ele>369.0</ele><time>2026-04-12T12:27:11.875Z</time></trkpt><trkpt lat="45.128605" lon="7.9751383"><ele>363.0</ele><time>2026-04-12T12:27:12.874Z</time></trkpt><trkpt lat="45.1284967" lon="7.974975"><ele>361.0</ele><time>2026-04-12T12:27:13.874Z</time></trkpt><trkpt lat="45.1284367" lon="7.974815"><ele>359.0</ele><time>2026-04-12T12:27:14.874Z</time></trkpt><trkpt lat="45.1284317" lon="7.9746567"><ele>357.0</ele><time>2026-04-12T12:27:15.874Z</time></trkpt><trkpt lat="45.1284667" lon="7.974505"><ele>355.0</ele><time>2026-04-12T12:27:16.874Z</time></trkpt><trkpt lat="45.1285233" lon="7.974375"><ele>355.0</ele><time>2026-04-12T12:27:17.875Z</time></trkpt><trkpt lat="45.1285783" lon="7.9742483"><ele>355.0</ele><time>2026-04-12T12:27:18.874Z</time></trkpt><trkpt lat="45.12861" lon="7.9741233"><ele>355.0</ele><time>2026-04-12T12:27:19.875Z</time></trkpt><trkpt lat="45.12863" lon="7.9739567"><ele>355.0</ele><time>2026-04-12T12:27:20.874Z</time></trkpt><trkpt lat="45.1286283" lon="7.9737867"><ele>355.0</ele><time>2026-04-12T12:27:21.874Z</time></trkpt><trkpt lat="45.128635" lon="7.973645"><ele>353.5</ele><time>2026-04-12T12:27:22.874Z</time></trkpt><trkpt lat="45.128645" lon="7.97352"><ele>352.0</ele><time>2026-04-12T12:27:23.874Z</time></trkpt><trkpt lat="45.1286533" lon="7.9734167"><ele>350.5</ele><time>2026-04-12T12:27:24.874Z</time></trkpt><trkpt lat="45.1286733" lon="7.9733317"><ele>349.0</ele><time>2026-04-12T12:27:25.874Z</time></trkpt><trkpt lat="45.12874" lon="7.973195"><ele>347.5</ele><time>2026-04-12T12:27:27.874Z</time></trkpt><trkpt lat="45.128795" lon="7.97315"><ele>346.0</ele><time>2026-04-12T12:27:28.875Z</time></trkpt><trkpt lat="45.1288667" lon="7.9731317"><ele>345.0</ele><time>2026-04-12T12:27:29.874Z</time></trkpt><trkpt lat="45.1289617" lon="7.9731317"><ele>344.0</ele><time>2026-04-12T12:27:30.874Z</time></trkpt><trkpt lat="45.1290533" lon="7.97312"><ele>343.0</ele><time>2026-04-12T12:27:31.875Z</time></trkpt><trkpt lat="45.1291467" lon="7.9730833"><ele>342.0</ele><time>2026-04-12T12:27:32.874Z</time></trkpt><trkpt lat="45.1292317" lon="7.9730083"><ele>341.0</ele><time>2026-04-12T12:27:33.874Z</time></trkpt><trkpt lat="45.129295" lon="7.9729083"><ele>341.0</ele><time>2026-04-12T12:27:34.874Z</time></trkpt><trkpt lat="45.12935" lon="7.9727817"><ele>341.0</ele><time>2026-04-12T12:27:35.874Z</time></trkpt><trkpt lat="45.1294117" lon="7.9726433"><ele>341.0</ele><time>2026-04-12T12:27:36.874Z</time></trkpt><trkpt lat="45.1294783" lon="7.9725033"><ele>341.0</ele><time>2026-04-12T12:27:37.874Z</time></trkpt><trkpt lat="45.1295533" lon="7.9723717"><ele>341.0</ele><time>2026-04-12T12:27:38.875Z</time></trkpt><trkpt lat="45.12962" lon="7.97225"><ele>341.0</ele><time>2026-04-12T12:27:39.874Z</time></trkpt><trkpt lat="45.1296717" lon="7.972105"><ele>341.0</ele><time>2026-04-12T12:27:40.874Z</time></trkpt><trkpt lat="45.129725" lon="7.9719683"><ele>341.0</ele><time>2026-04-12T12:27:41.875Z</time></trkpt><trkpt lat="45.12975" lon="7.9718317"><ele>341.0</ele><time>2026-04-12T12:27:42.875Z</time></trkpt><trkpt lat="45.1297433" lon="7.9716967"><ele>337.8</ele><time>2026-04-12T12:27:43.875Z</time></trkpt><trkpt lat="45.129715" lon="7.9715667"><ele>334.6</ele><time>2026-04-12T12:27:44.874Z</time></trkpt><trkpt lat="45.1297067" lon="7.9714367"><ele>331.4</ele><time>2026-04-12T12:27:45.874Z</time></trkpt><trkpt lat="45.1297033" lon="7.9712967"><ele>328.2</ele><time>2026-04-12T12:27:46.874Z</time></trkpt><trkpt lat="45.1297233" lon="7.9711467"><ele>325.0</ele><time>2026-04-12T12:27:47.875Z</time></trkpt><trkpt lat="45.1297483" lon="7.9710083"><ele>325.0</ele><time>2026-04-12T12:27:48.875Z</time></trkpt><trkpt lat="45.1297667" lon="7.97088"><ele>325.0</ele><time>2026-04-12T12:27:49.875Z</time></trkpt><trkpt lat="45.1298033" lon="7.97075"><ele>325.0</ele><time>2026-04-12T12:27:50.874Z</time></trkpt><trkpt lat="45.12985" lon="7.9706483"><ele>325.0</ele><time>2026-04-12T12:27:51.874Z</time></trkpt><trkpt lat="45.1299" lon="7.9705283"><ele>325.0</ele><time>2026-04-12T12:27:52.875Z</time></trkpt><trkpt lat="45.1299383" lon="7.9703883"><ele>325.5</ele><time>2026-04-12T12:27:53.874Z</time></trkpt><trkpt lat="45.1299633" lon="7.9702383"><ele>326.0</ele><time>2026-04-12T12:27:54.874Z</time></trkpt><trkpt lat="45.1299617" lon="7.9700733"><ele>326.5</ele><time>2026-04-12T12:27:55.874Z</time></trkpt><trkpt lat="45.1299383" lon="7.9699083"><ele>327.0</ele><time>2026-04-12T12:27:56.874Z</time></trkpt><trkpt lat="45.1299" lon="7.969755"><ele>323.5</ele><time>2026-04-12T12:27:57.874Z</time></trkpt><trkpt lat="45.12986" lon="7.9696017"><ele>320.0</ele><time>2026-04-12T12:27:58.874Z</time></trkpt><trkpt lat="45.1298267" lon="7.9694367"><ele>316.5</ele><time>2026-04-12T12:27:59.875Z</time></trkpt><trkpt lat="45.1298217" lon="7.969255"><ele>313.0</ele><time>2026-04-12T12:28:00.874Z</time></trkpt><trkpt lat="45.1298533" lon="7.9690667"><ele>312.0</ele><time>2026-04-12T12:28:01.875Z</time></trkpt><trkpt lat="45.129895" lon="7.9688967"><ele>311.0</ele><time>2026-04-12T12:28:02.874Z</time></trkpt><trkpt lat="45.12994" lon="7.968725"><ele>310.0</ele><time>2026-04-12T12:28:03.874Z</time></trkpt><trkpt lat="45.1299817" lon="7.9685483"><ele>309.0</ele><time>2026-04-12T12:28:04.874Z</time></trkpt><trkpt lat="45.1300383" lon="7.9683783"><ele>308.75</ele><time>2026-04-12T12:28:05.874Z</time></trkpt><trkpt lat="45.1300867" lon="7.9682117"><ele>308.5</ele><time>2026-04-12T12:28:06.875Z</time></trkpt><trkpt lat="45.1301383" lon="7.9680333"><ele>308.25</ele><time>2026-04-12T12:28:07.875Z</time></trkpt><trkpt lat="45.13018" lon="7.9678617"><ele>308.0</ele><time>2026-04-12T12:28:08.874Z</time></trkpt><trkpt lat="45.1302167" lon="7.9676867"><ele>305.75</ele><time>2026-04-12T12:28:09.875Z</time></trkpt><trkpt lat="45.13025" lon="7.967505"><ele>303.5</ele><time>2026-04-12T12:28:10.875Z</time></trkpt><trkpt lat="45.130275" lon="7.967315"><ele>301.25</ele><time>2026-04-12T12:28:11.875Z</time></trkpt><trkpt lat="45.1302783" lon="7.9671367"><ele>299.0</ele><time>2026-04-12T12:28:12.874Z</time></trkpt><trkpt lat="45.13028" lon="7.9669333"><ele>299.0</ele><time>2026-04-12T12:28:13.875Z</time></trkpt><trkpt lat="45.1302783" lon="7.9667183"><ele>299.0</ele><time>2026-04-12T12:28:14.874Z</time></trkpt><trkpt lat="45.1302867" lon="7.9665267"><ele>299.0</ele><time>2026-04-12T12:28:15.875Z</time></trkpt><trkpt lat="45.1303117" lon="7.966325"><ele>299.0</ele><time>2026-04-12T12:28:16.875Z</time></trkpt><trkpt lat="45.1303467" lon="7.9661217"><ele>296.25</ele><time>2026-04-12T12:28:17.874Z</time></trkpt><trkpt lat="45.1303767" lon="7.9659267"><ele>293.5</ele><time>2026-04-12T12:28:18.874Z</time></trkpt><trkpt lat="45.1304067" lon="7.9657433"><ele>290.75</ele><time>2026-04-12T12:28:19.874Z</time></trkpt><trkpt lat="45.1304433" lon="7.9655533"><ele>288.0</ele><time>2026-04-12T12:28:20.875Z</time></trkpt><trkpt lat="45.130485" lon="7.9653567"><ele>285.0</ele><time>2026-04-12T12:28:21.875Z</time></trkpt><trkpt lat="45.130535" lon="7.965155"><ele>282.0</ele><time>2026-04-12T12:28:22.874Z</time></trkpt><trkpt lat="45.1305733" lon="7.9649683"><ele>279.0</ele><time>2026-04-12T12:28:23.875Z</time></trkpt><trkpt lat="45.1306183" lon="7.9647783"><ele>276.0</ele><time>2026-04-12T12:28:24.875Z</time></trkpt><trkpt lat="45.1306717" lon="7.9645833"><ele>273.75</ele><time>2026-04-12T12:28:25.874Z</time></trkpt><trkpt lat="45.13071" lon="7.9643817"><ele>271.5</ele><time>2026-04-12T12:28:26.874Z</time></trkpt><trkpt lat="45.1307517" lon="7.9641767"><ele>269.25</ele><time>2026-04-12T12:28:27.875Z</time></trkpt><trkpt lat="45.13081" lon="7.9639817"><ele>267.0</ele><time>2026-04-12T12:28:28.874Z</time></trkpt><trkpt lat="45.1308633" lon="7.9637867"><ele>267.0</ele><time>2026-04-12T12:28:29.875Z</time></trkpt><trkpt lat="45.1309083" lon="7.9635917"><ele>267.0</ele><time>2026-04-12T12:28:30.874Z</time></trkpt><trkpt lat="45.1309483" lon="7.9634033"><ele>267.0</ele><time>2026-04-12T12:28:31.875Z</time></trkpt><trkpt lat="45.13097" lon="7.9632083"><ele>267.0</ele><time>2026-04-12T12:28:32.875Z</time></trkpt><trkpt lat="45.1309817" lon="7.9630267"><ele>265.5</ele><time>2026-04-12T12:28:33.874Z</time></trkpt><trkpt lat="45.13095" lon="7.9628567"><ele>264.0</ele><time>2026-04-12T12:28:34.874Z</time></trkpt><trkpt lat="45.130905" lon="7.96268"><ele>262.5</ele><time>2026-04-12T12:28:35.875Z</time></trkpt><trkpt lat="45.1308467" lon="7.9624917"><ele>261.0</ele><time>2026-04-12T12:28:36.875Z</time></trkpt><trkpt lat="45.13078" lon="7.9623033"><ele>254.66666666666669</ele><time>2026-04-12T12:28:37.874Z</time></trkpt><trkpt lat="45.1307083" lon="7.9620983"><ele>248.33333333333334</ele><time>2026-04-12T12:28:38.875Z</time></trkpt><trkpt lat="45.1306417" lon="7.96188"><ele>242.0</ele><time>2026-04-12T12:28:39.874Z</time></trkpt><trkpt lat="45.13058" lon="7.9616583"><ele>240.66666666666669</ele><time>2026-04-12T12:28:40.875Z</time></trkpt><trkpt lat="45.1304983" lon="7.9614433"><ele>239.33333333333331</ele><time>2026-04-12T12:28:41.875Z</time></trkpt><trkpt lat="45.130445" lon="7.9612333"><ele>238.0</ele><time>2026-04-12T12:28:42.874Z</time></trkpt><trkpt lat="45.1303883" lon="7.9610433"><ele>237.25</ele><time>2026-04-12T12:28:43.875Z</time></trkpt><trkpt lat="45.13037" lon="7.9608517"><ele>236.5</ele><time>2026-04-12T12:28:44.875Z</time></trkpt><trkpt lat="45.1303767" lon="7.9606417"><ele>235.75</ele><time>2026-04-12T12:28:45.874Z</time></trkpt><trkpt lat="45.1304017" lon="7.9604467"><ele>235.0</ele><time>2026-04-12T12:28:46.874Z</time></trkpt><trkpt lat="45.1304367" lon="7.9602683"><ele>235.0</ele><time>2026-04-12T12:28:47.874Z</time></trkpt><trkpt lat="45.1304633" lon="7.960075"><ele>235.0</ele><time>2026-04-12T12:28:48.875Z</time></trkpt><trkpt lat="45.13047" lon="7.9598767"><ele>235.0</ele><time>2026-04-12T12:28:49.874Z</time></trkpt><trkpt lat="45.1304717" lon="7.95967"><ele>235.0</ele><time>2026-04-12T12:28:50.875Z</time></trkpt><trkpt lat="45.13045" lon="7.9594467"><ele>234.0</ele><time>2026-04-12T12:28:51.875Z</time></trkpt><trkpt lat="45.1304583" lon="7.95925"><ele>233.0</ele><time>2026-04-12T12:28:52.874Z</time></trkpt><trkpt lat="45.13046" lon="7.959045"><ele>232.0</ele><time>2026-04-12T12:28:53.875Z</time></trkpt><trkpt lat="45.1304667" lon="7.9588333"><ele>231.0</ele><time>2026-04-12T12:28:54.875Z</time></trkpt><trkpt lat="45.1304917" lon="7.9586133"><ele>229.0</ele><time>2026-04-12T12:28:55.875Z</time></trkpt><trkpt lat="45.130525" lon="7.958385"><ele>227.0</ele><time>2026-04-12T12:28:56.874Z</time></trkpt><trkpt lat="45.1305433" lon="7.958155"><ele>225.0</ele><time>2026-04-12T12:28:57.875Z</time></trkpt><trkpt lat="45.1305367" lon="7.9579117"><ele>223.0</ele><time>2026-04-12T12:28:58.874Z</time></trkpt><trkpt lat="45.1305117" lon="7.95768"><ele>221.0</ele><time>2026-04-12T12:28:59.875Z</time></trkpt><trkpt lat="45.130485" lon="7.957445"><ele>219.0</ele><time>2026-04-12T12:29:00.874Z</time></trkpt><trkpt lat="45.130445" lon="7.95722"><ele>218.0</ele><time>2026-04-12T12:29:01.875Z</time></trkpt><trkpt lat="45.1304083" lon="7.956985"><ele>217.0</ele><time>2026-04-12T12:29:02.874Z</time></trkpt><trkpt lat="45.130375" lon="7.9567583"><ele>216.0</ele><time>2026-04-12T12:29:03.875Z</time></trkpt><trkpt lat="45.13034" lon="7.95655"><ele>215.75</ele><time>2026-04-12T12:29:04.875Z</time></trkpt><trkpt lat="45.130305" lon="7.9563417"><ele>215.5</ele><time>2026-04-12T12:29:05.875Z</time></trkpt><trkpt lat="45.13027" lon="7.9561583"><ele>215.25</ele><time>2026-04-12T12:29:06.874Z</time></trkpt><trkpt lat="45.13025" lon="7.9559883"><ele>215.0</ele><time>2026-04-12T12:29:07.874Z</time></trkpt><trkpt lat="45.1302483" lon="7.955825"><ele>215.0</ele><time>2026-04-12T12:29:08.874Z</time></trkpt><trkpt lat="45.1302783" lon="7.9556817"><ele>215.0</ele><time>2026-04-12T12:29:09.874Z</time></trkpt><trkpt lat="45.1303333" lon="7.9555433"><ele>215.0</ele><time>2026-04-12T12:29:10.874Z</time></trkpt><trkpt lat="45.130415" lon="7.9554483"><ele>215.0</ele><time>2026-04-12T12:29:11.874Z</time></trkpt><trkpt lat="45.1305067" lon="7.955385"><ele>215.0</ele><time>2026-04-12T12:29:12.874Z</time></trkpt><trkpt lat="45.1305867" lon="7.9552983"><ele>215.0</ele><time>2026-04-12T12:29:13.874Z</time></trkpt><trkpt lat="45.1306417" lon="7.955195"><ele>215.0</ele><time>2026-04-12T12:29:14.875Z</time></trkpt><trkpt lat="45.130665" lon="7.955075"><ele>215.0</ele><time>2026-04-12T12:29:15.875Z</time></trkpt><trkpt lat="45.1306667" lon="7.95494"><ele>215.0</ele><time>2026-04-12T12:29:16.874Z</time></trkpt><trkpt lat="45.1306667" lon="7.95479"><ele>215.0</ele><time>2026-04-12T12:29:17.874Z</time></trkpt><trkpt lat="45.1306733" lon="7.9546383"><ele>214.8</ele><time>2026-04-12T12:29:18.874Z</time></trkpt><trkpt lat="45.1306733" lon="7.9545017"><ele>214.6</ele><time>2026-04-12T12:29:19.874Z</time></trkpt><trkpt lat="45.1306533" lon="7.9543717"><ele>214.39999999999998</ele><time>2026-04-12T12:29:20.875Z</time></trkpt><trkpt lat="45.130615" lon="7.9542367"><ele>214.2</ele><time>2026-04-12T12:29:21.874Z</time></trkpt><trkpt lat="45.13055" lon="7.95409"><ele>214.0</ele><time>2026-04-12T12:29:22.875Z</time></trkpt><trkpt lat="45.1304883" lon="7.9539167"><ele>214.0</ele><time>2026-04-12T12:29:23.875Z</time></trkpt><trkpt lat="45.1304367" lon="7.9537267"><ele>214.0</ele><time>2026-04-12T12:29:24.874Z</time></trkpt><trkpt lat="45.1304" lon="7.953515"><ele>214.0</ele><time>2026-04-12T12:29:25.875Z</time></trkpt><trkpt lat="45.130365" lon="7.95332"><ele>214.0</ele><time>2026-04-12T12:29:26.874Z</time></trkpt><trkpt lat="45.130335" lon="7.95311"><ele>215.33333333333331</ele><time>2026-04-12T12:29:27.874Z</time></trkpt><trkpt lat="45.1302883" lon="7.9529083"><ele>216.66666666666669</ele><time>2026-04-12T12:29:28.874Z</time></trkpt><trkpt lat="45.1302367" lon="7.9527033"><ele>218.0</ele><time>2026-04-12T12:29:29.874Z</time></trkpt><trkpt lat="45.1301733" lon="7.95251"><ele>218.75</ele><time>2026-04-12T12:29:30.874Z</time></trkpt><trkpt lat="45.1301083" lon="7.9523433"><ele>219.5</ele><time>2026-04-12T12:29:31.875Z</time></trkpt><trkpt lat="45.13006" lon="7.95216"><ele>220.25</ele><time>2026-04-12T12:29:32.875Z</time></trkpt><trkpt lat="45.1300233" lon="7.9519633"><ele>221.0</ele><time>2026-04-12T12:29:33.875Z</time></trkpt><trkpt lat="45.12999" lon="7.9517617"><ele>221.25</ele><time>2026-04-12T12:29:34.875Z</time></trkpt><trkpt lat="45.1299633" lon="7.9515667"><ele>221.5</ele><time>2026-04-12T12:29:35.874Z</time></trkpt><trkpt lat="45.12994" lon="7.9513833"><ele>221.75</ele><time>2026-04-12T12:29:36.875Z</time></trkpt><trkpt lat="45.12994" lon="7.951185"><ele>222.0</ele><time>2026-04-12T12:29:37.874Z</time></trkpt><trkpt lat="45.1299517" lon="7.9509583"><ele>220.5</ele><time>2026-04-12T12:29:38.875Z</time></trkpt><trkpt lat="45.1299883" lon="7.950755"><ele>219.0</ele><time>2026-04-12T12:29:39.874Z</time></trkpt><trkpt lat="45.1300267" lon="7.9505567"><ele>217.5</ele><time>2026-04-12T12:29:40.874Z</time></trkpt><trkpt lat="45.1300517" lon="7.9503717"><ele>216.0</ele><time>2026-04-12T12:29:41.875Z</time></trkpt><trkpt lat="45.13007" lon="7.950205"><ele>214.25</ele><time>2026-04-12T12:29:42.875Z</time></trkpt><trkpt lat="45.1300667" lon="7.9500267"><ele>212.5</ele><time>2026-04-12T12:29:43.875Z</time></trkpt><trkpt lat="45.130045" lon="7.9498483"><ele>210.75</ele><time>2026-04-12T12:29:44.875Z</time></trkpt><trkpt lat="45.13001" lon="7.9496833"><ele>209.0</ele><time>2026-04-12T12:29:45.874Z</time></trkpt><trkpt lat="45.1299567" lon="7.9495317"><ele>209.0</ele><time>2026-04-12T12:29:46.875Z</time></trkpt><trkpt lat="45.1299017" lon="7.9493967"><ele>209.0</ele><time>2026-04-12T12:29:47.875Z</time></trkpt><trkpt lat="45.12984" lon="7.94927"><ele>209.0</ele><time>2026-04-12T12:29:48.874Z</time></trkpt><trkpt lat="45.1297733" lon="7.9491533"><ele>209.0</ele><time>2026-04-12T12:29:49.875Z</time></trkpt><trkpt lat="45.1297067" lon="7.9490517"><ele>209.0</ele><time>2026-04-12T12:29:50.875Z</time></trkpt><trkpt lat="45.12964" lon="7.9489533"><ele>208.39999999999998</ele><time>2026-04-12T12:29:51.874Z</time></trkpt><trkpt lat="45.1295817" lon="7.9488417"><ele>207.8</ele><time>2026-04-12T12:29:52.874Z</time></trkpt><trkpt lat="45.1295167" lon="7.9487233"><ele>207.2</ele><time>2026-04-12T12:29:53.875Z</time></trkpt><trkpt lat="45.129445" lon="7.94859"><ele>206.60000000000002</ele><time>2026-04-12T12:29:54.874Z</time></trkpt><trkpt lat="45.1293733" lon="7.948445"><ele>206.0</ele><time>2026-04-12T12:29:55.874Z</time></trkpt><trkpt lat="45.1292967" lon="7.9482933"><ele>206.0</ele><time>2026-04-12T12:29:56.874Z</time></trkpt><trkpt lat="45.1292183" lon="7.9481233"><ele>206.0</ele><time>2026-04-12T12:29:57.874Z</time></trkpt><trkpt lat="45.1291333" lon="7.9479383"><ele>206.0</ele><time>2026-04-12T12:29:58.874Z</time></trkpt><trkpt lat="45.1290617" lon="7.9477317"><ele>206.66666666666669</ele><time>2026-04-12T12:29:59.875Z</time></trkpt><trkpt lat="45.1290067" lon="7.9475117"><ele>207.33333333333331</ele><time>2026-04-12T12:30:00.874Z</time></trkpt><trkpt lat="45.1289683" lon="7.9473083"><ele>208.0</ele><time>2026-04-12T12:30:01.874Z</time></trkpt><trkpt lat="45.1289317" lon="7.947095"><ele>208.0</ele><time>2026-04-12T12:30:02.874Z</time></trkpt><trkpt lat="45.1288817" lon="7.9469017"><ele>208.0</ele><time>2026-04-12T12:30:03.875Z</time></trkpt><trkpt lat="45.1288217" lon="7.94671"><ele>208.0</ele><time>2026-04-12T12:30:04.875Z</time></trkpt><trkpt lat="45.12878" lon="7.9464967"><ele>208.0</ele><time>2026-04-12T12:30:05.874Z</time></trkpt><trkpt lat="45.1287633" lon="7.9462767"><ele>207.5</ele><time>2026-04-12T12:30:06.874Z</time></trkpt><trkpt lat="45.128715" lon="7.9461033"><ele>207.0</ele><time>2026-04-12T12:30:07.874Z</time></trkpt><trkpt lat="45.1286717" lon="7.9459417"><ele>206.5</ele><time>2026-04-12T12:30:08.875Z</time></trkpt><trkpt lat="45.1286433" lon="7.9458017"><ele>206.0</ele><time>2026-04-12T12:30:09.875Z</time></trkpt><trkpt lat="45.128625" lon="7.9456683"><ele>206.0</ele><time>2026-04-12T12:30:10.874Z</time></trkpt><trkpt lat="45.1286167" lon="7.9455667"><ele>206.0</ele><time>2026-04-12T12:30:11.875Z</time></trkpt><trkpt lat="45.1286133" lon="7.9453933"><ele>206.0</ele><time>2026-04-12T12:30:13.875Z</time></trkpt><trkpt lat="45.1286317" lon="7.9452867"><ele>206.0</ele><time>2026-04-12T12:30:14.874Z</time></trkpt><trkpt lat="45.1286633" lon="7.945175"><ele>206.0</ele><time>2026-04-12T12:30:15.875Z</time></trkpt><trkpt lat="45.1286983" lon="7.9450517"><ele>206.20000000000002</ele><time>2026-04-12T12:30:16.875Z</time></trkpt><trkpt lat="45.128735" lon="7.94493"><ele>206.4</ele><time>2026-04-12T12:30:17.874Z</time></trkpt><trkpt lat="45.1287733" lon="7.9447983"><ele>206.6</ele><time>2026-04-12T12:30:18.874Z</time></trkpt><trkpt lat="45.128805" lon="7.944675"><ele>206.8</ele><time>2026-04-12T12:30:19.874Z</time></trkpt><trkpt lat="45.1288483" lon="7.9445533"><ele>207.0</ele><time>2026-04-12T12:30:20.875Z</time></trkpt><trkpt lat="45.12889" lon="7.9444233"><ele>207.0</ele><time>2026-04-12T12:30:21.875Z</time></trkpt><trkpt lat="45.128925" lon="7.9442933"><ele>207.0</ele><time>2026-04-12T12:30:22.874Z</time></trkpt><trkpt lat="45.1289683" lon="7.9441533"><ele>207.0</ele><time>2026-04-12T12:30:23.875Z</time></trkpt><trkpt lat="45.1290017" lon="7.9440167"><ele>207.0</ele><time>2026-04-12T12:30:24.874Z</time></trkpt><trkpt lat="45.1290333" lon="7.9438917"><ele>207.0</ele><time>2026-04-12T12:30:25.875Z</time></trkpt><trkpt lat="45.1290667" lon="7.943785"><ele>207.16666666666666</ele><time>2026-04-12T12:30:26.875Z</time></trkpt><trkpt lat="45.1291133" lon="7.94368"><ele>207.33333333333331</ele><time>2026-04-12T12:30:27.874Z</time></trkpt><trkpt lat="45.1291533" lon="7.94357"><ele>207.5</ele><time>2026-04-12T12:30:28.874Z</time></trkpt><trkpt lat="45.1291883" lon="7.9434683"><ele>207.66666666666666</ele><time>2026-04-12T12:30:29.875Z</time></trkpt><trkpt lat="45.129225" lon="7.9433917"><ele>207.83333333333331</ele><time>2026-04-12T12:30:30.875Z</time></trkpt><trkpt lat="45.129295" lon="7.9432767"><ele>208.0</ele><time>2026-04-12T12:30:32.875Z</time></trkpt><trkpt lat="45.1293683" lon="7.9431917"><ele>207.99999999999997</ele><time>2026-04-12T12:30:34.874Z</time></trkpt><trkpt lat="45.12945" lon="7.9430933"><ele>208.0</ele><time>2026-04-12T12:30:36.874Z</time></trkpt><trkpt lat="45.129505" lon="7.9430283"><ele>208.0</ele><time>2026-04-12T12:30:37.874Z</time></trkpt><trkpt lat="45.1295633" lon="7.942975"><ele>208.0</ele><time>2026-04-12T12:30:38.874Z</time></trkpt><trkpt lat="45.1296333" lon="7.942925"><ele>207.99999999999997</ele><time>2026-04-12T12:30:39.874Z</time></trkpt><trkpt lat="45.129705" lon="7.942885"><ele>208.0</ele><time>2026-04-12T12:30:40.875Z</time></trkpt><trkpt lat="45.1297817" lon="7.942845"><ele>208.0</ele><time>2026-04-12T12:30:41.874Z</time></trkpt><trkpt lat="45.129865" lon="7.9427967"><ele>208.0</ele><time>2026-04-12T12:30:42.874Z</time></trkpt><trkpt lat="45.129955" lon="7.9427433"><ele>208.0</ele><time>2026-04-12T12:30:43.874Z</time></trkpt><trkpt lat="45.13004" lon="7.942675"><ele>208.0</ele><time>2026-04-12T12:30:44.874Z</time></trkpt><trkpt lat="45.13013" lon="7.942615"><ele>208.0</ele><time>2026-04-12T12:30:45.874Z</time></trkpt><trkpt lat="45.1302167" lon="7.9425667"><ele>207.60000000000002</ele><time>2026-04-12T12:30:46.874Z</time></trkpt><trkpt lat="45.1303117" lon="7.9425117"><ele>207.20000000000002</ele><time>2026-04-12T12:30:47.875Z</time></trkpt><trkpt lat="45.1304067" lon="7.9424683"><ele>206.8</ele><time>2026-04-12T12:30:48.874Z</time></trkpt><trkpt lat="45.1305" lon="7.9424167"><ele>206.4</ele><time>2026-04-12T12:30:49.875Z</time></trkpt><trkpt lat="45.1305783" lon="7.9423617"><ele>206.0</ele><time>2026-04-12T12:30:50.874Z</time></trkpt><trkpt lat="45.1306817" lon="7.9423167"><ele>205.75</ele><time>2026-04-12T12:30:51.874Z</time></trkpt><trkpt lat="45.1307833" lon="7.9422533"><ele>205.5</ele><time>2026-04-12T12:30:52.875Z</time></trkpt><trkpt lat="45.1308933" lon="7.94219"><ele>205.25</ele><time>2026-04-12T12:30:53.875Z</time></trkpt><trkpt lat="45.1310083" lon="7.9421167"><ele>205.0</ele><time>2026-04-12T12:30:54.875Z</time></trkpt><trkpt lat="45.1311133" lon="7.9420767"><ele>205.0</ele><time>2026-04-12T12:30:55.875Z</time></trkpt><trkpt lat="45.1312233" lon="7.94202"><ele>205.0</ele><time>2026-04-12T12:30:56.874Z</time></trkpt><trkpt lat="45.1313217" lon="7.9419667"><ele>205.0</ele><time>2026-04-12T12:30:57.874Z</time></trkpt><trkpt lat="45.131425" lon="7.9419067"><ele>205.0</ele><time>2026-04-12T12:30:58.874Z</time></trkpt><trkpt lat="45.1315317" lon="7.9418383"><ele>204.75</ele><time>2026-04-12T12:30:59.874Z</time></trkpt><trkpt lat="45.13164" lon="7.94178"><ele>204.5</ele><time>2026-04-12T12:31:00.874Z</time></trkpt><trkpt lat="45.1317517" lon="7.9417167"><ele>204.25</ele><time>2026-04-12T12:31:01.875Z</time></trkpt><trkpt lat="45.1318717" lon="7.9416583"><ele>204.0</ele><time>2026-04-12T12:31:02.875Z</time></trkpt><trkpt lat="45.13199" lon="7.9415933"><ele>204.0</ele><time>2026-04-12T12:31:03.874Z</time></trkpt><trkpt lat="45.132105" lon="7.9415233"><ele>204.0</ele><time>2026-04-12T12:31:04.875Z</time></trkpt><trkpt lat="45.1322183" lon="7.9414567"><ele>204.0</ele><time>2026-04-12T12:31:05.875Z</time></trkpt><trkpt lat="45.1323283" lon="7.94139"><ele>204.0</ele><time>2026-04-12T12:31:06.874Z</time></trkpt><trkpt lat="45.1324333" lon="7.94133"><ele>203.6</ele><time>2026-04-12T12:31:07.874Z</time></trkpt><trkpt lat="45.13254" lon="7.9412733"><ele>203.2</ele><time>2026-04-12T12:31:08.874Z</time></trkpt><trkpt lat="45.1326417" lon="7.941215"><ele>202.79999999999998</ele><time>2026-04-12T12:31:09.875Z</time></trkpt><trkpt lat="45.132735" lon="7.9411733"><ele>202.39999999999998</ele><time>2026-04-12T12:31:10.874Z</time></trkpt><trkpt lat="45.1328367" lon="7.941115"><ele>202.0</ele><time>2026-04-12T12:31:11.874Z</time></trkpt><trkpt lat="45.1329233" lon="7.9410667"><ele>202.0</ele><time>2026-04-12T12:31:12.874Z</time></trkpt><trkpt lat="45.1330183" lon="7.9410067"><ele>202.0</ele><time>2026-04-12T12:31:13.874Z</time></trkpt><trkpt lat="45.1331117" lon="7.9409517"><ele>202.0</ele><time>2026-04-12T12:31:14.875Z</time></trkpt><trkpt lat="45.1332083" lon="7.9408967"><ele>202.0</ele><time>2026-04-12T12:31:15.875Z</time></trkpt><trkpt lat="45.1333017" lon="7.94086"><ele>202.0</ele><time>2026-04-12T12:31:16.874Z</time></trkpt><trkpt lat="45.1333783" lon="7.94082"><ele>201.83333333333331</ele><time>2026-04-12T12:31:17.875Z</time></trkpt><trkpt lat="45.13344" lon="7.9407883"><ele>201.66666666666666</ele><time>2026-04-12T12:31:18.874Z</time></trkpt><trkpt lat="45.133525" lon="7.9407217"><ele>201.5</ele><time>2026-04-12T12:31:20.874Z</time></trkpt><trkpt lat="45.13356" lon="7.9406267"><ele>201.33333333333331</ele><time>2026-04-12T12:31:22.874Z</time></trkpt><trkpt lat="45.1335917" lon="7.9405217"><ele>201.16666666666666</ele><time>2026-04-12T12:31:26.874Z</time></trkpt><trkpt lat="45.1336733" lon="7.9404517"><ele>201.0</ele><time>2026-04-12T12:38:09.874Z</time></trkpt><trkpt lat="45.1337167" lon="7.9405433"><ele>201.0</ele><time>2026-04-12T12:38:13.875Z</time></trkpt><trkpt lat="45.133635" lon="7.94063"><ele>201.0</ele><time>2026-04-12T12:38:16.874Z</time></trkpt><trkpt lat="45.1335683" lon="7.9406667"><ele>201.0</ele><time>2026-04-12T12:38:17.874Z</time></trkpt><trkpt lat="45.1334783" lon="7.9407133"><ele>201.0</ele><time>2026-04-12T12:38:18.874Z</time></trkpt><trkpt lat="45.1333833" lon="7.940765"><ele>201.0</ele><time>2026-04-12T12:38:19.875Z</time></trkpt><trkpt lat="45.1332817" lon="7.940825"><ele>201.20000000000002</ele><time>2026-04-12T12:38:20.874Z</time></trkpt><trkpt lat="45.1331817" lon="7.9408817"><ele>201.4</ele><time>2026-04-12T12:38:21.874Z</time></trkpt><trkpt lat="45.1330883" lon="7.9409317"><ele>201.6</ele><time>2026-04-12T12:38:22.874Z</time></trkpt><trkpt lat="45.1330017" lon="7.9409783"><ele>201.8</ele><time>2026-04-12T12:38:23.874Z</time></trkpt><trkpt lat="45.1329117" lon="7.9410233"><ele>202.0</ele><time>2026-04-12T12:38:24.874Z</time></trkpt><trkpt lat="45.1328217" lon="7.9410783"><ele>202.0</ele><time>2026-04-12T12:38:25.875Z</time></trkpt><trkpt lat="45.1327283" lon="7.9411217"><ele>202.0</ele><time>2026-04-12T12:38:26.874Z</time></trkpt><trkpt lat="45.1326233" lon="7.9411817"><ele>202.0</ele><time>2026-04-12T12:38:27.874Z</time></trkpt><trkpt lat="45.1325217" lon="7.9412333"><ele>202.0</ele><time>2026-04-12T12:38:28.875Z</time></trkpt><trkpt lat="45.132415" lon="7.94129"><ele>202.0</ele><time>2026-04-12T12:38:29.874Z</time></trkpt><trkpt lat="45.1322983" lon="7.9413517"><ele>202.5</ele><time>2026-04-12T12:38:30.874Z</time></trkpt><trkpt lat="45.132175" lon="7.9414233"><ele>203.0</ele><time>2026-04-12T12:38:31.874Z</time></trkpt><trkpt lat="45.1320567" lon="7.9414967"><ele>203.5</ele><time>2026-04-12T12:38:32.874Z</time></trkpt><trkpt lat="45.1319417" lon="7.9415517"><ele>204.0</ele><time>2026-04-12T12:38:33.874Z</time></trkpt><trkpt lat="45.13183" lon="7.941615"><ele>204.0</ele><time>2026-04-12T12:38:34.874Z</time></trkpt><trkpt lat="45.13172" lon="7.9416817"><ele>204.0</ele><time>2026-04-12T12:38:35.875Z</time></trkpt><trkpt lat="45.1316267" lon="7.9417383"><ele>204.0</ele><time>2026-04-12T12:38:36.874Z</time></trkpt><trkpt lat="45.1315383" lon="7.9418"><ele>204.0</ele><time>2026-04-12T12:38:37.875Z</time></trkpt><trkpt lat="45.131455" lon="7.9418483"><ele>204.0</ele><time>2026-04-12T12:38:38.874Z</time></trkpt><trkpt lat="45.1313383" lon="7.9419183"><ele>204.2</ele><time>2026-04-12T12:38:39.874Z</time></trkpt><trkpt lat="45.1312233" lon="7.9419783"><ele>204.39999999999998</ele><time>2026-04-12T12:38:40.875Z</time></trkpt><trkpt lat="45.1311267" lon="7.9420267"><ele>204.6</ele><time>2026-04-12T12:38:41.875Z</time></trkpt><trkpt lat="45.1310317" lon="7.942075"><ele>204.8</ele><time>2026-04-12T12:38:42.874Z</time></trkpt><trkpt lat="45.1309467" lon="7.942125"><ele>205.0</ele><time>2026-04-12T12:38:43.874Z</time></trkpt><trkpt lat="45.130845" lon="7.942165"><ele>205.0</ele><time>2026-04-12T12:38:44.874Z</time></trkpt><trkpt lat="45.1307383" lon="7.9422133"><ele>205.0</ele><time>2026-04-12T12:38:45.874Z</time></trkpt><trkpt lat="45.13062" lon="7.942275"><ele>205.0</ele><time>2026-04-12T12:38:46.874Z</time></trkpt><trkpt lat="45.130495" lon="7.9423367"><ele>205.0</ele><time>2026-04-12T12:38:47.875Z</time></trkpt><trkpt lat="45.130385" lon="7.942395"><ele>205.2</ele><time>2026-04-12T12:38:48.875Z</time></trkpt><trkpt lat="45.13028" lon="7.94244"><ele>205.4</ele><time>2026-04-12T12:38:49.874Z</time></trkpt><trkpt lat="45.1301917" lon="7.9425017"><ele>205.60000000000002</ele><time>2026-04-12T12:38:50.874Z</time></trkpt><trkpt lat="45.1301033" lon="7.9425633"><ele>205.8</ele><time>2026-04-12T12:38:51.874Z</time></trkpt><trkpt lat="45.1299967" lon="7.9426267"><ele>206.0</ele><time>2026-04-12T12:38:52.874Z</time></trkpt><trkpt lat="45.1299167" lon="7.9426767"><ele>206.33333333333334</ele><time>2026-04-12T12:38:53.874Z</time></trkpt><trkpt lat="45.1298267" lon="7.9427383"><ele>206.66666666666669</ele><time>2026-04-12T12:38:54.874Z</time></trkpt><trkpt lat="45.1297517" lon="7.942785"><ele>207.0</ele><time>2026-04-12T12:38:55.874Z</time></trkpt><trkpt lat="45.1296933" lon="7.9428267"><ele>207.33333333333331</ele><time>2026-04-12T12:38:56.874Z</time></trkpt><trkpt lat="45.1295867" lon="7.94288"><ele>207.66666666666666</ele><time>2026-04-12T12:38:58.875Z</time></trkpt><trkpt lat="45.1295233" lon="7.942875"><ele>208.0</ele><time>2026-04-12T12:38:59.875Z</time></trkpt><trkpt lat="45.1294433" lon="7.9428783"><ele>208.0</ele><time>2026-04-12T12:39:00.874Z</time></trkpt><trkpt lat="45.12936" lon="7.9428883"><ele>208.0</ele><time>2026-04-12T12:39:01.874Z</time></trkpt><trkpt lat="45.129255" lon="7.9429333"><ele>208.0</ele><time>2026-04-12T12:39:02.875Z</time></trkpt><trkpt lat="45.1291683" lon="7.942975"><ele>208.0</ele><time>2026-04-12T12:39:03.875Z</time></trkpt><trkpt lat="45.1290717" lon="7.943005"><ele>208.0</ele><time>2026-04-12T12:39:04.874Z</time></trkpt><trkpt lat="45.1289633" lon="7.9430433"><ele>208.25</ele><time>2026-04-12T12:39:05.874Z</time></trkpt><trkpt lat="45.1288483" lon="7.9431017"><ele>208.5</ele><time>2026-04-12T12:39:06.875Z</time></trkpt><trkpt lat="45.1287233" lon="7.943165"><ele>208.75</ele><time>2026-04-12T12:39:07.875Z</time></trkpt><trkpt lat="45.1286067" lon="7.943245"><ele>209.0</ele><time>2026-04-12T12:39:08.874Z</time></trkpt><trkpt lat="45.1284883" lon="7.9432867"><ele>209.0</ele><time>2026-04-12T12:39:09.875Z</time></trkpt><trkpt lat="45.12835" lon="7.943345"><ele>209.0</ele><time>2026-04-12T12:39:10.875Z</time></trkpt><trkpt lat="45.1282083" lon="7.9434267"><ele>209.0</ele><time>2026-04-12T12:39:11.874Z</time></trkpt><trkpt lat="45.1280783" lon="7.94349"><ele>209.0</ele><time>2026-04-12T12:39:12.874Z</time></trkpt><trkpt lat="45.127965" lon="7.94355"><ele>208.75</ele><time>2026-04-12T12:39:13.874Z</time></trkpt><trkpt lat="45.1278633" lon="7.94359"><ele>208.5</ele><time>2026-04-12T12:39:14.875Z</time></trkpt><trkpt lat="45.12774" lon="7.9436317"><ele>208.25</ele><time>2026-04-12T12:39:15.874Z</time></trkpt><trkpt lat="45.1276" lon="7.943655"><ele>208.0</ele><time>2026-04-12T12:39:16.874Z</time></trkpt><trkpt lat="45.1274617" lon="7.94367"><ele>207.75</ele><time>2026-04-12T12:39:17.874Z</time></trkpt><trkpt lat="45.1273283" lon="7.94368"><ele>207.5</ele><time>2026-04-12T12:39:18.874Z</time></trkpt><trkpt lat="45.1271983" lon="7.943655"><ele>207.25</ele><time>2026-04-12T12:39:19.874Z</time></trkpt><trkpt lat="45.1270683" lon="7.943625"><ele>207.0</ele><time>2026-04-12T12:39:20.874Z</time></trkpt><trkpt lat="45.1269383" lon="7.9436"><ele>207.0</ele><time>2026-04-12T12:39:21.874Z</time></trkpt><trkpt lat="45.1268" lon="7.9435783"><ele>207.0</ele><time>2026-04-12T12:39:22.874Z</time></trkpt><trkpt lat="45.1266583" lon="7.94358"><ele>207.0</ele><time>2026-04-12T12:39:23.874Z</time></trkpt><trkpt lat="45.1265267" lon="7.9435617"><ele>207.0</ele><time>2026-04-12T12:39:24.874Z</time></trkpt><trkpt lat="45.1263883" lon="7.9435467"><ele>207.0</ele><time>2026-04-12T12:39:25.874Z</time></trkpt><trkpt lat="45.12623" lon="7.9435333"><ele>207.0</ele><time>2026-04-12T12:39:26.874Z</time></trkpt><trkpt lat="45.1260733" lon="7.943515"><ele>207.0</ele><time>2026-04-12T12:39:27.875Z</time></trkpt><trkpt lat="45.1259383" lon="7.94349"><ele>207.0</ele><time>2026-04-12T12:39:28.874Z</time></trkpt><trkpt lat="45.1257917" lon="7.9434783"><ele>207.0</ele><time>2026-04-12T12:39:29.874Z</time></trkpt><trkpt lat="45.125635" lon="7.9434733"><ele>207.0</ele><time>2026-04-12T12:39:30.874Z</time></trkpt><trkpt lat="45.1254833" lon="7.943455"><ele>207.0</ele><time>2026-04-12T12:39:31.875Z</time></trkpt><trkpt lat="45.1253317" lon="7.9434083"><ele>207.0</ele><time>2026-04-12T12:39:32.874Z</time></trkpt><trkpt lat="45.1251833" lon="7.9433483"><ele>207.0</ele><time>2026-04-12T12:39:33.874Z</time></trkpt><trkpt lat="45.1250333" lon="7.9432667"><ele>207.33333333333331</ele><time>2026-04-12T12:39:34.874Z</time></trkpt><trkpt lat="45.1248867" lon="7.94317"><ele>207.66666666666666</ele><time>2026-04-12T12:39:35.874Z</time></trkpt><trkpt lat="45.1247467" lon="7.943065"><ele>208.0</ele><time>2026-04-12T12:39:36.875Z</time></trkpt><trkpt lat="45.1245983" lon="7.94296"><ele>208.0</ele><time>2026-04-12T12:39:37.874Z</time></trkpt><trkpt lat="45.1244717" lon="7.9428317"><ele>208.0</ele><time>2026-04-12T12:39:38.875Z</time></trkpt><trkpt lat="45.1243433" lon="7.942695"><ele>208.0</ele><time>2026-04-12T12:39:39.874Z</time></trkpt><trkpt lat="45.1242167" lon="7.94255"><ele>208.66666666666666</ele><time>2026-04-12T12:39:40.874Z</time></trkpt><trkpt lat="45.1240983" lon="7.9424033"><ele>209.33333333333331</ele><time>2026-04-12T12:39:41.874Z</time></trkpt><trkpt lat="45.123975" lon="7.9422583"><ele>210.0</ele><time>2026-04-12T12:39:42.874Z</time></trkpt><trkpt lat="45.12385" lon="7.9421167"><ele>210.0</ele><time>2026-04-12T12:39:43.874Z</time></trkpt><trkpt lat="45.1237217" lon="7.9419833"><ele>210.0</ele><time>2026-04-12T12:39:44.874Z</time></trkpt><trkpt lat="45.123585" lon="7.9418567"><ele>210.0</ele><time>2026-04-12T12:39:45.875Z</time></trkpt><trkpt lat="45.123445" lon="7.94173"><ele>210.33333333333331</ele><time>2026-04-12T12:39:46.874Z</time></trkpt><trkpt lat="45.1233017" lon="7.9416267"><ele>210.66666666666666</ele><time>2026-04-12T12:39:47.874Z</time></trkpt><trkpt lat="45.123155" lon="7.9415283"><ele>211.0</ele><time>2026-04-12T12:39:48.874Z</time></trkpt><trkpt lat="45.12301" lon="7.9414417"><ele>211.0</ele><time>2026-04-12T12:39:49.874Z</time></trkpt><trkpt lat="45.12286" lon="7.9413467"><ele>211.0</ele><time>2026-04-12T12:39:50.875Z</time></trkpt><trkpt lat="45.1227183" lon="7.9412467"><ele>211.0</ele><time>2026-04-12T12:39:51.874Z</time></trkpt><trkpt lat="45.12258" lon="7.9411317"><ele>211.0</ele><time>2026-04-12T12:39:52.875Z</time></trkpt><trkpt lat="45.1224433" lon="7.94101"><ele>211.0</ele><time>2026-04-12T12:39:53.874Z</time></trkpt><trkpt lat="45.122305" lon="7.9408867"><ele>211.0</ele><time>2026-04-12T12:39:54.874Z</time></trkpt><trkpt lat="45.12217" lon="7.9407567"><ele>212.0</ele><time>2026-04-12T12:39:55.874Z</time></trkpt><trkpt lat="45.122035" lon="7.9406333"><ele>213.0</ele><time>2026-04-12T12:39:56.874Z</time></trkpt><trkpt lat="45.1218967" lon="7.94051"><ele>214.0</ele><time>2026-04-12T12:39:57.874Z</time></trkpt><trkpt lat="45.1217567" lon="7.9404033"><ele>214.0</ele><time>2026-04-12T12:39:58.875Z</time></trkpt><trkpt lat="45.1216033" lon="7.9403167"><ele>214.0</ele><time>2026-04-12T12:39:59.874Z</time></trkpt><trkpt lat="45.12145" lon="7.940245"><ele>214.0</ele><time>2026-04-12T12:40:00.875Z</time></trkpt><trkpt lat="45.121305" lon="7.9401667"><ele>214.0</ele><time>2026-04-12T12:40:01.874Z</time></trkpt><trkpt lat="45.1211583" lon="7.94008"><ele>214.0</ele><time>2026-04-12T12:40:02.874Z</time></trkpt><trkpt lat="45.121" lon="7.9400133"><ele>214.0</ele><time>2026-04-12T12:40:03.875Z</time></trkpt><trkpt lat="45.1208383" lon="7.9399783"><ele>214.66666666666666</ele><time>2026-04-12T12:40:04.875Z</time></trkpt><trkpt lat="45.120685" lon="7.93997"><ele>215.33333333333331</ele><time>2026-04-12T12:40:05.874Z</time></trkpt><trkpt lat="45.1205367" lon="7.940005"><ele>216.0</ele><time>2026-04-12T12:40:06.875Z</time></trkpt><trkpt lat="45.12037" lon="7.9400667"><ele>216.33333333333331</ele><time>2026-04-12T12:40:07.874Z</time></trkpt><trkpt lat="45.1202133" lon="7.9401333"><ele>216.66666666666666</ele><time>2026-04-12T12:40:08.875Z</time></trkpt><trkpt lat="45.1200667" lon="7.94022"><ele>217.0</ele><time>2026-04-12T12:40:09.874Z</time></trkpt><trkpt lat="45.11993" lon="7.940345"><ele>219.33333333333331</ele><time>2026-04-12T12:40:10.874Z</time></trkpt><trkpt lat="45.1197917" lon="7.9404917"><ele>221.66666666666669</ele><time>2026-04-12T12:40:11.874Z</time></trkpt><trkpt lat="45.11966" lon="7.94064"><ele>224.0</ele><time>2026-04-12T12:40:12.875Z</time></trkpt><trkpt lat="45.1195183" lon="7.94079"><ele>222.0</ele><time>2026-04-12T12:40:13.874Z</time></trkpt><trkpt lat="45.1193867" lon="7.9409083"><ele>220.0</ele><time>2026-04-12T12:40:14.874Z</time></trkpt><trkpt lat="45.11925" lon="7.9410117"><ele>218.0</ele><time>2026-04-12T12:40:15.874Z</time></trkpt><trkpt lat="45.11911" lon="7.9411017"><ele>219.66666666666669</ele><time>2026-04-12T12:40:16.874Z</time></trkpt><trkpt lat="45.11897" lon="7.9411867"><ele>221.33333333333331</ele><time>2026-04-12T12:40:17.875Z</time></trkpt><trkpt lat="45.1188283" lon="7.94126"><ele>223.0</ele><time>2026-04-12T12:40:18.875Z</time></trkpt><trkpt lat="45.1186883" lon="7.9413217"><ele>223.0</ele><time>2026-04-12T12:40:19.874Z</time></trkpt><trkpt lat="45.1185483" lon="7.9413733"><ele>223.0</ele><time>2026-04-12T12:40:20.874Z</time></trkpt><trkpt lat="45.1184017" lon="7.941415"><ele>223.0</ele><time>2026-04-12T12:40:21.874Z</time></trkpt><trkpt lat="45.1182417" lon="7.9414433"><ele>224.0</ele><time>2026-04-12T12:40:22.874Z</time></trkpt><trkpt lat="45.11808" lon="7.941485"><ele>225.0</ele><time>2026-04-12T12:40:23.874Z</time></trkpt><trkpt lat="45.117915" lon="7.9415167"><ele>226.0</ele><time>2026-04-12T12:40:24.874Z</time></trkpt><trkpt lat="45.11775" lon="7.9415517"><ele>226.0</ele><time>2026-04-12T12:40:25.875Z</time></trkpt><trkpt lat="45.1175883" lon="7.9415917"><ele>226.0</ele><time>2026-04-12T12:40:26.874Z</time></trkpt><trkpt lat="45.11743" lon="7.9416283"><ele>226.0</ele><time>2026-04-12T12:40:27.875Z</time></trkpt><trkpt lat="45.1172767" lon="7.9416767"><ele>226.75</ele><time>2026-04-12T12:40:28.875Z</time></trkpt><trkpt lat="45.1171233" lon="7.941705"><ele>227.5</ele><time>2026-04-12T12:40:29.875Z</time></trkpt><trkpt lat="45.11698" lon="7.9417083"><ele>228.25</ele><time>2026-04-12T12:40:30.874Z</time></trkpt><trkpt lat="45.1168433" lon="7.9416683"><ele>229.0</ele><time>2026-04-12T12:40:31.875Z</time></trkpt><trkpt lat="45.116695" lon="7.9415883"><ele>229.33333333333331</ele><time>2026-04-12T12:40:32.874Z</time></trkpt><trkpt lat="45.1165517" lon="7.9414833"><ele>229.66666666666669</ele><time>2026-04-12T12:40:33.874Z</time></trkpt><trkpt lat="45.116415" lon="7.9413767"><ele>230.0</ele><time>2026-04-12T12:40:34.875Z</time></trkpt><trkpt lat="45.1162867" lon="7.94128"><ele>230.0</ele><time>2026-04-12T12:40:35.874Z</time></trkpt><trkpt lat="45.1161467" lon="7.9412217"><ele>230.0</ele><time>2026-04-12T12:40:36.874Z</time></trkpt><trkpt lat="45.1159967" lon="7.9412083"><ele>230.0</ele><time>2026-04-12T12:40:37.874Z</time></trkpt><trkpt lat="45.1158417" lon="7.9412433"><ele>232.0</ele><time>2026-04-12T12:40:38.875Z</time></trkpt><trkpt lat="45.1156783" lon="7.9412817"><ele>234.0</ele><time>2026-04-12T12:40:39.874Z</time></trkpt><trkpt lat="45.115515" lon="7.9413383"><ele>236.0</ele><time>2026-04-12T12:40:40.874Z</time></trkpt><trkpt lat="45.115355" lon="7.9413767"><ele>236.0</ele><time>2026-04-12T12:40:41.874Z</time></trkpt><trkpt lat="45.1151917" lon="7.9414283"><ele>236.0</ele><time>2026-04-12T12:40:42.874Z</time></trkpt><trkpt lat="45.1150417" lon="7.941475"><ele>236.0</ele><time>2026-04-12T12:40:43.875Z</time></trkpt><trkpt lat="45.114885" lon="7.9415267"><ele>237.33333333333334</ele><time>2026-04-12T12:40:44.874Z</time></trkpt><trkpt lat="45.114735" lon="7.9415867"><ele>238.66666666666669</ele><time>2026-04-12T12:40:45.875Z</time></trkpt><trkpt lat="45.1145783" lon="7.9416483"><ele>240.0</ele><time>2026-04-12T12:40:46.874Z</time></trkpt><trkpt lat="45.11443" lon="7.9417167"><ele>237.33333333333331</ele><time>2026-04-12T12:40:47.875Z</time></trkpt><trkpt lat="45.1142733" lon="7.941795"><ele>234.66666666666666</ele><time>2026-04-12T12:40:48.874Z</time></trkpt><trkpt lat="45.1141133" lon="7.9418333"><ele>232.0</ele><time>2026-04-12T12:40:49.875Z</time></trkpt><trkpt lat="45.1139517" lon="7.9418517"><ele>231.66666666666666</ele><time>2026-04-12T12:40:50.874Z</time></trkpt><trkpt lat="45.1137883" lon="7.9418667"><ele>231.33333333333331</ele><time>2026-04-12T12:40:51.875Z</time></trkpt><trkpt lat="45.11362" lon="7.9418917"><ele>231.0</ele><time>2026-04-12T12:40:52.875Z</time></trkpt><trkpt lat="45.1134533" lon="7.94191"><ele>231.0</ele><time>2026-04-12T12:40:53.874Z</time></trkpt><trkpt lat="45.113295" lon="7.9419383"><ele>231.0</ele><time>2026-04-12T12:40:54.874Z</time></trkpt><trkpt lat="45.1131317" lon="7.9419717"><ele>231.0</ele><time>2026-04-12T12:40:55.875Z</time></trkpt><trkpt lat="45.1129733" lon="7.9420017"><ele>232.0</ele><time>2026-04-12T12:40:56.875Z</time></trkpt><trkpt lat="45.1128133" lon="7.9420367"><ele>233.0</ele><time>2026-04-12T12:40:57.875Z</time></trkpt><trkpt lat="45.1126683" lon="7.9420717"><ele>234.0</ele><time>2026-04-12T12:40:58.875Z</time></trkpt><trkpt lat="45.1125367" lon="7.9420533"><ele>235.0</ele><time>2026-04-12T12:40:59.875Z</time></trkpt><trkpt lat="45.112415" lon="7.94199"><ele>234.5</ele><time>2026-04-12T12:41:00.875Z</time></trkpt><trkpt lat="45.1122967" lon="7.9418683"><ele>234.0</ele><time>2026-04-12T12:41:01.874Z</time></trkpt><trkpt lat="45.1121733" lon="7.9417717"><ele>233.5</ele><time>2026-04-12T12:41:02.874Z</time></trkpt><trkpt lat="45.1120417" lon="7.941715"><ele>233.0</ele><time>2026-04-12T12:41:03.875Z</time></trkpt><trkpt lat="45.1119" lon="7.9417067"><ele>233.0</ele><time>2026-04-12T12:41:04.874Z</time></trkpt><trkpt lat="45.11175" lon="7.9417233"><ele>233.0</ele><time>2026-04-12T12:41:05.874Z</time></trkpt><trkpt lat="45.1116017" lon="7.9417583"><ele>233.0</ele><time>2026-04-12T12:41:06.874Z</time></trkpt><trkpt lat="45.1114533" lon="7.9418067"><ele>232.66666666666669</ele><time>2026-04-12T12:41:07.875Z</time></trkpt><trkpt lat="45.1113" lon="7.9418233"><ele>232.33333333333331</ele><time>2026-04-12T12:41:08.874Z</time></trkpt><trkpt lat="45.1111433" lon="7.9417917"><ele>232.0</ele><time>2026-04-12T12:41:09.875Z</time></trkpt><trkpt lat="45.1109917" lon="7.94173"><ele>234.0</ele><time>2026-04-12T12:41:10.875Z</time></trkpt><trkpt lat="45.1108283" lon="7.9416667"><ele>236.0</ele><time>2026-04-12T12:41:11.875Z</time></trkpt><trkpt lat="45.110675" lon="7.9416"><ele>238.0</ele><time>2026-04-12T12:41:12.874Z</time></trkpt><trkpt lat="45.110525" lon="7.94156"><ele>238.0</ele><time>2026-04-12T12:41:13.874Z</time></trkpt><trkpt lat="45.1103683" lon="7.941515"><ele>238.0</ele><time>2026-04-12T12:41:14.875Z</time></trkpt><trkpt lat="45.1102033" lon="7.9414917"><ele>238.0</ele><time>2026-04-12T12:41:15.874Z</time></trkpt><trkpt lat="45.1100367" lon="7.9414717"><ele>238.33333333333331</ele><time>2026-04-12T12:41:16.875Z</time></trkpt><trkpt lat="45.1098767" lon="7.9414417"><ele>238.66666666666669</ele><time>2026-04-12T12:41:17.874Z</time></trkpt><trkpt lat="45.1097183" lon="7.9414267"><ele>239.0</ele><time>2026-04-12T12:41:18.874Z</time></trkpt><trkpt lat="45.1095617" lon="7.9414033"><ele>239.0</ele><time>2026-04-12T12:41:19.875Z</time></trkpt><trkpt lat="45.1094083" lon="7.941385"><ele>239.0</ele><time>2026-04-12T12:41:20.875Z</time></trkpt><trkpt lat="45.1092567" lon="7.94137"><ele>239.0</ele><time>2026-04-12T12:41:21.874Z</time></trkpt><trkpt lat="45.1091033" lon="7.94134"><ele>239.66666666666669</ele><time>2026-04-12T12:41:22.874Z</time></trkpt><trkpt lat="45.108945" lon="7.9413217"><ele>240.33333333333331</ele><time>2026-04-12T12:41:23.874Z</time></trkpt><trkpt lat="45.1087967" lon="7.94132"><ele>241.0</ele><time>2026-04-12T12:41:24.875Z</time></trkpt><trkpt lat="45.1086367" lon="7.941345"><ele>241.0</ele><time>2026-04-12T12:41:25.875Z</time></trkpt><trkpt lat="45.108495" lon="7.941415"><ele>241.0</ele><time>2026-04-12T12:41:26.874Z</time></trkpt><trkpt lat="45.1083533" lon="7.9415033"><ele>241.0</ele><time>2026-04-12T12:41:27.875Z</time></trkpt><trkpt lat="45.10821" lon="7.94159"><ele>242.0</ele><time>2026-04-12T12:41:28.874Z</time></trkpt><trkpt lat="45.1080683" lon="7.9416717"><ele>243.0</ele><time>2026-04-12T12:41:29.874Z</time></trkpt><trkpt lat="45.1079267" lon="7.94175"><ele>244.0</ele><time>2026-04-12T12:41:30.875Z</time></trkpt><trkpt lat="45.107785" lon="7.9418167"><ele>244.0</ele><time>2026-04-12T12:41:31.874Z</time></trkpt><trkpt lat="45.107645" lon="7.9418683"><ele>244.0</ele><time>2026-04-12T12:41:32.875Z</time></trkpt><trkpt lat="45.1074967" lon="7.94188"><ele>244.0</ele><time>2026-04-12T12:41:33.874Z</time></trkpt><trkpt lat="45.1073517" lon="7.941845"><ele>244.0</ele><time>2026-04-12T12:41:34.875Z</time></trkpt><trkpt lat="45.107185" lon="7.94177"><ele>243.33333333333331</ele><time>2026-04-12T12:41:35.874Z</time></trkpt><trkpt lat="45.1070383" lon="7.9416783"><ele>242.66666666666669</ele><time>2026-04-12T12:41:36.874Z</time></trkpt><trkpt lat="45.106895" lon="7.9415717"><ele>242.0</ele><time>2026-04-12T12:41:37.874Z</time></trkpt><trkpt lat="45.1067483" lon="7.941475"><ele>242.0</ele><time>2026-04-12T12:41:38.874Z</time></trkpt><trkpt lat="45.1065917" lon="7.9413867"><ele>242.0</ele><time>2026-04-12T12:41:39.874Z</time></trkpt><trkpt lat="45.1064317" lon="7.9413067"><ele>242.0</ele><time>2026-04-12T12:41:40.874Z</time></trkpt><trkpt lat="45.1062717" lon="7.9412483"><ele>243.0</ele><time>2026-04-12T12:41:41.874Z</time></trkpt><trkpt lat="45.1061083" lon="7.9412"><ele>244.0</ele><time>2026-04-12T12:41:42.874Z</time></trkpt><trkpt lat="45.1059483" lon="7.9411417"><ele>245.0</ele><time>2026-04-12T12:41:43.875Z</time></trkpt><trkpt lat="45.1057933" lon="7.94109"><ele>248.33333333333334</ele><time>2026-04-12T12:41:44.875Z</time></trkpt><trkpt lat="45.1056417" lon="7.94104"><ele>251.66666666666669</ele><time>2026-04-12T12:41:45.874Z</time></trkpt><trkpt lat="45.105475" lon="7.9409817"><ele>255.0</ele><time>2026-04-12T12:41:46.875Z</time></trkpt><trkpt lat="45.1053183" lon="7.9409333"><ele>255.0</ele><time>2026-04-12T12:41:47.875Z</time></trkpt><trkpt lat="45.105155" lon="7.9408917"><ele>255.0</ele><time>2026-04-12T12:41:48.875Z</time></trkpt><trkpt lat="45.105005" lon="7.94084"><ele>255.0</ele><time>2026-04-12T12:41:49.875Z</time></trkpt><trkpt lat="45.10487" lon="7.9407717"><ele>257.3333333333333</ele><time>2026-04-12T12:41:50.874Z</time></trkpt><trkpt lat="45.1047267" lon="7.9406867"><ele>259.66666666666663</ele><time>2026-04-12T12:41:51.875Z</time></trkpt><trkpt lat="45.1045917" lon="7.94059"><ele>262.0</ele><time>2026-04-12T12:41:52.874Z</time></trkpt><trkpt lat="45.1044567" lon="7.940485"><ele>262.0</ele><time>2026-04-12T12:41:53.874Z</time></trkpt><trkpt lat="45.104325" lon="7.9403733"><ele>262.0</ele><time>2026-04-12T12:41:54.874Z</time></trkpt><trkpt lat="45.1041983" lon="7.9402933"><ele>262.0</ele><time>2026-04-12T12:41:55.875Z</time></trkpt><trkpt lat="45.10406" lon="7.9402317"><ele>262.0</ele><time>2026-04-12T12:41:56.874Z</time></trkpt><trkpt lat="45.1038983" lon="7.9402117"><ele>265.66666666666663</ele><time>2026-04-12T12:41:57.875Z</time></trkpt><trkpt lat="45.103745" lon="7.940245"><ele>269.3333333333333</ele><time>2026-04-12T12:41:58.875Z</time></trkpt><trkpt lat="45.103595" lon="7.9403033"><ele>273.0</ele><time>2026-04-12T12:41:59.874Z</time></trkpt><trkpt lat="45.103455" lon="7.9403567"><ele>273.0</ele><time>2026-04-12T12:42:00.874Z</time></trkpt><trkpt lat="45.1033183" lon="7.9403817"><ele>273.0</ele><time>2026-04-12T12:42:01.874Z</time></trkpt><trkpt lat="45.1031917" lon="7.9403467"><ele>273.0</ele><time>2026-04-12T12:42:02.875Z</time></trkpt><trkpt lat="45.1030783" lon="7.94025"><ele>273.0</ele><time>2026-04-12T12:42:03.874Z</time></trkpt><trkpt lat="45.1029917" lon="7.94014"><ele>274.25</ele><time>2026-04-12T12:42:04.875Z</time></trkpt><trkpt lat="45.1028967" lon="7.9400667"><ele>275.5</ele><time>2026-04-12T12:42:05.874Z</time></trkpt><trkpt lat="45.1027817" lon="7.9400533"><ele>276.75</ele><time>2026-04-12T12:42:06.874Z</time></trkpt><trkpt lat="45.1026583" lon="7.940075"><ele>278.0</ele><time>2026-04-12T12:42:07.874Z</time></trkpt><trkpt lat="45.102535" lon="7.940095"><ele>277.25</ele><time>2026-04-12T12:42:08.874Z</time></trkpt><trkpt lat="45.10241" lon="7.9401317"><ele>276.5</ele><time>2026-04-12T12:42:09.875Z</time></trkpt><trkpt lat="45.102275" lon="7.9401767"><ele>275.75</ele><time>2026-04-12T12:42:10.874Z</time></trkpt><trkpt lat="45.102135" lon="7.9402217"><ele>275.0</ele><time>2026-04-12T12:42:11.874Z</time></trkpt><trkpt lat="45.1019967" lon="7.9402733"><ele>275.0</ele><time>2026-04-12T12:42:12.875Z</time></trkpt><trkpt lat="45.101875" lon="7.9403283"><ele>275.0</ele><time>2026-04-12T12:42:13.874Z</time></trkpt><trkpt lat="45.1017833" lon="7.94043"><ele>275.0</ele><time>2026-04-12T12:42:14.874Z</time></trkpt><trkpt lat="45.1017117" lon="7.9405783"><ele>275.0</ele><time>2026-04-12T12:42:15.875Z</time></trkpt><trkpt lat="45.1016633" lon="7.9407467"><ele>277.5</ele><time>2026-04-12T12:42:16.874Z</time></trkpt><trkpt lat="45.1016317" lon="7.9409283"><ele>280.0</ele><time>2026-04-12T12:42:17.874Z</time></trkpt><trkpt lat="45.10161" lon="7.9411033"><ele>282.5</ele><time>2026-04-12T12:42:18.874Z</time></trkpt><trkpt lat="45.1015767" lon="7.9412583"><ele>285.0</ele><time>2026-04-12T12:42:19.875Z</time></trkpt><trkpt lat="45.1015233" lon="7.9413933"><ele>285.0</ele><time>2026-04-12T12:42:20.874Z</time></trkpt><trkpt lat="45.1014417" lon="7.941475"><ele>285.0</ele><time>2026-04-12T12:42:21.874Z</time></trkpt><trkpt lat="45.101355" lon="7.941515"><ele>285.0</ele><time>2026-04-12T12:42:22.875Z</time></trkpt><trkpt lat="45.1012483" lon="7.9415217"><ele>285.0</ele><time>2026-04-12T12:42:23.874Z</time></trkpt><trkpt lat="45.1011333" lon="7.9415033"><ele>285.0</ele><time>2026-04-12T12:42:24.875Z</time></trkpt><trkpt lat="45.1010033" lon="7.9414983"><ele>285.0</ele><time>2026-04-12T12:42:25.875Z</time></trkpt><trkpt lat="45.1008933" lon="7.941545"><ele>285.0</ele><time>2026-04-12T12:42:26.875Z</time></trkpt><trkpt lat="45.10081" lon="7.9416483"><ele>285.0</ele><time>2026-04-12T12:42:27.874Z</time></trkpt><trkpt lat="45.1007283" lon="7.9417783"><ele>285.0</ele><time>2026-04-12T12:42:28.875Z</time></trkpt><trkpt lat="45.100655" lon="7.94193"><ele>284.0</ele><time>2026-04-12T12:42:29.874Z</time></trkpt><trkpt lat="45.1005883" lon="7.9421017"><ele>283.0</ele><time>2026-04-12T12:42:30.874Z</time></trkpt><trkpt lat="45.10052" lon="7.942275"><ele>282.0</ele><time>2026-04-12T12:42:31.875Z</time></trkpt><trkpt lat="45.1004567" lon="7.9424717"><ele>281.0</ele><time>2026-04-12T12:42:32.874Z</time></trkpt><trkpt lat="45.100395" lon="7.942665"><ele>284.33333333333337</ele><time>2026-04-12T12:42:33.875Z</time></trkpt><trkpt lat="45.1003267" lon="7.9428633"><ele>287.6666666666667</ele><time>2026-04-12T12:42:34.874Z</time></trkpt><trkpt lat="45.1002467" lon="7.94307"><ele>291.0</ele><time>2026-04-12T12:42:35.874Z</time></trkpt><trkpt lat="45.1001833" lon="7.9432783"><ele>293.3333333333333</ele><time>2026-04-12T12:42:36.875Z</time></trkpt><trkpt lat="45.1001167" lon="7.94347"><ele>295.66666666666663</ele><time>2026-04-12T12:42:37.875Z</time></trkpt><trkpt lat="45.1000567" lon="7.94367"><ele>298.0</ele><time>2026-04-12T12:42:38.875Z</time></trkpt><trkpt lat="45.0999917" lon="7.9438567"><ele>298.0</ele><time>2026-04-12T12:42:39.874Z</time></trkpt><trkpt lat="45.0999267" lon="7.94405"><ele>298.0</ele><time>2026-04-12T12:42:40.874Z</time></trkpt><trkpt lat="45.0998667" lon="7.9442267"><ele>298.0</ele><time>2026-04-12T12:42:41.874Z</time></trkpt><trkpt lat="45.0998067" lon="7.9444067"><ele>298.0</ele><time>2026-04-12T12:42:42.875Z</time></trkpt><trkpt lat="45.0997583" lon="7.9445733"><ele>296.0</ele><time>2026-04-12T12:42:43.875Z</time></trkpt><trkpt lat="45.0997283" lon="7.94474"><ele>294.0</ele><time>2026-04-12T12:42:44.874Z</time></trkpt><trkpt lat="45.099755" lon="7.9449183"><ele>292.0</ele><time>2026-04-12T12:42:45.874Z</time></trkpt><trkpt lat="45.0997983" lon="7.9450967"><ele>290.0</ele><time>2026-04-12T12:42:46.874Z</time></trkpt><trkpt lat="45.0998217" lon="7.9452783"><ele>293.2</ele><time>2026-04-12T12:42:47.874Z</time></trkpt><trkpt lat="45.0998133" lon="7.94545"><ele>296.4</ele><time>2026-04-12T12:42:48.874Z</time></trkpt><trkpt lat="45.099775" lon="7.9455717"><ele>299.6</ele><time>2026-04-12T12:42:49.874Z</time></trkpt><trkpt lat="45.0997167" lon="7.9456767"><ele>302.8</ele><time>2026-04-12T12:42:50.874Z</time></trkpt><trkpt lat="45.0996817" lon="7.9457867"><ele>306.0</ele><time>2026-04-12T12:42:51.874Z</time></trkpt><trkpt lat="45.099685" lon="7.9458883"><ele>306.2</ele><time>2026-04-12T12:42:52.875Z</time></trkpt><trkpt lat="45.09972" lon="7.9459783"><ele>306.40000000000003</ele><time>2026-04-12T12:42:53.874Z</time></trkpt><trkpt lat="45.09984" lon="7.9460117"><ele>306.6</ele><time>2026-04-12T12:42:55.874Z</time></trkpt><trkpt lat="45.0999067" lon="7.9459383"><ele>306.8</ele><time>2026-04-12T12:42:56.874Z</time></trkpt><trkpt lat="45.0999717" lon="7.9457883"><ele>307.0</ele><time>2026-04-12T12:42:57.875Z</time></trkpt><trkpt lat="45.100005" lon="7.94559"><ele>307.0</ele><time>2026-04-12T12:42:58.875Z</time></trkpt><trkpt lat="45.1000183" lon="7.945375"><ele>307.0</ele><time>2026-04-12T12:42:59.874Z</time></trkpt><trkpt lat="45.1000383" lon="7.9451617"><ele>307.0</ele><time>2026-04-12T12:43:00.874Z</time></trkpt><trkpt lat="45.1000733" lon="7.9449933"><ele>307.0</ele><time>2026-04-12T12:43:01.874Z</time></trkpt><trkpt lat="45.10013" lon="7.9448533"><ele>306.0</ele><time>2026-04-12T12:43:02.875Z</time></trkpt><trkpt lat="45.1002133" lon="7.9447383"><ele>305.0</ele><time>2026-04-12T12:43:03.874Z</time></trkpt><trkpt lat="45.1003133" lon="7.9446317"><ele>304.0</ele><time>2026-04-12T12:43:04.874Z</time></trkpt><trkpt lat="45.1004117" lon="7.9444983"><ele>303.0</ele><time>2026-04-12T12:43:05.874Z</time></trkpt><trkpt lat="45.1005117" lon="7.9443617"><ele>303.0</ele><time>2026-04-12T12:43:06.874Z</time></trkpt><trkpt lat="45.1006133" lon="7.9442267"><ele>303.0</ele><time>2026-04-12T12:43:07.874Z</time></trkpt><trkpt lat="45.1007117" lon="7.9441033"><ele>303.0</ele><time>2026-04-12T12:43:08.874Z</time></trkpt><trkpt lat="45.100815" lon="7.9440033"><ele>303.0</ele><time>2026-04-12T12:43:09.875Z</time></trkpt><trkpt lat="45.1009183" lon="7.9439067"><ele>304.2</ele><time>2026-04-12T12:43:10.874Z</time></trkpt><trkpt lat="45.1010167" lon="7.9438367"><ele>305.4</ele><time>2026-04-12T12:43:11.875Z</time></trkpt><trkpt lat="45.10112" lon="7.9437933"><ele>306.59999999999997</ele><time>2026-04-12T12:43:12.874Z</time></trkpt><trkpt lat="45.1012067" lon="7.9437783"><ele>307.8</ele><time>2026-04-12T12:43:13.874Z</time></trkpt><trkpt lat="45.1012833" lon="7.943805"><ele>309.0</ele><time>2026-04-12T12:43:14.874Z</time></trkpt><trkpt lat="45.1013383" lon="7.94386"><ele>309.0</ele><time>2026-04-12T12:43:15.875Z</time></trkpt><trkpt lat="45.1013767" lon="7.9439517"><ele>309.0</ele><time>2026-04-12T12:43:16.874Z</time></trkpt><trkpt lat="45.1013717" lon="7.9440483"><ele>309.0</ele><time>2026-04-12T12:43:17.874Z</time></trkpt><trkpt lat="45.1013267" lon="7.94413"><ele>309.0</ele><time>2026-04-12T12:43:18.875Z</time></trkpt><trkpt lat="45.1012583" lon="7.944175"><ele>309.0</ele><time>2026-04-12T12:43:19.874Z</time></trkpt><trkpt lat="45.101155" lon="7.94419"><ele>309.0</ele><time>2026-04-12T12:43:20.874Z</time></trkpt><trkpt lat="45.10103" lon="7.9441983"><ele>307.5</ele><time>2026-04-12T12:43:21.874Z</time></trkpt><trkpt lat="45.10092" lon="7.94424"><ele>306.0</ele><time>2026-04-12T12:43:22.874Z</time></trkpt><trkpt lat="45.1008367" lon="7.9443183"><ele>304.5</ele><time>2026-04-12T12:43:23.875Z</time></trkpt><trkpt lat="45.1007583" lon="7.9444633"><ele>303.0</ele><time>2026-04-12T12:43:24.874Z</time></trkpt><trkpt lat="45.1006917" lon="7.9446217"><ele>303.0</ele><time>2026-04-12T12:43:25.874Z</time></trkpt><trkpt lat="45.1006233" lon="7.9447883"><ele>303.0</ele><time>2026-04-12T12:43:26.874Z</time></trkpt><trkpt lat="45.10056" lon="7.944955"><ele>303.0</ele><time>2026-04-12T12:43:27.875Z</time></trkpt><trkpt lat="45.1004983" lon="7.94513"><ele>303.0</ele><time>2026-04-12T12:43:28.875Z</time></trkpt><trkpt lat="45.100455" lon="7.9453033"><ele>304.0</ele><time>2026-04-12T12:43:29.875Z</time></trkpt><trkpt lat="45.100435" lon="7.9454783"><ele>305.0</ele><time>2026-04-12T12:43:30.874Z</time></trkpt><trkpt lat="45.1004367" lon="7.9456667"><ele>306.0</ele><time>2026-04-12T12:43:31.874Z</time></trkpt><trkpt lat="45.1004583" lon="7.9458517"><ele>307.0</ele><time>2026-04-12T12:43:32.875Z</time></trkpt><trkpt lat="45.1005067" lon="7.9460217"><ele>309.75</ele><time>2026-04-12T12:43:33.874Z</time></trkpt><trkpt lat="45.100565" lon="7.9461783"><ele>312.5</ele><time>2026-04-12T12:43:34.874Z</time></trkpt><trkpt lat="45.1006167" lon="7.9463367"><ele>315.25</ele><time>2026-04-12T12:43:35.875Z</time></trkpt><trkpt lat="45.10066" lon="7.946485"><ele>318.0</ele><time>2026-04-12T12:43:36.874Z</time></trkpt><trkpt lat="45.10068" lon="7.946645"><ele>321.75</ele><time>2026-04-12T12:43:37.874Z</time></trkpt><trkpt lat="45.1006667" lon="7.946805"><ele>325.5</ele><time>2026-04-12T12:43:38.875Z</time></trkpt><trkpt lat="45.1006333" lon="7.9469733"><ele>329.25</ele><time>2026-04-12T12:43:39.875Z</time></trkpt><trkpt lat="45.100565" lon="7.94712"><ele>333.0</ele><time>2026-04-12T12:43:40.875Z</time></trkpt><trkpt lat="45.1004633" lon="7.947225"><ele>333.0</ele><time>2026-04-12T12:43:41.875Z</time></trkpt><trkpt lat="45.10034" lon="7.9472833"><ele>333.0</ele><time>2026-04-12T12:43:42.874Z</time></trkpt><trkpt lat="45.100185" lon="7.9473217"><ele>333.0</ele><time>2026-04-12T12:43:43.874Z</time></trkpt><trkpt lat="45.100045" lon="7.9473617"><ele>333.0</ele><time>2026-04-12T12:43:44.875Z</time></trkpt><trkpt lat="45.09991" lon="7.9474133"><ele>333.5</ele><time>2026-04-12T12:43:45.875Z</time></trkpt><trkpt lat="45.0997733" lon="7.9474717"><ele>334.0</ele><time>2026-04-12T12:43:46.874Z</time></trkpt><trkpt lat="45.09964" lon="7.9475317"><ele>334.5</ele><time>2026-04-12T12:43:47.874Z</time></trkpt><trkpt lat="45.0995083" lon="7.947595"><ele>335.0</ele><time>2026-04-12T12:43:48.875Z</time></trkpt><trkpt lat="45.09938" lon="7.9476417"><ele>336.5</ele><time>2026-04-12T12:43:49.874Z</time></trkpt><trkpt lat="45.0992617" lon="7.94771"><ele>338.0</ele><time>2026-04-12T12:43:50.874Z</time></trkpt><trkpt lat="45.0991383" lon="7.9478167"><ele>339.5</ele><time>2026-04-12T12:43:51.874Z</time></trkpt><trkpt lat="45.099045" lon="7.9479567"><ele>341.0</ele><time>2026-04-12T12:43:52.875Z</time></trkpt><trkpt lat="45.09895" lon="7.9481067"><ele>341.0</ele><time>2026-04-12T12:43:53.875Z</time></trkpt><trkpt lat="45.098845" lon="7.948255"><ele>341.0</ele><time>2026-04-12T12:43:54.874Z</time></trkpt><trkpt lat="45.0987283" lon="7.948405"><ele>341.0</ele><time>2026-04-12T12:43:55.875Z</time></trkpt><trkpt lat="45.0986133" lon="7.9485483"><ele>344.33333333333337</ele><time>2026-04-12T12:43:56.874Z</time></trkpt><trkpt lat="45.0984983" lon="7.9486983"><ele>347.6666666666667</ele><time>2026-04-12T12:43:57.874Z</time></trkpt><trkpt lat="45.09838" lon="7.9488583"><ele>351.0</ele><time>2026-04-12T12:43:58.874Z</time></trkpt><trkpt lat="45.0982533" lon="7.94901"><ele>352.0</ele><time>2026-04-12T12:43:59.874Z</time></trkpt><trkpt lat="45.098115" lon="7.9491283"><ele>353.0</ele><time>2026-04-12T12:44:00.874Z</time></trkpt><trkpt lat="45.09798" lon="7.9492233"><ele>354.0</ele><time>2026-04-12T12:44:01.874Z</time></trkpt><trkpt lat="45.0978667" lon="7.94931"><ele>355.0</ele><time>2026-04-12T12:44:02.875Z</time></trkpt><trkpt lat="45.09776" lon="7.9494317"><ele>355.0</ele><time>2026-04-12T12:44:03.875Z</time></trkpt><trkpt lat="45.09766" lon="7.9495833"><ele>355.0</ele><time>2026-04-12T12:44:04.874Z</time></trkpt><trkpt lat="45.097575" lon="7.949745"><ele>355.0</ele><time>2026-04-12T12:44:05.874Z</time></trkpt><trkpt lat="45.097485" lon="7.9499217"><ele>355.0</ele><time>2026-04-12T12:44:06.874Z</time></trkpt><trkpt lat="45.0973983" lon="7.950095"><ele>357.0</ele><time>2026-04-12T12:44:07.874Z</time></trkpt><trkpt lat="45.0973117" lon="7.950275"><ele>359.0</ele><time>2026-04-12T12:44:08.874Z</time></trkpt><trkpt lat="45.0972167" lon="7.950435"><ele>361.0</ele><time>2026-04-12T12:44:09.875Z</time></trkpt><trkpt lat="45.09712" lon="7.95059"><ele>363.0</ele><time>2026-04-12T12:44:10.874Z</time></trkpt><trkpt lat="45.0970217" lon="7.9507233"><ele>363.0</ele><time>2026-04-12T12:44:11.875Z</time></trkpt><trkpt lat="45.0969017" lon="7.9508283"><ele>363.0</ele><time>2026-04-12T12:44:12.874Z</time></trkpt><trkpt lat="45.09676" lon="7.9509167"><ele>363.0</ele><time>2026-04-12T12:44:13.875Z</time></trkpt><trkpt lat="45.096635" lon="7.950965"><ele>363.0</ele><time>2026-04-12T12:44:14.875Z</time></trkpt><trkpt lat="45.0965183" lon="7.951005"><ele>364.6666666666667</ele><time>2026-04-12T12:44:15.874Z</time></trkpt><trkpt lat="45.0964167" lon="7.9510367"><ele>366.3333333333333</ele><time>2026-04-12T12:44:16.874Z</time></trkpt><trkpt lat="45.09634" lon="7.9511033"><ele>368.0</ele><time>2026-04-12T12:44:17.874Z</time></trkpt><trkpt lat="45.0962967" lon="7.9511967"><ele>369.66666666666663</ele><time>2026-04-12T12:44:18.875Z</time></trkpt><trkpt lat="45.0962783" lon="7.95131"><ele>371.3333333333333</ele><time>2026-04-12T12:44:19.874Z</time></trkpt><trkpt lat="45.0963017" lon="7.95141"><ele>373.0</ele><time>2026-04-12T12:44:20.874Z</time></trkpt><trkpt lat="45.096365" lon="7.95149"><ele>373.0</ele><time>2026-04-12T12:44:21.875Z</time></trkpt><trkpt lat="45.0964533" lon="7.951535"><ele>373.0</ele><time>2026-04-12T12:44:22.874Z</time></trkpt><trkpt lat="45.096575" lon="7.95152"><ele>373.0</ele><time>2026-04-12T12:44:23.874Z</time></trkpt><trkpt lat="45.09672" lon="7.95147"><ele>373.0</ele><time>2026-04-12T12:44:24.874Z</time></trkpt><trkpt lat="45.0968633" lon="7.9513867"><ele>374.25</ele><time>2026-04-12T12:44:25.875Z</time></trkpt><trkpt lat="45.097005" lon="7.9512933"><ele>375.5</ele><time>2026-04-12T12:44:26.875Z</time></trkpt><trkpt lat="45.0971283" lon="7.9511983"><ele>376.75</ele><time>2026-04-12T12:44:27.874Z</time></trkpt><trkpt lat="45.09722" lon="7.9511"><ele>378.0</ele><time>2026-04-12T12:44:28.874Z</time></trkpt><trkpt lat="45.0973017" lon="7.9510133"><ele>378.0</ele><time>2026-04-12T12:44:29.874Z</time></trkpt><trkpt lat="45.0973783" lon="7.950955"><ele>378.0</ele><time>2026-04-12T12:44:30.875Z</time></trkpt><trkpt lat="45.0974517" lon="7.950945"><ele>378.0</ele><time>2026-04-12T12:44:31.875Z</time></trkpt><trkpt lat="45.0975133" lon="7.9509717"><ele>378.0</ele><time>2026-04-12T12:44:32.874Z</time></trkpt><trkpt lat="45.09756" lon="7.9510433"><ele>378.0</ele><time>2026-04-12T12:44:33.874Z</time></trkpt><trkpt lat="45.097575" lon="7.95114"><ele>378.0</ele><time>2026-04-12T12:44:34.875Z</time></trkpt><trkpt lat="45.0975417" lon="7.9512383"><ele>378.0</ele><time>2026-04-12T12:44:35.875Z</time></trkpt><trkpt lat="45.0974667" lon="7.9513317"><ele>378.0</ele><time>2026-04-12T12:44:36.874Z</time></trkpt><trkpt lat="45.0973617" lon="7.951415"><ele>378.0</ele><time>2026-04-12T12:44:37.874Z</time></trkpt><trkpt lat="45.0972517" lon="7.9515033"><ele>378.0</ele><time>2026-04-12T12:44:38.874Z</time></trkpt><trkpt lat="45.097125" lon="7.9515933"><ele>378.0</ele><time>2026-04-12T12:44:39.875Z</time></trkpt><trkpt lat="45.097005" lon="7.9516783"><ele>381.5</ele><time>2026-04-12T12:44:40.874Z</time></trkpt><trkpt lat="45.0968917" lon="7.951755"><ele>385.0</ele><time>2026-04-12T12:44:41.875Z</time></trkpt><trkpt lat="45.09676" lon="7.9518517"><ele>388.5</ele><time>2026-04-12T12:44:42.874Z</time></trkpt><trkpt lat="45.0966283" lon="7.9519167"><ele>392.0</ele><time>2026-04-12T12:44:43.875Z</time></trkpt><trkpt lat="45.0964867" lon="7.95198"><ele>392.0</ele><time>2026-04-12T12:44:44.875Z</time></trkpt><trkpt lat="45.0963467" lon="7.9520417"><ele>392.0</ele><time>2026-04-12T12:44:45.874Z</time></trkpt><trkpt lat="45.096215" lon="7.9520833"><ele>392.0</ele><time>2026-04-12T12:44:46.874Z</time></trkpt><trkpt lat="45.0960817" lon="7.952155"><ele>392.0</ele><time>2026-04-12T12:44:47.874Z</time></trkpt><trkpt lat="45.0959533" lon="7.9522517"><ele>392.0</ele><time>2026-04-12T12:44:48.874Z</time></trkpt><trkpt lat="45.09585" lon="7.9523667"><ele>392.0</ele><time>2026-04-12T12:44:49.874Z</time></trkpt><trkpt lat="45.0957667" lon="7.952485"><ele>392.0</ele><time>2026-04-12T12:44:50.874Z</time></trkpt><trkpt lat="45.095695" lon="7.9525833"><ele>392.0</ele><time>2026-04-12T12:44:51.874Z</time></trkpt><trkpt lat="45.0956283" lon="7.9526867"><ele>392.0</ele><time>2026-04-12T12:44:52.875Z</time></trkpt><trkpt lat="45.0955633" lon="7.95277"><ele>392.3333333333333</ele><time>2026-04-12T12:44:53.875Z</time></trkpt><trkpt lat="45.09551" lon="7.9528417"><ele>392.66666666666663</ele><time>2026-04-12T12:44:54.875Z</time></trkpt><trkpt lat="45.0954367" lon="7.9529233"><ele>393.0</ele><time>2026-04-12T12:44:56.874Z</time></trkpt><trkpt lat="45.0953317" lon="7.9529467"><ele>393.33333333333337</ele><time>2026-04-12T12:44:58.874Z</time></trkpt><trkpt lat="45.0952483" lon="7.9529733"><ele>393.6666666666667</ele><time>2026-04-12T12:45:00.875Z</time></trkpt><trkpt lat="45.0952367" lon="7.9530633"><ele>394.0</ele><time>2026-04-12T12:45:02.874Z</time></trkpt><trkpt lat="45.0952767" lon="7.9531983"><ele>394.0</ele><time>2026-04-12T12:45:04.874Z</time></trkpt><trkpt lat="45.09531" lon="7.9532983"><ele>394.0</ele><time>2026-04-12T12:45:05.875Z</time></trkpt><trkpt lat="45.0953533" lon="7.9534267"><ele>394.0</ele><time>2026-04-12T12:45:06.875Z</time></trkpt><trkpt lat="45.0953833" lon="7.9535583"><ele>394.0</ele><time>2026-04-12T12:45:07.874Z</time></trkpt><trkpt lat="45.0954" lon="7.9536983"><ele>394.0</ele><time>2026-04-12T12:45:08.874Z</time></trkpt><trkpt lat="45.0953983" lon="7.9538417"><ele>393.79999999999995</ele><time>2026-04-12T12:45:09.874Z</time></trkpt><trkpt lat="45.095385" lon="7.9539883"><ele>393.59999999999997</ele><time>2026-04-12T12:45:10.874Z</time></trkpt><trkpt lat="45.0953683" lon="7.954135"><ele>393.4</ele><time>2026-04-12T12:45:11.874Z</time></trkpt><trkpt lat="45.09534" lon="7.9542817"><ele>393.2</ele><time>2026-04-12T12:45:12.874Z</time></trkpt><trkpt lat="45.0952933" lon="7.9544083"><ele>393.0</ele><time>2026-04-12T12:45:13.875Z</time></trkpt><trkpt lat="45.0952183" lon="7.9545383"><ele>393.5</ele><time>2026-04-12T12:45:14.875Z</time></trkpt><trkpt lat="45.09513" lon="7.9546683"><ele>394.0</ele><time>2026-04-12T12:45:15.875Z</time></trkpt><trkpt lat="45.09504" lon="7.954795"><ele>394.5</ele><time>2026-04-12T12:45:16.875Z</time></trkpt><trkpt lat="45.094955" lon="7.9549167"><ele>395.0</ele><time>2026-04-12T12:45:17.874Z</time></trkpt><trkpt lat="45.0948733" lon="7.9550333"><ele>394.5</ele><time>2026-04-12T12:45:18.874Z</time></trkpt><trkpt lat="45.0947967" lon="7.95514"><ele>394.0</ele><time>2026-04-12T12:45:19.874Z</time></trkpt><trkpt lat="45.0947083" lon="7.9552567"><ele>393.5</ele><time>2026-04-12T12:45:20.875Z</time></trkpt><trkpt lat="45.094615" lon="7.9553833"><ele>393.0</ele><time>2026-04-12T12:45:21.874Z</time></trkpt><trkpt lat="45.094515" lon="7.9555"><ele>393.0</ele><time>2026-04-12T12:45:22.874Z</time></trkpt><trkpt lat="45.0944033" lon="7.9556317"><ele>393.0</ele><time>2026-04-12T12:45:23.874Z</time></trkpt><trkpt lat="45.094295" lon="7.9557417"><ele>393.0</ele><time>2026-04-12T12:45:24.875Z</time></trkpt><trkpt lat="45.094195" lon="7.955855"><ele>393.0</ele><time>2026-04-12T12:45:25.874Z</time></trkpt><trkpt lat="45.0941" lon="7.9559867"><ele>392.0</ele><time>2026-04-12T12:45:26.875Z</time></trkpt><trkpt lat="45.0940017" lon="7.9561"><ele>391.0</ele><time>2026-04-12T12:45:27.874Z</time></trkpt><trkpt lat="45.0939017" lon="7.9562267"><ele>390.0</ele><time>2026-04-12T12:45:28.874Z</time></trkpt><trkpt lat="45.0938017" lon="7.9563583"><ele>389.0</ele><time>2026-04-12T12:45:29.875Z</time></trkpt><trkpt lat="45.0936983" lon="7.9564617"><ele>389.0</ele><time>2026-04-12T12:45:30.875Z</time></trkpt><trkpt lat="45.093585" lon="7.956565"><ele>389.0</ele><time>2026-04-12T12:45:31.875Z</time></trkpt><trkpt lat="45.0934633" lon="7.9566683"><ele>389.0</ele><time>2026-04-12T12:45:32.874Z</time></trkpt><trkpt lat="45.0933367" lon="7.9567683"><ele>389.0</ele><time>2026-04-12T12:45:33.875Z</time></trkpt><trkpt lat="45.09323" lon="7.9568567"><ele>386.5</ele><time>2026-04-12T12:45:34.874Z</time></trkpt><trkpt lat="45.0931217" lon="7.9569283"><ele>384.0</ele><time>2026-04-12T12:45:35.874Z</time></trkpt><trkpt lat="45.0930267" lon="7.95702"><ele>381.5</ele><time>2026-04-12T12:45:36.874Z</time></trkpt><trkpt lat="45.0929333" lon="7.9571217"><ele>379.0</ele><time>2026-04-12T12:45:37.875Z</time></trkpt><trkpt lat="45.0928533" lon="7.9572467"><ele>379.0</ele><time>2026-04-12T12:45:38.874Z</time></trkpt><trkpt lat="45.0927917" lon="7.9573983"><ele>379.0</ele><time>2026-04-12T12:45:39.874Z</time></trkpt><trkpt lat="45.092765" lon="7.9575817"><ele>379.0</ele><time>2026-04-12T12:45:40.874Z</time></trkpt><trkpt lat="45.0927667" lon="7.957795"><ele>379.0</ele><time>2026-04-12T12:45:41.874Z</time></trkpt><trkpt lat="45.09277" lon="7.95802"><ele>378.3333333333333</ele><time>2026-04-12T12:45:42.874Z</time></trkpt><trkpt lat="45.0927683" lon="7.958245"><ele>377.6666666666667</ele><time>2026-04-12T12:45:43.875Z</time></trkpt><trkpt lat="45.0927683" lon="7.958485"><ele>377.0</ele><time>2026-04-12T12:45:44.874Z</time></trkpt><trkpt lat="45.0927667" lon="7.95871"><ele>377.0</ele><time>2026-04-12T12:45:45.875Z</time></trkpt><trkpt lat="45.0927567" lon="7.9589217"><ele>377.0</ele><time>2026-04-12T12:45:46.874Z</time></trkpt><trkpt lat="45.092735" lon="7.9591367"><ele>377.0</ele><time>2026-04-12T12:45:47.874Z</time></trkpt><trkpt lat="45.0926967" lon="7.9593317"><ele>377.0</ele><time>2026-04-12T12:45:48.875Z</time></trkpt><trkpt lat="45.0926317" lon="7.9595267"><ele>377.6666666666667</ele><time>2026-04-12T12:45:49.875Z</time></trkpt><trkpt lat="45.0925517" lon="7.959725"><ele>378.3333333333333</ele><time>2026-04-12T12:45:50.874Z</time></trkpt><trkpt lat="45.0924583" lon="7.95992"><ele>379.0</ele><time>2026-04-12T12:45:51.874Z</time></trkpt><trkpt lat="45.09236" lon="7.9601133"><ele>380.66666666666663</ele><time>2026-04-12T12:45:52.875Z</time></trkpt><trkpt lat="45.0922567" lon="7.96031"><ele>382.3333333333333</ele><time>2026-04-12T12:45:53.875Z</time></trkpt><trkpt lat="45.0921567" lon="7.9605083"><ele>384.0</ele><time>2026-04-12T12:45:54.874Z</time></trkpt><trkpt lat="45.0920617" lon="7.960705"><ele>383.6666666666667</ele><time>2026-04-12T12:45:55.874Z</time></trkpt><trkpt lat="45.091965" lon="7.9608983"><ele>383.33333333333337</ele><time>2026-04-12T12:45:56.874Z</time></trkpt><trkpt lat="45.09187" lon="7.9610917"><ele>383.0</ele><time>2026-04-12T12:45:57.875Z</time></trkpt><trkpt lat="45.0917633" lon="7.96127"><ele>383.0</ele><time>2026-04-12T12:45:58.874Z</time></trkpt><trkpt lat="45.0916717" lon="7.9614417"><ele>383.0</ele><time>2026-04-12T12:45:59.874Z</time></trkpt><trkpt lat="45.0915883" lon="7.96162"><ele>383.0</ele><time>2026-04-12T12:46:00.874Z</time></trkpt><trkpt lat="45.091505" lon="7.9617867"><ele>383.0</ele><time>2026-04-12T12:46:01.874Z</time></trkpt><trkpt lat="45.0914133" lon="7.9619517"><ele>386.5</ele><time>2026-04-12T12:46:02.875Z</time></trkpt><trkpt lat="45.0913233" lon="7.9621183"><ele>390.0</ele><time>2026-04-12T12:46:03.875Z</time></trkpt><trkpt lat="45.0912667" lon="7.9623017"><ele>393.5</ele><time>2026-04-12T12:46:04.875Z</time></trkpt><trkpt lat="45.091245" lon="7.9624933"><ele>397.0</ele><time>2026-04-12T12:46:05.874Z</time></trkpt><trkpt lat="45.09125" lon="7.9626983"><ele>397.0</ele><time>2026-04-12T12:46:06.874Z</time></trkpt><trkpt lat="45.0912867" lon="7.9629017"><ele>397.0</ele><time>2026-04-12T12:46:07.874Z</time></trkpt><trkpt lat="45.091345" lon="7.9630917"><ele>397.0</ele><time>2026-04-12T12:46:08.874Z</time></trkpt><trkpt lat="45.0914067" lon="7.9632717"><ele>397.0</ele><time>2026-04-12T12:46:09.874Z</time></trkpt><trkpt lat="45.0914533" lon="7.9634533"><ele>399.25</ele><time>2026-04-12T12:46:10.874Z</time></trkpt><trkpt lat="45.091485" lon="7.9636317"><ele>401.5</ele><time>2026-04-12T12:46:11.874Z</time></trkpt><trkpt lat="45.0914833" lon="7.963815"><ele>403.75</ele><time>2026-04-12T12:46:12.875Z</time></trkpt><trkpt lat="45.09145" lon="7.9639783"><ele>406.0</ele><time>2026-04-12T12:46:13.875Z</time></trkpt><trkpt lat="45.0913783" lon="7.9641233"><ele>409.75</ele><time>2026-04-12T12:46:14.875Z</time></trkpt><trkpt lat="45.0912633" lon="7.964205"><ele>413.5</ele><time>2026-04-12T12:46:15.874Z</time></trkpt><trkpt lat="45.091105" lon="7.96424"><ele>417.25</ele><time>2026-04-12T12:46:16.875Z</time></trkpt><trkpt lat="45.090965" lon="7.9642667"><ele>421.0</ele><time>2026-04-12T12:46:17.874Z</time></trkpt><trkpt lat="45.0908017" lon="7.9643083"><ele>421.0</ele><time>2026-04-12T12:46:18.874Z</time></trkpt><trkpt lat="45.09064" lon="7.96435"><ele>421.0</ele><time>2026-04-12T12:46:19.875Z</time></trkpt><trkpt lat="45.0904883" lon="7.96439"><ele>421.0</ele><time>2026-04-12T12:46:20.875Z</time></trkpt><trkpt lat="45.0903383" lon="7.9644367"><ele>421.0</ele><time>2026-04-12T12:46:21.874Z</time></trkpt><trkpt lat="45.0901917" lon="7.964475"><ele>421.0</ele><time>2026-04-12T12:46:22.875Z</time></trkpt><trkpt lat="45.0900583" lon="7.9645067"><ele>421.0</ele><time>2026-04-12T12:46:23.874Z</time></trkpt><trkpt lat="45.0899367" lon="7.9645017"><ele>421.0</ele><time>2026-04-12T12:46:24.875Z</time></trkpt><trkpt lat="45.0898267" lon="7.9644333"><ele>420.8</ele><time>2026-04-12T12:46:25.875Z</time></trkpt><trkpt lat="45.0897333" lon="7.9643333"><ele>420.6</ele><time>2026-04-12T12:46:26.874Z</time></trkpt><trkpt lat="45.0896617" lon="7.964215"><ele>420.4</ele><time>2026-04-12T12:46:27.875Z</time></trkpt><trkpt lat="45.0895933" lon="7.9641067"><ele>420.2</ele><time>2026-04-12T12:46:28.874Z</time></trkpt><trkpt lat="45.08952" lon="7.9640233"><ele>420.0</ele><time>2026-04-12T12:46:29.875Z</time></trkpt><trkpt lat="45.0894467" lon="7.963995"><ele>420.0</ele><time>2026-04-12T12:46:30.874Z</time></trkpt><trkpt lat="45.0893717" lon="7.9639983"><ele>420.0</ele><time>2026-04-12T12:46:31.874Z</time></trkpt><trkpt lat="45.0893117" lon="7.9640683"><ele>420.0</ele><time>2026-04-12T12:46:32.874Z</time></trkpt><trkpt lat="45.089285" lon="7.964185"><ele>420.0</ele><time>2026-04-12T12:46:33.875Z</time></trkpt><trkpt lat="45.0892917" lon="7.9643183"><ele>420.0</ele><time>2026-04-12T12:46:34.874Z</time></trkpt><trkpt lat="45.0893417" lon="7.9644433"><ele>420.0</ele><time>2026-04-12T12:46:35.874Z</time></trkpt><trkpt lat="45.0894" lon="7.9645783"><ele>420.6</ele><time>2026-04-12T12:46:36.874Z</time></trkpt><trkpt lat="45.0894583" lon="7.9647167"><ele>421.2</ele><time>2026-04-12T12:46:37.875Z</time></trkpt><trkpt lat="45.0895067" lon="7.9648217"><ele>421.79999999999995</ele><time>2026-04-12T12:46:38.875Z</time></trkpt><trkpt lat="45.0895333" lon="7.9649533"><ele>422.4</ele><time>2026-04-12T12:46:39.875Z</time></trkpt><trkpt lat="45.0895283" lon="7.96508"><ele>423.0</ele><time>2026-04-12T12:46:40.874Z</time></trkpt><trkpt lat="45.08948" lon="7.9651833"><ele>420.79999999999995</ele><time>2026-04-12T12:46:41.875Z</time></trkpt><trkpt lat="45.0894" lon="7.965245"><ele>418.6</ele><time>2026-04-12T12:46:42.875Z</time></trkpt><trkpt lat="45.0893133" lon="7.965255"><ele>416.4</ele><time>2026-04-12T12:46:43.875Z</time></trkpt><trkpt lat="45.0892233" lon="7.9652033"><ele>414.20000000000005</ele><time>2026-04-12T12:46:44.875Z</time></trkpt><trkpt lat="45.089135" lon="7.9650883"><ele>412.0</ele><time>2026-04-12T12:46:45.875Z</time></trkpt><trkpt lat="45.08906" lon="7.9649367"><ele>417.5</ele><time>2026-04-12T12:46:46.874Z</time></trkpt><trkpt lat="45.0889867" lon="7.9647733"><ele>423.0</ele><time>2026-04-12T12:46:47.875Z</time></trkpt><trkpt lat="45.0889133" lon="7.96462"><ele>428.5</ele><time>2026-04-12T12:46:48.875Z</time></trkpt><trkpt lat="45.088825" lon="7.9644817"><ele>434.0</ele><time>2026-04-12T12:46:49.875Z</time></trkpt><trkpt lat="45.0887283" lon="7.9643367"><ele>434.0</ele><time>2026-04-12T12:46:50.875Z</time></trkpt><trkpt lat="45.088615" lon="7.9642117"><ele>434.0</ele><time>2026-04-12T12:46:51.874Z</time></trkpt><trkpt lat="45.0884867" lon="7.9640967"><ele>434.0</ele><time>2026-04-12T12:46:52.875Z</time></trkpt><trkpt lat="45.0883517" lon="7.9639817"><ele>438.0</ele><time>2026-04-12T12:46:53.875Z</time></trkpt><trkpt lat="45.088225" lon="7.9638667"><ele>442.0</ele><time>2026-04-12T12:46:54.874Z</time></trkpt><trkpt lat="45.0881017" lon="7.9637483"><ele>446.0</ele><time>2026-04-12T12:46:55.875Z</time></trkpt><trkpt lat="45.0879767" lon="7.9636433"><ele>450.0</ele><time>2026-04-12T12:46:56.875Z</time></trkpt><trkpt lat="45.08785" lon="7.9635817"><ele>450.0</ele><time>2026-04-12T12:46:57.875Z</time></trkpt><trkpt lat="45.08775" lon="7.9635383"><ele>450.0</ele><time>2026-04-12T12:46:58.875Z</time></trkpt><trkpt lat="45.08766" lon="7.963505"><ele>450.0</ele><time>2026-04-12T12:46:59.874Z</time></trkpt><trkpt lat="45.08758" lon="7.96344"><ele>450.0</ele><time>2026-04-12T12:47:00.874Z</time></trkpt><trkpt lat="45.0875317" lon="7.96333"><ele>450.0</ele><time>2026-04-12T12:47:01.875Z</time></trkpt><trkpt lat="45.0875217" lon="7.963195"><ele>449.6</ele><time>2026-04-12T12:47:02.874Z</time></trkpt><trkpt lat="45.0875467" lon="7.9630733"><ele>449.2</ele><time>2026-04-12T12:47:03.875Z</time></trkpt><trkpt lat="45.0875967" lon="7.962945"><ele>448.79999999999995</ele><time>2026-04-12T12:47:04.874Z</time></trkpt><trkpt lat="45.0876783" lon="7.96283"><ele>448.4</ele><time>2026-04-12T12:47:05.875Z</time></trkpt><trkpt lat="45.08778" lon="7.9627483"><ele>448.0</ele><time>2026-04-12T12:47:06.875Z</time></trkpt><trkpt lat="45.0878817" lon="7.9626783"><ele>448.0</ele><time>2026-04-12T12:47:07.874Z</time></trkpt><trkpt lat="45.0879633" lon="7.9625917"><ele>447.99999999999994</ele><time>2026-04-12T12:47:08.874Z</time></trkpt><trkpt lat="45.0880167" lon="7.96247"><ele>447.99999999999994</ele><time>2026-04-12T12:47:09.875Z</time></trkpt><trkpt lat="45.0880183" lon="7.9623417"><ele>448.0</ele><time>2026-04-12T12:47:10.875Z</time></trkpt><trkpt lat="45.0879833" lon="7.9622117"><ele>448.0</ele><time>2026-04-12T12:47:11.875Z</time></trkpt><trkpt lat="45.0879183" lon="7.962125"><ele>449.2</ele><time>2026-04-12T12:47:12.874Z</time></trkpt><trkpt lat="45.0878233" lon="7.9620833"><ele>450.4</ele><time>2026-04-12T12:47:13.874Z</time></trkpt><trkpt lat="45.0877217" lon="7.9620883"><ele>451.59999999999997</ele><time>2026-04-12T12:47:14.875Z</time></trkpt><trkpt lat="45.0876167" lon="7.9621467"><ele>452.79999999999995</ele><time>2026-04-12T12:47:15.875Z</time></trkpt><trkpt lat="45.0875017" lon="7.9622283"><ele>454.0</ele><time>2026-04-12T12:47:16.874Z</time></trkpt><trkpt lat="45.087375" lon="7.9623083"><ele>454.25</ele><time>2026-04-12T12:47:17.874Z</time></trkpt><trkpt lat="45.0872583" lon="7.9623683"><ele>454.5</ele><time>2026-04-12T12:47:18.875Z</time></trkpt><trkpt lat="45.0871467" lon="7.9624367"><ele>454.75</ele><time>2026-04-12T12:47:19.875Z</time></trkpt><trkpt lat="45.087025" lon="7.9625133"><ele>455.0</ele><time>2026-04-12T12:47:20.874Z</time></trkpt><trkpt lat="45.0869" lon="7.9625767"><ele>455.0</ele><time>2026-04-12T12:47:21.875Z</time></trkpt><trkpt lat="45.0867717" lon="7.9626367"><ele>455.0</ele><time>2026-04-12T12:47:22.875Z</time></trkpt><trkpt lat="45.0866367" lon="7.9626817"><ele>455.0</ele><time>2026-04-12T12:47:23.874Z</time></trkpt><trkpt lat="45.0865" lon="7.9627067"><ele>455.0</ele><time>2026-04-12T12:47:24.874Z</time></trkpt><trkpt lat="45.0863617" lon="7.9627317"><ele>457.25</ele><time>2026-04-12T12:47:25.875Z</time></trkpt><trkpt lat="45.0862167" lon="7.9627417"><ele>459.5</ele><time>2026-04-12T12:47:26.874Z</time></trkpt><trkpt lat="45.0860717" lon="7.9627433"><ele>461.75</ele><time>2026-04-12T12:47:27.875Z</time></trkpt><trkpt lat="45.0859283" lon="7.9627433"><ele>464.0</ele><time>2026-04-12T12:47:28.874Z</time></trkpt><trkpt lat="45.08578" lon="7.9627383"><ele>469.75</ele><time>2026-04-12T12:47:29.875Z</time></trkpt><trkpt lat="45.0856417" lon="7.9627367"><ele>475.5</ele><time>2026-04-12T12:47:30.875Z</time></trkpt><trkpt lat="45.0855033" lon="7.962755"><ele>481.25</ele><time>2026-04-12T12:47:31.875Z</time></trkpt><trkpt lat="45.0853733" lon="7.962805"><ele>487.0</ele><time>2026-04-12T12:47:32.874Z</time></trkpt><trkpt lat="45.08526" lon="7.9629"><ele>487.0</ele><time>2026-04-12T12:47:33.874Z</time></trkpt><trkpt lat="45.0851767" lon="7.9630417"><ele>487.0</ele><time>2026-04-12T12:47:34.875Z</time></trkpt><trkpt lat="45.0851167" lon="7.9631933"><ele>487.0</ele><time>2026-04-12T12:47:35.874Z</time></trkpt><trkpt lat="45.0850767" lon="7.9633483"><ele>487.0</ele><time>2026-04-12T12:47:36.875Z</time></trkpt><trkpt lat="45.08502" lon="7.9634617"><ele>480.75</ele><time>2026-04-12T12:47:37.875Z</time></trkpt><trkpt lat="45.0849233" lon="7.96352"><ele>474.5</ele><time>2026-04-12T12:47:38.874Z</time></trkpt><trkpt lat="45.0848217" lon="7.9635133"><ele>468.25</ele><time>2026-04-12T12:47:39.874Z</time></trkpt><trkpt lat="45.0847067" lon="7.96347"><ele>462.0</ele><time>2026-04-12T12:47:40.874Z</time></trkpt><trkpt lat="45.0845983" lon="7.9633667"><ele>468.25</ele><time>2026-04-12T12:47:41.874Z</time></trkpt><trkpt lat="45.0845017" lon="7.9632183"><ele>474.5</ele><time>2026-04-12T12:47:42.875Z</time></trkpt><trkpt lat="45.0843917" lon="7.96309"><ele>480.75</ele><time>2026-04-12T12:47:43.875Z</time></trkpt><trkpt lat="45.08427" lon="7.9629917"><ele>487.0</ele><time>2026-04-12T12:47:44.874Z</time></trkpt><trkpt lat="45.084135" lon="7.9629433"><ele>488.0</ele><time>2026-04-12T12:47:45.874Z</time></trkpt><trkpt lat="45.0839933" lon="7.9629483"><ele>489.0</ele><time>2026-04-12T12:47:46.874Z</time></trkpt><trkpt lat="45.08385" lon="7.962975"><ele>490.0</ele><time>2026-04-12T12:47:47.874Z</time></trkpt><trkpt lat="45.0837017" lon="7.9630033"><ele>491.0</ele><time>2026-04-12T12:47:48.874Z</time></trkpt><trkpt lat="45.08356" lon="7.9630333"><ele>491.0</ele><time>2026-04-12T12:47:49.875Z</time></trkpt><trkpt lat="45.0834167" lon="7.9630783"><ele>491.0</ele><time>2026-04-12T12:47:50.874Z</time></trkpt><trkpt lat="45.083275" lon="7.963145"><ele>491.0</ele><time>2026-04-12T12:47:51.875Z</time></trkpt><trkpt lat="45.083135" lon="7.9632067"><ele>491.0</ele><time>2026-04-12T12:47:52.875Z</time></trkpt><trkpt lat="45.0830117" lon="7.9632817"><ele>495.0</ele><time>2026-04-12T12:47:53.874Z</time></trkpt><trkpt lat="45.0828867" lon="7.9633933"><ele>499.0</ele><time>2026-04-12T12:47:54.874Z</time></trkpt><trkpt lat="45.0827517" lon="7.9635367"><ele>503.0</ele><time>2026-04-12T12:47:55.875Z</time></trkpt><trkpt lat="45.08262" lon="7.9636667"><ele>503.0</ele><time>2026-04-12T12:47:56.875Z</time></trkpt><trkpt lat="45.0824883" lon="7.963785"><ele>503.0</ele><time>2026-04-12T12:47:57.874Z</time></trkpt><trkpt lat="45.0823567" lon="7.9638767"><ele>503.0</ele><time>2026-04-12T12:47:58.875Z</time></trkpt><trkpt lat="45.082225" lon="7.9639667"><ele>503.0</ele><time>2026-04-12T12:47:59.875Z</time></trkpt><trkpt lat="45.0820933" lon="7.9640383"><ele>506.75</ele><time>2026-04-12T12:48:00.874Z</time></trkpt><trkpt lat="45.08196" lon="7.96411"><ele>510.5</ele><time>2026-04-12T12:48:01.875Z</time></trkpt><trkpt lat="45.0818367" lon="7.9641817"><ele>514.25</ele><time>2026-04-12T12:48:02.874Z</time></trkpt><trkpt lat="45.0817317" lon="7.9642433"><ele>518.0</ele><time>2026-04-12T12:48:03.874Z</time></trkpt><trkpt lat="45.0816283" lon="7.96433"><ele>514.25</ele><time>2026-04-12T12:48:04.874Z</time></trkpt><trkpt lat="45.08155" lon="7.9644267"><ele>510.5</ele><time>2026-04-12T12:48:05.875Z</time></trkpt><trkpt lat="45.0814733" lon="7.964565"><ele>506.75</ele><time>2026-04-12T12:48:06.875Z</time></trkpt><trkpt lat="45.0814217" lon="7.96474"><ele>503.0</ele><time>2026-04-12T12:48:07.875Z</time></trkpt><trkpt lat="45.0813833" lon="7.964945"><ele>502.66666666666663</ele><time>2026-04-12T12:48:08.875Z</time></trkpt><trkpt lat="45.0813733" lon="7.9651567"><ele>502.33333333333337</ele><time>2026-04-12T12:48:09.874Z</time></trkpt><trkpt lat="45.0813483" lon="7.9653717"><ele>502.0</ele><time>2026-04-12T12:48:10.875Z</time></trkpt><trkpt lat="45.0813083" lon="7.9655933"><ele>502.0</ele><time>2026-04-12T12:48:11.875Z</time></trkpt><trkpt lat="45.0812433" lon="7.965795"><ele>502.0</ele><time>2026-04-12T12:48:12.874Z</time></trkpt><trkpt lat="45.0811517" lon="7.96599"><ele>502.0</ele><time>2026-04-12T12:48:13.875Z</time></trkpt><trkpt lat="45.0810433" lon="7.9661967"><ele>500.33333333333337</ele><time>2026-04-12T12:48:14.874Z</time></trkpt><trkpt lat="45.0809383" lon="7.9663983"><ele>498.66666666666663</ele><time>2026-04-12T12:48:15.875Z</time></trkpt><trkpt lat="45.0808383" lon="7.9666"><ele>497.0</ele><time>2026-04-12T12:48:16.874Z</time></trkpt><trkpt lat="45.0807317" lon="7.966805"><ele>497.0</ele><time>2026-04-12T12:48:17.874Z</time></trkpt><trkpt lat="45.0806433" lon="7.9669983"><ele>497.0</ele><time>2026-04-12T12:48:18.874Z</time></trkpt><trkpt lat="45.0805533" lon="7.9671717"><ele>497.0</ele><time>2026-04-12T12:48:19.874Z</time></trkpt><trkpt lat="45.0804583" lon="7.9673433"><ele>497.0</ele><time>2026-04-12T12:48:20.875Z</time></trkpt><trkpt lat="45.0803783" lon="7.96751"><ele>497.0</ele><time>2026-04-12T12:48:21.875Z</time></trkpt><trkpt lat="45.0803033" lon="7.967675"><ele>497.0</ele><time>2026-04-12T12:48:22.875Z</time></trkpt><trkpt lat="45.08022" lon="7.9678267"><ele>497.0</ele><time>2026-04-12T12:48:23.874Z</time></trkpt><trkpt lat="45.0801333" lon="7.9679667"><ele>499.25</ele><time>2026-04-12T12:48:24.874Z</time></trkpt><trkpt lat="45.0800533" lon="7.9681033"><ele>501.5</ele><time>2026-04-12T12:48:25.874Z</time></trkpt><trkpt lat="45.0799817" lon="7.96823"><ele>503.75</ele><time>2026-04-12T12:48:26.875Z</time></trkpt><trkpt lat="45.07991" lon="7.9683617"><ele>506.0</ele><time>2026-04-12T12:48:27.874Z</time></trkpt><trkpt lat="45.0798367" lon="7.9684617"><ele>509.20000000000005</ele><time>2026-04-12T12:48:28.874Z</time></trkpt><trkpt lat="45.0797483" lon="7.9685483"><ele>512.4000000000001</ele><time>2026-04-12T12:48:29.874Z</time></trkpt><trkpt lat="45.079665" lon="7.9685917"><ele>515.6</ele><time>2026-04-12T12:48:30.874Z</time></trkpt><trkpt lat="45.079575" lon="7.9686133"><ele>518.8000000000001</ele><time>2026-04-12T12:48:31.874Z</time></trkpt><trkpt lat="45.079475" lon="7.968625"><ele>522.0</ele><time>2026-04-12T12:48:32.875Z</time></trkpt><trkpt lat="45.0793633" lon="7.9686167"><ele>522.0</ele><time>2026-04-12T12:48:33.874Z</time></trkpt><trkpt lat="45.079255" lon="7.9685667"><ele>522.0</ele><time>2026-04-12T12:48:34.875Z</time></trkpt><trkpt lat="45.079145" lon="7.9684633"><ele>522.0</ele><time>2026-04-12T12:48:35.875Z</time></trkpt><trkpt lat="45.0790267" lon="7.96832"><ele>522.0</ele><time>2026-04-12T12:48:36.874Z</time></trkpt><trkpt lat="45.0789183" lon="7.9681767"><ele>519.0</ele><time>2026-04-12T12:48:37.875Z</time></trkpt><trkpt lat="45.0788233" lon="7.9680383"><ele>516.0</ele><time>2026-04-12T12:48:38.875Z</time></trkpt><trkpt lat="45.0787317" lon="7.9678983"><ele>513.0</ele><time>2026-04-12T12:48:39.874Z</time></trkpt><trkpt lat="45.078635" lon="7.9677717"><ele>510.0</ele><time>2026-04-12T12:48:40.874Z</time></trkpt><trkpt lat="45.0785133" lon="7.9676617"><ele>510.0</ele><time>2026-04-12T12:48:41.874Z</time></trkpt><trkpt lat="45.07838" lon="7.9675883"><ele>510.0</ele><time>2026-04-12T12:48:42.875Z</time></trkpt><trkpt lat="45.078245" lon="7.9675567"><ele>510.0</ele><time>2026-04-12T12:48:43.875Z</time></trkpt><trkpt lat="45.0781117" lon="7.9675483"><ele>510.0</ele><time>2026-04-12T12:48:44.875Z</time></trkpt><trkpt lat="45.07798" lon="7.9675667"><ele>509.25</ele><time>2026-04-12T12:48:45.875Z</time></trkpt><trkpt lat="45.0778533" lon="7.9676267"><ele>508.5</ele><time>2026-04-12T12:48:46.875Z</time></trkpt><trkpt lat="45.0777183" lon="7.967685"><ele>507.75</ele><time>2026-04-12T12:48:47.874Z</time></trkpt><trkpt lat="45.0775883" lon="7.9677783"><ele>507.0</ele><time>2026-04-12T12:48:48.874Z</time></trkpt><trkpt lat="45.0774567" lon="7.9678783"><ele>505.0</ele><time>2026-04-12T12:48:49.874Z</time></trkpt><trkpt lat="45.0773267" lon="7.96797"><ele>503.0</ele><time>2026-04-12T12:48:50.875Z</time></trkpt><trkpt lat="45.077195" lon="7.9680467"><ele>501.0</ele><time>2026-04-12T12:48:51.874Z</time></trkpt><trkpt lat="45.0770767" lon="7.9681317"><ele>499.0</ele><time>2026-04-12T12:48:52.875Z</time></trkpt><trkpt lat="45.0769567" lon="7.968225"><ele>499.0</ele><time>2026-04-12T12:48:53.874Z</time></trkpt><trkpt lat="45.0768533" lon="7.9683"><ele>499.0</ele><time>2026-04-12T12:48:54.874Z</time></trkpt><trkpt lat="45.0767483" lon="7.9683517"><ele>499.0</ele><time>2026-04-12T12:48:55.875Z</time></trkpt><trkpt lat="45.0766483" lon="7.9684017"><ele>499.0</ele><time>2026-04-12T12:48:56.874Z</time></trkpt><trkpt lat="45.076535" lon="7.9684567"><ele>497.0</ele><time>2026-04-12T12:48:57.875Z</time></trkpt><trkpt lat="45.07645" lon="7.9685533"><ele>495.0</ele><time>2026-04-12T12:48:58.875Z</time></trkpt><trkpt lat="45.07637" lon="7.9686717"><ele>493.0</ele><time>2026-04-12T12:48:59.875Z</time></trkpt><trkpt lat="45.0763117" lon="7.968815"><ele>491.0</ele><time>2026-04-12T12:49:00.874Z</time></trkpt><trkpt lat="45.076255" lon="7.968975"><ele>491.0</ele><time>2026-04-12T12:49:01.874Z</time></trkpt><trkpt lat="45.0761967" lon="7.9691383"><ele>491.0</ele><time>2026-04-12T12:49:02.874Z</time></trkpt><trkpt lat="45.0761433" lon="7.9693233"><ele>491.0</ele><time>2026-04-12T12:49:03.874Z</time></trkpt><trkpt lat="45.076115" lon="7.96953"><ele>491.0</ele><time>2026-04-12T12:49:04.875Z</time></trkpt><trkpt lat="45.0761017" lon="7.96974"><ele>490.0</ele><time>2026-04-12T12:49:05.874Z</time></trkpt><trkpt lat="45.0760917" lon="7.9699383"><ele>489.0</ele><time>2026-04-12T12:49:06.875Z</time></trkpt><trkpt lat="45.0760583" lon="7.970125"><ele>488.0</ele><time>2026-04-12T12:49:07.874Z</time></trkpt><trkpt lat="45.0760333" lon="7.970315"><ele>487.0</ele><time>2026-04-12T12:49:08.875Z</time></trkpt><trkpt lat="45.0760367" lon="7.9704867"><ele>485.5</ele><time>2026-04-12T12:49:09.874Z</time></trkpt><trkpt lat="45.0760767" lon="7.9706283"><ele>484.0</ele><time>2026-04-12T12:49:10.875Z</time></trkpt><trkpt lat="45.0761317" lon="7.9707733"><ele>482.5</ele><time>2026-04-12T12:49:11.874Z</time></trkpt><trkpt lat="45.0761933" lon="7.9709333"><ele>481.0</ele><time>2026-04-12T12:49:12.874Z</time></trkpt><trkpt lat="45.076245" lon="7.971085"><ele>480.5</ele><time>2026-04-12T12:49:13.874Z</time></trkpt><trkpt lat="45.0762617" lon="7.971225"><ele>480.0</ele><time>2026-04-12T12:49:14.874Z</time></trkpt><trkpt lat="45.0762267" lon="7.9713733"><ele>479.5</ele><time>2026-04-12T12:49:15.874Z</time></trkpt><trkpt lat="45.07615" lon="7.971525"><ele>479.0</ele><time>2026-04-12T12:49:16.874Z</time></trkpt><trkpt lat="45.076065" lon="7.971675"><ele>481.0</ele><time>2026-04-12T12:49:17.875Z</time></trkpt><trkpt lat="45.0759817" lon="7.9718367"><ele>483.0</ele><time>2026-04-12T12:49:18.874Z</time></trkpt><trkpt lat="45.0759083" lon="7.9720017"><ele>485.0</ele><time>2026-04-12T12:49:19.874Z</time></trkpt><trkpt lat="45.0758533" lon="7.972175"><ele>487.0</ele><time>2026-04-12T12:49:20.875Z</time></trkpt><trkpt lat="45.0757933" lon="7.9723383"><ele>482.5</ele><time>2026-04-12T12:49:21.874Z</time></trkpt><trkpt lat="45.0757117" lon="7.9724733"><ele>478.0</ele><time>2026-04-12T12:49:22.874Z</time></trkpt><trkpt lat="45.075635" lon="7.9725967"><ele>473.5</ele><time>2026-04-12T12:49:23.874Z</time></trkpt><trkpt lat="45.0755617" lon="7.9727167"><ele>469.0</ele><time>2026-04-12T12:49:24.875Z</time></trkpt><trkpt lat="45.0754983" lon="7.9728267"><ele>469.0</ele><time>2026-04-12T12:49:25.875Z</time></trkpt><trkpt lat="45.0754333" lon="7.972895"><ele>469.0</ele><time>2026-04-12T12:49:26.874Z</time></trkpt><trkpt lat="45.0753733" lon="7.9729533"><ele>469.0</ele><time>2026-04-12T12:49:27.874Z</time></trkpt><trkpt lat="45.0752617" lon="7.97295"><ele>469.0</ele><time>2026-04-12T12:49:29.874Z</time></trkpt><trkpt lat="45.0752483" lon="7.972795"><ele>469.0</ele><time>2026-04-12T12:49:31.874Z</time></trkpt><trkpt lat="45.075295" lon="7.972695"><ele>469.0</ele><time>2026-04-12T12:49:32.875Z</time></trkpt><trkpt lat="45.07538" lon="7.9725833"><ele>469.0</ele><time>2026-04-12T12:49:33.874Z</time></trkpt><trkpt lat="45.0754733" lon="7.9724717"><ele>469.0</ele><time>2026-04-12T12:49:34.874Z</time></trkpt><trkpt lat="45.0755717" lon="7.9723533"><ele>469.0</ele><time>2026-04-12T12:49:35.874Z</time></trkpt><trkpt lat="45.0756483" lon="7.9722083"><ele>467.75</ele><time>2026-04-12T12:49:36.874Z</time></trkpt><trkpt lat="45.0756967" lon="7.9720117"><ele>466.5</ele><time>2026-04-12T12:49:37.875Z</time></trkpt><trkpt lat="45.0757283" lon="7.9718133"><ele>465.25</ele><time>2026-04-12T12:49:38.874Z</time></trkpt><trkpt lat="45.0757417" lon="7.9716117"><ele>464.0</ele><time>2026-04-12T12:49:39.874Z</time></trkpt><trkpt lat="45.075745" lon="7.9714317"><ele>462.25</ele><time>2026-04-12T12:49:40.875Z</time></trkpt><trkpt lat="45.07573" lon="7.9712683"><ele>460.5</ele><time>2026-04-12T12:49:41.874Z</time></trkpt><trkpt lat="45.0756883" lon="7.9711217"><ele>458.75</ele><time>2026-04-12T12:49:42.874Z</time></trkpt><trkpt lat="45.0756183" lon="7.9709817"><ele>457.0</ele><time>2026-04-12T12:49:43.874Z</time></trkpt><trkpt lat="45.0755267" lon="7.9708317"><ele>457.0</ele><time>2026-04-12T12:49:44.874Z</time></trkpt><trkpt lat="45.0754233" lon="7.9706733"><ele>457.0</ele><time>2026-04-12T12:49:45.875Z</time></trkpt><trkpt lat="45.07535" lon="7.97048"><ele>457.0</ele><time>2026-04-12T12:49:46.874Z</time></trkpt><trkpt lat="45.07531" lon="7.970295"><ele>457.0</ele><time>2026-04-12T12:49:47.875Z</time></trkpt><trkpt lat="45.0752883" lon="7.9701117"><ele>458.25</ele><time>2026-04-12T12:49:48.874Z</time></trkpt><trkpt lat="45.0752617" lon="7.96995"><ele>459.5</ele><time>2026-04-12T12:49:49.874Z</time></trkpt><trkpt lat="45.0752033" lon="7.96981"><ele>460.75</ele><time>2026-04-12T12:49:50.874Z</time></trkpt><trkpt lat="45.0751" lon="7.9697217"><ele>462.0</ele><time>2026-04-12T12:49:51.875Z</time></trkpt><trkpt lat="45.074975" lon="7.9696617"><ele>460.25</ele><time>2026-04-12T12:49:52.874Z</time></trkpt><trkpt lat="45.07484" lon="7.9696067"><ele>458.5</ele><time>2026-04-12T12:49:53.875Z</time></trkpt><trkpt lat="45.0747167" lon="7.9695567"><ele>456.75</ele><time>2026-04-12T12:49:54.874Z</time></trkpt><trkpt lat="45.0745933" lon="7.9694917"><ele>455.0</ele><time>2026-04-12T12:49:55.874Z</time></trkpt><trkpt lat="45.0744667" lon="7.9694367"><ele>455.0</ele><time>2026-04-12T12:49:56.875Z</time></trkpt><trkpt lat="45.0743383" lon="7.96939"><ele>455.0</ele><time>2026-04-12T12:49:57.874Z</time></trkpt><trkpt lat="45.074205" lon="7.96936"><ele>455.0</ele><time>2026-04-12T12:49:58.874Z</time></trkpt><trkpt lat="45.0740883" lon="7.9693783"><ele>455.0</ele><time>2026-04-12T12:49:59.874Z</time></trkpt><trkpt lat="45.07397" lon="7.9694783"><ele>456.25</ele><time>2026-04-12T12:50:00.874Z</time></trkpt><trkpt lat="45.0738667" lon="7.9696183"><ele>457.5</ele><time>2026-04-12T12:50:01.875Z</time></trkpt><trkpt lat="45.0737617" lon="7.9697667"><ele>458.75</ele><time>2026-04-12T12:50:02.874Z</time></trkpt><trkpt lat="45.0736633" lon="7.9699117"><ele>460.0</ele><time>2026-04-12T12:50:03.875Z</time></trkpt><trkpt lat="45.07355" lon="7.9700417"><ele>455.5</ele><time>2026-04-12T12:50:04.874Z</time></trkpt><trkpt lat="45.0734533" lon="7.9701533"><ele>451.0</ele><time>2026-04-12T12:50:05.874Z</time></trkpt><trkpt lat="45.073335" lon="7.9702583"><ele>446.5</ele><time>2026-04-12T12:50:06.874Z</time></trkpt><trkpt lat="45.0731967" lon="7.97036"><ele>442.0</ele><time>2026-04-12T12:50:07.874Z</time></trkpt><trkpt lat="45.07306" lon="7.97044"><ele>442.0</ele><time>2026-04-12T12:50:08.875Z</time></trkpt><trkpt lat="45.0729133" lon="7.9705367"><ele>442.0</ele><time>2026-04-12T12:50:09.874Z</time></trkpt><trkpt lat="45.072765" lon="7.9706267"><ele>442.0</ele><time>2026-04-12T12:50:10.875Z</time></trkpt><trkpt lat="45.0726133" lon="7.97072"><ele>442.0</ele><time>2026-04-12T12:50:11.874Z</time></trkpt><trkpt lat="45.0724633" lon="7.9708233"><ele>442.0</ele><time>2026-04-12T12:50:12.875Z</time></trkpt><trkpt lat="45.0723183" lon="7.97093"><ele>442.0</ele><time>2026-04-12T12:50:13.874Z</time></trkpt><trkpt lat="45.072175" lon="7.9710367"><ele>437.6666666666667</ele><time>2026-04-12T12:50:14.874Z</time></trkpt><trkpt lat="45.0720233" lon="7.9711433"><ele>433.33333333333337</ele><time>2026-04-12T12:50:15.875Z</time></trkpt><trkpt lat="45.0718817" lon="7.9712333"><ele>429.0</ele><time>2026-04-12T12:50:16.875Z</time></trkpt><trkpt lat="45.0717467" lon="7.9713217"><ele>429.0</ele><time>2026-04-12T12:50:17.874Z</time></trkpt><trkpt lat="45.0716117" lon="7.9714167"><ele>429.0</ele><time>2026-04-12T12:50:18.874Z</time></trkpt><trkpt lat="45.071485" lon="7.9715133"><ele>429.0</ele><time>2026-04-12T12:50:19.874Z</time></trkpt><trkpt lat="45.0713617" lon="7.9716033"><ele>429.0</ele><time>2026-04-12T12:50:20.874Z</time></trkpt><trkpt lat="45.0712483" lon="7.97168"><ele>427.2</ele><time>2026-04-12T12:50:21.875Z</time></trkpt><trkpt lat="45.071145" lon="7.9717567"><ele>425.4</ele><time>2026-04-12T12:50:22.874Z</time></trkpt><trkpt lat="45.0710533" lon="7.97182"><ele>423.6</ele><time>2026-04-12T12:50:23.875Z</time></trkpt><trkpt lat="45.0709633" lon="7.9718783"><ele>421.8</ele><time>2026-04-12T12:50:24.874Z</time></trkpt><trkpt lat="45.0708817" lon="7.9719383"><ele>420.0</ele><time>2026-04-12T12:50:25.874Z</time></trkpt><trkpt lat="45.0708" lon="7.9720117"><ele>421.4</ele><time>2026-04-12T12:50:26.874Z</time></trkpt><trkpt lat="45.0707133" lon="7.9720833"><ele>422.8</ele><time>2026-04-12T12:50:27.874Z</time></trkpt><trkpt lat="45.07062" lon="7.9721317"><ele>424.20000000000005</ele><time>2026-04-12T12:50:28.875Z</time></trkpt><trkpt lat="45.0705183" lon="7.9721717"><ele>425.6</ele><time>2026-04-12T12:50:29.874Z</time></trkpt><trkpt lat="45.0704183" lon="7.9722117"><ele>427.0</ele><time>2026-04-12T12:50:30.875Z</time></trkpt><trkpt lat="45.0703267" lon="7.9722883"><ele>427.0</ele><time>2026-04-12T12:50:31.875Z</time></trkpt><trkpt lat="45.0702333" lon="7.9723817"><ele>427.0</ele><time>2026-04-12T12:50:32.875Z</time></trkpt><trkpt lat="45.0701217" lon="7.97248"><ele>427.0</ele><time>2026-04-12T12:50:33.874Z</time></trkpt><trkpt lat="45.0700017" lon="7.9725667"><ele>427.0</ele><time>2026-04-12T12:50:34.874Z</time></trkpt><trkpt lat="45.0699" lon="7.97265"><ele>426.0</ele><time>2026-04-12T12:50:35.874Z</time></trkpt><trkpt lat="45.0698033" lon="7.9727483"><ele>425.0</ele><time>2026-04-12T12:50:36.874Z</time></trkpt><trkpt lat="45.0697333" lon="7.972865"><ele>424.0</ele><time>2026-04-12T12:50:37.874Z</time></trkpt><trkpt lat="45.0697033" lon="7.973025"><ele>423.0</ele><time>2026-04-12T12:50:38.874Z</time></trkpt><trkpt lat="45.0696883" lon="7.9731883"><ele>423.0</ele><time>2026-04-12T12:50:39.874Z</time></trkpt><trkpt lat="45.06968" lon="7.9733333"><ele>423.0</ele><time>2026-04-12T12:50:40.874Z</time></trkpt><trkpt lat="45.069665" lon="7.97347"><ele>423.0</ele><time>2026-04-12T12:50:41.875Z</time></trkpt><trkpt lat="45.0696283" lon="7.973575"><ele>423.0</ele><time>2026-04-12T12:50:42.875Z</time></trkpt><trkpt lat="45.06958" lon="7.973675"><ele>423.0</ele><time>2026-04-12T12:50:43.875Z</time></trkpt><trkpt lat="45.0695183" lon="7.9737517"><ele>420.5</ele><time>2026-04-12T12:50:44.874Z</time></trkpt><trkpt lat="45.06943" lon="7.9738133"><ele>418.0</ele><time>2026-04-12T12:50:45.874Z</time></trkpt><trkpt lat="45.0693167" lon="7.9738783"><ele>415.5</ele><time>2026-04-12T12:50:46.874Z</time></trkpt><trkpt lat="45.0691717" lon="7.9739417"><ele>413.0</ele><time>2026-04-12T12:50:47.874Z</time></trkpt><trkpt lat="45.06902" lon="7.9740267"><ele>412.25</ele><time>2026-04-12T12:50:48.875Z</time></trkpt><trkpt lat="45.0688783" lon="7.9741"><ele>411.5</ele><time>2026-04-12T12:50:49.874Z</time></trkpt><trkpt lat="45.0687583" lon="7.9741717"><ele>410.75</ele><time>2026-04-12T12:50:50.875Z</time></trkpt><trkpt lat="45.068655" lon="7.97422"><ele>410.0</ele><time>2026-04-12T12:50:51.874Z</time></trkpt><trkpt lat="45.0685617" lon="7.974275"><ele>410.0</ele><time>2026-04-12T12:50:52.875Z</time></trkpt><trkpt lat="45.06848" lon="7.9743417"><ele>410.0</ele><time>2026-04-12T12:50:53.875Z</time></trkpt><trkpt lat="45.0684" lon="7.9744317"><ele>410.0</ele><time>2026-04-12T12:50:54.875Z</time></trkpt><trkpt lat="45.0683317" lon="7.97453"><ele>410.0</ele><time>2026-04-12T12:50:55.875Z</time></trkpt><trkpt lat="45.0682583" lon="7.97465"><ele>410.0</ele><time>2026-04-12T12:50:56.875Z</time></trkpt><trkpt lat="45.06819" lon="7.9747717"><ele>407.2</ele><time>2026-04-12T12:50:57.875Z</time></trkpt><trkpt lat="45.068135" lon="7.9749117"><ele>404.4</ele><time>2026-04-12T12:50:58.875Z</time></trkpt><trkpt lat="45.068085" lon="7.9750483"><ele>401.6</ele><time>2026-04-12T12:50:59.875Z</time></trkpt><trkpt lat="45.068035" lon="7.9751817"><ele>398.8</ele><time>2026-04-12T12:51:00.874Z</time></trkpt><trkpt lat="45.0679933" lon="7.9753317"><ele>396.0</ele><time>2026-04-12T12:51:01.875Z</time></trkpt><trkpt lat="45.067945" lon="7.9754917"><ele>396.0</ele><time>2026-04-12T12:51:02.874Z</time></trkpt><trkpt lat="45.067885" lon="7.9756533"><ele>396.0</ele><time>2026-04-12T12:51:03.875Z</time></trkpt><trkpt lat="45.0678133" lon="7.975825"><ele>396.0</ele><time>2026-04-12T12:51:04.874Z</time></trkpt><trkpt lat="45.0677583" lon="7.9760017"><ele>396.0</ele><time>2026-04-12T12:51:05.874Z</time></trkpt><trkpt lat="45.0676967" lon="7.97618"><ele>395.75</ele><time>2026-04-12T12:51:06.875Z</time></trkpt><trkpt lat="45.067635" lon="7.9763533"><ele>395.5</ele><time>2026-04-12T12:51:07.874Z</time></trkpt><trkpt lat="45.0675717" lon="7.9765267"><ele>395.25</ele><time>2026-04-12T12:51:08.874Z</time></trkpt><trkpt lat="45.06751" lon="7.9766983"><ele>395.0</ele><time>2026-04-12T12:51:09.875Z</time></trkpt><trkpt lat="45.06743" lon="7.9768533"><ele>393.5</ele><time>2026-04-12T12:51:10.874Z</time></trkpt><trkpt lat="45.0673367" lon="7.9769917"><ele>392.0</ele><time>2026-04-12T12:51:11.874Z</time></trkpt><trkpt lat="45.067235" lon="7.977145"><ele>390.5</ele><time>2026-04-12T12:51:12.874Z</time></trkpt><trkpt lat="45.0671283" lon="7.9772917"><ele>389.0</ele><time>2026-04-12T12:51:13.874Z</time></trkpt><trkpt lat="45.0670133" lon="7.9774433"><ele>388.0</ele><time>2026-04-12T12:51:14.875Z</time></trkpt><trkpt lat="45.0669083" lon="7.97759"><ele>387.0</ele><time>2026-04-12T12:51:15.874Z</time></trkpt><trkpt lat="45.0668067" lon="7.9777417"><ele>386.0</ele><time>2026-04-12T12:51:16.874Z</time></trkpt><trkpt lat="45.066705" lon="7.9778867"><ele>385.0</ele><time>2026-04-12T12:51:17.875Z</time></trkpt><trkpt lat="45.06661" lon="7.9780333"><ele>385.0</ele><time>2026-04-12T12:51:18.874Z</time></trkpt><trkpt lat="45.0665017" lon="7.9781717"><ele>385.0</ele><time>2026-04-12T12:51:19.874Z</time></trkpt><trkpt lat="45.066385" lon="7.9783117"><ele>385.0</ele><time>2026-04-12T12:51:20.874Z</time></trkpt><trkpt lat="45.0662633" lon="7.9784533"><ele>385.33333333333337</ele><time>2026-04-12T12:51:21.875Z</time></trkpt><trkpt lat="45.0661483" lon="7.978625"><ele>385.66666666666663</ele><time>2026-04-12T12:51:22.874Z</time></trkpt><trkpt lat="45.0660467" lon="7.9788067"><ele>386.0</ele><time>2026-04-12T12:51:23.874Z</time></trkpt><trkpt lat="45.0659517" lon="7.9789867"><ele>386.0</ele><time>2026-04-12T12:51:24.874Z</time></trkpt><trkpt lat="45.0658533" lon="7.9791633"><ele>386.0</ele><time>2026-04-12T12:51:25.875Z</time></trkpt><trkpt lat="45.065745" lon="7.9793433"><ele>386.0</ele><time>2026-04-12T12:51:26.874Z</time></trkpt><trkpt lat="45.0656267" lon="7.979505"><ele>383.0</ele><time>2026-04-12T12:51:27.875Z</time></trkpt><trkpt lat="45.0655067" lon="7.9796683"><ele>380.0</ele><time>2026-04-12T12:51:28.875Z</time></trkpt><trkpt lat="45.06538" lon="7.9798317"><ele>377.0</ele><time>2026-04-12T12:51:29.874Z</time></trkpt><trkpt lat="45.0652667" lon="7.9799883"><ele>376.6666666666667</ele><time>2026-04-12T12:51:30.874Z</time></trkpt><trkpt lat="45.0651583" lon="7.9801567"><ele>376.3333333333333</ele><time>2026-04-12T12:51:31.874Z</time></trkpt><trkpt lat="45.0650367" lon="7.980315"><ele>376.0</ele><time>2026-04-12T12:51:32.875Z</time></trkpt><trkpt lat="45.0649133" lon="7.98046"><ele>376.0</ele><time>2026-04-12T12:51:33.875Z</time></trkpt><trkpt lat="45.064775" lon="7.9806033"><ele>376.0</ele><time>2026-04-12T12:51:34.874Z</time></trkpt><trkpt lat="45.0646383" lon="7.980715"><ele>376.0</ele><time>2026-04-12T12:51:35.874Z</time></trkpt><trkpt lat="45.0645017" lon="7.9808117"><ele>376.75</ele><time>2026-04-12T12:51:36.875Z</time></trkpt><trkpt lat="45.0643683" lon="7.9808933"><ele>377.5</ele><time>2026-04-12T12:51:37.874Z</time></trkpt><trkpt lat="45.06422" lon="7.9809633"><ele>378.25</ele><time>2026-04-12T12:51:38.874Z</time></trkpt><trkpt lat="45.0640867" lon="7.9810317"><ele>379.0</ele><time>2026-04-12T12:51:39.874Z</time></trkpt><trkpt lat="45.063975" lon="7.9810967"><ele>377.5</ele><time>2026-04-12T12:51:40.874Z</time></trkpt><trkpt lat="45.0638817" lon="7.9811867"><ele>376.0</ele><time>2026-04-12T12:51:41.874Z</time></trkpt><trkpt lat="45.0638083" lon="7.981295"><ele>374.5</ele><time>2026-04-12T12:51:42.874Z</time></trkpt><trkpt lat="45.0637567" lon="7.98144"><ele>373.0</ele><time>2026-04-12T12:51:43.874Z</time></trkpt><trkpt lat="45.0636983" lon="7.981605"><ele>372.75</ele><time>2026-04-12T12:51:44.874Z</time></trkpt><trkpt lat="45.063635" lon="7.981775"><ele>372.5</ele><time>2026-04-12T12:51:45.874Z</time></trkpt><trkpt lat="45.0635533" lon="7.9819467"><ele>372.25</ele><time>2026-04-12T12:51:46.875Z</time></trkpt><trkpt lat="45.0634483" lon="7.982105"><ele>372.0</ele><time>2026-04-12T12:51:47.875Z</time></trkpt><trkpt lat="45.0633367" lon="7.9822617"><ele>370.0</ele><time>2026-04-12T12:51:48.875Z</time></trkpt><trkpt lat="45.063215" lon="7.98242"><ele>368.0</ele><time>2026-04-12T12:51:49.875Z</time></trkpt><trkpt lat="45.0630983" lon="7.9825583"><ele>366.0</ele><time>2026-04-12T12:51:50.875Z</time></trkpt><trkpt lat="45.06297" lon="7.9827183"><ele>365.6666666666667</ele><time>2026-04-12T12:51:51.874Z</time></trkpt><trkpt lat="45.0628517" lon="7.9828717"><ele>365.33333333333337</ele><time>2026-04-12T12:51:52.875Z</time></trkpt><trkpt lat="45.0627417" lon="7.9830233"><ele>365.0</ele><time>2026-04-12T12:51:53.874Z</time></trkpt><trkpt lat="45.0626333" lon="7.9831667"><ele>365.0</ele><time>2026-04-12T12:51:54.874Z</time></trkpt><trkpt lat="45.0625367" lon="7.9832933"><ele>365.0</ele><time>2026-04-12T12:51:55.875Z</time></trkpt><trkpt lat="45.0624433" lon="7.983405"><ele>365.0</ele><time>2026-04-12T12:51:56.874Z</time></trkpt><trkpt lat="45.06236" lon="7.9835117"><ele>365.0</ele><time>2026-04-12T12:51:57.874Z</time></trkpt><trkpt lat="45.06229" lon="7.983595"><ele>365.0</ele><time>2026-04-12T12:51:58.875Z</time></trkpt><trkpt lat="45.0622233" lon="7.983675"><ele>365.0</ele><time>2026-04-12T12:51:59.874Z</time></trkpt><trkpt lat="45.0621583" lon="7.983745"><ele>365.0</ele><time>2026-04-12T12:52:00.875Z</time></trkpt><trkpt lat="45.062085" lon="7.9838133"><ele>365.0</ele><time>2026-04-12T12:52:01.874Z</time></trkpt><trkpt lat="45.062005" lon="7.9838917"><ele>365.0</ele><time>2026-04-12T12:52:02.874Z</time></trkpt><trkpt lat="45.0619233" lon="7.9839683"><ele>365.0</ele><time>2026-04-12T12:52:03.875Z</time></trkpt><trkpt lat="45.0618417" lon="7.9840433"><ele>365.0</ele><time>2026-04-12T12:52:04.875Z</time></trkpt><trkpt lat="45.061765" lon="7.9841117"><ele>365.0</ele><time>2026-04-12T12:52:05.875Z</time></trkpt><trkpt lat="45.0616867" lon="7.9841683"><ele>365.0</ele><time>2026-04-12T12:52:06.875Z</time></trkpt><trkpt lat="45.0616067" lon="7.9841917"><ele>365.0</ele><time>2026-04-12T12:52:07.874Z</time></trkpt><trkpt lat="45.0615317" lon="7.9841833"><ele>365.0</ele><time>2026-04-12T12:52:08.874Z</time></trkpt><trkpt lat="45.0614633" lon="7.9841367"><ele>366.4</ele><time>2026-04-12T12:52:09.874Z</time></trkpt><trkpt lat="45.0613767" lon="7.9841"><ele>367.8</ele><time>2026-04-12T12:52:10.875Z</time></trkpt><trkpt lat="45.0612933" lon="7.9840583"><ele>369.20000000000005</ele><time>2026-04-12T12:52:11.875Z</time></trkpt><trkpt lat="45.0611967" lon="7.984025"><ele>370.6</ele><time>2026-04-12T12:52:12.875Z</time></trkpt><trkpt lat="45.0610833" lon="7.9839917"><ele>372.0</ele><time>2026-04-12T12:52:13.875Z</time></trkpt><trkpt lat="45.0609617" lon="7.98396"><ele>372.0</ele><time>2026-04-12T12:52:14.875Z</time></trkpt><trkpt lat="45.0608233" lon="7.9839333"><ele>372.0</ele><time>2026-04-12T12:52:15.874Z</time></trkpt><trkpt lat="45.0606967" lon="7.98391"><ele>372.0</ele><time>2026-04-12T12:52:16.874Z</time></trkpt><trkpt lat="45.0605567" lon="7.9838883"><ele>372.0</ele><time>2026-04-12T12:52:17.874Z</time></trkpt><trkpt lat="45.0604183" lon="7.983875"><ele>373.0</ele><time>2026-04-12T12:52:18.875Z</time></trkpt><trkpt lat="45.0602967" lon="7.9838833"><ele>374.0</ele><time>2026-04-12T12:52:19.874Z</time></trkpt><trkpt lat="45.0601883" lon="7.9839167"><ele>375.0</ele><time>2026-04-12T12:52:20.875Z</time></trkpt><trkpt lat="45.0600817" lon="7.98396"><ele>376.0</ele><time>2026-04-12T12:52:21.875Z</time></trkpt><trkpt lat="45.05998" lon="7.9840283"><ele>377.25</ele><time>2026-04-12T12:52:22.875Z</time></trkpt><trkpt lat="45.059875" lon="7.984105"><ele>378.5</ele><time>2026-04-12T12:52:23.874Z</time></trkpt><trkpt lat="45.05977" lon="7.9841783"><ele>379.75</ele><time>2026-04-12T12:52:24.874Z</time></trkpt><trkpt lat="45.05965" lon="7.9842283"><ele>381.0</ele><time>2026-04-12T12:52:25.875Z</time></trkpt><trkpt lat="45.0595383" lon="7.984275"><ele>384.75</ele><time>2026-04-12T12:52:26.875Z</time></trkpt><trkpt lat="45.0594267" lon="7.984315"><ele>388.5</ele><time>2026-04-12T12:52:27.874Z</time></trkpt><trkpt lat="45.0593117" lon="7.9843417"><ele>392.25</ele><time>2026-04-12T12:52:28.874Z</time></trkpt><trkpt lat="45.0592067" lon="7.9843433"><ele>396.0</ele><time>2026-04-12T12:52:29.874Z</time></trkpt><trkpt lat="45.0590917" lon="7.98432"><ele>396.0</ele><time>2026-04-12T12:52:30.875Z</time></trkpt><trkpt lat="45.05897" lon="7.9842883"><ele>396.0</ele><time>2026-04-12T12:52:31.874Z</time></trkpt><trkpt lat="45.0588483" lon="7.9842433"><ele>396.0</ele><time>2026-04-12T12:52:32.874Z</time></trkpt><trkpt lat="45.0587383" lon="7.9841833"><ele>396.0</ele><time>2026-04-12T12:52:33.875Z</time></trkpt><trkpt lat="45.058635" lon="7.9841267"><ele>393.8</ele><time>2026-04-12T12:52:34.874Z</time></trkpt><trkpt lat="45.0585383" lon="7.9840883"><ele>391.6</ele><time>2026-04-12T12:52:35.874Z</time></trkpt><trkpt lat="45.0584583" lon="7.9840667"><ele>389.4</ele><time>2026-04-12T12:52:36.874Z</time></trkpt><trkpt lat="45.0583667" lon="7.984065"><ele>387.2</ele><time>2026-04-12T12:52:37.874Z</time></trkpt><trkpt lat="45.05827" lon="7.9840633"><ele>385.0</ele><time>2026-04-12T12:52:38.875Z</time></trkpt><trkpt lat="45.05818" lon="7.98408"><ele>383.2</ele><time>2026-04-12T12:52:39.875Z</time></trkpt><trkpt lat="45.0580983" lon="7.9841017"><ele>381.4</ele><time>2026-04-12T12:52:40.875Z</time></trkpt><trkpt lat="45.0580317" lon="7.9841283"><ele>379.6</ele><time>2026-04-12T12:52:41.874Z</time></trkpt><trkpt lat="45.0579633" lon="7.9842283"><ele>377.8</ele><time>2026-04-12T12:52:43.875Z</time></trkpt><trkpt lat="45.0579383" lon="7.9843617"><ele>376.0</ele><time>2026-04-12T12:52:45.875Z</time></trkpt><trkpt lat="45.0579433" lon="7.9845417"><ele>375.66666666666663</ele><time>2026-04-12T12:52:47.875Z</time></trkpt><trkpt lat="45.0579517" lon="7.9846617"><ele>375.3333333333333</ele><time>2026-04-12T12:52:48.875Z</time></trkpt><trkpt lat="45.0579767" lon="7.9847767"><ele>375.0</ele><time>2026-04-12T12:52:49.874Z</time></trkpt><trkpt lat="45.0579767" lon="7.9848983"><ele>374.6666666666667</ele><time>2026-04-12T12:52:50.875Z</time></trkpt><trkpt lat="45.0579817" lon="7.985015"><ele>374.33333333333337</ele><time>2026-04-12T12:52:51.874Z</time></trkpt><trkpt lat="45.0579717" lon="7.9851283"><ele>374.0</ele><time>2026-04-12T12:52:52.874Z</time></trkpt><trkpt lat="45.0579533" lon="7.9852333"><ele>376.33333333333337</ele><time>2026-04-12T12:52:53.875Z</time></trkpt><trkpt lat="45.05792" lon="7.9853383"><ele>378.6666666666667</ele><time>2026-04-12T12:52:54.874Z</time></trkpt><trkpt lat="45.0578733" lon="7.9854217"><ele>381.0</ele><time>2026-04-12T12:52:55.875Z</time></trkpt><trkpt lat="45.05781" lon="7.9854783"><ele>383.33333333333337</ele><time>2026-04-12T12:52:56.875Z</time></trkpt><trkpt lat="45.0577283" lon="7.98549"><ele>385.6666666666667</ele><time>2026-04-12T12:52:57.874Z</time></trkpt><trkpt lat="45.057615" lon="7.9854567"><ele>388.0</ele><time>2026-04-12T12:52:58.874Z</time></trkpt><trkpt lat="45.0575067" lon="7.9853867"><ele>386.0</ele><time>2026-04-12T12:52:59.874Z</time></trkpt><trkpt lat="45.0574017" lon="7.9853267"><ele>384.0</ele><time>2026-04-12T12:53:00.874Z</time></trkpt><trkpt lat="45.0573017" lon="7.985275"><ele>382.0</ele><time>2026-04-12T12:53:01.874Z</time></trkpt><trkpt lat="45.05721" lon="7.98523"><ele>380.0</ele><time>2026-04-12T12:53:02.875Z</time></trkpt><trkpt lat="45.0571283" lon="7.9851767"><ele>378.0</ele><time>2026-04-12T12:53:03.875Z</time></trkpt><trkpt lat="45.0570367" lon="7.9851583"><ele>378.0</ele><time>2026-04-12T12:53:04.874Z</time></trkpt><trkpt lat="45.0569617" lon="7.9851483"><ele>378.0</ele><time>2026-04-12T12:53:05.875Z</time></trkpt><trkpt lat="45.056865" lon="7.9851633"><ele>378.0</ele><time>2026-04-12T12:53:06.875Z</time></trkpt><trkpt lat="45.0567583" lon="7.9851867"><ele>378.0</ele><time>2026-04-12T12:53:07.874Z</time></trkpt><trkpt lat="45.05665" lon="7.9852133"><ele>378.0</ele><time>2026-04-12T12:53:08.875Z</time></trkpt><trkpt lat="45.056535" lon="7.9852367"><ele>374.79999999999995</ele><time>2026-04-12T12:53:09.874Z</time></trkpt><trkpt lat="45.0564267" lon="7.985275"><ele>371.6</ele><time>2026-04-12T12:53:10.874Z</time></trkpt><trkpt lat="45.056315" lon="7.985295"><ele>368.4</ele><time>2026-04-12T12:53:11.875Z</time></trkpt><trkpt lat="45.05621" lon="7.98531"><ele>365.20000000000005</ele><time>2026-04-12T12:53:12.874Z</time></trkpt><trkpt lat="45.0561167" lon="7.9853333"><ele>362.0</ele><time>2026-04-12T12:53:13.875Z</time></trkpt><trkpt lat="45.0560317" lon="7.9853717"><ele>362.0</ele><time>2026-04-12T12:53:14.875Z</time></trkpt><trkpt lat="45.0559517" lon="7.9854533"><ele>362.0</ele><time>2026-04-12T12:53:15.874Z</time></trkpt><trkpt lat="45.0558667" lon="7.9855533"><ele>362.0</ele><time>2026-04-12T12:53:16.875Z</time></trkpt><trkpt lat="45.0557817" lon="7.985655"><ele>362.0</ele><time>2026-04-12T12:53:17.874Z</time></trkpt><trkpt lat="45.05569" lon="7.98574"><ele>362.0</ele><time>2026-04-12T12:53:18.874Z</time></trkpt><trkpt lat="45.0556" lon="7.9858167"><ele>361.6</ele><time>2026-04-12T12:53:19.874Z</time></trkpt><trkpt lat="45.055525" lon="7.985895"><ele>361.20000000000005</ele><time>2026-04-12T12:53:20.874Z</time></trkpt><trkpt lat="45.0554317" lon="7.9859533"><ele>360.8</ele><time>2026-04-12T12:53:21.875Z</time></trkpt><trkpt lat="45.05533" lon="7.9859967"><ele>360.4</ele><time>2026-04-12T12:53:22.875Z</time></trkpt><trkpt lat="45.0552217" lon="7.9860417"><ele>360.0</ele><time>2026-04-12T12:53:23.874Z</time></trkpt><trkpt lat="45.05512" lon="7.9860967"><ele>360.0</ele><time>2026-04-12T12:53:24.875Z</time></trkpt><trkpt lat="45.05502" lon="7.9861767"><ele>360.0</ele><time>2026-04-12T12:53:25.875Z</time></trkpt><trkpt lat="45.0549117" lon="7.9862417"><ele>360.0</ele><time>2026-04-12T12:53:26.875Z</time></trkpt><trkpt lat="45.0548083" lon="7.98632"><ele>360.0</ele><time>2026-04-12T12:53:27.874Z</time></trkpt><trkpt lat="45.05472" lon="7.9863767"><ele>360.0</ele><time>2026-04-12T12:53:28.874Z</time></trkpt><trkpt lat="45.0546433" lon="7.9863983"><ele>358.6</ele><time>2026-04-12T12:53:29.874Z</time></trkpt><trkpt lat="45.0545833" lon="7.98643"><ele>357.2</ele><time>2026-04-12T12:53:30.874Z</time></trkpt><trkpt lat="45.05447" lon="7.9864867"><ele>355.79999999999995</ele><time>2026-04-12T12:53:32.874Z</time></trkpt><trkpt lat="45.0543933" lon="7.9865167"><ele>354.4</ele><time>2026-04-12T12:53:33.875Z</time></trkpt><trkpt lat="45.0543067" lon="7.98653"><ele>353.0</ele><time>2026-04-12T12:53:34.875Z</time></trkpt><trkpt lat="45.0542033" lon="7.986555"><ele>352.25</ele><time>2026-04-12T12:53:35.874Z</time></trkpt><trkpt lat="45.0540867" lon="7.9865533"><ele>351.5</ele><time>2026-04-12T12:53:36.875Z</time></trkpt><trkpt lat="45.053955" lon="7.986575"><ele>350.75</ele><time>2026-04-12T12:53:37.874Z</time></trkpt><trkpt lat="45.0538233" lon="7.9865883"><ele>350.0</ele><time>2026-04-12T12:53:38.875Z</time></trkpt><trkpt lat="45.053685" lon="7.9866033"><ele>350.0</ele><time>2026-04-12T12:53:39.874Z</time></trkpt><trkpt lat="45.053535" lon="7.9866233"><ele>350.0</ele><time>2026-04-12T12:53:40.875Z</time></trkpt><trkpt lat="45.0533967" lon="7.98663"><ele>350.0</ele><time>2026-04-12T12:53:41.874Z</time></trkpt><trkpt lat="45.0532483" lon="7.986635"><ele>350.0</ele><time>2026-04-12T12:53:42.874Z</time></trkpt><trkpt lat="45.0531067" lon="7.9866367"><ele>348.0</ele><time>2026-04-12T12:53:43.875Z</time></trkpt><trkpt lat="45.0529567" lon="7.9866467"><ele>346.0</ele><time>2026-04-12T12:53:44.875Z</time></trkpt><trkpt lat="45.0528067" lon="7.9866617"><ele>344.0</ele><time>2026-04-12T12:53:45.875Z</time></trkpt><trkpt lat="45.0526517" lon="7.9866867"><ele>344.0</ele><time>2026-04-12T12:53:46.874Z</time></trkpt><trkpt lat="45.0525017" lon="7.9866933"><ele>344.0</ele><time>2026-04-12T12:53:47.875Z</time></trkpt><trkpt lat="45.0523517" lon="7.9867083"><ele>344.0</ele><time>2026-04-12T12:53:48.875Z</time></trkpt><trkpt lat="45.0521917" lon="7.9867233"><ele>337.6666666666667</ele><time>2026-04-12T12:53:49.875Z</time></trkpt><trkpt lat="45.0520417" lon="7.98673"><ele>331.3333333333333</ele><time>2026-04-12T12:53:50.875Z</time></trkpt><trkpt lat="45.0518867" lon="7.98674"><ele>325.0</ele><time>2026-04-12T12:53:51.875Z</time></trkpt><trkpt lat="45.0517317" lon="7.9867583"><ele>323.3333333333333</ele><time>2026-04-12T12:53:52.874Z</time></trkpt><trkpt lat="45.0515717" lon="7.9867767"><ele>321.6666666666667</ele><time>2026-04-12T12:53:53.875Z</time></trkpt><trkpt lat="45.05142" lon="7.9867983"><ele>320.0</ele><time>2026-04-12T12:53:54.874Z</time></trkpt><trkpt lat="45.0512617" lon="7.9868167"><ele>320.0</ele><time>2026-04-12T12:53:55.874Z</time></trkpt><trkpt lat="45.0511067" lon="7.9868433"><ele>320.0</ele><time>2026-04-12T12:53:56.875Z</time></trkpt><trkpt lat="45.0509567" lon="7.9868583"><ele>320.0</ele><time>2026-04-12T12:53:57.875Z</time></trkpt><trkpt lat="45.0508067" lon="7.9868733"><ele>319.0</ele><time>2026-04-12T12:53:58.874Z</time></trkpt><trkpt lat="45.0506517" lon="7.9868933"><ele>318.0</ele><time>2026-04-12T12:53:59.875Z</time></trkpt><trkpt lat="45.0504917" lon="7.9869083"><ele>317.0</ele><time>2026-04-12T12:54:00.874Z</time></trkpt><trkpt lat="45.050335" lon="7.98693"><ele>317.0</ele><time>2026-04-12T12:54:01.874Z</time></trkpt><trkpt lat="45.0501717" lon="7.9869483"><ele>317.0</ele><time>2026-04-12T12:54:02.875Z</time></trkpt><trkpt lat="45.0500033" lon="7.9869667"><ele>317.0</ele><time>2026-04-12T12:54:03.874Z</time></trkpt><trkpt lat="45.049845" lon="7.9869817"><ele>315.0</ele><time>2026-04-12T12:54:04.875Z</time></trkpt><trkpt lat="45.0496867" lon="7.987"><ele>313.0</ele><time>2026-04-12T12:54:05.874Z</time></trkpt><trkpt lat="45.0495233" lon="7.98703"><ele>311.0</ele><time>2026-04-12T12:54:06.874Z</time></trkpt><trkpt lat="45.0493667" lon="7.9870917"><ele>311.0</ele><time>2026-04-12T12:54:07.875Z</time></trkpt><trkpt lat="45.0492167" lon="7.9871667"><ele>311.0</ele><time>2026-04-12T12:54:08.875Z</time></trkpt><trkpt lat="45.0490733" lon="7.9872717"><ele>311.0</ele><time>2026-04-12T12:54:09.874Z</time></trkpt><trkpt lat="45.0489417" lon="7.9874017"><ele>307.6666666666667</ele><time>2026-04-12T12:54:10.874Z</time></trkpt><trkpt lat="45.0488017" lon="7.9875317"><ele>304.3333333333333</ele><time>2026-04-12T12:54:11.874Z</time></trkpt><trkpt lat="45.0486633" lon="7.9876417"><ele>301.0</ele><time>2026-04-12T12:54:12.875Z</time></trkpt><trkpt lat="45.0485133" lon="7.98775"><ele>301.0</ele><time>2026-04-12T12:54:13.875Z</time></trkpt><trkpt lat="45.0483883" lon="7.9878683"><ele>301.0</ele><time>2026-04-12T12:54:14.874Z</time></trkpt><trkpt lat="45.0482567" lon="7.9879783"><ele>301.0</ele><time>2026-04-12T12:54:15.875Z</time></trkpt><trkpt lat="45.0481217" lon="7.9880683"><ele>300.3333333333333</ele><time>2026-04-12T12:54:16.874Z</time></trkpt><trkpt lat="45.0479667" lon="7.9881317"><ele>299.6666666666667</ele><time>2026-04-12T12:54:17.875Z</time></trkpt><trkpt lat="45.0478067" lon="7.988165"><ele>299.0</ele><time>2026-04-12T12:54:18.875Z</time></trkpt><trkpt lat="45.0476417" lon="7.988175"><ele>299.0</ele><time>2026-04-12T12:54:19.875Z</time></trkpt><trkpt lat="45.0474733" lon="7.9881817"><ele>299.0</ele><time>2026-04-12T12:54:20.874Z</time></trkpt><trkpt lat="45.0473067" lon="7.9881717"><ele>299.0</ele><time>2026-04-12T12:54:21.874Z</time></trkpt><trkpt lat="45.0471517" lon="7.9881667"><ele>298.0</ele><time>2026-04-12T12:54:22.874Z</time></trkpt><trkpt lat="45.0469983" lon="7.9881667"><ele>297.0</ele><time>2026-04-12T12:54:23.874Z</time></trkpt><trkpt lat="45.0468433" lon="7.98818"><ele>296.0</ele><time>2026-04-12T12:54:24.875Z</time></trkpt><trkpt lat="45.0466783" lon="7.9881867"><ele>292.0</ele><time>2026-04-12T12:54:25.874Z</time></trkpt><trkpt lat="45.0465133" lon="7.9881933"><ele>288.0</ele><time>2026-04-12T12:54:26.875Z</time></trkpt><trkpt lat="45.0463533" lon="7.9882117"><ele>284.0</ele><time>2026-04-12T12:54:27.874Z</time></trkpt><trkpt lat="45.0462" lon="7.988255"><ele>284.0</ele><time>2026-04-12T12:54:28.874Z</time></trkpt><trkpt lat="45.04604" lon="7.9883117"><ele>284.0</ele><time>2026-04-12T12:54:29.875Z</time></trkpt><trkpt lat="45.0458817" lon="7.98837"><ele>284.0</ele><time>2026-04-12T12:54:30.875Z</time></trkpt><trkpt lat="45.04573" lon="7.98846"><ele>281.6666666666667</ele><time>2026-04-12T12:54:31.875Z</time></trkpt><trkpt lat="45.0455883" lon="7.9885833"><ele>279.3333333333333</ele><time>2026-04-12T12:54:32.874Z</time></trkpt><trkpt lat="45.0454517" lon="7.988735"><ele>277.0</ele><time>2026-04-12T12:54:33.874Z</time></trkpt><trkpt lat="45.0453233" lon="7.9888783"><ele>277.0</ele><time>2026-04-12T12:54:34.874Z</time></trkpt><trkpt lat="45.0452083" lon="7.9890183"><ele>277.0</ele><time>2026-04-12T12:54:35.875Z</time></trkpt><trkpt lat="45.0451" lon="7.9891517"><ele>277.0</ele><time>2026-04-12T12:54:36.875Z</time></trkpt><trkpt lat="45.0449583" lon="7.9892767"><ele>275.3333333333333</ele><time>2026-04-12T12:54:37.874Z</time></trkpt><trkpt lat="45.0448267" lon="7.9893917"><ele>273.6666666666667</ele><time>2026-04-12T12:54:38.875Z</time></trkpt><trkpt lat="45.0446867" lon="7.9894683"><ele>272.0</ele><time>2026-04-12T12:54:39.875Z</time></trkpt><trkpt lat="45.0445217" lon="7.989495"><ele>272.0</ele><time>2026-04-12T12:54:40.875Z</time></trkpt><trkpt lat="45.044355" lon="7.9895133"><ele>272.0</ele><time>2026-04-12T12:54:41.875Z</time></trkpt><trkpt lat="45.0442033" lon="7.9895483"><ele>272.0</ele><time>2026-04-12T12:54:42.875Z</time></trkpt><trkpt lat="45.0440633" lon="7.9895867"><ele>270.25</ele><time>2026-04-12T12:54:43.874Z</time></trkpt><trkpt lat="45.0439133" lon="7.9896467"><ele>268.5</ele><time>2026-04-12T12:54:44.875Z</time></trkpt><trkpt lat="45.0437867" lon="7.9897333"><ele>266.75</ele><time>2026-04-12T12:54:45.874Z</time></trkpt><trkpt lat="45.04366" lon="7.9898267"><ele>265.0</ele><time>2026-04-12T12:54:46.875Z</time></trkpt><trkpt lat="45.0435383" lon="7.9899217"><ele>264.66666666666663</ele><time>2026-04-12T12:54:47.875Z</time></trkpt><trkpt lat="45.0434117" lon="7.9900417"><ele>264.3333333333333</ele><time>2026-04-12T12:54:48.875Z</time></trkpt><trkpt lat="45.04329" lon="7.9901583"><ele>264.0</ele><time>2026-04-12T12:54:49.874Z</time></trkpt><trkpt lat="45.043155" lon="7.9902817"><ele>264.0</ele><time>2026-04-12T12:54:50.874Z</time></trkpt><trkpt lat="45.0430283" lon="7.9904233"><ele>264.0</ele><time>2026-04-12T12:54:51.874Z</time></trkpt><trkpt lat="45.0429067" lon="7.9905583"><ele>264.0</ele><time>2026-04-12T12:54:52.874Z</time></trkpt><trkpt lat="45.0427933" lon="7.99067"><ele>264.0</ele><time>2026-04-12T12:54:53.874Z</time></trkpt><trkpt lat="45.0426867" lon="7.9907767"><ele>264.0</ele><time>2026-04-12T12:54:54.875Z</time></trkpt><trkpt lat="45.0425833" lon="7.990875"><ele>264.0</ele><time>2026-04-12T12:54:55.875Z</time></trkpt><trkpt lat="45.0424917" lon="7.99097"><ele>264.0</ele><time>2026-04-12T12:54:56.874Z</time></trkpt><trkpt lat="45.0423967" lon="7.9910417"><ele>267.0</ele><time>2026-04-12T12:54:57.874Z</time></trkpt><trkpt lat="45.0422867" lon="7.9910783"><ele>270.0</ele><time>2026-04-12T12:54:58.875Z</time></trkpt><trkpt lat="45.0421683" lon="7.9910833"><ele>273.0</ele><time>2026-04-12T12:54:59.875Z</time></trkpt><trkpt lat="45.0420383" lon="7.9910633"><ele>276.0</ele><time>2026-04-12T12:55:00.875Z</time></trkpt><trkpt lat="45.0418917" lon="7.9910467"><ele>276.0</ele><time>2026-04-12T12:55:01.875Z</time></trkpt><trkpt lat="45.04175" lon="7.9910317"><ele>276.0</ele><time>2026-04-12T12:55:02.874Z</time></trkpt><trkpt lat="45.0415983" lon="7.9910333"><ele>276.0</ele><time>2026-04-12T12:55:03.875Z</time></trkpt><trkpt lat="45.0414533" lon="7.991055"><ele>276.0</ele><time>2026-04-12T12:55:04.875Z</time></trkpt><trkpt lat="45.0413083" lon="7.9911"><ele>273.6666666666667</ele><time>2026-04-12T12:55:05.874Z</time></trkpt><trkpt lat="45.0411667" lon="7.991125"><ele>271.33333333333337</ele><time>2026-04-12T12:55:06.875Z</time></trkpt><trkpt lat="45.04102" lon="7.9911683"><ele>269.0</ele><time>2026-04-12T12:55:07.874Z</time></trkpt><trkpt lat="45.04087" lon="7.9912383"><ele>265.0</ele><time>2026-04-12T12:55:08.875Z</time></trkpt><trkpt lat="45.0407217" lon="7.9913117"><ele>261.0</ele><time>2026-04-12T12:55:09.874Z</time></trkpt><trkpt lat="45.0405767" lon="7.99138"><ele>257.0</ele><time>2026-04-12T12:55:10.875Z</time></trkpt><trkpt lat="45.0404367" lon="7.9914433"><ele>257.0</ele><time>2026-04-12T12:55:11.874Z</time></trkpt><trkpt lat="45.0403033" lon="7.9915233"><ele>257.0</ele><time>2026-04-12T12:55:12.874Z</time></trkpt><trkpt lat="45.0401867" lon="7.9915917"><ele>257.0</ele><time>2026-04-12T12:55:13.874Z</time></trkpt><trkpt lat="45.0400767" lon="7.991705"><ele>257.0</ele><time>2026-04-12T12:55:14.874Z</time></trkpt><trkpt lat="45.03997" lon="7.9918483"><ele>255.66666666666669</ele><time>2026-04-12T12:55:15.875Z</time></trkpt><trkpt lat="45.03986" lon="7.992005"><ele>254.33333333333331</ele><time>2026-04-12T12:55:16.874Z</time></trkpt><trkpt lat="45.0397333" lon="7.9921533"><ele>253.0</ele><time>2026-04-12T12:55:17.875Z</time></trkpt><trkpt lat="45.0396017" lon="7.9922967"><ele>253.0</ele><time>2026-04-12T12:55:18.874Z</time></trkpt><trkpt lat="45.0394717" lon="7.99242"><ele>253.0</ele><time>2026-04-12T12:55:19.874Z</time></trkpt><trkpt lat="45.0393483" lon="7.9925483"><ele>253.0</ele><time>2026-04-12T12:55:20.875Z</time></trkpt><trkpt lat="45.0392267" lon="7.99266"><ele>252.0</ele><time>2026-04-12T12:55:21.874Z</time></trkpt><trkpt lat="45.0391067" lon="7.9927817"><ele>251.0</ele><time>2026-04-12T12:55:22.874Z</time></trkpt><trkpt lat="45.0389883" lon="7.9929033"><ele>250.0</ele><time>2026-04-12T12:55:23.874Z</time></trkpt><trkpt lat="45.038875" lon="7.9930217"><ele>249.0</ele><time>2026-04-12T12:55:24.874Z</time></trkpt><trkpt lat="45.0387733" lon="7.9931517"><ele>249.0</ele><time>2026-04-12T12:55:25.875Z</time></trkpt><trkpt lat="45.0386683" lon="7.9932817"><ele>249.0</ele><time>2026-04-12T12:55:26.875Z</time></trkpt><trkpt lat="45.038585" lon="7.9934333"><ele>249.0</ele><time>2026-04-12T12:55:27.875Z</time></trkpt><trkpt lat="45.0384967" lon="7.9935783"><ele>249.0</ele><time>2026-04-12T12:55:28.875Z</time></trkpt><trkpt lat="45.038415" lon="7.9937217"><ele>249.79999999999998</ele><time>2026-04-12T12:55:29.874Z</time></trkpt><trkpt lat="45.03834" lon="7.9938433"><ele>250.59999999999997</ele><time>2026-04-12T12:55:30.875Z</time></trkpt><trkpt lat="45.0382683" lon="7.993965"><ele>251.4</ele><time>2026-04-12T12:55:31.874Z</time></trkpt><trkpt lat="45.0382067" lon="7.99408"><ele>252.2</ele><time>2026-04-12T12:55:32.875Z</time></trkpt><trkpt lat="45.03815" lon="7.99418"><ele>253.0</ele><time>2026-04-12T12:55:33.874Z</time></trkpt><trkpt lat="45.0381133" lon="7.9942633"><ele>251.4</ele><time>2026-04-12T12:55:34.874Z</time></trkpt><trkpt lat="45.0380483" lon="7.9943833"><ele>249.8</ele><time>2026-04-12T12:55:36.874Z</time></trkpt><trkpt lat="45.0379867" lon="7.99445"><ele>248.2</ele><time>2026-04-12T12:55:40.875Z</time></trkpt><trkpt lat="45.037905" lon="7.9943683"><ele>246.6</ele><time>2026-04-12T12:56:25.875Z</time></trkpt><trkpt lat="45.03788" lon="7.9942683"><ele>245.0</ele><time>2026-04-12T12:56:26.874Z</time></trkpt><trkpt lat="45.03785" lon="7.994135"><ele>245.0</ele><time>2026-04-12T12:56:27.874Z</time></trkpt><trkpt lat="45.03782" lon="7.99399"><ele>245.0</ele><time>2026-04-12T12:56:28.874Z</time></trkpt><trkpt lat="45.037785" lon="7.99384"><ele>245.0</ele><time>2026-04-12T12:56:29.874Z</time></trkpt><trkpt lat="45.037745" lon="7.9936883"><ele>245.0</ele><time>2026-04-12T12:56:30.875Z</time></trkpt><trkpt lat="45.0377217" lon="7.9935133"><ele>245.25</ele><time>2026-04-12T12:56:31.874Z</time></trkpt><trkpt lat="45.037685" lon="7.9933317"><ele>245.5</ele><time>2026-04-12T12:56:32.874Z</time></trkpt><trkpt lat="45.037635" lon="7.9931517"><ele>245.75</ele><time>2026-04-12T12:56:33.874Z</time></trkpt><trkpt lat="45.0375883" lon="7.9929617"><ele>246.0</ele><time>2026-04-12T12:56:34.875Z</time></trkpt><trkpt lat="45.0375367" lon="7.992765"><ele>246.0</ele><time>2026-04-12T12:56:35.874Z</time></trkpt><trkpt lat="45.0374917" lon="7.9925517"><ele>246.0</ele><time>2026-04-12T12:56:36.874Z</time></trkpt><trkpt lat="45.0374467" lon="7.9923367"><ele>246.0</ele><time>2026-04-12T12:56:37.875Z</time></trkpt><trkpt lat="45.0373933" lon="7.9921233"><ele>247.0</ele><time>2026-04-12T12:56:38.875Z</time></trkpt><trkpt lat="45.0373533" lon="7.9919067"><ele>248.0</ele><time>2026-04-12T12:56:39.874Z</time></trkpt><trkpt lat="45.0373067" lon="7.9916933"><ele>249.0</ele><time>2026-04-12T12:56:40.874Z</time></trkpt><trkpt lat="45.0372633" lon="7.991485"><ele>250.75</ele><time>2026-04-12T12:56:41.875Z</time></trkpt><trkpt lat="45.03722" lon="7.9912767"><ele>252.5</ele><time>2026-04-12T12:56:42.874Z</time></trkpt><trkpt lat="45.0371717" lon="7.9910717"><ele>254.25</ele><time>2026-04-12T12:56:43.874Z</time></trkpt><trkpt lat="45.03716" lon="7.9908817"><ele>256.0</ele><time>2026-04-12T12:56:44.875Z</time></trkpt><trkpt lat="45.0371817" lon="7.9906767"><ele>258.0</ele><time>2026-04-12T12:56:45.875Z</time></trkpt><trkpt lat="45.0372367" lon="7.9904933"><ele>260.0</ele><time>2026-04-12T12:56:46.875Z</time></trkpt><trkpt lat="45.03731" lon="7.990295"><ele>262.0</ele><time>2026-04-12T12:56:47.875Z</time></trkpt><trkpt lat="45.0373917" lon="7.9900917"><ele>260.0</ele><time>2026-04-12T12:56:48.874Z</time></trkpt><trkpt lat="45.0374783" lon="7.9898933"><ele>258.0</ele><time>2026-04-12T12:56:49.875Z</time></trkpt><trkpt lat="45.037565" lon="7.9896833"><ele>256.0</ele><time>2026-04-12T12:56:50.875Z</time></trkpt><trkpt lat="45.0376567" lon="7.989485"><ele>256.0</ele><time>2026-04-12T12:56:51.875Z</time></trkpt><trkpt lat="45.0377417" lon="7.9892783"><ele>256.0</ele><time>2026-04-12T12:56:52.875Z</time></trkpt><trkpt lat="45.0378317" lon="7.9890833"><ele>256.0</ele><time>2026-04-12T12:56:53.874Z</time></trkpt><trkpt lat="45.037945" lon="7.9889083"><ele>258.3333333333333</ele><time>2026-04-12T12:56:54.874Z</time></trkpt><trkpt lat="45.0380583" lon="7.9887383"><ele>260.6666666666667</ele><time>2026-04-12T12:56:55.875Z</time></trkpt><trkpt lat="45.0381917" lon="7.9886017"><ele>263.0</ele><time>2026-04-12T12:56:56.874Z</time></trkpt><trkpt lat="45.0383267" lon="7.98847"><ele>263.0</ele><time>2026-04-12T12:56:57.875Z</time></trkpt><trkpt lat="45.0384717" lon="7.9883583"><ele>263.0</ele><time>2026-04-12T12:56:58.874Z</time></trkpt><trkpt lat="45.0386267" lon="7.9882717"><ele>263.0</ele><time>2026-04-12T12:56:59.875Z</time></trkpt><trkpt lat="45.0387817" lon="7.988205"><ele>262.6666666666667</ele><time>2026-04-12T12:57:00.874Z</time></trkpt><trkpt lat="45.03893" lon="7.9881467"><ele>262.3333333333333</ele><time>2026-04-12T12:57:01.875Z</time></trkpt><trkpt lat="45.0390917" lon="7.98808"><ele>262.0</ele><time>2026-04-12T12:57:02.874Z</time></trkpt><trkpt lat="45.03925" lon="7.988005"><ele>262.0</ele><time>2026-04-12T12:57:03.874Z</time></trkpt><trkpt lat="45.0393967" lon="7.98792"><ele>262.0</ele><time>2026-04-12T12:57:04.874Z</time></trkpt><trkpt lat="45.0395417" lon="7.987815"><ele>262.0</ele><time>2026-04-12T12:57:05.875Z</time></trkpt><trkpt lat="45.0396833" lon="7.987675"><ele>262.0</ele><time>2026-04-12T12:57:06.874Z</time></trkpt><trkpt lat="45.0398217" lon="7.9875433"><ele>262.0</ele><time>2026-04-12T12:57:07.874Z</time></trkpt><trkpt lat="45.0399567" lon="7.9874017"><ele>262.0</ele><time>2026-04-12T12:57:08.875Z</time></trkpt><trkpt lat="45.040085" lon="7.9872717"><ele>263.3333333333333</ele><time>2026-04-12T12:57:09.874Z</time></trkpt><trkpt lat="45.0402017" lon="7.9871367"><ele>264.6666666666667</ele><time>2026-04-12T12:57:10.874Z</time></trkpt><trkpt lat="45.0403167" lon="7.9869733"><ele>266.0</ele><time>2026-04-12T12:57:11.874Z</time></trkpt><trkpt lat="45.0403983" lon="7.9867783"><ele>264.33333333333337</ele><time>2026-04-12T12:57:12.875Z</time></trkpt><trkpt lat="45.040475" lon="7.9865733"><ele>262.6666666666667</ele><time>2026-04-12T12:57:13.874Z</time></trkpt><trkpt lat="45.040535" lon="7.9863717"><ele>261.0</ele><time>2026-04-12T12:57:14.875Z</time></trkpt><trkpt lat="45.0406167" lon="7.9861767"><ele>261.0</ele><time>2026-04-12T12:57:15.875Z</time></trkpt><trkpt lat="45.04071" lon="7.9859767"><ele>261.0</ele><time>2026-04-12T12:57:16.874Z</time></trkpt><trkpt lat="45.0407917" lon="7.9857717"><ele>261.0</ele><time>2026-04-12T12:57:17.874Z</time></trkpt><trkpt lat="45.04088" lon="7.9855833"><ele>262.3333333333333</ele><time>2026-04-12T12:57:18.874Z</time></trkpt><trkpt lat="45.0409767" lon="7.9853883"><ele>263.66666666666663</ele><time>2026-04-12T12:57:19.875Z</time></trkpt><trkpt lat="45.0410733" lon="7.985195"><ele>265.0</ele><time>2026-04-12T12:57:20.874Z</time></trkpt><trkpt lat="45.04116" lon="7.9849933"><ele>266.3333333333333</ele><time>2026-04-12T12:57:21.874Z</time></trkpt><trkpt lat="45.0412433" lon="7.9848"><ele>267.6666666666667</ele><time>2026-04-12T12:57:22.875Z</time></trkpt><trkpt lat="45.041335" lon="7.9846183"><ele>269.0</ele><time>2026-04-12T12:57:23.875Z</time></trkpt><trkpt lat="45.0414383" lon="7.9844567"><ele>269.0</ele><time>2026-04-12T12:57:24.874Z</time></trkpt><trkpt lat="45.0415433" lon="7.9843"><ele>269.0</ele><time>2026-04-12T12:57:25.874Z</time></trkpt><trkpt lat="45.041645" lon="7.9841233"><ele>269.0</ele><time>2026-04-12T12:57:26.874Z</time></trkpt><trkpt lat="45.041745" lon="7.9839617"><ele>269.0</ele><time>2026-04-12T12:57:27.874Z</time></trkpt><trkpt lat="45.04184" lon="7.98379"><ele>269.0</ele><time>2026-04-12T12:57:28.875Z</time></trkpt><trkpt lat="45.0419267" lon="7.9836183"><ele>269.0</ele><time>2026-04-12T12:57:29.875Z</time></trkpt><trkpt lat="45.0420067" lon="7.9834417"><ele>269.5</ele><time>2026-04-12T12:57:30.874Z</time></trkpt><trkpt lat="45.0420717" lon="7.9832567"><ele>270.0</ele><time>2026-04-12T12:57:31.874Z</time></trkpt><trkpt lat="45.04211" lon="7.9830467"><ele>270.5</ele><time>2026-04-12T12:57:32.874Z</time></trkpt><trkpt lat="45.04212" lon="7.982835"><ele>271.0</ele><time>2026-04-12T12:57:33.875Z</time></trkpt><trkpt lat="45.0421217" lon="7.9826267"><ele>275.66666666666663</ele><time>2026-04-12T12:57:34.875Z</time></trkpt><trkpt lat="45.0420933" lon="7.98243"><ele>280.3333333333333</ele><time>2026-04-12T12:57:35.875Z</time></trkpt><trkpt lat="45.0420317" lon="7.9822317"><ele>285.0</ele><time>2026-04-12T12:57:36.875Z</time></trkpt><trkpt lat="45.041965" lon="7.9820333"><ele>285.0</ele><time>2026-04-12T12:57:37.874Z</time></trkpt><trkpt lat="45.0418933" lon="7.9818567"><ele>285.0</ele><time>2026-04-12T12:57:38.875Z</time></trkpt><trkpt lat="45.0418283" lon="7.9817067"><ele>285.0</ele><time>2026-04-12T12:57:39.874Z</time></trkpt><trkpt lat="45.0418067" lon="7.9815867"><ele>285.0</ele><time>2026-04-12T12:57:40.875Z</time></trkpt><trkpt lat="45.0417517" lon="7.9814333"><ele>285.0</ele><time>2026-04-12T12:57:41.874Z</time></trkpt><trkpt lat="45.041695" lon="7.98129"><ele>285.0</ele><time>2026-04-12T12:57:42.874Z</time></trkpt><trkpt lat="45.04165" lon="7.9811117"><ele>285.0</ele><time>2026-04-12T12:57:43.875Z</time></trkpt><trkpt lat="45.04154" lon="7.9806717"><ele>285.0</ele><time>2026-04-12T12:57:44.874Z</time></trkpt><trkpt lat="45.0414567" lon="7.9803583"><ele>285.0</ele><time>2026-04-12T12:57:45.874Z</time></trkpt><trkpt lat="45.0413683" lon="7.98011"><ele>285.0</ele><time>2026-04-12T12:57:46.874Z</time></trkpt><trkpt lat="45.04132" lon="7.979895"><ele>282.4</ele><time>2026-04-12T12:57:47.874Z</time></trkpt><trkpt lat="45.0413017" lon="7.97975"><ele>279.8</ele><time>2026-04-12T12:57:48.874Z</time></trkpt><trkpt lat="45.0412883" lon="7.9796233"><ele>277.2</ele><time>2026-04-12T12:57:49.874Z</time></trkpt><trkpt lat="45.041285" lon="7.9795067"><ele>274.6</ele><time>2026-04-12T12:57:50.874Z</time></trkpt><trkpt lat="45.0412783" lon="7.9794167"><ele>272.0</ele><time>2026-04-12T12:57:51.874Z</time></trkpt><trkpt lat="45.04119" lon="7.9795567"><ele>272.0</ele><time>2026-04-12T12:57:55.874Z</time></trkpt><trkpt lat="45.0411733" lon="7.9796817"><ele>272.0</ele><time>2026-04-12T12:57:56.874Z</time></trkpt><trkpt lat="45.0411767" lon="7.9798217"><ele>272.0</ele><time>2026-04-12T12:57:57.875Z</time></trkpt><trkpt lat="45.0411933" lon="7.979955"><ele>272.0</ele><time>2026-04-12T12:57:58.874Z</time></trkpt><trkpt lat="45.0412117" lon="7.9801017"><ele>272.0</ele><time>2026-04-12T12:57:59.875Z</time></trkpt><trkpt lat="45.0412267" lon="7.9802567"><ele>274.6</ele><time>2026-04-12T12:58:00.874Z</time></trkpt><trkpt lat="45.0412483" lon="7.9804133"><ele>277.2</ele><time>2026-04-12T12:58:01.874Z</time></trkpt><trkpt lat="45.0412717" lon="7.9805583"><ele>279.8</ele><time>2026-04-12T12:58:02.875Z</time></trkpt><trkpt lat="45.0413067" lon="7.9807"><ele>282.4</ele><time>2026-04-12T12:58:03.874Z</time></trkpt><trkpt lat="45.0413333" lon="7.9808583"><ele>285.0</ele><time>2026-04-12T12:58:04.874Z</time></trkpt><trkpt lat="45.0413667" lon="7.9810183"><ele>287.5</ele><time>2026-04-12T12:58:05.875Z</time></trkpt><trkpt lat="45.04141" lon="7.981175"><ele>290.0</ele><time>2026-04-12T12:58:06.875Z</time></trkpt><trkpt lat="45.0414567" lon="7.9813233"><ele>292.5</ele><time>2026-04-12T12:58:07.874Z</time></trkpt><trkpt lat="45.04151" lon="7.9814533"><ele>295.0</ele><time>2026-04-12T12:58:08.874Z</time></trkpt><trkpt lat="45.0415467" lon="7.9816067"><ele>295.25</ele><time>2026-04-12T12:58:09.875Z</time></trkpt><trkpt lat="45.0415667" lon="7.9817767"><ele>295.5</ele><time>2026-04-12T12:58:10.874Z</time></trkpt><trkpt lat="45.0415483" lon="7.9819483"><ele>295.75</ele><time>2026-04-12T12:58:11.874Z</time></trkpt><trkpt lat="45.0415117" lon="7.9821233"><ele>296.0</ele><time>2026-04-12T12:58:12.875Z</time></trkpt><trkpt lat="45.04148" lon="7.98227"><ele>296.0</ele><time>2026-04-12T12:58:13.874Z</time></trkpt><trkpt lat="45.041395" lon="7.98245"><ele>296.0</ele><time>2026-04-12T12:58:14.875Z</time></trkpt><trkpt lat="45.0413233" lon="7.9826"><ele>296.0</ele><time>2026-04-12T12:58:15.875Z</time></trkpt><trkpt lat="45.0412383" lon="7.9827417"><ele>296.0</ele><time>2026-04-12T12:58:16.874Z</time></trkpt><trkpt lat="45.0411383" lon="7.9828867"><ele>295.25</ele><time>2026-04-12T12:58:17.874Z</time></trkpt><trkpt lat="45.0410217" lon="7.9830083"><ele>294.5</ele><time>2026-04-12T12:58:18.875Z</time></trkpt><trkpt lat="45.04089" lon="7.983105"><ele>293.75</ele><time>2026-04-12T12:58:19.875Z</time></trkpt><trkpt lat="45.0407467" lon="7.983165"><ele>293.0</ele><time>2026-04-12T12:58:20.874Z</time></trkpt><trkpt lat="45.0406083" lon="7.983195"><ele>293.5</ele><time>2026-04-12T12:58:21.875Z</time></trkpt><trkpt lat="45.0404867" lon="7.98324"><ele>294.0</ele><time>2026-04-12T12:58:22.874Z</time></trkpt><trkpt lat="45.0403617" lon="7.98332"><ele>294.5</ele><time>2026-04-12T12:58:23.875Z</time></trkpt><trkpt lat="45.0402317" lon="7.9834017"><ele>295.0</ele><time>2026-04-12T12:58:24.874Z</time></trkpt><trkpt lat="45.0401033" lon="7.98351"><ele>295.0</ele><time>2026-04-12T12:58:25.874Z</time></trkpt><trkpt lat="45.039975" lon="7.9836183"><ele>295.0</ele><time>2026-04-12T12:58:26.874Z</time></trkpt><trkpt lat="45.03984" lon="7.9837383"><ele>295.0</ele><time>2026-04-12T12:58:27.874Z</time></trkpt><trkpt lat="45.0397067" lon="7.9838483"><ele>295.0</ele><time>2026-04-12T12:58:28.874Z</time></trkpt><trkpt lat="45.0395683" lon="7.9839733"><ele>295.0</ele><time>2026-04-12T12:58:29.874Z</time></trkpt><trkpt lat="45.039425" lon="7.9840933"><ele>295.0</ele><time>2026-04-12T12:58:30.875Z</time></trkpt><trkpt lat="45.0392767" lon="7.9842033"><ele>293.0</ele><time>2026-04-12T12:58:31.875Z</time></trkpt><trkpt lat="45.03913" lon="7.9842967"><ele>291.0</ele><time>2026-04-12T12:58:32.875Z</time></trkpt><trkpt lat="45.0389867" lon="7.9843917"><ele>289.0</ele><time>2026-04-12T12:58:33.874Z</time></trkpt><trkpt lat="45.0388467" lon="7.9844817"><ele>289.0</ele><time>2026-04-12T12:58:34.875Z</time></trkpt><trkpt lat="45.0387067" lon="7.98458"><ele>289.0</ele><time>2026-04-12T12:58:35.875Z</time></trkpt><trkpt lat="45.0385767" lon="7.9846983"><ele>289.0</ele><time>2026-04-12T12:58:36.875Z</time></trkpt><trkpt lat="45.0384583" lon="7.9848117"><ele>289.0</ele><time>2026-04-12T12:58:37.874Z</time></trkpt><trkpt lat="45.038325" lon="7.9849383"><ele>289.0</ele><time>2026-04-12T12:58:38.874Z</time></trkpt><trkpt lat="45.0382033" lon="7.985025"><ele>289.0</ele><time>2026-04-12T12:58:39.875Z</time></trkpt><trkpt lat="45.0380683" lon="7.98508"><ele>289.0</ele><time>2026-04-12T12:58:40.875Z</time></trkpt><trkpt lat="45.0379317" lon="7.9850983"><ele>289.75</ele><time>2026-04-12T12:58:41.874Z</time></trkpt><trkpt lat="45.03779" lon="7.9851017"><ele>290.5</ele><time>2026-04-12T12:58:42.875Z</time></trkpt><trkpt lat="45.037645" lon="7.9851167"><ele>291.25</ele><time>2026-04-12T12:58:43.874Z</time></trkpt><trkpt lat="45.0374967" lon="7.9851733"><ele>292.0</ele><time>2026-04-12T12:58:44.875Z</time></trkpt><trkpt lat="45.03736" lon="7.98527"><ele>292.0</ele><time>2026-04-12T12:58:45.875Z</time></trkpt><trkpt lat="45.0372467" lon="7.985395"><ele>292.0</ele><time>2026-04-12T12:58:46.875Z</time></trkpt><trkpt lat="45.0371333" lon="7.98552"><ele>292.0</ele><time>2026-04-12T12:58:47.874Z</time></trkpt><trkpt lat="45.0370017" lon="7.9856333"><ele>292.0</ele><time>2026-04-12T12:58:48.874Z</time></trkpt><trkpt lat="45.036865" lon="7.9856983"><ele>292.0</ele><time>2026-04-12T12:58:49.874Z</time></trkpt><trkpt lat="45.036705" lon="7.98571"><ele>292.0</ele><time>2026-04-12T12:58:50.874Z</time></trkpt><trkpt lat="45.0365417" lon="7.9857183"><ele>292.0</ele><time>2026-04-12T12:58:51.874Z</time></trkpt><trkpt lat="45.0363717" lon="7.9857133"><ele>290.0</ele><time>2026-04-12T12:58:52.875Z</time></trkpt><trkpt lat="45.036215" lon="7.9857233"><ele>288.0</ele><time>2026-04-12T12:58:53.874Z</time></trkpt><trkpt lat="45.0360617" lon="7.9856983"><ele>286.0</ele><time>2026-04-12T12:58:54.874Z</time></trkpt><trkpt lat="45.0359167" lon="7.9856367"><ele>284.0</ele><time>2026-04-12T12:58:55.874Z</time></trkpt><trkpt lat="45.0357933" lon="7.98552"><ele>282.0</ele><time>2026-04-12T12:58:56.874Z</time></trkpt><trkpt lat="45.0356817" lon="7.9853717"><ele>280.0</ele><time>2026-04-12T12:58:57.875Z</time></trkpt><trkpt lat="45.0355933" lon="7.9852117"><ele>278.0</ele><time>2026-04-12T12:58:58.875Z</time></trkpt><trkpt lat="45.03551" lon="7.98507"><ele>278.75</ele><time>2026-04-12T12:58:59.874Z</time></trkpt><trkpt lat="45.0353983" lon="7.984985"><ele>279.5</ele><time>2026-04-12T12:59:00.874Z</time></trkpt><trkpt lat="45.03527" lon="7.984915"><ele>280.25</ele><time>2026-04-12T12:59:01.874Z</time></trkpt><trkpt lat="45.0351217" lon="7.9848467"><ele>281.0</ele><time>2026-04-12T12:59:02.874Z</time></trkpt><trkpt lat="45.0349667" lon="7.9847917"><ele>282.0</ele><time>2026-04-12T12:59:03.875Z</time></trkpt><trkpt lat="45.03482" lon="7.984755"><ele>283.0</ele><time>2026-04-12T12:59:04.874Z</time></trkpt><trkpt lat="45.0346633" lon="7.984785"><ele>284.0</ele><time>2026-04-12T12:59:05.875Z</time></trkpt><trkpt lat="45.034515" lon="7.9848633"><ele>284.0</ele><time>2026-04-12T12:59:06.874Z</time></trkpt><trkpt lat="45.0343717" lon="7.98495"><ele>284.0</ele><time>2026-04-12T12:59:07.874Z</time></trkpt><trkpt lat="45.0342417" lon="7.9850317"><ele>284.0</ele><time>2026-04-12T12:59:08.875Z</time></trkpt><trkpt lat="45.0340933" lon="7.9850867"><ele>280.6666666666667</ele><time>2026-04-12T12:59:09.874Z</time></trkpt><trkpt lat="45.033935" lon="7.9851067"><ele>277.3333333333333</ele><time>2026-04-12T12:59:10.874Z</time></trkpt><trkpt lat="45.0337733" lon="7.98509"><ele>274.0</ele><time>2026-04-12T12:59:11.874Z</time></trkpt><trkpt lat="45.0336033" lon="7.9850333"><ele>273.3333333333333</ele><time>2026-04-12T12:59:12.874Z</time></trkpt><trkpt lat="45.0334367" lon="7.9849467"><ele>272.6666666666667</ele><time>2026-04-12T12:59:13.875Z</time></trkpt><trkpt lat="45.0332883" lon="7.984825"><ele>272.0</ele><time>2026-04-12T12:59:14.875Z</time></trkpt><trkpt lat="45.0331583" lon="7.9846933"><ele>272.0</ele><time>2026-04-12T12:59:15.874Z</time></trkpt><trkpt lat="45.0330367" lon="7.98458"><ele>272.0</ele><time>2026-04-12T12:59:16.875Z</time></trkpt><trkpt lat="45.0329017" lon="7.98448"><ele>272.0</ele><time>2026-04-12T12:59:17.874Z</time></trkpt><trkpt lat="45.0327567" lon="7.9844333"><ele>272.0</ele><time>2026-04-12T12:59:18.874Z</time></trkpt><trkpt lat="45.0325983" lon="7.9844267"><ele>272.0</ele><time>2026-04-12T12:59:19.875Z</time></trkpt><trkpt lat="45.03243" lon="7.9844583"><ele>272.0</ele><time>2026-04-12T12:59:20.875Z</time></trkpt><trkpt lat="45.0322617" lon="7.9845033"><ele>272.0</ele><time>2026-04-12T12:59:21.874Z</time></trkpt><trkpt lat="45.0321033" lon="7.9845633"><ele>272.0</ele><time>2026-04-12T12:59:22.875Z</time></trkpt><trkpt lat="45.0319617" lon="7.984655"><ele>272.0</ele><time>2026-04-12T12:59:23.874Z</time></trkpt><trkpt lat="45.0318383" lon="7.9847817"><ele>272.0</ele><time>2026-04-12T12:59:24.874Z</time></trkpt><trkpt lat="45.03171" lon="7.98492"><ele>271.6666666666667</ele><time>2026-04-12T12:59:25.874Z</time></trkpt><trkpt lat="45.0315733" lon="7.9850633"><ele>271.3333333333333</ele><time>2026-04-12T12:59:26.874Z</time></trkpt><trkpt lat="45.0314317" lon="7.985195"><ele>271.0</ele><time>2026-04-12T12:59:27.874Z</time></trkpt><trkpt lat="45.0312933" lon="7.98532"><ele>271.0</ele><time>2026-04-12T12:59:28.875Z</time></trkpt><trkpt lat="45.0311533" lon="7.98544"><ele>271.0</ele><time>2026-04-12T12:59:29.875Z</time></trkpt><trkpt lat="45.031025" lon="7.985555"><ele>271.0</ele><time>2026-04-12T12:59:30.874Z</time></trkpt><trkpt lat="45.0308983" lon="7.9856967"><ele>271.75</ele><time>2026-04-12T12:59:31.875Z</time></trkpt><trkpt lat="45.0307983" lon="7.9858483"><ele>272.5</ele><time>2026-04-12T12:59:32.874Z</time></trkpt><trkpt lat="45.0307117" lon="7.98601"><ele>273.25</ele><time>2026-04-12T12:59:33.875Z</time></trkpt><trkpt lat="45.0306283" lon="7.986175"><ele>274.0</ele><time>2026-04-12T12:59:34.875Z</time></trkpt><trkpt lat="45.03054" lon="7.9863183"><ele>274.0</ele><time>2026-04-12T12:59:35.874Z</time></trkpt><trkpt lat="45.030435" lon="7.9864417"><ele>274.0</ele><time>2026-04-12T12:59:36.874Z</time></trkpt><trkpt lat="45.0303117" lon="7.9865283"><ele>274.0</ele><time>2026-04-12T12:59:37.874Z</time></trkpt><trkpt lat="45.0301817" lon="7.986575"><ele>274.0</ele><time>2026-04-12T12:59:38.875Z</time></trkpt><trkpt lat="45.0300567" lon="7.9866467"><ele>272.66666666666663</ele><time>2026-04-12T12:59:39.875Z</time></trkpt><trkpt lat="45.0299283" lon="7.9867283"><ele>271.3333333333333</ele><time>2026-04-12T12:59:40.875Z</time></trkpt><trkpt lat="45.0297767" lon="7.9868317"><ele>270.0</ele><time>2026-04-12T12:59:41.874Z</time></trkpt><trkpt lat="45.02963" lon="7.9869533"><ele>270.0</ele><time>2026-04-12T12:59:42.875Z</time></trkpt><trkpt lat="45.02948" lon="7.9870517"><ele>270.0</ele><time>2026-04-12T12:59:43.874Z</time></trkpt><trkpt lat="45.02933" lon="7.9871133"><ele>270.0</ele><time>2026-04-12T12:59:44.875Z</time></trkpt><trkpt lat="45.0291717" lon="7.9871717"><ele>270.3333333333333</ele><time>2026-04-12T12:59:45.874Z</time></trkpt><trkpt lat="45.029" lon="7.98721"><ele>270.66666666666663</ele><time>2026-04-12T12:59:46.875Z</time></trkpt><trkpt lat="45.028835" lon="7.9872383"><ele>271.0</ele><time>2026-04-12T12:59:47.874Z</time></trkpt><trkpt lat="45.0286717" lon="7.9872583"><ele>271.0</ele><time>2026-04-12T12:59:48.875Z</time></trkpt><trkpt lat="45.0285083" lon="7.987265"><ele>271.0</ele><time>2026-04-12T12:59:49.875Z</time></trkpt><trkpt lat="45.0283517" lon="7.9872517"><ele>271.0</ele><time>2026-04-12T12:59:50.875Z</time></trkpt><trkpt lat="45.0281967" lon="7.9872217"><ele>269.0</ele><time>2026-04-12T12:59:51.874Z</time></trkpt><trkpt lat="45.028035" lon="7.98716"><ele>267.0</ele><time>2026-04-12T12:59:52.874Z</time></trkpt><trkpt lat="45.02787" lon="7.9870833"><ele>265.0</ele><time>2026-04-12T12:59:53.874Z</time></trkpt><trkpt lat="45.0277167" lon="7.986995"><ele>265.0</ele><time>2026-04-12T12:59:54.875Z</time></trkpt><trkpt lat="45.027555" lon="7.986915"><ele>265.0</ele><time>2026-04-12T12:59:55.874Z</time></trkpt><trkpt lat="45.0273867" lon="7.98685"><ele>265.0</ele><time>2026-04-12T12:59:56.875Z</time></trkpt><trkpt lat="45.02722" lon="7.98682"><ele>265.0</ele><time>2026-04-12T12:59:57.874Z</time></trkpt><trkpt lat="45.027065" lon="7.9868383"><ele>265.0</ele><time>2026-04-12T12:59:58.874Z</time></trkpt><trkpt lat="45.0269083" lon="7.9868767"><ele>265.0</ele><time>2026-04-12T12:59:59.874Z</time></trkpt><trkpt lat="45.0267583" lon="7.9869433"><ele>267.3333333333333</ele><time>2026-04-12T13:00:00.874Z</time></trkpt><trkpt lat="45.02661" lon="7.9870267"><ele>269.6666666666667</ele><time>2026-04-12T13:00:01.874Z</time></trkpt><trkpt lat="45.0264617" lon="7.9871117"><ele>272.0</ele><time>2026-04-12T13:00:02.874Z</time></trkpt><trkpt lat="45.02631" lon="7.98721"><ele>272.0</ele><time>2026-04-12T13:00:03.875Z</time></trkpt><trkpt lat="45.0261717" lon="7.9873067"><ele>272.0</ele><time>2026-04-12T13:00:04.875Z</time></trkpt><trkpt lat="45.02603" lon="7.9874217"><ele>272.0</ele><time>2026-04-12T13:00:05.874Z</time></trkpt><trkpt lat="45.0258983" lon="7.987555"><ele>274.33333333333337</ele><time>2026-04-12T13:00:06.874Z</time></trkpt><trkpt lat="45.025775" lon="7.98771"><ele>276.6666666666667</ele><time>2026-04-12T13:00:07.875Z</time></trkpt><trkpt lat="45.0256583" lon="7.98788"><ele>279.0</ele><time>2026-04-12T13:00:08.874Z</time></trkpt><trkpt lat="45.0255633" lon="7.988065"><ele>279.0</ele><time>2026-04-12T13:00:09.874Z</time></trkpt><trkpt lat="45.0254733" lon="7.9882617"><ele>279.0</ele><time>2026-04-12T13:00:10.874Z</time></trkpt><trkpt lat="45.0253817" lon="7.9884467"><ele>279.0</ele><time>2026-04-12T13:00:11.875Z</time></trkpt><trkpt lat="45.0252717" lon="7.9886183"><ele>276.0</ele><time>2026-04-12T13:00:12.875Z</time></trkpt><trkpt lat="45.0251433" lon="7.9887633"><ele>273.0</ele><time>2026-04-12T13:00:13.875Z</time></trkpt><trkpt lat="45.0250067" lon="7.9888867"><ele>270.0</ele><time>2026-04-12T13:00:14.874Z</time></trkpt><trkpt lat="45.0248667" lon="7.98899"><ele>269.0</ele><time>2026-04-12T13:00:15.874Z</time></trkpt><trkpt lat="45.02472" lon="7.989085"><ele>268.0</ele><time>2026-04-12T13:00:16.874Z</time></trkpt><trkpt lat="45.0245883" lon="7.989155"><ele>267.0</ele><time>2026-04-12T13:00:17.874Z</time></trkpt><trkpt lat="45.0244633" lon="7.9891933"><ele>266.0</ele><time>2026-04-12T13:00:18.875Z</time></trkpt><trkpt lat="45.0243517" lon="7.989165"><ele>266.0</ele><time>2026-04-12T13:00:19.874Z</time></trkpt><trkpt lat="45.0242317" lon="7.98909"><ele>266.0</ele><time>2026-04-12T13:00:20.875Z</time></trkpt><trkpt lat="45.0241067" lon="7.9889567"><ele>266.0</ele><time>2026-04-12T13:00:21.874Z</time></trkpt><trkpt lat="45.0239817" lon="7.9888217"><ele>266.0</ele><time>2026-04-12T13:00:22.875Z</time></trkpt><trkpt lat="45.0238517" lon="7.9886917"><ele>260.6666666666667</ele><time>2026-04-12T13:00:23.874Z</time></trkpt><trkpt lat="45.0237" lon="7.9885933"><ele>255.33333333333331</ele><time>2026-04-12T13:00:24.874Z</time></trkpt><trkpt lat="45.023545" lon="7.9885167"><ele>250.0</ele><time>2026-04-12T13:00:25.875Z</time></trkpt><trkpt lat="45.0233983" lon="7.9884283"><ele>248.66666666666666</ele><time>2026-04-12T13:00:26.874Z</time></trkpt><trkpt lat="45.02325" lon="7.988345"><ele>247.33333333333331</ele><time>2026-04-12T13:00:27.874Z</time></trkpt><trkpt lat="45.0230983" lon="7.988255"><ele>246.0</ele><time>2026-04-12T13:00:28.875Z</time></trkpt><trkpt lat="45.0229567" lon="7.9881633"><ele>249.25</ele><time>2026-04-12T13:00:29.874Z</time></trkpt><trkpt lat="45.0228167" lon="7.988065"><ele>252.5</ele><time>2026-04-12T13:00:30.875Z</time></trkpt><trkpt lat="45.0226833" lon="7.9879683"><ele>255.75</ele><time>2026-04-12T13:00:31.874Z</time></trkpt><trkpt lat="45.0225533" lon="7.987885"><ele>259.0</ele><time>2026-04-12T13:00:32.874Z</time></trkpt><trkpt lat="45.02242" lon="7.9878167"><ele>260.75</ele><time>2026-04-12T13:00:33.875Z</time></trkpt><trkpt lat="45.0222917" lon="7.98776"><ele>262.5</ele><time>2026-04-12T13:00:34.875Z</time></trkpt><trkpt lat="45.0221717" lon="7.9877333"><ele>264.25</ele><time>2026-04-12T13:00:35.874Z</time></trkpt><trkpt lat="45.0220467" lon="7.9877167"><ele>266.0</ele><time>2026-04-12T13:00:36.875Z</time></trkpt><trkpt lat="45.021915" lon="7.9877533"><ele>266.0</ele><time>2026-04-12T13:00:37.874Z</time></trkpt><trkpt lat="45.02179" lon="7.98781"><ele>266.0</ele><time>2026-04-12T13:00:38.875Z</time></trkpt><trkpt lat="45.0216683" lon="7.9878783"><ele>266.0</ele><time>2026-04-12T13:00:39.874Z</time></trkpt><trkpt lat="45.0215383" lon="7.987945"><ele>266.0</ele><time>2026-04-12T13:00:40.874Z</time></trkpt><trkpt lat="45.0214167" lon="7.9879967"><ele>268.0</ele><time>2026-04-12T13:00:41.874Z</time></trkpt><trkpt lat="45.0212883" lon="7.988035"><ele>270.0</ele><time>2026-04-12T13:00:42.875Z</time></trkpt><trkpt lat="45.0211633" lon="7.9880733"><ele>272.0</ele><time>2026-04-12T13:00:43.875Z</time></trkpt><trkpt lat="45.0210333" lon="7.9881017"><ele>274.0</ele><time>2026-04-12T13:00:44.874Z</time></trkpt><trkpt lat="45.0209" lon="7.9880817"><ele>274.25</ele><time>2026-04-12T13:00:45.874Z</time></trkpt><trkpt lat="45.0207633" lon="7.988035"><ele>274.5</ele><time>2026-04-12T13:00:46.875Z</time></trkpt><trkpt lat="45.020625" lon="7.98797"><ele>274.75</ele><time>2026-04-12T13:00:47.875Z</time></trkpt><trkpt lat="45.02049" lon="7.98792"><ele>275.0</ele><time>2026-04-12T13:00:48.875Z</time></trkpt><trkpt lat="45.02034" lon="7.9878633"><ele>275.0</ele><time>2026-04-12T13:00:49.875Z</time></trkpt><trkpt lat="45.0202033" lon="7.9878"><ele>275.0</ele><time>2026-04-12T13:00:50.874Z</time></trkpt><trkpt lat="45.0200783" lon="7.9877483"><ele>275.0</ele><time>2026-04-12T13:00:51.874Z</time></trkpt><trkpt lat="45.0199367" lon="7.9876867"><ele>275.0</ele><time>2026-04-12T13:00:52.874Z</time></trkpt><trkpt lat="45.0197933" lon="7.9876383"><ele>274.6666666666667</ele><time>2026-04-12T13:00:53.874Z</time></trkpt><trkpt lat="45.0196417" lon="7.9876433"><ele>274.3333333333333</ele><time>2026-04-12T13:00:54.875Z</time></trkpt><trkpt lat="45.0194883" lon="7.98769"><ele>274.0</ele><time>2026-04-12T13:00:55.875Z</time></trkpt><trkpt lat="45.0193433" lon="7.98777"><ele>274.0</ele><time>2026-04-12T13:00:56.875Z</time></trkpt><trkpt lat="45.01921" lon="7.9878867"><ele>274.0</ele><time>2026-04-12T13:00:57.875Z</time></trkpt><trkpt lat="45.0190867" lon="7.9880083"><ele>274.0</ele><time>2026-04-12T13:00:58.874Z</time></trkpt><trkpt lat="45.018975" lon="7.9881533"><ele>274.3333333333333</ele><time>2026-04-12T13:00:59.874Z</time></trkpt><trkpt lat="45.0188667" lon="7.9883233"><ele>274.6666666666667</ele><time>2026-04-12T13:01:00.875Z</time></trkpt><trkpt lat="45.018785" lon="7.9885167"><ele>275.0</ele><time>2026-04-12T13:01:01.874Z</time></trkpt><trkpt lat="45.0187167" lon="7.9887333"><ele>275.0</ele><time>2026-04-12T13:01:02.875Z</time></trkpt><trkpt lat="45.0186467" lon="7.9889567"><ele>275.0</ele><time>2026-04-12T13:01:03.875Z</time></trkpt><trkpt lat="45.0185833" lon="7.98917"><ele>275.0</ele><time>2026-04-12T13:01:04.875Z</time></trkpt><trkpt lat="45.0185133" lon="7.989375"><ele>273.33333333333337</ele><time>2026-04-12T13:01:05.874Z</time></trkpt><trkpt lat="45.0184467" lon="7.9895983"><ele>271.6666666666667</ele><time>2026-04-12T13:01:06.874Z</time></trkpt><trkpt lat="45.0183683" lon="7.9898083"><ele>270.0</ele><time>2026-04-12T13:01:07.874Z</time></trkpt><trkpt lat="45.01828" lon="7.9900267"><ele>268.0</ele><time>2026-04-12T13:01:08.874Z</time></trkpt><trkpt lat="45.0181983" lon="7.99026"><ele>266.0</ele><time>2026-04-12T13:01:09.874Z</time></trkpt><trkpt lat="45.0181183" lon="7.9904617"><ele>264.0</ele><time>2026-04-12T13:01:10.874Z</time></trkpt><trkpt lat="45.0180333" lon="7.9906517"><ele>264.0</ele><time>2026-04-12T13:01:11.875Z</time></trkpt><trkpt lat="45.01795" lon="7.9908383"><ele>264.0</ele><time>2026-04-12T13:01:12.874Z</time></trkpt><trkpt lat="45.0178633" lon="7.99103"><ele>264.0</ele><time>2026-04-12T13:01:13.874Z</time></trkpt><trkpt lat="45.01777" lon="7.9912183"><ele>264.6666666666667</ele><time>2026-04-12T13:01:14.874Z</time></trkpt><trkpt lat="45.017675" lon="7.9913967"><ele>265.33333333333337</ele><time>2026-04-12T13:01:15.874Z</time></trkpt><trkpt lat="45.0175633" lon="7.9915467"><ele>266.0</ele><time>2026-04-12T13:01:16.874Z</time></trkpt><trkpt lat="45.0174433" lon="7.9916833"><ele>267.33333333333337</ele><time>2026-04-12T13:01:17.874Z</time></trkpt><trkpt lat="45.017315" lon="7.9918117"><ele>268.6666666666667</ele><time>2026-04-12T13:01:18.875Z</time></trkpt><trkpt lat="45.017185" lon="7.991935"><ele>270.0</ele><time>2026-04-12T13:01:19.875Z</time></trkpt><trkpt lat="45.01705" lon="7.9920567"><ele>270.0</ele><time>2026-04-12T13:01:20.875Z</time></trkpt><trkpt lat="45.0169067" lon="7.9921617"><ele>270.0</ele><time>2026-04-12T13:01:21.874Z</time></trkpt><trkpt lat="45.0167633" lon="7.9922767"><ele>270.0</ele><time>2026-04-12T13:01:22.874Z</time></trkpt><trkpt lat="45.016625" lon="7.9923867"><ele>270.0</ele><time>2026-04-12T13:01:23.874Z</time></trkpt><trkpt lat="45.01648" lon="7.9924867"><ele>270.0</ele><time>2026-04-12T13:01:24.875Z</time></trkpt><trkpt lat="45.016345" lon="7.9925733"><ele>270.0</ele><time>2026-04-12T13:01:25.875Z</time></trkpt><trkpt lat="45.0162067" lon="7.99263"><ele>270.0</ele><time>2026-04-12T13:01:26.874Z</time></trkpt><trkpt lat="45.01606" lon="7.9926767"><ele>270.0</ele><time>2026-04-12T13:01:27.874Z</time></trkpt><trkpt lat="45.0159133" lon="7.99271"><ele>270.0</ele><time>2026-04-12T13:01:28.874Z</time></trkpt><trkpt lat="45.015755" lon="7.9927233"><ele>268.6666666666667</ele><time>2026-04-12T13:01:29.874Z</time></trkpt><trkpt lat="45.015605" lon="7.9927317"><ele>267.33333333333337</ele><time>2026-04-12T13:01:30.874Z</time></trkpt><trkpt lat="45.0154483" lon="7.99272"><ele>266.0</ele><time>2026-04-12T13:01:31.874Z</time></trkpt><trkpt lat="45.0152917" lon="7.9927033"><ele>266.0</ele><time>2026-04-12T13:01:32.874Z</time></trkpt><trkpt lat="45.0151383" lon="7.99266"><ele>266.0</ele><time>2026-04-12T13:01:33.875Z</time></trkpt><trkpt lat="45.01498" lon="7.9926067"><ele>266.0</ele><time>2026-04-12T13:01:34.874Z</time></trkpt><trkpt lat="45.0148167" lon="7.9925533"><ele>266.33333333333337</ele><time>2026-04-12T13:01:35.875Z</time></trkpt><trkpt lat="45.014665" lon="7.992495"><ele>266.6666666666667</ele><time>2026-04-12T13:01:36.874Z</time></trkpt><trkpt lat="45.0145083" lon="7.99244"><ele>267.0</ele><time>2026-04-12T13:01:37.874Z</time></trkpt><trkpt lat="45.01435" lon="7.99239"><ele>267.0</ele><time>2026-04-12T13:01:38.875Z</time></trkpt><trkpt lat="45.0141933" lon="7.992345"><ele>267.0</ele><time>2026-04-12T13:01:39.875Z</time></trkpt><trkpt lat="45.0140367" lon="7.9922967"><ele>267.0</ele><time>2026-04-12T13:01:40.875Z</time></trkpt><trkpt lat="45.0138783" lon="7.992245"><ele>265.3333333333333</ele><time>2026-04-12T13:01:41.874Z</time></trkpt><trkpt lat="45.01372" lon="7.9921883"><ele>263.66666666666663</ele><time>2026-04-12T13:01:42.874Z</time></trkpt><trkpt lat="45.0135617" lon="7.992115"><ele>262.0</ele><time>2026-04-12T13:01:43.874Z</time></trkpt><trkpt lat="45.01341" lon="7.992015"><ele>262.66666666666663</ele><time>2026-04-12T13:01:44.874Z</time></trkpt><trkpt lat="45.01327" lon="7.9918667"><ele>263.3333333333333</ele><time>2026-04-12T13:01:45.874Z</time></trkpt><trkpt lat="45.0131467" lon="7.9916983"><ele>264.0</ele><time>2026-04-12T13:01:46.874Z</time></trkpt><trkpt lat="45.0130517" lon="7.991515"><ele>264.0</ele><time>2026-04-12T13:01:47.874Z</time></trkpt><trkpt lat="45.012965" lon="7.9913167"><ele>264.0</ele><time>2026-04-12T13:01:48.874Z</time></trkpt><trkpt lat="45.0128817" lon="7.9911183"><ele>264.0</ele><time>2026-04-12T13:01:49.874Z</time></trkpt><trkpt lat="45.0127933" lon="7.99093"><ele>262.0</ele><time>2026-04-12T13:01:50.875Z</time></trkpt><trkpt lat="45.0126983" lon="7.99075"><ele>260.0</ele><time>2026-04-12T13:01:51.874Z</time></trkpt><trkpt lat="45.0125933" lon="7.99058"><ele>258.0</ele><time>2026-04-12T13:01:52.875Z</time></trkpt><trkpt lat="45.0124733" lon="7.9904283"><ele>257.3333333333333</ele><time>2026-04-12T13:01:53.874Z</time></trkpt><trkpt lat="45.012335" lon="7.990315"><ele>256.66666666666663</ele><time>2026-04-12T13:01:54.874Z</time></trkpt><trkpt lat="45.0121783" lon="7.9902317"><ele>256.0</ele><time>2026-04-12T13:01:55.875Z</time></trkpt><trkpt lat="45.0120183" lon="7.9901667"><ele>256.0</ele><time>2026-04-12T13:01:56.875Z</time></trkpt><trkpt lat="45.0118917" lon="7.9901367"><ele>256.0</ele><time>2026-04-12T13:01:57.874Z</time></trkpt><trkpt lat="45.0117267" lon="7.9900783"><ele>256.0</ele><time>2026-04-12T13:01:58.875Z</time></trkpt><trkpt lat="45.0115683" lon="7.9900233"><ele>254.0</ele><time>2026-04-12T13:01:59.874Z</time></trkpt><trkpt lat="45.011425" lon="7.9899917"><ele>252.0</ele><time>2026-04-12T13:02:00.874Z</time></trkpt><trkpt lat="45.0112783" lon="7.9899817"><ele>250.0</ele><time>2026-04-12T13:02:01.874Z</time></trkpt><trkpt lat="45.0111317" lon="7.989985"><ele>248.0</ele><time>2026-04-12T13:02:02.875Z</time></trkpt><trkpt lat="45.0109817" lon="7.9899683"><ele>248.0</ele><time>2026-04-12T13:02:03.875Z</time></trkpt><trkpt lat="45.010825" lon="7.9899467"><ele>248.0</ele><time>2026-04-12T13:02:04.874Z</time></trkpt><trkpt lat="45.01067" lon="7.9899367"><ele>248.0</ele><time>2026-04-12T13:02:05.874Z</time></trkpt><trkpt lat="45.0105217" lon="7.98992"><ele>247.25</ele><time>2026-04-12T13:02:06.874Z</time></trkpt><trkpt lat="45.0103767" lon="7.9898983"><ele>246.5</ele><time>2026-04-12T13:02:07.875Z</time></trkpt><trkpt lat="45.0102367" lon="7.98987"><ele>245.75</ele><time>2026-04-12T13:02:08.875Z</time></trkpt><trkpt lat="45.0101017" lon="7.9898433"><ele>245.0</ele><time>2026-04-12T13:02:09.875Z</time></trkpt><trkpt lat="45.0099817" lon="7.9898133"><ele>246.16666666666669</ele><time>2026-04-12T13:02:10.875Z</time></trkpt><trkpt lat="45.0098817" lon="7.9897817"><ele>247.33333333333334</ele><time>2026-04-12T13:02:11.875Z</time></trkpt><trkpt lat="45.0098133" lon="7.9897317"><ele>248.5</ele><time>2026-04-12T13:02:12.874Z</time></trkpt><trkpt lat="45.0097717" lon="7.98964"><ele>249.66666666666669</ele><time>2026-04-12T13:02:13.874Z</time></trkpt><trkpt lat="45.0097617" lon="7.9895483"><ele>250.83333333333334</ele><time>2026-04-12T13:02:14.874Z</time></trkpt><trkpt lat="45.0098017" lon="7.9894583"><ele>252.0</ele><time>2026-04-12T13:02:15.875Z</time></trkpt><trkpt lat="45.0099" lon="7.9893767"><ele>249.66666666666669</ele><time>2026-04-12T13:02:16.874Z</time></trkpt><trkpt lat="45.0100367" lon="7.98931"><ele>247.33333333333334</ele><time>2026-04-12T13:02:17.874Z</time></trkpt><trkpt lat="45.0101933" lon="7.989215"><ele>245.0</ele><time>2026-04-12T13:02:18.874Z</time></trkpt><trkpt lat="45.010315" lon="7.9890633"><ele>240.0</ele><time>2026-04-12T13:02:19.874Z</time></trkpt><trkpt lat="45.0103967" lon="7.9888433"><ele>235.0</ele><time>2026-04-12T13:02:20.874Z</time></trkpt><trkpt lat="45.0104183" lon="7.9886083"><ele>230.0</ele><time>2026-04-12T13:02:21.875Z</time></trkpt><trkpt lat="45.0104133" lon="7.98838"><ele>228.25</ele><time>2026-04-12T13:02:22.874Z</time></trkpt><trkpt lat="45.01042" lon="7.98817"><ele>226.5</ele><time>2026-04-12T13:02:23.875Z</time></trkpt><trkpt lat="45.0104317" lon="7.98798"><ele>224.75</ele><time>2026-04-12T13:02:24.875Z</time></trkpt><trkpt lat="45.0104467" lon="7.9878017"><ele>223.0</ele><time>2026-04-12T13:02:25.875Z</time></trkpt><trkpt lat="45.0104783" lon="7.9876217"><ele>221.75</ele><time>2026-04-12T13:02:26.874Z</time></trkpt><trkpt lat="45.0104967" lon="7.9874567"><ele>220.5</ele><time>2026-04-12T13:02:27.874Z</time></trkpt><trkpt lat="45.0105167" lon="7.9872867"><ele>219.25</ele><time>2026-04-12T13:02:28.875Z</time></trkpt><trkpt lat="45.01054" lon="7.9871217"><ele>218.0</ele><time>2026-04-12T13:02:29.874Z</time></trkpt><trkpt lat="45.0105667" lon="7.986965"><ele>218.00000000000003</ele><time>2026-04-12T13:02:30.874Z</time></trkpt><trkpt lat="45.010585" lon="7.986835"><ele>218.0</ele><time>2026-04-12T13:02:31.874Z</time></trkpt><trkpt lat="45.0106" lon="7.9867167"><ele>218.0</ele><time>2026-04-12T13:02:32.875Z</time></trkpt><trkpt lat="45.01061" lon="7.9866033"><ele>218.0</ele><time>2026-04-12T13:02:33.875Z</time></trkpt><trkpt lat="45.0106083" lon="7.9865033"><ele>218.00000000000003</ele><time>2026-04-12T13:02:34.874Z</time></trkpt><trkpt lat="45.0105783" lon="7.986415"><ele>218.0</ele><time>2026-04-12T13:02:35.875Z</time></trkpt><trkpt lat="45.0105267" lon="7.9863283"><ele>217.25</ele><time>2026-04-12T13:02:36.875Z</time></trkpt><trkpt lat="45.0104417" lon="7.9862767"><ele>216.5</ele><time>2026-04-12T13:02:37.874Z</time></trkpt><trkpt lat="45.0103317" lon="7.9862533"><ele>215.75</ele><time>2026-04-12T13:02:38.874Z</time></trkpt><trkpt lat="45.0102083" lon="7.98625"><ele>215.0</ele><time>2026-04-12T13:02:39.874Z</time></trkpt><trkpt lat="45.0100733" lon="7.9862417"><ele>217.5</ele><time>2026-04-12T13:02:40.874Z</time></trkpt><trkpt lat="45.00993" lon="7.9862033"><ele>220.0</ele><time>2026-04-12T13:02:41.874Z</time></trkpt><trkpt lat="45.0098017" lon="7.9861433"><ele>222.5</ele><time>2026-04-12T13:02:42.875Z</time></trkpt><trkpt lat="45.0096633" lon="7.9860817"><ele>225.0</ele><time>2026-04-12T13:02:43.874Z</time></trkpt><trkpt lat="45.0095183" lon="7.98602"><ele>225.0</ele><time>2026-04-12T13:02:44.874Z</time></trkpt><trkpt lat="45.009355" lon="7.98597"><ele>225.0</ele><time>2026-04-12T13:02:45.875Z</time></trkpt><trkpt lat="45.00919" lon="7.9859333"><ele>225.0</ele><time>2026-04-12T13:02:46.874Z</time></trkpt><trkpt lat="45.0090183" lon="7.9859167"><ele>225.66666666666669</ele><time>2026-04-12T13:02:47.874Z</time></trkpt><trkpt lat="45.0088467" lon="7.98594"><ele>226.33333333333334</ele><time>2026-04-12T13:02:48.875Z</time></trkpt><trkpt lat="45.0086817" lon="7.9859833"><ele>227.0</ele><time>2026-04-12T13:02:49.875Z</time></trkpt><trkpt lat="45.0085183" lon="7.9860217"><ele>227.0</ele><time>2026-04-12T13:02:50.874Z</time></trkpt><trkpt lat="45.008355" lon="7.986055"><ele>227.0</ele><time>2026-04-12T13:02:51.875Z</time></trkpt><trkpt lat="45.0081967" lon="7.9861017"><ele>227.0</ele><time>2026-04-12T13:02:52.874Z</time></trkpt><trkpt lat="45.0080333" lon="7.9861433"><ele>226.0</ele><time>2026-04-12T13:02:53.874Z</time></trkpt><trkpt lat="45.007865" lon="7.9861833"><ele>225.0</ele><time>2026-04-12T13:02:54.875Z</time></trkpt><trkpt lat="45.0077" lon="7.98621"><ele>224.0</ele><time>2026-04-12T13:02:55.875Z</time></trkpt><trkpt lat="45.0075267" lon="7.9862367"><ele>223.66666666666669</ele><time>2026-04-12T13:02:56.874Z</time></trkpt><trkpt lat="45.0073583" lon="7.9862533"><ele>223.33333333333331</ele><time>2026-04-12T13:02:57.875Z</time></trkpt><trkpt lat="45.00719" lon="7.9862717"><ele>223.0</ele><time>2026-04-12T13:02:58.874Z</time></trkpt><trkpt lat="45.0070267" lon="7.986295"><ele>223.0</ele><time>2026-04-12T13:02:59.875Z</time></trkpt><trkpt lat="45.00686" lon="7.986315"><ele>223.0</ele><time>2026-04-12T13:03:00.875Z</time></trkpt><trkpt lat="45.0067067" lon="7.9863333"><ele>223.0</ele><time>2026-04-12T13:03:01.875Z</time></trkpt><trkpt lat="45.00655" lon="7.98637"><ele>222.0</ele><time>2026-04-12T13:03:02.874Z</time></trkpt><trkpt lat="45.0063933" lon="7.9864267"><ele>221.0</ele><time>2026-04-12T13:03:03.875Z</time></trkpt><trkpt lat="45.0062333" lon="7.9865033"><ele>220.0</ele><time>2026-04-12T13:03:04.874Z</time></trkpt><trkpt lat="45.0060733" lon="7.98658"><ele>220.0</ele><time>2026-04-12T13:03:05.874Z</time></trkpt><trkpt lat="45.0059233" lon="7.9866717"><ele>220.0</ele><time>2026-04-12T13:03:06.875Z</time></trkpt><trkpt lat="45.0057717" lon="7.9867733"><ele>220.0</ele><time>2026-04-12T13:03:07.874Z</time></trkpt><trkpt lat="45.0056333" lon="7.9868933"><ele>219.33333333333331</ele><time>2026-04-12T13:03:08.875Z</time></trkpt><trkpt lat="45.0054917" lon="7.9870183"><ele>218.66666666666669</ele><time>2026-04-12T13:03:09.874Z</time></trkpt><trkpt lat="45.005365" lon="7.98714"><ele>218.0</ele><time>2026-04-12T13:03:10.874Z</time></trkpt><trkpt lat="45.00523" lon="7.9872583"><ele>218.0</ele><time>2026-04-12T13:03:11.874Z</time></trkpt><trkpt lat="45.0050933" lon="7.9873683"><ele>218.0</ele><time>2026-04-12T13:03:12.874Z</time></trkpt><trkpt lat="45.0049617" lon="7.9874817"><ele>218.0</ele><time>2026-04-12T13:03:13.875Z</time></trkpt><trkpt lat="45.004835" lon="7.9876267"><ele>215.0</ele><time>2026-04-12T13:03:14.874Z</time></trkpt><trkpt lat="45.004725" lon="7.9878083"><ele>212.0</ele><time>2026-04-12T13:03:15.875Z</time></trkpt><trkpt lat="45.00464" lon="7.9880033"><ele>209.0</ele><time>2026-04-12T13:03:16.874Z</time></trkpt><trkpt lat="45.00456" lon="7.988205"><ele>211.0</ele><time>2026-04-12T13:03:17.875Z</time></trkpt><trkpt lat="45.004475" lon="7.9883967"><ele>213.0</ele><time>2026-04-12T13:03:18.874Z</time></trkpt><trkpt lat="45.004395" lon="7.988595"><ele>215.0</ele><time>2026-04-12T13:03:19.874Z</time></trkpt><trkpt lat="45.00431" lon="7.9887883"><ele>215.0</ele><time>2026-04-12T13:03:20.874Z</time></trkpt><trkpt lat="45.00422" lon="7.988985"><ele>215.0</ele><time>2026-04-12T13:03:21.874Z</time></trkpt><trkpt lat="45.0041367" lon="7.98917"><ele>215.0</ele><time>2026-04-12T13:03:22.874Z</time></trkpt><trkpt lat="45.00406" lon="7.9893583"><ele>215.0</ele><time>2026-04-12T13:03:23.875Z</time></trkpt><trkpt lat="45.0039767" lon="7.9895417"><ele>215.0</ele><time>2026-04-12T13:03:24.875Z</time></trkpt><trkpt lat="45.0039083" lon="7.9897267"><ele>215.0</ele><time>2026-04-12T13:03:25.874Z</time></trkpt><trkpt lat="45.0038333" lon="7.9899017"><ele>215.0</ele><time>2026-04-12T13:03:26.874Z</time></trkpt><trkpt lat="45.0037617" lon="7.99009"><ele>217.0</ele><time>2026-04-12T13:03:27.875Z</time></trkpt><trkpt lat="45.0037083" lon="7.9902933"><ele>219.0</ele><time>2026-04-12T13:03:28.874Z</time></trkpt><trkpt lat="45.0036767" lon="7.9905083"><ele>221.0</ele><time>2026-04-12T13:03:29.874Z</time></trkpt><trkpt lat="45.0036617" lon="7.9907267"><ele>221.66666666666669</ele><time>2026-04-12T13:03:30.875Z</time></trkpt><trkpt lat="45.0036533" lon="7.9909417"><ele>222.33333333333331</ele><time>2026-04-12T13:03:31.875Z</time></trkpt><trkpt lat="45.003645" lon="7.9911567"><ele>223.0</ele><time>2026-04-12T13:03:32.874Z</time></trkpt><trkpt lat="45.0036333" lon="7.991365"><ele>223.0</ele><time>2026-04-12T13:03:33.875Z</time></trkpt><trkpt lat="45.0036333" lon="7.99158"><ele>223.0</ele><time>2026-04-12T13:03:34.875Z</time></trkpt><trkpt lat="45.003655" lon="7.9917733"><ele>223.0</ele><time>2026-04-12T13:03:35.875Z</time></trkpt><trkpt lat="45.0037067" lon="7.991935"><ele>223.0</ele><time>2026-04-12T13:03:36.875Z</time></trkpt><trkpt lat="45.003795" lon="7.9920633"><ele>223.0</ele><time>2026-04-12T13:03:37.874Z</time></trkpt><trkpt lat="45.0039167" lon="7.9921583"><ele>223.0</ele><time>2026-04-12T13:03:38.875Z</time></trkpt><trkpt lat="45.00405" lon="7.99223"><ele>223.0</ele><time>2026-04-12T13:03:39.875Z</time></trkpt><trkpt lat="45.004155" lon="7.99233"><ele>223.0</ele><time>2026-04-12T13:03:40.875Z</time></trkpt><trkpt lat="45.00421" lon="7.9924667"><ele>225.4</ele><time>2026-04-12T13:03:41.874Z</time></trkpt><trkpt lat="45.00421" lon="7.992605"><ele>227.8</ele><time>2026-04-12T13:03:42.874Z</time></trkpt><trkpt lat="45.0041983" lon="7.9927533"><ele>230.2</ele><time>2026-04-12T13:03:43.874Z</time></trkpt><trkpt lat="45.0042233" lon="7.9929067"><ele>232.6</ele><time>2026-04-12T13:03:44.874Z</time></trkpt><trkpt lat="45.0042833" lon="7.9930633"><ele>235.0</ele><time>2026-04-12T13:03:45.874Z</time></trkpt><trkpt lat="45.0043617" lon="7.9932033"><ele>236.25</ele><time>2026-04-12T13:03:46.875Z</time></trkpt><trkpt lat="45.004455" lon="7.99335"><ele>237.5</ele><time>2026-04-12T13:03:47.874Z</time></trkpt><trkpt lat="45.0045283" lon="7.9935267"><ele>238.75</ele><time>2026-04-12T13:03:48.874Z</time></trkpt><trkpt lat="45.0045567" lon="7.9937267"><ele>240.0</ele><time>2026-04-12T13:03:49.875Z</time></trkpt><trkpt lat="45.0045467" lon="7.9939283"><ele>240.0</ele><time>2026-04-12T13:03:50.875Z</time></trkpt><trkpt lat="45.00453" lon="7.9941383"><ele>240.0</ele><time>2026-04-12T13:03:51.875Z</time></trkpt><trkpt lat="45.00452" lon="7.994365"><ele>240.0</ele><time>2026-04-12T13:03:52.874Z</time></trkpt><trkpt lat="45.0045117" lon="7.9945883"><ele>241.75</ele><time>2026-04-12T13:03:53.875Z</time></trkpt><trkpt lat="45.0045067" lon="7.9948083"><ele>243.5</ele><time>2026-04-12T13:03:54.875Z</time></trkpt><trkpt lat="45.0045067" lon="7.9950233"><ele>245.25</ele><time>2026-04-12T13:03:55.875Z</time></trkpt><trkpt lat="45.00448" lon="7.995205"><ele>247.0</ele><time>2026-04-12T13:03:56.875Z</time></trkpt><trkpt lat="45.00443" lon="7.9953617"><ele>247.5</ele><time>2026-04-12T13:03:57.875Z</time></trkpt><trkpt lat="45.0043333" lon="7.9954633"><ele>248.0</ele><time>2026-04-12T13:03:58.874Z</time></trkpt><trkpt lat="45.0042017" lon="7.995495"><ele>248.5</ele><time>2026-04-12T13:03:59.874Z</time></trkpt><trkpt lat="45.0040517" lon="7.9954767"><ele>249.0</ele><time>2026-04-12T13:04:00.874Z</time></trkpt><trkpt lat="45.0039067" lon="7.9954867"><ele>249.0</ele><time>2026-04-12T13:04:01.875Z</time></trkpt><trkpt lat="45.0037617" lon="7.9955283"><ele>249.0</ele><time>2026-04-12T13:04:02.874Z</time></trkpt><trkpt lat="45.00363" lon="7.9956617"><ele>249.0</ele><time>2026-04-12T13:04:03.874Z</time></trkpt><trkpt lat="45.003515" lon="7.99584"><ele>252.0</ele><time>2026-04-12T13:04:04.875Z</time></trkpt><trkpt lat="45.00342" lon="7.996025"><ele>255.0</ele><time>2026-04-12T13:04:05.875Z</time></trkpt><trkpt lat="45.0033267" lon="7.99621"><ele>258.0</ele><time>2026-04-12T13:04:06.874Z</time></trkpt><trkpt lat="45.0032433" lon="7.99638"><ele>258.6</ele><time>2026-04-12T13:04:07.874Z</time></trkpt><trkpt lat="45.003175" lon="7.9965283"><ele>259.20000000000005</ele><time>2026-04-12T13:04:08.875Z</time></trkpt><trkpt lat="45.0031567" lon="7.99667"><ele>259.8</ele><time>2026-04-12T13:04:09.874Z</time></trkpt><trkpt lat="45.0031717" lon="7.9968017"><ele>260.40000000000003</ele><time>2026-04-12T13:04:10.874Z</time></trkpt><trkpt lat="45.003235" lon="7.9968917"><ele>261.0</ele><time>2026-04-12T13:04:11.875Z</time></trkpt><trkpt lat="45.003335" lon="7.9969433"><ele>258.25</ele><time>2026-04-12T13:04:12.874Z</time></trkpt><trkpt lat="45.003445" lon="7.9969983"><ele>255.5</ele><time>2026-04-12T13:04:13.874Z</time></trkpt><trkpt lat="45.0035667" lon="7.9970733"><ele>252.75</ele><time>2026-04-12T13:04:14.874Z</time></trkpt><trkpt lat="45.0036767" lon="7.9971767"><ele>250.0</ele><time>2026-04-12T13:04:15.874Z</time></trkpt><trkpt lat="45.00378" lon="7.997305"><ele>250.0</ele><time>2026-04-12T13:04:16.875Z</time></trkpt><trkpt lat="45.0038783" lon="7.9974367"><ele>250.0</ele><time>2026-04-12T13:04:17.875Z</time></trkpt><trkpt lat="45.00397" lon="7.9975667"><ele>250.0</ele><time>2026-04-12T13:04:18.875Z</time></trkpt><trkpt lat="45.00405" lon="7.9977033"><ele>250.0</ele><time>2026-04-12T13:04:19.874Z</time></trkpt><trkpt lat="45.00413" lon="7.9978483"><ele>249.75</ele><time>2026-04-12T13:04:20.875Z</time></trkpt><trkpt lat="45.0041867" lon="7.99803"><ele>249.5</ele><time>2026-04-12T13:04:21.874Z</time></trkpt><trkpt lat="45.004185" lon="7.9982317"><ele>249.25</ele><time>2026-04-12T13:04:22.874Z</time></trkpt><trkpt lat="45.0041683" lon="7.9984267"><ele>249.0</ele><time>2026-04-12T13:04:23.874Z</time></trkpt><trkpt lat="45.0041283" lon="7.9986067"><ele>246.75</ele><time>2026-04-12T13:04:24.875Z</time></trkpt><trkpt lat="45.0040733" lon="7.9987867"><ele>244.5</ele><time>2026-04-12T13:04:25.875Z</time></trkpt><trkpt lat="45.0040267" lon="7.9989633"><ele>242.25</ele><time>2026-04-12T13:04:26.875Z</time></trkpt><trkpt lat="45.0039917" lon="7.99913"><ele>240.0</ele><time>2026-04-12T13:04:27.874Z</time></trkpt><trkpt lat="45.0039617" lon="7.9992783"><ele>240.0</ele><time>2026-04-12T13:04:28.874Z</time></trkpt><trkpt lat="45.003935" lon="7.9994217"><ele>240.0</ele><time>2026-04-12T13:04:29.874Z</time></trkpt><trkpt lat="45.0039033" lon="7.9995633"><ele>240.0</ele><time>2026-04-12T13:04:30.874Z</time></trkpt><trkpt lat="45.0038667" lon="7.9997217"><ele>240.0</ele><time>2026-04-12T13:04:31.874Z</time></trkpt><trkpt lat="45.0038133" lon="7.999885"><ele>240.0</ele><time>2026-04-12T13:04:32.874Z</time></trkpt><trkpt lat="45.0037633" lon="8.0000517"><ele>240.0</ele><time>2026-04-12T13:04:33.874Z</time></trkpt><trkpt lat="45.00371" lon="8.000205"><ele>240.0</ele><time>2026-04-12T13:04:34.875Z</time></trkpt><trkpt lat="45.00365" lon="8.0003417"><ele>240.0</ele><time>2026-04-12T13:04:35.875Z</time></trkpt><trkpt lat="45.0035833" lon="8.00049"><ele>240.0</ele><time>2026-04-12T13:04:36.874Z</time></trkpt><trkpt lat="45.00351" lon="8.00064"><ele>240.0</ele><time>2026-04-12T13:04:37.874Z</time></trkpt><trkpt lat="45.00342" lon="8.0007733"><ele>240.0</ele><time>2026-04-12T13:04:38.875Z</time></trkpt><trkpt lat="45.0033317" lon="8.0008967"><ele>240.0</ele><time>2026-04-12T13:04:39.874Z</time></trkpt><trkpt lat="45.0032567" lon="8.0009983"><ele>237.16666666666666</ele><time>2026-04-12T13:04:40.874Z</time></trkpt><trkpt lat="45.0031717" lon="8.0010733"><ele>234.33333333333331</ele><time>2026-04-12T13:04:41.875Z</time></trkpt><trkpt lat="45.0030833" lon="8.001085"><ele>231.5</ele><time>2026-04-12T13:04:42.874Z</time></trkpt><trkpt lat="45.003005" lon="8.0010433"><ele>228.66666666666666</ele><time>2026-04-12T13:04:43.874Z</time></trkpt><trkpt lat="45.0029583" lon="8.000965"><ele>225.83333333333331</ele><time>2026-04-12T13:04:44.874Z</time></trkpt><trkpt lat="45.0029567" lon="8.0008483"><ele>223.0</ele><time>2026-04-12T13:04:45.874Z</time></trkpt><trkpt lat="45.0029833" lon="8.00073"><ele>222.4</ele><time>2026-04-12T13:04:46.875Z</time></trkpt><trkpt lat="45.0030483" lon="8.00059"><ele>221.8</ele><time>2026-04-12T13:04:47.875Z</time></trkpt><trkpt lat="45.0031033" lon="8.000455"><ele>221.2</ele><time>2026-04-12T13:04:48.875Z</time></trkpt><trkpt lat="45.0031417" lon="8.0003267"><ele>220.6</ele><time>2026-04-12T13:04:49.875Z</time></trkpt><trkpt lat="45.0031483" lon="8.0002167"><ele>220.0</ele><time>2026-04-12T13:04:50.874Z</time></trkpt><trkpt lat="45.0031267" lon="8.0001067"><ele>220.0</ele><time>2026-04-12T13:04:51.874Z</time></trkpt><trkpt lat="45.0030683" lon="8.0000067"><ele>220.0</ele><time>2026-04-12T13:04:52.874Z</time></trkpt><trkpt lat="45.0029717" lon="7.9999333"><ele>220.0</ele><time>2026-04-12T13:04:53.874Z</time></trkpt><trkpt lat="45.0028467" lon="7.9999083"><ele>220.0</ele><time>2026-04-12T13:04:54.874Z</time></trkpt><trkpt lat="45.00271" lon="7.9999433"><ele>220.0</ele><time>2026-04-12T13:04:55.875Z</time></trkpt><trkpt lat="45.0025817" lon="8.000015"><ele>220.0</ele><time>2026-04-12T13:04:56.875Z</time></trkpt><trkpt lat="45.0024633" lon="8.00016"><ele>220.0</ele><time>2026-04-12T13:04:57.874Z</time></trkpt><trkpt lat="45.002365" lon="8.0003633"><ele>218.0</ele><time>2026-04-12T13:04:58.874Z</time></trkpt><trkpt lat="45.002285" lon="8.0005583"><ele>216.0</ele><time>2026-04-12T13:04:59.874Z</time></trkpt><trkpt lat="45.0022017" lon="8.000735"><ele>214.0</ele><time>2026-04-12T13:05:00.874Z</time></trkpt><trkpt lat="45.0021183" lon="8.0009117"><ele>214.0</ele><time>2026-04-12T13:05:01.875Z</time></trkpt><trkpt lat="45.0020367" lon="8.0010733"><ele>214.0</ele><time>2026-04-12T13:05:02.874Z</time></trkpt><trkpt lat="45.00197" lon="8.0012383"><ele>214.0</ele><time>2026-04-12T13:05:03.875Z</time></trkpt><trkpt lat="45.0019567" lon="8.00143"><ele>214.0</ele><time>2026-04-12T13:05:04.874Z</time></trkpt><trkpt lat="45.0019833" lon="8.00162"><ele>212.33333333333331</ele><time>2026-04-12T13:05:05.874Z</time></trkpt><trkpt lat="45.0020417" lon="8.00183"><ele>210.66666666666669</ele><time>2026-04-12T13:05:06.875Z</time></trkpt><trkpt lat="45.0021067" lon="8.002065"><ele>209.0</ele><time>2026-04-12T13:05:07.874Z</time></trkpt><trkpt lat="45.002175" lon="8.0023167"><ele>210.66666666666669</ele><time>2026-04-12T13:05:08.875Z</time></trkpt><trkpt lat="45.002235" lon="8.002555"><ele>212.33333333333331</ele><time>2026-04-12T13:05:09.875Z</time></trkpt><trkpt lat="45.0022917" lon="8.0027833"><ele>214.0</ele><time>2026-04-12T13:05:10.875Z</time></trkpt><trkpt lat="45.0023417" lon="8.003015"><ele>214.0</ele><time>2026-04-12T13:05:11.874Z</time></trkpt><trkpt lat="45.002395" lon="8.0032383"><ele>214.0</ele><time>2026-04-12T13:05:12.875Z</time></trkpt><trkpt lat="45.0024567" lon="8.0034567"><ele>214.0</ele><time>2026-04-12T13:05:13.874Z</time></trkpt><trkpt lat="45.0025067" lon="8.0036717"><ele>211.33333333333331</ele><time>2026-04-12T13:05:14.875Z</time></trkpt><trkpt lat="45.0025633" lon="8.0038983"><ele>208.66666666666669</ele><time>2026-04-12T13:05:15.875Z</time></trkpt><trkpt lat="45.0026217" lon="8.0041233"><ele>206.0</ele><time>2026-04-12T13:05:16.874Z</time></trkpt><trkpt lat="45.0026717" lon="8.0043467"><ele>204.0</ele><time>2026-04-12T13:05:17.874Z</time></trkpt><trkpt lat="45.0027283" lon="8.0045717"><ele>202.0</ele><time>2026-04-12T13:05:18.874Z</time></trkpt><trkpt lat="45.00279" lon="8.00479"><ele>200.0</ele><time>2026-04-12T13:05:19.875Z</time></trkpt><trkpt lat="45.0028483" lon="8.0050033"><ele>198.5</ele><time>2026-04-12T13:05:20.874Z</time></trkpt><trkpt lat="45.0028967" lon="8.005195"><ele>197.0</ele><time>2026-04-12T13:05:21.875Z</time></trkpt><trkpt lat="45.00295" lon="8.00538"><ele>195.5</ele><time>2026-04-12T13:05:22.875Z</time></trkpt><trkpt lat="45.003005" lon="8.0055683"><ele>194.0</ele><time>2026-04-12T13:05:23.875Z</time></trkpt><trkpt lat="45.0030567" lon="8.005755"><ele>193.75</ele><time>2026-04-12T13:05:24.875Z</time></trkpt><trkpt lat="45.003085" lon="8.0059333"><ele>193.5</ele><time>2026-04-12T13:05:25.874Z</time></trkpt><trkpt lat="45.0030767" lon="8.0060983"><ele>193.25</ele><time>2026-04-12T13:05:26.875Z</time></trkpt><trkpt lat="45.0030333" lon="8.006245"><ele>193.0</ele><time>2026-04-12T13:05:27.874Z</time></trkpt><trkpt lat="45.0029567" lon="8.0063683"><ele>193.0</ele><time>2026-04-12T13:05:28.874Z</time></trkpt><trkpt lat="45.0028383" lon="8.0064583"><ele>193.0</ele><time>2026-04-12T13:05:29.874Z</time></trkpt><trkpt lat="45.002705" lon="8.0065433"><ele>193.0</ele><time>2026-04-12T13:05:30.875Z</time></trkpt><trkpt lat="45.0025717" lon="8.0066333"><ele>193.0</ele><time>2026-04-12T13:05:31.874Z</time></trkpt><trkpt lat="45.00243" lon="8.0067367"><ele>193.0</ele><time>2026-04-12T13:05:32.874Z</time></trkpt><trkpt lat="45.002295" lon="8.006845"><ele>193.0</ele><time>2026-04-12T13:05:33.875Z</time></trkpt><trkpt lat="45.002155" lon="8.006945"><ele>193.0</ele><time>2026-04-12T13:05:34.875Z</time></trkpt><trkpt lat="45.002015" lon="8.007055"><ele>193.0</ele><time>2026-04-12T13:05:35.874Z</time></trkpt><trkpt lat="45.001865" lon="8.0071583"><ele>193.0</ele><time>2026-04-12T13:05:36.874Z</time></trkpt><trkpt lat="45.0017183" lon="8.0072767"><ele>193.0</ele><time>2026-04-12T13:05:37.875Z</time></trkpt><trkpt lat="45.0015783" lon="8.007415"><ele>195.0</ele><time>2026-04-12T13:05:38.874Z</time></trkpt><trkpt lat="45.0014383" lon="8.007555"><ele>197.0</ele><time>2026-04-12T13:05:39.874Z</time></trkpt><trkpt lat="45.0013033" lon="8.0076833"><ele>199.0</ele><time>2026-04-12T13:05:40.875Z</time></trkpt><trkpt lat="45.00117" lon="8.0078167"><ele>199.0</ele><time>2026-04-12T13:05:41.875Z</time></trkpt><trkpt lat="45.00104" lon="8.007935"><ele>199.0</ele><time>2026-04-12T13:05:42.874Z</time></trkpt><trkpt lat="45.000905" lon="8.0080417"><ele>199.0</ele><time>2026-04-12T13:05:43.874Z</time></trkpt><trkpt lat="45.0007833" lon="8.0081233"><ele>199.0</ele><time>2026-04-12T13:05:44.875Z</time></trkpt><trkpt lat="45.0006583" lon="8.0081717"><ele>197.75</ele><time>2026-04-12T13:05:45.874Z</time></trkpt><trkpt lat="45.0005133" lon="8.008195"><ele>196.5</ele><time>2026-04-12T13:05:46.875Z</time></trkpt><trkpt lat="45.0003667" lon="8.008185"><ele>195.25</ele><time>2026-04-12T13:05:47.874Z</time></trkpt><trkpt lat="45.0002167" lon="8.0081583"><ele>194.0</ele><time>2026-04-12T13:05:48.875Z</time></trkpt><trkpt lat="45.0000733" lon="8.0081483"><ele>194.0</ele><time>2026-04-12T13:05:49.875Z</time></trkpt><trkpt lat="44.9999367" lon="8.008155"><ele>194.0</ele><time>2026-04-12T13:05:50.875Z</time></trkpt><trkpt lat="44.999795" lon="8.0082067"><ele>194.0</ele><time>2026-04-12T13:05:51.875Z</time></trkpt><trkpt lat="44.99966" lon="8.0082933"><ele>194.0</ele><time>2026-04-12T13:05:52.874Z</time></trkpt><trkpt lat="44.9995333" lon="8.0084133"><ele>194.66666666666669</ele><time>2026-04-12T13:05:53.875Z</time></trkpt><trkpt lat="44.9994067" lon="8.008545"><ele>195.33333333333331</ele><time>2026-04-12T13:05:54.875Z</time></trkpt><trkpt lat="44.9992817" lon="8.0086783"><ele>196.0</ele><time>2026-04-12T13:05:55.874Z</time></trkpt><trkpt lat="44.9991567" lon="8.00882"><ele>194.66666666666666</ele><time>2026-04-12T13:05:56.875Z</time></trkpt><trkpt lat="44.999025" lon="8.0089517"><ele>193.33333333333331</ele><time>2026-04-12T13:05:57.874Z</time></trkpt><trkpt lat="44.9989017" lon="8.00908"><ele>192.0</ele><time>2026-04-12T13:05:58.875Z</time></trkpt><trkpt lat="44.9987733" lon="8.0092267"><ele>191.66666666666666</ele><time>2026-04-12T13:05:59.874Z</time></trkpt><trkpt lat="44.9986517" lon="8.00936"><ele>191.33333333333331</ele><time>2026-04-12T13:06:00.874Z</time></trkpt><trkpt lat="44.9985217" lon="8.0095"><ele>191.0</ele><time>2026-04-12T13:06:01.874Z</time></trkpt><trkpt lat="44.9983967" lon="8.0096383"><ele>191.33333333333331</ele><time>2026-04-12T13:06:02.875Z</time></trkpt><trkpt lat="44.9982733" lon="8.0097717"><ele>191.66666666666666</ele><time>2026-04-12T13:06:03.874Z</time></trkpt><trkpt lat="44.998155" lon="8.0098967"><ele>192.0</ele><time>2026-04-12T13:06:04.874Z</time></trkpt><trkpt lat="44.9980283" lon="8.01002"><ele>191.33333333333334</ele><time>2026-04-12T13:06:05.874Z</time></trkpt><trkpt lat="44.9979117" lon="8.010145"><ele>190.66666666666669</ele><time>2026-04-12T13:06:06.875Z</time></trkpt><trkpt lat="44.9977917" lon="8.0102767"><ele>190.0</ele><time>2026-04-12T13:06:07.875Z</time></trkpt><trkpt lat="44.9976683" lon="8.0104117"><ele>190.0</ele><time>2026-04-12T13:06:08.874Z</time></trkpt><trkpt lat="44.9975417" lon="8.010545"><ele>190.0</ele><time>2026-04-12T13:06:09.874Z</time></trkpt><trkpt lat="44.997415" lon="8.0106817"><ele>190.0</ele><time>2026-04-12T13:06:10.874Z</time></trkpt><trkpt lat="44.99729" lon="8.0108217"><ele>189.66666666666669</ele><time>2026-04-12T13:06:11.874Z</time></trkpt><trkpt lat="44.9971633" lon="8.01096"><ele>189.33333333333334</ele><time>2026-04-12T13:06:12.875Z</time></trkpt><trkpt lat="44.99704" lon="8.0111017"><ele>189.0</ele><time>2026-04-12T13:06:13.875Z</time></trkpt><trkpt lat="44.9969083" lon="8.0112433"><ele>189.0</ele><time>2026-04-12T13:06:14.874Z</time></trkpt><trkpt lat="44.9967767" lon="8.0113733"><ele>189.0</ele><time>2026-04-12T13:06:15.875Z</time></trkpt><trkpt lat="44.9966467" lon="8.0115183"><ele>189.0</ele><time>2026-04-12T13:06:16.875Z</time></trkpt><trkpt lat="44.9965117" lon="8.01166"><ele>189.0</ele><time>2026-04-12T13:06:17.874Z</time></trkpt><trkpt lat="44.996375" lon="8.0117967"><ele>189.0</ele><time>2026-04-12T13:06:18.874Z</time></trkpt><trkpt lat="44.9962367" lon="8.011945"><ele>189.0</ele><time>2026-04-12T13:06:19.875Z</time></trkpt><trkpt lat="44.9960967" lon="8.012085"><ele>189.0</ele><time>2026-04-12T13:06:20.875Z</time></trkpt><trkpt lat="44.9959583" lon="8.0122217"><ele>189.0</ele><time>2026-04-12T13:06:21.874Z</time></trkpt><trkpt lat="44.995825" lon="8.0123667"><ele>189.0</ele><time>2026-04-12T13:06:22.874Z</time></trkpt><trkpt lat="44.99569" lon="8.012515"><ele>190.0</ele><time>2026-04-12T13:06:23.874Z</time></trkpt><trkpt lat="44.9955617" lon="8.012655"><ele>191.0</ele><time>2026-04-12T13:06:24.874Z</time></trkpt><trkpt lat="44.9954233" lon="8.01279"><ele>192.0</ele><time>2026-04-12T13:06:25.874Z</time></trkpt><trkpt lat="44.995295" lon="8.0129333"><ele>192.0</ele><time>2026-04-12T13:06:26.875Z</time></trkpt><trkpt lat="44.9951683" lon="8.013085"><ele>192.0</ele><time>2026-04-12T13:06:27.874Z</time></trkpt><trkpt lat="44.9950533" lon="8.0132517"><ele>192.0</ele><time>2026-04-12T13:06:28.875Z</time></trkpt><trkpt lat="44.9949667" lon="8.0134583"><ele>190.33333333333334</ele><time>2026-04-12T13:06:29.874Z</time></trkpt><trkpt lat="44.9948933" lon="8.01366"><ele>188.66666666666669</ele><time>2026-04-12T13:06:30.875Z</time></trkpt><trkpt lat="44.99484" lon="8.01388"><ele>187.0</ele><time>2026-04-12T13:06:31.875Z</time></trkpt><trkpt lat="44.994795" lon="8.01411"><ele>187.33333333333334</ele><time>2026-04-12T13:06:32.875Z</time></trkpt><trkpt lat="44.9947567" lon="8.014345"><ele>187.66666666666666</ele><time>2026-04-12T13:06:33.874Z</time></trkpt><trkpt lat="44.9947183" lon="8.0145733"><ele>188.0</ele><time>2026-04-12T13:06:34.874Z</time></trkpt><trkpt lat="44.994685" lon="8.01481"><ele>188.0</ele><time>2026-04-12T13:06:35.874Z</time></trkpt><trkpt lat="44.9946433" lon="8.0150467"><ele>188.0</ele><time>2026-04-12T13:06:36.874Z</time></trkpt><trkpt lat="44.994615" lon="8.0152717"><ele>188.0</ele><time>2026-04-12T13:06:37.875Z</time></trkpt><trkpt lat="44.99458" lon="8.01549"><ele>188.0</ele><time>2026-04-12T13:06:38.874Z</time></trkpt><trkpt lat="44.9945417" lon="8.0157183"><ele>188.0</ele><time>2026-04-12T13:06:39.874Z</time></trkpt><trkpt lat="44.9945017" lon="8.0159317"><ele>188.0</ele><time>2026-04-12T13:06:40.875Z</time></trkpt><trkpt lat="44.994465" lon="8.01614"><ele>187.66666666666666</ele><time>2026-04-12T13:06:41.875Z</time></trkpt><trkpt lat="44.9944267" lon="8.016355"><ele>187.33333333333334</ele><time>2026-04-12T13:06:42.875Z</time></trkpt><trkpt lat="44.9944" lon="8.0165667"><ele>187.0</ele><time>2026-04-12T13:06:43.874Z</time></trkpt><trkpt lat="44.9943683" lon="8.01678"><ele>186.33333333333334</ele><time>2026-04-12T13:06:44.874Z</time></trkpt><trkpt lat="44.9943367" lon="8.0169983"><ele>185.66666666666666</ele><time>2026-04-12T13:06:45.874Z</time></trkpt><trkpt lat="44.9943083" lon="8.0172017"><ele>185.0</ele><time>2026-04-12T13:06:46.874Z</time></trkpt><trkpt lat="44.9942783" lon="8.0174033"><ele>185.0</ele><time>2026-04-12T13:06:47.874Z</time></trkpt><trkpt lat="44.9942433" lon="8.01762"><ele>185.0</ele><time>2026-04-12T13:06:48.874Z</time></trkpt><trkpt lat="44.994205" lon="8.01783"><ele>185.0</ele><time>2026-04-12T13:06:49.874Z</time></trkpt><trkpt lat="44.9941633" lon="8.0180483"><ele>185.0</ele><time>2026-04-12T13:06:50.874Z</time></trkpt><trkpt lat="44.994115" lon="8.0182467"><ele>185.0</ele><time>2026-04-12T13:06:51.875Z</time></trkpt><trkpt lat="44.99404" lon="8.0184283"><ele>185.0</ele><time>2026-04-12T13:06:52.874Z</time></trkpt><trkpt lat="44.9939517" lon="8.0186017"><ele>185.0</ele><time>2026-04-12T13:06:53.875Z</time></trkpt><trkpt lat="44.9938583" lon="8.0187817"><ele>185.0</ele><time>2026-04-12T13:06:54.875Z</time></trkpt><trkpt lat="44.99377" lon="8.0189583"><ele>185.0</ele><time>2026-04-12T13:06:55.874Z</time></trkpt><trkpt lat="44.9936817" lon="8.0191517"><ele>185.0</ele><time>2026-04-12T13:06:56.875Z</time></trkpt><trkpt lat="44.9936017" lon="8.0193217"><ele>185.0</ele><time>2026-04-12T13:06:57.874Z</time></trkpt><trkpt lat="44.9935233" lon="8.01948"><ele>185.0</ele><time>2026-04-12T13:06:58.875Z</time></trkpt><trkpt lat="44.99345" lon="8.0196167"><ele>185.0</ele><time>2026-04-12T13:06:59.874Z</time></trkpt><trkpt lat="44.993385" lon="8.0197367"><ele>185.0</ele><time>2026-04-12T13:07:00.874Z</time></trkpt><trkpt lat="44.9933317" lon="8.0198383"><ele>185.0</ele><time>2026-04-12T13:07:01.874Z</time></trkpt><trkpt lat="44.993285" lon="8.0199333"><ele>185.0</ele><time>2026-04-12T13:07:02.874Z</time></trkpt><trkpt lat="44.9932417" lon="8.0200083"><ele>185.0</ele><time>2026-04-12T13:07:03.874Z</time></trkpt><trkpt lat="44.993185" lon="8.0201033"><ele>185.0</ele><time>2026-04-12T13:07:05.874Z</time></trkpt><trkpt lat="44.9931483" lon="8.0201933"><ele>185.0</ele><time>2026-04-12T13:07:08.875Z</time></trkpt><trkpt lat="44.9931017" lon="8.02034"><ele>185.0</ele><time>2026-04-12T13:07:10.875Z</time></trkpt><trkpt lat="44.993075" lon="8.0204517"><ele>185.0</ele><time>2026-04-12T13:07:11.874Z</time></trkpt><trkpt lat="44.9930417" lon="8.0205683"><ele>185.0</ele><time>2026-04-12T13:07:12.874Z</time></trkpt><trkpt lat="44.9929983" lon="8.020695"><ele>185.0</ele><time>2026-04-12T13:07:13.874Z</time></trkpt><trkpt lat="44.9929467" lon="8.0208367"><ele>185.0</ele><time>2026-04-12T13:07:14.874Z</time></trkpt><trkpt lat="44.992895" lon="8.0209883"><ele>185.0</ele><time>2026-04-12T13:07:15.875Z</time></trkpt><trkpt lat="44.992845" lon="8.0211517"><ele>185.0</ele><time>2026-04-12T13:07:16.875Z</time></trkpt><trkpt lat="44.9927933" lon="8.0213183"><ele>185.0</ele><time>2026-04-12T13:07:17.874Z</time></trkpt><trkpt lat="44.99274" lon="8.021495"><ele>185.0</ele><time>2026-04-12T13:07:18.874Z</time></trkpt><trkpt lat="44.9926867" lon="8.0216833"><ele>185.0</ele><time>2026-04-12T13:07:19.874Z</time></trkpt><trkpt lat="44.99263" lon="8.0218717"><ele>185.66666666666666</ele><time>2026-04-12T13:07:20.874Z</time></trkpt><trkpt lat="44.99258" lon="8.0220617"><ele>186.33333333333334</ele><time>2026-04-12T13:07:21.875Z</time></trkpt><trkpt lat="44.9925383" lon="8.0222783"><ele>187.0</ele><time>2026-04-12T13:07:22.874Z</time></trkpt><trkpt lat="44.9925167" lon="8.0225033"><ele>187.33333333333334</ele><time>2026-04-12T13:07:23.874Z</time></trkpt><trkpt lat="44.992505" lon="8.02273"><ele>187.66666666666666</ele><time>2026-04-12T13:07:24.875Z</time></trkpt><trkpt lat="44.9925167" lon="8.0229483"><ele>188.0</ele><time>2026-04-12T13:07:25.875Z</time></trkpt><trkpt lat="44.9925433" lon="8.0231583"><ele>188.25</ele><time>2026-04-12T13:07:26.874Z</time></trkpt><trkpt lat="44.9925567" lon="8.023375"><ele>188.5</ele><time>2026-04-12T13:07:27.875Z</time></trkpt><trkpt lat="44.9925517" lon="8.0235733"><ele>188.75</ele><time>2026-04-12T13:07:28.874Z</time></trkpt><trkpt lat="44.9925283" lon="8.0237717"><ele>189.0</ele><time>2026-04-12T13:07:29.875Z</time></trkpt><trkpt lat="44.99249" lon="8.0239633"><ele>191.0</ele><time>2026-04-12T13:07:30.874Z</time></trkpt><trkpt lat="44.9924333" lon="8.0241667"><ele>193.0</ele><time>2026-04-12T13:07:31.874Z</time></trkpt><trkpt lat="44.992385" lon="8.024375"><ele>195.0</ele><time>2026-04-12T13:07:32.875Z</time></trkpt><trkpt lat="44.992335" lon="8.0245617"><ele>195.0</ele><time>2026-04-12T13:07:33.874Z</time></trkpt><trkpt lat="44.9922817" lon="8.024735"><ele>195.0</ele><time>2026-04-12T13:07:34.874Z</time></trkpt><trkpt lat="44.992225" lon="8.0249117"><ele>195.0</ele><time>2026-04-12T13:07:35.875Z</time></trkpt><trkpt lat="44.992165" lon="8.0250833"><ele>195.0</ele><time>2026-04-12T13:07:36.874Z</time></trkpt><trkpt lat="44.9920967" lon="8.0252367"><ele>195.0</ele><time>2026-04-12T13:07:37.875Z</time></trkpt><trkpt lat="44.99202" lon="8.0253867"><ele>195.0</ele><time>2026-04-12T13:07:38.874Z</time></trkpt><trkpt lat="44.991925" lon="8.02552"><ele>195.0</ele><time>2026-04-12T13:07:39.874Z</time></trkpt><trkpt lat="44.991815" lon="8.0256517"><ele>195.0</ele><time>2026-04-12T13:07:40.875Z</time></trkpt><trkpt lat="44.9917" lon="8.0257667"><ele>197.0</ele><time>2026-04-12T13:07:41.874Z</time></trkpt><trkpt lat="44.9915817" lon="8.0258783"><ele>199.0</ele><time>2026-04-12T13:07:42.875Z</time></trkpt><trkpt lat="44.9914667" lon="8.025965"><ele>201.0</ele><time>2026-04-12T13:07:43.874Z</time></trkpt><trkpt lat="44.991355" lon="8.026025"><ele>203.0</ele><time>2026-04-12T13:07:44.874Z</time></trkpt><trkpt lat="44.9912367" lon="8.026045"><ele>203.0</ele><time>2026-04-12T13:07:45.875Z</time></trkpt><trkpt lat="44.9911117" lon="8.0260217"><ele>203.0</ele><time>2026-04-12T13:07:46.874Z</time></trkpt><trkpt lat="44.990985" lon="8.0259833"><ele>203.0</ele><time>2026-04-12T13:07:47.875Z</time></trkpt><trkpt lat="44.9908483" lon="8.0259317"><ele>203.0</ele><time>2026-04-12T13:07:48.874Z</time></trkpt><trkpt lat="44.9907167" lon="8.0258783"><ele>205.25</ele><time>2026-04-12T13:07:49.874Z</time></trkpt><trkpt lat="44.9905833" lon="8.025835"><ele>207.5</ele><time>2026-04-12T13:07:50.875Z</time></trkpt><trkpt lat="44.9904517" lon="8.0257917"><ele>209.75</ele><time>2026-04-12T13:07:51.875Z</time></trkpt><trkpt lat="44.990325" lon="8.0257717"><ele>212.0</ele><time>2026-04-12T13:07:52.874Z</time></trkpt><trkpt lat="44.990195" lon="8.0257583"><ele>213.0</ele><time>2026-04-12T13:07:53.875Z</time></trkpt><trkpt lat="44.99007" lon="8.0257533"><ele>214.0</ele><time>2026-04-12T13:07:54.875Z</time></trkpt><trkpt lat="44.98994" lon="8.0257567"><ele>215.0</ele><time>2026-04-12T13:07:55.875Z</time></trkpt><trkpt lat="44.9898233" lon="8.02576"><ele>216.0</ele><time>2026-04-12T13:07:56.875Z</time></trkpt><trkpt lat="44.9897133" lon="8.0257767"><ele>218.8</ele><time>2026-04-12T13:07:57.875Z</time></trkpt><trkpt lat="44.9896117" lon="8.0258117"><ele>221.60000000000002</ele><time>2026-04-12T13:07:58.875Z</time></trkpt><trkpt lat="44.9895233" lon="8.025845"><ele>224.4</ele><time>2026-04-12T13:07:59.875Z</time></trkpt><trkpt lat="44.9894383" lon="8.025875"><ele>227.2</ele><time>2026-04-12T13:08:00.875Z</time></trkpt><trkpt lat="44.98935" lon="8.025875"><ele>230.0</ele><time>2026-04-12T13:08:01.874Z</time></trkpt><trkpt lat="44.9892567" lon="8.0258617"><ele>230.00000000000003</ele><time>2026-04-12T13:08:02.874Z</time></trkpt><trkpt lat="44.98918" lon="8.025845"><ele>230.0</ele><time>2026-04-12T13:08:03.874Z</time></trkpt><trkpt lat="44.9891133" lon="8.025805"><ele>230.0</ele><time>2026-04-12T13:08:04.874Z</time></trkpt><trkpt lat="44.989025" lon="8.0257567"><ele>230.0</ele><time>2026-04-12T13:08:06.874Z</time></trkpt><trkpt lat="44.9890033" lon="8.02565"><ele>230.00000000000003</ele><time>2026-04-12T13:08:09.874Z</time></trkpt><trkpt lat="44.9889817" lon="8.0257417"><ele>230.0</ele><time>2026-04-12T13:08:18.874Z</time></trkpt><trkpt lat="44.9889583" lon="8.0258533"><ele>231.66666666666669</ele><time>2026-04-12T13:08:19.875Z</time></trkpt><trkpt lat="44.9889383" lon="8.0259467"><ele>233.33333333333334</ele><time>2026-04-12T13:08:20.874Z</time></trkpt><trkpt lat="44.9889383" lon="8.02605"><ele>235.0</ele><time>2026-04-12T13:08:25.875Z</time></trkpt><trkpt lat="44.9889533" lon="8.02614"><ele>236.66666666666669</ele><time>2026-04-12T13:08:27.874Z</time></trkpt><trkpt lat="44.9889617" lon="8.02625"><ele>238.33333333333334</ele><time>2026-04-12T13:08:29.874Z</time></trkpt><trkpt lat="44.9889867" lon="8.02641"><ele>240.0</ele><time>2026-04-12T13:08:31.874Z</time></trkpt><trkpt lat="44.989005" lon="8.026505"><ele>240.0</ele><time>2026-04-12T13:08:32.875Z</time></trkpt><trkpt lat="44.9890183" lon="8.0266033"><ele>240.0</ele><time>2026-04-12T13:08:33.874Z</time></trkpt><trkpt lat="44.9890417" lon="8.0266967"><ele>240.0</ele><time>2026-04-12T13:08:34.874Z</time></trkpt><trkpt lat="44.9890633" lon="8.026795"><ele>240.0</ele><time>2026-04-12T13:08:35.875Z</time></trkpt><trkpt lat="44.989075" lon="8.0268967"><ele>240.0</ele><time>2026-04-12T13:08:36.874Z</time></trkpt><trkpt lat="44.989095" lon="8.027005"><ele>240.0</ele><time>2026-04-12T13:08:37.874Z</time></trkpt><trkpt lat="44.9891133" lon="8.02712"><ele>240.0</ele><time>2026-04-12T13:08:38.874Z</time></trkpt><trkpt lat="44.9891383" lon="8.0272583"><ele>241.2</ele><time>2026-04-12T13:08:39.874Z</time></trkpt><trkpt lat="44.9891683" lon="8.0274167"><ele>242.4</ele><time>2026-04-12T13:08:40.875Z</time></trkpt><trkpt lat="44.989215" lon="8.02756"><ele>243.60000000000002</ele><time>2026-04-12T13:08:41.875Z</time></trkpt><trkpt lat="44.9892517" lon="8.027685"><ele>244.8</ele><time>2026-04-12T13:08:42.875Z</time></trkpt><trkpt lat="44.989285" lon="8.027815"><ele>246.0</ele><time>2026-04-12T13:08:43.874Z</time></trkpt><trkpt lat="44.989315" lon="8.0279567"><ele>243.60000000000002</ele><time>2026-04-12T13:08:44.874Z</time></trkpt><trkpt lat="44.989345" lon="8.0280983"><ele>241.20000000000002</ele><time>2026-04-12T13:08:45.875Z</time></trkpt><trkpt lat="44.9893767" lon="8.02824"><ele>238.79999999999998</ele><time>2026-04-12T13:08:46.874Z</time></trkpt><trkpt lat="44.9893967" lon="8.0283917"><ele>236.39999999999998</ele><time>2026-04-12T13:08:47.874Z</time></trkpt><trkpt lat="44.9893967" lon="8.0285617"><ele>234.0</ele><time>2026-04-12T13:08:48.875Z</time></trkpt><trkpt lat="44.98937" lon="8.0287333"><ele>232.25</ele><time>2026-04-12T13:08:49.874Z</time></trkpt><trkpt lat="44.98933" lon="8.0289083"><ele>230.5</ele><time>2026-04-12T13:08:50.874Z</time></trkpt><trkpt lat="44.989275" lon="8.0290883"><ele>228.75</ele><time>2026-04-12T13:08:51.875Z</time></trkpt><trkpt lat="44.989245" lon="8.029265"><ele>227.0</ele><time>2026-04-12T13:08:52.874Z</time></trkpt><trkpt lat="44.98922" lon="8.029445"><ele>225.75</ele><time>2026-04-12T13:08:53.874Z</time></trkpt><trkpt lat="44.9892" lon="8.0296233"><ele>224.5</ele><time>2026-04-12T13:08:54.874Z</time></trkpt><trkpt lat="44.9891817" lon="8.0298"><ele>223.25</ele><time>2026-04-12T13:08:55.874Z</time></trkpt><trkpt lat="44.9891717" lon="8.029985"><ele>222.0</ele><time>2026-04-12T13:08:56.874Z</time></trkpt><trkpt lat="44.9891733" lon="8.0301767"><ele>224.0</ele><time>2026-04-12T13:08:57.874Z</time></trkpt><trkpt lat="44.989185" lon="8.0303767"><ele>226.0</ele><time>2026-04-12T13:08:58.875Z</time></trkpt><trkpt lat="44.9892033" lon="8.0305783"><ele>228.0</ele><time>2026-04-12T13:08:59.874Z</time></trkpt><trkpt lat="44.9892383" lon="8.0307817"><ele>230.0</ele><time>2026-04-12T13:09:00.875Z</time></trkpt><trkpt lat="44.9892833" lon="8.0309783"><ele>235.0</ele><time>2026-04-12T13:09:01.874Z</time></trkpt><trkpt lat="44.9893017" lon="8.0311733"><ele>240.0</ele><time>2026-04-12T13:09:02.874Z</time></trkpt><trkpt lat="44.9893017" lon="8.0313717"><ele>245.0</ele><time>2026-04-12T13:09:03.874Z</time></trkpt><trkpt lat="44.9892833" lon="8.0315683"><ele>250.0</ele><time>2026-04-12T13:09:04.875Z</time></trkpt><trkpt lat="44.989275" lon="8.0317717"><ele>253.0</ele><time>2026-04-12T13:09:05.874Z</time></trkpt><trkpt lat="44.9892917" lon="8.0319533"><ele>256.0</ele><time>2026-04-12T13:09:06.875Z</time></trkpt><trkpt lat="44.98931" lon="8.0321217"><ele>259.0</ele><time>2026-04-12T13:09:07.874Z</time></trkpt><trkpt lat="44.9893717" lon="8.0322717"><ele>262.0</ele><time>2026-04-12T13:09:08.874Z</time></trkpt><trkpt lat="44.98946" lon="8.0323967"><ele>261.0</ele><time>2026-04-12T13:09:09.874Z</time></trkpt><trkpt lat="44.98957" lon="8.0325167"><ele>260.0</ele><time>2026-04-12T13:09:10.874Z</time></trkpt><trkpt lat="44.9896767" lon="8.0326667"><ele>259.0</ele><time>2026-04-12T13:09:11.874Z</time></trkpt><trkpt lat="44.9897817" lon="8.0328233"><ele>258.0</ele><time>2026-04-12T13:09:12.874Z</time></trkpt><trkpt lat="44.9898817" lon="8.03299"><ele>258.0</ele><time>2026-04-12T13:09:13.874Z</time></trkpt><trkpt lat="44.9899633" lon="8.0331667"><ele>258.0</ele><time>2026-04-12T13:09:14.875Z</time></trkpt><trkpt lat="44.990035" lon="8.0333617"><ele>258.0</ele><time>2026-04-12T13:09:15.874Z</time></trkpt><trkpt lat="44.9901017" lon="8.0335583"><ele>253.0</ele><time>2026-04-12T13:09:16.874Z</time></trkpt><trkpt lat="44.9901567" lon="8.0337367"><ele>248.0</ele><time>2026-04-12T13:09:17.874Z</time></trkpt><trkpt lat="44.9902233" lon="8.0339017"><ele>243.0</ele><time>2026-04-12T13:09:18.874Z</time></trkpt><trkpt lat="44.99032" lon="8.0340283"><ele>238.0</ele><time>2026-04-12T13:09:19.874Z</time></trkpt><trkpt lat="44.990425" lon="8.0340983"><ele>238.0</ele><time>2026-04-12T13:09:20.875Z</time></trkpt><trkpt lat="44.9905533" lon="8.0340917"><ele>238.0</ele><time>2026-04-12T13:09:21.874Z</time></trkpt><trkpt lat="44.9906967" lon="8.0340167"><ele>238.0</ele><time>2026-04-12T13:09:22.874Z</time></trkpt><trkpt lat="44.9908283" lon="8.033905"><ele>238.0</ele><time>2026-04-12T13:09:23.875Z</time></trkpt><trkpt lat="44.9909717" lon="8.0338467"><ele>238.0</ele><time>2026-04-12T13:09:24.875Z</time></trkpt><trkpt lat="44.9911267" lon="8.0338233"><ele>238.0</ele><time>2026-04-12T13:09:25.874Z</time></trkpt><trkpt lat="44.9912783" lon="8.033835"><ele>238.0</ele><time>2026-04-12T13:09:26.875Z</time></trkpt><trkpt lat="44.9914117" lon="8.0338633"><ele>238.0</ele><time>2026-04-12T13:09:27.875Z</time></trkpt><trkpt lat="44.9915417" lon="8.0339317"><ele>236.0</ele><time>2026-04-12T13:09:28.874Z</time></trkpt><trkpt lat="44.9916783" lon="8.0340117"><ele>234.0</ele><time>2026-04-12T13:09:29.874Z</time></trkpt><trkpt lat="44.991825" lon="8.03409"><ele>232.0</ele><time>2026-04-12T13:09:30.874Z</time></trkpt><trkpt lat="44.99195" lon="8.0341967"><ele>235.25</ele><time>2026-04-12T13:09:31.874Z</time></trkpt><trkpt lat="44.992085" lon="8.0342917"><ele>238.5</ele><time>2026-04-12T13:09:32.874Z</time></trkpt><trkpt lat="44.992195" lon="8.034405"><ele>241.75</ele><time>2026-04-12T13:09:33.874Z</time></trkpt><trkpt lat="44.992295" lon="8.03453"><ele>245.0</ele><time>2026-04-12T13:09:34.874Z</time></trkpt><trkpt lat="44.9923783" lon="8.03467"><ele>245.0</ele><time>2026-04-12T13:09:35.875Z</time></trkpt><trkpt lat="44.9924683" lon="8.034805"><ele>245.0</ele><time>2026-04-12T13:09:36.874Z</time></trkpt><trkpt lat="44.9925483" lon="8.0349233"><ele>245.0</ele><time>2026-04-12T13:09:37.875Z</time></trkpt><trkpt lat="44.9926467" lon="8.03501"><ele>245.0</ele><time>2026-04-12T13:09:38.874Z</time></trkpt><trkpt lat="44.9927717" lon="8.035045"><ele>244.25</ele><time>2026-04-12T13:09:39.875Z</time></trkpt><trkpt lat="44.9929133" lon="8.03504"><ele>243.5</ele><time>2026-04-12T13:09:40.875Z</time></trkpt><trkpt lat="44.9930383" lon="8.0350183"><ele>242.75</ele><time>2026-04-12T13:09:41.874Z</time></trkpt><trkpt lat="44.993165" lon="8.034995"><ele>242.0</ele><time>2026-04-12T13:09:42.875Z</time></trkpt><trkpt lat="44.99329" lon="8.0350017"><ele>244.0</ele><time>2026-04-12T13:09:43.874Z</time></trkpt><trkpt lat="44.9933983" lon="8.0350533"><ele>246.0</ele><time>2026-04-12T13:09:44.875Z</time></trkpt><trkpt lat="44.993495" lon="8.0351617"><ele>248.0</ele><time>2026-04-12T13:09:45.874Z</time></trkpt><trkpt lat="44.9935633" lon="8.03531"><ele>250.0</ele><time>2026-04-12T13:09:46.874Z</time></trkpt><trkpt lat="44.9935867" lon="8.0354833"><ele>250.0</ele><time>2026-04-12T13:09:47.875Z</time></trkpt><trkpt lat="44.9935533" lon="8.035655"><ele>250.0</ele><time>2026-04-12T13:09:48.874Z</time></trkpt><trkpt lat="44.99348" lon="8.0357967"><ele>250.0</ele><time>2026-04-12T13:09:49.874Z</time></trkpt><trkpt lat="44.9933333" lon="8.0359033"><ele>250.0</ele><time>2026-04-12T13:09:50.874Z</time></trkpt><trkpt lat="44.993165" lon="8.0359767"><ele>246.0</ele><time>2026-04-12T13:09:51.875Z</time></trkpt><trkpt lat="44.9930067" lon="8.036075"><ele>242.0</ele><time>2026-04-12T13:09:52.875Z</time></trkpt><trkpt lat="44.9928617" lon="8.0361683"><ele>238.0</ele><time>2026-04-12T13:09:53.874Z</time></trkpt><trkpt lat="44.992725" lon="8.03626"><ele>238.0</ele><time>2026-04-12T13:09:54.875Z</time></trkpt><trkpt lat="44.992585" lon="8.0363467"><ele>238.0</ele><time>2026-04-12T13:09:55.874Z</time></trkpt><trkpt lat="44.9924467" lon="8.0364417"><ele>238.0</ele><time>2026-04-12T13:09:56.874Z</time></trkpt><trkpt lat="44.9923183" lon="8.03655"><ele>237.66666666666666</ele><time>2026-04-12T13:09:57.874Z</time></trkpt><trkpt lat="44.99219" lon="8.0366617"><ele>237.33333333333331</ele><time>2026-04-12T13:09:58.874Z</time></trkpt><trkpt lat="44.9920617" lon="8.0367917"><ele>237.0</ele><time>2026-04-12T13:09:59.875Z</time></trkpt><trkpt lat="44.99193" lon="8.0369267"><ele>237.0</ele><time>2026-04-12T13:10:00.874Z</time></trkpt><trkpt lat="44.9918133" lon="8.037075"><ele>237.0</ele><time>2026-04-12T13:10:01.874Z</time></trkpt><trkpt lat="44.9917017" lon="8.0372183"><ele>237.0</ele><time>2026-04-12T13:10:02.874Z</time></trkpt><trkpt lat="44.991625" lon="8.0374117"><ele>233.66666666666669</ele><time>2026-04-12T13:10:03.875Z</time></trkpt><trkpt lat="44.9915783" lon="8.0376317"><ele>230.33333333333334</ele><time>2026-04-12T13:10:04.874Z</time></trkpt><trkpt lat="44.9915567" lon="8.0378617"><ele>227.0</ele><time>2026-04-12T13:10:05.874Z</time></trkpt><trkpt lat="44.991545" lon="8.0380883"><ele>225.0</ele><time>2026-04-12T13:10:06.875Z</time></trkpt><trkpt lat="44.991525" lon="8.03832"><ele>223.0</ele><time>2026-04-12T13:10:07.875Z</time></trkpt><trkpt lat="44.9915017" lon="8.03855"><ele>221.0</ele><time>2026-04-12T13:10:08.875Z</time></trkpt><trkpt lat="44.9914867" lon="8.0387767"><ele>221.0</ele><time>2026-04-12T13:10:09.875Z</time></trkpt><trkpt lat="44.9914617" lon="8.0390067"><ele>221.0</ele><time>2026-04-12T13:10:10.874Z</time></trkpt><trkpt lat="44.9914417" lon="8.0392383"><ele>221.0</ele><time>2026-04-12T13:10:11.875Z</time></trkpt><trkpt lat="44.9914183" lon="8.0394633"><ele>223.0</ele><time>2026-04-12T13:10:12.874Z</time></trkpt><trkpt lat="44.9913817" lon="8.03968"><ele>225.0</ele><time>2026-04-12T13:10:13.875Z</time></trkpt><trkpt lat="44.9913367" lon="8.0398917"><ele>227.0</ele><time>2026-04-12T13:10:14.874Z</time></trkpt><trkpt lat="44.9912883" lon="8.04011"><ele>228.33333333333334</ele><time>2026-04-12T13:10:15.874Z</time></trkpt><trkpt lat="44.99123" lon="8.040325"><ele>229.66666666666669</ele><time>2026-04-12T13:10:16.874Z</time></trkpt><trkpt lat="44.991165" lon="8.0405317"><ele>231.0</ele><time>2026-04-12T13:10:17.874Z</time></trkpt><trkpt lat="44.9910933" lon="8.0407333"><ele>230.0</ele><time>2026-04-12T13:10:18.874Z</time></trkpt><trkpt lat="44.9910117" lon="8.0409283"><ele>229.0</ele><time>2026-04-12T13:10:19.874Z</time></trkpt><trkpt lat="44.990925" lon="8.0411217"><ele>228.0</ele><time>2026-04-12T13:10:20.875Z</time></trkpt><trkpt lat="44.990825" lon="8.0413067"><ele>226.33333333333331</ele><time>2026-04-12T13:10:21.874Z</time></trkpt><trkpt lat="44.9907" lon="8.041485"><ele>224.66666666666666</ele><time>2026-04-12T13:10:22.874Z</time></trkpt><trkpt lat="44.990595" lon="8.0416567"><ele>223.0</ele><time>2026-04-12T13:10:23.874Z</time></trkpt><trkpt lat="44.99049" lon="8.041835"><ele>223.0</ele><time>2026-04-12T13:10:24.874Z</time></trkpt><trkpt lat="44.99039" lon="8.0420067"><ele>223.0</ele><time>2026-04-12T13:10:25.875Z</time></trkpt><trkpt lat="44.9902917" lon="8.0421883"><ele>223.0</ele><time>2026-04-12T13:10:26.875Z</time></trkpt><trkpt lat="44.990175" lon="8.0423767"><ele>225.0</ele><time>2026-04-12T13:10:27.875Z</time></trkpt><trkpt lat="44.990065" lon="8.0425567"><ele>227.0</ele><time>2026-04-12T13:10:28.874Z</time></trkpt><trkpt lat="44.9899483" lon="8.0427333"><ele>229.0</ele><time>2026-04-12T13:10:29.876Z</time></trkpt><trkpt lat="44.9898233" lon="8.0429083"><ele>227.66666666666666</ele><time>2026-04-12T13:10:30.875Z</time></trkpt><trkpt lat="44.9897083" lon="8.0430917"><ele>226.33333333333331</ele><time>2026-04-12T13:10:31.875Z</time></trkpt><trkpt lat="44.9895967" lon="8.0432583"><ele>225.0</ele><time>2026-04-12T13:10:32.875Z</time></trkpt><trkpt lat="44.9894967" lon="8.0434367"><ele>225.0</ele><time>2026-04-12T13:10:33.876Z</time></trkpt><trkpt lat="44.9893983" lon="8.043605"><ele>225.0</ele><time>2026-04-12T13:10:34.875Z</time></trkpt><trkpt lat="44.9893183" lon="8.0437817"><ele>225.0</ele><time>2026-04-12T13:10:35.876Z</time></trkpt><trkpt lat="44.98921" lon="8.043955"><ele>219.33333333333331</ele><time>2026-04-12T13:10:36.875Z</time></trkpt><trkpt lat="44.9891033" lon="8.0441283"><ele>213.66666666666666</ele><time>2026-04-12T13:10:37.876Z</time></trkpt><trkpt lat="44.9890017" lon="8.0442983"><ele>208.0</ele><time>2026-04-12T13:10:38.875Z</time></trkpt><trkpt lat="44.9888867" lon="8.0444683"><ele>208.0</ele><time>2026-04-12T13:10:39.876Z</time></trkpt><trkpt lat="44.9887667" lon="8.04463"><ele>208.0</ele><time>2026-04-12T13:10:40.875Z</time></trkpt><trkpt lat="44.988645" lon="8.04478"><ele>208.0</ele><time>2026-04-12T13:10:41.876Z</time></trkpt><trkpt lat="44.9885167" lon="8.0449267"><ele>206.33333333333331</ele><time>2026-04-12T13:10:42.876Z</time></trkpt><trkpt lat="44.9883867" lon="8.0450767"><ele>204.66666666666669</ele><time>2026-04-12T13:10:43.875Z</time></trkpt><trkpt lat="44.9882533" lon="8.04522"><ele>203.0</ele><time>2026-04-12T13:10:44.876Z</time></trkpt><trkpt lat="44.9881317" lon="8.0453667"><ele>203.0</ele><time>2026-04-12T13:10:45.876Z</time></trkpt><trkpt lat="44.9880083" lon="8.0455233"><ele>203.0</ele><time>2026-04-12T13:10:46.876Z</time></trkpt><trkpt lat="44.98787" lon="8.045665"><ele>203.0</ele><time>2026-04-12T13:10:47.875Z</time></trkpt><trkpt lat="44.987735" lon="8.04581"><ele>202.33333333333334</ele><time>2026-04-12T13:10:48.875Z</time></trkpt><trkpt lat="44.9876017" lon="8.0459517"><ele>201.66666666666669</ele><time>2026-04-12T13:10:49.876Z</time></trkpt><trkpt lat="44.9874667" lon="8.0461"><ele>201.0</ele><time>2026-04-12T13:10:50.876Z</time></trkpt><trkpt lat="44.9873317" lon="8.0462433"><ele>201.0</ele><time>2026-04-12T13:10:51.876Z</time></trkpt><trkpt lat="44.987205" lon="8.04639"><ele>201.0</ele><time>2026-04-12T13:10:52.875Z</time></trkpt><trkpt lat="44.9870733" lon="8.0465367"><ele>201.0</ele><time>2026-04-12T13:10:53.875Z</time></trkpt><trkpt lat="44.9869483" lon="8.046685"><ele>200.33333333333331</ele><time>2026-04-12T13:10:54.876Z</time></trkpt><trkpt lat="44.9868267" lon="8.046845"><ele>199.66666666666666</ele><time>2026-04-12T13:10:55.876Z</time></trkpt><trkpt lat="44.9867167" lon="8.046995"><ele>199.0</ele><time>2026-04-12T13:10:56.875Z</time></trkpt><trkpt lat="44.9865933" lon="8.0471367"><ele>199.0</ele><time>2026-04-12T13:10:57.875Z</time></trkpt><trkpt lat="44.9864667" lon="8.0472867"><ele>199.0</ele><time>2026-04-12T13:10:58.876Z</time></trkpt><trkpt lat="44.9863367" lon="8.04743"><ele>199.0</ele><time>2026-04-12T13:10:59.875Z</time></trkpt><trkpt lat="44.9862117" lon="8.04757"><ele>198.66666666666666</ele><time>2026-04-12T13:11:00.875Z</time></trkpt><trkpt lat="44.986085" lon="8.047715"><ele>198.33333333333331</ele><time>2026-04-12T13:11:01.875Z</time></trkpt><trkpt lat="44.9859533" lon="8.0478617"><ele>198.0</ele><time>2026-04-12T13:11:02.876Z</time></trkpt><trkpt lat="44.98582" lon="8.048"><ele>198.0</ele><time>2026-04-12T13:11:03.875Z</time></trkpt><trkpt lat="44.985695" lon="8.0481483"><ele>198.0</ele><time>2026-04-12T13:11:04.875Z</time></trkpt><trkpt lat="44.9855683" lon="8.0483"><ele>198.0</ele><time>2026-04-12T13:11:05.876Z</time></trkpt><trkpt lat="44.985445" lon="8.04845"><ele>200.66666666666669</ele><time>2026-04-12T13:11:06.876Z</time></trkpt><trkpt lat="44.9853133" lon="8.0485983"><ele>203.33333333333334</ele><time>2026-04-12T13:11:07.876Z</time></trkpt><trkpt lat="44.9851783" lon="8.0487467"><ele>206.0</ele><time>2026-04-12T13:11:08.876Z</time></trkpt><trkpt lat="44.9850517" lon="8.04889"><ele>203.33333333333334</ele><time>2026-04-12T13:11:09.876Z</time></trkpt><trkpt lat="44.9849267" lon="8.0490483"><ele>200.66666666666669</ele><time>2026-04-12T13:11:10.875Z</time></trkpt><trkpt lat="44.9847967" lon="8.0492133"><ele>198.0</ele><time>2026-04-12T13:11:11.876Z</time></trkpt><trkpt lat="44.984685" lon="8.0493783"><ele>198.0</ele><time>2026-04-12T13:11:12.875Z</time></trkpt><trkpt lat="44.9845817" lon="8.04955"><ele>198.0</ele><time>2026-04-12T13:11:13.875Z</time></trkpt><trkpt lat="44.9844683" lon="8.049735"><ele>198.0</ele><time>2026-04-12T13:11:14.875Z</time></trkpt><trkpt lat="44.9843683" lon="8.0499233"><ele>195.66666666666666</ele><time>2026-04-12T13:11:15.875Z</time></trkpt><trkpt lat="44.98428" lon="8.0501167"><ele>193.33333333333331</ele><time>2026-04-12T13:11:16.876Z</time></trkpt><trkpt lat="44.984195" lon="8.0503083"><ele>191.0</ele><time>2026-04-12T13:11:17.875Z</time></trkpt><trkpt lat="44.9841017" lon="8.0504933"><ele>191.0</ele><time>2026-04-12T13:11:18.875Z</time></trkpt><trkpt lat="44.9840117" lon="8.0506783"><ele>191.0</ele><time>2026-04-12T13:11:19.876Z</time></trkpt><trkpt lat="44.9839033" lon="8.050865"><ele>191.0</ele><time>2026-04-12T13:11:20.876Z</time></trkpt><trkpt lat="44.9838017" lon="8.0510667"><ele>192.66666666666666</ele><time>2026-04-12T13:11:21.875Z</time></trkpt><trkpt lat="44.9837083" lon="8.0512617"><ele>194.33333333333331</ele><time>2026-04-12T13:11:22.875Z</time></trkpt><trkpt lat="44.9836217" lon="8.0514533"><ele>196.0</ele><time>2026-04-12T13:11:23.876Z</time></trkpt><trkpt lat="44.9835283" lon="8.05164"><ele>194.66666666666666</ele><time>2026-04-12T13:11:24.875Z</time></trkpt><trkpt lat="44.9834383" lon="8.051835"><ele>193.33333333333331</ele><time>2026-04-12T13:11:25.875Z</time></trkpt><trkpt lat="44.9833483" lon="8.0520233"><ele>192.0</ele><time>2026-04-12T13:11:26.875Z</time></trkpt><trkpt lat="44.9832483" lon="8.0522067"><ele>192.0</ele><time>2026-04-12T13:11:27.875Z</time></trkpt><trkpt lat="44.98316" lon="8.05239"><ele>192.0</ele><time>2026-04-12T13:11:28.876Z</time></trkpt><trkpt lat="44.9830617" lon="8.0525767"><ele>192.0</ele><time>2026-04-12T13:11:29.875Z</time></trkpt><trkpt lat="44.9829783" lon="8.05277"><ele>193.33333333333331</ele><time>2026-04-12T13:11:30.876Z</time></trkpt><trkpt lat="44.9828917" lon="8.0529683"><ele>194.66666666666666</ele><time>2026-04-12T13:11:31.875Z</time></trkpt><trkpt lat="44.982805" lon="8.0531633"><ele>196.0</ele><time>2026-04-12T13:11:32.876Z</time></trkpt><trkpt lat="44.9827283" lon="8.0533617"><ele>199.0</ele><time>2026-04-12T13:11:33.875Z</time></trkpt><trkpt lat="44.9826583" lon="8.053565"><ele>202.0</ele><time>2026-04-12T13:11:34.875Z</time></trkpt><trkpt lat="44.9825917" lon="8.0537767"><ele>205.0</ele><time>2026-04-12T13:11:35.876Z</time></trkpt><trkpt lat="44.9825217" lon="8.0539883"><ele>201.0</ele><time>2026-04-12T13:11:36.875Z</time></trkpt><trkpt lat="44.98245" lon="8.0542033"><ele>197.0</ele><time>2026-04-12T13:11:37.876Z</time></trkpt><trkpt lat="44.982375" lon="8.0543983"><ele>193.0</ele><time>2026-04-12T13:11:38.875Z</time></trkpt><trkpt lat="44.9823033" lon="8.0545933"><ele>193.0</ele><time>2026-04-12T13:11:39.875Z</time></trkpt><trkpt lat="44.9822317" lon="8.0548"><ele>193.0</ele><time>2026-04-12T13:11:40.875Z</time></trkpt><trkpt lat="44.982165" lon="8.0549883"><ele>193.0</ele><time>2026-04-12T13:11:41.875Z</time></trkpt><trkpt lat="44.9820967" lon="8.05519"><ele>193.0</ele><time>2026-04-12T13:11:42.876Z</time></trkpt><trkpt lat="44.9820217" lon="8.0553983"><ele>193.0</ele><time>2026-04-12T13:11:43.875Z</time></trkpt><trkpt lat="44.981945" lon="8.0555967"><ele>193.0</ele><time>2026-04-12T13:11:44.875Z</time></trkpt><trkpt lat="44.9818717" lon="8.0558083"><ele>192.75</ele><time>2026-04-12T13:11:45.876Z</time></trkpt><trkpt lat="44.9817983" lon="8.0560117"><ele>192.5</ele><time>2026-04-12T13:11:46.875Z</time></trkpt><trkpt lat="44.98173" lon="8.0561883"><ele>192.25</ele><time>2026-04-12T13:11:47.875Z</time></trkpt><trkpt lat="44.98167" lon="8.0563667"><ele>192.0</ele><time>2026-04-12T13:11:48.875Z</time></trkpt><trkpt lat="44.98161" lon="8.0565233"><ele>190.2</ele><time>2026-04-12T13:11:49.875Z</time></trkpt><trkpt lat="44.981555" lon="8.0566667"><ele>188.39999999999998</ele><time>2026-04-12T13:11:50.875Z</time></trkpt><trkpt lat="44.9814983" lon="8.0567833"><ele>186.60000000000002</ele><time>2026-04-12T13:11:51.876Z</time></trkpt><trkpt lat="44.9814283" lon="8.05686"><ele>184.8</ele><time>2026-04-12T13:11:52.875Z</time></trkpt><trkpt lat="44.9813467" lon="8.05689"><ele>183.0</ele><time>2026-04-12T13:11:53.875Z</time></trkpt><trkpt lat="44.9812567" lon="8.056885"><ele>183.0</ele><time>2026-04-12T13:11:54.876Z</time></trkpt><trkpt lat="44.9811567" lon="8.0568567"><ele>183.0</ele><time>2026-04-12T13:11:55.875Z</time></trkpt><trkpt lat="44.9810467" lon="8.0568033"><ele>183.0</ele><time>2026-04-12T13:11:56.875Z</time></trkpt><trkpt lat="44.980925" lon="8.0567683"><ele>183.0</ele><time>2026-04-12T13:11:57.875Z</time></trkpt><trkpt lat="44.9808067" lon="8.0567233"><ele>183.0</ele><time>2026-04-12T13:11:58.875Z</time></trkpt><trkpt lat="44.9806783" lon="8.05669"><ele>183.0</ele><time>2026-04-12T13:11:59.876Z</time></trkpt><trkpt lat="44.980545" lon="8.05667"><ele>183.0</ele><time>2026-04-12T13:12:00.875Z</time></trkpt><trkpt lat="44.9804083" lon="8.0566417"><ele>183.0</ele><time>2026-04-12T13:12:01.876Z</time></trkpt><trkpt lat="44.98027" lon="8.0566183"><ele>182.75</ele><time>2026-04-12T13:12:02.875Z</time></trkpt><trkpt lat="44.980115" lon="8.0566217"><ele>182.5</ele><time>2026-04-12T13:12:03.876Z</time></trkpt><trkpt lat="44.979975" lon="8.0566383"><ele>182.25</ele><time>2026-04-12T13:12:04.876Z</time></trkpt><trkpt lat="44.9798267" lon="8.0566733"><ele>182.0</ele><time>2026-04-12T13:12:05.875Z</time></trkpt><trkpt lat="44.9796733" lon="8.0567217"><ele>182.0</ele><time>2026-04-12T13:12:06.876Z</time></trkpt><trkpt lat="44.9795133" lon="8.0567717"><ele>182.0</ele><time>2026-04-12T13:12:07.876Z</time></trkpt><trkpt lat="44.9793517" lon="8.0568167"><ele>182.0</ele><time>2026-04-12T13:12:08.875Z</time></trkpt><trkpt lat="44.97919" lon="8.05686"><ele>182.33333333333331</ele><time>2026-04-12T13:12:09.876Z</time></trkpt><trkpt lat="44.9790317" lon="8.0569017"><ele>182.66666666666666</ele><time>2026-04-12T13:12:10.875Z</time></trkpt><trkpt lat="44.97887" lon="8.056955"><ele>183.0</ele><time>2026-04-12T13:12:11.875Z</time></trkpt><trkpt lat="44.9787083" lon="8.0569967"><ele>183.0</ele><time>2026-04-12T13:12:12.876Z</time></trkpt><trkpt lat="44.9785467" lon="8.05704"><ele>183.0</ele><time>2026-04-12T13:12:13.875Z</time></trkpt><trkpt lat="44.9783867" lon="8.057085"><ele>183.0</ele><time>2026-04-12T13:12:14.875Z</time></trkpt><trkpt lat="44.9782183" lon="8.057125"><ele>183.33333333333334</ele><time>2026-04-12T13:12:15.875Z</time></trkpt><trkpt lat="44.978055" lon="8.0571683"><ele>183.66666666666669</ele><time>2026-04-12T13:12:16.876Z</time></trkpt><trkpt lat="44.97788" lon="8.0572167"><ele>184.0</ele><time>2026-04-12T13:12:17.875Z</time></trkpt><trkpt lat="44.9777183" lon="8.057265"><ele>184.0</ele><time>2026-04-12T13:12:18.875Z</time></trkpt><trkpt lat="44.97755" lon="8.0573117"><ele>184.0</ele><time>2026-04-12T13:12:19.876Z</time></trkpt><trkpt lat="44.97737" lon="8.0573583"><ele>184.0</ele><time>2026-04-12T13:12:20.875Z</time></trkpt><trkpt lat="44.9771883" lon="8.05742"><ele>183.66666666666669</ele><time>2026-04-12T13:12:21.875Z</time></trkpt><trkpt lat="44.9770017" lon="8.0574583"><ele>183.33333333333334</ele><time>2026-04-12T13:12:22.875Z</time></trkpt><trkpt lat="44.97682" lon="8.0575"><ele>183.0</ele><time>2026-04-12T13:12:23.875Z</time></trkpt><trkpt lat="44.97666" lon="8.0575383"><ele>182.66666666666666</ele><time>2026-04-12T13:12:24.876Z</time></trkpt><trkpt lat="44.976495" lon="8.0575867"><ele>182.33333333333331</ele><time>2026-04-12T13:12:25.875Z</time></trkpt><trkpt lat="44.97633" lon="8.0576367"><ele>182.0</ele><time>2026-04-12T13:12:26.875Z</time></trkpt><trkpt lat="44.976175" lon="8.0576967"><ele>182.0</ele><time>2026-04-12T13:12:27.876Z</time></trkpt><trkpt lat="44.97602" lon="8.057775"><ele>182.0</ele><time>2026-04-12T13:12:28.875Z</time></trkpt><trkpt lat="44.9758733" lon="8.0578717"><ele>182.0</ele><time>2026-04-12T13:12:29.875Z</time></trkpt><trkpt lat="44.9757333" lon="8.05799"><ele>182.0</ele><time>2026-04-12T13:12:30.876Z</time></trkpt><trkpt lat="44.9756033" lon="8.0581183"><ele>182.0</ele><time>2026-04-12T13:12:31.875Z</time></trkpt><trkpt lat="44.97548" lon="8.0582583"><ele>182.0</ele><time>2026-04-12T13:12:32.875Z</time></trkpt><trkpt lat="44.9753517" lon="8.0584083"><ele>181.66666666666666</ele><time>2026-04-12T13:12:33.875Z</time></trkpt><trkpt lat="44.975235" lon="8.0585667"><ele>181.33333333333334</ele><time>2026-04-12T13:12:34.875Z</time></trkpt><trkpt lat="44.9751167" lon="8.0587117"><ele>181.0</ele><time>2026-04-12T13:12:35.875Z</time></trkpt><trkpt lat="44.975" lon="8.0588533"><ele>181.33333333333334</ele><time>2026-04-12T13:12:36.876Z</time></trkpt><trkpt lat="44.9748683" lon="8.0589817"><ele>181.66666666666666</ele><time>2026-04-12T13:12:37.875Z</time></trkpt><trkpt lat="44.97473" lon="8.0590967"><ele>182.0</ele><time>2026-04-12T13:12:38.876Z</time></trkpt><trkpt lat="44.9745867" lon="8.0592"><ele>182.0</ele><time>2026-04-12T13:12:39.875Z</time></trkpt><trkpt lat="44.9744417" lon="8.0592867"><ele>182.0</ele><time>2026-04-12T13:12:40.876Z</time></trkpt><trkpt lat="44.974295" lon="8.05936"><ele>182.0</ele><time>2026-04-12T13:12:41.876Z</time></trkpt><trkpt lat="44.974145" lon="8.0594467"><ele>181.66666666666666</ele><time>2026-04-12T13:12:42.875Z</time></trkpt><trkpt lat="44.97399" lon="8.0595233"><ele>181.33333333333334</ele><time>2026-04-12T13:12:43.876Z</time></trkpt><trkpt lat="44.9738333" lon="8.0595933"><ele>181.0</ele><time>2026-04-12T13:12:44.875Z</time></trkpt><trkpt lat="44.9736683" lon="8.0596617"><ele>181.0</ele><time>2026-04-12T13:12:45.875Z</time></trkpt><trkpt lat="44.9735033" lon="8.0597283"><ele>181.0</ele><time>2026-04-12T13:12:46.875Z</time></trkpt><trkpt lat="44.97334" lon="8.059795"><ele>181.0</ele><time>2026-04-12T13:12:47.875Z</time></trkpt><trkpt lat="44.9731767" lon="8.0598633"><ele>181.0</ele><time>2026-04-12T13:12:48.876Z</time></trkpt><trkpt lat="44.9730233" lon="8.05994"><ele>181.0</ele><time>2026-04-12T13:12:49.875Z</time></trkpt><trkpt lat="44.9728583" lon="8.060005"><ele>181.0</ele><time>2026-04-12T13:12:50.876Z</time></trkpt><trkpt lat="44.9727" lon="8.0600717"><ele>180.33333333333334</ele><time>2026-04-12T13:12:51.875Z</time></trkpt><trkpt lat="44.9725367" lon="8.06014"><ele>179.66666666666666</ele><time>2026-04-12T13:12:52.875Z</time></trkpt><trkpt lat="44.9723783" lon="8.0602183"><ele>179.0</ele><time>2026-04-12T13:12:53.875Z</time></trkpt><trkpt lat="44.9722167" lon="8.060295"><ele>178.66666666666666</ele><time>2026-04-12T13:12:54.876Z</time></trkpt><trkpt lat="44.97206" lon="8.0603683"><ele>178.33333333333334</ele><time>2026-04-12T13:12:55.875Z</time></trkpt><trkpt lat="44.9718967" lon="8.0604467"><ele>178.0</ele><time>2026-04-12T13:12:56.876Z</time></trkpt><trkpt lat="44.9717367" lon="8.0605067"><ele>179.0</ele><time>2026-04-12T13:12:57.876Z</time></trkpt><trkpt lat="44.9715733" lon="8.0605533"><ele>180.0</ele><time>2026-04-12T13:12:58.876Z</time></trkpt><trkpt lat="44.97141" lon="8.0605833"><ele>181.0</ele><time>2026-04-12T13:12:59.875Z</time></trkpt><trkpt lat="44.9712417" lon="8.0605983"><ele>181.0</ele><time>2026-04-12T13:13:00.876Z</time></trkpt><trkpt lat="44.971075" lon="8.06061"><ele>181.0</ele><time>2026-04-12T13:13:01.875Z</time></trkpt><trkpt lat="44.97091" lon="8.0606233"><ele>181.0</ele><time>2026-04-12T13:13:02.875Z</time></trkpt><trkpt lat="44.9707417" lon="8.0606383"><ele>181.66666666666669</ele><time>2026-04-12T13:13:03.876Z</time></trkpt><trkpt lat="44.9705667" lon="8.060665"><ele>182.33333333333334</ele><time>2026-04-12T13:13:04.875Z</time></trkpt><trkpt lat="44.9704" lon="8.060685"><ele>183.0</ele><time>2026-04-12T13:13:05.876Z</time></trkpt><trkpt lat="44.97023" lon="8.0607133"><ele>183.0</ele><time>2026-04-12T13:13:06.875Z</time></trkpt><trkpt lat="44.970065" lon="8.0607333"><ele>183.0</ele><time>2026-04-12T13:13:07.876Z</time></trkpt><trkpt lat="44.9698983" lon="8.0607483"><ele>183.0</ele><time>2026-04-12T13:13:08.876Z</time></trkpt><trkpt lat="44.9697283" lon="8.0607667"><ele>182.0</ele><time>2026-04-12T13:13:09.875Z</time></trkpt><trkpt lat="44.96956" lon="8.0607817"><ele>181.0</ele><time>2026-04-12T13:13:10.876Z</time></trkpt><trkpt lat="44.969395" lon="8.06081"><ele>180.0</ele><time>2026-04-12T13:13:11.876Z</time></trkpt><trkpt lat="44.96923" lon="8.0608267"><ele>179.66666666666666</ele><time>2026-04-12T13:13:12.875Z</time></trkpt><trkpt lat="44.96906" lon="8.06085"><ele>179.33333333333331</ele><time>2026-04-12T13:13:13.875Z</time></trkpt><trkpt lat="44.9688867" lon="8.060865"><ele>179.0</ele><time>2026-04-12T13:13:14.876Z</time></trkpt><trkpt lat="44.9687133" lon="8.0608867"><ele>179.0</ele><time>2026-04-12T13:13:15.875Z</time></trkpt><trkpt lat="44.968545" lon="8.0609067"><ele>179.0</ele><time>2026-04-12T13:13:16.876Z</time></trkpt><trkpt lat="44.968375" lon="8.0609267"><ele>179.0</ele><time>2026-04-12T13:13:17.875Z</time></trkpt><trkpt lat="44.968205" lon="8.060955"><ele>179.0</ele><time>2026-04-12T13:13:18.876Z</time></trkpt><trkpt lat="44.9680417" lon="8.0609767"><ele>179.0</ele><time>2026-04-12T13:13:19.875Z</time></trkpt><trkpt lat="44.9678817" lon="8.0609983"><ele>179.0</ele><time>2026-04-12T13:13:20.875Z</time></trkpt><trkpt lat="44.96771" lon="8.0610017"><ele>179.0</ele><time>2026-04-12T13:13:21.875Z</time></trkpt><trkpt lat="44.9675433" lon="8.061015"><ele>179.0</ele><time>2026-04-12T13:13:22.876Z</time></trkpt><trkpt lat="44.96738" lon="8.0610367"><ele>179.0</ele><time>2026-04-12T13:13:23.876Z</time></trkpt><trkpt lat="44.967215" lon="8.0610533"><ele>179.33333333333331</ele><time>2026-04-12T13:13:24.875Z</time></trkpt><trkpt lat="44.967045" lon="8.06108"><ele>179.66666666666666</ele><time>2026-04-12T13:13:25.875Z</time></trkpt><trkpt lat="44.9668783" lon="8.0611067"><ele>180.0</ele><time>2026-04-12T13:13:26.876Z</time></trkpt><trkpt lat="44.9667033" lon="8.0611233"><ele>179.33333333333334</ele><time>2026-04-12T13:13:27.876Z</time></trkpt><trkpt lat="44.9665417" lon="8.0611417"><ele>178.66666666666669</ele><time>2026-04-12T13:13:28.876Z</time></trkpt><trkpt lat="44.966375" lon="8.06116"><ele>178.0</ele><time>2026-04-12T13:13:29.876Z</time></trkpt><trkpt lat="44.9662117" lon="8.0611767"><ele>178.0</ele><time>2026-04-12T13:13:30.875Z</time></trkpt><trkpt lat="44.9660417" lon="8.061205"><ele>178.0</ele><time>2026-04-12T13:13:31.875Z</time></trkpt><trkpt lat="44.9658817" lon="8.061225"><ele>178.0</ele><time>2026-04-12T13:13:32.875Z</time></trkpt><trkpt lat="44.96572" lon="8.0612417"><ele>178.66666666666669</ele><time>2026-04-12T13:13:33.875Z</time></trkpt><trkpt lat="44.9655517" lon="8.061255"><ele>179.33333333333334</ele><time>2026-04-12T13:13:34.875Z</time></trkpt><trkpt lat="44.9653883" lon="8.0612783"><ele>180.0</ele><time>2026-04-12T13:13:35.875Z</time></trkpt><trkpt lat="44.9652267" lon="8.06131"><ele>180.0</ele><time>2026-04-12T13:13:36.875Z</time></trkpt><trkpt lat="44.9650583" lon="8.0613267"><ele>180.0</ele><time>2026-04-12T13:13:37.875Z</time></trkpt><trkpt lat="44.9648833" lon="8.0613267"><ele>180.0</ele><time>2026-04-12T13:13:38.876Z</time></trkpt><trkpt lat="44.96472" lon="8.0612933"><ele>181.0</ele><time>2026-04-12T13:13:39.875Z</time></trkpt><trkpt lat="44.9645583" lon="8.06124"><ele>182.0</ele><time>2026-04-12T13:13:40.875Z</time></trkpt><trkpt lat="44.9644067" lon="8.061175"><ele>183.0</ele><time>2026-04-12T13:13:41.875Z</time></trkpt><trkpt lat="44.9642533" lon="8.06111"><ele>183.33333333333334</ele><time>2026-04-12T13:13:42.876Z</time></trkpt><trkpt lat="44.96409" lon="8.0610567"><ele>183.66666666666669</ele><time>2026-04-12T13:13:43.876Z</time></trkpt><trkpt lat="44.963925" lon="8.0610017"><ele>184.0</ele><time>2026-04-12T13:13:44.875Z</time></trkpt><trkpt lat="44.9637633" lon="8.0609633"><ele>184.0</ele><time>2026-04-12T13:13:45.876Z</time></trkpt><trkpt lat="44.9635933" lon="8.060925"><ele>184.0</ele><time>2026-04-12T13:13:46.876Z</time></trkpt><trkpt lat="44.963435" lon="8.0608917"><ele>184.0</ele><time>2026-04-12T13:13:47.875Z</time></trkpt><trkpt lat="44.9632783" lon="8.0608383"><ele>185.0</ele><time>2026-04-12T13:13:48.876Z</time></trkpt><trkpt lat="44.963115" lon="8.0607833"><ele>186.0</ele><time>2026-04-12T13:13:49.875Z</time></trkpt><trkpt lat="44.9629533" lon="8.0607417"><ele>187.0</ele><time>2026-04-12T13:13:50.876Z</time></trkpt><trkpt lat="44.96279" lon="8.060695"><ele>192.66666666666669</ele><time>2026-04-12T13:13:51.876Z</time></trkpt><trkpt lat="44.96263" lon="8.06067"><ele>198.33333333333334</ele><time>2026-04-12T13:13:52.876Z</time></trkpt><trkpt lat="44.962475" lon="8.06065"><ele>204.0</ele><time>2026-04-12T13:13:53.875Z</time></trkpt><trkpt lat="44.9623083" lon="8.0606317"><ele>204.0</ele><time>2026-04-12T13:13:54.875Z</time></trkpt><trkpt lat="44.96215" lon="8.0606183"><ele>204.0</ele><time>2026-04-12T13:13:55.875Z</time></trkpt><trkpt lat="44.9619817" lon="8.0606017"><ele>204.0</ele><time>2026-04-12T13:13:56.875Z</time></trkpt><trkpt lat="44.9618167" lon="8.0605833"><ele>197.66666666666666</ele><time>2026-04-12T13:13:57.875Z</time></trkpt><trkpt lat="44.9616517" lon="8.060565"><ele>191.33333333333331</ele><time>2026-04-12T13:13:58.875Z</time></trkpt><trkpt lat="44.961485" lon="8.060555"><ele>185.0</ele><time>2026-04-12T13:13:59.875Z</time></trkpt><trkpt lat="44.96132" lon="8.060535"><ele>185.0</ele><time>2026-04-12T13:14:00.875Z</time></trkpt><trkpt lat="44.96115" lon="8.060505"><ele>185.0</ele><time>2026-04-12T13:14:01.876Z</time></trkpt><trkpt lat="44.96098" lon="8.0604783"><ele>185.0</ele><time>2026-04-12T13:14:02.875Z</time></trkpt><trkpt lat="44.9608167" lon="8.060465"><ele>184.0</ele><time>2026-04-12T13:14:03.876Z</time></trkpt><trkpt lat="44.96066" lon="8.060445"><ele>183.0</ele><time>2026-04-12T13:14:04.876Z</time></trkpt><trkpt lat="44.9605017" lon="8.0604217"><ele>182.0</ele><time>2026-04-12T13:14:05.875Z</time></trkpt><trkpt lat="44.9603517" lon="8.060405"><ele>182.0</ele><time>2026-04-12T13:14:06.876Z</time></trkpt><trkpt lat="44.960195" lon="8.0603983"><ele>182.0</ele><time>2026-04-12T13:14:07.875Z</time></trkpt><trkpt lat="44.96004" lon="8.060385"><ele>182.0</ele><time>2026-04-12T13:14:08.876Z</time></trkpt><trkpt lat="44.9598867" lon="8.0603683"><ele>185.33333333333331</ele><time>2026-04-12T13:14:09.875Z</time></trkpt><trkpt lat="44.95974" lon="8.06036"><ele>188.66666666666666</ele><time>2026-04-12T13:14:10.875Z</time></trkpt><trkpt lat="44.9595883" lon="8.06036"><ele>192.0</ele><time>2026-04-12T13:14:11.876Z</time></trkpt><trkpt lat="44.959435" lon="8.0603917"><ele>192.0</ele><time>2026-04-12T13:14:12.876Z</time></trkpt><trkpt lat="44.9592967" lon="8.0604167"><ele>192.0</ele><time>2026-04-12T13:14:13.875Z</time></trkpt><trkpt lat="44.9591667" lon="8.0604383"><ele>192.0</ele><time>2026-04-12T13:14:14.875Z</time></trkpt><trkpt lat="44.9590317" lon="8.0604283"><ele>192.0</ele><time>2026-04-12T13:14:15.876Z</time></trkpt><trkpt lat="44.9588817" lon="8.0604117"><ele>190.5</ele><time>2026-04-12T13:14:16.876Z</time></trkpt><trkpt lat="44.9587367" lon="8.0603833"><ele>189.0</ele><time>2026-04-12T13:14:17.875Z</time></trkpt><trkpt lat="44.9586017" lon="8.0603533"><ele>187.5</ele><time>2026-04-12T13:14:18.875Z</time></trkpt><trkpt lat="44.9584683" lon="8.0602883"><ele>186.0</ele><time>2026-04-12T13:14:19.875Z</time></trkpt><trkpt lat="44.95835" lon="8.0602183"><ele>186.0</ele><time>2026-04-12T13:14:20.875Z</time></trkpt><trkpt lat="44.9582533" lon="8.0601283"><ele>186.0</ele><time>2026-04-12T13:14:21.876Z</time></trkpt><trkpt lat="44.9581633" lon="8.06003"><ele>186.0</ele><time>2026-04-12T13:14:22.875Z</time></trkpt><trkpt lat="44.9580767" lon="8.059945"><ele>186.0</ele><time>2026-04-12T13:14:23.876Z</time></trkpt><trkpt lat="44.9579917" lon="8.0598567"><ele>186.0</ele><time>2026-04-12T13:14:24.875Z</time></trkpt><trkpt lat="44.9579017" lon="8.0598067"><ele>186.20000000000002</ele><time>2026-04-12T13:14:25.875Z</time></trkpt><trkpt lat="44.9577933" lon="8.059785"><ele>186.4</ele><time>2026-04-12T13:14:26.875Z</time></trkpt><trkpt lat="44.9576783" lon="8.0597833"><ele>186.6</ele><time>2026-04-12T13:14:27.876Z</time></trkpt><trkpt lat="44.9575683" lon="8.0598133"><ele>186.8</ele><time>2026-04-12T13:14:28.876Z</time></trkpt><trkpt lat="44.9574667" lon="8.0598483"><ele>187.0</ele><time>2026-04-12T13:14:29.876Z</time></trkpt><trkpt lat="44.9573567" lon="8.0598817"><ele>187.0</ele><time>2026-04-12T13:14:30.876Z</time></trkpt><trkpt lat="44.95725" lon="8.0599167"><ele>187.0</ele><time>2026-04-12T13:14:31.876Z</time></trkpt><trkpt lat="44.95715" lon="8.0599583"><ele>187.0</ele><time>2026-04-12T13:14:32.876Z</time></trkpt><trkpt lat="44.9570433" lon="8.0600167"><ele>187.0</ele><time>2026-04-12T13:14:33.876Z</time></trkpt><trkpt lat="44.9569517" lon="8.0600917"><ele>187.0</ele><time>2026-04-12T13:14:34.875Z</time></trkpt><trkpt lat="44.9568483" lon="8.0601833"><ele>188.0</ele><time>2026-04-12T13:14:35.875Z</time></trkpt><trkpt lat="44.9567383" lon="8.06028"><ele>189.0</ele><time>2026-04-12T13:14:36.875Z</time></trkpt><trkpt lat="44.956625" lon="8.0603683"><ele>190.0</ele><time>2026-04-12T13:14:37.876Z</time></trkpt><trkpt lat="44.9565133" lon="8.0604417"><ele>191.0</ele><time>2026-04-12T13:14:38.875Z</time></trkpt><trkpt lat="44.9563983" lon="8.0605083"><ele>191.0</ele><time>2026-04-12T13:14:39.875Z</time></trkpt><trkpt lat="44.9562883" lon="8.0605667"><ele>191.0</ele><time>2026-04-12T13:14:40.876Z</time></trkpt><trkpt lat="44.9561917" lon="8.060625"><ele>191.0</ele><time>2026-04-12T13:14:41.876Z</time></trkpt><trkpt lat="44.95609" lon="8.0606817"><ele>191.0</ele><time>2026-04-12T13:14:42.876Z</time></trkpt><trkpt lat="44.9559733" lon="8.0607283"><ele>187.5</ele><time>2026-04-12T13:14:43.876Z</time></trkpt><trkpt lat="44.9558483" lon="8.060785"><ele>184.0</ele><time>2026-04-12T13:14:44.875Z</time></trkpt><trkpt lat="44.955715" lon="8.0608117"><ele>180.5</ele><time>2026-04-12T13:14:45.876Z</time></trkpt><trkpt lat="44.955585" lon="8.0608333"><ele>177.0</ele><time>2026-04-12T13:14:46.876Z</time></trkpt><trkpt lat="44.955465" lon="8.06083"><ele>177.0</ele><time>2026-04-12T13:14:47.876Z</time></trkpt><trkpt lat="44.9553667" lon="8.06083"><ele>177.0</ele><time>2026-04-12T13:14:48.876Z</time></trkpt><trkpt lat="44.9552783" lon="8.0608283"><ele>177.0</ele><time>2026-04-12T13:14:49.876Z</time></trkpt><trkpt lat="44.9552033" lon="8.0608167"><ele>177.0</ele><time>2026-04-12T13:14:50.875Z</time></trkpt><trkpt lat="44.9551083" lon="8.0607683"><ele>177.0</ele><time>2026-04-12T13:14:52.875Z</time></trkpt><trkpt lat="44.9550633" lon="8.060655"><ele>179.6</ele><time>2026-04-12T13:14:54.875Z</time></trkpt><trkpt lat="44.9550417" lon="8.060515"><ele>182.2</ele><time>2026-04-12T13:14:56.875Z</time></trkpt><trkpt lat="44.9550433" lon="8.06035"><ele>184.8</ele><time>2026-04-12T13:14:58.875Z</time></trkpt><trkpt lat="44.9550517" lon="8.06026"><ele>187.4</ele><time>2026-04-12T13:14:59.876Z</time></trkpt><trkpt lat="44.9550767" lon="8.0600883"><ele>190.0</ele><time>2026-04-12T13:15:01.875Z</time></trkpt><trkpt lat="44.955085" lon="8.0599967"><ele>190.5</ele><time>2026-04-12T13:15:02.875Z</time></trkpt><trkpt lat="44.9551017" lon="8.0599017"><ele>191.0</ele><time>2026-04-12T13:15:03.876Z</time></trkpt><trkpt lat="44.955115" lon="8.0598117"><ele>191.5</ele><time>2026-04-12T13:15:04.876Z</time></trkpt><trkpt lat="44.95515" lon="8.0596433"><ele>192.0</ele><time>2026-04-12T13:15:06.875Z</time></trkpt><trkpt lat="44.9551667" lon="8.0595567"><ele>192.49999999999997</ele><time>2026-04-12T13:15:07.876Z</time></trkpt><trkpt lat="44.9551733" lon="8.059465"><ele>193.0</ele><time>2026-04-12T13:15:08.875Z</time></trkpt><trkpt lat="44.9551783" lon="8.0593733"><ele>192.99999999999997</ele><time>2026-04-12T13:15:09.876Z</time></trkpt><trkpt lat="44.9551867" lon="8.059195"><ele>193.0</ele><time>2026-04-12T13:15:11.875Z</time></trkpt><trkpt lat="44.9551817" lon="8.0591033"><ele>193.0</ele><time>2026-04-12T13:15:12.875Z</time></trkpt><trkpt lat="44.9551533" lon="8.0589283"><ele>193.0</ele><time>2026-04-12T13:15:14.875Z</time></trkpt><trkpt lat="44.9551317" lon="8.0588383"><ele>192.99999999999997</ele><time>2026-04-12T13:15:15.875Z</time></trkpt><trkpt lat="44.9551083" lon="8.058755"><ele>193.0</ele><time>2026-04-12T13:15:16.875Z</time></trkpt><trkpt lat="44.95509" lon="8.0586683"><ele>193.0</ele><time>2026-04-12T13:15:17.876Z</time></trkpt><trkpt lat="44.9550767" lon="8.0585767"><ele>193.0</ele><time>2026-04-12T13:15:18.875Z</time></trkpt><trkpt lat="44.95507" lon="8.0584267"><ele>193.0</ele><time>2026-04-12T13:15:20.876Z</time></trkpt><trkpt lat="44.9550633" lon="8.0583067"><ele>193.0</ele><time>2026-04-12T13:15:22.876Z</time></trkpt><trkpt lat="44.9550483" lon="8.0581967"><ele>197.0</ele><time>2026-04-12T13:15:25.875Z</time></trkpt></trkseg><trkseg><trkpt lat="44.9549967" lon="8.0581717"><ele>191.4</ele><time>2026-04-12T13:27:51.877Z</time></trkpt><trkpt lat="44.9550217" lon="8.0583533"><ele>191.8</ele><time>2026-04-12T13:28:05.876Z</time></trkpt><trkpt lat="44.9550383" lon="8.0585417"><ele>192.20000000000002</ele><time>2026-04-12T13:28:07.876Z</time></trkpt><trkpt lat="44.955045" lon="8.058645"><ele>192.60000000000002</ele><time>2026-04-12T13:28:08.876Z</time></trkpt><trkpt lat="44.9550633" lon="8.0587617"><ele>193.0</ele><time>2026-04-12T13:28:09.876Z</time></trkpt><trkpt lat="44.95508" lon="8.05887"><ele>193.00000000000003</ele><time>2026-04-12T13:28:10.877Z</time></trkpt><trkpt lat="44.955095" lon="8.0589667"><ele>193.0</ele><time>2026-04-12T13:28:11.877Z</time></trkpt><trkpt lat="44.9551117" lon="8.0590583"><ele>193.0</ele><time>2026-04-12T13:28:12.876Z</time></trkpt><trkpt lat="44.9551183" lon="8.0591567"><ele>193.0</ele><time>2026-04-12T13:28:13.877Z</time></trkpt><trkpt lat="44.95513" lon="8.0592667"><ele>193.0</ele><time>2026-04-12T13:28:14.877Z</time></trkpt><trkpt lat="44.95514" lon="8.0593767"><ele>193.00000000000003</ele><time>2026-04-12T13:28:15.876Z</time></trkpt><trkpt lat="44.955145" lon="8.059495"><ele>193.0</ele><time>2026-04-12T13:28:16.876Z</time></trkpt><trkpt lat="44.9551383" lon="8.05961"><ele>192.99999999999997</ele><time>2026-04-12T13:28:17.876Z</time></trkpt><trkpt lat="44.9551283" lon="8.0597283"><ele>193.0</ele><time>2026-04-12T13:28:18.877Z</time></trkpt><trkpt lat="44.955115" lon="8.0598467"><ele>193.0</ele><time>2026-04-12T13:28:19.877Z</time></trkpt><trkpt lat="44.955095" lon="8.0599683"><ele>193.0</ele><time>2026-04-12T13:28:20.877Z</time></trkpt><trkpt lat="44.9550683" lon="8.0600767"><ele>192.99999999999997</ele><time>2026-04-12T13:28:21.877Z</time></trkpt><trkpt lat="44.95505" lon="8.06019"><ele>193.0</ele><time>2026-04-12T13:28:22.876Z</time></trkpt><trkpt lat="44.95503" lon="8.0602967"><ele>190.66666666666666</ele><time>2026-04-12T13:28:23.876Z</time></trkpt><trkpt lat="44.9550167" lon="8.06039"><ele>188.33333333333331</ele><time>2026-04-12T13:28:24.877Z</time></trkpt><trkpt lat="44.9550183" lon="8.06056"><ele>186.0</ele><time>2026-04-12T13:28:26.876Z</time></trkpt><trkpt lat="44.955005" lon="8.060675"><ele>183.66666666666666</ele><time>2026-04-12T13:28:28.876Z</time></trkpt><trkpt lat="44.9549933" lon="8.0607717"><ele>181.33333333333331</ele><time>2026-04-12T13:28:31.876Z</time></trkpt><trkpt lat="44.9549183" lon="8.0608217"><ele>179.0</ele><time>2026-04-12T13:28:34.877Z</time></trkpt><trkpt lat="44.9547983" lon="8.0608383"><ele>178.0</ele><time>2026-04-12T13:28:36.877Z</time></trkpt><trkpt lat="44.9547283" lon="8.0608617"><ele>177.0</ele><time>2026-04-12T13:28:37.876Z</time></trkpt><trkpt lat="44.95465" lon="8.060905"><ele>176.0</ele><time>2026-04-12T13:28:38.876Z</time></trkpt><trkpt lat="44.95457" lon="8.06096"><ele>175.0</ele><time>2026-04-12T13:28:39.876Z</time></trkpt><trkpt lat="44.9545033" lon="8.0610283"><ele>174.0</ele><time>2026-04-12T13:28:40.876Z</time></trkpt><trkpt lat="44.954445" lon="8.0610983"><ele>173.0</ele><time>2026-04-12T13:28:41.877Z</time></trkpt><trkpt lat="44.954405" lon="8.06117"><ele>173.0</ele><time>2026-04-12T13:28:42.876Z</time></trkpt><trkpt lat="44.95437" lon="8.0612483"><ele>173.0</ele><time>2026-04-12T13:28:43.876Z</time></trkpt><trkpt lat="44.9542917" lon="8.0613317"><ele>173.0</ele><time>2026-04-12T13:28:45.877Z</time></trkpt><trkpt lat="44.954165" lon="8.0613517"><ele>173.0</ele><time>2026-04-12T13:28:47.876Z</time></trkpt><trkpt lat="44.95409" lon="8.0613767"><ele>173.0</ele><time>2026-04-12T13:28:48.876Z</time></trkpt><trkpt lat="44.954015" lon="8.0614067"><ele>173.0</ele><time>2026-04-12T13:28:49.876Z</time></trkpt><trkpt lat="44.9539283" lon="8.061435"><ele>173.2</ele><time>2026-04-12T13:28:50.876Z</time></trkpt><trkpt lat="44.9538333" lon="8.061465"><ele>173.4</ele><time>2026-04-12T13:28:51.876Z</time></trkpt><trkpt lat="44.9537317" lon="8.0614867"><ele>173.6</ele><time>2026-04-12T13:28:52.876Z</time></trkpt><trkpt lat="44.9536283" lon="8.0615067"><ele>173.79999999999998</ele><time>2026-04-12T13:28:53.877Z</time></trkpt><trkpt lat="44.953525" lon="8.0615283"><ele>174.0</ele><time>2026-04-12T13:28:54.876Z</time></trkpt><trkpt lat="44.953425" lon="8.0615383"><ele>174.16666666666666</ele><time>2026-04-12T13:28:55.876Z</time></trkpt><trkpt lat="44.9533383" lon="8.0615367"><ele>174.33333333333334</ele><time>2026-04-12T13:28:56.877Z</time></trkpt><trkpt lat="44.9532717" lon="8.0615317"><ele>174.5</ele><time>2026-04-12T13:28:57.877Z</time></trkpt><trkpt lat="44.953205" lon="8.061535"><ele>174.66666666666669</ele><time>2026-04-12T13:28:58.877Z</time></trkpt><trkpt lat="44.953125" lon="8.0615433"><ele>174.83333333333334</ele><time>2026-04-12T13:28:59.877Z</time></trkpt><trkpt lat="44.9530467" lon="8.0615567"><ele>175.0</ele><time>2026-04-12T13:29:00.876Z</time></trkpt><trkpt lat="44.9529633" lon="8.0615783"><ele>175.0</ele><time>2026-04-12T13:29:01.877Z</time></trkpt><trkpt lat="44.952875" lon="8.0615933"><ele>175.0</ele><time>2026-04-12T13:29:02.876Z</time></trkpt><trkpt lat="44.95279" lon="8.0616083"><ele>175.0</ele><time>2026-04-12T13:29:03.876Z</time></trkpt><trkpt lat="44.952705" lon="8.0616217"><ele>175.0</ele><time>2026-04-12T13:29:04.877Z</time></trkpt><trkpt lat="44.952625" lon="8.0616317"><ele>175.0</ele><time>2026-04-12T13:29:05.877Z</time></trkpt><trkpt lat="44.9525467" lon="8.0616383"><ele>175.0</ele><time>2026-04-12T13:29:06.876Z</time></trkpt><trkpt lat="44.9524733" lon="8.0616383"><ele>174.28571428571428</ele><time>2026-04-12T13:29:07.876Z</time></trkpt><trkpt lat="44.9524033" lon="8.0616433"><ele>173.57142857142856</ele><time>2026-04-12T13:29:08.877Z</time></trkpt><trkpt lat="44.9523283" lon="8.0616417"><ele>172.85714285714286</ele><time>2026-04-12T13:29:09.877Z</time></trkpt><trkpt lat="44.9522483" lon="8.0616433"><ele>172.14285714285714</ele><time>2026-04-12T13:29:10.877Z</time></trkpt><trkpt lat="44.9521717" lon="8.0616433"><ele>171.42857142857142</ele><time>2026-04-12T13:29:11.876Z</time></trkpt><trkpt lat="44.9520967" lon="8.0616333"><ele>170.71428571428572</ele><time>2026-04-12T13:29:12.876Z</time></trkpt><trkpt lat="44.95203" lon="8.06163"><ele>170.0</ele><time>2026-04-12T13:29:13.876Z</time></trkpt><trkpt lat="44.9519633" lon="8.0616283"><ele>170.0</ele><time>2026-04-12T13:29:14.877Z</time></trkpt><trkpt lat="44.9518933" lon="8.061625"><ele>170.0</ele><time>2026-04-12T13:29:15.876Z</time></trkpt><trkpt lat="44.9518233" lon="8.06161"><ele>170.0</ele><time>2026-04-12T13:29:16.876Z</time></trkpt><trkpt lat="44.951745" lon="8.0615783"><ele>170.0</ele><time>2026-04-12T13:29:17.876Z</time></trkpt><trkpt lat="44.9516617" lon="8.0615417"><ele>170.0</ele><time>2026-04-12T13:29:18.876Z</time></trkpt><trkpt lat="44.9515767" lon="8.061495"><ele>170.0</ele><time>2026-04-12T13:29:19.876Z</time></trkpt><trkpt lat="44.9514783" lon="8.0614517"><ele>170.8</ele><time>2026-04-12T13:29:20.877Z</time></trkpt><trkpt lat="44.9513883" lon="8.06139"><ele>171.6</ele><time>2026-04-12T13:29:21.876Z</time></trkpt><trkpt lat="44.951295" lon="8.0613483"><ele>172.39999999999998</ele><time>2026-04-12T13:29:22.877Z</time></trkpt><trkpt lat="44.951195" lon="8.0613033"><ele>173.2</ele><time>2026-04-12T13:29:23.877Z</time></trkpt><trkpt lat="44.9510917" lon="8.06126"><ele>174.0</ele><time>2026-04-12T13:29:24.877Z</time></trkpt><trkpt lat="44.950985" lon="8.06121"><ele>174.0</ele><time>2026-04-12T13:29:25.877Z</time></trkpt><trkpt lat="44.9508833" lon="8.0611617"><ele>174.0</ele><time>2026-04-12T13:29:26.877Z</time></trkpt><trkpt lat="44.95079" lon="8.0611033"><ele>174.0</ele><time>2026-04-12T13:29:27.876Z</time></trkpt><trkpt lat="44.9507" lon="8.0610567"><ele>174.0</ele><time>2026-04-12T13:29:28.877Z</time></trkpt><trkpt lat="44.9506117" lon="8.0610267"><ele>174.0</ele><time>2026-04-12T13:29:29.877Z</time></trkpt><trkpt lat="44.9505117" lon="8.061015"><ele>174.2</ele><time>2026-04-12T13:29:30.877Z</time></trkpt><trkpt lat="44.9504017" lon="8.0610167"><ele>174.39999999999998</ele><time>2026-04-12T13:29:31.876Z</time></trkpt><trkpt lat="44.950315" lon="8.0610567"><ele>174.6</ele><time>2026-04-12T13:29:32.876Z</time></trkpt><trkpt lat="44.9502133" lon="8.0611083"><ele>174.8</ele><time>2026-04-12T13:29:33.876Z</time></trkpt><trkpt lat="44.9501067" lon="8.06117"><ele>175.0</ele><time>2026-04-12T13:29:34.877Z</time></trkpt><trkpt lat="44.950005" lon="8.0612383"><ele>175.33333333333334</ele><time>2026-04-12T13:29:35.876Z</time></trkpt><trkpt lat="44.9499233" lon="8.0613167"><ele>175.66666666666669</ele><time>2026-04-12T13:29:36.876Z</time></trkpt><trkpt lat="44.9498617" lon="8.0613833"><ele>176.0</ele><time>2026-04-12T13:29:37.876Z</time></trkpt><trkpt lat="44.9497933" lon="8.0614317"><ele>176.33333333333334</ele><time>2026-04-12T13:29:38.876Z</time></trkpt><trkpt lat="44.9497083" lon="8.061465"><ele>176.66666666666666</ele><time>2026-04-12T13:29:39.876Z</time></trkpt><trkpt lat="44.9496117" lon="8.06148"><ele>177.0</ele><time>2026-04-12T13:29:40.876Z</time></trkpt><trkpt lat="44.9495033" lon="8.0614717"><ele>177.0</ele><time>2026-04-12T13:29:41.876Z</time></trkpt><trkpt lat="44.9493933" lon="8.06145"><ele>177.0</ele><time>2026-04-12T13:29:42.876Z</time></trkpt><trkpt lat="44.9492817" lon="8.0614217"><ele>177.0</ele><time>2026-04-12T13:29:43.877Z</time></trkpt><trkpt lat="44.9491683" lon="8.0614017"><ele>177.0</ele><time>2026-04-12T13:29:44.877Z</time></trkpt><trkpt lat="44.9490483" lon="8.0613867"><ele>176.0</ele><time>2026-04-12T13:29:45.877Z</time></trkpt><trkpt lat="44.9489183" lon="8.0613833"><ele>175.0</ele><time>2026-04-12T13:29:46.876Z</time></trkpt><trkpt lat="44.9487867" lon="8.0613883"><ele>174.0</ele><time>2026-04-12T13:29:47.876Z</time></trkpt><trkpt lat="44.9486617" lon="8.0613967"><ele>173.0</ele><time>2026-04-12T13:29:48.876Z</time></trkpt><trkpt lat="44.9485383" lon="8.0614017"><ele>173.0</ele><time>2026-04-12T13:29:49.877Z</time></trkpt><trkpt lat="44.94841" lon="8.0613967"><ele>173.0</ele><time>2026-04-12T13:29:50.876Z</time></trkpt><trkpt lat="44.9482783" lon="8.0614167"><ele>173.0</ele><time>2026-04-12T13:29:51.876Z</time></trkpt><trkpt lat="44.948155" lon="8.06146"><ele>173.0</ele><time>2026-04-12T13:29:52.876Z</time></trkpt><trkpt lat="44.948045" lon="8.0615067"><ele>172.60000000000002</ele><time>2026-04-12T13:29:53.877Z</time></trkpt><trkpt lat="44.947945" lon="8.061545"><ele>172.20000000000002</ele><time>2026-04-12T13:29:54.877Z</time></trkpt><trkpt lat="44.9478467" lon="8.0615833"><ele>171.8</ele><time>2026-04-12T13:29:55.876Z</time></trkpt><trkpt lat="44.947745" lon="8.061605"><ele>171.4</ele><time>2026-04-12T13:29:56.877Z</time></trkpt><trkpt lat="44.9476383" lon="8.061605"><ele>171.0</ele><time>2026-04-12T13:29:57.876Z</time></trkpt><trkpt lat="44.94751" lon="8.061585"><ele>171.0</ele><time>2026-04-12T13:29:58.876Z</time></trkpt><trkpt lat="44.9473717" lon="8.061555"><ele>171.0</ele><time>2026-04-12T13:29:59.876Z</time></trkpt><trkpt lat="44.94725" lon="8.0615233"><ele>171.0</ele><time>2026-04-12T13:30:00.877Z</time></trkpt><trkpt lat="44.947135" lon="8.0614833"><ele>171.0</ele><time>2026-04-12T13:30:01.877Z</time></trkpt><trkpt lat="44.9470383" lon="8.06143"><ele>171.0</ele><time>2026-04-12T13:30:02.877Z</time></trkpt><trkpt lat="44.94696" lon="8.0613583"><ele>171.0</ele><time>2026-04-12T13:30:03.877Z</time></trkpt><trkpt lat="44.9468817" lon="8.0612683"><ele>171.0</ele><time>2026-04-12T13:30:04.876Z</time></trkpt><trkpt lat="44.9467967" lon="8.0611583"><ele>171.0</ele><time>2026-04-12T13:30:05.876Z</time></trkpt><trkpt lat="44.9467017" lon="8.0610417"><ele>171.0</ele><time>2026-04-12T13:30:06.876Z</time></trkpt><trkpt lat="44.946605" lon="8.0609183"><ele>171.0</ele><time>2026-04-12T13:30:07.876Z</time></trkpt><trkpt lat="44.9465067" lon="8.0608"><ele>171.0</ele><time>2026-04-12T13:30:08.876Z</time></trkpt><trkpt lat="44.9464033" lon="8.06068"><ele>171.0</ele><time>2026-04-12T13:30:09.876Z</time></trkpt><trkpt lat="44.94631" lon="8.0605833"><ele>171.0</ele><time>2026-04-12T13:30:10.876Z</time></trkpt><trkpt lat="44.94622" lon="8.0605017"><ele>171.0</ele><time>2026-04-12T13:30:11.876Z</time></trkpt><trkpt lat="44.9461367" lon="8.0604167"><ele>171.0</ele><time>2026-04-12T13:30:12.877Z</time></trkpt><trkpt lat="44.9460433" lon="8.0603367"><ele>171.0</ele><time>2026-04-12T13:30:13.876Z</time></trkpt><trkpt lat="44.9459583" lon="8.0602467"><ele>171.0</ele><time>2026-04-12T13:30:14.877Z</time></trkpt><trkpt lat="44.94587" lon="8.06015"><ele>171.0</ele><time>2026-04-12T13:30:15.876Z</time></trkpt><trkpt lat="44.945765" lon="8.0600583"><ele>170.75</ele><time>2026-04-12T13:30:16.877Z</time></trkpt><trkpt lat="44.9456567" lon="8.0599833"><ele>170.5</ele><time>2026-04-12T13:30:17.876Z</time></trkpt><trkpt lat="44.9455417" lon="8.0599283"><ele>170.25</ele><time>2026-04-12T13:30:18.877Z</time></trkpt><trkpt lat="44.94542" lon="8.0598983"><ele>170.0</ele><time>2026-04-12T13:30:19.877Z</time></trkpt><trkpt lat="44.9452967" lon="8.0598883"><ele>170.75</ele><time>2026-04-12T13:30:20.876Z</time></trkpt><trkpt lat="44.9451683" lon="8.0599"><ele>171.5</ele><time>2026-04-12T13:30:21.877Z</time></trkpt><trkpt lat="44.945035" lon="8.0599233"><ele>172.25</ele><time>2026-04-12T13:30:22.876Z</time></trkpt><trkpt lat="44.9449017" lon="8.059965"><ele>173.0</ele><time>2026-04-12T13:30:23.877Z</time></trkpt><trkpt lat="44.9447617" lon="8.060005"><ele>173.0</ele><time>2026-04-12T13:30:24.876Z</time></trkpt><trkpt lat="44.9446167" lon="8.06006"><ele>173.0</ele><time>2026-04-12T13:30:25.876Z</time></trkpt><trkpt lat="44.944475" lon="8.060125"><ele>173.0</ele><time>2026-04-12T13:30:26.877Z</time></trkpt><trkpt lat="44.9443267" lon="8.0601917"><ele>172.5</ele><time>2026-04-12T13:30:27.877Z</time></trkpt><trkpt lat="44.9441933" lon="8.0602533"><ele>172.0</ele><time>2026-04-12T13:30:28.876Z</time></trkpt><trkpt lat="44.94407" lon="8.0603167"><ele>171.5</ele><time>2026-04-12T13:30:29.876Z</time></trkpt><trkpt lat="44.9439467" lon="8.0603633"><ele>171.0</ele><time>2026-04-12T13:30:30.877Z</time></trkpt><trkpt lat="44.943825" lon="8.060395"><ele>171.0</ele><time>2026-04-12T13:30:31.876Z</time></trkpt><trkpt lat="44.9437" lon="8.0604417"><ele>171.0</ele><time>2026-04-12T13:30:32.876Z</time></trkpt><trkpt lat="44.9435683" lon="8.0604783"><ele>171.0</ele><time>2026-04-12T13:30:33.877Z</time></trkpt><trkpt lat="44.9434267" lon="8.0605333"><ele>171.0</ele><time>2026-04-12T13:30:34.877Z</time></trkpt><trkpt lat="44.9432917" lon="8.0605583"><ele>170.25</ele><time>2026-04-12T13:30:35.877Z</time></trkpt><trkpt lat="44.9431517" lon="8.0605767"><ele>169.5</ele><time>2026-04-12T13:30:36.876Z</time></trkpt><trkpt lat="44.9430117" lon="8.060585"><ele>168.75</ele><time>2026-04-12T13:30:37.876Z</time></trkpt><trkpt lat="44.942865" lon="8.0605833"><ele>168.0</ele><time>2026-04-12T13:30:38.877Z</time></trkpt><trkpt lat="44.942715" lon="8.0605617"><ele>168.0</ele><time>2026-04-12T13:30:39.876Z</time></trkpt><trkpt lat="44.9425633" lon="8.060535"><ele>168.0</ele><time>2026-04-12T13:30:40.876Z</time></trkpt><trkpt lat="44.9424217" lon="8.0605183"><ele>168.0</ele><time>2026-04-12T13:30:41.876Z</time></trkpt><trkpt lat="44.94228" lon="8.060495"><ele>168.0</ele><time>2026-04-12T13:30:42.877Z</time></trkpt><trkpt lat="44.9421383" lon="8.0604633"><ele>168.0</ele><time>2026-04-12T13:30:43.877Z</time></trkpt><trkpt lat="44.9420033" lon="8.0604417"><ele>168.0</ele><time>2026-04-12T13:30:44.876Z</time></trkpt><trkpt lat="44.941875" lon="8.06042"><ele>168.0</ele><time>2026-04-12T13:30:45.876Z</time></trkpt><trkpt lat="44.941745" lon="8.0604"><ele>168.0</ele><time>2026-04-12T13:30:46.877Z</time></trkpt><trkpt lat="44.94161" lon="8.0603867"><ele>168.0</ele><time>2026-04-12T13:30:47.876Z</time></trkpt><trkpt lat="44.9414683" lon="8.0603633"><ele>168.0</ele><time>2026-04-12T13:30:48.876Z</time></trkpt><trkpt lat="44.9413267" lon="8.06035"><ele>168.0</ele><time>2026-04-12T13:30:49.876Z</time></trkpt><trkpt lat="44.9411867" lon="8.0603433"><ele>168.0</ele><time>2026-04-12T13:30:50.876Z</time></trkpt><trkpt lat="44.9410467" lon="8.06035"><ele>168.0</ele><time>2026-04-12T13:30:51.876Z</time></trkpt><trkpt lat="44.9409033" lon="8.0603733"><ele>168.0</ele><time>2026-04-12T13:30:52.877Z</time></trkpt><trkpt lat="44.9407583" lon="8.0604033"><ele>168.0</ele><time>2026-04-12T13:30:53.876Z</time></trkpt><trkpt lat="44.940615" lon="8.0604533"><ele>168.0</ele><time>2026-04-12T13:30:54.877Z</time></trkpt><trkpt lat="44.9404717" lon="8.060505"><ele>167.5</ele><time>2026-04-12T13:30:55.876Z</time></trkpt><trkpt lat="44.9403267" lon="8.060565"><ele>167.0</ele><time>2026-04-12T13:30:56.876Z</time></trkpt><trkpt lat="44.9401833" lon="8.0606117"><ele>166.5</ele><time>2026-04-12T13:30:57.877Z</time></trkpt><trkpt lat="44.9400383" lon="8.060665"><ele>166.0</ele><time>2026-04-12T13:30:58.876Z</time></trkpt><trkpt lat="44.9399" lon="8.06075"><ele>166.5</ele><time>2026-04-12T13:30:59.877Z</time></trkpt><trkpt lat="44.9397633" lon="8.06083"><ele>167.0</ele><time>2026-04-12T13:31:00.876Z</time></trkpt><trkpt lat="44.9396283" lon="8.06092"><ele>167.5</ele><time>2026-04-12T13:31:01.876Z</time></trkpt><trkpt lat="44.9395" lon="8.0610183"><ele>168.0</ele><time>2026-04-12T13:31:02.876Z</time></trkpt><trkpt lat="44.9393783" lon="8.06111"><ele>168.0</ele><time>2026-04-12T13:31:03.876Z</time></trkpt><trkpt lat="44.9392617" lon="8.0612"><ele>168.0</ele><time>2026-04-12T13:31:04.876Z</time></trkpt><trkpt lat="44.9391383" lon="8.061295"><ele>168.0</ele><time>2026-04-12T13:31:05.876Z</time></trkpt><trkpt lat="44.93901" lon="8.0613833"><ele>168.0</ele><time>2026-04-12T13:31:06.877Z</time></trkpt><trkpt lat="44.9388667" lon="8.06146"><ele>167.66666666666666</ele><time>2026-04-12T13:31:07.876Z</time></trkpt><trkpt lat="44.93873" lon="8.0615117"><ele>167.33333333333331</ele><time>2026-04-12T13:31:08.877Z</time></trkpt><trkpt lat="44.93858" lon="8.0615783"><ele>167.0</ele><time>2026-04-12T13:31:09.877Z</time></trkpt><trkpt lat="44.93843" lon="8.06162"><ele>166.33333333333331</ele><time>2026-04-12T13:31:10.876Z</time></trkpt><trkpt lat="44.9382733" lon="8.0616683"><ele>165.66666666666666</ele><time>2026-04-12T13:31:11.877Z</time></trkpt><trkpt lat="44.9381283" lon="8.0617167"><ele>165.0</ele><time>2026-04-12T13:31:12.876Z</time></trkpt><trkpt lat="44.9379717" lon="8.0617667"><ele>165.0</ele><time>2026-04-12T13:31:13.876Z</time></trkpt><trkpt lat="44.9378267" lon="8.0618267"><ele>165.0</ele><time>2026-04-12T13:31:14.876Z</time></trkpt><trkpt lat="44.9376767" lon="8.0618783"><ele>165.0</ele><time>2026-04-12T13:31:15.877Z</time></trkpt><trkpt lat="44.9375383" lon="8.0619267"><ele>165.0</ele><time>2026-04-12T13:31:16.876Z</time></trkpt><trkpt lat="44.9374" lon="8.0619783"><ele>165.75</ele><time>2026-04-12T13:31:17.876Z</time></trkpt><trkpt lat="44.9372567" lon="8.0620233"><ele>166.5</ele><time>2026-04-12T13:31:18.877Z</time></trkpt><trkpt lat="44.9371183" lon="8.062075"><ele>167.25</ele><time>2026-04-12T13:31:19.876Z</time></trkpt><trkpt lat="44.9369667" lon="8.0621117"><ele>168.0</ele><time>2026-04-12T13:31:20.876Z</time></trkpt><trkpt lat="44.93682" lon="8.0621567"><ele>168.5</ele><time>2026-04-12T13:31:21.877Z</time></trkpt><trkpt lat="44.93667" lon="8.0621983"><ele>169.0</ele><time>2026-04-12T13:31:22.877Z</time></trkpt><trkpt lat="44.9365267" lon="8.06224"><ele>169.5</ele><time>2026-04-12T13:31:23.877Z</time></trkpt><trkpt lat="44.9363967" lon="8.062275"><ele>170.0</ele><time>2026-04-12T13:31:24.877Z</time></trkpt><trkpt lat="44.9362667" lon="8.0623"><ele>170.0</ele><time>2026-04-12T13:31:25.876Z</time></trkpt><trkpt lat="44.9361383" lon="8.0623333"><ele>170.0</ele><time>2026-04-12T13:31:26.877Z</time></trkpt><trkpt lat="44.936015" lon="8.0623617"><ele>170.0</ele><time>2026-04-12T13:31:27.876Z</time></trkpt><trkpt lat="44.9358833" lon="8.0623683"><ele>170.0</ele><time>2026-04-12T13:31:28.876Z</time></trkpt><trkpt lat="44.93576" lon="8.0623633"><ele>169.25</ele><time>2026-04-12T13:31:29.876Z</time></trkpt><trkpt lat="44.9356333" lon="8.062355"><ele>168.5</ele><time>2026-04-12T13:31:30.876Z</time></trkpt><trkpt lat="44.9355067" lon="8.0623433"><ele>167.75</ele><time>2026-04-12T13:31:31.876Z</time></trkpt><trkpt lat="44.93539" lon="8.06234"><ele>167.0</ele><time>2026-04-12T13:31:32.877Z</time></trkpt><trkpt lat="44.9352867" lon="8.06233"><ele>167.0</ele><time>2026-04-12T13:31:33.877Z</time></trkpt><trkpt lat="44.9351883" lon="8.0623217"><ele>167.0</ele><time>2026-04-12T13:31:34.876Z</time></trkpt><trkpt lat="44.93511" lon="8.0623233"><ele>167.0</ele><time>2026-04-12T13:31:35.876Z</time></trkpt><trkpt lat="44.935025" lon="8.0623283"><ele>167.0</ele><time>2026-04-12T13:31:36.877Z</time></trkpt><trkpt lat="44.934945" lon="8.0623317"><ele>167.0</ele><time>2026-04-12T13:31:37.876Z</time></trkpt><trkpt lat="44.9348667" lon="8.0623267"><ele>167.0</ele><time>2026-04-12T13:31:38.876Z</time></trkpt><trkpt lat="44.9348" lon="8.0623283"><ele>166.33333333333331</ele><time>2026-04-12T13:31:39.876Z</time></trkpt><trkpt lat="44.9347333" lon="8.0623133"><ele>165.66666666666666</ele><time>2026-04-12T13:31:40.876Z</time></trkpt><trkpt lat="44.934635" lon="8.0623083"><ele>165.0</ele><time>2026-04-12T13:31:42.876Z</time></trkpt><trkpt lat="44.9345633" lon="8.0622917"><ele>164.33333333333334</ele><time>2026-04-12T13:31:45.876Z</time></trkpt><trkpt lat="44.93453" lon="8.0621683"><ele>163.66666666666669</ele><time>2026-04-12T13:32:31.876Z</time></trkpt><trkpt lat="44.93453" lon="8.0620717"><ele>163.0</ele><time>2026-04-12T13:32:32.877Z</time></trkpt><trkpt lat="44.9345267" lon="8.061955"><ele>163.0</ele><time>2026-04-12T13:32:33.877Z</time></trkpt><trkpt lat="44.934535" lon="8.0618333"><ele>163.0</ele><time>2026-04-12T13:32:34.876Z</time></trkpt><trkpt lat="44.9345583" lon="8.0617033"><ele>163.0</ele><time>2026-04-12T13:32:35.876Z</time></trkpt><trkpt lat="44.9345917" lon="8.06157"><ele>163.0</ele><time>2026-04-12T13:32:36.877Z</time></trkpt><trkpt lat="44.93462" lon="8.061425"><ele>163.0</ele><time>2026-04-12T13:32:37.876Z</time></trkpt><trkpt lat="44.9346617" lon="8.061265"><ele>163.25</ele><time>2026-04-12T13:32:38.877Z</time></trkpt><trkpt lat="44.9347083" lon="8.0611"><ele>163.5</ele><time>2026-04-12T13:32:39.876Z</time></trkpt><trkpt lat="44.93476" lon="8.0609317"><ele>163.75</ele><time>2026-04-12T13:32:40.876Z</time></trkpt><trkpt lat="44.9348083" lon="8.0607417"><ele>164.0</ele><time>2026-04-12T13:32:41.877Z</time></trkpt><trkpt lat="44.9348567" lon="8.060545"><ele>164.25</ele><time>2026-04-12T13:32:42.877Z</time></trkpt><trkpt lat="44.9349167" lon="8.0603517"><ele>164.5</ele><time>2026-04-12T13:32:43.876Z</time></trkpt><trkpt lat="44.9349733" lon="8.0601567"><ele>164.75</ele><time>2026-04-12T13:32:44.877Z</time></trkpt><trkpt lat="44.93503" lon="8.05996"><ele>165.0</ele><time>2026-04-12T13:32:45.876Z</time></trkpt><trkpt lat="44.9350767" lon="8.0597583"><ele>165.5</ele><time>2026-04-12T13:32:46.876Z</time></trkpt><trkpt lat="44.9351233" lon="8.0595533"><ele>166.0</ele><time>2026-04-12T13:32:47.876Z</time></trkpt><trkpt lat="44.9351683" lon="8.05935"><ele>166.5</ele><time>2026-04-12T13:32:48.876Z</time></trkpt><trkpt lat="44.9352083" lon="8.0591533"><ele>167.0</ele><time>2026-04-12T13:32:49.877Z</time></trkpt><trkpt lat="44.935245" lon="8.0589483"><ele>167.33333333333331</ele><time>2026-04-12T13:32:50.876Z</time></trkpt><trkpt lat="44.93528" lon="8.058735"><ele>167.66666666666666</ele><time>2026-04-12T13:32:51.876Z</time></trkpt><trkpt lat="44.9353183" lon="8.0585183"><ele>168.0</ele><time>2026-04-12T13:32:52.876Z</time></trkpt><trkpt lat="44.9353433" lon="8.058305"><ele>168.0</ele><time>2026-04-12T13:32:53.877Z</time></trkpt><trkpt lat="44.9353767" lon="8.0580983"><ele>168.0</ele><time>2026-04-12T13:32:54.877Z</time></trkpt><trkpt lat="44.9354133" lon="8.0578933"><ele>168.0</ele><time>2026-04-12T13:32:55.876Z</time></trkpt><trkpt lat="44.9354617" lon="8.0576717"><ele>168.0</ele><time>2026-04-12T13:32:56.876Z</time></trkpt><trkpt lat="44.935505" lon="8.057475"><ele>168.0</ele><time>2026-04-12T13:32:57.876Z</time></trkpt><trkpt lat="44.9355567" lon="8.0572767"><ele>168.0</ele><time>2026-04-12T13:32:58.876Z</time></trkpt><trkpt lat="44.9356017" lon="8.0570733"><ele>168.0</ele><time>2026-04-12T13:32:59.876Z</time></trkpt><trkpt lat="44.9356383" lon="8.0568617"><ele>168.0</ele><time>2026-04-12T13:33:00.877Z</time></trkpt><trkpt lat="44.9356833" lon="8.0566467"><ele>168.0</ele><time>2026-04-12T13:33:01.876Z</time></trkpt><trkpt lat="44.93572" lon="8.0564317"><ele>168.0</ele><time>2026-04-12T13:33:02.877Z</time></trkpt><trkpt lat="44.9357533" lon="8.05622"><ele>168.0</ele><time>2026-04-12T13:33:03.876Z</time></trkpt><trkpt lat="44.935795" lon="8.05601"><ele>168.0</ele><time>2026-04-12T13:33:04.876Z</time></trkpt><trkpt lat="44.935835" lon="8.0558083"><ele>168.0</ele><time>2026-04-12T13:33:05.876Z</time></trkpt><trkpt lat="44.9358967" lon="8.055615"><ele>168.0</ele><time>2026-04-12T13:33:06.876Z</time></trkpt><trkpt lat="44.93595" lon="8.0554217"><ele>168.0</ele><time>2026-04-12T13:33:07.877Z</time></trkpt><trkpt lat="44.9360017" lon="8.0552333"><ele>168.0</ele><time>2026-04-12T13:33:08.877Z</time></trkpt><trkpt lat="44.936055" lon="8.0550567"><ele>168.0</ele><time>2026-04-12T13:33:09.876Z</time></trkpt><trkpt lat="44.9361" lon="8.0548783"><ele>168.0</ele><time>2026-04-12T13:33:10.877Z</time></trkpt><trkpt lat="44.9361367" lon="8.0547133"><ele>168.0</ele><time>2026-04-12T13:33:11.876Z</time></trkpt><trkpt lat="44.9361817" lon="8.0545667"><ele>168.0</ele><time>2026-04-12T13:33:12.877Z</time></trkpt><trkpt lat="44.9362283" lon="8.0544433"><ele>168.0</ele><time>2026-04-12T13:33:13.876Z</time></trkpt><trkpt lat="44.9362967" lon="8.0543533"><ele>168.0</ele><time>2026-04-12T13:33:14.876Z</time></trkpt><trkpt lat="44.9363767" lon="8.0543167"><ele>168.0</ele><time>2026-04-12T13:33:15.876Z</time></trkpt><trkpt lat="44.9364683" lon="8.054325"><ele>168.0</ele><time>2026-04-12T13:33:16.876Z</time></trkpt><trkpt lat="44.936565" lon="8.05437"><ele>168.0</ele><time>2026-04-12T13:33:17.876Z</time></trkpt><trkpt lat="44.9366783" lon="8.0544233"><ele>168.0</ele><time>2026-04-12T13:33:18.876Z</time></trkpt><trkpt lat="44.93679" lon="8.0544433"><ele>168.0</ele><time>2026-04-12T13:33:19.876Z</time></trkpt><trkpt lat="44.936895" lon="8.0544167"><ele>169.4</ele><time>2026-04-12T13:33:20.876Z</time></trkpt><trkpt lat="44.936985" lon="8.0543517"><ele>170.8</ele><time>2026-04-12T13:33:21.876Z</time></trkpt><trkpt lat="44.93705" lon="8.0542433"><ele>172.2</ele><time>2026-04-12T13:33:22.876Z</time></trkpt><trkpt lat="44.937095" lon="8.05411"><ele>173.6</ele><time>2026-04-12T13:33:23.877Z</time></trkpt><trkpt lat="44.937135" lon="8.0539567"><ele>175.0</ele><time>2026-04-12T13:33:24.876Z</time></trkpt><trkpt lat="44.937165" lon="8.05379"><ele>175.0</ele><time>2026-04-12T13:33:25.876Z</time></trkpt><trkpt lat="44.9371967" lon="8.0536183"><ele>175.0</ele><time>2026-04-12T13:33:26.876Z</time></trkpt><trkpt lat="44.9372283" lon="8.05344"><ele>175.0</ele><time>2026-04-12T13:33:27.876Z</time></trkpt><trkpt lat="44.9372567" lon="8.0532617"><ele>175.0</ele><time>2026-04-12T13:33:28.877Z</time></trkpt><trkpt lat="44.9372917" lon="8.05308"><ele>174.75</ele><time>2026-04-12T13:33:29.877Z</time></trkpt><trkpt lat="44.9373233" lon="8.0528867"><ele>174.5</ele><time>2026-04-12T13:33:30.877Z</time></trkpt><trkpt lat="44.93736" lon="8.0526983"><ele>174.25</ele><time>2026-04-12T13:33:31.876Z</time></trkpt><trkpt lat="44.9374" lon="8.0524967"><ele>174.0</ele><time>2026-04-12T13:33:32.876Z</time></trkpt><trkpt lat="44.93744" lon="8.0522983"><ele>173.5</ele><time>2026-04-12T13:33:33.877Z</time></trkpt><trkpt lat="44.9374833" lon="8.0521"><ele>173.0</ele><time>2026-04-12T13:33:34.876Z</time></trkpt><trkpt lat="44.93752" lon="8.0518983"><ele>172.5</ele><time>2026-04-12T13:33:35.877Z</time></trkpt><trkpt lat="44.9375617" lon="8.051695"><ele>172.0</ele><time>2026-04-12T13:33:36.876Z</time></trkpt><trkpt lat="44.9376183" lon="8.05149"><ele>174.66666666666669</ele><time>2026-04-12T13:33:37.877Z</time></trkpt><trkpt lat="44.937695" lon="8.05129"><ele>177.33333333333334</ele><time>2026-04-12T13:33:38.876Z</time></trkpt><trkpt lat="44.937785" lon="8.051105"><ele>180.0</ele><time>2026-04-12T13:33:39.876Z</time></trkpt><trkpt lat="44.9378833" lon="8.05092"><ele>178.0</ele><time>2026-04-12T13:33:40.876Z</time></trkpt><trkpt lat="44.9379933" lon="8.0507483"><ele>176.0</ele><time>2026-04-12T13:33:41.876Z</time></trkpt><trkpt lat="44.938105" lon="8.0505817"><ele>174.0</ele><time>2026-04-12T13:33:42.877Z</time></trkpt><trkpt lat="44.9382083" lon="8.0504183"><ele>174.0</ele><time>2026-04-12T13:33:43.876Z</time></trkpt><trkpt lat="44.9383133" lon="8.0502417"><ele>174.0</ele><time>2026-04-12T13:33:44.876Z</time></trkpt><trkpt lat="44.9384217" lon="8.0500783"><ele>174.0</ele><time>2026-04-12T13:33:45.877Z</time></trkpt><trkpt lat="44.9385383" lon="8.04991"><ele>175.0</ele><time>2026-04-12T13:33:46.876Z</time></trkpt><trkpt lat="44.93865" lon="8.04975"><ele>176.0</ele><time>2026-04-12T13:33:47.876Z</time></trkpt><trkpt lat="44.9387633" lon="8.0495867"><ele>177.0</ele><time>2026-04-12T13:33:48.877Z</time></trkpt><trkpt lat="44.93887" lon="8.0494117"><ele>177.0</ele><time>2026-04-12T13:33:49.876Z</time></trkpt><trkpt lat="44.93897" lon="8.0492417"><ele>177.0</ele><time>2026-04-12T13:33:50.876Z</time></trkpt><trkpt lat="44.9390617" lon="8.0490517"><ele>177.0</ele><time>2026-04-12T13:33:51.877Z</time></trkpt><trkpt lat="44.9391517" lon="8.0488617"><ele>178.0</ele><time>2026-04-12T13:33:52.877Z</time></trkpt><trkpt lat="44.93925" lon="8.04867"><ele>179.0</ele><time>2026-04-12T13:33:53.876Z</time></trkpt><trkpt lat="44.93934" lon="8.0484717"><ele>180.0</ele><time>2026-04-12T13:33:54.877Z</time></trkpt><trkpt lat="44.939425" lon="8.0482617"><ele>180.0</ele><time>2026-04-12T13:33:55.877Z</time></trkpt><trkpt lat="44.93951" lon="8.0480617"><ele>180.0</ele><time>2026-04-12T13:33:56.877Z</time></trkpt><trkpt lat="44.939595" lon="8.0478583"><ele>180.0</ele><time>2026-04-12T13:33:57.876Z</time></trkpt><trkpt lat="44.9396833" lon="8.04766"><ele>179.0</ele><time>2026-04-12T13:33:58.876Z</time></trkpt><trkpt lat="44.9397733" lon="8.0474583"><ele>178.0</ele><time>2026-04-12T13:33:59.876Z</time></trkpt><trkpt lat="44.9398567" lon="8.0472617"><ele>177.0</ele><time>2026-04-12T13:34:00.876Z</time></trkpt><trkpt lat="44.9399467" lon="8.047075"><ele>177.0</ele><time>2026-04-12T13:34:01.876Z</time></trkpt><trkpt lat="44.9400283" lon="8.046885"><ele>177.0</ele><time>2026-04-12T13:34:02.877Z</time></trkpt><trkpt lat="44.9401083" lon="8.0466967"><ele>177.0</ele><time>2026-04-12T13:34:03.877Z</time></trkpt><trkpt lat="44.94019" lon="8.0465083"><ele>181.0</ele><time>2026-04-12T13:34:04.876Z</time></trkpt><trkpt lat="44.94028" lon="8.04632"><ele>185.0</ele><time>2026-04-12T13:34:05.877Z</time></trkpt><trkpt lat="44.94036" lon="8.0461383"><ele>189.0</ele><time>2026-04-12T13:34:06.877Z</time></trkpt><trkpt lat="44.940445" lon="8.04595"><ele>185.66666666666666</ele><time>2026-04-12T13:34:07.877Z</time></trkpt><trkpt lat="44.9405333" lon="8.045765"><ele>182.33333333333331</ele><time>2026-04-12T13:34:08.876Z</time></trkpt><trkpt lat="44.94063" lon="8.0455817"><ele>179.0</ele><time>2026-04-12T13:34:09.876Z</time></trkpt><trkpt lat="44.9407233" lon="8.0454017"><ele>179.0</ele><time>2026-04-12T13:34:10.877Z</time></trkpt><trkpt lat="44.940815" lon="8.0452133"><ele>179.0</ele><time>2026-04-12T13:34:11.876Z</time></trkpt><trkpt lat="44.9409133" lon="8.04504"><ele>179.0</ele><time>2026-04-12T13:34:12.877Z</time></trkpt><trkpt lat="44.9410267" lon="8.0448683"><ele>180.66666666666666</ele><time>2026-04-12T13:34:13.876Z</time></trkpt><trkpt lat="44.9411283" lon="8.0446967"><ele>182.33333333333334</ele><time>2026-04-12T13:34:14.876Z</time></trkpt><trkpt lat="44.94124" lon="8.0445267"><ele>184.0</ele><time>2026-04-12T13:34:15.876Z</time></trkpt><trkpt lat="44.9413567" lon="8.0443583"><ele>184.0</ele><time>2026-04-12T13:34:16.877Z</time></trkpt><trkpt lat="44.9414767" lon="8.044195"><ele>184.0</ele><time>2026-04-12T13:34:17.876Z</time></trkpt><trkpt lat="44.941595" lon="8.044045"><ele>184.0</ele><time>2026-04-12T13:34:18.876Z</time></trkpt><trkpt lat="44.9417233" lon="8.0439133"><ele>182.33333333333334</ele><time>2026-04-12T13:34:19.876Z</time></trkpt><trkpt lat="44.9418583" lon="8.0437883"><ele>180.66666666666666</ele><time>2026-04-12T13:34:20.876Z</time></trkpt><trkpt lat="44.94199" lon="8.0436683"><ele>179.0</ele><time>2026-04-12T13:34:21.877Z</time></trkpt><trkpt lat="44.9421283" lon="8.04355"><ele>179.0</ele><time>2026-04-12T13:34:22.876Z</time></trkpt><trkpt lat="44.9422683" lon="8.0434367"><ele>179.0</ele><time>2026-04-12T13:34:23.876Z</time></trkpt><trkpt lat="44.9424033" lon="8.0433117"><ele>179.0</ele><time>2026-04-12T13:34:24.877Z</time></trkpt><trkpt lat="44.9425433" lon="8.0431967"><ele>178.33333333333331</ele><time>2026-04-12T13:34:25.876Z</time></trkpt><trkpt lat="44.9426833" lon="8.0430783"><ele>177.66666666666666</ele><time>2026-04-12T13:34:26.877Z</time></trkpt><trkpt lat="44.9428233" lon="8.04296"><ele>177.0</ele><time>2026-04-12T13:34:27.877Z</time></trkpt><trkpt lat="44.9429617" lon="8.0428483"><ele>177.0</ele><time>2026-04-12T13:34:28.877Z</time></trkpt><trkpt lat="44.943105" lon="8.0427433"><ele>177.0</ele><time>2026-04-12T13:34:29.876Z</time></trkpt><trkpt lat="44.94325" lon="8.0426267"><ele>177.0</ele><time>2026-04-12T13:34:30.876Z</time></trkpt><trkpt lat="44.9433983" lon="8.0425133"><ele>178.33333333333334</ele><time>2026-04-12T13:34:31.876Z</time></trkpt><trkpt lat="44.94354" lon="8.0423883"><ele>179.66666666666669</ele><time>2026-04-12T13:34:32.877Z</time></trkpt><trkpt lat="44.9436817" lon="8.0422633"><ele>181.0</ele><time>2026-04-12T13:34:33.877Z</time></trkpt><trkpt lat="44.9438083" lon="8.04213"><ele>181.0</ele><time>2026-04-12T13:34:34.877Z</time></trkpt><trkpt lat="44.9439317" lon="8.0419933"><ele>181.0</ele><time>2026-04-12T13:34:35.876Z</time></trkpt><trkpt lat="44.9440567" lon="8.04186"><ele>181.0</ele><time>2026-04-12T13:34:36.877Z</time></trkpt><trkpt lat="44.94418" lon="8.0417233"><ele>181.5</ele><time>2026-04-12T13:34:37.876Z</time></trkpt><trkpt lat="44.9442933" lon="8.041605"><ele>182.0</ele><time>2026-04-12T13:34:38.877Z</time></trkpt><trkpt lat="44.9444017" lon="8.041495"><ele>182.5</ele><time>2026-04-12T13:34:39.876Z</time></trkpt><trkpt lat="44.94451" lon="8.041395"><ele>183.0</ele><time>2026-04-12T13:34:40.877Z</time></trkpt><trkpt lat="44.9446017" lon="8.0413033"><ele>183.0</ele><time>2026-04-12T13:34:41.876Z</time></trkpt><trkpt lat="44.94468" lon="8.0412167"><ele>183.0</ele><time>2026-04-12T13:34:42.877Z</time></trkpt><trkpt lat="44.9447467" lon="8.0411483"><ele>183.0</ele><time>2026-04-12T13:34:43.876Z</time></trkpt><trkpt lat="44.9448" lon="8.0411"><ele>183.0</ele><time>2026-04-12T13:34:44.877Z</time></trkpt><trkpt lat="44.9448367" lon="8.04097"><ele>183.0</ele><time>2026-04-12T13:34:46.877Z</time></trkpt><trkpt lat="44.9448133" lon="8.040885"><ele>183.0</ele><time>2026-04-12T13:34:47.877Z</time></trkpt><trkpt lat="44.9447583" lon="8.040785"><ele>182.5</ele><time>2026-04-12T13:34:48.876Z</time></trkpt><trkpt lat="44.9446833" lon="8.040675"><ele>182.0</ele><time>2026-04-12T13:34:49.876Z</time></trkpt><trkpt lat="44.944595" lon="8.0405533"><ele>181.5</ele><time>2026-04-12T13:34:50.877Z</time></trkpt><trkpt lat="44.9445067" lon="8.0404283"><ele>181.0</ele><time>2026-04-12T13:34:51.876Z</time></trkpt><trkpt lat="44.944415" lon="8.040295"><ele>181.0</ele><time>2026-04-12T13:34:52.876Z</time></trkpt><trkpt lat="44.9443183" lon="8.0401733"><ele>181.0</ele><time>2026-04-12T13:34:53.877Z</time></trkpt><trkpt lat="44.9442017" lon="8.0400617"><ele>181.0</ele><time>2026-04-12T13:34:54.876Z</time></trkpt><trkpt lat="44.9440683" lon="8.0399917"><ele>181.0</ele><time>2026-04-12T13:34:55.877Z</time></trkpt><trkpt lat="44.9439333" lon="8.0399683"><ele>181.75</ele><time>2026-04-12T13:34:56.877Z</time></trkpt><trkpt lat="44.94379" lon="8.0399767"><ele>182.5</ele><time>2026-04-12T13:34:57.876Z</time></trkpt><trkpt lat="44.9436417" lon="8.04"><ele>183.25</ele><time>2026-04-12T13:34:58.877Z</time></trkpt><trkpt lat="44.943495" lon="8.0400333"><ele>184.0</ele><time>2026-04-12T13:34:59.877Z</time></trkpt><trkpt lat="44.9433417" lon="8.0400567"><ele>185.5</ele><time>2026-04-12T13:35:00.876Z</time></trkpt><trkpt lat="44.943195" lon="8.0400333"><ele>187.0</ele><time>2026-04-12T13:35:01.876Z</time></trkpt><trkpt lat="44.9430533" lon="8.0399783"><ele>188.5</ele><time>2026-04-12T13:35:02.876Z</time></trkpt><trkpt lat="44.94293" lon="8.0398667"><ele>190.0</ele><time>2026-04-12T13:35:03.876Z</time></trkpt><trkpt lat="44.9428117" lon="8.0397317"><ele>193.75</ele><time>2026-04-12T13:35:04.876Z</time></trkpt><trkpt lat="44.9427133" lon="8.0395733"><ele>197.5</ele><time>2026-04-12T13:35:05.877Z</time></trkpt><trkpt lat="44.9426233" lon="8.0394083"><ele>201.25</ele><time>2026-04-12T13:35:06.877Z</time></trkpt><trkpt lat="44.9425517" lon="8.0392233"><ele>205.0</ele><time>2026-04-12T13:35:07.876Z</time></trkpt><trkpt lat="44.942495" lon="8.0390117"><ele>205.5</ele><time>2026-04-12T13:35:08.877Z</time></trkpt><trkpt lat="44.942435" lon="8.0388217"><ele>206.0</ele><time>2026-04-12T13:35:09.876Z</time></trkpt><trkpt lat="44.942385" lon="8.0386317"><ele>206.5</ele><time>2026-04-12T13:35:10.876Z</time></trkpt><trkpt lat="44.9423333" lon="8.0384683"><ele>207.0</ele><time>2026-04-12T13:35:11.877Z</time></trkpt><trkpt lat="44.9422867" lon="8.0383"><ele>209.2</ele><time>2026-04-12T13:35:12.877Z</time></trkpt><trkpt lat="44.94224" lon="8.0381417"><ele>211.39999999999998</ele><time>2026-04-12T13:35:13.877Z</time></trkpt><trkpt lat="44.942185" lon="8.03799"><ele>213.60000000000002</ele><time>2026-04-12T13:35:14.876Z</time></trkpt><trkpt lat="44.9421483" lon="8.0378533"><ele>215.8</ele><time>2026-04-12T13:35:15.877Z</time></trkpt><trkpt lat="44.9421333" lon="8.0377283"><ele>218.0</ele><time>2026-04-12T13:35:16.876Z</time></trkpt><trkpt lat="44.942135" lon="8.03762"><ele>218.0</ele><time>2026-04-12T13:35:17.876Z</time></trkpt><trkpt lat="44.9421867" lon="8.0375233"><ele>218.0</ele><time>2026-04-12T13:35:19.876Z</time></trkpt><trkpt lat="44.9422783" lon="8.0376483"><ele>218.0</ele><time>2026-04-12T13:35:21.876Z</time></trkpt><trkpt lat="44.94233" lon="8.03779"><ele>218.0</ele><time>2026-04-12T13:35:22.877Z</time></trkpt><trkpt lat="44.9423883" lon="8.03795"><ele>218.0</ele><time>2026-04-12T13:35:23.876Z</time></trkpt><trkpt lat="44.9424483" lon="8.0381133"><ele>218.0</ele><time>2026-04-12T13:35:24.876Z</time></trkpt><trkpt lat="44.9425167" lon="8.038255"><ele>218.0</ele><time>2026-04-12T13:35:25.876Z</time></trkpt><trkpt lat="44.9426083" lon="8.038355"><ele>218.0</ele><time>2026-04-12T13:35:26.876Z</time></trkpt><trkpt lat="44.9427217" lon="8.038415"><ele>218.0</ele><time>2026-04-12T13:35:27.876Z</time></trkpt><trkpt lat="44.94284" lon="8.0384417"><ele>218.0</ele><time>2026-04-12T13:35:28.877Z</time></trkpt><trkpt lat="44.9429717" lon="8.0384567"><ele>218.0</ele><time>2026-04-12T13:35:29.876Z</time></trkpt><trkpt lat="44.9430967" lon="8.038455"><ele>218.0</ele><time>2026-04-12T13:35:30.877Z</time></trkpt><trkpt lat="44.9432117" lon="8.0384633"><ele>218.0</ele><time>2026-04-12T13:35:31.877Z</time></trkpt><trkpt lat="44.9433117" lon="8.0384717"><ele>218.0</ele><time>2026-04-12T13:35:32.876Z</time></trkpt><trkpt lat="44.9433867" lon="8.0384617"><ele>218.0</ele><time>2026-04-12T13:35:33.876Z</time></trkpt><trkpt lat="44.9434917" lon="8.0383517"><ele>218.0</ele><time>2026-04-12T13:35:35.877Z</time></trkpt><trkpt lat="44.9434567" lon="8.03818"><ele>218.0</ele><time>2026-04-12T13:35:37.876Z</time></trkpt><trkpt lat="44.9433717" lon="8.0381017"><ele>221.25</ele><time>2026-04-12T13:35:38.876Z</time></trkpt><trkpt lat="44.9432433" lon="8.0380433"><ele>224.5</ele><time>2026-04-12T13:35:39.876Z</time></trkpt><trkpt lat="44.9431033" lon="8.0379967"><ele>227.75</ele><time>2026-04-12T13:35:40.877Z</time></trkpt><trkpt lat="44.942965" lon="8.03795"><ele>231.0</ele><time>2026-04-12T13:35:41.876Z</time></trkpt><trkpt lat="44.9428467" lon="8.03788"><ele>231.0</ele><time>2026-04-12T13:35:42.876Z</time></trkpt><trkpt lat="44.9427583" lon="8.0377617"><ele>231.0</ele><time>2026-04-12T13:35:43.876Z</time></trkpt><trkpt lat="44.9427333" lon="8.0376117"><ele>231.0</ele><time>2026-04-12T13:35:44.876Z</time></trkpt><trkpt lat="44.9427517" lon="8.037445"><ele>231.0</ele><time>2026-04-12T13:35:45.876Z</time></trkpt><trkpt lat="44.9427917" lon="8.0372717"><ele>234.0</ele><time>2026-04-12T13:35:46.876Z</time></trkpt><trkpt lat="44.9428283" lon="8.0370917"><ele>237.0</ele><time>2026-04-12T13:35:47.876Z</time></trkpt><trkpt lat="44.9428467" lon="8.03692"><ele>240.0</ele><time>2026-04-12T13:35:48.877Z</time></trkpt><trkpt lat="44.942835" lon="8.0367467"><ele>243.0</ele><time>2026-04-12T13:35:49.876Z</time></trkpt><trkpt lat="44.9427933" lon="8.0365833"><ele>244.75</ele><time>2026-04-12T13:35:50.877Z</time></trkpt><trkpt lat="44.9427517" lon="8.0364133"><ele>246.5</ele><time>2026-04-12T13:35:51.876Z</time></trkpt><trkpt lat="44.9427033" lon="8.036245"><ele>248.25</ele><time>2026-04-12T13:35:52.877Z</time></trkpt><trkpt lat="44.9426433" lon="8.0360817"><ele>250.0</ele><time>2026-04-12T13:35:53.876Z</time></trkpt><trkpt lat="44.94258" lon="8.0359083"><ele>248.5</ele><time>2026-04-12T13:35:54.876Z</time></trkpt><trkpt lat="44.94252" lon="8.0357367"><ele>247.0</ele><time>2026-04-12T13:35:55.876Z</time></trkpt><trkpt lat="44.9424533" lon="8.0355817"><ele>245.5</ele><time>2026-04-12T13:35:56.876Z</time></trkpt><trkpt lat="44.9423833" lon="8.0354233"><ele>244.0</ele><time>2026-04-12T13:35:57.877Z</time></trkpt><trkpt lat="44.942305" lon="8.03527"><ele>244.0</ele><time>2026-04-12T13:35:58.877Z</time></trkpt><trkpt lat="44.9422167" lon="8.0351233"><ele>244.0</ele><time>2026-04-12T13:35:59.876Z</time></trkpt><trkpt lat="44.9421467" lon="8.0349933"><ele>244.0</ele><time>2026-04-12T13:36:00.877Z</time></trkpt><trkpt lat="44.942085" lon="8.0348817"><ele>244.0</ele><time>2026-04-12T13:36:01.876Z</time></trkpt><trkpt lat="44.94202" lon="8.0347767"><ele>244.2</ele><time>2026-04-12T13:36:02.877Z</time></trkpt><trkpt lat="44.9419733" lon="8.03467"><ele>244.39999999999998</ele><time>2026-04-12T13:36:03.876Z</time></trkpt><trkpt lat="44.9419467" lon="8.0345783"><ele>244.6</ele><time>2026-04-12T13:36:04.876Z</time></trkpt><trkpt lat="44.941965" lon="8.0344233"><ele>244.8</ele><time>2026-04-12T13:36:06.876Z</time></trkpt><trkpt lat="44.9420783" lon="8.034365"><ele>245.0</ele><time>2026-04-12T13:36:08.876Z</time></trkpt><trkpt lat="44.9421767" lon="8.0343617"><ele>245.0</ele><time>2026-04-12T13:36:09.876Z</time></trkpt><trkpt lat="44.942285" lon="8.0343567"><ele>245.0</ele><time>2026-04-12T13:36:10.876Z</time></trkpt><trkpt lat="44.9424017" lon="8.0343433"><ele>245.0</ele><time>2026-04-12T13:36:11.876Z</time></trkpt><trkpt lat="44.94252" lon="8.0343283"><ele>245.0</ele><time>2026-04-12T13:36:12.876Z</time></trkpt><trkpt lat="44.94264" lon="8.0343017"><ele>246.5</ele><time>2026-04-12T13:36:13.876Z</time></trkpt><trkpt lat="44.94277" lon="8.0342717"><ele>248.0</ele><time>2026-04-12T13:36:14.877Z</time></trkpt><trkpt lat="44.9428967" lon="8.0342383"><ele>249.5</ele><time>2026-04-12T13:36:15.877Z</time></trkpt><trkpt lat="44.943025" lon="8.0342"><ele>251.0</ele><time>2026-04-12T13:36:16.877Z</time></trkpt><trkpt lat="44.943145" lon="8.0341683"><ele>249.20000000000002</ele><time>2026-04-12T13:36:17.876Z</time></trkpt><trkpt lat="44.94327" lon="8.034125"><ele>247.40000000000003</ele><time>2026-04-12T13:36:18.876Z</time></trkpt><trkpt lat="44.9433867" lon="8.034085"><ele>245.6</ele><time>2026-04-12T13:36:19.876Z</time></trkpt><trkpt lat="44.943485" lon="8.0340517"><ele>243.8</ele><time>2026-04-12T13:36:20.877Z</time></trkpt><trkpt lat="44.9435783" lon="8.0340183"><ele>242.0</ele><time>2026-04-12T13:36:21.876Z</time></trkpt><trkpt lat="44.9436733" lon="8.0340117"><ele>242.0</ele><time>2026-04-12T13:36:22.877Z</time></trkpt><trkpt lat="44.9437767" lon="8.034005"><ele>242.0</ele><time>2026-04-12T13:36:23.876Z</time></trkpt><trkpt lat="44.9438733" lon="8.0340133"><ele>242.0</ele><time>2026-04-12T13:36:24.876Z</time></trkpt><trkpt lat="44.9439717" lon="8.0340217"><ele>242.0</ele><time>2026-04-12T13:36:25.876Z</time></trkpt><trkpt lat="44.9440717" lon="8.0340567"><ele>242.0</ele><time>2026-04-12T13:36:26.877Z</time></trkpt><trkpt lat="44.944175" lon="8.0340917"><ele>243.0</ele><time>2026-04-12T13:36:27.877Z</time></trkpt><trkpt lat="44.9442767" lon="8.0341433"><ele>244.0</ele><time>2026-04-12T13:36:28.876Z</time></trkpt><trkpt lat="44.9443733" lon="8.0341833"><ele>245.0</ele><time>2026-04-12T13:36:29.876Z</time></trkpt><trkpt lat="44.944455" lon="8.03422"><ele>246.0</ele><time>2026-04-12T13:36:30.877Z</time></trkpt><trkpt lat="44.9445367" lon="8.0342383"><ele>247.0</ele><time>2026-04-12T13:36:31.876Z</time></trkpt><trkpt lat="44.9446183" lon="8.03424"><ele>247.0</ele><time>2026-04-12T13:36:32.876Z</time></trkpt><trkpt lat="44.9447067" lon="8.0342"><ele>247.0</ele><time>2026-04-12T13:36:33.876Z</time></trkpt><trkpt lat="44.9448067" lon="8.0341483"><ele>247.0</ele><time>2026-04-12T13:36:34.876Z</time></trkpt><trkpt lat="44.9448983" lon="8.0340717"><ele>247.0</ele><time>2026-04-12T13:36:35.877Z</time></trkpt><trkpt lat="44.94499" lon="8.0339633"><ele>247.0</ele><time>2026-04-12T13:36:36.876Z</time></trkpt><trkpt lat="44.9450867" lon="8.0338567"><ele>245.75</ele><time>2026-04-12T13:36:37.876Z</time></trkpt><trkpt lat="44.9451617" lon="8.0337367"><ele>244.5</ele><time>2026-04-12T13:36:38.877Z</time></trkpt><trkpt lat="44.945245" lon="8.0336183"><ele>243.25</ele><time>2026-04-12T13:36:39.877Z</time></trkpt><trkpt lat="44.9453267" lon="8.0335"><ele>242.0</ele><time>2026-04-12T13:36:40.877Z</time></trkpt><trkpt lat="44.9454117" lon="8.0333983"><ele>242.0</ele><time>2026-04-12T13:36:41.876Z</time></trkpt><trkpt lat="44.9454933" lon="8.0333117"><ele>242.0</ele><time>2026-04-12T13:36:42.876Z</time></trkpt><trkpt lat="44.945585" lon="8.033265"><ele>242.0</ele><time>2026-04-12T13:36:43.876Z</time></trkpt><trkpt lat="44.9456933" lon="8.0332283"><ele>242.0</ele><time>2026-04-12T13:36:44.877Z</time></trkpt><trkpt lat="44.9458117" lon="8.0332117"><ele>242.0</ele><time>2026-04-12T13:36:45.876Z</time></trkpt><trkpt lat="44.9459333" lon="8.0332117"><ele>243.5</ele><time>2026-04-12T13:36:46.876Z</time></trkpt><trkpt lat="44.9460717" lon="8.0331967"><ele>245.0</ele><time>2026-04-12T13:36:47.876Z</time></trkpt><trkpt lat="44.9462167" lon="8.0331767"><ele>246.5</ele><time>2026-04-12T13:36:48.877Z</time></trkpt><trkpt lat="44.9463617" lon="8.03317"><ele>248.0</ele><time>2026-04-12T13:36:49.877Z</time></trkpt><trkpt lat="44.9464983" lon="8.03316"><ele>248.0</ele><time>2026-04-12T13:36:50.876Z</time></trkpt><trkpt lat="44.9466117" lon="8.0331117"><ele>248.0</ele><time>2026-04-12T13:36:51.877Z</time></trkpt><trkpt lat="44.9467117" lon="8.0330383"><ele>248.0</ele><time>2026-04-12T13:36:52.876Z</time></trkpt><trkpt lat="44.9468" lon="8.0329217"><ele>248.0</ele><time>2026-04-12T13:36:53.876Z</time></trkpt><trkpt lat="44.94686" lon="8.03276"><ele>244.75</ele><time>2026-04-12T13:36:54.877Z</time></trkpt><trkpt lat="44.9468933" lon="8.0325683"><ele>241.5</ele><time>2026-04-12T13:36:55.876Z</time></trkpt><trkpt lat="44.9469317" lon="8.0323617"><ele>238.25</ele><time>2026-04-12T13:36:56.876Z</time></trkpt><trkpt lat="44.9469767" lon="8.0321533"><ele>235.0</ele><time>2026-04-12T13:36:57.876Z</time></trkpt><trkpt lat="44.9470233" lon="8.0319417"><ele>235.0</ele><time>2026-04-12T13:36:58.876Z</time></trkpt><trkpt lat="44.947055" lon="8.03174"><ele>235.0</ele><time>2026-04-12T13:36:59.876Z</time></trkpt><trkpt lat="44.94708" lon="8.0315417"><ele>235.0</ele><time>2026-04-12T13:37:00.876Z</time></trkpt><trkpt lat="44.947095" lon="8.03133"><ele>235.0</ele><time>2026-04-12T13:37:01.877Z</time></trkpt><trkpt lat="44.9470683" lon="8.03113"><ele>238.33333333333331</ele><time>2026-04-12T13:37:02.876Z</time></trkpt><trkpt lat="44.9470583" lon="8.0309117"><ele>241.66666666666669</ele><time>2026-04-12T13:37:03.877Z</time></trkpt><trkpt lat="44.9470383" lon="8.0307017"><ele>245.0</ele><time>2026-04-12T13:37:04.876Z</time></trkpt><trkpt lat="44.9470267" lon="8.0304733"><ele>246.66666666666669</ele><time>2026-04-12T13:37:05.877Z</time></trkpt><trkpt lat="44.9470183" lon="8.030245"><ele>248.33333333333331</ele><time>2026-04-12T13:37:06.876Z</time></trkpt><trkpt lat="44.9469933" lon="8.0300217"><ele>250.0</ele><time>2026-04-12T13:37:07.877Z</time></trkpt><trkpt lat="44.9469617" lon="8.0298033"><ele>250.5</ele><time>2026-04-12T13:37:08.876Z</time></trkpt><trkpt lat="44.9469233" lon="8.0295967"><ele>251.0</ele><time>2026-04-12T13:37:09.876Z</time></trkpt><trkpt lat="44.9468867" lon="8.0294133"><ele>251.5</ele><time>2026-04-12T13:37:10.876Z</time></trkpt><trkpt lat="44.9468333" lon="8.02925"><ele>252.0</ele><time>2026-04-12T13:37:11.877Z</time></trkpt><trkpt lat="44.9467717" lon="8.029095"><ele>249.39999999999998</ele><time>2026-04-12T13:37:12.876Z</time></trkpt><trkpt lat="44.9467083" lon="8.0289583"><ele>246.79999999999998</ele><time>2026-04-12T13:37:13.876Z</time></trkpt><trkpt lat="44.9466533" lon="8.0288433"><ele>244.2</ele><time>2026-04-12T13:37:14.876Z</time></trkpt><trkpt lat="44.946605" lon="8.028735"><ele>241.6</ele><time>2026-04-12T13:37:15.876Z</time></trkpt><trkpt lat="44.9465767" lon="8.0286233"><ele>239.0</ele><time>2026-04-12T13:37:16.876Z</time></trkpt><trkpt lat="44.94656" lon="8.0285067"><ele>239.0</ele><time>2026-04-12T13:37:17.877Z</time></trkpt><trkpt lat="44.9465833" lon="8.0283983"><ele>238.99999999999997</ele><time>2026-04-12T13:37:18.876Z</time></trkpt><trkpt lat="44.946635" lon="8.0283067"><ele>238.99999999999997</ele><time>2026-04-12T13:37:19.877Z</time></trkpt><trkpt lat="44.9467233" lon="8.0282283"><ele>239.0</ele><time>2026-04-12T13:37:20.876Z</time></trkpt><trkpt lat="44.94684" lon="8.0281567"><ele>239.0</ele><time>2026-04-12T13:37:21.877Z</time></trkpt><trkpt lat="44.94696" lon="8.0280883"><ele>238.5</ele><time>2026-04-12T13:37:22.876Z</time></trkpt><trkpt lat="44.9470783" lon="8.028015"><ele>238.0</ele><time>2026-04-12T13:37:23.876Z</time></trkpt><trkpt lat="44.9471983" lon="8.0279367"><ele>237.5</ele><time>2026-04-12T13:37:24.876Z</time></trkpt><trkpt lat="44.9473167" lon="8.0278617"><ele>237.0</ele><time>2026-04-12T13:37:25.877Z</time></trkpt><trkpt lat="44.9474417" lon="8.0277867"><ele>239.0</ele><time>2026-04-12T13:37:26.876Z</time></trkpt><trkpt lat="44.94757" lon="8.0277067"><ele>241.0</ele><time>2026-04-12T13:37:27.876Z</time></trkpt><trkpt lat="44.9476833" lon="8.02762"><ele>243.0</ele><time>2026-04-12T13:37:28.876Z</time></trkpt><trkpt lat="44.9477983" lon="8.027535"><ele>245.0</ele><time>2026-04-12T13:37:29.876Z</time></trkpt><trkpt lat="44.9479083" lon="8.027465"><ele>245.0</ele><time>2026-04-12T13:37:30.877Z</time></trkpt><trkpt lat="44.94802" lon="8.0273933"><ele>245.0</ele><time>2026-04-12T13:37:31.876Z</time></trkpt><trkpt lat="44.9481317" lon="8.0273283"><ele>245.0</ele><time>2026-04-12T13:37:32.877Z</time></trkpt><trkpt lat="44.9482317" lon="8.02726"><ele>245.0</ele><time>2026-04-12T13:37:33.876Z</time></trkpt><trkpt lat="44.9483367" lon="8.0272067"><ele>246.0</ele><time>2026-04-12T13:37:34.876Z</time></trkpt><trkpt lat="44.94844" lon="8.027165"><ele>247.0</ele><time>2026-04-12T13:37:35.876Z</time></trkpt><trkpt lat="44.9485383" lon="8.0271583"><ele>248.0</ele><time>2026-04-12T13:37:36.877Z</time></trkpt><trkpt lat="44.9486417" lon="8.0271733"><ele>249.0</ele><time>2026-04-12T13:37:37.877Z</time></trkpt><trkpt lat="44.9487533" lon="8.0272183"><ele>250.0</ele><time>2026-04-12T13:37:38.876Z</time></trkpt><trkpt lat="44.948855" lon="8.0272833"><ele>250.0</ele><time>2026-04-12T13:37:39.877Z</time></trkpt><trkpt lat="44.948955" lon="8.027355"><ele>250.0</ele><time>2026-04-12T13:37:40.876Z</time></trkpt><trkpt lat="44.94906" lon="8.0274117"><ele>250.0</ele><time>2026-04-12T13:37:41.876Z</time></trkpt><trkpt lat="44.9491717" lon="8.027455"><ele>250.0</ele><time>2026-04-12T13:37:42.877Z</time></trkpt><trkpt lat="44.949285" lon="8.0274817"><ele>248.0</ele><time>2026-04-12T13:37:43.876Z</time></trkpt><trkpt lat="44.949395" lon="8.027485"><ele>246.0</ele><time>2026-04-12T13:37:44.877Z</time></trkpt><trkpt lat="44.9495" lon="8.0274717"><ele>244.0</ele><time>2026-04-12T13:37:45.877Z</time></trkpt><trkpt lat="44.9496" lon="8.0274533"><ele>242.0</ele><time>2026-04-12T13:37:46.877Z</time></trkpt><trkpt lat="44.9496917" lon="8.0274267"><ele>240.0</ele><time>2026-04-12T13:37:47.877Z</time></trkpt><trkpt lat="44.9497783" lon="8.027415"><ele>240.0</ele><time>2026-04-12T13:37:48.877Z</time></trkpt><trkpt lat="44.949865" lon="8.0274033"><ele>240.0</ele><time>2026-04-12T13:37:49.876Z</time></trkpt><trkpt lat="44.9499517" lon="8.0274117"><ele>240.0</ele><time>2026-04-12T13:37:50.876Z</time></trkpt><trkpt lat="44.9500283" lon="8.0274017"><ele>240.0</ele><time>2026-04-12T13:37:51.876Z</time></trkpt><trkpt lat="44.9500983" lon="8.0273983"><ele>240.0</ele><time>2026-04-12T13:37:52.877Z</time></trkpt><trkpt lat="44.9502033" lon="8.027355"><ele>240.0</ele><time>2026-04-12T13:37:54.877Z</time></trkpt><trkpt lat="44.950225" lon="8.0272517"><ele>244.0</ele><time>2026-04-12T13:37:56.877Z</time></trkpt><trkpt lat="44.9502133" lon="8.0271117"><ele>244.0</ele><time>2026-04-12T13:37:58.876Z</time></trkpt><trkpt lat="44.9502" lon="8.0269833"><ele>244.0</ele><time>2026-04-12T13:38:00.876Z</time></trkpt><trkpt lat="44.9501883" lon="8.026895"><ele>244.0</ele><time>2026-04-12T13:38:02.877Z</time></trkpt><trkpt lat="44.9501783" lon="8.026795"><ele>244.0</ele><time>2026-04-12T13:38:05.876Z</time></trkpt><trkpt lat="44.95013" lon="8.0267367"><ele>244.0</ele><time>2026-04-12T13:38:15.876Z</time></trkpt></trkseg></trk></gpx>